<?xml version="1.0"?>
<gpx
 version="1.1"
 creator="Satmap Active 20"
 xmlns:xsi="http://www.w3.org/2001/XMLSchema-instance"
 xmlns="http://www.topografix.com/GPX/1/1"
 xmlns:satmap="http://www.satmap.com/updates/xmlschemas/GpxExtensions/v2/GpxExtensions_v2.xsd"
 xsi:schemaLocation="http://www.topografix.com/GPX/1/1 http://www.topografix.com/GPX/1/1/gpx.xsd">
<metadata>
<time>2022-04-15T09:44:50Z</time>
<extensions>
<satmap:platform>43</satmap:platform>
<satmap:software version="3.12.831">SM15.exe</satmap:software>
<satmap:username>Jim Grant</satmap:username>
<satmap:network_ids>
<satmap:network_id type="wifi">00-23-A7-EC-D5-78</satmap:network_id>
<satmap:network_id type="bluetooth">80-BB-EB-D7-5B-7C</satmap:network_id>
</satmap:network_ids>
<satmap:snap_type>simple</satmap:snap_type>
</extensions>
</metadata>
<trk>
<name>2022-04-15_0945</name>
<desc>Track 1</desc>
<number>1</number>
<trkseg>
<trkpt lat="52.972976" lon="-3.256285"><ele>191</ele><time>2022-04-15T09:44:50Z</time><name>PT1</name></trkpt>
<trkpt lat="52.972973" lon="-3.256288"><ele>190</ele><time>2022-04-15T09:45:23Z</time><name>PT2</name></trkpt>
<trkpt lat="52.972974" lon="-3.256291"><ele>190</ele><time>2022-04-15T09:45:24Z</time><name>PT3</name></trkpt>
<trkpt lat="52.972976" lon="-3.256293"><ele>189</ele><time>2022-04-15T09:45:25Z</time><name>PT4</name></trkpt>
<trkpt lat="52.972975" lon="-3.256293"><ele>189</ele><time>2022-04-15T09:45:26Z</time><name>PT5</name></trkpt>
<trkpt lat="52.972980" lon="-3.256302"><ele>189</ele><time>2022-04-15T09:45:28Z</time><name>PT6</name></trkpt>
<trkpt lat="52.972988" lon="-3.256319"><ele>187</ele><time>2022-04-15T09:45:29Z</time><name>PT7</name></trkpt>
<trkpt lat="52.972989" lon="-3.256319"><ele>187</ele><time>2022-04-15T09:45:30Z</time><name>PT8</name></trkpt>
<trkpt lat="52.972990" lon="-3.256314"><ele>188</ele><time>2022-04-15T09:45:31Z</time><name>PT9</name></trkpt>
<trkpt lat="52.972991" lon="-3.256308"><ele>188</ele><time>2022-04-15T09:45:32Z</time><name>PT10</name></trkpt>
<trkpt lat="52.972995" lon="-3.256308"><ele>186</ele><time>2022-04-15T09:45:33Z</time><name>PT11</name></trkpt>
<trkpt lat="52.972997" lon="-3.256307"><ele>186</ele><time>2022-04-15T09:45:34Z</time><name>PT12</name></trkpt>
<trkpt lat="52.973001" lon="-3.256302"><ele>186</ele><time>2022-04-15T09:45:35Z</time><name>PT13</name></trkpt>
<trkpt lat="52.972998" lon="-3.256288"><ele>185</ele><time>2022-04-15T09:45:36Z</time><name>PT14</name></trkpt>
<trkpt lat="52.972998" lon="-3.256291"><ele>185</ele><time>2022-04-15T09:45:37Z</time><name>PT15</name></trkpt>
<trkpt lat="52.973002" lon="-3.256298"><ele>184</ele><time>2022-04-15T09:45:38Z</time><name>PT16</name></trkpt>
<trkpt lat="52.973003" lon="-3.256304"><ele>184</ele><time>2022-04-15T09:46:06Z</time><name>PT17</name></trkpt>
<trkpt lat="52.973003" lon="-3.256314"><ele>184</ele><time>2022-04-15T09:46:07Z</time><name>PT18</name></trkpt>
<trkpt lat="52.973001" lon="-3.256321"><ele>183</ele><time>2022-04-15T09:46:08Z</time><name>PT19</name></trkpt>
<trkpt lat="52.973001" lon="-3.256320"><ele>183</ele><time>2022-04-15T09:46:24Z</time><name>PT20</name></trkpt>
<trkpt lat="52.973002" lon="-3.256322"><ele>183</ele><time>2022-04-15T09:46:25Z</time><name>PT21</name></trkpt>
<trkpt lat="52.972999" lon="-3.256323"><ele>183</ele><time>2022-04-15T09:46:26Z</time><name>PT22</name></trkpt>
<trkpt lat="52.972996" lon="-3.256328"><ele>182</ele><time>2022-04-15T09:46:27Z</time><name>PT23</name></trkpt>
<trkpt lat="52.972997" lon="-3.256339"><ele>182</ele><time>2022-04-15T09:46:28Z</time><name>PT24</name></trkpt>
<trkpt lat="52.972997" lon="-3.256335"><ele>182</ele><time>2022-04-15T09:46:45Z</time><name>PT25</name></trkpt>
<trkpt lat="52.972998" lon="-3.256337"><ele>183</ele><time>2022-04-15T09:46:46Z</time><name>PT26</name></trkpt>
<trkpt lat="52.972999" lon="-3.256337"><ele>183</ele><time>2022-04-15T09:46:47Z</time><name>PT27</name></trkpt>
<trkpt lat="52.973003" lon="-3.256346"><ele>183</ele><time>2022-04-15T09:47:34Z</time><name>PT28</name></trkpt>
<trkpt lat="52.973000" lon="-3.256347"><ele>183</ele><time>2022-04-15T09:47:35Z</time><name>PT29</name></trkpt>
<trkpt lat="52.972997" lon="-3.256342"><ele>182</ele><time>2022-04-15T09:47:36Z</time><name>PT30</name></trkpt>
<trkpt lat="52.972996" lon="-3.256339"><ele>182</ele><time>2022-04-15T09:47:37Z</time><name>PT31</name></trkpt>
<trkpt lat="52.972997" lon="-3.256352"><ele>181</ele><time>2022-04-15T09:49:49Z</time><name>PT32</name></trkpt>
<trkpt lat="52.972977" lon="-3.256316"><ele>180</ele><time>2022-04-15T09:49:52Z</time><name>PT33</name></trkpt>
<trkpt lat="52.972966" lon="-3.256272"><ele>180</ele><time>2022-04-15T09:49:55Z</time><name>PT34</name></trkpt>
<trkpt lat="52.972949" lon="-3.256225"><ele>180</ele><time>2022-04-15T09:49:58Z</time><name>PT35</name></trkpt>
<trkpt lat="52.972928" lon="-3.256179"><ele>180</ele><time>2022-04-15T09:50:02Z</time><name>PT36</name></trkpt>
<trkpt lat="52.972908" lon="-3.256165"><ele>181</ele><time>2022-04-15T09:50:05Z</time><name>PT37</name></trkpt>
<trkpt lat="52.972892" lon="-3.256155"><ele>181</ele><time>2022-04-15T09:50:08Z</time><name>PT38</name></trkpt>
<trkpt lat="52.972875" lon="-3.256138"><ele>181</ele><time>2022-04-15T09:50:12Z</time><name>PT39</name></trkpt>
<trkpt lat="52.972857" lon="-3.256147"><ele>183</ele><time>2022-04-15T09:50:15Z</time><name>PT40</name></trkpt>
<trkpt lat="52.972829" lon="-3.256147"><ele>183</ele><time>2022-04-15T09:50:19Z</time><name>PT41</name></trkpt>
<trkpt lat="52.972806" lon="-3.256149"><ele>182</ele><time>2022-04-15T09:50:22Z</time><name>PT42</name></trkpt>
<trkpt lat="52.972784" lon="-3.256143"><ele>182</ele><time>2022-04-15T09:50:25Z</time><name>PT43</name></trkpt>
<trkpt lat="52.972755" lon="-3.256150"><ele>182</ele><time>2022-04-15T09:50:29Z</time><name>PT44</name></trkpt>
<trkpt lat="52.972734" lon="-3.256154"><ele>180</ele><time>2022-04-15T09:50:32Z</time><name>PT45</name></trkpt>
<trkpt lat="52.972704" lon="-3.256151"><ele>183</ele><time>2022-04-15T09:50:36Z</time><name>PT46</name></trkpt>
<trkpt lat="52.972681" lon="-3.256160"><ele>183</ele><time>2022-04-15T09:50:39Z</time><name>PT47</name></trkpt>
<trkpt lat="52.972653" lon="-3.256172"><ele>184</ele><time>2022-04-15T09:50:43Z</time><name>PT48</name></trkpt>
<trkpt lat="52.972634" lon="-3.256180"><ele>185</ele><time>2022-04-15T09:50:46Z</time><name>PT49</name></trkpt>
<trkpt lat="52.972609" lon="-3.256193"><ele>183</ele><time>2022-04-15T09:50:50Z</time><name>PT50</name></trkpt>
<trkpt lat="52.972569" lon="-3.256207"><ele>183</ele><time>2022-04-15T09:50:54Z</time><name>PT51</name></trkpt>
<trkpt lat="52.972549" lon="-3.256212"><ele>184</ele><time>2022-04-15T09:50:57Z</time><name>PT52</name></trkpt>
<trkpt lat="52.972511" lon="-3.256208"><ele>184</ele><time>2022-04-15T09:51:01Z</time><name>PT53</name></trkpt>
<trkpt lat="52.972485" lon="-3.256209"><ele>184</ele><time>2022-04-15T09:51:04Z</time><name>PT54</name></trkpt>
<trkpt lat="52.972461" lon="-3.256214"><ele>185</ele><time>2022-04-15T09:51:07Z</time><name>PT55</name></trkpt>
<trkpt lat="52.972438" lon="-3.256229"><ele>186</ele><time>2022-04-15T09:51:10Z</time><name>PT56</name></trkpt>
<trkpt lat="52.972408" lon="-3.256233"><ele>187</ele><time>2022-04-15T09:51:14Z</time><name>PT57</name></trkpt>
<trkpt lat="52.972385" lon="-3.256224"><ele>188</ele><time>2022-04-15T09:51:17Z</time><name>PT58</name></trkpt>
<trkpt lat="52.972353" lon="-3.256227"><ele>189</ele><time>2022-04-15T09:51:21Z</time><name>PT59</name></trkpt>
<trkpt lat="52.972324" lon="-3.256234"><ele>188</ele><time>2022-04-15T09:51:25Z</time><name>PT60</name></trkpt>
<trkpt lat="52.972307" lon="-3.256225"><ele>186</ele><time>2022-04-15T09:51:28Z</time><name>PT61</name></trkpt>
<trkpt lat="52.972284" lon="-3.256245"><ele>185</ele><time>2022-04-15T09:51:31Z</time><name>PT62</name></trkpt>
<trkpt lat="52.972257" lon="-3.256264"><ele>186</ele><time>2022-04-15T09:51:35Z</time><name>PT63</name></trkpt>
<trkpt lat="52.972228" lon="-3.256298"><ele>186</ele><time>2022-04-15T09:51:38Z</time><name>PT64</name></trkpt>
<trkpt lat="52.972189" lon="-3.256320"><ele>188</ele><time>2022-04-15T09:51:41Z</time><name>PT65</name></trkpt>
<trkpt lat="52.972146" lon="-3.256338"><ele>187</ele><time>2022-04-15T09:51:45Z</time><name>PT66</name></trkpt>
<trkpt lat="52.972099" lon="-3.256350"><ele>188</ele><time>2022-04-15T09:51:49Z</time><name>PT67</name></trkpt>
<trkpt lat="52.972059" lon="-3.256367"><ele>188</ele><time>2022-04-15T09:51:53Z</time><name>PT68</name></trkpt>
<trkpt lat="52.972020" lon="-3.256383"><ele>188</ele><time>2022-04-15T09:51:57Z</time><name>PT69</name></trkpt>
<trkpt lat="52.971985" lon="-3.256395"><ele>187</ele><time>2022-04-15T09:52:01Z</time><name>PT70</name></trkpt>
<trkpt lat="52.971947" lon="-3.256414"><ele>187</ele><time>2022-04-15T09:52:04Z</time><name>PT71</name></trkpt>
<trkpt lat="52.971911" lon="-3.256427"><ele>189</ele><time>2022-04-15T09:52:08Z</time><name>PT72</name></trkpt>
<trkpt lat="52.971880" lon="-3.256436"><ele>189</ele><time>2022-04-15T09:52:11Z</time><name>PT73</name></trkpt>
<trkpt lat="52.971838" lon="-3.256453"><ele>187</ele><time>2022-04-15T09:52:15Z</time><name>PT74</name></trkpt>
<trkpt lat="52.971796" lon="-3.256450"><ele>189</ele><time>2022-04-15T09:52:18Z</time><name>PT75</name></trkpt>
<trkpt lat="52.971758" lon="-3.256450"><ele>189</ele><time>2022-04-15T09:52:21Z</time><name>PT76</name></trkpt>
<trkpt lat="52.971709" lon="-3.256461"><ele>189</ele><time>2022-04-15T09:52:25Z</time><name>PT77</name></trkpt>
<trkpt lat="52.971677" lon="-3.256470"><ele>189</ele><time>2022-04-15T09:52:28Z</time><name>PT78</name></trkpt>
<trkpt lat="52.971642" lon="-3.256474"><ele>187</ele><time>2022-04-15T09:52:31Z</time><name>PT79</name></trkpt>
<trkpt lat="52.971601" lon="-3.256488"><ele>185</ele><time>2022-04-15T09:52:35Z</time><name>PT80</name></trkpt>
<trkpt lat="52.971561" lon="-3.256491"><ele>184</ele><time>2022-04-15T09:52:39Z</time><name>PT81</name></trkpt>
<trkpt lat="52.971532" lon="-3.256489"><ele>183</ele><time>2022-04-15T09:52:42Z</time><name>PT82</name></trkpt>
<trkpt lat="52.971483" lon="-3.256504"><ele>184</ele><time>2022-04-15T09:52:46Z</time><name>PT83</name></trkpt>
<trkpt lat="52.971455" lon="-3.256521"><ele>184</ele><time>2022-04-15T09:52:49Z</time><name>PT84</name></trkpt>
<trkpt lat="52.971427" lon="-3.256525"><ele>182</ele><time>2022-04-15T09:52:52Z</time><name>PT85</name></trkpt>
<trkpt lat="52.971365" lon="-3.256519"><ele>185</ele><time>2022-04-15T09:52:56Z</time><name>PT86</name></trkpt>
<trkpt lat="52.971303" lon="-3.256548"><ele>189</ele><time>2022-04-15T09:53:00Z</time><name>PT87</name></trkpt>
<trkpt lat="52.971269" lon="-3.256576"><ele>191</ele><time>2022-04-15T09:53:03Z</time><name>PT88</name></trkpt>
<trkpt lat="52.971236" lon="-3.256630"><ele>191</ele><time>2022-04-15T09:53:07Z</time><name>PT89</name></trkpt>
<trkpt lat="52.971220" lon="-3.256663"><ele>190</ele><time>2022-04-15T09:53:10Z</time><name>PT90</name></trkpt>
<trkpt lat="52.971204" lon="-3.256690"><ele>190</ele><time>2022-04-15T09:53:13Z</time><name>PT91</name></trkpt>
<trkpt lat="52.971174" lon="-3.256745"><ele>188</ele><time>2022-04-15T09:53:17Z</time><name>PT92</name></trkpt>
<trkpt lat="52.971151" lon="-3.256785"><ele>189</ele><time>2022-04-15T09:53:20Z</time><name>PT93</name></trkpt>
<trkpt lat="52.971127" lon="-3.256854"><ele>190</ele><time>2022-04-15T09:53:24Z</time><name>PT94</name></trkpt>
<trkpt lat="52.971102" lon="-3.256919"><ele>190</ele><time>2022-04-15T09:53:28Z</time><name>PT95</name></trkpt>
<trkpt lat="52.971082" lon="-3.256974"><ele>190</ele><time>2022-04-15T09:53:32Z</time><name>PT96</name></trkpt>
<trkpt lat="52.971062" lon="-3.257019"><ele>190</ele><time>2022-04-15T09:53:35Z</time><name>PT97</name></trkpt>
<trkpt lat="52.971044" lon="-3.257084"><ele>191</ele><time>2022-04-15T09:53:39Z</time><name>PT98</name></trkpt>
<trkpt lat="52.971027" lon="-3.257150"><ele>192</ele><time>2022-04-15T09:53:43Z</time><name>PT99</name></trkpt>
<trkpt lat="52.971017" lon="-3.257194"><ele>190</ele><time>2022-04-15T09:53:46Z</time><name>PT100</name></trkpt>
<trkpt lat="52.970997" lon="-3.257244"><ele>190</ele><time>2022-04-15T09:53:50Z</time><name>PT101</name></trkpt>
<trkpt lat="52.970980" lon="-3.257303"><ele>190</ele><time>2022-04-15T09:53:54Z</time><name>PT102</name></trkpt>
<trkpt lat="52.970964" lon="-3.257349"><ele>190</ele><time>2022-04-15T09:53:57Z</time><name>PT103</name></trkpt>
<trkpt lat="52.970933" lon="-3.257404"><ele>191</ele><time>2022-04-15T09:54:01Z</time><name>PT104</name></trkpt>
<trkpt lat="52.970905" lon="-3.257461"><ele>194</ele><time>2022-04-15T09:54:05Z</time><name>PT105</name></trkpt>
<trkpt lat="52.970882" lon="-3.257518"><ele>194</ele><time>2022-04-15T09:54:09Z</time><name>PT106</name></trkpt>
<trkpt lat="52.970863" lon="-3.257580"><ele>194</ele><time>2022-04-15T09:54:13Z</time><name>PT107</name></trkpt>
<trkpt lat="52.970844" lon="-3.257619"><ele>195</ele><time>2022-04-15T09:54:16Z</time><name>PT108</name></trkpt>
<trkpt lat="52.970815" lon="-3.257662"><ele>193</ele><time>2022-04-15T09:54:20Z</time><name>PT109</name></trkpt>
<trkpt lat="52.970795" lon="-3.257714"><ele>195</ele><time>2022-04-15T09:54:23Z</time><name>PT110</name></trkpt>
<trkpt lat="52.970773" lon="-3.257769"><ele>196</ele><time>2022-04-15T09:54:26Z</time><name>PT111</name></trkpt>
<trkpt lat="52.970752" lon="-3.257847"><ele>199</ele><time>2022-04-15T09:54:30Z</time><name>PT112</name></trkpt>
<trkpt lat="52.970732" lon="-3.257938"><ele>202</ele><time>2022-04-15T09:54:34Z</time><name>PT113</name></trkpt>
<trkpt lat="52.970713" lon="-3.258013"><ele>204</ele><time>2022-04-15T09:54:37Z</time><name>PT114</name></trkpt>
<trkpt lat="52.970682" lon="-3.258099"><ele>205</ele><time>2022-04-15T09:54:41Z</time><name>PT115</name></trkpt>
<trkpt lat="52.970668" lon="-3.258172"><ele>206</ele><time>2022-04-15T09:54:45Z</time><name>PT116</name></trkpt>
<trkpt lat="52.970654" lon="-3.258237"><ele>206</ele><time>2022-04-15T09:54:48Z</time><name>PT117</name></trkpt>
<trkpt lat="52.970642" lon="-3.258310"><ele>206</ele><time>2022-04-15T09:54:52Z</time><name>PT118</name></trkpt>
<trkpt lat="52.970630" lon="-3.258358"><ele>206</ele><time>2022-04-15T09:54:55Z</time><name>PT119</name></trkpt>
<trkpt lat="52.970623" lon="-3.258421"><ele>206</ele><time>2022-04-15T09:54:58Z</time><name>PT120</name></trkpt>
<trkpt lat="52.970609" lon="-3.258492"><ele>208</ele><time>2022-04-15T09:55:02Z</time><name>PT121</name></trkpt>
<trkpt lat="52.970597" lon="-3.258565"><ele>208</ele><time>2022-04-15T09:55:06Z</time><name>PT122</name></trkpt>
<trkpt lat="52.970590" lon="-3.258619"><ele>209</ele><time>2022-04-15T09:55:09Z</time><name>PT123</name></trkpt>
<trkpt lat="52.970585" lon="-3.258674"><ele>212</ele><time>2022-04-15T09:55:13Z</time><name>PT124</name></trkpt>
<trkpt lat="52.970571" lon="-3.258760"><ele>211</ele><time>2022-04-15T09:55:17Z</time><name>PT125</name></trkpt>
<trkpt lat="52.970565" lon="-3.258833"><ele>211</ele><time>2022-04-15T09:55:20Z</time><name>PT126</name></trkpt>
<trkpt lat="52.970555" lon="-3.258896"><ele>211</ele><time>2022-04-15T09:55:24Z</time><name>PT127</name></trkpt>
<trkpt lat="52.970539" lon="-3.258987"><ele>213</ele><time>2022-04-15T09:55:28Z</time><name>PT128</name></trkpt>
<trkpt lat="52.970525" lon="-3.259039"><ele>215</ele><time>2022-04-15T09:55:31Z</time><name>PT129</name></trkpt>
<trkpt lat="52.970527" lon="-3.259102"><ele>215</ele><time>2022-04-15T09:55:35Z</time><name>PT130</name></trkpt>
<trkpt lat="52.970524" lon="-3.259154"><ele>214</ele><time>2022-04-15T09:55:39Z</time><name>PT131</name></trkpt>
<trkpt lat="52.970528" lon="-3.259205"><ele>215</ele><time>2022-04-15T09:55:42Z</time><name>PT132</name></trkpt>
<trkpt lat="52.970531" lon="-3.259273"><ele>216</ele><time>2022-04-15T09:55:46Z</time><name>PT133</name></trkpt>
<trkpt lat="52.970525" lon="-3.259356"><ele>218</ele><time>2022-04-15T09:55:50Z</time><name>PT134</name></trkpt>
<trkpt lat="52.970523" lon="-3.259437"><ele>222</ele><time>2022-04-15T09:55:53Z</time><name>PT135</name></trkpt>
<trkpt lat="52.970552" lon="-3.259425"><ele>222</ele><time>2022-04-15T09:55:57Z</time><name>PT136</name></trkpt>
<trkpt lat="52.970587" lon="-3.259409"><ele>221</ele><time>2022-04-15T09:56:01Z</time><name>PT137</name></trkpt>
<trkpt lat="52.970613" lon="-3.259407"><ele>220</ele><time>2022-04-15T09:56:04Z</time><name>PT138</name></trkpt>
<trkpt lat="52.970643" lon="-3.259410"><ele>218</ele><time>2022-04-15T09:56:08Z</time><name>PT139</name></trkpt>
<trkpt lat="52.970676" lon="-3.259403"><ele>218</ele><time>2022-04-15T09:56:12Z</time><name>PT140</name></trkpt>
<trkpt lat="52.970709" lon="-3.259408"><ele>218</ele><time>2022-04-15T09:56:16Z</time><name>PT141</name></trkpt>
<trkpt lat="52.970726" lon="-3.259394"><ele>220</ele><time>2022-04-15T09:56:19Z</time><name>PT142</name></trkpt>
<trkpt lat="52.970761" lon="-3.259371"><ele>219</ele><time>2022-04-15T09:56:23Z</time><name>PT143</name></trkpt>
<trkpt lat="52.970799" lon="-3.259368"><ele>220</ele><time>2022-04-15T09:56:26Z</time><name>PT144</name></trkpt>
<trkpt lat="52.970836" lon="-3.259383"><ele>220</ele><time>2022-04-15T09:56:29Z</time><name>PT145</name></trkpt>
<trkpt lat="52.970860" lon="-3.259408"><ele>220</ele><time>2022-04-15T09:56:33Z</time><name>PT146</name></trkpt>
<trkpt lat="52.970870" lon="-3.259422"><ele>220</ele><time>2022-04-15T09:56:36Z</time><name>PT147</name></trkpt>
<trkpt lat="52.970875" lon="-3.259430"><ele>221</ele><time>2022-04-15T09:56:39Z</time><name>PT148</name></trkpt>
<trkpt lat="52.970879" lon="-3.259459"><ele>220</ele><time>2022-04-15T09:56:42Z</time><name>PT149</name></trkpt>
<trkpt lat="52.970910" lon="-3.259508"><ele>222</ele><time>2022-04-15T09:56:46Z</time><name>PT150</name></trkpt>
<trkpt lat="52.970939" lon="-3.259567"><ele>221</ele><time>2022-04-15T09:56:50Z</time><name>PT151</name></trkpt>
<trkpt lat="52.970961" lon="-3.259608"><ele>221</ele><time>2022-04-15T09:56:53Z</time><name>PT152</name></trkpt>
<trkpt lat="52.970979" lon="-3.259647"><ele>221</ele><time>2022-04-15T09:56:56Z</time><name>PT153</name></trkpt>
<trkpt lat="52.971014" lon="-3.259696"><ele>221</ele><time>2022-04-15T09:57:00Z</time><name>PT154</name></trkpt>
<trkpt lat="52.971036" lon="-3.259731"><ele>222</ele><time>2022-04-15T09:57:03Z</time><name>PT155</name></trkpt>
<trkpt lat="52.971061" lon="-3.259798"><ele>223</ele><time>2022-04-15T09:57:07Z</time><name>PT156</name></trkpt>
<trkpt lat="52.971084" lon="-3.259840"><ele>223</ele><time>2022-04-15T09:57:10Z</time><name>PT157</name></trkpt>
<trkpt lat="52.971110" lon="-3.259898"><ele>224</ele><time>2022-04-15T09:57:14Z</time><name>PT158</name></trkpt>
<trkpt lat="52.971128" lon="-3.259946"><ele>224</ele><time>2022-04-15T09:57:17Z</time><name>PT159</name></trkpt>
<trkpt lat="52.971146" lon="-3.259981"><ele>224</ele><time>2022-04-15T09:57:20Z</time><name>PT160</name></trkpt>
<trkpt lat="52.971167" lon="-3.260041"><ele>223</ele><time>2022-04-15T09:57:24Z</time><name>PT161</name></trkpt>
<trkpt lat="52.971188" lon="-3.260105"><ele>221</ele><time>2022-04-15T09:57:28Z</time><name>PT162</name></trkpt>
<trkpt lat="52.971201" lon="-3.260147"><ele>220</ele><time>2022-04-15T09:57:31Z</time><name>PT163</name></trkpt>
<trkpt lat="52.971232" lon="-3.260191"><ele>220</ele><time>2022-04-15T09:57:35Z</time><name>PT164</name></trkpt>
<trkpt lat="52.971246" lon="-3.260255"><ele>216</ele><time>2022-04-15T09:57:39Z</time><name>PT165</name></trkpt>
<trkpt lat="52.971298" lon="-3.260278"><ele>219</ele><time>2022-04-15T09:57:42Z</time><name>PT166</name></trkpt>
<trkpt lat="52.971357" lon="-3.260276"><ele>221</ele><time>2022-04-15T09:57:46Z</time><name>PT167</name></trkpt>
<trkpt lat="52.971429" lon="-3.260263"><ele>226</ele><time>2022-04-15T09:57:50Z</time><name>PT168</name></trkpt>
<trkpt lat="52.971492" lon="-3.260232"><ele>229</ele><time>2022-04-15T09:57:54Z</time><name>PT169</name></trkpt>
<trkpt lat="52.971532" lon="-3.260229"><ele>230</ele><time>2022-04-15T09:57:58Z</time><name>PT170</name></trkpt>
<trkpt lat="52.971556" lon="-3.260224"><ele>229</ele><time>2022-04-15T09:58:00Z</time><name>PT171</name></trkpt>
<trkpt lat="52.971571" lon="-3.260225"><ele>229</ele><time>2022-04-15T09:58:01Z</time><name>PT172</name></trkpt>
<trkpt lat="52.971583" lon="-3.260228"><ele>228</ele><time>2022-04-15T09:58:02Z</time><name>PT173</name></trkpt>
<trkpt lat="52.971590" lon="-3.260228"><ele>228</ele><time>2022-04-15T09:58:03Z</time><name>PT174</name></trkpt>
<trkpt lat="52.971606" lon="-3.260232"><ele>227</ele><time>2022-04-15T09:58:04Z</time><name>PT175</name></trkpt>
<trkpt lat="52.971615" lon="-3.260236"><ele>227</ele><time>2022-04-15T09:58:05Z</time><name>PT176</name></trkpt>
<trkpt lat="52.971625" lon="-3.260239"><ele>227</ele><time>2022-04-15T09:58:06Z</time><name>PT177</name></trkpt>
<trkpt lat="52.971633" lon="-3.260245"><ele>227</ele><time>2022-04-15T09:58:07Z</time><name>PT178</name></trkpt>
<trkpt lat="52.971638" lon="-3.260253"><ele>227</ele><time>2022-04-15T09:58:08Z</time><name>PT179</name></trkpt>
<trkpt lat="52.971646" lon="-3.260255"><ele>227</ele><time>2022-04-15T09:58:09Z</time><name>PT180</name></trkpt>
<trkpt lat="52.971655" lon="-3.260256"><ele>227</ele><time>2022-04-15T09:58:10Z</time><name>PT181</name></trkpt>
<trkpt lat="52.971661" lon="-3.260251"><ele>227</ele><time>2022-04-15T09:58:11Z</time><name>PT182</name></trkpt>
<trkpt lat="52.971663" lon="-3.260252"><ele>226</ele><time>2022-04-15T09:58:12Z</time><name>PT183</name></trkpt>
<trkpt lat="52.971669" lon="-3.260257"><ele>225</ele><time>2022-04-15T09:58:13Z</time><name>PT184</name></trkpt>
<trkpt lat="52.971674" lon="-3.260257"><ele>224</ele><time>2022-04-15T09:58:14Z</time><name>PT185</name></trkpt>
<trkpt lat="52.971684" lon="-3.260259"><ele>224</ele><time>2022-04-15T09:58:15Z</time><name>PT186</name></trkpt>
<trkpt lat="52.971692" lon="-3.260261"><ele>223</ele><time>2022-04-15T09:58:16Z</time><name>PT187</name></trkpt>
<trkpt lat="52.971706" lon="-3.260268"><ele>223</ele><time>2022-04-15T09:58:17Z</time><name>PT188</name></trkpt>
<trkpt lat="52.971718" lon="-3.260276"><ele>223</ele><time>2022-04-15T09:58:18Z</time><name>PT189</name></trkpt>
<trkpt lat="52.971727" lon="-3.260286"><ele>223</ele><time>2022-04-15T09:58:19Z</time><name>PT190</name></trkpt>
<trkpt lat="52.971736" lon="-3.260294"><ele>224</ele><time>2022-04-15T09:58:21Z</time><name>PT191</name></trkpt>
<trkpt lat="52.971742" lon="-3.260303"><ele>224</ele><time>2022-04-15T09:58:21Z</time><name>PT192</name></trkpt>
<trkpt lat="52.971753" lon="-3.260308"><ele>224</ele><time>2022-04-15T09:58:22Z</time><name>PT193</name></trkpt>
<trkpt lat="52.971756" lon="-3.260307"><ele>224</ele><time>2022-04-15T09:58:23Z</time><name>PT194</name></trkpt>
<trkpt lat="52.971759" lon="-3.260307"><ele>224</ele><time>2022-04-15T09:58:24Z</time><name>PT195</name></trkpt>
<trkpt lat="52.971762" lon="-3.260305"><ele>225</ele><time>2022-04-15T09:58:25Z</time><name>PT196</name></trkpt>
<trkpt lat="52.971766" lon="-3.260310"><ele>225</ele><time>2022-04-15T09:58:29Z</time><name>PT197</name></trkpt>
<trkpt lat="52.971779" lon="-3.260314"><ele>225</ele><time>2022-04-15T09:58:30Z</time><name>PT198</name></trkpt>
<trkpt lat="52.971780" lon="-3.260315"><ele>224</ele><time>2022-04-15T09:58:31Z</time><name>PT199</name></trkpt>
<trkpt lat="52.971780" lon="-3.260345"><ele>226</ele><time>2022-04-15T09:58:39Z</time><name>PT200</name></trkpt>
<trkpt lat="52.971789" lon="-3.260363"><ele>226</ele><time>2022-04-15T09:58:40Z</time><name>PT201</name></trkpt>
<trkpt lat="52.971797" lon="-3.260380"><ele>226</ele><time>2022-04-15T09:58:41Z</time><name>PT202</name></trkpt>
<trkpt lat="52.971802" lon="-3.260393"><ele>226</ele><time>2022-04-15T09:58:42Z</time><name>PT203</name></trkpt>
<trkpt lat="52.971811" lon="-3.260407"><ele>226</ele><time>2022-04-15T09:58:43Z</time><name>PT204</name></trkpt>
<trkpt lat="52.971821" lon="-3.260416"><ele>225</ele><time>2022-04-15T09:58:44Z</time><name>PT205</name></trkpt>
<trkpt lat="52.971837" lon="-3.260415"><ele>225</ele><time>2022-04-15T09:58:45Z</time><name>PT206</name></trkpt>
<trkpt lat="52.971850" lon="-3.260424"><ele>225</ele><time>2022-04-15T09:58:46Z</time><name>PT207</name></trkpt>
<trkpt lat="52.971861" lon="-3.260432"><ele>224</ele><time>2022-04-15T09:58:47Z</time><name>PT208</name></trkpt>
<trkpt lat="52.971873" lon="-3.260441"><ele>224</ele><time>2022-04-15T09:58:48Z</time><name>PT209</name></trkpt>
<trkpt lat="52.971892" lon="-3.260455"><ele>224</ele><time>2022-04-15T09:58:49Z</time><name>PT210</name></trkpt>
<trkpt lat="52.971905" lon="-3.260456"><ele>224</ele><time>2022-04-15T09:58:50Z</time><name>PT211</name></trkpt>
<trkpt lat="52.971920" lon="-3.260457"><ele>224</ele><time>2022-04-15T09:58:51Z</time><name>PT212</name></trkpt>
<trkpt lat="52.971932" lon="-3.260461"><ele>224</ele><time>2022-04-15T09:58:52Z</time><name>PT213</name></trkpt>
<trkpt lat="52.971945" lon="-3.260464"><ele>224</ele><time>2022-04-15T09:58:53Z</time><name>PT214</name></trkpt>
<trkpt lat="52.971957" lon="-3.260467"><ele>224</ele><time>2022-04-15T09:58:54Z</time><name>PT215</name></trkpt>
<trkpt lat="52.971965" lon="-3.260465"><ele>223</ele><time>2022-04-15T09:58:55Z</time><name>PT216</name></trkpt>
<trkpt lat="52.971974" lon="-3.260463"><ele>223</ele><time>2022-04-15T09:58:56Z</time><name>PT217</name></trkpt>
<trkpt lat="52.971986" lon="-3.260462"><ele>223</ele><time>2022-04-15T09:58:57Z</time><name>PT218</name></trkpt>
<trkpt lat="52.971997" lon="-3.260461"><ele>222</ele><time>2022-04-15T09:58:58Z</time><name>PT219</name></trkpt>
<trkpt lat="52.972011" lon="-3.260465"><ele>222</ele><time>2022-04-15T09:58:59Z</time><name>PT220</name></trkpt>
<trkpt lat="52.972021" lon="-3.260465"><ele>222</ele><time>2022-04-15T09:59:00Z</time><name>PT221</name></trkpt>
<trkpt lat="52.972033" lon="-3.260465"><ele>222</ele><time>2022-04-15T09:59:01Z</time><name>PT222</name></trkpt>
<trkpt lat="52.972046" lon="-3.260467"><ele>222</ele><time>2022-04-15T09:59:03Z</time><name>PT223</name></trkpt>
<trkpt lat="52.972062" lon="-3.260465"><ele>223</ele><time>2022-04-15T09:59:03Z</time><name>PT224</name></trkpt>
<trkpt lat="52.972074" lon="-3.260460"><ele>222</ele><time>2022-04-15T09:59:04Z</time><name>PT225</name></trkpt>
<trkpt lat="52.972082" lon="-3.260453"><ele>222</ele><time>2022-04-15T09:59:05Z</time><name>PT226</name></trkpt>
<trkpt lat="52.972090" lon="-3.260444"><ele>222</ele><time>2022-04-15T09:59:06Z</time><name>PT227</name></trkpt>
<trkpt lat="52.972097" lon="-3.260438"><ele>222</ele><time>2022-04-15T09:59:07Z</time><name>PT228</name></trkpt>
<trkpt lat="52.972102" lon="-3.260440"><ele>223</ele><time>2022-04-15T09:59:08Z</time><name>PT229</name></trkpt>
<trkpt lat="52.972107" lon="-3.260442"><ele>222</ele><time>2022-04-15T09:59:09Z</time><name>PT230</name></trkpt>
<trkpt lat="52.972114" lon="-3.260441"><ele>222</ele><time>2022-04-15T09:59:10Z</time><name>PT231</name></trkpt>
<trkpt lat="52.972121" lon="-3.260440"><ele>222</ele><time>2022-04-15T09:59:11Z</time><name>PT232</name></trkpt>
<trkpt lat="52.972128" lon="-3.260439"><ele>222</ele><time>2022-04-15T09:59:12Z</time><name>PT233</name></trkpt>
<trkpt lat="52.972133" lon="-3.260440"><ele>223</ele><time>2022-04-15T09:59:13Z</time><name>PT234</name></trkpt>
<trkpt lat="52.972141" lon="-3.260443"><ele>223</ele><time>2022-04-15T09:59:15Z</time><name>PT235</name></trkpt>
<trkpt lat="52.972147" lon="-3.260441"><ele>223</ele><time>2022-04-15T09:59:15Z</time><name>PT236</name></trkpt>
<trkpt lat="52.972154" lon="-3.260437"><ele>224</ele><time>2022-04-15T09:59:16Z</time><name>PT237</name></trkpt>
<trkpt lat="52.972159" lon="-3.260435"><ele>224</ele><time>2022-04-15T09:59:17Z</time><name>PT238</name></trkpt>
<trkpt lat="52.972167" lon="-3.260437"><ele>224</ele><time>2022-04-15T09:59:18Z</time><name>PT239</name></trkpt>
<trkpt lat="52.972174" lon="-3.260439"><ele>224</ele><time>2022-04-15T09:59:19Z</time><name>PT240</name></trkpt>
<trkpt lat="52.972184" lon="-3.260440"><ele>224</ele><time>2022-04-15T09:59:20Z</time><name>PT241</name></trkpt>
<trkpt lat="52.972189" lon="-3.260441"><ele>224</ele><time>2022-04-15T09:59:21Z</time><name>PT242</name></trkpt>
<trkpt lat="52.972195" lon="-3.260442"><ele>224</ele><time>2022-04-15T09:59:22Z</time><name>PT243</name></trkpt>
<trkpt lat="52.972202" lon="-3.260446"><ele>224</ele><time>2022-04-15T09:59:23Z</time><name>PT244</name></trkpt>
<trkpt lat="52.972211" lon="-3.260444"><ele>224</ele><time>2022-04-15T09:59:24Z</time><name>PT245</name></trkpt>
<trkpt lat="52.972220" lon="-3.260438"><ele>224</ele><time>2022-04-15T09:59:25Z</time><name>PT246</name></trkpt>
<trkpt lat="52.972228" lon="-3.260435"><ele>224</ele><time>2022-04-15T09:59:26Z</time><name>PT247</name></trkpt>
<trkpt lat="52.972234" lon="-3.260432"><ele>224</ele><time>2022-04-15T09:59:27Z</time><name>PT248</name></trkpt>
<trkpt lat="52.972241" lon="-3.260433"><ele>223</ele><time>2022-04-15T09:59:28Z</time><name>PT249</name></trkpt>
<trkpt lat="52.972247" lon="-3.260432"><ele>223</ele><time>2022-04-15T09:59:29Z</time><name>PT250</name></trkpt>
<trkpt lat="52.972255" lon="-3.260432"><ele>223</ele><time>2022-04-15T09:59:30Z</time><name>PT251</name></trkpt>
<trkpt lat="52.972263" lon="-3.260429"><ele>223</ele><time>2022-04-15T09:59:31Z</time><name>PT252</name></trkpt>
<trkpt lat="52.972272" lon="-3.260425"><ele>223</ele><time>2022-04-15T09:59:32Z</time><name>PT253</name></trkpt>
<trkpt lat="52.972281" lon="-3.260421"><ele>223</ele><time>2022-04-15T09:59:33Z</time><name>PT254</name></trkpt>
<trkpt lat="52.972288" lon="-3.260416"><ele>223</ele><time>2022-04-15T09:59:34Z</time><name>PT255</name></trkpt>
<trkpt lat="52.972298" lon="-3.260408"><ele>223</ele><time>2022-04-15T09:59:35Z</time><name>PT256</name></trkpt>
<trkpt lat="52.972305" lon="-3.260403"><ele>223</ele><time>2022-04-15T09:59:36Z</time><name>PT257</name></trkpt>
<trkpt lat="52.972312" lon="-3.260403"><ele>223</ele><time>2022-04-15T09:59:37Z</time><name>PT258</name></trkpt>
<trkpt lat="52.972314" lon="-3.260406"><ele>223</ele><time>2022-04-15T09:59:38Z</time><name>PT259</name></trkpt>
<trkpt lat="52.972318" lon="-3.260410"><ele>223</ele><time>2022-04-15T09:59:39Z</time><name>PT260</name></trkpt>
<trkpt lat="52.972324" lon="-3.260413"><ele>223</ele><time>2022-04-15T09:59:40Z</time><name>PT261</name></trkpt>
<trkpt lat="52.972330" lon="-3.260416"><ele>222</ele><time>2022-04-15T09:59:41Z</time><name>PT262</name></trkpt>
<trkpt lat="52.972338" lon="-3.260423"><ele>223</ele><time>2022-04-15T09:59:42Z</time><name>PT263</name></trkpt>
<trkpt lat="52.972339" lon="-3.260428"><ele>222</ele><time>2022-04-15T09:59:43Z</time><name>PT264</name></trkpt>
<trkpt lat="52.972338" lon="-3.260433"><ele>222</ele><time>2022-04-15T09:59:44Z</time><name>PT265</name></trkpt>
<trkpt lat="52.972337" lon="-3.260438"><ele>222</ele><time>2022-04-15T09:59:45Z</time><name>PT266</name></trkpt>
<trkpt lat="52.972336" lon="-3.260445"><ele>220</ele><time>2022-04-15T09:59:46Z</time><name>PT267</name></trkpt>
<trkpt lat="52.972338" lon="-3.260452"><ele>220</ele><time>2022-04-15T09:59:47Z</time><name>PT268</name></trkpt>
<trkpt lat="52.972339" lon="-3.260459"><ele>220</ele><time>2022-04-15T09:59:48Z</time><name>PT269</name></trkpt>
<trkpt lat="52.972341" lon="-3.260480"><ele>220</ele><time>2022-04-15T09:59:52Z</time><name>PT270</name></trkpt>
<trkpt lat="52.972346" lon="-3.260503"><ele>219</ele><time>2022-04-15T09:59:53Z</time><name>PT271</name></trkpt>
<trkpt lat="52.972344" lon="-3.260524"><ele>219</ele><time>2022-04-15T09:59:54Z</time><name>PT272</name></trkpt>
<trkpt lat="52.972344" lon="-3.260545"><ele>218</ele><time>2022-04-15T09:59:55Z</time><name>PT273</name></trkpt>
<trkpt lat="52.972343" lon="-3.260566"><ele>217</ele><time>2022-04-15T09:59:56Z</time><name>PT274</name></trkpt>
<trkpt lat="52.972346" lon="-3.260584"><ele>217</ele><time>2022-04-15T09:59:57Z</time><name>PT275</name></trkpt>
<trkpt lat="52.972352" lon="-3.260604"><ele>217</ele><time>2022-04-15T09:59:58Z</time><name>PT276</name></trkpt>
<trkpt lat="52.972358" lon="-3.260621"><ele>216</ele><time>2022-04-15T09:59:59Z</time><name>PT277</name></trkpt>
<trkpt lat="52.972364" lon="-3.260636"><ele>216</ele><time>2022-04-15T10:00:00Z</time><name>PT278</name></trkpt>
<trkpt lat="52.972367" lon="-3.260649"><ele>216</ele><time>2022-04-15T10:00:01Z</time><name>PT279</name></trkpt>
<trkpt lat="52.972370" lon="-3.260665"><ele>215</ele><time>2022-04-15T10:00:02Z</time><name>PT280</name></trkpt>
<trkpt lat="52.972372" lon="-3.260681"><ele>215</ele><time>2022-04-15T10:00:03Z</time><name>PT281</name></trkpt>
<trkpt lat="52.972373" lon="-3.260703"><ele>214</ele><time>2022-04-15T10:00:04Z</time><name>PT282</name></trkpt>
<trkpt lat="52.972377" lon="-3.260718"><ele>214</ele><time>2022-04-15T10:00:05Z</time><name>PT283</name></trkpt>
<trkpt lat="52.972382" lon="-3.260727"><ele>214</ele><time>2022-04-15T10:00:06Z</time><name>PT284</name></trkpt>
<trkpt lat="52.972390" lon="-3.260739"><ele>214</ele><time>2022-04-15T10:00:07Z</time><name>PT285</name></trkpt>
<trkpt lat="52.972394" lon="-3.260753"><ele>213</ele><time>2022-04-15T10:00:08Z</time><name>PT286</name></trkpt>
<trkpt lat="52.972396" lon="-3.260766"><ele>212</ele><time>2022-04-15T10:00:09Z</time><name>PT287</name></trkpt>
<trkpt lat="52.972394" lon="-3.260776"><ele>212</ele><time>2022-04-15T10:00:10Z</time><name>PT288</name></trkpt>
<trkpt lat="52.972399" lon="-3.260797"><ele>212</ele><time>2022-04-15T10:00:11Z</time><name>PT289</name></trkpt>
<trkpt lat="52.972403" lon="-3.260812"><ele>212</ele><time>2022-04-15T10:00:12Z</time><name>PT290</name></trkpt>
<trkpt lat="52.972407" lon="-3.260831"><ele>212</ele><time>2022-04-15T10:00:13Z</time><name>PT291</name></trkpt>
<trkpt lat="52.972412" lon="-3.260848"><ele>212</ele><time>2022-04-15T10:00:14Z</time><name>PT292</name></trkpt>
<trkpt lat="52.972413" lon="-3.260867"><ele>211</ele><time>2022-04-15T10:00:15Z</time><name>PT293</name></trkpt>
<trkpt lat="52.972415" lon="-3.260881"><ele>211</ele><time>2022-04-15T10:00:16Z</time><name>PT294</name></trkpt>
<trkpt lat="52.972414" lon="-3.260899"><ele>210</ele><time>2022-04-15T10:00:17Z</time><name>PT295</name></trkpt>
<trkpt lat="52.972415" lon="-3.260916"><ele>208</ele><time>2022-04-15T10:00:18Z</time><name>PT296</name></trkpt>
<trkpt lat="52.972419" lon="-3.260927"><ele>208</ele><time>2022-04-15T10:00:19Z</time><name>PT297</name></trkpt>
<trkpt lat="52.972424" lon="-3.260937"><ele>208</ele><time>2022-04-15T10:00:20Z</time><name>PT298</name></trkpt>
<trkpt lat="52.972428" lon="-3.260949"><ele>208</ele><time>2022-04-15T10:00:21Z</time><name>PT299</name></trkpt>
<trkpt lat="52.972433" lon="-3.260966"><ele>207</ele><time>2022-04-15T10:00:22Z</time><name>PT300</name></trkpt>
<trkpt lat="52.972436" lon="-3.260983"><ele>207</ele><time>2022-04-15T10:00:23Z</time><name>PT301</name></trkpt>
<trkpt lat="52.972439" lon="-3.260996"><ele>206</ele><time>2022-04-15T10:00:24Z</time><name>PT302</name></trkpt>
<trkpt lat="52.972441" lon="-3.261011"><ele>206</ele><time>2022-04-15T10:00:25Z</time><name>PT303</name></trkpt>
<trkpt lat="52.972441" lon="-3.261024"><ele>205</ele><time>2022-04-15T10:00:26Z</time><name>PT304</name></trkpt>
<trkpt lat="52.972442" lon="-3.261036"><ele>205</ele><time>2022-04-15T10:00:27Z</time><name>PT305</name></trkpt>
<trkpt lat="52.972446" lon="-3.261038"><ele>204</ele><time>2022-04-15T10:00:28Z</time><name>PT306</name></trkpt>
<trkpt lat="52.972452" lon="-3.261046"><ele>204</ele><time>2022-04-15T10:00:29Z</time><name>PT307</name></trkpt>
<trkpt lat="52.972453" lon="-3.261040"><ele>204</ele><time>2022-04-15T10:00:30Z</time><name>PT308</name></trkpt>
<trkpt lat="52.972452" lon="-3.261036"><ele>204</ele><time>2022-04-15T10:00:31Z</time><name>PT309</name></trkpt>
<trkpt lat="52.972453" lon="-3.261065"><ele>204</ele><time>2022-04-15T10:00:51Z</time><name>PT310</name></trkpt>
<trkpt lat="52.972456" lon="-3.261099"><ele>202</ele><time>2022-04-15T10:00:55Z</time><name>PT311</name></trkpt>
<trkpt lat="52.972455" lon="-3.261104"><ele>202</ele><time>2022-04-15T10:00:59Z</time><name>PT312</name></trkpt>
<trkpt lat="52.972464" lon="-3.261135"><ele>200</ele><time>2022-04-15T10:01:03Z</time><name>PT313</name></trkpt>
<trkpt lat="52.972470" lon="-3.261157"><ele>199</ele><time>2022-04-15T10:01:07Z</time><name>PT314</name></trkpt>
<trkpt lat="52.972470" lon="-3.261175"><ele>198</ele><time>2022-04-15T10:01:17Z</time><name>PT315</name></trkpt>
<trkpt lat="52.972474" lon="-3.261232"><ele>197</ele><time>2022-04-15T10:01:20Z</time><name>PT316</name></trkpt>
<trkpt lat="52.972494" lon="-3.261292"><ele>196</ele><time>2022-04-15T10:01:24Z</time><name>PT317</name></trkpt>
<trkpt lat="52.972516" lon="-3.261338"><ele>196</ele><time>2022-04-15T10:01:28Z</time><name>PT318</name></trkpt>
<trkpt lat="52.972531" lon="-3.261379"><ele>195</ele><time>2022-04-15T10:01:31Z</time><name>PT319</name></trkpt>
<trkpt lat="52.972555" lon="-3.261449"><ele>195</ele><time>2022-04-15T10:01:35Z</time><name>PT320</name></trkpt>
<trkpt lat="52.972563" lon="-3.261492"><ele>192</ele><time>2022-04-15T10:01:38Z</time><name>PT321</name></trkpt>
<trkpt lat="52.972574" lon="-3.261547"><ele>191</ele><time>2022-04-15T10:01:41Z</time><name>PT322</name></trkpt>
<trkpt lat="52.972587" lon="-3.261612"><ele>191</ele><time>2022-04-15T10:01:45Z</time><name>PT323</name></trkpt>
<trkpt lat="52.972592" lon="-3.261656"><ele>192</ele><time>2022-04-15T10:01:48Z</time><name>PT324</name></trkpt>
<trkpt lat="52.972584" lon="-3.261715"><ele>190</ele><time>2022-04-15T10:01:52Z</time><name>PT325</name></trkpt>
<trkpt lat="52.972593" lon="-3.261780"><ele>189</ele><time>2022-04-15T10:01:56Z</time><name>PT326</name></trkpt>
<trkpt lat="52.972584" lon="-3.261828"><ele>189</ele><time>2022-04-15T10:01:59Z</time><name>PT327</name></trkpt>
<trkpt lat="52.972574" lon="-3.261893"><ele>189</ele><time>2022-04-15T10:02:03Z</time><name>PT328</name></trkpt>
<trkpt lat="52.972571" lon="-3.261948"><ele>190</ele><time>2022-04-15T10:02:07Z</time><name>PT329</name></trkpt>
<trkpt lat="52.972559" lon="-3.261984"><ele>190</ele><time>2022-04-15T10:02:10Z</time><name>PT330</name></trkpt>
<trkpt lat="52.972549" lon="-3.262048"><ele>190</ele><time>2022-04-15T10:02:14Z</time><name>PT331</name></trkpt>
<trkpt lat="52.972551" lon="-3.262095"><ele>192</ele><time>2022-04-15T10:02:17Z</time><name>PT332</name></trkpt>
<trkpt lat="52.972536" lon="-3.262146"><ele>190</ele><time>2022-04-15T10:02:21Z</time><name>PT333</name></trkpt>
<trkpt lat="52.972541" lon="-3.262213"><ele>191</ele><time>2022-04-15T10:02:24Z</time><name>PT334</name></trkpt>
<trkpt lat="52.972545" lon="-3.262293"><ele>191</ele><time>2022-04-15T10:02:28Z</time><name>PT335</name></trkpt>
<trkpt lat="52.972543" lon="-3.262362"><ele>192</ele><time>2022-04-15T10:02:31Z</time><name>PT336</name></trkpt>
<trkpt lat="52.972534" lon="-3.262430"><ele>190</ele><time>2022-04-15T10:02:35Z</time><name>PT337</name></trkpt>
<trkpt lat="52.972526" lon="-3.262513"><ele>189</ele><time>2022-04-15T10:02:39Z</time><name>PT338</name></trkpt>
<trkpt lat="52.972524" lon="-3.262566"><ele>189</ele><time>2022-04-15T10:02:42Z</time><name>PT339</name></trkpt>
<trkpt lat="52.972513" lon="-3.262626"><ele>188</ele><time>2022-04-15T10:02:46Z</time><name>PT340</name></trkpt>
<trkpt lat="52.972497" lon="-3.262662"><ele>187</ele><time>2022-04-15T10:02:49Z</time><name>PT341</name></trkpt>
<trkpt lat="52.972490" lon="-3.262714"><ele>187</ele><time>2022-04-15T10:02:53Z</time><name>PT342</name></trkpt>
<trkpt lat="52.972479" lon="-3.262777"><ele>189</ele><time>2022-04-15T10:02:57Z</time><name>PT343</name></trkpt>
<trkpt lat="52.972462" lon="-3.262822"><ele>189</ele><time>2022-04-15T10:03:01Z</time><name>PT344</name></trkpt>
<trkpt lat="52.972459" lon="-3.262879"><ele>190</ele><time>2022-04-15T10:03:05Z</time><name>PT345</name></trkpt>
<trkpt lat="52.972451" lon="-3.262914"><ele>189</ele><time>2022-04-15T10:03:09Z</time><name>PT346</name></trkpt>
<trkpt lat="52.972441" lon="-3.262992"><ele>190</ele><time>2022-04-15T10:03:13Z</time><name>PT347</name></trkpt>
<trkpt lat="52.972420" lon="-3.263060"><ele>189</ele><time>2022-04-15T10:03:17Z</time><name>PT348</name></trkpt>
<trkpt lat="52.972428" lon="-3.263132"><ele>189</ele><time>2022-04-15T10:03:21Z</time><name>PT349</name></trkpt>
<trkpt lat="52.972438" lon="-3.263218"><ele>189</ele><time>2022-04-15T10:03:25Z</time><name>PT350</name></trkpt>
<trkpt lat="52.972443" lon="-3.263294"><ele>189</ele><time>2022-04-15T10:03:29Z</time><name>PT351</name></trkpt>
<trkpt lat="52.972449" lon="-3.263353"><ele>189</ele><time>2022-04-15T10:03:32Z</time><name>PT352</name></trkpt>
<trkpt lat="52.972439" lon="-3.263400"><ele>189</ele><time>2022-04-15T10:03:36Z</time><name>PT353</name></trkpt>
<trkpt lat="52.972429" lon="-3.263441"><ele>189</ele><time>2022-04-15T10:03:40Z</time><name>PT354</name></trkpt>
<trkpt lat="52.972420" lon="-3.263503"><ele>189</ele><time>2022-04-15T10:03:44Z</time><name>PT355</name></trkpt>
<trkpt lat="52.972408" lon="-3.263550"><ele>189</ele><time>2022-04-15T10:03:47Z</time><name>PT356</name></trkpt>
<trkpt lat="52.972392" lon="-3.263610"><ele>189</ele><time>2022-04-15T10:03:51Z</time><name>PT357</name></trkpt>
<trkpt lat="52.972377" lon="-3.263677"><ele>188</ele><time>2022-04-15T10:03:55Z</time><name>PT358</name></trkpt>
<trkpt lat="52.972377" lon="-3.263730"><ele>189</ele><time>2022-04-15T10:03:58Z</time><name>PT359</name></trkpt>
<trkpt lat="52.972377" lon="-3.263805"><ele>189</ele><time>2022-04-15T10:04:02Z</time><name>PT360</name></trkpt>
<trkpt lat="52.972387" lon="-3.263860"><ele>189</ele><time>2022-04-15T10:04:05Z</time><name>PT361</name></trkpt>
<trkpt lat="52.972392" lon="-3.263915"><ele>190</ele><time>2022-04-15T10:04:09Z</time><name>PT362</name></trkpt>
<trkpt lat="52.972398" lon="-3.263934"><ele>191</ele><time>2022-04-15T10:04:12Z</time><name>PT363</name></trkpt>
<trkpt lat="52.972400" lon="-3.263940"><ele>191</ele><time>2022-04-15T10:04:16Z</time><name>PT364</name></trkpt>
<trkpt lat="52.972431" lon="-3.264101"><ele>193</ele><time>2022-04-15T10:04:32Z</time><name>PT365</name></trkpt>
<trkpt lat="52.972446" lon="-3.264188"><ele>193</ele><time>2022-04-15T10:04:35Z</time><name>PT366</name></trkpt>
<trkpt lat="52.972473" lon="-3.264283"><ele>193</ele><time>2022-04-15T10:04:39Z</time><name>PT367</name></trkpt>
<trkpt lat="52.972494" lon="-3.264345"><ele>192</ele><time>2022-04-15T10:04:42Z</time><name>PT368</name></trkpt>
<trkpt lat="52.972522" lon="-3.264408"><ele>192</ele><time>2022-04-15T10:04:46Z</time><name>PT369</name></trkpt>
<trkpt lat="52.972549" lon="-3.264483"><ele>191</ele><time>2022-04-15T10:04:50Z</time><name>PT370</name></trkpt>
<trkpt lat="52.972571" lon="-3.264543"><ele>191</ele><time>2022-04-15T10:04:53Z</time><name>PT371</name></trkpt>
<trkpt lat="52.972591" lon="-3.264604"><ele>190</ele><time>2022-04-15T10:04:56Z</time><name>PT372</name></trkpt>
<trkpt lat="52.972614" lon="-3.264675"><ele>190</ele><time>2022-04-15T10:05:00Z</time><name>PT373</name></trkpt>
<trkpt lat="52.972640" lon="-3.264752"><ele>190</ele><time>2022-04-15T10:05:04Z</time><name>PT374</name></trkpt>
<trkpt lat="52.972656" lon="-3.264797"><ele>190</ele><time>2022-04-15T10:05:07Z</time><name>PT375</name></trkpt>
<trkpt lat="52.972675" lon="-3.264814"><ele>189</ele><time>2022-04-15T10:05:10Z</time><name>PT376</name></trkpt>
<trkpt lat="52.972684" lon="-3.264818"><ele>190</ele><time>2022-04-15T10:05:11Z</time><name>PT377</name></trkpt>
<trkpt lat="52.972694" lon="-3.264826"><ele>191</ele><time>2022-04-15T10:05:12Z</time><name>PT378</name></trkpt>
<trkpt lat="52.972699" lon="-3.264834"><ele>192</ele><time>2022-04-15T10:05:13Z</time><name>PT379</name></trkpt>
<trkpt lat="52.972706" lon="-3.264842"><ele>193</ele><time>2022-04-15T10:05:14Z</time><name>PT380</name></trkpt>
<trkpt lat="52.972712" lon="-3.264845"><ele>194</ele><time>2022-04-15T10:05:15Z</time><name>PT381</name></trkpt>
<trkpt lat="52.972720" lon="-3.264854"><ele>195</ele><time>2022-04-15T10:05:23Z</time><name>PT382</name></trkpt>
<trkpt lat="52.972727" lon="-3.264859"><ele>195</ele><time>2022-04-15T10:05:24Z</time><name>PT383</name></trkpt>
<trkpt lat="52.972730" lon="-3.264857"><ele>195</ele><time>2022-04-15T10:05:26Z</time><name>PT384</name></trkpt>
<trkpt lat="52.972737" lon="-3.264868"><ele>195</ele><time>2022-04-15T10:05:27Z</time><name>PT385</name></trkpt>
<trkpt lat="52.972742" lon="-3.264874"><ele>195</ele><time>2022-04-15T10:05:28Z</time><name>PT386</name></trkpt>
<trkpt lat="52.972748" lon="-3.264882"><ele>195</ele><time>2022-04-15T10:05:29Z</time><name>PT387</name></trkpt>
<trkpt lat="52.972750" lon="-3.264880"><ele>195</ele><time>2022-04-15T10:05:30Z</time><name>PT388</name></trkpt>
<trkpt lat="52.972746" lon="-3.264880"><ele>195</ele><time>2022-04-15T10:05:33Z</time><name>PT389</name></trkpt>
<trkpt lat="52.972749" lon="-3.264878"><ele>195</ele><time>2022-04-15T10:05:33Z</time><name>PT390</name></trkpt>
<trkpt lat="52.972749" lon="-3.264875"><ele>195</ele><time>2022-04-15T10:05:34Z</time><name>PT391</name></trkpt>
<trkpt lat="52.972759" lon="-3.264881"><ele>195</ele><time>2022-04-15T10:06:26Z</time><name>PT392</name></trkpt>
<trkpt lat="52.972769" lon="-3.264888"><ele>195</ele><time>2022-04-15T10:06:27Z</time><name>PT393</name></trkpt>
<trkpt lat="52.972777" lon="-3.264895"><ele>195</ele><time>2022-04-15T10:06:28Z</time><name>PT394</name></trkpt>
<trkpt lat="52.972781" lon="-3.264907"><ele>194</ele><time>2022-04-15T10:06:29Z</time><name>PT395</name></trkpt>
<trkpt lat="52.972793" lon="-3.264892"><ele>194</ele><time>2022-04-15T10:06:46Z</time><name>PT396</name></trkpt>
<trkpt lat="52.972811" lon="-3.264893"><ele>195</ele><time>2022-04-15T10:06:47Z</time><name>PT397</name></trkpt>
<trkpt lat="52.972823" lon="-3.264909"><ele>195</ele><time>2022-04-15T10:06:48Z</time><name>PT398</name></trkpt>
<trkpt lat="52.972830" lon="-3.264921"><ele>195</ele><time>2022-04-15T10:06:49Z</time><name>PT399</name></trkpt>
<trkpt lat="52.972837" lon="-3.264931"><ele>194</ele><time>2022-04-15T10:06:50Z</time><name>PT400</name></trkpt>
<trkpt lat="52.972845" lon="-3.264942"><ele>194</ele><time>2022-04-15T10:06:51Z</time><name>PT401</name></trkpt>
<trkpt lat="52.972852" lon="-3.264949"><ele>194</ele><time>2022-04-15T10:06:52Z</time><name>PT402</name></trkpt>
<trkpt lat="52.972858" lon="-3.264954"><ele>193</ele><time>2022-04-15T10:06:53Z</time><name>PT403</name></trkpt>
<trkpt lat="52.972861" lon="-3.264962"><ele>193</ele><time>2022-04-15T10:06:54Z</time><name>PT404</name></trkpt>
<trkpt lat="52.972870" lon="-3.264968"><ele>193</ele><time>2022-04-15T10:06:55Z</time><name>PT405</name></trkpt>
<trkpt lat="52.972879" lon="-3.264980"><ele>192</ele><time>2022-04-15T10:06:56Z</time><name>PT406</name></trkpt>
<trkpt lat="52.972886" lon="-3.264988"><ele>192</ele><time>2022-04-15T10:06:57Z</time><name>PT407</name></trkpt>
<trkpt lat="52.972892" lon="-3.264996"><ele>191</ele><time>2022-04-15T10:06:58Z</time><name>PT408</name></trkpt>
<trkpt lat="52.972897" lon="-3.265007"><ele>191</ele><time>2022-04-15T10:06:59Z</time><name>PT409</name></trkpt>
<trkpt lat="52.972903" lon="-3.265018"><ele>191</ele><time>2022-04-15T10:07:00Z</time><name>PT410</name></trkpt>
<trkpt lat="52.972910" lon="-3.265030"><ele>190</ele><time>2022-04-15T10:07:01Z</time><name>PT411</name></trkpt>
<trkpt lat="52.972914" lon="-3.265040"><ele>190</ele><time>2022-04-15T10:07:02Z</time><name>PT412</name></trkpt>
<trkpt lat="52.972918" lon="-3.265051"><ele>190</ele><time>2022-04-15T10:07:03Z</time><name>PT413</name></trkpt>
<trkpt lat="52.972926" lon="-3.265064"><ele>190</ele><time>2022-04-15T10:07:04Z</time><name>PT414</name></trkpt>
<trkpt lat="52.972933" lon="-3.265075"><ele>190</ele><time>2022-04-15T10:07:05Z</time><name>PT415</name></trkpt>
<trkpt lat="52.972938" lon="-3.265083"><ele>190</ele><time>2022-04-15T10:07:06Z</time><name>PT416</name></trkpt>
<trkpt lat="52.972942" lon="-3.265094"><ele>189</ele><time>2022-04-15T10:07:07Z</time><name>PT417</name></trkpt>
<trkpt lat="52.972945" lon="-3.265105"><ele>189</ele><time>2022-04-15T10:07:08Z</time><name>PT418</name></trkpt>
<trkpt lat="52.972948" lon="-3.265114"><ele>189</ele><time>2022-04-15T10:07:09Z</time><name>PT419</name></trkpt>
<trkpt lat="52.972962" lon="-3.265156"><ele>189</ele><time>2022-04-15T10:07:12Z</time><name>PT420</name></trkpt>
<trkpt lat="52.972976" lon="-3.265186"><ele>189</ele><time>2022-04-15T10:07:14Z</time><name>PT421</name></trkpt>
<trkpt lat="52.972987" lon="-3.265198"><ele>190</ele><time>2022-04-15T10:07:15Z</time><name>PT422</name></trkpt>
<trkpt lat="52.972994" lon="-3.265209"><ele>190</ele><time>2022-04-15T10:07:16Z</time><name>PT423</name></trkpt>
<trkpt lat="52.973001" lon="-3.265219"><ele>190</ele><time>2022-04-15T10:07:17Z</time><name>PT424</name></trkpt>
<trkpt lat="52.973008" lon="-3.265227"><ele>191</ele><time>2022-04-15T10:07:18Z</time><name>PT425</name></trkpt>
<trkpt lat="52.973013" lon="-3.265235"><ele>190</ele><time>2022-04-15T10:07:19Z</time><name>PT426</name></trkpt>
<trkpt lat="52.973019" lon="-3.265246"><ele>190</ele><time>2022-04-15T10:07:20Z</time><name>PT427</name></trkpt>
<trkpt lat="52.973024" lon="-3.265255"><ele>190</ele><time>2022-04-15T10:07:21Z</time><name>PT428</name></trkpt>
<trkpt lat="52.973028" lon="-3.265263"><ele>190</ele><time>2022-04-15T10:07:22Z</time><name>PT429</name></trkpt>
<trkpt lat="52.973031" lon="-3.265270"><ele>190</ele><time>2022-04-15T10:07:23Z</time><name>PT430</name></trkpt>
<trkpt lat="52.973035" lon="-3.265280"><ele>190</ele><time>2022-04-15T10:07:24Z</time><name>PT431</name></trkpt>
<trkpt lat="52.973040" lon="-3.265293"><ele>190</ele><time>2022-04-15T10:07:25Z</time><name>PT432</name></trkpt>
<trkpt lat="52.973045" lon="-3.265304"><ele>190</ele><time>2022-04-15T10:07:26Z</time><name>PT433</name></trkpt>
<trkpt lat="52.973050" lon="-3.265315"><ele>190</ele><time>2022-04-15T10:07:27Z</time><name>PT434</name></trkpt>
<trkpt lat="52.973055" lon="-3.265329"><ele>189</ele><time>2022-04-15T10:07:28Z</time><name>PT435</name></trkpt>
<trkpt lat="52.973060" lon="-3.265338"><ele>189</ele><time>2022-04-15T10:07:29Z</time><name>PT436</name></trkpt>
<trkpt lat="52.973066" lon="-3.265349"><ele>189</ele><time>2022-04-15T10:07:30Z</time><name>PT437</name></trkpt>
<trkpt lat="52.973074" lon="-3.265363"><ele>189</ele><time>2022-04-15T10:07:31Z</time><name>PT438</name></trkpt>
<trkpt lat="52.973079" lon="-3.265375"><ele>189</ele><time>2022-04-15T10:07:32Z</time><name>PT439</name></trkpt>
<trkpt lat="52.973081" lon="-3.265386"><ele>189</ele><time>2022-04-15T10:07:33Z</time><name>PT440</name></trkpt>
<trkpt lat="52.973088" lon="-3.265401"><ele>189</ele><time>2022-04-15T10:07:34Z</time><name>PT441</name></trkpt>
<trkpt lat="52.973091" lon="-3.265416"><ele>189</ele><time>2022-04-15T10:07:35Z</time><name>PT442</name></trkpt>
<trkpt lat="52.973095" lon="-3.265428"><ele>189</ele><time>2022-04-15T10:07:36Z</time><name>PT443</name></trkpt>
<trkpt lat="52.973099" lon="-3.265436"><ele>189</ele><time>2022-04-15T10:07:37Z</time><name>PT444</name></trkpt>
<trkpt lat="52.973103" lon="-3.265445"><ele>189</ele><time>2022-04-15T10:07:38Z</time><name>PT445</name></trkpt>
<trkpt lat="52.973107" lon="-3.265457"><ele>189</ele><time>2022-04-15T10:07:39Z</time><name>PT446</name></trkpt>
<trkpt lat="52.973112" lon="-3.265472"><ele>189</ele><time>2022-04-15T10:07:40Z</time><name>PT447</name></trkpt>
<trkpt lat="52.973114" lon="-3.265481"><ele>189</ele><time>2022-04-15T10:07:41Z</time><name>PT448</name></trkpt>
<trkpt lat="52.973115" lon="-3.265488"><ele>189</ele><time>2022-04-15T10:07:42Z</time><name>PT449</name></trkpt>
<trkpt lat="52.973117" lon="-3.265499"><ele>189</ele><time>2022-04-15T10:07:43Z</time><name>PT450</name></trkpt>
<trkpt lat="52.973120" lon="-3.265507"><ele>188</ele><time>2022-04-15T10:07:44Z</time><name>PT451</name></trkpt>
<trkpt lat="52.973123" lon="-3.265513"><ele>188</ele><time>2022-04-15T10:07:45Z</time><name>PT452</name></trkpt>
<trkpt lat="52.973126" lon="-3.265527"><ele>188</ele><time>2022-04-15T10:07:46Z</time><name>PT453</name></trkpt>
<trkpt lat="52.973128" lon="-3.265537"><ele>188</ele><time>2022-04-15T10:07:47Z</time><name>PT454</name></trkpt>
<trkpt lat="52.973131" lon="-3.265546"><ele>188</ele><time>2022-04-15T10:07:48Z</time><name>PT455</name></trkpt>
<trkpt lat="52.973132" lon="-3.265553"><ele>188</ele><time>2022-04-15T10:07:49Z</time><name>PT456</name></trkpt>
<trkpt lat="52.973133" lon="-3.265558"><ele>188</ele><time>2022-04-15T10:07:50Z</time><name>PT457</name></trkpt>
<trkpt lat="52.973134" lon="-3.265563"><ele>188</ele><time>2022-04-15T10:07:51Z</time><name>PT458</name></trkpt>
<trkpt lat="52.973137" lon="-3.265572"><ele>188</ele><time>2022-04-15T10:07:56Z</time><name>PT459</name></trkpt>
<trkpt lat="52.973138" lon="-3.265585"><ele>188</ele><time>2022-04-15T10:07:57Z</time><name>PT460</name></trkpt>
<trkpt lat="52.973141" lon="-3.265598"><ele>187</ele><time>2022-04-15T10:07:58Z</time><name>PT461</name></trkpt>
<trkpt lat="52.973146" lon="-3.265609"><ele>187</ele><time>2022-04-15T10:07:59Z</time><name>PT462</name></trkpt>
<trkpt lat="52.973145" lon="-3.265623"><ele>187</ele><time>2022-04-15T10:08:00Z</time><name>PT463</name></trkpt>
<trkpt lat="52.973146" lon="-3.265638"><ele>186</ele><time>2022-04-15T10:08:01Z</time><name>PT464</name></trkpt>
<trkpt lat="52.973148" lon="-3.265651"><ele>186</ele><time>2022-04-15T10:08:02Z</time><name>PT465</name></trkpt>
<trkpt lat="52.973153" lon="-3.265664"><ele>186</ele><time>2022-04-15T10:08:03Z</time><name>PT466</name></trkpt>
<trkpt lat="52.973154" lon="-3.265677"><ele>185</ele><time>2022-04-15T10:08:04Z</time><name>PT467</name></trkpt>
<trkpt lat="52.973156" lon="-3.265685"><ele>185</ele><time>2022-04-15T10:08:05Z</time><name>PT468</name></trkpt>
<trkpt lat="52.973158" lon="-3.265695"><ele>185</ele><time>2022-04-15T10:08:06Z</time><name>PT469</name></trkpt>
<trkpt lat="52.973163" lon="-3.265709"><ele>185</ele><time>2022-04-15T10:08:07Z</time><name>PT470</name></trkpt>
<trkpt lat="52.973167" lon="-3.265724"><ele>184</ele><time>2022-04-15T10:08:08Z</time><name>PT471</name></trkpt>
<trkpt lat="52.973168" lon="-3.265735"><ele>184</ele><time>2022-04-15T10:08:09Z</time><name>PT472</name></trkpt>
<trkpt lat="52.973175" lon="-3.265748"><ele>184</ele><time>2022-04-15T10:08:10Z</time><name>PT473</name></trkpt>
<trkpt lat="52.973180" lon="-3.265764"><ele>184</ele><time>2022-04-15T10:08:11Z</time><name>PT474</name></trkpt>
<trkpt lat="52.973185" lon="-3.265778"><ele>184</ele><time>2022-04-15T10:08:12Z</time><name>PT475</name></trkpt>
<trkpt lat="52.973185" lon="-3.265794"><ele>184</ele><time>2022-04-15T10:08:13Z</time><name>PT476</name></trkpt>
<trkpt lat="52.973188" lon="-3.265808"><ele>184</ele><time>2022-04-15T10:08:14Z</time><name>PT477</name></trkpt>
<trkpt lat="52.973190" lon="-3.265823"><ele>184</ele><time>2022-04-15T10:08:15Z</time><name>PT478</name></trkpt>
<trkpt lat="52.973189" lon="-3.265836"><ele>184</ele><time>2022-04-15T10:08:16Z</time><name>PT479</name></trkpt>
<trkpt lat="52.973190" lon="-3.265851"><ele>184</ele><time>2022-04-15T10:08:17Z</time><name>PT480</name></trkpt>
<trkpt lat="52.973189" lon="-3.265863"><ele>183</ele><time>2022-04-15T10:08:18Z</time><name>PT481</name></trkpt>
<trkpt lat="52.973188" lon="-3.265874"><ele>182</ele><time>2022-04-15T10:08:19Z</time><name>PT482</name></trkpt>
<trkpt lat="52.973190" lon="-3.265887"><ele>182</ele><time>2022-04-15T10:08:20Z</time><name>PT483</name></trkpt>
<trkpt lat="52.973190" lon="-3.265900"><ele>182</ele><time>2022-04-15T10:08:21Z</time><name>PT484</name></trkpt>
<trkpt lat="52.973190" lon="-3.265909"><ele>182</ele><time>2022-04-15T10:08:22Z</time><name>PT485</name></trkpt>
<trkpt lat="52.973191" lon="-3.265924"><ele>182</ele><time>2022-04-15T10:08:23Z</time><name>PT486</name></trkpt>
<trkpt lat="52.973191" lon="-3.265940"><ele>182</ele><time>2022-04-15T10:08:24Z</time><name>PT487</name></trkpt>
<trkpt lat="52.973188" lon="-3.265957"><ele>182</ele><time>2022-04-15T10:08:25Z</time><name>PT488</name></trkpt>
<trkpt lat="52.973189" lon="-3.265970"><ele>182</ele><time>2022-04-15T10:08:26Z</time><name>PT489</name></trkpt>
<trkpt lat="52.973189" lon="-3.265984"><ele>182</ele><time>2022-04-15T10:08:27Z</time><name>PT490</name></trkpt>
<trkpt lat="52.973187" lon="-3.266000"><ele>182</ele><time>2022-04-15T10:08:28Z</time><name>PT491</name></trkpt>
<trkpt lat="52.973185" lon="-3.266024"><ele>182</ele><time>2022-04-15T10:08:29Z</time><name>PT492</name></trkpt>
<trkpt lat="52.973185" lon="-3.266038"><ele>182</ele><time>2022-04-15T10:08:30Z</time><name>PT493</name></trkpt>
<trkpt lat="52.973187" lon="-3.266052"><ele>181</ele><time>2022-04-15T10:08:31Z</time><name>PT494</name></trkpt>
<trkpt lat="52.973190" lon="-3.266064"><ele>181</ele><time>2022-04-15T10:08:32Z</time><name>PT495</name></trkpt>
<trkpt lat="52.973189" lon="-3.266079"><ele>181</ele><time>2022-04-15T10:08:33Z</time><name>PT496</name></trkpt>
<trkpt lat="52.973191" lon="-3.266098"><ele>180</ele><time>2022-04-15T10:08:34Z</time><name>PT497</name></trkpt>
<trkpt lat="52.973195" lon="-3.266114"><ele>180</ele><time>2022-04-15T10:08:35Z</time><name>PT498</name></trkpt>
<trkpt lat="52.973198" lon="-3.266126"><ele>180</ele><time>2022-04-15T10:08:36Z</time><name>PT499</name></trkpt>
<trkpt lat="52.973201" lon="-3.266143"><ele>180</ele><time>2022-04-15T10:08:37Z</time><name>PT500</name></trkpt>
<trkpt lat="52.973206" lon="-3.266164"><ele>180</ele><time>2022-04-15T10:08:38Z</time><name>PT501</name></trkpt>
<trkpt lat="52.973208" lon="-3.266184"><ele>179</ele><time>2022-04-15T10:08:39Z</time><name>PT502</name></trkpt>
<trkpt lat="52.973209" lon="-3.266203"><ele>180</ele><time>2022-04-15T10:08:40Z</time><name>PT503</name></trkpt>
<trkpt lat="52.973216" lon="-3.266225"><ele>180</ele><time>2022-04-15T10:08:41Z</time><name>PT504</name></trkpt>
<trkpt lat="52.973223" lon="-3.266240"><ele>181</ele><time>2022-04-15T10:08:42Z</time><name>PT505</name></trkpt>
<trkpt lat="52.973227" lon="-3.266258"><ele>181</ele><time>2022-04-15T10:08:43Z</time><name>PT506</name></trkpt>
<trkpt lat="52.973227" lon="-3.266274"><ele>181</ele><time>2022-04-15T10:08:44Z</time><name>PT507</name></trkpt>
<trkpt lat="52.973228" lon="-3.266295"><ele>182</ele><time>2022-04-15T10:08:45Z</time><name>PT508</name></trkpt>
<trkpt lat="52.973233" lon="-3.266316"><ele>183</ele><time>2022-04-15T10:08:46Z</time><name>PT509</name></trkpt>
<trkpt lat="52.973230" lon="-3.266337"><ele>183</ele><time>2022-04-15T10:08:48Z</time><name>PT510</name></trkpt>
<trkpt lat="52.973228" lon="-3.266355"><ele>183</ele><time>2022-04-15T10:08:48Z</time><name>PT511</name></trkpt>
<trkpt lat="52.973224" lon="-3.266373"><ele>184</ele><time>2022-04-15T10:08:49Z</time><name>PT512</name></trkpt>
<trkpt lat="52.973218" lon="-3.266395"><ele>184</ele><time>2022-04-15T10:08:50Z</time><name>PT513</name></trkpt>
<trkpt lat="52.973214" lon="-3.266414"><ele>184</ele><time>2022-04-15T10:08:51Z</time><name>PT514</name></trkpt>
<trkpt lat="52.973206" lon="-3.266431"><ele>184</ele><time>2022-04-15T10:08:52Z</time><name>PT515</name></trkpt>
<trkpt lat="52.973202" lon="-3.266451"><ele>184</ele><time>2022-04-15T10:08:53Z</time><name>PT516</name></trkpt>
<trkpt lat="52.973200" lon="-3.266466"><ele>185</ele><time>2022-04-15T10:08:54Z</time><name>PT517</name></trkpt>
<trkpt lat="52.973191" lon="-3.266486"><ele>184</ele><time>2022-04-15T10:08:55Z</time><name>PT518</name></trkpt>
<trkpt lat="52.973188" lon="-3.266505"><ele>184</ele><time>2022-04-15T10:08:56Z</time><name>PT519</name></trkpt>
<trkpt lat="52.973185" lon="-3.266522"><ele>184</ele><time>2022-04-15T10:08:57Z</time><name>PT520</name></trkpt>
<trkpt lat="52.973181" lon="-3.266542"><ele>185</ele><time>2022-04-15T10:08:58Z</time><name>PT521</name></trkpt>
<trkpt lat="52.973177" lon="-3.266560"><ele>185</ele><time>2022-04-15T10:08:59Z</time><name>PT522</name></trkpt>
<trkpt lat="52.973174" lon="-3.266574"><ele>186</ele><time>2022-04-15T10:09:00Z</time><name>PT523</name></trkpt>
<trkpt lat="52.973173" lon="-3.266591"><ele>186</ele><time>2022-04-15T10:09:01Z</time><name>PT524</name></trkpt>
<trkpt lat="52.973166" lon="-3.266600"><ele>186</ele><time>2022-04-15T10:09:02Z</time><name>PT525</name></trkpt>
<trkpt lat="52.973162" lon="-3.266615"><ele>186</ele><time>2022-04-15T10:09:03Z</time><name>PT526</name></trkpt>
<trkpt lat="52.973159" lon="-3.266629"><ele>187</ele><time>2022-04-15T10:09:04Z</time><name>PT527</name></trkpt>
<trkpt lat="52.973156" lon="-3.266643"><ele>187</ele><time>2022-04-15T10:09:05Z</time><name>PT528</name></trkpt>
<trkpt lat="52.973156" lon="-3.266654"><ele>187</ele><time>2022-04-15T10:09:06Z</time><name>PT529</name></trkpt>
<trkpt lat="52.973155" lon="-3.266671"><ele>187</ele><time>2022-04-15T10:09:07Z</time><name>PT530</name></trkpt>
<trkpt lat="52.973152" lon="-3.266687"><ele>187</ele><time>2022-04-15T10:09:08Z</time><name>PT531</name></trkpt>
<trkpt lat="52.973149" lon="-3.266706"><ele>186</ele><time>2022-04-15T10:09:09Z</time><name>PT532</name></trkpt>
<trkpt lat="52.973147" lon="-3.266719"><ele>186</ele><time>2022-04-15T10:09:10Z</time><name>PT533</name></trkpt>
<trkpt lat="52.973146" lon="-3.266733"><ele>186</ele><time>2022-04-15T10:09:11Z</time><name>PT534</name></trkpt>
<trkpt lat="52.973144" lon="-3.266747"><ele>186</ele><time>2022-04-15T10:09:12Z</time><name>PT535</name></trkpt>
<trkpt lat="52.973141" lon="-3.266770"><ele>185</ele><time>2022-04-15T10:09:13Z</time><name>PT536</name></trkpt>
<trkpt lat="52.973135" lon="-3.266790"><ele>185</ele><time>2022-04-15T10:09:14Z</time><name>PT537</name></trkpt>
<trkpt lat="52.973132" lon="-3.266809"><ele>184</ele><time>2022-04-15T10:09:15Z</time><name>PT538</name></trkpt>
<trkpt lat="52.973131" lon="-3.266824"><ele>184</ele><time>2022-04-15T10:09:16Z</time><name>PT539</name></trkpt>
<trkpt lat="52.973130" lon="-3.266843"><ele>185</ele><time>2022-04-15T10:09:18Z</time><name>PT540</name></trkpt>
<trkpt lat="52.973127" lon="-3.266864"><ele>185</ele><time>2022-04-15T10:09:18Z</time><name>PT541</name></trkpt>
<trkpt lat="52.973124" lon="-3.266878"><ele>185</ele><time>2022-04-15T10:09:19Z</time><name>PT542</name></trkpt>
<trkpt lat="52.973120" lon="-3.266897"><ele>184</ele><time>2022-04-15T10:09:20Z</time><name>PT543</name></trkpt>
<trkpt lat="52.973120" lon="-3.266912"><ele>184</ele><time>2022-04-15T10:09:21Z</time><name>PT544</name></trkpt>
<trkpt lat="52.973118" lon="-3.266919"><ele>184</ele><time>2022-04-15T10:09:22Z</time><name>PT545</name></trkpt>
<trkpt lat="52.973117" lon="-3.266937"><ele>184</ele><time>2022-04-15T10:09:23Z</time><name>PT546</name></trkpt>
<trkpt lat="52.973114" lon="-3.266942"><ele>183</ele><time>2022-04-15T10:09:24Z</time><name>PT547</name></trkpt>
<trkpt lat="52.973111" lon="-3.266954"><ele>183</ele><time>2022-04-15T10:09:25Z</time><name>PT548</name></trkpt>
<trkpt lat="52.973110" lon="-3.266967"><ele>183</ele><time>2022-04-15T10:09:26Z</time><name>PT549</name></trkpt>
<trkpt lat="52.973105" lon="-3.266984"><ele>183</ele><time>2022-04-15T10:09:27Z</time><name>PT550</name></trkpt>
<trkpt lat="52.973104" lon="-3.267013"><ele>183</ele><time>2022-04-15T10:09:28Z</time><name>PT551</name></trkpt>
<trkpt lat="52.973101" lon="-3.267036"><ele>183</ele><time>2022-04-15T10:09:29Z</time><name>PT552</name></trkpt>
<trkpt lat="52.973099" lon="-3.267055"><ele>183</ele><time>2022-04-15T10:09:30Z</time><name>PT553</name></trkpt>
<trkpt lat="52.973097" lon="-3.267073"><ele>183</ele><time>2022-04-15T10:09:31Z</time><name>PT554</name></trkpt>
<trkpt lat="52.973096" lon="-3.267094"><ele>183</ele><time>2022-04-15T10:09:32Z</time><name>PT555</name></trkpt>
<trkpt lat="52.973094" lon="-3.267115"><ele>183</ele><time>2022-04-15T10:09:33Z</time><name>PT556</name></trkpt>
<trkpt lat="52.973086" lon="-3.267137"><ele>182</ele><time>2022-04-15T10:09:34Z</time><name>PT557</name></trkpt>
<trkpt lat="52.973085" lon="-3.267154"><ele>183</ele><time>2022-04-15T10:09:35Z</time><name>PT558</name></trkpt>
<trkpt lat="52.973085" lon="-3.267177"><ele>182</ele><time>2022-04-15T10:09:36Z</time><name>PT559</name></trkpt>
<trkpt lat="52.973081" lon="-3.267196"><ele>182</ele><time>2022-04-15T10:09:37Z</time><name>PT560</name></trkpt>
<trkpt lat="52.973076" lon="-3.267211"><ele>182</ele><time>2022-04-15T10:09:38Z</time><name>PT561</name></trkpt>
<trkpt lat="52.973072" lon="-3.267225"><ele>182</ele><time>2022-04-15T10:09:39Z</time><name>PT562</name></trkpt>
<trkpt lat="52.973073" lon="-3.267239"><ele>182</ele><time>2022-04-15T10:09:40Z</time><name>PT563</name></trkpt>
<trkpt lat="52.973076" lon="-3.267259"><ele>183</ele><time>2022-04-15T10:09:41Z</time><name>PT564</name></trkpt>
<trkpt lat="52.973072" lon="-3.267287"><ele>184</ele><time>2022-04-15T10:09:42Z</time><name>PT565</name></trkpt>
<trkpt lat="52.973068" lon="-3.267314"><ele>184</ele><time>2022-04-15T10:09:43Z</time><name>PT566</name></trkpt>
<trkpt lat="52.973062" lon="-3.267333"><ele>184</ele><time>2022-04-15T10:09:44Z</time><name>PT567</name></trkpt>
<trkpt lat="52.973061" lon="-3.267350"><ele>184</ele><time>2022-04-15T10:09:45Z</time><name>PT568</name></trkpt>
<trkpt lat="52.973061" lon="-3.267381"><ele>185</ele><time>2022-04-15T10:09:46Z</time><name>PT569</name></trkpt>
<trkpt lat="52.973059" lon="-3.267400"><ele>186</ele><time>2022-04-15T10:09:48Z</time><name>PT570</name></trkpt>
<trkpt lat="52.973052" lon="-3.267429"><ele>186</ele><time>2022-04-15T10:09:48Z</time><name>PT571</name></trkpt>
<trkpt lat="52.973046" lon="-3.267450"><ele>186</ele><time>2022-04-15T10:09:49Z</time><name>PT572</name></trkpt>
<trkpt lat="52.973044" lon="-3.267470"><ele>187</ele><time>2022-04-15T10:09:50Z</time><name>PT573</name></trkpt>
<trkpt lat="52.973040" lon="-3.267489"><ele>187</ele><time>2022-04-15T10:09:51Z</time><name>PT574</name></trkpt>
<trkpt lat="52.973034" lon="-3.267508"><ele>187</ele><time>2022-04-15T10:09:52Z</time><name>PT575</name></trkpt>
<trkpt lat="52.973032" lon="-3.267525"><ele>187</ele><time>2022-04-15T10:09:54Z</time><name>PT576</name></trkpt>
<trkpt lat="52.973029" lon="-3.267540"><ele>187</ele><time>2022-04-15T10:09:54Z</time><name>PT577</name></trkpt>
<trkpt lat="52.973032" lon="-3.267557"><ele>188</ele><time>2022-04-15T10:09:55Z</time><name>PT578</name></trkpt>
<trkpt lat="52.973030" lon="-3.267572"><ele>188</ele><time>2022-04-15T10:09:56Z</time><name>PT579</name></trkpt>
<trkpt lat="52.973022" lon="-3.267585"><ele>188</ele><time>2022-04-15T10:09:57Z</time><name>PT580</name></trkpt>
<trkpt lat="52.973019" lon="-3.267602"><ele>189</ele><time>2022-04-15T10:09:58Z</time><name>PT581</name></trkpt>
<trkpt lat="52.973016" lon="-3.267612"><ele>189</ele><time>2022-04-15T10:09:59Z</time><name>PT582</name></trkpt>
<trkpt lat="52.973012" lon="-3.267624"><ele>189</ele><time>2022-04-15T10:10:00Z</time><name>PT583</name></trkpt>
<trkpt lat="52.973007" lon="-3.267644"><ele>189</ele><time>2022-04-15T10:10:01Z</time><name>PT584</name></trkpt>
<trkpt lat="52.973000" lon="-3.267665"><ele>189</ele><time>2022-04-15T10:10:02Z</time><name>PT585</name></trkpt>
<trkpt lat="52.972991" lon="-3.267683"><ele>189</ele><time>2022-04-15T10:10:03Z</time><name>PT586</name></trkpt>
<trkpt lat="52.972988" lon="-3.267699"><ele>189</ele><time>2022-04-15T10:10:04Z</time><name>PT587</name></trkpt>
<trkpt lat="52.972981" lon="-3.267716"><ele>189</ele><time>2022-04-15T10:10:05Z</time><name>PT588</name></trkpt>
<trkpt lat="52.972973" lon="-3.267738"><ele>188</ele><time>2022-04-15T10:10:06Z</time><name>PT589</name></trkpt>
<trkpt lat="52.972963" lon="-3.267753"><ele>187</ele><time>2022-04-15T10:10:07Z</time><name>PT590</name></trkpt>
<trkpt lat="52.972956" lon="-3.267772"><ele>187</ele><time>2022-04-15T10:10:08Z</time><name>PT591</name></trkpt>
<trkpt lat="52.972952" lon="-3.267791"><ele>188</ele><time>2022-04-15T10:10:09Z</time><name>PT592</name></trkpt>
<trkpt lat="52.972948" lon="-3.267799"><ele>187</ele><time>2022-04-15T10:10:10Z</time><name>PT593</name></trkpt>
<trkpt lat="52.972947" lon="-3.267807"><ele>187</ele><time>2022-04-15T10:10:11Z</time><name>PT594</name></trkpt>
<trkpt lat="52.972943" lon="-3.267827"><ele>187</ele><time>2022-04-15T10:10:12Z</time><name>PT595</name></trkpt>
<trkpt lat="52.972940" lon="-3.267841"><ele>187</ele><time>2022-04-15T10:10:13Z</time><name>PT596</name></trkpt>
<trkpt lat="52.972940" lon="-3.267855"><ele>186</ele><time>2022-04-15T10:10:14Z</time><name>PT597</name></trkpt>
<trkpt lat="52.972936" lon="-3.267874"><ele>187</ele><time>2022-04-15T10:10:15Z</time><name>PT598</name></trkpt>
<trkpt lat="52.972933" lon="-3.267895"><ele>187</ele><time>2022-04-15T10:10:16Z</time><name>PT599</name></trkpt>
<trkpt lat="52.972924" lon="-3.267912"><ele>187</ele><time>2022-04-15T10:10:17Z</time><name>PT600</name></trkpt>
<trkpt lat="52.972923" lon="-3.267930"><ele>187</ele><time>2022-04-15T10:10:18Z</time><name>PT601</name></trkpt>
<trkpt lat="52.972921" lon="-3.267949"><ele>187</ele><time>2022-04-15T10:10:19Z</time><name>PT602</name></trkpt>
<trkpt lat="52.972918" lon="-3.267968"><ele>187</ele><time>2022-04-15T10:10:20Z</time><name>PT603</name></trkpt>
<trkpt lat="52.972915" lon="-3.267985"><ele>188</ele><time>2022-04-15T10:10:21Z</time><name>PT604</name></trkpt>
<trkpt lat="52.972915" lon="-3.268001"><ele>188</ele><time>2022-04-15T10:10:22Z</time><name>PT605</name></trkpt>
<trkpt lat="52.972913" lon="-3.268019"><ele>188</ele><time>2022-04-15T10:10:23Z</time><name>PT606</name></trkpt>
<trkpt lat="52.972910" lon="-3.268038"><ele>188</ele><time>2022-04-15T10:10:24Z</time><name>PT607</name></trkpt>
<trkpt lat="52.972912" lon="-3.268052"><ele>187</ele><time>2022-04-15T10:10:25Z</time><name>PT608</name></trkpt>
<trkpt lat="52.972913" lon="-3.268064"><ele>186</ele><time>2022-04-15T10:10:26Z</time><name>PT609</name></trkpt>
<trkpt lat="52.972910" lon="-3.268079"><ele>186</ele><time>2022-04-15T10:10:27Z</time><name>PT610</name></trkpt>
<trkpt lat="52.972910" lon="-3.268095"><ele>185</ele><time>2022-04-15T10:10:28Z</time><name>PT611</name></trkpt>
<trkpt lat="52.972911" lon="-3.268114"><ele>186</ele><time>2022-04-15T10:10:29Z</time><name>PT612</name></trkpt>
<trkpt lat="52.972913" lon="-3.268124"><ele>186</ele><time>2022-04-15T10:10:30Z</time><name>PT613</name></trkpt>
<trkpt lat="52.972913" lon="-3.268137"><ele>186</ele><time>2022-04-15T10:10:31Z</time><name>PT614</name></trkpt>
<trkpt lat="52.972912" lon="-3.268156"><ele>186</ele><time>2022-04-15T10:10:32Z</time><name>PT615</name></trkpt>
<trkpt lat="52.972911" lon="-3.268171"><ele>186</ele><time>2022-04-15T10:10:33Z</time><name>PT616</name></trkpt>
<trkpt lat="52.972913" lon="-3.268184"><ele>186</ele><time>2022-04-15T10:10:34Z</time><name>PT617</name></trkpt>
<trkpt lat="52.972914" lon="-3.268201"><ele>186</ele><time>2022-04-15T10:10:35Z</time><name>PT618</name></trkpt>
<trkpt lat="52.972913" lon="-3.268224"><ele>186</ele><time>2022-04-15T10:10:36Z</time><name>PT619</name></trkpt>
<trkpt lat="52.972913" lon="-3.268242"><ele>186</ele><time>2022-04-15T10:10:37Z</time><name>PT620</name></trkpt>
<trkpt lat="52.972917" lon="-3.268254"><ele>187</ele><time>2022-04-15T10:10:38Z</time><name>PT621</name></trkpt>
<trkpt lat="52.972920" lon="-3.268263"><ele>187</ele><time>2022-04-15T10:10:39Z</time><name>PT622</name></trkpt>
<trkpt lat="52.972921" lon="-3.268279"><ele>187</ele><time>2022-04-15T10:10:40Z</time><name>PT623</name></trkpt>
<trkpt lat="52.972922" lon="-3.268292"><ele>186</ele><time>2022-04-15T10:10:41Z</time><name>PT624</name></trkpt>
<trkpt lat="52.972921" lon="-3.268307"><ele>185</ele><time>2022-04-15T10:10:42Z</time><name>PT625</name></trkpt>
<trkpt lat="52.972915" lon="-3.268371"><ele>183</ele><time>2022-04-15T10:10:46Z</time><name>PT626</name></trkpt>
<trkpt lat="52.972919" lon="-3.268426"><ele>183</ele><time>2022-04-15T10:10:50Z</time><name>PT627</name></trkpt>
<trkpt lat="52.972910" lon="-3.268477"><ele>183</ele><time>2022-04-15T10:10:53Z</time><name>PT628</name></trkpt>
<trkpt lat="52.972909" lon="-3.268531"><ele>184</ele><time>2022-04-15T10:10:56Z</time><name>PT629</name></trkpt>
<trkpt lat="52.972909" lon="-3.268572"><ele>184</ele><time>2022-04-15T10:10:59Z</time><name>PT630</name></trkpt>
<trkpt lat="52.972912" lon="-3.268605"><ele>184</ele><time>2022-04-15T10:11:03Z</time><name>PT631</name></trkpt>
<trkpt lat="52.972921" lon="-3.268637"><ele>184</ele><time>2022-04-15T10:11:07Z</time><name>PT632</name></trkpt>
<trkpt lat="52.972927" lon="-3.268669"><ele>182</ele><time>2022-04-15T10:11:11Z</time><name>PT633</name></trkpt>
<trkpt lat="52.972929" lon="-3.268702"><ele>181</ele><time>2022-04-15T10:11:14Z</time><name>PT634</name></trkpt>
<trkpt lat="52.972928" lon="-3.268724"><ele>180</ele><time>2022-04-15T10:11:17Z</time><name>PT635</name></trkpt>
<trkpt lat="52.972929" lon="-3.268758"><ele>179</ele><time>2022-04-15T10:11:20Z</time><name>PT636</name></trkpt>
<trkpt lat="52.972929" lon="-3.268786"><ele>178</ele><time>2022-04-15T10:11:24Z</time><name>PT637</name></trkpt>
<trkpt lat="52.972934" lon="-3.268799"><ele>178</ele><time>2022-04-15T10:11:28Z</time><name>PT638</name></trkpt>
<trkpt lat="52.972939" lon="-3.268803"><ele>177</ele><time>2022-04-15T10:11:35Z</time><name>PT639</name></trkpt>
<trkpt lat="52.972938" lon="-3.268815"><ele>175</ele><time>2022-04-15T10:11:38Z</time><name>PT640</name></trkpt>
<trkpt lat="52.972936" lon="-3.268832"><ele>173</ele><time>2022-04-15T10:11:40Z</time><name>PT641</name></trkpt>
<trkpt lat="52.972924" lon="-3.268836"><ele>172</ele><time>2022-04-15T10:11:42Z</time><name>PT642</name></trkpt>
<trkpt lat="52.972922" lon="-3.268841"><ele>173</ele><time>2022-04-15T10:11:42Z</time><name>PT643</name></trkpt>
<trkpt lat="52.972925" lon="-3.268845"><ele>174</ele><time>2022-04-15T10:11:43Z</time><name>PT644</name></trkpt>
<trkpt lat="52.972930" lon="-3.268843"><ele>174</ele><time>2022-04-15T10:11:44Z</time><name>PT645</name></trkpt>
<trkpt lat="52.972933" lon="-3.268844"><ele>173</ele><time>2022-04-15T10:11:45Z</time><name>PT646</name></trkpt>
<trkpt lat="52.972938" lon="-3.268845"><ele>173</ele><time>2022-04-15T10:11:46Z</time><name>PT647</name></trkpt>
<trkpt lat="52.972939" lon="-3.268843"><ele>173</ele><time>2022-04-15T10:11:47Z</time><name>PT648</name></trkpt>
<trkpt lat="52.972943" lon="-3.268847"><ele>173</ele><time>2022-04-15T10:11:48Z</time><name>PT649</name></trkpt>
<trkpt lat="52.972946" lon="-3.268849"><ele>173</ele><time>2022-04-15T10:11:49Z</time><name>PT650</name></trkpt>
<trkpt lat="52.972948" lon="-3.268843"><ele>173</ele><time>2022-04-15T10:11:50Z</time><name>PT651</name></trkpt>
<trkpt lat="52.972953" lon="-3.268843"><ele>173</ele><time>2022-04-15T10:11:51Z</time><name>PT652</name></trkpt>
<trkpt lat="52.972955" lon="-3.268843"><ele>173</ele><time>2022-04-15T10:11:52Z</time><name>PT653</name></trkpt>
<trkpt lat="52.972956" lon="-3.268846"><ele>172</ele><time>2022-04-15T10:11:53Z</time><name>PT654</name></trkpt>
<trkpt lat="52.972959" lon="-3.268866"><ele>172</ele><time>2022-04-15T10:11:55Z</time><name>PT655</name></trkpt>
<trkpt lat="52.972966" lon="-3.268871"><ele>172</ele><time>2022-04-15T10:11:57Z</time><name>PT656</name></trkpt>
<trkpt lat="52.972974" lon="-3.268875"><ele>171</ele><time>2022-04-15T10:11:57Z</time><name>PT657</name></trkpt>
<trkpt lat="52.972981" lon="-3.268884"><ele>171</ele><time>2022-04-15T10:11:58Z</time><name>PT658</name></trkpt>
<trkpt lat="52.972985" lon="-3.268884"><ele>170</ele><time>2022-04-15T10:11:59Z</time><name>PT659</name></trkpt>
<trkpt lat="52.972989" lon="-3.268885"><ele>172</ele><time>2022-04-15T10:12:00Z</time><name>PT660</name></trkpt>
<trkpt lat="52.972990" lon="-3.268883"><ele>172</ele><time>2022-04-15T10:12:01Z</time><name>PT661</name></trkpt>
<trkpt lat="52.972998" lon="-3.268884"><ele>172</ele><time>2022-04-15T10:12:02Z</time><name>PT662</name></trkpt>
<trkpt lat="52.973002" lon="-3.268881"><ele>171</ele><time>2022-04-15T10:12:03Z</time><name>PT663</name></trkpt>
<trkpt lat="52.973006" lon="-3.268879"><ele>170</ele><time>2022-04-15T10:12:04Z</time><name>PT664</name></trkpt>
<trkpt lat="52.973013" lon="-3.268882"><ele>170</ele><time>2022-04-15T10:12:05Z</time><name>PT665</name></trkpt>
<trkpt lat="52.973016" lon="-3.268882"><ele>170</ele><time>2022-04-15T10:12:06Z</time><name>PT666</name></trkpt>
<trkpt lat="52.973026" lon="-3.268884"><ele>170</ele><time>2022-04-15T10:12:07Z</time><name>PT667</name></trkpt>
<trkpt lat="52.973026" lon="-3.268889"><ele>168</ele><time>2022-04-15T10:12:08Z</time><name>PT668</name></trkpt>
<trkpt lat="52.973031" lon="-3.268891"><ele>168</ele><time>2022-04-15T10:12:09Z</time><name>PT669</name></trkpt>
<trkpt lat="52.973033" lon="-3.268892"><ele>167</ele><time>2022-04-15T10:12:10Z</time><name>PT670</name></trkpt>
<trkpt lat="52.973041" lon="-3.268893"><ele>166</ele><time>2022-04-15T10:12:11Z</time><name>PT671</name></trkpt>
<trkpt lat="52.973048" lon="-3.268896"><ele>166</ele><time>2022-04-15T10:12:12Z</time><name>PT672</name></trkpt>
<trkpt lat="52.973052" lon="-3.268896"><ele>165</ele><time>2022-04-15T10:12:13Z</time><name>PT673</name></trkpt>
<trkpt lat="52.973061" lon="-3.268900"><ele>165</ele><time>2022-04-15T10:12:14Z</time><name>PT674</name></trkpt>
<trkpt lat="52.973071" lon="-3.268903"><ele>164</ele><time>2022-04-15T10:12:15Z</time><name>PT675</name></trkpt>
<trkpt lat="52.973081" lon="-3.268905"><ele>165</ele><time>2022-04-15T10:12:16Z</time><name>PT676</name></trkpt>
<trkpt lat="52.973094" lon="-3.268912"><ele>165</ele><time>2022-04-15T10:12:17Z</time><name>PT677</name></trkpt>
<trkpt lat="52.973103" lon="-3.268918"><ele>164</ele><time>2022-04-15T10:12:18Z</time><name>PT678</name></trkpt>
<trkpt lat="52.973110" lon="-3.268920"><ele>164</ele><time>2022-04-15T10:12:19Z</time><name>PT679</name></trkpt>
<trkpt lat="52.973118" lon="-3.268923"><ele>165</ele><time>2022-04-15T10:12:20Z</time><name>PT680</name></trkpt>
<trkpt lat="52.973131" lon="-3.268924"><ele>164</ele><time>2022-04-15T10:12:21Z</time><name>PT681</name></trkpt>
<trkpt lat="52.973140" lon="-3.268928"><ele>164</ele><time>2022-04-15T10:12:22Z</time><name>PT682</name></trkpt>
<trkpt lat="52.973144" lon="-3.268924"><ele>164</ele><time>2022-04-15T10:12:23Z</time><name>PT683</name></trkpt>
<trkpt lat="52.973152" lon="-3.268923"><ele>164</ele><time>2022-04-15T10:12:24Z</time><name>PT684</name></trkpt>
<trkpt lat="52.973158" lon="-3.268926"><ele>163</ele><time>2022-04-15T10:12:25Z</time><name>PT685</name></trkpt>
<trkpt lat="52.973167" lon="-3.268929"><ele>162</ele><time>2022-04-15T10:12:26Z</time><name>PT686</name></trkpt>
<trkpt lat="52.973176" lon="-3.268933"><ele>162</ele><time>2022-04-15T10:12:27Z</time><name>PT687</name></trkpt>
<trkpt lat="52.973182" lon="-3.268936"><ele>162</ele><time>2022-04-15T10:12:28Z</time><name>PT688</name></trkpt>
<trkpt lat="52.973188" lon="-3.268937"><ele>161</ele><time>2022-04-15T10:12:29Z</time><name>PT689</name></trkpt>
<trkpt lat="52.973193" lon="-3.268938"><ele>161</ele><time>2022-04-15T10:12:30Z</time><name>PT690</name></trkpt>
<trkpt lat="52.973197" lon="-3.268943"><ele>160</ele><time>2022-04-15T10:12:31Z</time><name>PT691</name></trkpt>
<trkpt lat="52.973201" lon="-3.268945"><ele>160</ele><time>2022-04-15T10:12:32Z</time><name>PT692</name></trkpt>
<trkpt lat="52.973203" lon="-3.268947"><ele>159</ele><time>2022-04-15T10:12:33Z</time><name>PT693</name></trkpt>
<trkpt lat="52.973208" lon="-3.268948"><ele>159</ele><time>2022-04-15T10:12:34Z</time><name>PT694</name></trkpt>
<trkpt lat="52.973209" lon="-3.268952"><ele>158</ele><time>2022-04-15T10:12:35Z</time><name>PT695</name></trkpt>
<trkpt lat="52.973213" lon="-3.268953"><ele>158</ele><time>2022-04-15T10:12:36Z</time><name>PT696</name></trkpt>
<trkpt lat="52.973222" lon="-3.268959"><ele>158</ele><time>2022-04-15T10:12:37Z</time><name>PT697</name></trkpt>
<trkpt lat="52.973227" lon="-3.268963"><ele>158</ele><time>2022-04-15T10:12:38Z</time><name>PT698</name></trkpt>
<trkpt lat="52.973235" lon="-3.268966"><ele>159</ele><time>2022-04-15T10:12:39Z</time><name>PT699</name></trkpt>
<trkpt lat="52.973241" lon="-3.268970"><ele>158</ele><time>2022-04-15T10:12:40Z</time><name>PT700</name></trkpt>
<trkpt lat="52.973245" lon="-3.268974"><ele>158</ele><time>2022-04-15T10:12:41Z</time><name>PT701</name></trkpt>
<trkpt lat="52.973257" lon="-3.268975"><ele>159</ele><time>2022-04-15T10:12:42Z</time><name>PT702</name></trkpt>
<trkpt lat="52.973261" lon="-3.268976"><ele>159</ele><time>2022-04-15T10:12:43Z</time><name>PT703</name></trkpt>
<trkpt lat="52.973263" lon="-3.268977"><ele>159</ele><time>2022-04-15T10:12:44Z</time><name>PT704</name></trkpt>
<trkpt lat="52.973274" lon="-3.268984"><ele>160</ele><time>2022-04-15T10:12:45Z</time><name>PT705</name></trkpt>
<trkpt lat="52.973280" lon="-3.268990"><ele>160</ele><time>2022-04-15T10:12:46Z</time><name>PT706</name></trkpt>
<trkpt lat="52.973287" lon="-3.268990"><ele>160</ele><time>2022-04-15T10:12:47Z</time><name>PT707</name></trkpt>
<trkpt lat="52.973290" lon="-3.268994"><ele>160</ele><time>2022-04-15T10:12:48Z</time><name>PT708</name></trkpt>
<trkpt lat="52.973298" lon="-3.268998"><ele>161</ele><time>2022-04-15T10:12:49Z</time><name>PT709</name></trkpt>
<trkpt lat="52.973311" lon="-3.269000"><ele>162</ele><time>2022-04-15T10:12:50Z</time><name>PT710</name></trkpt>
<trkpt lat="52.973320" lon="-3.269002"><ele>162</ele><time>2022-04-15T10:12:51Z</time><name>PT711</name></trkpt>
<trkpt lat="52.973329" lon="-3.269006"><ele>163</ele><time>2022-04-15T10:12:52Z</time><name>PT712</name></trkpt>
<trkpt lat="52.973340" lon="-3.268996"><ele>161</ele><time>2022-04-15T10:12:59Z</time><name>PT713</name></trkpt>
<trkpt lat="52.973363" lon="-3.269013"><ele>160</ele><time>2022-04-15T10:13:00Z</time><name>PT714</name></trkpt>
<trkpt lat="52.973369" lon="-3.269025"><ele>160</ele><time>2022-04-15T10:13:01Z</time><name>PT715</name></trkpt>
<trkpt lat="52.973376" lon="-3.269031"><ele>159</ele><time>2022-04-15T10:13:02Z</time><name>PT716</name></trkpt>
<trkpt lat="52.973385" lon="-3.269044"><ele>160</ele><time>2022-04-15T10:13:03Z</time><name>PT717</name></trkpt>
<trkpt lat="52.973391" lon="-3.269055"><ele>160</ele><time>2022-04-15T10:13:04Z</time><name>PT718</name></trkpt>
<trkpt lat="52.973395" lon="-3.269065"><ele>160</ele><time>2022-04-15T10:13:05Z</time><name>PT719</name></trkpt>
<trkpt lat="52.973404" lon="-3.269072"><ele>160</ele><time>2022-04-15T10:13:06Z</time><name>PT720</name></trkpt>
<trkpt lat="52.973413" lon="-3.269079"><ele>159</ele><time>2022-04-15T10:13:07Z</time><name>PT721</name></trkpt>
<trkpt lat="52.973417" lon="-3.269085"><ele>159</ele><time>2022-04-15T10:13:08Z</time><name>PT722</name></trkpt>
<trkpt lat="52.973420" lon="-3.269087"><ele>159</ele><time>2022-04-15T10:13:09Z</time><name>PT723</name></trkpt>
<trkpt lat="52.973426" lon="-3.269095"><ele>158</ele><time>2022-04-15T10:13:10Z</time><name>PT724</name></trkpt>
<trkpt lat="52.973428" lon="-3.269097"><ele>157</ele><time>2022-04-15T10:13:11Z</time><name>PT725</name></trkpt>
<trkpt lat="52.973435" lon="-3.269083"><ele>157</ele><time>2022-04-15T10:13:12Z</time><name>PT726</name></trkpt>
<trkpt lat="52.973440" lon="-3.269087"><ele>157</ele><time>2022-04-15T10:13:13Z</time><name>PT727</name></trkpt>
<trkpt lat="52.973443" lon="-3.269076"><ele>158</ele><time>2022-04-15T10:13:14Z</time><name>PT728</name></trkpt>
<trkpt lat="52.973475" lon="-3.269099"><ele>158</ele><time>2022-04-15T10:13:42Z</time><name>PT729</name></trkpt>
<trkpt lat="52.973486" lon="-3.269098"><ele>158</ele><time>2022-04-15T10:13:43Z</time><name>PT730</name></trkpt>
<trkpt lat="52.973498" lon="-3.269078"><ele>159</ele><time>2022-04-15T10:13:44Z</time><name>PT731</name></trkpt>
<trkpt lat="52.973508" lon="-3.269098"><ele>159</ele><time>2022-04-15T10:13:45Z</time><name>PT732</name></trkpt>
<trkpt lat="52.973515" lon="-3.269105"><ele>159</ele><time>2022-04-15T10:13:46Z</time><name>PT733</name></trkpt>
<trkpt lat="52.973525" lon="-3.269108"><ele>160</ele><time>2022-04-15T10:13:47Z</time><name>PT734</name></trkpt>
<trkpt lat="52.973529" lon="-3.269114"><ele>161</ele><time>2022-04-15T10:13:48Z</time><name>PT735</name></trkpt>
<trkpt lat="52.973530" lon="-3.269118"><ele>161</ele><time>2022-04-15T10:13:49Z</time><name>PT736</name></trkpt>
<trkpt lat="52.973530" lon="-3.269117"><ele>161</ele><time>2022-04-15T10:13:50Z</time><name>PT737</name></trkpt>
<trkpt lat="52.973533" lon="-3.269119"><ele>162</ele><time>2022-04-15T10:13:51Z</time><name>PT738</name></trkpt>
<trkpt lat="52.973536" lon="-3.269120"><ele>162</ele><time>2022-04-15T10:13:52Z</time><name>PT739</name></trkpt>
<trkpt lat="52.973541" lon="-3.269123"><ele>162</ele><time>2022-04-15T10:13:53Z</time><name>PT740</name></trkpt>
<trkpt lat="52.973545" lon="-3.269121"><ele>162</ele><time>2022-04-15T10:13:55Z</time><name>PT741</name></trkpt>
<trkpt lat="52.973558" lon="-3.269133"><ele>162</ele><time>2022-04-15T10:13:56Z</time><name>PT742</name></trkpt>
<trkpt lat="52.973559" lon="-3.269135"><ele>162</ele><time>2022-04-15T10:13:57Z</time><name>PT743</name></trkpt>
<trkpt lat="52.973558" lon="-3.269126"><ele>163</ele><time>2022-04-15T10:13:58Z</time><name>PT744</name></trkpt>
<trkpt lat="52.973556" lon="-3.269121"><ele>163</ele><time>2022-04-15T10:13:59Z</time><name>PT745</name></trkpt>
<trkpt lat="52.973558" lon="-3.269114"><ele>162</ele><time>2022-04-15T10:14:02Z</time><name>PT746</name></trkpt>
<trkpt lat="52.973560" lon="-3.269111"><ele>161</ele><time>2022-04-15T10:14:03Z</time><name>PT747</name></trkpt>
<trkpt lat="52.973556" lon="-3.269107"><ele>160</ele><time>2022-04-15T10:14:04Z</time><name>PT748</name></trkpt>
<trkpt lat="52.973557" lon="-3.269112"><ele>160</ele><time>2022-04-15T10:14:05Z</time><name>PT749</name></trkpt>
<trkpt lat="52.973557" lon="-3.269118"><ele>160</ele><time>2022-04-15T10:14:06Z</time><name>PT750</name></trkpt>
<trkpt lat="52.973562" lon="-3.269123"><ele>159</ele><time>2022-04-15T10:14:07Z</time><name>PT751</name></trkpt>
<trkpt lat="52.973565" lon="-3.269124"><ele>159</ele><time>2022-04-15T10:14:08Z</time><name>PT752</name></trkpt>
<trkpt lat="52.973571" lon="-3.269123"><ele>159</ele><time>2022-04-15T10:14:09Z</time><name>PT753</name></trkpt>
<trkpt lat="52.973574" lon="-3.269123"><ele>158</ele><time>2022-04-15T10:14:10Z</time><name>PT754</name></trkpt>
<trkpt lat="52.973579" lon="-3.269155"><ele>157</ele><time>2022-04-15T10:14:11Z</time><name>PT755</name></trkpt>
<trkpt lat="52.973575" lon="-3.269162"><ele>156</ele><time>2022-04-15T10:14:12Z</time><name>PT756</name></trkpt>
<trkpt lat="52.973574" lon="-3.269168"><ele>156</ele><time>2022-04-15T10:14:13Z</time><name>PT757</name></trkpt>
<trkpt lat="52.973567" lon="-3.269173"><ele>155</ele><time>2022-04-15T10:14:14Z</time><name>PT758</name></trkpt>
<trkpt lat="52.973559" lon="-3.269178"><ele>154</ele><time>2022-04-15T10:14:15Z</time><name>PT759</name></trkpt>
<trkpt lat="52.973553" lon="-3.269179"><ele>155</ele><time>2022-04-15T10:14:16Z</time><name>PT760</name></trkpt>
<trkpt lat="52.973545" lon="-3.269185"><ele>154</ele><time>2022-04-15T10:14:17Z</time><name>PT761</name></trkpt>
<trkpt lat="52.973533" lon="-3.269193"><ele>154</ele><time>2022-04-15T10:14:18Z</time><name>PT762</name></trkpt>
<trkpt lat="52.973523" lon="-3.269197"><ele>153</ele><time>2022-04-15T10:14:19Z</time><name>PT763</name></trkpt>
<trkpt lat="52.973515" lon="-3.269195"><ele>152</ele><time>2022-04-15T10:14:20Z</time><name>PT764</name></trkpt>
<trkpt lat="52.973503" lon="-3.269204"><ele>153</ele><time>2022-04-15T10:14:21Z</time><name>PT765</name></trkpt>
<trkpt lat="52.973493" lon="-3.269211"><ele>153</ele><time>2022-04-15T10:14:22Z</time><name>PT766</name></trkpt>
<trkpt lat="52.973486" lon="-3.269210"><ele>154</ele><time>2022-04-15T10:14:23Z</time><name>PT767</name></trkpt>
<trkpt lat="52.973479" lon="-3.269214"><ele>152</ele><time>2022-04-15T10:14:24Z</time><name>PT768</name></trkpt>
<trkpt lat="52.973469" lon="-3.269200"><ele>152</ele><time>2022-04-15T10:14:25Z</time><name>PT769</name></trkpt>
<trkpt lat="52.973458" lon="-3.269197"><ele>151</ele><time>2022-04-15T10:14:26Z</time><name>PT770</name></trkpt>
<trkpt lat="52.973446" lon="-3.269204"><ele>151</ele><time>2022-04-15T10:14:27Z</time><name>PT771</name></trkpt>
<trkpt lat="52.973437" lon="-3.269206"><ele>151</ele><time>2022-04-15T10:14:28Z</time><name>PT772</name></trkpt>
<trkpt lat="52.973430" lon="-3.269208"><ele>151</ele><time>2022-04-15T10:14:29Z</time><name>PT773</name></trkpt>
<trkpt lat="52.973418" lon="-3.269217"><ele>151</ele><time>2022-04-15T10:14:30Z</time><name>PT774</name></trkpt>
<trkpt lat="52.973407" lon="-3.269222"><ele>150</ele><time>2022-04-15T10:14:31Z</time><name>PT775</name></trkpt>
<trkpt lat="52.973391" lon="-3.269230"><ele>152</ele><time>2022-04-15T10:14:32Z</time><name>PT776</name></trkpt>
<trkpt lat="52.973374" lon="-3.269223"><ele>153</ele><time>2022-04-15T10:14:33Z</time><name>PT777</name></trkpt>
<trkpt lat="52.973369" lon="-3.269222"><ele>154</ele><time>2022-04-15T10:14:34Z</time><name>PT778</name></trkpt>
<trkpt lat="52.973366" lon="-3.269207"><ele>154</ele><time>2022-04-15T10:14:35Z</time><name>PT779</name></trkpt>
<trkpt lat="52.973358" lon="-3.269206"><ele>155</ele><time>2022-04-15T10:14:36Z</time><name>PT780</name></trkpt>
<trkpt lat="52.973345" lon="-3.269218"><ele>155</ele><time>2022-04-15T10:14:37Z</time><name>PT781</name></trkpt>
<trkpt lat="52.973330" lon="-3.269225"><ele>155</ele><time>2022-04-15T10:14:38Z</time><name>PT782</name></trkpt>
<trkpt lat="52.973314" lon="-3.269232"><ele>155</ele><time>2022-04-15T10:14:39Z</time><name>PT783</name></trkpt>
<trkpt lat="52.973302" lon="-3.269233"><ele>154</ele><time>2022-04-15T10:14:40Z</time><name>PT784</name></trkpt>
<trkpt lat="52.973284" lon="-3.269231"><ele>154</ele><time>2022-04-15T10:14:41Z</time><name>PT785</name></trkpt>
<trkpt lat="52.973272" lon="-3.269235"><ele>154</ele><time>2022-04-15T10:14:42Z</time><name>PT786</name></trkpt>
<trkpt lat="52.973260" lon="-3.269237"><ele>155</ele><time>2022-04-15T10:14:43Z</time><name>PT787</name></trkpt>
<trkpt lat="52.973248" lon="-3.269242"><ele>154</ele><time>2022-04-15T10:14:44Z</time><name>PT788</name></trkpt>
<trkpt lat="52.973241" lon="-3.269243"><ele>153</ele><time>2022-04-15T10:14:45Z</time><name>PT789</name></trkpt>
<trkpt lat="52.973228" lon="-3.269247"><ele>153</ele><time>2022-04-15T10:14:46Z</time><name>PT790</name></trkpt>
<trkpt lat="52.973218" lon="-3.269240"><ele>152</ele><time>2022-04-15T10:14:47Z</time><name>PT791</name></trkpt>
<trkpt lat="52.973204" lon="-3.269243"><ele>153</ele><time>2022-04-15T10:14:48Z</time><name>PT792</name></trkpt>
<trkpt lat="52.973195" lon="-3.269241"><ele>153</ele><time>2022-04-15T10:14:49Z</time><name>PT793</name></trkpt>
<trkpt lat="52.973187" lon="-3.269237"><ele>152</ele><time>2022-04-15T10:14:50Z</time><name>PT794</name></trkpt>
<trkpt lat="52.973179" lon="-3.269236"><ele>151</ele><time>2022-04-15T10:14:51Z</time><name>PT795</name></trkpt>
<trkpt lat="52.973172" lon="-3.269240"><ele>150</ele><time>2022-04-15T10:14:52Z</time><name>PT796</name></trkpt>
<trkpt lat="52.973164" lon="-3.269249"><ele>150</ele><time>2022-04-15T10:14:53Z</time><name>PT797</name></trkpt>
<trkpt lat="52.973153" lon="-3.269261"><ele>150</ele><time>2022-04-15T10:14:54Z</time><name>PT798</name></trkpt>
<trkpt lat="52.973147" lon="-3.269256"><ele>150</ele><time>2022-04-15T10:14:55Z</time><name>PT799</name></trkpt>
<trkpt lat="52.973147" lon="-3.269256"><ele>149</ele><time>2022-04-15T10:14:56Z</time><name>PT800</name></trkpt>
<trkpt lat="52.973142" lon="-3.269258"><ele>149</ele><time>2022-04-15T10:14:57Z</time><name>PT801</name></trkpt>
<trkpt lat="52.973138" lon="-3.269253"><ele>147</ele><time>2022-04-15T10:14:58Z</time><name>PT802</name></trkpt>
<trkpt lat="52.973131" lon="-3.269248"><ele>147</ele><time>2022-04-15T10:14:59Z</time><name>PT803</name></trkpt>
<trkpt lat="52.973124" lon="-3.269252"><ele>147</ele><time>2022-04-15T10:15:00Z</time><name>PT804</name></trkpt>
<trkpt lat="52.973116" lon="-3.269253"><ele>147</ele><time>2022-04-15T10:15:01Z</time><name>PT805</name></trkpt>
<trkpt lat="52.973106" lon="-3.269252"><ele>147</ele><time>2022-04-15T10:15:02Z</time><name>PT806</name></trkpt>
<trkpt lat="52.973100" lon="-3.269250"><ele>147</ele><time>2022-04-15T10:15:03Z</time><name>PT807</name></trkpt>
<trkpt lat="52.973091" lon="-3.269245"><ele>148</ele><time>2022-04-15T10:15:04Z</time><name>PT808</name></trkpt>
<trkpt lat="52.973087" lon="-3.269245"><ele>147</ele><time>2022-04-15T10:15:07Z</time><name>PT809</name></trkpt>
<trkpt lat="52.973065" lon="-3.269245"><ele>147</ele><time>2022-04-15T10:15:08Z</time><name>PT810</name></trkpt>
<trkpt lat="52.973053" lon="-3.269252"><ele>147</ele><time>2022-04-15T10:15:09Z</time><name>PT811</name></trkpt>
<trkpt lat="52.973035" lon="-3.269259"><ele>146</ele><time>2022-04-15T10:15:10Z</time><name>PT812</name></trkpt>
<trkpt lat="52.973023" lon="-3.269257"><ele>146</ele><time>2022-04-15T10:15:11Z</time><name>PT813</name></trkpt>
<trkpt lat="52.973005" lon="-3.269274"><ele>146</ele><time>2022-04-15T10:15:12Z</time><name>PT814</name></trkpt>
<trkpt lat="52.972999" lon="-3.269278"><ele>145</ele><time>2022-04-15T10:15:13Z</time><name>PT815</name></trkpt>
<trkpt lat="52.972986" lon="-3.269279"><ele>145</ele><time>2022-04-15T10:15:14Z</time><name>PT816</name></trkpt>
<trkpt lat="52.972965" lon="-3.269292"><ele>145</ele><time>2022-04-15T10:15:15Z</time><name>PT817</name></trkpt>
<trkpt lat="52.972951" lon="-3.269292"><ele>147</ele><time>2022-04-15T10:15:16Z</time><name>PT818</name></trkpt>
<trkpt lat="52.972942" lon="-3.269291"><ele>145</ele><time>2022-04-15T10:15:17Z</time><name>PT819</name></trkpt>
<trkpt lat="52.972936" lon="-3.269295"><ele>145</ele><time>2022-04-15T10:15:18Z</time><name>PT820</name></trkpt>
<trkpt lat="52.972928" lon="-3.269303"><ele>145</ele><time>2022-04-15T10:15:19Z</time><name>PT821</name></trkpt>
<trkpt lat="52.972913" lon="-3.269334"><ele>146</ele><time>2022-04-15T10:15:20Z</time><name>PT822</name></trkpt>
<trkpt lat="52.972900" lon="-3.269340"><ele>147</ele><time>2022-04-15T10:15:21Z</time><name>PT823</name></trkpt>
<trkpt lat="52.972888" lon="-3.269332"><ele>147</ele><time>2022-04-15T10:15:22Z</time><name>PT824</name></trkpt>
<trkpt lat="52.972878" lon="-3.269321"><ele>149</ele><time>2022-04-15T10:15:23Z</time><name>PT825</name></trkpt>
<trkpt lat="52.972868" lon="-3.269323"><ele>149</ele><time>2022-04-15T10:15:24Z</time><name>PT826</name></trkpt>
<trkpt lat="52.972857" lon="-3.269335"><ele>149</ele><time>2022-04-15T10:15:25Z</time><name>PT827</name></trkpt>
<trkpt lat="52.972845" lon="-3.269350"><ele>149</ele><time>2022-04-15T10:15:26Z</time><name>PT828</name></trkpt>
<trkpt lat="52.972833" lon="-3.269351"><ele>149</ele><time>2022-04-15T10:15:27Z</time><name>PT829</name></trkpt>
<trkpt lat="52.972818" lon="-3.269353"><ele>151</ele><time>2022-04-15T10:15:28Z</time><name>PT830</name></trkpt>
<trkpt lat="52.972808" lon="-3.269370"><ele>152</ele><time>2022-04-15T10:15:29Z</time><name>PT831</name></trkpt>
<trkpt lat="52.972796" lon="-3.269393"><ele>153</ele><time>2022-04-15T10:15:30Z</time><name>PT832</name></trkpt>
<trkpt lat="52.972786" lon="-3.269400"><ele>153</ele><time>2022-04-15T10:15:31Z</time><name>PT833</name></trkpt>
<trkpt lat="52.972770" lon="-3.269405"><ele>154</ele><time>2022-04-15T10:15:32Z</time><name>PT834</name></trkpt>
<trkpt lat="52.972758" lon="-3.269405"><ele>154</ele><time>2022-04-15T10:15:33Z</time><name>PT835</name></trkpt>
<trkpt lat="52.972747" lon="-3.269418"><ele>155</ele><time>2022-04-15T10:15:34Z</time><name>PT836</name></trkpt>
<trkpt lat="52.972739" lon="-3.269425"><ele>154</ele><time>2022-04-15T10:15:35Z</time><name>PT837</name></trkpt>
<trkpt lat="52.972730" lon="-3.269432"><ele>154</ele><time>2022-04-15T10:15:36Z</time><name>PT838</name></trkpt>
<trkpt lat="52.972721" lon="-3.269443"><ele>154</ele><time>2022-04-15T10:15:37Z</time><name>PT839</name></trkpt>
<trkpt lat="52.972708" lon="-3.269450"><ele>155</ele><time>2022-04-15T10:15:38Z</time><name>PT840</name></trkpt>
<trkpt lat="52.972698" lon="-3.269458"><ele>155</ele><time>2022-04-15T10:15:39Z</time><name>PT841</name></trkpt>
<trkpt lat="52.972688" lon="-3.269467"><ele>155</ele><time>2022-04-15T10:15:40Z</time><name>PT842</name></trkpt>
<trkpt lat="52.972678" lon="-3.269473"><ele>156</ele><time>2022-04-15T10:15:41Z</time><name>PT843</name></trkpt>
<trkpt lat="52.972671" lon="-3.269474"><ele>156</ele><time>2022-04-15T10:15:42Z</time><name>PT844</name></trkpt>
<trkpt lat="52.972661" lon="-3.269473"><ele>156</ele><time>2022-04-15T10:15:43Z</time><name>PT845</name></trkpt>
<trkpt lat="52.972656" lon="-3.269470"><ele>156</ele><time>2022-04-15T10:15:44Z</time><name>PT846</name></trkpt>
<trkpt lat="52.972650" lon="-3.269470"><ele>157</ele><time>2022-04-15T10:15:45Z</time><name>PT847</name></trkpt>
<trkpt lat="52.972642" lon="-3.269477"><ele>157</ele><time>2022-04-15T10:15:46Z</time><name>PT848</name></trkpt>
<trkpt lat="52.972629" lon="-3.269469"><ele>156</ele><time>2022-04-15T10:15:48Z</time><name>PT849</name></trkpt>
<trkpt lat="52.972616" lon="-3.269470"><ele>156</ele><time>2022-04-15T10:15:49Z</time><name>PT850</name></trkpt>
<trkpt lat="52.972564" lon="-3.269485"><ele>155</ele><time>2022-04-15T10:15:53Z</time><name>PT851</name></trkpt>
<trkpt lat="52.972535" lon="-3.269491"><ele>155</ele><time>2022-04-15T10:15:56Z</time><name>PT852</name></trkpt>
<trkpt lat="52.972499" lon="-3.269510"><ele>155</ele><time>2022-04-15T10:16:00Z</time><name>PT853</name></trkpt>
<trkpt lat="52.972469" lon="-3.269518"><ele>156</ele><time>2022-04-15T10:16:03Z</time><name>PT854</name></trkpt>
<trkpt lat="52.972429" lon="-3.269534"><ele>156</ele><time>2022-04-15T10:16:07Z</time><name>PT855</name></trkpt>
<trkpt lat="52.972406" lon="-3.269561"><ele>157</ele><time>2022-04-15T10:16:10Z</time><name>PT856</name></trkpt>
<trkpt lat="52.972377" lon="-3.269578"><ele>157</ele><time>2022-04-15T10:16:13Z</time><name>PT857</name></trkpt>
<trkpt lat="52.972344" lon="-3.269606"><ele>157</ele><time>2022-04-15T10:16:17Z</time><name>PT858</name></trkpt>
<trkpt lat="52.972303" lon="-3.269645"><ele>158</ele><time>2022-04-15T10:16:21Z</time><name>PT859</name></trkpt>
<trkpt lat="52.972258" lon="-3.269696"><ele>159</ele><time>2022-04-15T10:16:25Z</time><name>PT860</name></trkpt>
<trkpt lat="52.972221" lon="-3.269734"><ele>160</ele><time>2022-04-15T10:16:29Z</time><name>PT861</name></trkpt>
<trkpt lat="52.972192" lon="-3.269754"><ele>159</ele><time>2022-04-15T10:16:32Z</time><name>PT862</name></trkpt>
<trkpt lat="52.972159" lon="-3.269800"><ele>159</ele><time>2022-04-15T10:16:36Z</time><name>PT863</name></trkpt>
<trkpt lat="52.972119" lon="-3.269835"><ele>161</ele><time>2022-04-15T10:16:39Z</time><name>PT864</name></trkpt>
<trkpt lat="52.972068" lon="-3.269871"><ele>164</ele><time>2022-04-15T10:16:43Z</time><name>PT865</name></trkpt>
<trkpt lat="52.972024" lon="-3.269927"><ele>166</ele><time>2022-04-15T10:16:47Z</time><name>PT866</name></trkpt>
<trkpt lat="52.971998" lon="-3.269949"><ele>166</ele><time>2022-04-15T10:16:50Z</time><name>PT867</name></trkpt>
<trkpt lat="52.971969" lon="-3.269970"><ele>168</ele><time>2022-04-15T10:16:53Z</time><name>PT868</name></trkpt>
<trkpt lat="52.971928" lon="-3.270006"><ele>170</ele><time>2022-04-15T10:16:57Z</time><name>PT869</name></trkpt>
<trkpt lat="52.971893" lon="-3.270020"><ele>169</ele><time>2022-04-15T10:17:01Z</time><name>PT870</name></trkpt>
<trkpt lat="52.971849" lon="-3.270026"><ele>170</ele><time>2022-04-15T10:17:05Z</time><name>PT871</name></trkpt>
<trkpt lat="52.971817" lon="-3.270021"><ele>171</ele><time>2022-04-15T10:17:09Z</time><name>PT872</name></trkpt>
<trkpt lat="52.971786" lon="-3.270015"><ele>172</ele><time>2022-04-15T10:17:12Z</time><name>PT873</name></trkpt>
<trkpt lat="52.971738" lon="-3.269985"><ele>173</ele><time>2022-04-15T10:17:16Z</time><name>PT874</name></trkpt>
<trkpt lat="52.971709" lon="-3.269963"><ele>174</ele><time>2022-04-15T10:17:20Z</time><name>PT875</name></trkpt>
<trkpt lat="52.971673" lon="-3.269920"><ele>175</ele><time>2022-04-15T10:17:23Z</time><name>PT876</name></trkpt>
<trkpt lat="52.971648" lon="-3.269899"><ele>175</ele><time>2022-04-15T10:17:26Z</time><name>PT877</name></trkpt>
<trkpt lat="52.971599" lon="-3.269891"><ele>176</ele><time>2022-04-15T10:17:30Z</time><name>PT878</name></trkpt>
<trkpt lat="52.971554" lon="-3.269879"><ele>179</ele><time>2022-04-15T10:17:33Z</time><name>PT879</name></trkpt>
<trkpt lat="52.971492" lon="-3.269841"><ele>182</ele><time>2022-04-15T10:17:37Z</time><name>PT880</name></trkpt>
<trkpt lat="52.971449" lon="-3.269839"><ele>183</ele><time>2022-04-15T10:17:40Z</time><name>PT881</name></trkpt>
<trkpt lat="52.971414" lon="-3.269831"><ele>184</ele><time>2022-04-15T10:17:43Z</time><name>PT882</name></trkpt>
<trkpt lat="52.971365" lon="-3.269825"><ele>183</ele><time>2022-04-15T10:17:47Z</time><name>PT883</name></trkpt>
<trkpt lat="52.971324" lon="-3.269828"><ele>185</ele><time>2022-04-15T10:17:51Z</time><name>PT884</name></trkpt>
<trkpt lat="52.971271" lon="-3.269815"><ele>186</ele><time>2022-04-15T10:17:55Z</time><name>PT885</name></trkpt>
<trkpt lat="52.971218" lon="-3.269793"><ele>190</ele><time>2022-04-15T10:17:59Z</time><name>PT886</name></trkpt>
<trkpt lat="52.971171" lon="-3.269773"><ele>187</ele><time>2022-04-15T10:18:03Z</time><name>PT887</name></trkpt>
<trkpt lat="52.971144" lon="-3.269804"><ele>184</ele><time>2022-04-15T10:18:07Z</time><name>PT888</name></trkpt>
<trkpt lat="52.971106" lon="-3.269846"><ele>186</ele><time>2022-04-15T10:18:10Z</time><name>PT889</name></trkpt>
<trkpt lat="52.971060" lon="-3.269853"><ele>187</ele><time>2022-04-15T10:18:14Z</time><name>PT890</name></trkpt>
<trkpt lat="52.971026" lon="-3.269869"><ele>187</ele><time>2022-04-15T10:18:18Z</time><name>PT891</name></trkpt>
<trkpt lat="52.970982" lon="-3.269873"><ele>187</ele><time>2022-04-15T10:18:22Z</time><name>PT892</name></trkpt>
<trkpt lat="52.970947" lon="-3.269857"><ele>185</ele><time>2022-04-15T10:18:26Z</time><name>PT893</name></trkpt>
<trkpt lat="52.970905" lon="-3.269873"><ele>185</ele><time>2022-04-15T10:18:30Z</time><name>PT894</name></trkpt>
<trkpt lat="52.970889" lon="-3.269919"><ele>185</ele><time>2022-04-15T10:18:34Z</time><name>PT895</name></trkpt>
<trkpt lat="52.970876" lon="-3.269969"><ele>187</ele><time>2022-04-15T10:18:37Z</time><name>PT896</name></trkpt>
<trkpt lat="52.970875" lon="-3.269994"><ele>185</ele><time>2022-04-15T10:18:40Z</time><name>PT897</name></trkpt>
<trkpt lat="52.970867" lon="-3.270016"><ele>185</ele><time>2022-04-15T10:18:43Z</time><name>PT898</name></trkpt>
<trkpt lat="52.970842" lon="-3.270037"><ele>186</ele><time>2022-04-15T10:18:46Z</time><name>PT899</name></trkpt>
<trkpt lat="52.970811" lon="-3.270046"><ele>185</ele><time>2022-04-15T10:18:50Z</time><name>PT900</name></trkpt>
<trkpt lat="52.970795" lon="-3.270037"><ele>185</ele><time>2022-04-15T10:18:53Z</time><name>PT901</name></trkpt>
<trkpt lat="52.970759" lon="-3.269966"><ele>182</ele><time>2022-04-15T10:18:59Z</time><name>PT902</name></trkpt>
<trkpt lat="52.970717" lon="-3.269931"><ele>182</ele><time>2022-04-15T10:19:03Z</time><name>PT903</name></trkpt>
<trkpt lat="52.970687" lon="-3.269897"><ele>181</ele><time>2022-04-15T10:19:06Z</time><name>PT904</name></trkpt>
<trkpt lat="52.970669" lon="-3.269864"><ele>181</ele><time>2022-04-15T10:19:10Z</time><name>PT905</name></trkpt>
<trkpt lat="52.970663" lon="-3.269845"><ele>180</ele><time>2022-04-15T10:19:16Z</time><name>PT906</name></trkpt>
<trkpt lat="52.970633" lon="-3.269799"><ele>179</ele><time>2022-04-15T10:19:19Z</time><name>PT907</name></trkpt>
<trkpt lat="52.970590" lon="-3.269754"><ele>179</ele><time>2022-04-15T10:19:23Z</time><name>PT908</name></trkpt>
<trkpt lat="52.970562" lon="-3.269729"><ele>178</ele><time>2022-04-15T10:19:27Z</time><name>PT909</name></trkpt>
<trkpt lat="52.970531" lon="-3.269706"><ele>177</ele><time>2022-04-15T10:19:31Z</time><name>PT910</name></trkpt>
<trkpt lat="52.970499" lon="-3.269697"><ele>177</ele><time>2022-04-15T10:19:35Z</time><name>PT911</name></trkpt>
<trkpt lat="52.970465" lon="-3.269702"><ele>178</ele><time>2022-04-15T10:19:38Z</time><name>PT912</name></trkpt>
<trkpt lat="52.970446" lon="-3.269689"><ele>177</ele><time>2022-04-15T10:19:42Z</time><name>PT913</name></trkpt>
<trkpt lat="52.970441" lon="-3.269686"><ele>178</ele><time>2022-04-15T10:19:45Z</time><name>PT914</name></trkpt>
<trkpt lat="52.970428" lon="-3.269690"><ele>177</ele><time>2022-04-15T10:19:49Z</time><name>PT915</name></trkpt>
<trkpt lat="52.970388" lon="-3.269691"><ele>177</ele><time>2022-04-15T10:19:53Z</time><name>PT916</name></trkpt>
<trkpt lat="52.970322" lon="-3.269717"><ele>177</ele><time>2022-04-15T10:20:09Z</time><name>PT917</name></trkpt>
<trkpt lat="52.970274" lon="-3.269730"><ele>175</ele><time>2022-04-15T10:20:13Z</time><name>PT918</name></trkpt>
<trkpt lat="52.970247" lon="-3.269743"><ele>174</ele><time>2022-04-15T10:20:16Z</time><name>PT919</name></trkpt>
<trkpt lat="52.970204" lon="-3.269743"><ele>173</ele><time>2022-04-15T10:20:20Z</time><name>PT920</name></trkpt>
<trkpt lat="52.970177" lon="-3.269741"><ele>173</ele><time>2022-04-15T10:20:23Z</time><name>PT921</name></trkpt>
<trkpt lat="52.970148" lon="-3.269730"><ele>172</ele><time>2022-04-15T10:20:26Z</time><name>PT922</name></trkpt>
<trkpt lat="52.970105" lon="-3.269706"><ele>174</ele><time>2022-04-15T10:20:30Z</time><name>PT923</name></trkpt>
<trkpt lat="52.970078" lon="-3.269686"><ele>174</ele><time>2022-04-15T10:20:33Z</time><name>PT924</name></trkpt>
<trkpt lat="52.970040" lon="-3.269680"><ele>176</ele><time>2022-04-15T10:20:37Z</time><name>PT925</name></trkpt>
<trkpt lat="52.969998" lon="-3.269665"><ele>179</ele><time>2022-04-15T10:20:41Z</time><name>PT926</name></trkpt>
<trkpt lat="52.969966" lon="-3.269648"><ele>179</ele><time>2022-04-15T10:20:44Z</time><name>PT927</name></trkpt>
<trkpt lat="52.969935" lon="-3.269631"><ele>180</ele><time>2022-04-15T10:20:47Z</time><name>PT928</name></trkpt>
<trkpt lat="52.969886" lon="-3.269623"><ele>182</ele><time>2022-04-15T10:20:51Z</time><name>PT929</name></trkpt>
<trkpt lat="52.969860" lon="-3.269622"><ele>182</ele><time>2022-04-15T10:20:54Z</time><name>PT930</name></trkpt>
<trkpt lat="52.969822" lon="-3.269626"><ele>184</ele><time>2022-04-15T10:20:58Z</time><name>PT931</name></trkpt>
<trkpt lat="52.969790" lon="-3.269631"><ele>185</ele><time>2022-04-15T10:21:01Z</time><name>PT932</name></trkpt>
<trkpt lat="52.969760" lon="-3.269639"><ele>184</ele><time>2022-04-15T10:21:04Z</time><name>PT933</name></trkpt>
<trkpt lat="52.969725" lon="-3.269638"><ele>185</ele><time>2022-04-15T10:21:08Z</time><name>PT934</name></trkpt>
<trkpt lat="52.969689" lon="-3.269633"><ele>184</ele><time>2022-04-15T10:21:12Z</time><name>PT935</name></trkpt>
<trkpt lat="52.969656" lon="-3.269634"><ele>185</ele><time>2022-04-15T10:21:15Z</time><name>PT936</name></trkpt>
<trkpt lat="52.969619" lon="-3.269634"><ele>186</ele><time>2022-04-15T10:21:19Z</time><name>PT937</name></trkpt>
<trkpt lat="52.969587" lon="-3.269642"><ele>187</ele><time>2022-04-15T10:21:23Z</time><name>PT938</name></trkpt>
<trkpt lat="52.969565" lon="-3.269642"><ele>188</ele><time>2022-04-15T10:21:26Z</time><name>PT939</name></trkpt>
<trkpt lat="52.969548" lon="-3.269653"><ele>188</ele><time>2022-04-15T10:21:29Z</time><name>PT940</name></trkpt>
<trkpt lat="52.969528" lon="-3.269632"><ele>189</ele><time>2022-04-15T10:21:33Z</time><name>PT941</name></trkpt>
<trkpt lat="52.969504" lon="-3.269625"><ele>189</ele><time>2022-04-15T10:21:36Z</time><name>PT942</name></trkpt>
<trkpt lat="52.969476" lon="-3.269612"><ele>188</ele><time>2022-04-15T10:21:40Z</time><name>PT943</name></trkpt>
<trkpt lat="52.969452" lon="-3.269597"><ele>188</ele><time>2022-04-15T10:21:43Z</time><name>PT944</name></trkpt>
<trkpt lat="52.969420" lon="-3.269609"><ele>190</ele><time>2022-04-15T10:21:46Z</time><name>PT945</name></trkpt>
<trkpt lat="52.969386" lon="-3.269590"><ele>190</ele><time>2022-04-15T10:21:50Z</time><name>PT946</name></trkpt>
<trkpt lat="52.969360" lon="-3.269580"><ele>191</ele><time>2022-04-15T10:21:53Z</time><name>PT947</name></trkpt>
<trkpt lat="52.969331" lon="-3.269578"><ele>192</ele><time>2022-04-15T10:21:56Z</time><name>PT948</name></trkpt>
<trkpt lat="52.969294" lon="-3.269574"><ele>193</ele><time>2022-04-15T10:22:00Z</time><name>PT949</name></trkpt>
<trkpt lat="52.969266" lon="-3.269572"><ele>194</ele><time>2022-04-15T10:22:03Z</time><name>PT950</name></trkpt>
<trkpt lat="52.969230" lon="-3.269574"><ele>194</ele><time>2022-04-15T10:22:07Z</time><name>PT951</name></trkpt>
<trkpt lat="52.969198" lon="-3.269568"><ele>195</ele><time>2022-04-15T10:22:11Z</time><name>PT952</name></trkpt>
<trkpt lat="52.969170" lon="-3.269577"><ele>196</ele><time>2022-04-15T10:22:14Z</time><name>PT953</name></trkpt>
<trkpt lat="52.969163" lon="-3.269580"><ele>197</ele><time>2022-04-15T10:22:17Z</time><name>PT954</name></trkpt>
<trkpt lat="52.969154" lon="-3.269563"><ele>195</ele><time>2022-04-15T10:22:20Z</time><name>PT955</name></trkpt>
<trkpt lat="52.969124" lon="-3.269548"><ele>194</ele><time>2022-04-15T10:22:24Z</time><name>PT956</name></trkpt>
<trkpt lat="52.969056" lon="-3.269492"><ele>193</ele><time>2022-04-15T10:22:28Z</time><name>PT957</name></trkpt>
<trkpt lat="52.969015" lon="-3.269487"><ele>193</ele><time>2022-04-15T10:22:31Z</time><name>PT958</name></trkpt>
<trkpt lat="52.968955" lon="-3.269468"><ele>193</ele><time>2022-04-15T10:22:35Z</time><name>PT959</name></trkpt>
<trkpt lat="52.968920" lon="-3.269465"><ele>193</ele><time>2022-04-15T10:22:39Z</time><name>PT960</name></trkpt>
<trkpt lat="52.968880" lon="-3.269462"><ele>193</ele><time>2022-04-15T10:22:42Z</time><name>PT961</name></trkpt>
<trkpt lat="52.968836" lon="-3.269444"><ele>193</ele><time>2022-04-15T10:22:46Z</time><name>PT962</name></trkpt>
<trkpt lat="52.968806" lon="-3.269450"><ele>193</ele><time>2022-04-15T10:22:49Z</time><name>PT963</name></trkpt>
<trkpt lat="52.968775" lon="-3.269434"><ele>193</ele><time>2022-04-15T10:22:52Z</time><name>PT964</name></trkpt>
<trkpt lat="52.968736" lon="-3.269437"><ele>194</ele><time>2022-04-15T10:22:56Z</time><name>PT965</name></trkpt>
<trkpt lat="52.968712" lon="-3.269437"><ele>194</ele><time>2022-04-15T10:22:59Z</time><name>PT966</name></trkpt>
<trkpt lat="52.968675" lon="-3.269435"><ele>194</ele><time>2022-04-15T10:23:03Z</time><name>PT967</name></trkpt>
<trkpt lat="52.968613" lon="-3.269472"><ele>193</ele><time>2022-04-15T10:23:17Z</time><name>PT968</name></trkpt>
<trkpt lat="52.968594" lon="-3.269485"><ele>192</ele><time>2022-04-15T10:23:21Z</time><name>PT969</name></trkpt>
<trkpt lat="52.968549" lon="-3.269514"><ele>192</ele><time>2022-04-15T10:23:28Z</time><name>PT970</name></trkpt>
<trkpt lat="52.968529" lon="-3.269543"><ele>190</ele><time>2022-04-15T10:23:31Z</time><name>PT971</name></trkpt>
<trkpt lat="52.968490" lon="-3.269573"><ele>191</ele><time>2022-04-15T10:23:35Z</time><name>PT972</name></trkpt>
<trkpt lat="52.968463" lon="-3.269583"><ele>191</ele><time>2022-04-15T10:23:38Z</time><name>PT973</name></trkpt>
<trkpt lat="52.968445" lon="-3.269599"><ele>190</ele><time>2022-04-15T10:23:42Z</time><name>PT974</name></trkpt>
<trkpt lat="52.968407" lon="-3.269605"><ele>189</ele><time>2022-04-15T10:23:45Z</time><name>PT975</name></trkpt>
<trkpt lat="52.968370" lon="-3.269630"><ele>190</ele><time>2022-04-15T10:23:48Z</time><name>PT976</name></trkpt>
<trkpt lat="52.968341" lon="-3.269617"><ele>189</ele><time>2022-04-15T10:23:52Z</time><name>PT977</name></trkpt>
<trkpt lat="52.968313" lon="-3.269613"><ele>188</ele><time>2022-04-15T10:23:56Z</time><name>PT978</name></trkpt>
<trkpt lat="52.968275" lon="-3.269632"><ele>188</ele><time>2022-04-15T10:24:00Z</time><name>PT979</name></trkpt>
<trkpt lat="52.968248" lon="-3.269650"><ele>188</ele><time>2022-04-15T10:24:03Z</time><name>PT980</name></trkpt>
<trkpt lat="52.968211" lon="-3.269655"><ele>188</ele><time>2022-04-15T10:24:07Z</time><name>PT981</name></trkpt>
<trkpt lat="52.968169" lon="-3.269667"><ele>188</ele><time>2022-04-15T10:24:11Z</time><name>PT982</name></trkpt>
<trkpt lat="52.968153" lon="-3.269664"><ele>188</ele><time>2022-04-15T10:24:14Z</time><name>PT983</name></trkpt>
<trkpt lat="52.968134" lon="-3.269639"><ele>188</ele><time>2022-04-15T10:24:18Z</time><name>PT984</name></trkpt>
<trkpt lat="52.968100" lon="-3.269640"><ele>189</ele><time>2022-04-15T10:24:22Z</time><name>PT985</name></trkpt>
<trkpt lat="52.968071" lon="-3.269616"><ele>193</ele><time>2022-04-15T10:24:26Z</time><name>PT986</name></trkpt>
<trkpt lat="52.968030" lon="-3.269579"><ele>195</ele><time>2022-04-15T10:24:30Z</time><name>PT987</name></trkpt>
<trkpt lat="52.967995" lon="-3.269575"><ele>196</ele><time>2022-04-15T10:24:34Z</time><name>PT988</name></trkpt>
<trkpt lat="52.967915" lon="-3.269558"><ele>197</ele><time>2022-04-15T10:24:37Z</time><name>PT989</name></trkpt>
<trkpt lat="52.967863" lon="-3.269544"><ele>199</ele><time>2022-04-15T10:24:41Z</time><name>PT990</name></trkpt>
<trkpt lat="52.967844" lon="-3.269536"><ele>199</ele><time>2022-04-15T10:24:45Z</time><name>PT991</name></trkpt>
<trkpt lat="52.967820" lon="-3.269559"><ele>203</ele><time>2022-04-15T10:24:48Z</time><name>PT992</name></trkpt>
<trkpt lat="52.967792" lon="-3.269584"><ele>207</ele><time>2022-04-15T10:24:52Z</time><name>PT993</name></trkpt>
<trkpt lat="52.967767" lon="-3.269607"><ele>209</ele><time>2022-04-15T10:24:55Z</time><name>PT994</name></trkpt>
<trkpt lat="52.967752" lon="-3.269618"><ele>209</ele><time>2022-04-15T10:24:58Z</time><name>PT995</name></trkpt>
<trkpt lat="52.967726" lon="-3.269637"><ele>210</ele><time>2022-04-15T10:25:02Z</time><name>PT996</name></trkpt>
<trkpt lat="52.967700" lon="-3.269657"><ele>212</ele><time>2022-04-15T10:25:05Z</time><name>PT997</name></trkpt>
<trkpt lat="52.967681" lon="-3.269671"><ele>214</ele><time>2022-04-15T10:25:09Z</time><name>PT998</name></trkpt>
<trkpt lat="52.967662" lon="-3.269706"><ele>215</ele><time>2022-04-15T10:25:13Z</time><name>PT999</name></trkpt>
<trkpt lat="52.967651" lon="-3.269725"><ele>218</ele><time>2022-04-15T10:25:16Z</time><name>PT1000</name></trkpt>
<trkpt lat="52.967618" lon="-3.269746"><ele>226</ele><time>2022-04-15T10:25:20Z</time><name>PT1001</name></trkpt>
<trkpt lat="52.967599" lon="-3.269762"><ele>225</ele><time>2022-04-15T10:25:23Z</time><name>PT1002</name></trkpt>
<trkpt lat="52.967583" lon="-3.269775"><ele>227</ele><time>2022-04-15T10:25:27Z</time><name>PT1003</name></trkpt>
<trkpt lat="52.967576" lon="-3.269762"><ele>227</ele><time>2022-04-15T10:25:31Z</time><name>PT1004</name></trkpt>
<trkpt lat="52.967545" lon="-3.269711"><ele>226</ele><time>2022-04-15T10:25:35Z</time><name>PT1005</name></trkpt>
<trkpt lat="52.967525" lon="-3.269668"><ele>225</ele><time>2022-04-15T10:25:39Z</time><name>PT1006</name></trkpt>
<trkpt lat="52.967503" lon="-3.269656"><ele>225</ele><time>2022-04-15T10:25:43Z</time><name>PT1007</name></trkpt>
<trkpt lat="52.967436" lon="-3.269649"><ele>223</ele><time>2022-04-15T10:25:47Z</time><name>PT1008</name></trkpt>
<trkpt lat="52.967425" lon="-3.269636"><ele>222</ele><time>2022-04-15T10:25:50Z</time><name>PT1009</name></trkpt>
<trkpt lat="52.967403" lon="-3.269637"><ele>222</ele><time>2022-04-15T10:25:57Z</time><name>PT1010</name></trkpt>
<trkpt lat="52.967397" lon="-3.269642"><ele>222</ele><time>2022-04-15T10:26:01Z</time><name>PT1011</name></trkpt>
<trkpt lat="52.967332" lon="-3.269711"><ele>224</ele><time>2022-04-15T10:26:12Z</time><name>PT1012</name></trkpt>
<trkpt lat="52.967317" lon="-3.269715"><ele>224</ele><time>2022-04-15T10:26:15Z</time><name>PT1013</name></trkpt>
<trkpt lat="52.967304" lon="-3.269719"><ele>223</ele><time>2022-04-15T10:26:18Z</time><name>PT1014</name></trkpt>
<trkpt lat="52.967267" lon="-3.269732"><ele>222</ele><time>2022-04-15T10:26:22Z</time><name>PT1015</name></trkpt>
<trkpt lat="52.967222" lon="-3.269731"><ele>220</ele><time>2022-04-15T10:26:25Z</time><name>PT1016</name></trkpt>
<trkpt lat="52.967215" lon="-3.269742"><ele>220</ele><time>2022-04-15T10:26:28Z</time><name>PT1017</name></trkpt>
<trkpt lat="52.967204" lon="-3.269738"><ele>220</ele><time>2022-04-15T10:26:52Z</time><name>PT1018</name></trkpt>
<trkpt lat="52.967221" lon="-3.269694"><ele>223</ele><time>2022-04-15T10:26:55Z</time><name>PT1019</name></trkpt>
<trkpt lat="52.967234" lon="-3.269677"><ele>223</ele><time>2022-04-15T10:27:18Z</time><name>PT1020</name></trkpt>
<trkpt lat="52.967235" lon="-3.269688"><ele>222</ele><time>2022-04-15T10:27:22Z</time><name>PT1021</name></trkpt>
<trkpt lat="52.967234" lon="-3.269692"><ele>222</ele><time>2022-04-15T10:28:23Z</time><name>PT1022</name></trkpt>
<trkpt lat="52.967232" lon="-3.269702"><ele>223</ele><time>2022-04-15T10:28:24Z</time><name>PT1023</name></trkpt>
<trkpt lat="52.967233" lon="-3.269707"><ele>223</ele><time>2022-04-15T10:28:25Z</time><name>PT1024</name></trkpt>
<trkpt lat="52.967234" lon="-3.269712"><ele>223</ele><time>2022-04-15T10:28:26Z</time><name>PT1025</name></trkpt>
<trkpt lat="52.967234" lon="-3.269716"><ele>223</ele><time>2022-04-15T10:28:27Z</time><name>PT1026</name></trkpt>
<trkpt lat="52.967235" lon="-3.269722"><ele>223</ele><time>2022-04-15T10:28:28Z</time><name>PT1027</name></trkpt>
<trkpt lat="52.967237" lon="-3.269704"><ele>223</ele><time>2022-04-15T10:28:32Z</time><name>PT1028</name></trkpt>
<trkpt lat="52.967241" lon="-3.269700"><ele>222</ele><time>2022-04-15T10:28:33Z</time><name>PT1029</name></trkpt>
<trkpt lat="52.967245" lon="-3.269718"><ele>223</ele><time>2022-04-15T10:28:34Z</time><name>PT1030</name></trkpt>
<trkpt lat="52.967249" lon="-3.269733"><ele>223</ele><time>2022-04-15T10:28:35Z</time><name>PT1031</name></trkpt>
<trkpt lat="52.967241" lon="-3.269742"><ele>223</ele><time>2022-04-15T10:29:57Z</time><name>PT1032</name></trkpt>
<trkpt lat="52.967228" lon="-3.269736"><ele>223</ele><time>2022-04-15T10:30:00Z</time><name>PT1033</name></trkpt>
<trkpt lat="52.967216" lon="-3.269734"><ele>223</ele><time>2022-04-15T10:30:01Z</time><name>PT1034</name></trkpt>
<trkpt lat="52.967205" lon="-3.269733"><ele>223</ele><time>2022-04-15T10:30:02Z</time><name>PT1035</name></trkpt>
<trkpt lat="52.967200" lon="-3.269738"><ele>224</ele><time>2022-04-15T10:30:03Z</time><name>PT1036</name></trkpt>
<trkpt lat="52.967192" lon="-3.269735"><ele>224</ele><time>2022-04-15T10:30:04Z</time><name>PT1037</name></trkpt>
<trkpt lat="52.967179" lon="-3.269727"><ele>225</ele><time>2022-04-15T10:30:05Z</time><name>PT1038</name></trkpt>
<trkpt lat="52.967169" lon="-3.269725"><ele>226</ele><time>2022-04-15T10:30:06Z</time><name>PT1039</name></trkpt>
<trkpt lat="52.967165" lon="-3.269720"><ele>226</ele><time>2022-04-15T10:30:07Z</time><name>PT1040</name></trkpt>
<trkpt lat="52.967163" lon="-3.269721"><ele>226</ele><time>2022-04-15T10:30:08Z</time><name>PT1041</name></trkpt>
<trkpt lat="52.967159" lon="-3.269718"><ele>226</ele><time>2022-04-15T10:30:09Z</time><name>PT1042</name></trkpt>
<trkpt lat="52.967151" lon="-3.269712"><ele>226</ele><time>2022-04-15T10:30:10Z</time><name>PT1043</name></trkpt>
<trkpt lat="52.967147" lon="-3.269715"><ele>226</ele><time>2022-04-15T10:30:11Z</time><name>PT1044</name></trkpt>
<trkpt lat="52.967133" lon="-3.269714"><ele>224</ele><time>2022-04-15T10:30:12Z</time><name>PT1045</name></trkpt>
<trkpt lat="52.967092" lon="-3.269674"><ele>221</ele><time>2022-04-15T10:30:15Z</time><name>PT1046</name></trkpt>
<trkpt lat="52.967032" lon="-3.269684"><ele>220</ele><time>2022-04-15T10:30:19Z</time><name>PT1047</name></trkpt>
<trkpt lat="52.966988" lon="-3.269695"><ele>219</ele><time>2022-04-15T10:30:23Z</time><name>PT1048</name></trkpt>
<trkpt lat="52.966961" lon="-3.269709"><ele>219</ele><time>2022-04-15T10:30:26Z</time><name>PT1049</name></trkpt>
<trkpt lat="52.966913" lon="-3.269745"><ele>219</ele><time>2022-04-15T10:30:30Z</time><name>PT1050</name></trkpt>
<trkpt lat="52.966875" lon="-3.269761"><ele>220</ele><time>2022-04-15T10:30:34Z</time><name>PT1051</name></trkpt>
<trkpt lat="52.966851" lon="-3.269775"><ele>220</ele><time>2022-04-15T10:30:37Z</time><name>PT1052</name></trkpt>
<trkpt lat="52.966823" lon="-3.269792"><ele>219</ele><time>2022-04-15T10:30:41Z</time><name>PT1053</name></trkpt>
<trkpt lat="52.966799" lon="-3.269802"><ele>220</ele><time>2022-04-15T10:30:44Z</time><name>PT1054</name></trkpt>
<trkpt lat="52.966772" lon="-3.269822"><ele>224</ele><time>2022-04-15T10:30:48Z</time><name>PT1055</name></trkpt>
<trkpt lat="52.966739" lon="-3.269839"><ele>225</ele><time>2022-04-15T10:31:02Z</time><name>PT1056</name></trkpt>
<trkpt lat="52.966706" lon="-3.269854"><ele>226</ele><time>2022-04-15T10:31:06Z</time><name>PT1057</name></trkpt>
<trkpt lat="52.966663" lon="-3.269877"><ele>224</ele><time>2022-04-15T10:31:10Z</time><name>PT1058</name></trkpt>
<trkpt lat="52.966633" lon="-3.269888"><ele>223</ele><time>2022-04-15T10:31:13Z</time><name>PT1059</name></trkpt>
<trkpt lat="52.966595" lon="-3.269906"><ele>221</ele><time>2022-04-15T10:31:17Z</time><name>PT1060</name></trkpt>
<trkpt lat="52.966572" lon="-3.269908"><ele>220</ele><time>2022-04-15T10:31:20Z</time><name>PT1061</name></trkpt>
<trkpt lat="52.966543" lon="-3.269912"><ele>220</ele><time>2022-04-15T10:31:24Z</time><name>PT1062</name></trkpt>
<trkpt lat="52.966537" lon="-3.269913"><ele>219</ele><time>2022-04-15T10:31:28Z</time><name>PT1063</name></trkpt>
<trkpt lat="52.966533" lon="-3.269906"><ele>219</ele><time>2022-04-15T10:31:42Z</time><name>PT1064</name></trkpt>
<trkpt lat="52.966485" lon="-3.269912"><ele>218</ele><time>2022-04-15T10:31:46Z</time><name>PT1065</name></trkpt>
<trkpt lat="52.966450" lon="-3.269912"><ele>216</ele><time>2022-04-15T10:31:49Z</time><name>PT1066</name></trkpt>
<trkpt lat="52.966409" lon="-3.269914"><ele>215</ele><time>2022-04-15T10:31:53Z</time><name>PT1067</name></trkpt>
<trkpt lat="52.966380" lon="-3.269888"><ele>215</ele><time>2022-04-15T10:31:56Z</time><name>PT1068</name></trkpt>
<trkpt lat="52.966341" lon="-3.269859"><ele>213</ele><time>2022-04-15T10:32:00Z</time><name>PT1069</name></trkpt>
<trkpt lat="52.966305" lon="-3.269839"><ele>212</ele><time>2022-04-15T10:32:04Z</time><name>PT1070</name></trkpt>
<trkpt lat="52.966276" lon="-3.269827"><ele>212</ele><time>2022-04-15T10:32:07Z</time><name>PT1071</name></trkpt>
<trkpt lat="52.966230" lon="-3.269820"><ele>211</ele><time>2022-04-15T10:32:11Z</time><name>PT1072</name></trkpt>
<trkpt lat="52.966200" lon="-3.269808"><ele>211</ele><time>2022-04-15T10:32:14Z</time><name>PT1073</name></trkpt>
<trkpt lat="52.966166" lon="-3.269796"><ele>211</ele><time>2022-04-15T10:32:18Z</time><name>PT1074</name></trkpt>
<trkpt lat="52.966133" lon="-3.269794"><ele>210</ele><time>2022-04-15T10:32:22Z</time><name>PT1075</name></trkpt>
<trkpt lat="52.966102" lon="-3.269796"><ele>211</ele><time>2022-04-15T10:32:25Z</time><name>PT1076</name></trkpt>
<trkpt lat="52.966066" lon="-3.269783"><ele>211</ele><time>2022-04-15T10:32:29Z</time><name>PT1077</name></trkpt>
<trkpt lat="52.966040" lon="-3.269765"><ele>211</ele><time>2022-04-15T10:32:32Z</time><name>PT1078</name></trkpt>
<trkpt lat="52.965999" lon="-3.269755"><ele>212</ele><time>2022-04-15T10:32:36Z</time><name>PT1079</name></trkpt>
<trkpt lat="52.965949" lon="-3.269750"><ele>213</ele><time>2022-04-15T10:32:40Z</time><name>PT1080</name></trkpt>
<trkpt lat="52.965931" lon="-3.269744"><ele>215</ele><time>2022-04-15T10:32:43Z</time><name>PT1081</name></trkpt>
<trkpt lat="52.965923" lon="-3.269734"><ele>218</ele><time>2022-04-15T10:32:47Z</time><name>PT1082</name></trkpt>
<trkpt lat="52.965864" lon="-3.269745"><ele>218</ele><time>2022-04-15T10:33:12Z</time><name>PT1083</name></trkpt>
<trkpt lat="52.965804" lon="-3.269738"><ele>218</ele><time>2022-04-15T10:33:16Z</time><name>PT1084</name></trkpt>
<trkpt lat="52.965795" lon="-3.269739"><ele>218</ele><time>2022-04-15T10:33:19Z</time><name>PT1085</name></trkpt>
<trkpt lat="52.965795" lon="-3.269740"><ele>218</ele><time>2022-04-15T10:33:23Z</time><name>PT1086</name></trkpt>
<trkpt lat="52.965800" lon="-3.269751"><ele>219</ele><time>2022-04-15T10:33:26Z</time><name>PT1087</name></trkpt>
<trkpt lat="52.965769" lon="-3.269753"><ele>219</ele><time>2022-04-15T10:33:41Z</time><name>PT1088</name></trkpt>
<trkpt lat="52.965744" lon="-3.269758"><ele>220</ele><time>2022-04-15T10:33:44Z</time><name>PT1089</name></trkpt>
<trkpt lat="52.965728" lon="-3.269762"><ele>220</ele><time>2022-04-15T10:33:48Z</time><name>PT1090</name></trkpt>
<trkpt lat="52.965718" lon="-3.269775"><ele>220</ele><time>2022-04-15T10:33:55Z</time><name>PT1091</name></trkpt>
<trkpt lat="52.965708" lon="-3.269779"><ele>220</ele><time>2022-04-15T10:33:59Z</time><name>PT1092</name></trkpt>
<trkpt lat="52.965671" lon="-3.269752"><ele>220</ele><time>2022-04-15T10:34:10Z</time><name>PT1093</name></trkpt>
<trkpt lat="52.965601" lon="-3.269742"><ele>220</ele><time>2022-04-15T10:34:13Z</time><name>PT1094</name></trkpt>
<trkpt lat="52.965518" lon="-3.269744"><ele>222</ele><time>2022-04-15T10:34:17Z</time><name>PT1095</name></trkpt>
<trkpt lat="52.965482" lon="-3.269747"><ele>223</ele><time>2022-04-15T10:34:20Z</time><name>PT1096</name></trkpt>
<trkpt lat="52.965443" lon="-3.269754"><ele>223</ele><time>2022-04-15T10:34:24Z</time><name>PT1097</name></trkpt>
<trkpt lat="52.965404" lon="-3.269764"><ele>224</ele><time>2022-04-15T10:34:28Z</time><name>PT1098</name></trkpt>
<trkpt lat="52.965383" lon="-3.269772"><ele>225</ele><time>2022-04-15T10:34:31Z</time><name>PT1099</name></trkpt>
<trkpt lat="52.965354" lon="-3.269809"><ele>227</ele><time>2022-04-15T10:34:35Z</time><name>PT1100</name></trkpt>
<trkpt lat="52.965333" lon="-3.269816"><ele>226</ele><time>2022-04-15T10:34:38Z</time><name>PT1101</name></trkpt>
<trkpt lat="52.965310" lon="-3.269853"><ele>226</ele><time>2022-04-15T10:34:42Z</time><name>PT1102</name></trkpt>
<trkpt lat="52.965282" lon="-3.269899"><ele>226</ele><time>2022-04-15T10:34:46Z</time><name>PT1103</name></trkpt>
<trkpt lat="52.965262" lon="-3.269942"><ele>223</ele><time>2022-04-15T10:34:49Z</time><name>PT1104</name></trkpt>
<trkpt lat="52.965235" lon="-3.269988"><ele>226</ele><time>2022-04-15T10:34:53Z</time><name>PT1105</name></trkpt>
<trkpt lat="52.965220" lon="-3.270031"><ele>227</ele><time>2022-04-15T10:34:56Z</time><name>PT1106</name></trkpt>
<trkpt lat="52.965200" lon="-3.270092"><ele>227</ele><time>2022-04-15T10:35:00Z</time><name>PT1107</name></trkpt>
<trkpt lat="52.965173" lon="-3.270142"><ele>228</ele><time>2022-04-15T10:35:04Z</time><name>PT1108</name></trkpt>
<trkpt lat="52.965160" lon="-3.270175"><ele>229</ele><time>2022-04-15T10:35:07Z</time><name>PT1109</name></trkpt>
<trkpt lat="52.965144" lon="-3.270225"><ele>229</ele><time>2022-04-15T10:35:11Z</time><name>PT1110</name></trkpt>
<trkpt lat="52.965138" lon="-3.270253"><ele>231</ele><time>2022-04-15T10:35:14Z</time><name>PT1111</name></trkpt>
<trkpt lat="52.965130" lon="-3.270280"><ele>233</ele><time>2022-04-15T10:35:18Z</time><name>PT1112</name></trkpt>
<trkpt lat="52.965139" lon="-3.270321"><ele>233</ele><time>2022-04-15T10:35:22Z</time><name>PT1113</name></trkpt>
<trkpt lat="52.965124" lon="-3.270344"><ele>233</ele><time>2022-04-15T10:35:25Z</time><name>PT1114</name></trkpt>
<trkpt lat="52.965109" lon="-3.270382"><ele>233</ele><time>2022-04-15T10:35:29Z</time><name>PT1115</name></trkpt>
<trkpt lat="52.965088" lon="-3.270404"><ele>233</ele><time>2022-04-15T10:35:32Z</time><name>PT1116</name></trkpt>
<trkpt lat="52.965056" lon="-3.270455"><ele>230</ele><time>2022-04-15T10:35:36Z</time><name>PT1117</name></trkpt>
<trkpt lat="52.965017" lon="-3.270489"><ele>231</ele><time>2022-04-15T10:35:40Z</time><name>PT1118</name></trkpt>
<trkpt lat="52.964989" lon="-3.270516"><ele>231</ele><time>2022-04-15T10:35:43Z</time><name>PT1119</name></trkpt>
<trkpt lat="52.964942" lon="-3.270541"><ele>231</ele><time>2022-04-15T10:35:47Z</time><name>PT1120</name></trkpt>
<trkpt lat="52.964906" lon="-3.270560"><ele>232</ele><time>2022-04-15T10:35:50Z</time><name>PT1121</name></trkpt>
<trkpt lat="52.964872" lon="-3.270601"><ele>231</ele><time>2022-04-15T10:35:54Z</time><name>PT1122</name></trkpt>
<trkpt lat="52.964838" lon="-3.270633"><ele>232</ele><time>2022-04-15T10:35:58Z</time><name>PT1123</name></trkpt>
<trkpt lat="52.964817" lon="-3.270656"><ele>233</ele><time>2022-04-15T10:36:01Z</time><name>PT1124</name></trkpt>
<trkpt lat="52.964786" lon="-3.270676"><ele>232</ele><time>2022-04-15T10:36:05Z</time><name>PT1125</name></trkpt>
<trkpt lat="52.964768" lon="-3.270691"><ele>231</ele><time>2022-04-15T10:36:08Z</time><name>PT1126</name></trkpt>
<trkpt lat="52.964731" lon="-3.270714"><ele>230</ele><time>2022-04-15T10:36:12Z</time><name>PT1127</name></trkpt>
<trkpt lat="52.964697" lon="-3.270712"><ele>226</ele><time>2022-04-15T10:36:16Z</time><name>PT1128</name></trkpt>
<trkpt lat="52.964676" lon="-3.270722"><ele>225</ele><time>2022-04-15T10:36:19Z</time><name>PT1129</name></trkpt>
<trkpt lat="52.964640" lon="-3.270741"><ele>227</ele><time>2022-04-15T10:36:23Z</time><name>PT1130</name></trkpt>
<trkpt lat="52.964610" lon="-3.270758"><ele>229</ele><time>2022-04-15T10:36:26Z</time><name>PT1131</name></trkpt>
<trkpt lat="52.964572" lon="-3.270781"><ele>231</ele><time>2022-04-15T10:36:30Z</time><name>PT1132</name></trkpt>
<trkpt lat="52.964550" lon="-3.270802"><ele>229</ele><time>2022-04-15T10:36:34Z</time><name>PT1133</name></trkpt>
<trkpt lat="52.964530" lon="-3.270832"><ele>228</ele><time>2022-04-15T10:36:37Z</time><name>PT1134</name></trkpt>
<trkpt lat="52.964491" lon="-3.270863"><ele>228</ele><time>2022-04-15T10:36:41Z</time><name>PT1135</name></trkpt>
<trkpt lat="52.964468" lon="-3.270886"><ele>229</ele><time>2022-04-15T10:36:44Z</time><name>PT1136</name></trkpt>
<trkpt lat="52.964427" lon="-3.270919"><ele>230</ele><time>2022-04-15T10:36:48Z</time><name>PT1137</name></trkpt>
<trkpt lat="52.964387" lon="-3.270969"><ele>232</ele><time>2022-04-15T10:36:52Z</time><name>PT1138</name></trkpt>
<trkpt lat="52.964355" lon="-3.271016"><ele>233</ele><time>2022-04-15T10:36:55Z</time><name>PT1139</name></trkpt>
<trkpt lat="52.964322" lon="-3.271052"><ele>233</ele><time>2022-04-15T10:36:59Z</time><name>PT1140</name></trkpt>
<trkpt lat="52.964291" lon="-3.271076"><ele>232</ele><time>2022-04-15T10:37:02Z</time><name>PT1141</name></trkpt>
<trkpt lat="52.964266" lon="-3.271111"><ele>231</ele><time>2022-04-15T10:37:06Z</time><name>PT1142</name></trkpt>
<trkpt lat="52.964230" lon="-3.271134"><ele>233</ele><time>2022-04-15T10:37:10Z</time><name>PT1143</name></trkpt>
<trkpt lat="52.964201" lon="-3.271166"><ele>237</ele><time>2022-04-15T10:37:13Z</time><name>PT1144</name></trkpt>
<trkpt lat="52.964181" lon="-3.271189"><ele>238</ele><time>2022-04-15T10:37:17Z</time><name>PT1145</name></trkpt>
<trkpt lat="52.964187" lon="-3.271214"><ele>236</ele><time>2022-04-15T10:37:20Z</time><name>PT1146</name></trkpt>
<trkpt lat="52.964180" lon="-3.271222"><ele>237</ele><time>2022-04-15T10:37:24Z</time><name>PT1147</name></trkpt>
<trkpt lat="52.964165" lon="-3.271221"><ele>237</ele><time>2022-04-15T10:37:28Z</time><name>PT1148</name></trkpt>
<trkpt lat="52.964137" lon="-3.271242"><ele>236</ele><time>2022-04-15T10:37:31Z</time><name>PT1149</name></trkpt>
<trkpt lat="52.964107" lon="-3.271243"><ele>235</ele><time>2022-04-15T10:37:35Z</time><name>PT1150</name></trkpt>
<trkpt lat="52.964095" lon="-3.271256"><ele>234</ele><time>2022-04-15T10:37:38Z</time><name>PT1151</name></trkpt>
<trkpt lat="52.964085" lon="-3.271275"><ele>234</ele><time>2022-04-15T10:37:42Z</time><name>PT1152</name></trkpt>
<trkpt lat="52.964065" lon="-3.271312"><ele>235</ele><time>2022-04-15T10:37:46Z</time><name>PT1153</name></trkpt>
<trkpt lat="52.964069" lon="-3.271331"><ele>235</ele><time>2022-04-15T10:37:49Z</time><name>PT1154</name></trkpt>
<trkpt lat="52.964072" lon="-3.271377"><ele>235</ele><time>2022-04-15T10:37:53Z</time><name>PT1155</name></trkpt>
<trkpt lat="52.964061" lon="-3.271414"><ele>235</ele><time>2022-04-15T10:37:56Z</time><name>PT1156</name></trkpt>
<trkpt lat="52.964030" lon="-3.271459"><ele>236</ele><time>2022-04-15T10:38:00Z</time><name>PT1157</name></trkpt>
<trkpt lat="52.963993" lon="-3.271489"><ele>236</ele><time>2022-04-15T10:38:04Z</time><name>PT1158</name></trkpt>
<trkpt lat="52.963966" lon="-3.271501"><ele>235</ele><time>2022-04-15T10:38:07Z</time><name>PT1159</name></trkpt>
<trkpt lat="52.963941" lon="-3.271532"><ele>234</ele><time>2022-04-15T10:38:11Z</time><name>PT1160</name></trkpt>
<trkpt lat="52.963904" lon="-3.271540"><ele>234</ele><time>2022-04-15T10:38:14Z</time><name>PT1161</name></trkpt>
<trkpt lat="52.963869" lon="-3.271542"><ele>233</ele><time>2022-04-15T10:38:18Z</time><name>PT1162</name></trkpt>
<trkpt lat="52.963845" lon="-3.271571"><ele>234</ele><time>2022-04-15T10:38:22Z</time><name>PT1163</name></trkpt>
<trkpt lat="52.963821" lon="-3.271591"><ele>235</ele><time>2022-04-15T10:38:25Z</time><name>PT1164</name></trkpt>
<trkpt lat="52.963782" lon="-3.271612"><ele>233</ele><time>2022-04-15T10:38:29Z</time><name>PT1165</name></trkpt>
<trkpt lat="52.963759" lon="-3.271630"><ele>234</ele><time>2022-04-15T10:38:32Z</time><name>PT1166</name></trkpt>
<trkpt lat="52.963717" lon="-3.271646"><ele>235</ele><time>2022-04-15T10:38:36Z</time><name>PT1167</name></trkpt>
<trkpt lat="52.963688" lon="-3.271665"><ele>238</ele><time>2022-04-15T10:38:40Z</time><name>PT1168</name></trkpt>
<trkpt lat="52.963667" lon="-3.271677"><ele>237</ele><time>2022-04-15T10:38:43Z</time><name>PT1169</name></trkpt>
<trkpt lat="52.963633" lon="-3.271710"><ele>239</ele><time>2022-04-15T10:38:47Z</time><name>PT1170</name></trkpt>
<trkpt lat="52.963592" lon="-3.271728"><ele>241</ele><time>2022-04-15T10:38:50Z</time><name>PT1171</name></trkpt>
<trkpt lat="52.963536" lon="-3.271757"><ele>244</ele><time>2022-04-15T10:38:54Z</time><name>PT1172</name></trkpt>
<trkpt lat="52.963497" lon="-3.271778"><ele>246</ele><time>2022-04-15T10:38:58Z</time><name>PT1173</name></trkpt>
<trkpt lat="52.963471" lon="-3.271801"><ele>249</ele><time>2022-04-15T10:39:01Z</time><name>PT1174</name></trkpt>
<trkpt lat="52.963421" lon="-3.271824"><ele>251</ele><time>2022-04-15T10:39:05Z</time><name>PT1175</name></trkpt>
<trkpt lat="52.963395" lon="-3.271841"><ele>249</ele><time>2022-04-15T10:39:08Z</time><name>PT1176</name></trkpt>
<trkpt lat="52.963346" lon="-3.271878"><ele>248</ele><time>2022-04-15T10:39:12Z</time><name>PT1177</name></trkpt>
<trkpt lat="52.963318" lon="-3.271894"><ele>248</ele><time>2022-04-15T10:39:16Z</time><name>PT1178</name></trkpt>
<trkpt lat="52.963278" lon="-3.271916"><ele>246</ele><time>2022-04-15T10:39:19Z</time><name>PT1179</name></trkpt>
<trkpt lat="52.963246" lon="-3.271947"><ele>245</ele><time>2022-04-15T10:39:23Z</time><name>PT1180</name></trkpt>
<trkpt lat="52.963225" lon="-3.271963"><ele>244</ele><time>2022-04-15T10:39:26Z</time><name>PT1181</name></trkpt>
<trkpt lat="52.963204" lon="-3.271982"><ele>241</ele><time>2022-04-15T10:39:30Z</time><name>PT1182</name></trkpt>
<trkpt lat="52.963185" lon="-3.271989"><ele>245</ele><time>2022-04-15T10:39:34Z</time><name>PT1183</name></trkpt>
<trkpt lat="52.963182" lon="-3.271996"><ele>245</ele><time>2022-04-15T10:39:37Z</time><name>PT1184</name></trkpt>
<trkpt lat="52.963178" lon="-3.272018"><ele>246</ele><time>2022-04-15T10:39:47Z</time><name>PT1185</name></trkpt>
<trkpt lat="52.963142" lon="-3.272024"><ele>249</ele><time>2022-04-15T10:39:51Z</time><name>PT1186</name></trkpt>
<trkpt lat="52.963136" lon="-3.272021"><ele>248</ele><time>2022-04-15T10:40:13Z</time><name>PT1187</name></trkpt>
<trkpt lat="52.963087" lon="-3.272028"><ele>248</ele><time>2022-04-15T10:40:17Z</time><name>PT1188</name></trkpt>
<trkpt lat="52.963055" lon="-3.272058"><ele>249</ele><time>2022-04-15T10:40:20Z</time><name>PT1189</name></trkpt>
<trkpt lat="52.963019" lon="-3.272103"><ele>248</ele><time>2022-04-15T10:40:24Z</time><name>PT1190</name></trkpt>
<trkpt lat="52.962964" lon="-3.272144"><ele>251</ele><time>2022-04-15T10:40:28Z</time><name>PT1191</name></trkpt>
<trkpt lat="52.962924" lon="-3.272192"><ele>252</ele><time>2022-04-15T10:40:32Z</time><name>PT1192</name></trkpt>
<trkpt lat="52.962890" lon="-3.272234"><ele>254</ele><time>2022-04-15T10:40:36Z</time><name>PT1193</name></trkpt>
<trkpt lat="52.962846" lon="-3.272299"><ele>253</ele><time>2022-04-15T10:40:40Z</time><name>PT1194</name></trkpt>
<trkpt lat="52.962815" lon="-3.272305"><ele>251</ele><time>2022-04-15T10:40:43Z</time><name>PT1195</name></trkpt>
<trkpt lat="52.962790" lon="-3.272337"><ele>250</ele><time>2022-04-15T10:40:46Z</time><name>PT1196</name></trkpt>
<trkpt lat="52.962757" lon="-3.272369"><ele>251</ele><time>2022-04-15T10:40:49Z</time><name>PT1197</name></trkpt>
<trkpt lat="52.962707" lon="-3.272415"><ele>252</ele><time>2022-04-15T10:40:53Z</time><name>PT1198</name></trkpt>
<trkpt lat="52.962655" lon="-3.272439"><ele>254</ele><time>2022-04-15T10:40:57Z</time><name>PT1199</name></trkpt>
<trkpt lat="52.962627" lon="-3.272450"><ele>252</ele><time>2022-04-15T10:41:01Z</time><name>PT1200</name></trkpt>
<trkpt lat="52.962556" lon="-3.272547"><ele>257</ele><time>2022-04-15T10:41:05Z</time><name>PT1201</name></trkpt>
<trkpt lat="52.962511" lon="-3.272599"><ele>256</ele><time>2022-04-15T10:41:09Z</time><name>PT1202</name></trkpt>
<trkpt lat="52.962491" lon="-3.272611"><ele>256</ele><time>2022-04-15T10:41:12Z</time><name>PT1203</name></trkpt>
<trkpt lat="52.962470" lon="-3.272624"><ele>256</ele><time>2022-04-15T10:41:15Z</time><name>PT1204</name></trkpt>
<trkpt lat="52.962462" lon="-3.272623"><ele>256</ele><time>2022-04-15T10:41:15Z</time><name>PT1205</name></trkpt>
<trkpt lat="52.962453" lon="-3.272647"><ele>257</ele><time>2022-04-15T10:41:16Z</time><name>PT1206</name></trkpt>
<trkpt lat="52.962439" lon="-3.272667"><ele>257</ele><time>2022-04-15T10:41:17Z</time><name>PT1207</name></trkpt>
<trkpt lat="52.962428" lon="-3.272682"><ele>257</ele><time>2022-04-15T10:41:18Z</time><name>PT1208</name></trkpt>
<trkpt lat="52.962420" lon="-3.272700"><ele>257</ele><time>2022-04-15T10:41:19Z</time><name>PT1209</name></trkpt>
<trkpt lat="52.962410" lon="-3.272714"><ele>258</ele><time>2022-04-15T10:41:20Z</time><name>PT1210</name></trkpt>
<trkpt lat="52.962405" lon="-3.272716"><ele>258</ele><time>2022-04-15T10:41:21Z</time><name>PT1211</name></trkpt>
<trkpt lat="52.962400" lon="-3.272725"><ele>258</ele><time>2022-04-15T10:41:22Z</time><name>PT1212</name></trkpt>
<trkpt lat="52.962396" lon="-3.272731"><ele>259</ele><time>2022-04-15T10:41:23Z</time><name>PT1213</name></trkpt>
<trkpt lat="52.962391" lon="-3.272748"><ele>259</ele><time>2022-04-15T10:41:24Z</time><name>PT1214</name></trkpt>
<trkpt lat="52.962386" lon="-3.272748"><ele>259</ele><time>2022-04-15T10:41:25Z</time><name>PT1215</name></trkpt>
<trkpt lat="52.962387" lon="-3.272748"><ele>260</ele><time>2022-04-15T10:41:39Z</time><name>PT1216</name></trkpt>
<trkpt lat="52.962378" lon="-3.272772"><ele>261</ele><time>2022-04-15T10:41:40Z</time><name>PT1217</name></trkpt>
<trkpt lat="52.962370" lon="-3.272777"><ele>261</ele><time>2022-04-15T10:41:41Z</time><name>PT1218</name></trkpt>
<trkpt lat="52.962347" lon="-3.272776"><ele>261</ele><time>2022-04-15T10:41:42Z</time><name>PT1219</name></trkpt>
<trkpt lat="52.962325" lon="-3.272787"><ele>261</ele><time>2022-04-15T10:41:43Z</time><name>PT1220</name></trkpt>
<trkpt lat="52.962312" lon="-3.272797"><ele>261</ele><time>2022-04-15T10:41:44Z</time><name>PT1221</name></trkpt>
<trkpt lat="52.962303" lon="-3.272804"><ele>261</ele><time>2022-04-15T10:41:45Z</time><name>PT1222</name></trkpt>
<trkpt lat="52.962287" lon="-3.272806"><ele>259</ele><time>2022-04-15T10:41:46Z</time><name>PT1223</name></trkpt>
<trkpt lat="52.962274" lon="-3.272814"><ele>260</ele><time>2022-04-15T10:41:48Z</time><name>PT1224</name></trkpt>
<trkpt lat="52.962263" lon="-3.272824"><ele>260</ele><time>2022-04-15T10:41:48Z</time><name>PT1225</name></trkpt>
<trkpt lat="52.962255" lon="-3.272831"><ele>259</ele><time>2022-04-15T10:41:49Z</time><name>PT1226</name></trkpt>
<trkpt lat="52.962247" lon="-3.272837"><ele>258</ele><time>2022-04-15T10:41:50Z</time><name>PT1227</name></trkpt>
<trkpt lat="52.962238" lon="-3.272838"><ele>258</ele><time>2022-04-15T10:41:51Z</time><name>PT1228</name></trkpt>
<trkpt lat="52.962227" lon="-3.272849"><ele>258</ele><time>2022-04-15T10:41:52Z</time><name>PT1229</name></trkpt>
<trkpt lat="52.962216" lon="-3.272860"><ele>259</ele><time>2022-04-15T10:41:53Z</time><name>PT1230</name></trkpt>
<trkpt lat="52.962208" lon="-3.272868"><ele>258</ele><time>2022-04-15T10:41:54Z</time><name>PT1231</name></trkpt>
<trkpt lat="52.962197" lon="-3.272874"><ele>259</ele><time>2022-04-15T10:41:55Z</time><name>PT1232</name></trkpt>
<trkpt lat="52.962186" lon="-3.272876"><ele>259</ele><time>2022-04-15T10:41:56Z</time><name>PT1233</name></trkpt>
<trkpt lat="52.962180" lon="-3.272880"><ele>259</ele><time>2022-04-15T10:41:57Z</time><name>PT1234</name></trkpt>
<trkpt lat="52.962173" lon="-3.272887"><ele>259</ele><time>2022-04-15T10:41:58Z</time><name>PT1235</name></trkpt>
<trkpt lat="52.962166" lon="-3.272888"><ele>259</ele><time>2022-04-15T10:41:59Z</time><name>PT1236</name></trkpt>
<trkpt lat="52.962155" lon="-3.272890"><ele>259</ele><time>2022-04-15T10:42:00Z</time><name>PT1237</name></trkpt>
<trkpt lat="52.962149" lon="-3.272897"><ele>259</ele><time>2022-04-15T10:42:01Z</time><name>PT1238</name></trkpt>
<trkpt lat="52.962144" lon="-3.272902"><ele>259</ele><time>2022-04-15T10:42:02Z</time><name>PT1239</name></trkpt>
<trkpt lat="52.962137" lon="-3.272906"><ele>259</ele><time>2022-04-15T10:42:03Z</time><name>PT1240</name></trkpt>
<trkpt lat="52.962129" lon="-3.272917"><ele>259</ele><time>2022-04-15T10:42:04Z</time><name>PT1241</name></trkpt>
<trkpt lat="52.962123" lon="-3.272927"><ele>258</ele><time>2022-04-15T10:42:05Z</time><name>PT1242</name></trkpt>
<trkpt lat="52.962116" lon="-3.272933"><ele>258</ele><time>2022-04-15T10:42:06Z</time><name>PT1243</name></trkpt>
<trkpt lat="52.962108" lon="-3.272940"><ele>258</ele><time>2022-04-15T10:42:07Z</time><name>PT1244</name></trkpt>
<trkpt lat="52.962102" lon="-3.272941"><ele>258</ele><time>2022-04-15T10:42:08Z</time><name>PT1245</name></trkpt>
<trkpt lat="52.962096" lon="-3.272945"><ele>258</ele><time>2022-04-15T10:42:09Z</time><name>PT1246</name></trkpt>
<trkpt lat="52.962091" lon="-3.272948"><ele>258</ele><time>2022-04-15T10:42:10Z</time><name>PT1247</name></trkpt>
<trkpt lat="52.962086" lon="-3.272957"><ele>258</ele><time>2022-04-15T10:42:11Z</time><name>PT1248</name></trkpt>
<trkpt lat="52.962082" lon="-3.272957"><ele>258</ele><time>2022-04-15T10:42:12Z</time><name>PT1249</name></trkpt>
<trkpt lat="52.962080" lon="-3.272959"><ele>258</ele><time>2022-04-15T10:42:13Z</time><name>PT1250</name></trkpt>
<trkpt lat="52.962076" lon="-3.272961"><ele>259</ele><time>2022-04-15T10:42:14Z</time><name>PT1251</name></trkpt>
<trkpt lat="52.962073" lon="-3.272962"><ele>258</ele><time>2022-04-15T10:42:15Z</time><name>PT1252</name></trkpt>
<trkpt lat="52.962071" lon="-3.272973"><ele>259</ele><time>2022-04-15T10:42:16Z</time><name>PT1253</name></trkpt>
<trkpt lat="52.962067" lon="-3.272983"><ele>259</ele><time>2022-04-15T10:42:17Z</time><name>PT1254</name></trkpt>
<trkpt lat="52.962065" lon="-3.272987"><ele>260</ele><time>2022-04-15T10:42:18Z</time><name>PT1255</name></trkpt>
<trkpt lat="52.962063" lon="-3.273000"><ele>260</ele><time>2022-04-15T10:42:19Z</time><name>PT1256</name></trkpt>
<trkpt lat="52.962056" lon="-3.273011"><ele>261</ele><time>2022-04-15T10:42:20Z</time><name>PT1257</name></trkpt>
<trkpt lat="52.962051" lon="-3.273022"><ele>261</ele><time>2022-04-15T10:42:21Z</time><name>PT1258</name></trkpt>
<trkpt lat="52.962045" lon="-3.273015"><ele>261</ele><time>2022-04-15T10:42:22Z</time><name>PT1259</name></trkpt>
<trkpt lat="52.962038" lon="-3.273003"><ele>261</ele><time>2022-04-15T10:42:23Z</time><name>PT1260</name></trkpt>
<trkpt lat="52.962032" lon="-3.272996"><ele>261</ele><time>2022-04-15T10:42:24Z</time><name>PT1261</name></trkpt>
<trkpt lat="52.962026" lon="-3.272992"><ele>261</ele><time>2022-04-15T10:42:25Z</time><name>PT1262</name></trkpt>
<trkpt lat="52.962017" lon="-3.272990"><ele>260</ele><time>2022-04-15T10:42:26Z</time><name>PT1263</name></trkpt>
<trkpt lat="52.962005" lon="-3.272993"><ele>260</ele><time>2022-04-15T10:42:27Z</time><name>PT1264</name></trkpt>
<trkpt lat="52.961992" lon="-3.272998"><ele>260</ele><time>2022-04-15T10:42:28Z</time><name>PT1265</name></trkpt>
<trkpt lat="52.961982" lon="-3.273001"><ele>260</ele><time>2022-04-15T10:42:29Z</time><name>PT1266</name></trkpt>
<trkpt lat="52.961971" lon="-3.273009"><ele>260</ele><time>2022-04-15T10:42:30Z</time><name>PT1267</name></trkpt>
<trkpt lat="52.961960" lon="-3.273018"><ele>260</ele><time>2022-04-15T10:42:31Z</time><name>PT1268</name></trkpt>
<trkpt lat="52.961949" lon="-3.273031"><ele>260</ele><time>2022-04-15T10:42:32Z</time><name>PT1269</name></trkpt>
<trkpt lat="52.961941" lon="-3.273041"><ele>261</ele><time>2022-04-15T10:42:33Z</time><name>PT1270</name></trkpt>
<trkpt lat="52.961930" lon="-3.273055"><ele>261</ele><time>2022-04-15T10:42:34Z</time><name>PT1271</name></trkpt>
<trkpt lat="52.961922" lon="-3.273066"><ele>262</ele><time>2022-04-15T10:42:35Z</time><name>PT1272</name></trkpt>
<trkpt lat="52.961914" lon="-3.273077"><ele>261</ele><time>2022-04-15T10:42:36Z</time><name>PT1273</name></trkpt>
<trkpt lat="52.961906" lon="-3.273086"><ele>261</ele><time>2022-04-15T10:42:37Z</time><name>PT1274</name></trkpt>
<trkpt lat="52.961896" lon="-3.273089"><ele>261</ele><time>2022-04-15T10:42:38Z</time><name>PT1275</name></trkpt>
<trkpt lat="52.961884" lon="-3.273091"><ele>261</ele><time>2022-04-15T10:42:39Z</time><name>PT1276</name></trkpt>
<trkpt lat="52.961876" lon="-3.273096"><ele>259</ele><time>2022-04-15T10:42:40Z</time><name>PT1277</name></trkpt>
<trkpt lat="52.961868" lon="-3.273106"><ele>259</ele><time>2022-04-15T10:42:41Z</time><name>PT1278</name></trkpt>
<trkpt lat="52.961858" lon="-3.273118"><ele>258</ele><time>2022-04-15T10:42:42Z</time><name>PT1279</name></trkpt>
<trkpt lat="52.961848" lon="-3.273132"><ele>258</ele><time>2022-04-15T10:42:43Z</time><name>PT1280</name></trkpt>
<trkpt lat="52.961839" lon="-3.273145"><ele>258</ele><time>2022-04-15T10:42:44Z</time><name>PT1281</name></trkpt>
<trkpt lat="52.961825" lon="-3.273157"><ele>258</ele><time>2022-04-15T10:42:45Z</time><name>PT1282</name></trkpt>
<trkpt lat="52.961811" lon="-3.273168"><ele>258</ele><time>2022-04-15T10:42:46Z</time><name>PT1283</name></trkpt>
<trkpt lat="52.961799" lon="-3.273177"><ele>259</ele><time>2022-04-15T10:42:47Z</time><name>PT1284</name></trkpt>
<trkpt lat="52.961786" lon="-3.273193"><ele>259</ele><time>2022-04-15T10:42:48Z</time><name>PT1285</name></trkpt>
<trkpt lat="52.961772" lon="-3.273208"><ele>259</ele><time>2022-04-15T10:42:49Z</time><name>PT1286</name></trkpt>
<trkpt lat="52.961764" lon="-3.273213"><ele>259</ele><time>2022-04-15T10:42:50Z</time><name>PT1287</name></trkpt>
<trkpt lat="52.961755" lon="-3.273227"><ele>259</ele><time>2022-04-15T10:42:51Z</time><name>PT1288</name></trkpt>
<trkpt lat="52.961745" lon="-3.273225"><ele>257</ele><time>2022-04-15T10:42:52Z</time><name>PT1289</name></trkpt>
<trkpt lat="52.961734" lon="-3.273231"><ele>257</ele><time>2022-04-15T10:42:53Z</time><name>PT1290</name></trkpt>
<trkpt lat="52.961722" lon="-3.273244"><ele>257</ele><time>2022-04-15T10:42:54Z</time><name>PT1291</name></trkpt>
<trkpt lat="52.961710" lon="-3.273264"><ele>258</ele><time>2022-04-15T10:42:55Z</time><name>PT1292</name></trkpt>
<trkpt lat="52.961699" lon="-3.273280"><ele>257</ele><time>2022-04-15T10:42:56Z</time><name>PT1293</name></trkpt>
<trkpt lat="52.961687" lon="-3.273294"><ele>257</ele><time>2022-04-15T10:42:57Z</time><name>PT1294</name></trkpt>
<trkpt lat="52.961676" lon="-3.273307"><ele>258</ele><time>2022-04-15T10:42:58Z</time><name>PT1295</name></trkpt>
<trkpt lat="52.961664" lon="-3.273318"><ele>258</ele><time>2022-04-15T10:42:59Z</time><name>PT1296</name></trkpt>
<trkpt lat="52.961652" lon="-3.273323"><ele>258</ele><time>2022-04-15T10:43:00Z</time><name>PT1297</name></trkpt>
<trkpt lat="52.961639" lon="-3.273324"><ele>257</ele><time>2022-04-15T10:43:01Z</time><name>PT1298</name></trkpt>
<trkpt lat="52.961626" lon="-3.273335"><ele>257</ele><time>2022-04-15T10:43:02Z</time><name>PT1299</name></trkpt>
<trkpt lat="52.961616" lon="-3.273346"><ele>257</ele><time>2022-04-15T10:43:03Z</time><name>PT1300</name></trkpt>
<trkpt lat="52.961604" lon="-3.273365"><ele>258</ele><time>2022-04-15T10:43:04Z</time><name>PT1301</name></trkpt>
<trkpt lat="52.961593" lon="-3.273379"><ele>258</ele><time>2022-04-15T10:43:05Z</time><name>PT1302</name></trkpt>
<trkpt lat="52.961581" lon="-3.273397"><ele>258</ele><time>2022-04-15T10:43:06Z</time><name>PT1303</name></trkpt>
<trkpt lat="52.961571" lon="-3.273408"><ele>258</ele><time>2022-04-15T10:43:07Z</time><name>PT1304</name></trkpt>
<trkpt lat="52.961561" lon="-3.273416"><ele>257</ele><time>2022-04-15T10:43:08Z</time><name>PT1305</name></trkpt>
<trkpt lat="52.961550" lon="-3.273429"><ele>257</ele><time>2022-04-15T10:43:09Z</time><name>PT1306</name></trkpt>
<trkpt lat="52.961538" lon="-3.273445"><ele>257</ele><time>2022-04-15T10:43:10Z</time><name>PT1307</name></trkpt>
<trkpt lat="52.961527" lon="-3.273457"><ele>257</ele><time>2022-04-15T10:43:11Z</time><name>PT1308</name></trkpt>
<trkpt lat="52.961516" lon="-3.273467"><ele>257</ele><time>2022-04-15T10:43:12Z</time><name>PT1309</name></trkpt>
<trkpt lat="52.961507" lon="-3.273471"><ele>257</ele><time>2022-04-15T10:43:13Z</time><name>PT1310</name></trkpt>
<trkpt lat="52.961474" lon="-3.273487"><ele>257</ele><time>2022-04-15T10:43:16Z</time><name>PT1311</name></trkpt>
<trkpt lat="52.961434" lon="-3.273550"><ele>257</ele><time>2022-04-15T10:43:20Z</time><name>PT1312</name></trkpt>
<trkpt lat="52.961386" lon="-3.273590"><ele>257</ele><time>2022-04-15T10:43:24Z</time><name>PT1313</name></trkpt>
<trkpt lat="52.961350" lon="-3.273624"><ele>258</ele><time>2022-04-15T10:43:27Z</time><name>PT1314</name></trkpt>
<trkpt lat="52.961319" lon="-3.273653"><ele>258</ele><time>2022-04-15T10:43:30Z</time><name>PT1315</name></trkpt>
<trkpt lat="52.961279" lon="-3.273710"><ele>260</ele><time>2022-04-15T10:43:34Z</time><name>PT1316</name></trkpt>
<trkpt lat="52.961239" lon="-3.273741"><ele>258</ele><time>2022-04-15T10:43:38Z</time><name>PT1317</name></trkpt>
<trkpt lat="52.961200" lon="-3.273768"><ele>261</ele><time>2022-04-15T10:43:41Z</time><name>PT1318</name></trkpt>
<trkpt lat="52.961152" lon="-3.273823"><ele>260</ele><time>2022-04-15T10:43:45Z</time><name>PT1319</name></trkpt>
<trkpt lat="52.961110" lon="-3.273870"><ele>259</ele><time>2022-04-15T10:43:49Z</time><name>PT1320</name></trkpt>
<trkpt lat="52.961066" lon="-3.273924"><ele>259</ele><time>2022-04-15T10:43:53Z</time><name>PT1321</name></trkpt>
<trkpt lat="52.961037" lon="-3.273950"><ele>257</ele><time>2022-04-15T10:43:56Z</time><name>PT1322</name></trkpt>
<trkpt lat="52.961003" lon="-3.273991"><ele>257</ele><time>2022-04-15T10:43:59Z</time><name>PT1323</name></trkpt>
<trkpt lat="52.960960" lon="-3.274032"><ele>259</ele><time>2022-04-15T10:44:03Z</time><name>PT1324</name></trkpt>
<trkpt lat="52.960931" lon="-3.274057"><ele>259</ele><time>2022-04-15T10:44:06Z</time><name>PT1325</name></trkpt>
<trkpt lat="52.960897" lon="-3.274100"><ele>259</ele><time>2022-04-15T10:44:09Z</time><name>PT1326</name></trkpt>
<trkpt lat="52.960851" lon="-3.274148"><ele>259</ele><time>2022-04-15T10:44:13Z</time><name>PT1327</name></trkpt>
<trkpt lat="52.960819" lon="-3.274184"><ele>259</ele><time>2022-04-15T10:44:16Z</time><name>PT1328</name></trkpt>
<trkpt lat="52.960779" lon="-3.274221"><ele>260</ele><time>2022-04-15T10:44:20Z</time><name>PT1329</name></trkpt>
<trkpt lat="52.960744" lon="-3.274256"><ele>262</ele><time>2022-04-15T10:44:23Z</time><name>PT1330</name></trkpt>
<trkpt lat="52.960699" lon="-3.274298"><ele>263</ele><time>2022-04-15T10:44:27Z</time><name>PT1331</name></trkpt>
<trkpt lat="52.960664" lon="-3.274331"><ele>264</ele><time>2022-04-15T10:44:30Z</time><name>PT1332</name></trkpt>
<trkpt lat="52.960630" lon="-3.274360"><ele>265</ele><time>2022-04-15T10:44:34Z</time><name>PT1333</name></trkpt>
<trkpt lat="52.960607" lon="-3.274387"><ele>265</ele><time>2022-04-15T10:44:37Z</time><name>PT1334</name></trkpt>
<trkpt lat="52.960575" lon="-3.274406"><ele>264</ele><time>2022-04-15T10:44:40Z</time><name>PT1335</name></trkpt>
<trkpt lat="52.960522" lon="-3.274437"><ele>265</ele><time>2022-04-15T10:44:44Z</time><name>PT1336</name></trkpt>
<trkpt lat="52.960482" lon="-3.274475"><ele>265</ele><time>2022-04-15T10:44:48Z</time><name>PT1337</name></trkpt>
<trkpt lat="52.960451" lon="-3.274501"><ele>265</ele><time>2022-04-15T10:44:51Z</time><name>PT1338</name></trkpt>
<trkpt lat="52.960407" lon="-3.274533"><ele>268</ele><time>2022-04-15T10:44:55Z</time><name>PT1339</name></trkpt>
<trkpt lat="52.960378" lon="-3.274550"><ele>269</ele><time>2022-04-15T10:44:58Z</time><name>PT1340</name></trkpt>
<trkpt lat="52.960346" lon="-3.274563"><ele>268</ele><time>2022-04-15T10:45:01Z</time><name>PT1341</name></trkpt>
<trkpt lat="52.960304" lon="-3.274582"><ele>269</ele><time>2022-04-15T10:45:05Z</time><name>PT1342</name></trkpt>
<trkpt lat="52.960273" lon="-3.274588"><ele>268</ele><time>2022-04-15T10:45:09Z</time><name>PT1343</name></trkpt>
<trkpt lat="52.960247" lon="-3.274598"><ele>268</ele><time>2022-04-15T10:45:12Z</time><name>PT1344</name></trkpt>
<trkpt lat="52.960218" lon="-3.274602"><ele>269</ele><time>2022-04-15T10:45:15Z</time><name>PT1345</name></trkpt>
<trkpt lat="52.960182" lon="-3.274623"><ele>269</ele><time>2022-04-15T10:45:19Z</time><name>PT1346</name></trkpt>
<trkpt lat="52.960144" lon="-3.274639"><ele>270</ele><time>2022-04-15T10:45:23Z</time><name>PT1347</name></trkpt>
<trkpt lat="52.960117" lon="-3.274653"><ele>270</ele><time>2022-04-15T10:45:26Z</time><name>PT1348</name></trkpt>
<trkpt lat="52.960083" lon="-3.274666"><ele>270</ele><time>2022-04-15T10:45:30Z</time><name>PT1349</name></trkpt>
<trkpt lat="52.960047" lon="-3.274678"><ele>271</ele><time>2022-04-15T10:45:34Z</time><name>PT1350</name></trkpt>
<trkpt lat="52.960022" lon="-3.274693"><ele>271</ele><time>2022-04-15T10:45:37Z</time><name>PT1351</name></trkpt>
<trkpt lat="52.959985" lon="-3.274709"><ele>271</ele><time>2022-04-15T10:45:41Z</time><name>PT1352</name></trkpt>
<trkpt lat="52.959959" lon="-3.274717"><ele>270</ele><time>2022-04-15T10:45:44Z</time><name>PT1353</name></trkpt>
<trkpt lat="52.959935" lon="-3.274720"><ele>269</ele><time>2022-04-15T10:45:47Z</time><name>PT1354</name></trkpt>
<trkpt lat="52.959900" lon="-3.274735"><ele>270</ele><time>2022-04-15T10:45:51Z</time><name>PT1355</name></trkpt>
<trkpt lat="52.959868" lon="-3.274751"><ele>270</ele><time>2022-04-15T10:45:54Z</time><name>PT1356</name></trkpt>
<trkpt lat="52.959842" lon="-3.274768"><ele>270</ele><time>2022-04-15T10:45:57Z</time><name>PT1357</name></trkpt>
<trkpt lat="52.959811" lon="-3.274777"><ele>271</ele><time>2022-04-15T10:46:01Z</time><name>PT1358</name></trkpt>
<trkpt lat="52.959774" lon="-3.274797"><ele>270</ele><time>2022-04-15T10:46:04Z</time><name>PT1359</name></trkpt>
<trkpt lat="52.959719" lon="-3.274825"><ele>272</ele><time>2022-04-15T10:46:08Z</time><name>PT1360</name></trkpt>
<trkpt lat="52.959691" lon="-3.274832"><ele>272</ele><time>2022-04-15T10:46:11Z</time><name>PT1361</name></trkpt>
<trkpt lat="52.959652" lon="-3.274851"><ele>272</ele><time>2022-04-15T10:46:15Z</time><name>PT1362</name></trkpt>
<trkpt lat="52.959619" lon="-3.274858"><ele>270</ele><time>2022-04-15T10:46:18Z</time><name>PT1363</name></trkpt>
<trkpt lat="52.959572" lon="-3.274906"><ele>272</ele><time>2022-04-15T10:46:22Z</time><name>PT1364</name></trkpt>
<trkpt lat="52.959526" lon="-3.274939"><ele>273</ele><time>2022-04-15T10:46:26Z</time><name>PT1365</name></trkpt>
<trkpt lat="52.959488" lon="-3.274958"><ele>275</ele><time>2022-04-15T10:46:29Z</time><name>PT1366</name></trkpt>
<trkpt lat="52.959442" lon="-3.274990"><ele>275</ele><time>2022-04-15T10:46:33Z</time><name>PT1367</name></trkpt>
<trkpt lat="52.959400" lon="-3.275028"><ele>275</ele><time>2022-04-15T10:46:37Z</time><name>PT1368</name></trkpt>
<trkpt lat="52.959383" lon="-3.275033"><ele>276</ele><time>2022-04-15T10:46:39Z</time><name>PT1369</name></trkpt>
<trkpt lat="52.959369" lon="-3.275040"><ele>276</ele><time>2022-04-15T10:46:40Z</time><name>PT1370</name></trkpt>
<trkpt lat="52.959353" lon="-3.275050"><ele>275</ele><time>2022-04-15T10:46:41Z</time><name>PT1371</name></trkpt>
<trkpt lat="52.959341" lon="-3.275058"><ele>276</ele><time>2022-04-15T10:46:42Z</time><name>PT1372</name></trkpt>
<trkpt lat="52.959330" lon="-3.275070"><ele>276</ele><time>2022-04-15T10:46:43Z</time><name>PT1373</name></trkpt>
<trkpt lat="52.959322" lon="-3.275076"><ele>276</ele><time>2022-04-15T10:46:44Z</time><name>PT1374</name></trkpt>
<trkpt lat="52.959312" lon="-3.275086"><ele>276</ele><time>2022-04-15T10:46:45Z</time><name>PT1375</name></trkpt>
<trkpt lat="52.959298" lon="-3.275096"><ele>276</ele><time>2022-04-15T10:46:46Z</time><name>PT1376</name></trkpt>
<trkpt lat="52.959290" lon="-3.275104"><ele>276</ele><time>2022-04-15T10:46:47Z</time><name>PT1377</name></trkpt>
<trkpt lat="52.959279" lon="-3.275112"><ele>276</ele><time>2022-04-15T10:46:48Z</time><name>PT1378</name></trkpt>
<trkpt lat="52.959265" lon="-3.275122"><ele>276</ele><time>2022-04-15T10:46:49Z</time><name>PT1379</name></trkpt>
<trkpt lat="52.959254" lon="-3.275129"><ele>276</ele><time>2022-04-15T10:46:50Z</time><name>PT1380</name></trkpt>
<trkpt lat="52.959242" lon="-3.275140"><ele>277</ele><time>2022-04-15T10:46:51Z</time><name>PT1381</name></trkpt>
<trkpt lat="52.959233" lon="-3.275140"><ele>277</ele><time>2022-04-15T10:46:52Z</time><name>PT1382</name></trkpt>
<trkpt lat="52.959228" lon="-3.275144"><ele>276</ele><time>2022-04-15T10:46:53Z</time><name>PT1383</name></trkpt>
<trkpt lat="52.959213" lon="-3.275155"><ele>277</ele><time>2022-04-15T10:46:54Z</time><name>PT1384</name></trkpt>
<trkpt lat="52.959203" lon="-3.275155"><ele>277</ele><time>2022-04-15T10:46:55Z</time><name>PT1385</name></trkpt>
<trkpt lat="52.959195" lon="-3.275151"><ele>276</ele><time>2022-04-15T10:46:56Z</time><name>PT1386</name></trkpt>
<trkpt lat="52.959184" lon="-3.275157"><ele>276</ele><time>2022-04-15T10:46:57Z</time><name>PT1387</name></trkpt>
<trkpt lat="52.959175" lon="-3.275162"><ele>276</ele><time>2022-04-15T10:46:58Z</time><name>PT1388</name></trkpt>
<trkpt lat="52.959162" lon="-3.275173"><ele>277</ele><time>2022-04-15T10:46:59Z</time><name>PT1389</name></trkpt>
<trkpt lat="52.959150" lon="-3.275184"><ele>277</ele><time>2022-04-15T10:47:00Z</time><name>PT1390</name></trkpt>
<trkpt lat="52.959144" lon="-3.275184"><ele>276</ele><time>2022-04-15T10:47:01Z</time><name>PT1391</name></trkpt>
<trkpt lat="52.959132" lon="-3.275191"><ele>277</ele><time>2022-04-15T10:47:02Z</time><name>PT1392</name></trkpt>
<trkpt lat="52.959117" lon="-3.275202"><ele>277</ele><time>2022-04-15T10:47:03Z</time><name>PT1393</name></trkpt>
<trkpt lat="52.959103" lon="-3.275213"><ele>277</ele><time>2022-04-15T10:47:04Z</time><name>PT1394</name></trkpt>
<trkpt lat="52.959098" lon="-3.275207"><ele>277</ele><time>2022-04-15T10:47:05Z</time><name>PT1395</name></trkpt>
<trkpt lat="52.959089" lon="-3.275215"><ele>277</ele><time>2022-04-15T10:47:06Z</time><name>PT1396</name></trkpt>
<trkpt lat="52.959078" lon="-3.275220"><ele>276</ele><time>2022-04-15T10:47:07Z</time><name>PT1397</name></trkpt>
<trkpt lat="52.959065" lon="-3.275233"><ele>276</ele><time>2022-04-15T10:47:08Z</time><name>PT1398</name></trkpt>
<trkpt lat="52.959050" lon="-3.275243"><ele>277</ele><time>2022-04-15T10:47:09Z</time><name>PT1399</name></trkpt>
<trkpt lat="52.959039" lon="-3.275245"><ele>277</ele><time>2022-04-15T10:47:10Z</time><name>PT1400</name></trkpt>
<trkpt lat="52.959029" lon="-3.275253"><ele>276</ele><time>2022-04-15T10:47:11Z</time><name>PT1401</name></trkpt>
<trkpt lat="52.959018" lon="-3.275262"><ele>277</ele><time>2022-04-15T10:47:12Z</time><name>PT1402</name></trkpt>
<trkpt lat="52.959005" lon="-3.275268"><ele>277</ele><time>2022-04-15T10:47:13Z</time><name>PT1403</name></trkpt>
<trkpt lat="52.958993" lon="-3.275277"><ele>277</ele><time>2022-04-15T10:47:14Z</time><name>PT1404</name></trkpt>
<trkpt lat="52.958980" lon="-3.275288"><ele>277</ele><time>2022-04-15T10:47:15Z</time><name>PT1405</name></trkpt>
<trkpt lat="52.958970" lon="-3.275293"><ele>278</ele><time>2022-04-15T10:47:16Z</time><name>PT1406</name></trkpt>
<trkpt lat="52.958959" lon="-3.275297"><ele>278</ele><time>2022-04-15T10:47:17Z</time><name>PT1407</name></trkpt>
<trkpt lat="52.958946" lon="-3.275305"><ele>278</ele><time>2022-04-15T10:47:18Z</time><name>PT1408</name></trkpt>
<trkpt lat="52.958934" lon="-3.275309"><ele>278</ele><time>2022-04-15T10:47:19Z</time><name>PT1409</name></trkpt>
<trkpt lat="52.958923" lon="-3.275312"><ele>277</ele><time>2022-04-15T10:47:20Z</time><name>PT1410</name></trkpt>
<trkpt lat="52.958912" lon="-3.275319"><ele>277</ele><time>2022-04-15T10:47:21Z</time><name>PT1411</name></trkpt>
<trkpt lat="52.958900" lon="-3.275329"><ele>278</ele><time>2022-04-15T10:47:22Z</time><name>PT1412</name></trkpt>
<trkpt lat="52.958888" lon="-3.275334"><ele>277</ele><time>2022-04-15T10:47:23Z</time><name>PT1413</name></trkpt>
<trkpt lat="52.958876" lon="-3.275339"><ele>276</ele><time>2022-04-15T10:47:24Z</time><name>PT1414</name></trkpt>
<trkpt lat="52.958864" lon="-3.275343"><ele>276</ele><time>2022-04-15T10:47:25Z</time><name>PT1415</name></trkpt>
<trkpt lat="52.958855" lon="-3.275341"><ele>276</ele><time>2022-04-15T10:47:26Z</time><name>PT1416</name></trkpt>
<trkpt lat="52.958846" lon="-3.275340"><ele>276</ele><time>2022-04-15T10:47:27Z</time><name>PT1417</name></trkpt>
<trkpt lat="52.958835" lon="-3.275346"><ele>276</ele><time>2022-04-15T10:47:28Z</time><name>PT1418</name></trkpt>
<trkpt lat="52.958824" lon="-3.275347"><ele>276</ele><time>2022-04-15T10:47:29Z</time><name>PT1419</name></trkpt>
<trkpt lat="52.958809" lon="-3.275355"><ele>277</ele><time>2022-04-15T10:47:30Z</time><name>PT1420</name></trkpt>
<trkpt lat="52.958795" lon="-3.275363"><ele>277</ele><time>2022-04-15T10:47:31Z</time><name>PT1421</name></trkpt>
<trkpt lat="52.958782" lon="-3.275370"><ele>277</ele><time>2022-04-15T10:47:32Z</time><name>PT1422</name></trkpt>
<trkpt lat="52.958772" lon="-3.275375"><ele>277</ele><time>2022-04-15T10:47:33Z</time><name>PT1423</name></trkpt>
<trkpt lat="52.958762" lon="-3.275379"><ele>277</ele><time>2022-04-15T10:47:34Z</time><name>PT1424</name></trkpt>
<trkpt lat="52.958751" lon="-3.275382"><ele>277</ele><time>2022-04-15T10:47:35Z</time><name>PT1425</name></trkpt>
<trkpt lat="52.958741" lon="-3.275384"><ele>277</ele><time>2022-04-15T10:47:36Z</time><name>PT1426</name></trkpt>
<trkpt lat="52.958735" lon="-3.275371"><ele>276</ele><time>2022-04-15T10:47:37Z</time><name>PT1427</name></trkpt>
<trkpt lat="52.958724" lon="-3.275369"><ele>276</ele><time>2022-04-15T10:47:38Z</time><name>PT1428</name></trkpt>
<trkpt lat="52.958715" lon="-3.275367"><ele>276</ele><time>2022-04-15T10:47:39Z</time><name>PT1429</name></trkpt>
<trkpt lat="52.958702" lon="-3.275369"><ele>276</ele><time>2022-04-15T10:47:40Z</time><name>PT1430</name></trkpt>
<trkpt lat="52.958694" lon="-3.275369"><ele>276</ele><time>2022-04-15T10:47:41Z</time><name>PT1431</name></trkpt>
<trkpt lat="52.958684" lon="-3.275373"><ele>276</ele><time>2022-04-15T10:47:42Z</time><name>PT1432</name></trkpt>
<trkpt lat="52.958672" lon="-3.275375"><ele>276</ele><time>2022-04-15T10:47:43Z</time><name>PT1433</name></trkpt>
<trkpt lat="52.958663" lon="-3.275372"><ele>276</ele><time>2022-04-15T10:47:44Z</time><name>PT1434</name></trkpt>
<trkpt lat="52.958652" lon="-3.275371"><ele>276</ele><time>2022-04-15T10:47:45Z</time><name>PT1435</name></trkpt>
<trkpt lat="52.958643" lon="-3.275372"><ele>275</ele><time>2022-04-15T10:47:46Z</time><name>PT1436</name></trkpt>
<trkpt lat="52.958628" lon="-3.275375"><ele>276</ele><time>2022-04-15T10:47:47Z</time><name>PT1437</name></trkpt>
<trkpt lat="52.958621" lon="-3.275375"><ele>276</ele><time>2022-04-15T10:47:48Z</time><name>PT1438</name></trkpt>
<trkpt lat="52.958612" lon="-3.275382"><ele>276</ele><time>2022-04-15T10:47:49Z</time><name>PT1439</name></trkpt>
<trkpt lat="52.958602" lon="-3.275386"><ele>276</ele><time>2022-04-15T10:47:50Z</time><name>PT1440</name></trkpt>
<trkpt lat="52.958591" lon="-3.275389"><ele>276</ele><time>2022-04-15T10:47:51Z</time><name>PT1441</name></trkpt>
<trkpt lat="52.958577" lon="-3.275392"><ele>277</ele><time>2022-04-15T10:47:52Z</time><name>PT1442</name></trkpt>
<trkpt lat="52.958566" lon="-3.275392"><ele>276</ele><time>2022-04-15T10:47:53Z</time><name>PT1443</name></trkpt>
<trkpt lat="52.958555" lon="-3.275386"><ele>276</ele><time>2022-04-15T10:47:54Z</time><name>PT1444</name></trkpt>
<trkpt lat="52.958542" lon="-3.275386"><ele>276</ele><time>2022-04-15T10:47:55Z</time><name>PT1445</name></trkpt>
<trkpt lat="52.958530" lon="-3.275388"><ele>277</ele><time>2022-04-15T10:47:56Z</time><name>PT1446</name></trkpt>
<trkpt lat="52.958517" lon="-3.275393"><ele>277</ele><time>2022-04-15T10:47:57Z</time><name>PT1447</name></trkpt>
<trkpt lat="52.958507" lon="-3.275394"><ele>277</ele><time>2022-04-15T10:47:58Z</time><name>PT1448</name></trkpt>
<trkpt lat="52.958498" lon="-3.275392"><ele>276</ele><time>2022-04-15T10:47:59Z</time><name>PT1449</name></trkpt>
<trkpt lat="52.958483" lon="-3.275394"><ele>276</ele><time>2022-04-15T10:48:00Z</time><name>PT1450</name></trkpt>
<trkpt lat="52.958473" lon="-3.275396"><ele>276</ele><time>2022-04-15T10:48:01Z</time><name>PT1451</name></trkpt>
<trkpt lat="52.958463" lon="-3.275397"><ele>276</ele><time>2022-04-15T10:48:02Z</time><name>PT1452</name></trkpt>
<trkpt lat="52.958449" lon="-3.275396"><ele>277</ele><time>2022-04-15T10:48:03Z</time><name>PT1453</name></trkpt>
<trkpt lat="52.958435" lon="-3.275395"><ele>277</ele><time>2022-04-15T10:48:04Z</time><name>PT1454</name></trkpt>
<trkpt lat="52.958423" lon="-3.275395"><ele>277</ele><time>2022-04-15T10:48:05Z</time><name>PT1455</name></trkpt>
<trkpt lat="52.958414" lon="-3.275387"><ele>278</ele><time>2022-04-15T10:48:06Z</time><name>PT1456</name></trkpt>
<trkpt lat="52.958399" lon="-3.275392"><ele>279</ele><time>2022-04-15T10:48:07Z</time><name>PT1457</name></trkpt>
<trkpt lat="52.958386" lon="-3.275398"><ele>280</ele><time>2022-04-15T10:48:08Z</time><name>PT1458</name></trkpt>
<trkpt lat="52.958373" lon="-3.275411"><ele>281</ele><time>2022-04-15T10:48:09Z</time><name>PT1459</name></trkpt>
<trkpt lat="52.958365" lon="-3.275408"><ele>281</ele><time>2022-04-15T10:48:10Z</time><name>PT1460</name></trkpt>
<trkpt lat="52.958353" lon="-3.275407"><ele>282</ele><time>2022-04-15T10:48:11Z</time><name>PT1461</name></trkpt>
<trkpt lat="52.958341" lon="-3.275408"><ele>283</ele><time>2022-04-15T10:48:12Z</time><name>PT1462</name></trkpt>
<trkpt lat="52.958329" lon="-3.275410"><ele>283</ele><time>2022-04-15T10:48:13Z</time><name>PT1463</name></trkpt>
<trkpt lat="52.958314" lon="-3.275421"><ele>284</ele><time>2022-04-15T10:48:14Z</time><name>PT1464</name></trkpt>
<trkpt lat="52.958301" lon="-3.275422"><ele>285</ele><time>2022-04-15T10:48:15Z</time><name>PT1465</name></trkpt>
<trkpt lat="52.958290" lon="-3.275416"><ele>286</ele><time>2022-04-15T10:48:16Z</time><name>PT1466</name></trkpt>
<trkpt lat="52.958278" lon="-3.275414"><ele>286</ele><time>2022-04-15T10:48:17Z</time><name>PT1467</name></trkpt>
<trkpt lat="52.958271" lon="-3.275405"><ele>285</ele><time>2022-04-15T10:48:18Z</time><name>PT1468</name></trkpt>
<trkpt lat="52.958258" lon="-3.275403"><ele>285</ele><time>2022-04-15T10:48:19Z</time><name>PT1469</name></trkpt>
<trkpt lat="52.958248" lon="-3.275403"><ele>286</ele><time>2022-04-15T10:48:20Z</time><name>PT1470</name></trkpt>
<trkpt lat="52.958238" lon="-3.275400"><ele>285</ele><time>2022-04-15T10:48:21Z</time><name>PT1471</name></trkpt>
<trkpt lat="52.958226" lon="-3.275404"><ele>287</ele><time>2022-04-15T10:48:22Z</time><name>PT1472</name></trkpt>
<trkpt lat="52.958215" lon="-3.275412"><ele>289</ele><time>2022-04-15T10:48:23Z</time><name>PT1473</name></trkpt>
<trkpt lat="52.958206" lon="-3.275408"><ele>290</ele><time>2022-04-15T10:48:24Z</time><name>PT1474</name></trkpt>
<trkpt lat="52.958197" lon="-3.275402"><ele>290</ele><time>2022-04-15T10:48:25Z</time><name>PT1475</name></trkpt>
<trkpt lat="52.958184" lon="-3.275398"><ele>291</ele><time>2022-04-15T10:48:26Z</time><name>PT1476</name></trkpt>
<trkpt lat="52.958171" lon="-3.275395"><ele>292</ele><time>2022-04-15T10:48:27Z</time><name>PT1477</name></trkpt>
<trkpt lat="52.958162" lon="-3.275392"><ele>291</ele><time>2022-04-15T10:48:28Z</time><name>PT1478</name></trkpt>
<trkpt lat="52.958152" lon="-3.275394"><ele>291</ele><time>2022-04-15T10:48:29Z</time><name>PT1479</name></trkpt>
<trkpt lat="52.958140" lon="-3.275392"><ele>291</ele><time>2022-04-15T10:48:30Z</time><name>PT1480</name></trkpt>
<trkpt lat="52.958129" lon="-3.275382"><ele>291</ele><time>2022-04-15T10:48:31Z</time><name>PT1481</name></trkpt>
<trkpt lat="52.958114" lon="-3.275380"><ele>292</ele><time>2022-04-15T10:48:32Z</time><name>PT1482</name></trkpt>
<trkpt lat="52.958101" lon="-3.275378"><ele>292</ele><time>2022-04-15T10:48:33Z</time><name>PT1483</name></trkpt>
<trkpt lat="52.958094" lon="-3.275367"><ele>292</ele><time>2022-04-15T10:48:34Z</time><name>PT1484</name></trkpt>
<trkpt lat="52.958085" lon="-3.275366"><ele>292</ele><time>2022-04-15T10:48:35Z</time><name>PT1485</name></trkpt>
<trkpt lat="52.958077" lon="-3.275362"><ele>291</ele><time>2022-04-15T10:48:36Z</time><name>PT1486</name></trkpt>
<trkpt lat="52.958068" lon="-3.275363"><ele>290</ele><time>2022-04-15T10:48:37Z</time><name>PT1487</name></trkpt>
<trkpt lat="52.958057" lon="-3.275366"><ele>291</ele><time>2022-04-15T10:48:38Z</time><name>PT1488</name></trkpt>
<trkpt lat="52.958024" lon="-3.275353"><ele>290</ele><time>2022-04-15T10:48:42Z</time><name>PT1489</name></trkpt>
<trkpt lat="52.957996" lon="-3.275360"><ele>290</ele><time>2022-04-15T10:48:45Z</time><name>PT1490</name></trkpt>
<trkpt lat="52.957963" lon="-3.275361"><ele>290</ele><time>2022-04-15T10:48:49Z</time><name>PT1491</name></trkpt>
<trkpt lat="52.957937" lon="-3.275328"><ele>289</ele><time>2022-04-15T10:48:52Z</time><name>PT1492</name></trkpt>
<trkpt lat="52.957915" lon="-3.275306"><ele>289</ele><time>2022-04-15T10:48:55Z</time><name>PT1493</name></trkpt>
<trkpt lat="52.957883" lon="-3.275300"><ele>288</ele><time>2022-04-15T10:48:59Z</time><name>PT1494</name></trkpt>
<trkpt lat="52.957849" lon="-3.275310"><ele>290</ele><time>2022-04-15T10:49:02Z</time><name>PT1495</name></trkpt>
<trkpt lat="52.957802" lon="-3.275293"><ele>290</ele><time>2022-04-15T10:49:06Z</time><name>PT1496</name></trkpt>
<trkpt lat="52.957767" lon="-3.275316"><ele>294</ele><time>2022-04-15T10:49:09Z</time><name>PT1497</name></trkpt>
<trkpt lat="52.957737" lon="-3.275327"><ele>295</ele><time>2022-04-15T10:49:12Z</time><name>PT1498</name></trkpt>
<trkpt lat="52.957701" lon="-3.275319"><ele>295</ele><time>2022-04-15T10:49:16Z</time><name>PT1499</name></trkpt>
<trkpt lat="52.957671" lon="-3.275323"><ele>297</ele><time>2022-04-15T10:49:19Z</time><name>PT1500</name></trkpt>
<trkpt lat="52.957626" lon="-3.275347"><ele>298</ele><time>2022-04-15T10:49:23Z</time><name>PT1501</name></trkpt>
<trkpt lat="52.957602" lon="-3.275344"><ele>298</ele><time>2022-04-15T10:49:26Z</time><name>PT1502</name></trkpt>
<trkpt lat="52.957580" lon="-3.275329"><ele>298</ele><time>2022-04-15T10:49:30Z</time><name>PT1503</name></trkpt>
<trkpt lat="52.957551" lon="-3.275329"><ele>298</ele><time>2022-04-15T10:49:34Z</time><name>PT1504</name></trkpt>
<trkpt lat="52.957524" lon="-3.275324"><ele>299</ele><time>2022-04-15T10:49:37Z</time><name>PT1505</name></trkpt>
<trkpt lat="52.957494" lon="-3.275321"><ele>300</ele><time>2022-04-15T10:49:40Z</time><name>PT1506</name></trkpt>
<trkpt lat="52.957465" lon="-3.275324"><ele>301</ele><time>2022-04-15T10:49:43Z</time><name>PT1507</name></trkpt>
<trkpt lat="52.957432" lon="-3.275324"><ele>302</ele><time>2022-04-15T10:49:46Z</time><name>PT1508</name></trkpt>
<trkpt lat="52.957395" lon="-3.275314"><ele>302</ele><time>2022-04-15T10:49:50Z</time><name>PT1509</name></trkpt>
<trkpt lat="52.957355" lon="-3.275301"><ele>302</ele><time>2022-04-15T10:49:54Z</time><name>PT1510</name></trkpt>
<trkpt lat="52.957330" lon="-3.275287"><ele>301</ele><time>2022-04-15T10:49:57Z</time><name>PT1511</name></trkpt>
<trkpt lat="52.957312" lon="-3.275288"><ele>301</ele><time>2022-04-15T10:50:00Z</time><name>PT1512</name></trkpt>
<trkpt lat="52.957291" lon="-3.275281"><ele>301</ele><time>2022-04-15T10:50:03Z</time><name>PT1513</name></trkpt>
<trkpt lat="52.957260" lon="-3.275273"><ele>302</ele><time>2022-04-15T10:50:07Z</time><name>PT1514</name></trkpt>
<trkpt lat="52.957219" lon="-3.275274"><ele>304</ele><time>2022-04-15T10:50:11Z</time><name>PT1515</name></trkpt>
<trkpt lat="52.957188" lon="-3.275269"><ele>304</ele><time>2022-04-15T10:50:14Z</time><name>PT1516</name></trkpt>
<trkpt lat="52.957164" lon="-3.275257"><ele>304</ele><time>2022-04-15T10:50:17Z</time><name>PT1517</name></trkpt>
<trkpt lat="52.957130" lon="-3.275250"><ele>305</ele><time>2022-04-15T10:50:21Z</time><name>PT1518</name></trkpt>
<trkpt lat="52.957110" lon="-3.275243"><ele>305</ele><time>2022-04-15T10:50:24Z</time><name>PT1519</name></trkpt>
<trkpt lat="52.957081" lon="-3.275232"><ele>305</ele><time>2022-04-15T10:50:27Z</time><name>PT1520</name></trkpt>
<trkpt lat="52.957050" lon="-3.275226"><ele>305</ele><time>2022-04-15T10:50:30Z</time><name>PT1521</name></trkpt>
<trkpt lat="52.957004" lon="-3.275234"><ele>307</ele><time>2022-04-15T10:50:34Z</time><name>PT1522</name></trkpt>
<trkpt lat="52.956958" lon="-3.275235"><ele>307</ele><time>2022-04-15T10:50:38Z</time><name>PT1523</name></trkpt>
<trkpt lat="52.956929" lon="-3.275230"><ele>306</ele><time>2022-04-15T10:50:41Z</time><name>PT1524</name></trkpt>
<trkpt lat="52.956899" lon="-3.275233"><ele>306</ele><time>2022-04-15T10:50:44Z</time><name>PT1525</name></trkpt>
<trkpt lat="52.956855" lon="-3.275246"><ele>307</ele><time>2022-04-15T10:50:48Z</time><name>PT1526</name></trkpt>
<trkpt lat="52.956818" lon="-3.275248"><ele>306</ele><time>2022-04-15T10:50:52Z</time><name>PT1527</name></trkpt>
<trkpt lat="52.956782" lon="-3.275259"><ele>307</ele><time>2022-04-15T10:50:55Z</time><name>PT1528</name></trkpt>
<trkpt lat="52.956747" lon="-3.275273"><ele>307</ele><time>2022-04-15T10:50:58Z</time><name>PT1529</name></trkpt>
<trkpt lat="52.956702" lon="-3.275288"><ele>307</ele><time>2022-04-15T10:51:02Z</time><name>PT1530</name></trkpt>
<trkpt lat="52.956671" lon="-3.275291"><ele>307</ele><time>2022-04-15T10:51:05Z</time><name>PT1531</name></trkpt>
<trkpt lat="52.956636" lon="-3.275306"><ele>308</ele><time>2022-04-15T10:51:08Z</time><name>PT1532</name></trkpt>
<trkpt lat="52.956599" lon="-3.275319"><ele>309</ele><time>2022-04-15T10:51:11Z</time><name>PT1533</name></trkpt>
<trkpt lat="52.956559" lon="-3.275328"><ele>308</ele><time>2022-04-15T10:51:15Z</time><name>PT1534</name></trkpt>
<trkpt lat="52.956516" lon="-3.275346"><ele>309</ele><time>2022-04-15T10:51:19Z</time><name>PT1535</name></trkpt>
<trkpt lat="52.956478" lon="-3.275352"><ele>309</ele><time>2022-04-15T10:51:23Z</time><name>PT1536</name></trkpt>
<trkpt lat="52.956434" lon="-3.275360"><ele>309</ele><time>2022-04-15T10:51:27Z</time><name>PT1537</name></trkpt>
<trkpt lat="52.956395" lon="-3.275351"><ele>309</ele><time>2022-04-15T10:51:31Z</time><name>PT1538</name></trkpt>
<trkpt lat="52.956362" lon="-3.275345"><ele>309</ele><time>2022-04-15T10:51:35Z</time><name>PT1539</name></trkpt>
<trkpt lat="52.956331" lon="-3.275349"><ele>309</ele><time>2022-04-15T10:51:38Z</time><name>PT1540</name></trkpt>
<trkpt lat="52.956285" lon="-3.275360"><ele>309</ele><time>2022-04-15T10:51:42Z</time><name>PT1541</name></trkpt>
<trkpt lat="52.956246" lon="-3.275360"><ele>310</ele><time>2022-04-15T10:51:46Z</time><name>PT1542</name></trkpt>
<trkpt lat="52.956217" lon="-3.275359"><ele>311</ele><time>2022-04-15T10:51:49Z</time><name>PT1543</name></trkpt>
<trkpt lat="52.956177" lon="-3.275355"><ele>312</ele><time>2022-04-15T10:51:53Z</time><name>PT1544</name></trkpt>
<trkpt lat="52.956145" lon="-3.275352"><ele>312</ele><time>2022-04-15T10:51:56Z</time><name>PT1545</name></trkpt>
<trkpt lat="52.956104" lon="-3.275355"><ele>312</ele><time>2022-04-15T10:52:00Z</time><name>PT1546</name></trkpt>
<trkpt lat="52.956072" lon="-3.275360"><ele>313</ele><time>2022-04-15T10:52:03Z</time><name>PT1547</name></trkpt>
<trkpt lat="52.956026" lon="-3.275370"><ele>314</ele><time>2022-04-15T10:52:07Z</time><name>PT1548</name></trkpt>
<trkpt lat="52.955992" lon="-3.275385"><ele>314</ele><time>2022-04-15T10:52:10Z</time><name>PT1549</name></trkpt>
<trkpt lat="52.955949" lon="-3.275400"><ele>314</ele><time>2022-04-15T10:52:14Z</time><name>PT1550</name></trkpt>
<trkpt lat="52.955921" lon="-3.275402"><ele>314</ele><time>2022-04-15T10:52:18Z</time><name>PT1551</name></trkpt>
<trkpt lat="52.955875" lon="-3.275404"><ele>315</ele><time>2022-04-15T10:52:21Z</time><name>PT1552</name></trkpt>
<trkpt lat="52.955832" lon="-3.275407"><ele>316</ele><time>2022-04-15T10:52:25Z</time><name>PT1553</name></trkpt>
<trkpt lat="52.955799" lon="-3.275417"><ele>316</ele><time>2022-04-15T10:52:28Z</time><name>PT1554</name></trkpt>
<trkpt lat="52.955773" lon="-3.275418"><ele>316</ele><time>2022-04-15T10:52:31Z</time><name>PT1555</name></trkpt>
<trkpt lat="52.955737" lon="-3.275413"><ele>317</ele><time>2022-04-15T10:52:35Z</time><name>PT1556</name></trkpt>
<trkpt lat="52.955694" lon="-3.275409"><ele>317</ele><time>2022-04-15T10:52:39Z</time><name>PT1557</name></trkpt>
<trkpt lat="52.955655" lon="-3.275420"><ele>318</ele><time>2022-04-15T10:52:43Z</time><name>PT1558</name></trkpt>
<trkpt lat="52.955626" lon="-3.275420"><ele>317</ele><time>2022-04-15T10:52:46Z</time><name>PT1559</name></trkpt>
<trkpt lat="52.955583" lon="-3.275426"><ele>318</ele><time>2022-04-15T10:52:50Z</time><name>PT1560</name></trkpt>
<trkpt lat="52.955552" lon="-3.275426"><ele>318</ele><time>2022-04-15T10:52:53Z</time><name>PT1561</name></trkpt>
<trkpt lat="52.955512" lon="-3.275427"><ele>319</ele><time>2022-04-15T10:52:57Z</time><name>PT1562</name></trkpt>
<trkpt lat="52.955466" lon="-3.275435"><ele>320</ele><time>2022-04-15T10:53:01Z</time><name>PT1563</name></trkpt>
<trkpt lat="52.955427" lon="-3.275443"><ele>321</ele><time>2022-04-15T10:53:04Z</time><name>PT1564</name></trkpt>
<trkpt lat="52.955388" lon="-3.275439"><ele>320</ele><time>2022-04-15T10:53:08Z</time><name>PT1565</name></trkpt>
<trkpt lat="52.955345" lon="-3.275436"><ele>320</ele><time>2022-04-15T10:53:12Z</time><name>PT1566</name></trkpt>
<trkpt lat="52.955315" lon="-3.275434"><ele>320</ele><time>2022-04-15T10:53:15Z</time><name>PT1567</name></trkpt>
<trkpt lat="52.955266" lon="-3.275441"><ele>320</ele><time>2022-04-15T10:53:19Z</time><name>PT1568</name></trkpt>
<trkpt lat="52.955226" lon="-3.275456"><ele>320</ele><time>2022-04-15T10:53:23Z</time><name>PT1569</name></trkpt>
<trkpt lat="52.955198" lon="-3.275469"><ele>320</ele><time>2022-04-15T10:53:26Z</time><name>PT1570</name></trkpt>
<trkpt lat="52.955168" lon="-3.275474"><ele>321</ele><time>2022-04-15T10:53:30Z</time><name>PT1571</name></trkpt>
<trkpt lat="52.955169" lon="-3.275464"><ele>320</ele><time>2022-04-15T10:53:33Z</time><name>PT1572</name></trkpt>
<trkpt lat="52.955166" lon="-3.275461"><ele>320</ele><time>2022-04-15T10:53:34Z</time><name>PT1573</name></trkpt>
<trkpt lat="52.955166" lon="-3.275454"><ele>319</ele><time>2022-04-15T10:53:35Z</time><name>PT1574</name></trkpt>
<trkpt lat="52.955167" lon="-3.275451"><ele>319</ele><time>2022-04-15T10:53:36Z</time><name>PT1575</name></trkpt>
<trkpt lat="52.955166" lon="-3.275450"><ele>319</ele><time>2022-04-15T10:53:37Z</time><name>PT1576</name></trkpt>
<trkpt lat="52.955163" lon="-3.275444"><ele>319</ele><time>2022-04-15T10:53:40Z</time><name>PT1577</name></trkpt>
<trkpt lat="52.955166" lon="-3.275432"><ele>319</ele><time>2022-04-15T10:53:41Z</time><name>PT1578</name></trkpt>
<trkpt lat="52.955168" lon="-3.275420"><ele>319</ele><time>2022-04-15T10:53:42Z</time><name>PT1579</name></trkpt>
<trkpt lat="52.955170" lon="-3.275417"><ele>319</ele><time>2022-04-15T10:53:43Z</time><name>PT1580</name></trkpt>
<trkpt lat="52.955172" lon="-3.275417"><ele>319</ele><time>2022-04-15T10:53:44Z</time><name>PT1581</name></trkpt>
<trkpt lat="52.955172" lon="-3.275416"><ele>319</ele><time>2022-04-15T10:53:45Z</time><name>PT1582</name></trkpt>
<trkpt lat="52.955174" lon="-3.275419"><ele>319</ele><time>2022-04-15T10:53:46Z</time><name>PT1583</name></trkpt>
<trkpt lat="52.955182" lon="-3.275424"><ele>320</ele><time>2022-04-15T10:53:47Z</time><name>PT1584</name></trkpt>
<trkpt lat="52.955186" lon="-3.275429"><ele>320</ele><time>2022-04-15T10:53:48Z</time><name>PT1585</name></trkpt>
<trkpt lat="52.955190" lon="-3.275426"><ele>320</ele><time>2022-04-15T10:53:49Z</time><name>PT1586</name></trkpt>
<trkpt lat="52.955192" lon="-3.275437"><ele>321</ele><time>2022-04-15T10:54:34Z</time><name>PT1587</name></trkpt>
<trkpt lat="52.955190" lon="-3.275433"><ele>322</ele><time>2022-04-15T10:54:35Z</time><name>PT1588</name></trkpt>
<trkpt lat="52.955188" lon="-3.275429"><ele>322</ele><time>2022-04-15T10:54:36Z</time><name>PT1589</name></trkpt>
<trkpt lat="52.955187" lon="-3.275431"><ele>322</ele><time>2022-04-15T10:55:59Z</time><name>PT1590</name></trkpt>
<trkpt lat="52.955181" lon="-3.275426"><ele>322</ele><time>2022-04-15T10:56:02Z</time><name>PT1591</name></trkpt>
<trkpt lat="52.955186" lon="-3.275433"><ele>322</ele><time>2022-04-15T10:56:18Z</time><name>PT1592</name></trkpt>
<trkpt lat="52.955184" lon="-3.275435"><ele>322</ele><time>2022-04-15T10:56:22Z</time><name>PT1593</name></trkpt>
<trkpt lat="52.955192" lon="-3.275455"><ele>324</ele><time>2022-04-15T10:58:58Z</time><name>PT1594</name></trkpt>
<trkpt lat="52.955191" lon="-3.275451"><ele>324</ele><time>2022-04-15T10:59:05Z</time><name>PT1595</name></trkpt>
<trkpt lat="52.955188" lon="-3.275442"><ele>325</ele><time>2022-04-15T10:59:53Z</time><name>PT1596</name></trkpt>
<trkpt lat="52.955182" lon="-3.275433"><ele>327</ele><time>2022-04-15T10:59:56Z</time><name>PT1597</name></trkpt>
<trkpt lat="52.955180" lon="-3.275428"><ele>327</ele><time>2022-04-15T11:00:00Z</time><name>PT1598</name></trkpt>
<trkpt lat="52.955182" lon="-3.275433"><ele>327</ele><time>2022-04-15T11:01:11Z</time><name>PT1599</name></trkpt>
<trkpt lat="52.955182" lon="-3.275434"><ele>327</ele><time>2022-04-15T11:01:15Z</time><name>PT1600</name></trkpt>
<trkpt lat="52.955189" lon="-3.275419"><ele>325</ele><time>2022-04-15T11:03:04Z</time><name>PT1601</name></trkpt>
<trkpt lat="52.955191" lon="-3.275419"><ele>325</ele><time>2022-04-15T11:03:08Z</time><name>PT1602</name></trkpt>
<trkpt lat="52.955187" lon="-3.275424"><ele>326</ele><time>2022-04-15T11:03:33Z</time><name>PT1603</name></trkpt>
<trkpt lat="52.955181" lon="-3.275423"><ele>326</ele><time>2022-04-15T11:03:34Z</time><name>PT1604</name></trkpt>
<trkpt lat="52.955184" lon="-3.275434"><ele>326</ele><time>2022-04-15T11:05:02Z</time><name>PT1605</name></trkpt>
<trkpt lat="52.955184" lon="-3.275433"><ele>326</ele><time>2022-04-15T11:05:03Z</time><name>PT1606</name></trkpt>
<trkpt lat="52.955187" lon="-3.275420"><ele>326</ele><time>2022-04-15T11:05:39Z</time><name>PT1607</name></trkpt>
<trkpt lat="52.955184" lon="-3.275424"><ele>326</ele><time>2022-04-15T11:05:42Z</time><name>PT1608</name></trkpt>
<trkpt lat="52.955176" lon="-3.275408"><ele>326</ele><time>2022-04-15T11:05:45Z</time><name>PT1609</name></trkpt>
<trkpt lat="52.955178" lon="-3.275397"><ele>325</ele><time>2022-04-15T11:05:58Z</time><name>PT1610</name></trkpt>
<trkpt lat="52.955178" lon="-3.275399"><ele>325</ele><time>2022-04-15T11:05:59Z</time><name>PT1611</name></trkpt>
<trkpt lat="52.955175" lon="-3.275401"><ele>325</ele><time>2022-04-15T11:06:00Z</time><name>PT1612</name></trkpt>
<trkpt lat="52.955160" lon="-3.275405"><ele>324</ele><time>2022-04-15T11:06:58Z</time><name>PT1613</name></trkpt>
<trkpt lat="52.955155" lon="-3.275418"><ele>324</ele><time>2022-04-15T11:06:59Z</time><name>PT1614</name></trkpt>
<trkpt lat="52.955153" lon="-3.275430"><ele>324</ele><time>2022-04-15T11:07:04Z</time><name>PT1615</name></trkpt>
<trkpt lat="52.955144" lon="-3.275434"><ele>324</ele><time>2022-04-15T11:07:05Z</time><name>PT1616</name></trkpt>
<trkpt lat="52.955133" lon="-3.275436"><ele>323</ele><time>2022-04-15T11:07:06Z</time><name>PT1617</name></trkpt>
<trkpt lat="52.955130" lon="-3.275437"><ele>323</ele><time>2022-04-15T11:07:07Z</time><name>PT1618</name></trkpt>
<trkpt lat="52.955130" lon="-3.275440"><ele>323</ele><time>2022-04-15T11:07:08Z</time><name>PT1619</name></trkpt>
<trkpt lat="52.955133" lon="-3.275446"><ele>323</ele><time>2022-04-15T11:07:09Z</time><name>PT1620</name></trkpt>
<trkpt lat="52.955134" lon="-3.275452"><ele>323</ele><time>2022-04-15T11:07:10Z</time><name>PT1621</name></trkpt>
<trkpt lat="52.955133" lon="-3.275456"><ele>323</ele><time>2022-04-15T11:07:11Z</time><name>PT1622</name></trkpt>
<trkpt lat="52.955130" lon="-3.275460"><ele>323</ele><time>2022-04-15T11:07:12Z</time><name>PT1623</name></trkpt>
<trkpt lat="52.955128" lon="-3.275466"><ele>323</ele><time>2022-04-15T11:07:13Z</time><name>PT1624</name></trkpt>
<trkpt lat="52.955132" lon="-3.275470"><ele>323</ele><time>2022-04-15T11:07:14Z</time><name>PT1625</name></trkpt>
<trkpt lat="52.955132" lon="-3.275472"><ele>323</ele><time>2022-04-15T11:07:15Z</time><name>PT1626</name></trkpt>
<trkpt lat="52.955130" lon="-3.275474"><ele>323</ele><time>2022-04-15T11:07:16Z</time><name>PT1627</name></trkpt>
<trkpt lat="52.955124" lon="-3.275481"><ele>323</ele><time>2022-04-15T11:07:20Z</time><name>PT1628</name></trkpt>
<trkpt lat="52.955110" lon="-3.275495"><ele>323</ele><time>2022-04-15T11:07:21Z</time><name>PT1629</name></trkpt>
<trkpt lat="52.955103" lon="-3.275511"><ele>323</ele><time>2022-04-15T11:07:22Z</time><name>PT1630</name></trkpt>
<trkpt lat="52.955092" lon="-3.275527"><ele>322</ele><time>2022-04-15T11:07:23Z</time><name>PT1631</name></trkpt>
<trkpt lat="52.955080" lon="-3.275543"><ele>322</ele><time>2022-04-15T11:07:24Z</time><name>PT1632</name></trkpt>
<trkpt lat="52.955072" lon="-3.275555"><ele>323</ele><time>2022-04-15T11:07:25Z</time><name>PT1633</name></trkpt>
<trkpt lat="52.955061" lon="-3.275570"><ele>322</ele><time>2022-04-15T11:07:26Z</time><name>PT1634</name></trkpt>
<trkpt lat="52.955055" lon="-3.275581"><ele>322</ele><time>2022-04-15T11:07:27Z</time><name>PT1635</name></trkpt>
<trkpt lat="52.955043" lon="-3.275593"><ele>322</ele><time>2022-04-15T11:07:28Z</time><name>PT1636</name></trkpt>
<trkpt lat="52.955035" lon="-3.275606"><ele>322</ele><time>2022-04-15T11:07:29Z</time><name>PT1637</name></trkpt>
<trkpt lat="52.955027" lon="-3.275620"><ele>322</ele><time>2022-04-15T11:07:30Z</time><name>PT1638</name></trkpt>
<trkpt lat="52.955019" lon="-3.275639"><ele>322</ele><time>2022-04-15T11:07:31Z</time><name>PT1639</name></trkpt>
<trkpt lat="52.955013" lon="-3.275649"><ele>322</ele><time>2022-04-15T11:07:32Z</time><name>PT1640</name></trkpt>
<trkpt lat="52.955005" lon="-3.275662"><ele>322</ele><time>2022-04-15T11:07:33Z</time><name>PT1641</name></trkpt>
<trkpt lat="52.954997" lon="-3.275675"><ele>322</ele><time>2022-04-15T11:07:34Z</time><name>PT1642</name></trkpt>
<trkpt lat="52.954992" lon="-3.275687"><ele>321</ele><time>2022-04-15T11:07:35Z</time><name>PT1643</name></trkpt>
<trkpt lat="52.954986" lon="-3.275699"><ele>322</ele><time>2022-04-15T11:07:36Z</time><name>PT1644</name></trkpt>
<trkpt lat="52.954978" lon="-3.275707"><ele>322</ele><time>2022-04-15T11:07:37Z</time><name>PT1645</name></trkpt>
<trkpt lat="52.954968" lon="-3.275715"><ele>322</ele><time>2022-04-15T11:07:38Z</time><name>PT1646</name></trkpt>
<trkpt lat="52.954962" lon="-3.275728"><ele>322</ele><time>2022-04-15T11:07:39Z</time><name>PT1647</name></trkpt>
<trkpt lat="52.954958" lon="-3.275737"><ele>322</ele><time>2022-04-15T11:07:40Z</time><name>PT1648</name></trkpt>
<trkpt lat="52.954954" lon="-3.275745"><ele>322</ele><time>2022-04-15T11:07:41Z</time><name>PT1649</name></trkpt>
<trkpt lat="52.954951" lon="-3.275758"><ele>323</ele><time>2022-04-15T11:07:42Z</time><name>PT1650</name></trkpt>
<trkpt lat="52.954946" lon="-3.275774"><ele>323</ele><time>2022-04-15T11:07:43Z</time><name>PT1651</name></trkpt>
<trkpt lat="52.954941" lon="-3.275788"><ele>323</ele><time>2022-04-15T11:07:44Z</time><name>PT1652</name></trkpt>
<trkpt lat="52.954939" lon="-3.275796"><ele>324</ele><time>2022-04-15T11:07:45Z</time><name>PT1653</name></trkpt>
<trkpt lat="52.954934" lon="-3.275803"><ele>323</ele><time>2022-04-15T11:07:46Z</time><name>PT1654</name></trkpt>
<trkpt lat="52.954928" lon="-3.275806"><ele>323</ele><time>2022-04-15T11:07:47Z</time><name>PT1655</name></trkpt>
<trkpt lat="52.954925" lon="-3.275810"><ele>323</ele><time>2022-04-15T11:07:48Z</time><name>PT1656</name></trkpt>
<trkpt lat="52.954919" lon="-3.275820"><ele>323</ele><time>2022-04-15T11:07:49Z</time><name>PT1657</name></trkpt>
<trkpt lat="52.954911" lon="-3.275832"><ele>324</ele><time>2022-04-15T11:07:50Z</time><name>PT1658</name></trkpt>
<trkpt lat="52.954906" lon="-3.275843"><ele>324</ele><time>2022-04-15T11:07:51Z</time><name>PT1659</name></trkpt>
<trkpt lat="52.954903" lon="-3.275854"><ele>324</ele><time>2022-04-15T11:07:52Z</time><name>PT1660</name></trkpt>
<trkpt lat="52.954902" lon="-3.275866"><ele>325</ele><time>2022-04-15T11:07:53Z</time><name>PT1661</name></trkpt>
<trkpt lat="52.954896" lon="-3.275877"><ele>325</ele><time>2022-04-15T11:07:54Z</time><name>PT1662</name></trkpt>
<trkpt lat="52.954890" lon="-3.275889"><ele>325</ele><time>2022-04-15T11:07:55Z</time><name>PT1663</name></trkpt>
<trkpt lat="52.954886" lon="-3.275904"><ele>325</ele><time>2022-04-15T11:07:56Z</time><name>PT1664</name></trkpt>
<trkpt lat="52.954882" lon="-3.275915"><ele>325</ele><time>2022-04-15T11:07:57Z</time><name>PT1665</name></trkpt>
<trkpt lat="52.954875" lon="-3.275926"><ele>325</ele><time>2022-04-15T11:07:58Z</time><name>PT1666</name></trkpt>
<trkpt lat="52.954872" lon="-3.275937"><ele>325</ele><time>2022-04-15T11:07:59Z</time><name>PT1667</name></trkpt>
<trkpt lat="52.954867" lon="-3.275952"><ele>325</ele><time>2022-04-15T11:08:00Z</time><name>PT1668</name></trkpt>
<trkpt lat="52.954861" lon="-3.275966"><ele>326</ele><time>2022-04-15T11:08:01Z</time><name>PT1669</name></trkpt>
<trkpt lat="52.954856" lon="-3.275978"><ele>326</ele><time>2022-04-15T11:08:02Z</time><name>PT1670</name></trkpt>
<trkpt lat="52.954849" lon="-3.275992"><ele>325</ele><time>2022-04-15T11:08:03Z</time><name>PT1671</name></trkpt>
<trkpt lat="52.954842" lon="-3.276008"><ele>325</ele><time>2022-04-15T11:08:04Z</time><name>PT1672</name></trkpt>
<trkpt lat="52.954834" lon="-3.276027"><ele>326</ele><time>2022-04-15T11:08:05Z</time><name>PT1673</name></trkpt>
<trkpt lat="52.954827" lon="-3.276043"><ele>327</ele><time>2022-04-15T11:08:06Z</time><name>PT1674</name></trkpt>
<trkpt lat="52.954824" lon="-3.276059"><ele>327</ele><time>2022-04-15T11:08:07Z</time><name>PT1675</name></trkpt>
<trkpt lat="52.954821" lon="-3.276075"><ele>327</ele><time>2022-04-15T11:08:08Z</time><name>PT1676</name></trkpt>
<trkpt lat="52.954814" lon="-3.276092"><ele>326</ele><time>2022-04-15T11:08:09Z</time><name>PT1677</name></trkpt>
<trkpt lat="52.954811" lon="-3.276109"><ele>326</ele><time>2022-04-15T11:08:10Z</time><name>PT1678</name></trkpt>
<trkpt lat="52.954809" lon="-3.276127"><ele>326</ele><time>2022-04-15T11:08:11Z</time><name>PT1679</name></trkpt>
<trkpt lat="52.954806" lon="-3.276143"><ele>327</ele><time>2022-04-15T11:08:12Z</time><name>PT1680</name></trkpt>
<trkpt lat="52.954799" lon="-3.276161"><ele>328</ele><time>2022-04-15T11:08:13Z</time><name>PT1681</name></trkpt>
<trkpt lat="52.954796" lon="-3.276173"><ele>328</ele><time>2022-04-15T11:08:14Z</time><name>PT1682</name></trkpt>
<trkpt lat="52.954794" lon="-3.276189"><ele>328</ele><time>2022-04-15T11:08:15Z</time><name>PT1683</name></trkpt>
<trkpt lat="52.954791" lon="-3.276205"><ele>329</ele><time>2022-04-15T11:08:16Z</time><name>PT1684</name></trkpt>
<trkpt lat="52.954786" lon="-3.276220"><ele>329</ele><time>2022-04-15T11:08:17Z</time><name>PT1685</name></trkpt>
<trkpt lat="52.954784" lon="-3.276236"><ele>329</ele><time>2022-04-15T11:08:18Z</time><name>PT1686</name></trkpt>
<trkpt lat="52.954780" lon="-3.276252"><ele>330</ele><time>2022-04-15T11:08:19Z</time><name>PT1687</name></trkpt>
<trkpt lat="52.954775" lon="-3.276267"><ele>330</ele><time>2022-04-15T11:08:20Z</time><name>PT1688</name></trkpt>
<trkpt lat="52.954772" lon="-3.276279"><ele>330</ele><time>2022-04-15T11:08:21Z</time><name>PT1689</name></trkpt>
<trkpt lat="52.954769" lon="-3.276294"><ele>330</ele><time>2022-04-15T11:08:22Z</time><name>PT1690</name></trkpt>
<trkpt lat="52.954768" lon="-3.276313"><ele>330</ele><time>2022-04-15T11:08:23Z</time><name>PT1691</name></trkpt>
<trkpt lat="52.954765" lon="-3.276329"><ele>331</ele><time>2022-04-15T11:08:24Z</time><name>PT1692</name></trkpt>
<trkpt lat="52.954764" lon="-3.276345"><ele>331</ele><time>2022-04-15T11:08:25Z</time><name>PT1693</name></trkpt>
<trkpt lat="52.954761" lon="-3.276361"><ele>331</ele><time>2022-04-15T11:08:26Z</time><name>PT1694</name></trkpt>
<trkpt lat="52.954758" lon="-3.276379"><ele>331</ele><time>2022-04-15T11:08:27Z</time><name>PT1695</name></trkpt>
<trkpt lat="52.954756" lon="-3.276395"><ele>332</ele><time>2022-04-15T11:08:28Z</time><name>PT1696</name></trkpt>
<trkpt lat="52.954752" lon="-3.276456"><ele>333</ele><time>2022-04-15T11:08:32Z</time><name>PT1697</name></trkpt>
<trkpt lat="52.954749" lon="-3.276513"><ele>333</ele><time>2022-04-15T11:08:36Z</time><name>PT1698</name></trkpt>
<trkpt lat="52.954746" lon="-3.276557"><ele>334</ele><time>2022-04-15T11:08:39Z</time><name>PT1699</name></trkpt>
<trkpt lat="52.954743" lon="-3.276603"><ele>335</ele><time>2022-04-15T11:08:42Z</time><name>PT1700</name></trkpt>
<trkpt lat="52.954743" lon="-3.276654"><ele>336</ele><time>2022-04-15T11:08:46Z</time><name>PT1701</name></trkpt>
<trkpt lat="52.954749" lon="-3.276697"><ele>336</ele><time>2022-04-15T11:08:49Z</time><name>PT1702</name></trkpt>
<trkpt lat="52.954756" lon="-3.276737"><ele>336</ele><time>2022-04-15T11:08:53Z</time><name>PT1703</name></trkpt>
<trkpt lat="52.954763" lon="-3.276779"><ele>337</ele><time>2022-04-15T11:08:56Z</time><name>PT1704</name></trkpt>
<trkpt lat="52.954765" lon="-3.276841"><ele>337</ele><time>2022-04-15T11:09:00Z</time><name>PT1705</name></trkpt>
<trkpt lat="52.954770" lon="-3.276901"><ele>337</ele><time>2022-04-15T11:09:04Z</time><name>PT1706</name></trkpt>
<trkpt lat="52.954776" lon="-3.276946"><ele>338</ele><time>2022-04-15T11:09:07Z</time><name>PT1707</name></trkpt>
<trkpt lat="52.954785" lon="-3.276996"><ele>338</ele><time>2022-04-15T11:09:10Z</time><name>PT1708</name></trkpt>
<trkpt lat="52.954803" lon="-3.277055"><ele>339</ele><time>2022-04-15T11:09:14Z</time><name>PT1709</name></trkpt>
<trkpt lat="52.954814" lon="-3.277098"><ele>339</ele><time>2022-04-15T11:09:17Z</time><name>PT1710</name></trkpt>
<trkpt lat="52.954828" lon="-3.277133"><ele>338</ele><time>2022-04-15T11:09:20Z</time><name>PT1711</name></trkpt>
<trkpt lat="52.954842" lon="-3.277175"><ele>338</ele><time>2022-04-15T11:09:23Z</time><name>PT1712</name></trkpt>
<trkpt lat="52.954863" lon="-3.277230"><ele>339</ele><time>2022-04-15T11:09:27Z</time><name>PT1713</name></trkpt>
<trkpt lat="52.954871" lon="-3.277266"><ele>339</ele><time>2022-04-15T11:09:30Z</time><name>PT1714</name></trkpt>
<trkpt lat="52.954892" lon="-3.277315"><ele>339</ele><time>2022-04-15T11:09:34Z</time><name>PT1715</name></trkpt>
<trkpt lat="52.954917" lon="-3.277363"><ele>340</ele><time>2022-04-15T11:09:38Z</time><name>PT1716</name></trkpt>
<trkpt lat="52.954945" lon="-3.277407"><ele>340</ele><time>2022-04-15T11:09:42Z</time><name>PT1717</name></trkpt>
<trkpt lat="52.954967" lon="-3.277440"><ele>340</ele><time>2022-04-15T11:09:45Z</time><name>PT1718</name></trkpt>
<trkpt lat="52.954998" lon="-3.277481"><ele>340</ele><time>2022-04-15T11:09:49Z</time><name>PT1719</name></trkpt>
<trkpt lat="52.955022" lon="-3.277525"><ele>340</ele><time>2022-04-15T11:09:52Z</time><name>PT1720</name></trkpt>
<trkpt lat="52.955055" lon="-3.277573"><ele>340</ele><time>2022-04-15T11:09:56Z</time><name>PT1721</name></trkpt>
<trkpt lat="52.955081" lon="-3.277613"><ele>340</ele><time>2022-04-15T11:09:59Z</time><name>PT1722</name></trkpt>
<trkpt lat="52.955107" lon="-3.277653"><ele>340</ele><time>2022-04-15T11:10:02Z</time><name>PT1723</name></trkpt>
<trkpt lat="52.955134" lon="-3.277707"><ele>340</ele><time>2022-04-15T11:10:06Z</time><name>PT1724</name></trkpt>
<trkpt lat="52.955159" lon="-3.277745"><ele>340</ele><time>2022-04-15T11:10:09Z</time><name>PT1725</name></trkpt>
<trkpt lat="52.955193" lon="-3.277801"><ele>340</ele><time>2022-04-15T11:10:13Z</time><name>PT1726</name></trkpt>
<trkpt lat="52.955227" lon="-3.277859"><ele>341</ele><time>2022-04-15T11:10:17Z</time><name>PT1727</name></trkpt>
<trkpt lat="52.955255" lon="-3.277906"><ele>341</ele><time>2022-04-15T11:10:20Z</time><name>PT1728</name></trkpt>
<trkpt lat="52.955284" lon="-3.277964"><ele>341</ele><time>2022-04-15T11:10:24Z</time><name>PT1729</name></trkpt>
<trkpt lat="52.955305" lon="-3.278016"><ele>341</ele><time>2022-04-15T11:10:27Z</time><name>PT1730</name></trkpt>
<trkpt lat="52.955334" lon="-3.278068"><ele>342</ele><time>2022-04-15T11:10:31Z</time><name>PT1731</name></trkpt>
<trkpt lat="52.955352" lon="-3.278111"><ele>342</ele><time>2022-04-15T11:10:34Z</time><name>PT1732</name></trkpt>
<trkpt lat="52.955375" lon="-3.278165"><ele>342</ele><time>2022-04-15T11:10:38Z</time><name>PT1733</name></trkpt>
<trkpt lat="52.955404" lon="-3.278216"><ele>343</ele><time>2022-04-15T11:10:42Z</time><name>PT1734</name></trkpt>
<trkpt lat="52.955423" lon="-3.278275"><ele>344</ele><time>2022-04-15T11:10:45Z</time><name>PT1735</name></trkpt>
<trkpt lat="52.955433" lon="-3.278333"><ele>344</ele><time>2022-04-15T11:10:49Z</time><name>PT1736</name></trkpt>
<trkpt lat="52.955449" lon="-3.278374"><ele>344</ele><time>2022-04-15T11:10:52Z</time><name>PT1737</name></trkpt>
<trkpt lat="52.955477" lon="-3.278422"><ele>343</ele><time>2022-04-15T11:10:56Z</time><name>PT1738</name></trkpt>
<trkpt lat="52.955518" lon="-3.278422"><ele>342</ele><time>2022-04-15T11:11:00Z</time><name>PT1739</name></trkpt>
<trkpt lat="52.955553" lon="-3.278437"><ele>342</ele><time>2022-04-15T11:11:03Z</time><name>PT1740</name></trkpt>
<trkpt lat="52.955597" lon="-3.278468"><ele>342</ele><time>2022-04-15T11:11:07Z</time><name>PT1741</name></trkpt>
<trkpt lat="52.955633" lon="-3.278500"><ele>341</ele><time>2022-04-15T11:11:11Z</time><name>PT1742</name></trkpt>
<trkpt lat="52.955666" lon="-3.278551"><ele>342</ele><time>2022-04-15T11:11:15Z</time><name>PT1743</name></trkpt>
<trkpt lat="52.955691" lon="-3.278589"><ele>342</ele><time>2022-04-15T11:11:18Z</time><name>PT1744</name></trkpt>
<trkpt lat="52.955725" lon="-3.278649"><ele>343</ele><time>2022-04-15T11:11:22Z</time><name>PT1745</name></trkpt>
<trkpt lat="52.955753" lon="-3.278695"><ele>344</ele><time>2022-04-15T11:11:25Z</time><name>PT1746</name></trkpt>
<trkpt lat="52.955778" lon="-3.278729"><ele>345</ele><time>2022-04-15T11:11:28Z</time><name>PT1747</name></trkpt>
<trkpt lat="52.955813" lon="-3.278784"><ele>345</ele><time>2022-04-15T11:11:32Z</time><name>PT1748</name></trkpt>
<trkpt lat="52.955847" lon="-3.278844"><ele>346</ele><time>2022-04-15T11:11:36Z</time><name>PT1749</name></trkpt>
<trkpt lat="52.955880" lon="-3.278898"><ele>346</ele><time>2022-04-15T11:11:40Z</time><name>PT1750</name></trkpt>
<trkpt lat="52.955901" lon="-3.278926"><ele>346</ele><time>2022-04-15T11:11:43Z</time><name>PT1751</name></trkpt>
<trkpt lat="52.955933" lon="-3.278980"><ele>346</ele><time>2022-04-15T11:11:47Z</time><name>PT1752</name></trkpt>
<trkpt lat="52.955958" lon="-3.279013"><ele>346</ele><time>2022-04-15T11:11:50Z</time><name>PT1753</name></trkpt>
<trkpt lat="52.955979" lon="-3.279056"><ele>346</ele><time>2022-04-15T11:11:53Z</time><name>PT1754</name></trkpt>
<trkpt lat="52.956012" lon="-3.279108"><ele>345</ele><time>2022-04-15T11:11:57Z</time><name>PT1755</name></trkpt>
<trkpt lat="52.956046" lon="-3.279160"><ele>346</ele><time>2022-04-15T11:12:01Z</time><name>PT1756</name></trkpt>
<trkpt lat="52.956053" lon="-3.279171"><ele>346</ele><time>2022-04-15T11:12:02Z</time><name>PT1757</name></trkpt>
<trkpt lat="52.956057" lon="-3.279176"><ele>346</ele><time>2022-04-15T11:12:03Z</time><name>PT1758</name></trkpt>
<trkpt lat="52.956058" lon="-3.279180"><ele>346</ele><time>2022-04-15T11:12:04Z</time><name>PT1759</name></trkpt>
<trkpt lat="52.956057" lon="-3.279185"><ele>346</ele><time>2022-04-15T11:12:05Z</time><name>PT1760</name></trkpt>
<trkpt lat="52.956059" lon="-3.279195"><ele>346</ele><time>2022-04-15T11:12:06Z</time><name>PT1761</name></trkpt>
<trkpt lat="52.956070" lon="-3.279199"><ele>346</ele><time>2022-04-15T11:12:09Z</time><name>PT1762</name></trkpt>
<trkpt lat="52.956070" lon="-3.279210"><ele>346</ele><time>2022-04-15T11:12:10Z</time><name>PT1763</name></trkpt>
<trkpt lat="52.956077" lon="-3.279222"><ele>346</ele><time>2022-04-15T11:12:11Z</time><name>PT1764</name></trkpt>
<trkpt lat="52.956083" lon="-3.279231"><ele>346</ele><time>2022-04-15T11:12:12Z</time><name>PT1765</name></trkpt>
<trkpt lat="52.956086" lon="-3.279231"><ele>345</ele><time>2022-04-15T11:12:16Z</time><name>PT1766</name></trkpt>
<trkpt lat="52.956081" lon="-3.279233"><ele>345</ele><time>2022-04-15T11:12:17Z</time><name>PT1767</name></trkpt>
<trkpt lat="52.956075" lon="-3.279237"><ele>345</ele><time>2022-04-15T11:12:18Z</time><name>PT1768</name></trkpt>
<trkpt lat="52.956071" lon="-3.279242"><ele>345</ele><time>2022-04-15T11:12:19Z</time><name>PT1769</name></trkpt>
<trkpt lat="52.956069" lon="-3.279243"><ele>346</ele><time>2022-04-15T11:12:20Z</time><name>PT1770</name></trkpt>
<trkpt lat="52.956065" lon="-3.279246"><ele>346</ele><time>2022-04-15T11:12:21Z</time><name>PT1771</name></trkpt>
<trkpt lat="52.956063" lon="-3.279251"><ele>346</ele><time>2022-04-15T11:12:22Z</time><name>PT1772</name></trkpt>
<trkpt lat="52.956064" lon="-3.279252"><ele>346</ele><time>2022-04-15T11:12:23Z</time><name>PT1773</name></trkpt>
<trkpt lat="52.956064" lon="-3.279251"><ele>346</ele><time>2022-04-15T11:12:24Z</time><name>PT1774</name></trkpt>
<trkpt lat="52.956065" lon="-3.279251"><ele>346</ele><time>2022-04-15T11:12:25Z</time><name>PT1775</name></trkpt>
<trkpt lat="52.956063" lon="-3.279255"><ele>346</ele><time>2022-04-15T11:12:34Z</time><name>PT1776</name></trkpt>
<trkpt lat="52.956062" lon="-3.279258"><ele>346</ele><time>2022-04-15T11:12:35Z</time><name>PT1777</name></trkpt>
<trkpt lat="52.956060" lon="-3.279260"><ele>346</ele><time>2022-04-15T11:12:36Z</time><name>PT1778</name></trkpt>
<trkpt lat="52.956063" lon="-3.279263"><ele>346</ele><time>2022-04-15T11:12:42Z</time><name>PT1779</name></trkpt>
<trkpt lat="52.956073" lon="-3.279251"><ele>346</ele><time>2022-04-15T11:12:43Z</time><name>PT1780</name></trkpt>
<trkpt lat="52.956085" lon="-3.279251"><ele>347</ele><time>2022-04-15T11:12:44Z</time><name>PT1781</name></trkpt>
<trkpt lat="52.956096" lon="-3.279259"><ele>347</ele><time>2022-04-15T11:12:45Z</time><name>PT1782</name></trkpt>
<trkpt lat="52.956105" lon="-3.279272"><ele>347</ele><time>2022-04-15T11:12:46Z</time><name>PT1783</name></trkpt>
<trkpt lat="52.956115" lon="-3.279278"><ele>347</ele><time>2022-04-15T11:12:47Z</time><name>PT1784</name></trkpt>
<trkpt lat="52.956114" lon="-3.279285"><ele>346</ele><time>2022-04-15T11:12:48Z</time><name>PT1785</name></trkpt>
<trkpt lat="52.956114" lon="-3.279297"><ele>345</ele><time>2022-04-15T11:12:49Z</time><name>PT1786</name></trkpt>
<trkpt lat="52.956118" lon="-3.279312"><ele>345</ele><time>2022-04-15T11:12:50Z</time><name>PT1787</name></trkpt>
<trkpt lat="52.956117" lon="-3.279317"><ele>345</ele><time>2022-04-15T11:12:51Z</time><name>PT1788</name></trkpt>
<trkpt lat="52.956119" lon="-3.279319"><ele>345</ele><time>2022-04-15T11:12:52Z</time><name>PT1789</name></trkpt>
<trkpt lat="52.956126" lon="-3.279324"><ele>346</ele><time>2022-04-15T11:13:02Z</time><name>PT1790</name></trkpt>
<trkpt lat="52.956141" lon="-3.279331"><ele>346</ele><time>2022-04-15T11:13:03Z</time><name>PT1791</name></trkpt>
<trkpt lat="52.956151" lon="-3.279332"><ele>346</ele><time>2022-04-15T11:13:04Z</time><name>PT1792</name></trkpt>
<trkpt lat="52.956161" lon="-3.279336"><ele>346</ele><time>2022-04-15T11:13:05Z</time><name>PT1793</name></trkpt>
<trkpt lat="52.956171" lon="-3.279343"><ele>346</ele><time>2022-04-15T11:13:06Z</time><name>PT1794</name></trkpt>
<trkpt lat="52.956180" lon="-3.279359"><ele>346</ele><time>2022-04-15T11:13:07Z</time><name>PT1795</name></trkpt>
<trkpt lat="52.956186" lon="-3.279360"><ele>346</ele><time>2022-04-15T11:13:08Z</time><name>PT1796</name></trkpt>
<trkpt lat="52.956194" lon="-3.279366"><ele>346</ele><time>2022-04-15T11:13:09Z</time><name>PT1797</name></trkpt>
<trkpt lat="52.956203" lon="-3.279380"><ele>346</ele><time>2022-04-15T11:13:10Z</time><name>PT1798</name></trkpt>
<trkpt lat="52.956212" lon="-3.279392"><ele>346</ele><time>2022-04-15T11:13:11Z</time><name>PT1799</name></trkpt>
<trkpt lat="52.956221" lon="-3.279405"><ele>346</ele><time>2022-04-15T11:13:12Z</time><name>PT1800</name></trkpt>
<trkpt lat="52.956229" lon="-3.279423"><ele>346</ele><time>2022-04-15T11:13:13Z</time><name>PT1801</name></trkpt>
<trkpt lat="52.956236" lon="-3.279432"><ele>346</ele><time>2022-04-15T11:13:14Z</time><name>PT1802</name></trkpt>
<trkpt lat="52.956245" lon="-3.279439"><ele>346</ele><time>2022-04-15T11:13:15Z</time><name>PT1803</name></trkpt>
<trkpt lat="52.956253" lon="-3.279451"><ele>346</ele><time>2022-04-15T11:13:16Z</time><name>PT1804</name></trkpt>
<trkpt lat="52.956261" lon="-3.279466"><ele>347</ele><time>2022-04-15T11:13:17Z</time><name>PT1805</name></trkpt>
<trkpt lat="52.956269" lon="-3.279480"><ele>347</ele><time>2022-04-15T11:13:18Z</time><name>PT1806</name></trkpt>
<trkpt lat="52.956276" lon="-3.279494"><ele>347</ele><time>2022-04-15T11:13:19Z</time><name>PT1807</name></trkpt>
<trkpt lat="52.956283" lon="-3.279506"><ele>347</ele><time>2022-04-15T11:13:20Z</time><name>PT1808</name></trkpt>
<trkpt lat="52.956292" lon="-3.279518"><ele>347</ele><time>2022-04-15T11:13:21Z</time><name>PT1809</name></trkpt>
<trkpt lat="52.956300" lon="-3.279532"><ele>347</ele><time>2022-04-15T11:13:22Z</time><name>PT1810</name></trkpt>
<trkpt lat="52.956309" lon="-3.279543"><ele>347</ele><time>2022-04-15T11:13:23Z</time><name>PT1811</name></trkpt>
<trkpt lat="52.956315" lon="-3.279560"><ele>348</ele><time>2022-04-15T11:13:24Z</time><name>PT1812</name></trkpt>
<trkpt lat="52.956322" lon="-3.279572"><ele>348</ele><time>2022-04-15T11:13:25Z</time><name>PT1813</name></trkpt>
<trkpt lat="52.956329" lon="-3.279584"><ele>348</ele><time>2022-04-15T11:13:26Z</time><name>PT1814</name></trkpt>
<trkpt lat="52.956335" lon="-3.279599"><ele>348</ele><time>2022-04-15T11:13:27Z</time><name>PT1815</name></trkpt>
<trkpt lat="52.956340" lon="-3.279614"><ele>348</ele><time>2022-04-15T11:13:28Z</time><name>PT1816</name></trkpt>
<trkpt lat="52.956348" lon="-3.279632"><ele>348</ele><time>2022-04-15T11:13:29Z</time><name>PT1817</name></trkpt>
<trkpt lat="52.956354" lon="-3.279647"><ele>348</ele><time>2022-04-15T11:13:30Z</time><name>PT1818</name></trkpt>
<trkpt lat="52.956360" lon="-3.279661"><ele>348</ele><time>2022-04-15T11:13:31Z</time><name>PT1819</name></trkpt>
<trkpt lat="52.956368" lon="-3.279678"><ele>349</ele><time>2022-04-15T11:13:32Z</time><name>PT1820</name></trkpt>
<trkpt lat="52.956374" lon="-3.279696"><ele>349</ele><time>2022-04-15T11:13:33Z</time><name>PT1821</name></trkpt>
<trkpt lat="52.956380" lon="-3.279714"><ele>349</ele><time>2022-04-15T11:13:34Z</time><name>PT1822</name></trkpt>
<trkpt lat="52.956386" lon="-3.279729"><ele>349</ele><time>2022-04-15T11:13:35Z</time><name>PT1823</name></trkpt>
<trkpt lat="52.956392" lon="-3.279744"><ele>350</ele><time>2022-04-15T11:13:36Z</time><name>PT1824</name></trkpt>
<trkpt lat="52.956398" lon="-3.279762"><ele>350</ele><time>2022-04-15T11:13:37Z</time><name>PT1825</name></trkpt>
<trkpt lat="52.956404" lon="-3.279779"><ele>349</ele><time>2022-04-15T11:13:38Z</time><name>PT1826</name></trkpt>
<trkpt lat="52.956409" lon="-3.279794"><ele>350</ele><time>2022-04-15T11:13:39Z</time><name>PT1827</name></trkpt>
<trkpt lat="52.956415" lon="-3.279812"><ele>350</ele><time>2022-04-15T11:13:40Z</time><name>PT1828</name></trkpt>
<trkpt lat="52.956420" lon="-3.279828"><ele>350</ele><time>2022-04-15T11:13:41Z</time><name>PT1829</name></trkpt>
<trkpt lat="52.956426" lon="-3.279846"><ele>350</ele><time>2022-04-15T11:13:42Z</time><name>PT1830</name></trkpt>
<trkpt lat="52.956432" lon="-3.279866"><ele>350</ele><time>2022-04-15T11:13:43Z</time><name>PT1831</name></trkpt>
<trkpt lat="52.956439" lon="-3.279887"><ele>350</ele><time>2022-04-15T11:13:44Z</time><name>PT1832</name></trkpt>
<trkpt lat="52.956444" lon="-3.279904"><ele>350</ele><time>2022-04-15T11:13:45Z</time><name>PT1833</name></trkpt>
<trkpt lat="52.956449" lon="-3.279923"><ele>350</ele><time>2022-04-15T11:13:46Z</time><name>PT1834</name></trkpt>
<trkpt lat="52.956454" lon="-3.279945"><ele>351</ele><time>2022-04-15T11:13:47Z</time><name>PT1835</name></trkpt>
<trkpt lat="52.956460" lon="-3.279964"><ele>351</ele><time>2022-04-15T11:13:48Z</time><name>PT1836</name></trkpt>
<trkpt lat="52.956466" lon="-3.279982"><ele>351</ele><time>2022-04-15T11:13:49Z</time><name>PT1837</name></trkpt>
<trkpt lat="52.956473" lon="-3.280002"><ele>351</ele><time>2022-04-15T11:13:50Z</time><name>PT1838</name></trkpt>
<trkpt lat="52.956480" lon="-3.280022"><ele>351</ele><time>2022-04-15T11:13:51Z</time><name>PT1839</name></trkpt>
<trkpt lat="52.956486" lon="-3.280047"><ele>351</ele><time>2022-04-15T11:13:52Z</time><name>PT1840</name></trkpt>
<trkpt lat="52.956491" lon="-3.280071"><ele>352</ele><time>2022-04-15T11:13:53Z</time><name>PT1841</name></trkpt>
<trkpt lat="52.956495" lon="-3.280090"><ele>352</ele><time>2022-04-15T11:13:54Z</time><name>PT1842</name></trkpt>
<trkpt lat="52.956499" lon="-3.280107"><ele>352</ele><time>2022-04-15T11:13:55Z</time><name>PT1843</name></trkpt>
<trkpt lat="52.956508" lon="-3.280133"><ele>352</ele><time>2022-04-15T11:13:56Z</time><name>PT1844</name></trkpt>
<trkpt lat="52.956510" lon="-3.280149"><ele>352</ele><time>2022-04-15T11:13:57Z</time><name>PT1845</name></trkpt>
<trkpt lat="52.956513" lon="-3.280171"><ele>353</ele><time>2022-04-15T11:13:58Z</time><name>PT1846</name></trkpt>
<trkpt lat="52.956516" lon="-3.280198"><ele>353</ele><time>2022-04-15T11:13:59Z</time><name>PT1847</name></trkpt>
<trkpt lat="52.956521" lon="-3.280218"><ele>353</ele><time>2022-04-15T11:14:00Z</time><name>PT1848</name></trkpt>
<trkpt lat="52.956525" lon="-3.280241"><ele>353</ele><time>2022-04-15T11:14:01Z</time><name>PT1849</name></trkpt>
<trkpt lat="52.956536" lon="-3.280320"><ele>354</ele><time>2022-04-15T11:14:05Z</time><name>PT1850</name></trkpt>
<trkpt lat="52.956543" lon="-3.280365"><ele>352</ele><time>2022-04-15T11:14:08Z</time><name>PT1851</name></trkpt>
<trkpt lat="52.956551" lon="-3.280440"><ele>352</ele><time>2022-04-15T11:14:12Z</time><name>PT1852</name></trkpt>
<trkpt lat="52.956561" lon="-3.280499"><ele>352</ele><time>2022-04-15T11:14:15Z</time><name>PT1853</name></trkpt>
<trkpt lat="52.956564" lon="-3.280583"><ele>353</ele><time>2022-04-15T11:14:19Z</time><name>PT1854</name></trkpt>
<trkpt lat="52.956565" lon="-3.280641"><ele>353</ele><time>2022-04-15T11:14:22Z</time><name>PT1855</name></trkpt>
<trkpt lat="52.956567" lon="-3.280702"><ele>354</ele><time>2022-04-15T11:14:25Z</time><name>PT1856</name></trkpt>
<trkpt lat="52.956563" lon="-3.280784"><ele>354</ele><time>2022-04-15T11:14:29Z</time><name>PT1857</name></trkpt>
<trkpt lat="52.956560" lon="-3.280851"><ele>353</ele><time>2022-04-15T11:14:32Z</time><name>PT1858</name></trkpt>
<trkpt lat="52.956559" lon="-3.280930"><ele>353</ele><time>2022-04-15T11:14:36Z</time><name>PT1859</name></trkpt>
<trkpt lat="52.956556" lon="-3.280999"><ele>353</ele><time>2022-04-15T11:14:40Z</time><name>PT1860</name></trkpt>
<trkpt lat="52.956550" lon="-3.281064"><ele>354</ele><time>2022-04-15T11:14:43Z</time><name>PT1861</name></trkpt>
<trkpt lat="52.956544" lon="-3.281127"><ele>355</ele><time>2022-04-15T11:14:46Z</time><name>PT1862</name></trkpt>
<trkpt lat="52.956536" lon="-3.281190"><ele>355</ele><time>2022-04-15T11:14:49Z</time><name>PT1863</name></trkpt>
<trkpt lat="52.956532" lon="-3.281249"><ele>354</ele><time>2022-04-15T11:14:52Z</time><name>PT1864</name></trkpt>
<trkpt lat="52.956520" lon="-3.281306"><ele>354</ele><time>2022-04-15T11:14:55Z</time><name>PT1865</name></trkpt>
<trkpt lat="52.956505" lon="-3.281377"><ele>352</ele><time>2022-04-15T11:14:59Z</time><name>PT1866</name></trkpt>
<trkpt lat="52.956499" lon="-3.281432"><ele>353</ele><time>2022-04-15T11:15:02Z</time><name>PT1867</name></trkpt>
<trkpt lat="52.956487" lon="-3.281509"><ele>354</ele><time>2022-04-15T11:15:06Z</time><name>PT1868</name></trkpt>
<trkpt lat="52.956469" lon="-3.281579"><ele>353</ele><time>2022-04-15T11:15:10Z</time><name>PT1869</name></trkpt>
<trkpt lat="52.956452" lon="-3.281657"><ele>354</ele><time>2022-04-15T11:15:14Z</time><name>PT1870</name></trkpt>
<trkpt lat="52.956439" lon="-3.281713"><ele>354</ele><time>2022-04-15T11:15:17Z</time><name>PT1871</name></trkpt>
<trkpt lat="52.956420" lon="-3.281793"><ele>354</ele><time>2022-04-15T11:15:21Z</time><name>PT1872</name></trkpt>
<trkpt lat="52.956408" lon="-3.281843"><ele>354</ele><time>2022-04-15T11:15:24Z</time><name>PT1873</name></trkpt>
<trkpt lat="52.956390" lon="-3.281920"><ele>356</ele><time>2022-04-15T11:15:28Z</time><name>PT1874</name></trkpt>
<trkpt lat="52.956367" lon="-3.281993"><ele>356</ele><time>2022-04-15T11:15:32Z</time><name>PT1875</name></trkpt>
<trkpt lat="52.956347" lon="-3.282066"><ele>357</ele><time>2022-04-15T11:15:36Z</time><name>PT1876</name></trkpt>
<trkpt lat="52.956321" lon="-3.282140"><ele>357</ele><time>2022-04-15T11:15:40Z</time><name>PT1877</name></trkpt>
<trkpt lat="52.956308" lon="-3.282209"><ele>357</ele><time>2022-04-15T11:15:44Z</time><name>PT1878</name></trkpt>
<trkpt lat="52.956288" lon="-3.282276"><ele>357</ele><time>2022-04-15T11:15:48Z</time><name>PT1879</name></trkpt>
<trkpt lat="52.956266" lon="-3.282347"><ele>358</ele><time>2022-04-15T11:15:52Z</time><name>PT1880</name></trkpt>
<trkpt lat="52.956239" lon="-3.282414"><ele>358</ele><time>2022-04-15T11:15:56Z</time><name>PT1881</name></trkpt>
<trkpt lat="52.956223" lon="-3.282461"><ele>358</ele><time>2022-04-15T11:15:59Z</time><name>PT1882</name></trkpt>
<trkpt lat="52.956199" lon="-3.282532"><ele>359</ele><time>2022-04-15T11:16:03Z</time><name>PT1883</name></trkpt>
<trkpt lat="52.956176" lon="-3.282604"><ele>360</ele><time>2022-04-15T11:16:07Z</time><name>PT1884</name></trkpt>
<trkpt lat="52.956148" lon="-3.282672"><ele>359</ele><time>2022-04-15T11:16:11Z</time><name>PT1885</name></trkpt>
<trkpt lat="52.956127" lon="-3.282735"><ele>360</ele><time>2022-04-15T11:16:14Z</time><name>PT1886</name></trkpt>
<trkpt lat="52.956105" lon="-3.282802"><ele>360</ele><time>2022-04-15T11:16:18Z</time><name>PT1887</name></trkpt>
<trkpt lat="52.956084" lon="-3.282851"><ele>360</ele><time>2022-04-15T11:16:21Z</time><name>PT1888</name></trkpt>
<trkpt lat="52.956061" lon="-3.282913"><ele>361</ele><time>2022-04-15T11:16:25Z</time><name>PT1889</name></trkpt>
<trkpt lat="52.956043" lon="-3.282966"><ele>361</ele><time>2022-04-15T11:16:28Z</time><name>PT1890</name></trkpt>
<trkpt lat="52.956020" lon="-3.283021"><ele>361</ele><time>2022-04-15T11:16:31Z</time><name>PT1891</name></trkpt>
<trkpt lat="52.955997" lon="-3.283078"><ele>361</ele><time>2022-04-15T11:16:35Z</time><name>PT1892</name></trkpt>
<trkpt lat="52.955977" lon="-3.283135"><ele>362</ele><time>2022-04-15T11:16:38Z</time><name>PT1893</name></trkpt>
<trkpt lat="52.955952" lon="-3.283188"><ele>362</ele><time>2022-04-15T11:16:41Z</time><name>PT1894</name></trkpt>
<trkpt lat="52.955930" lon="-3.283240"><ele>363</ele><time>2022-04-15T11:16:44Z</time><name>PT1895</name></trkpt>
<trkpt lat="52.955903" lon="-3.283308"><ele>363</ele><time>2022-04-15T11:16:48Z</time><name>PT1896</name></trkpt>
<trkpt lat="52.955885" lon="-3.283351"><ele>362</ele><time>2022-04-15T11:16:51Z</time><name>PT1897</name></trkpt>
<trkpt lat="52.955865" lon="-3.283423"><ele>361</ele><time>2022-04-15T11:16:55Z</time><name>PT1898</name></trkpt>
<trkpt lat="52.955845" lon="-3.283480"><ele>362</ele><time>2022-04-15T11:16:58Z</time><name>PT1899</name></trkpt>
<trkpt lat="52.955829" lon="-3.283536"><ele>363</ele><time>2022-04-15T11:17:01Z</time><name>PT1900</name></trkpt>
<trkpt lat="52.955804" lon="-3.283616"><ele>364</ele><time>2022-04-15T11:17:05Z</time><name>PT1901</name></trkpt>
<trkpt lat="52.955784" lon="-3.283671"><ele>364</ele><time>2022-04-15T11:17:08Z</time><name>PT1902</name></trkpt>
<trkpt lat="52.955764" lon="-3.283738"><ele>364</ele><time>2022-04-15T11:17:12Z</time><name>PT1903</name></trkpt>
<trkpt lat="52.955750" lon="-3.283790"><ele>364</ele><time>2022-04-15T11:17:15Z</time><name>PT1904</name></trkpt>
<trkpt lat="52.955739" lon="-3.283838"><ele>364</ele><time>2022-04-15T11:17:18Z</time><name>PT1905</name></trkpt>
<trkpt lat="52.955717" lon="-3.283901"><ele>363</ele><time>2022-04-15T11:17:22Z</time><name>PT1906</name></trkpt>
<trkpt lat="52.955700" lon="-3.283958"><ele>364</ele><time>2022-04-15T11:17:25Z</time><name>PT1907</name></trkpt>
<trkpt lat="52.955683" lon="-3.284032"><ele>365</ele><time>2022-04-15T11:17:29Z</time><name>PT1908</name></trkpt>
<trkpt lat="52.955674" lon="-3.284083"><ele>365</ele><time>2022-04-15T11:17:32Z</time><name>PT1909</name></trkpt>
<trkpt lat="52.955665" lon="-3.284138"><ele>365</ele><time>2022-04-15T11:17:35Z</time><name>PT1910</name></trkpt>
<trkpt lat="52.955646" lon="-3.284212"><ele>364</ele><time>2022-04-15T11:17:39Z</time><name>PT1911</name></trkpt>
<trkpt lat="52.955624" lon="-3.284281"><ele>364</ele><time>2022-04-15T11:17:43Z</time><name>PT1912</name></trkpt>
<trkpt lat="52.955607" lon="-3.284343"><ele>365</ele><time>2022-04-15T11:17:46Z</time><name>PT1913</name></trkpt>
<trkpt lat="52.955580" lon="-3.284408"><ele>364</ele><time>2022-04-15T11:17:50Z</time><name>PT1914</name></trkpt>
<trkpt lat="52.955555" lon="-3.284493"><ele>365</ele><time>2022-04-15T11:17:54Z</time><name>PT1915</name></trkpt>
<trkpt lat="52.955537" lon="-3.284561"><ele>365</ele><time>2022-04-15T11:17:58Z</time><name>PT1916</name></trkpt>
<trkpt lat="52.955522" lon="-3.284620"><ele>366</ele><time>2022-04-15T11:18:01Z</time><name>PT1917</name></trkpt>
<trkpt lat="52.955501" lon="-3.284692"><ele>367</ele><time>2022-04-15T11:18:05Z</time><name>PT1918</name></trkpt>
<trkpt lat="52.955492" lon="-3.284743"><ele>368</ele><time>2022-04-15T11:18:08Z</time><name>PT1919</name></trkpt>
<trkpt lat="52.955473" lon="-3.284790"><ele>367</ele><time>2022-04-15T11:18:11Z</time><name>PT1920</name></trkpt>
<trkpt lat="52.955452" lon="-3.284854"><ele>366</ele><time>2022-04-15T11:18:15Z</time><name>PT1921</name></trkpt>
<trkpt lat="52.955424" lon="-3.284931"><ele>366</ele><time>2022-04-15T11:18:19Z</time><name>PT1922</name></trkpt>
<trkpt lat="52.955402" lon="-3.284981"><ele>366</ele><time>2022-04-15T11:18:22Z</time><name>PT1923</name></trkpt>
<trkpt lat="52.955387" lon="-3.285034"><ele>366</ele><time>2022-04-15T11:18:25Z</time><name>PT1924</name></trkpt>
<trkpt lat="52.955359" lon="-3.285093"><ele>367</ele><time>2022-04-15T11:18:29Z</time><name>PT1925</name></trkpt>
<trkpt lat="52.955328" lon="-3.285125"><ele>366</ele><time>2022-04-15T11:18:32Z</time><name>PT1926</name></trkpt>
<trkpt lat="52.955298" lon="-3.285152"><ele>366</ele><time>2022-04-15T11:18:35Z</time><name>PT1927</name></trkpt>
<trkpt lat="52.955261" lon="-3.285170"><ele>366</ele><time>2022-04-15T11:18:38Z</time><name>PT1928</name></trkpt>
<trkpt lat="52.955221" lon="-3.285204"><ele>366</ele><time>2022-04-15T11:18:42Z</time><name>PT1929</name></trkpt>
<trkpt lat="52.955189" lon="-3.285230"><ele>366</ele><time>2022-04-15T11:18:45Z</time><name>PT1930</name></trkpt>
<trkpt lat="52.955145" lon="-3.285263"><ele>368</ele><time>2022-04-15T11:18:49Z</time><name>PT1931</name></trkpt>
<trkpt lat="52.955099" lon="-3.285256"><ele>366</ele><time>2022-04-15T11:18:53Z</time><name>PT1932</name></trkpt>
<trkpt lat="52.955065" lon="-3.285276"><ele>367</ele><time>2022-04-15T11:18:57Z</time><name>PT1933</name></trkpt>
<trkpt lat="52.955035" lon="-3.285280"><ele>366</ele><time>2022-04-15T11:19:00Z</time><name>PT1934</name></trkpt>
<trkpt lat="52.955000" lon="-3.285297"><ele>367</ele><time>2022-04-15T11:19:04Z</time><name>PT1935</name></trkpt>
<trkpt lat="52.954971" lon="-3.285305"><ele>367</ele><time>2022-04-15T11:19:08Z</time><name>PT1936</name></trkpt>
<trkpt lat="52.954955" lon="-3.285313"><ele>368</ele><time>2022-04-15T11:19:11Z</time><name>PT1937</name></trkpt>
<trkpt lat="52.954932" lon="-3.285324"><ele>369</ele><time>2022-04-15T11:19:14Z</time><name>PT1938</name></trkpt>
<trkpt lat="52.954897" lon="-3.285329"><ele>369</ele><time>2022-04-15T11:19:18Z</time><name>PT1939</name></trkpt>
<trkpt lat="52.954878" lon="-3.285346"><ele>369</ele><time>2022-04-15T11:19:21Z</time><name>PT1940</name></trkpt>
<trkpt lat="52.954867" lon="-3.285345"><ele>369</ele><time>2022-04-15T11:19:23Z</time><name>PT1941</name></trkpt>
<trkpt lat="52.954860" lon="-3.285347"><ele>370</ele><time>2022-04-15T11:19:23Z</time><name>PT1942</name></trkpt>
<trkpt lat="52.954858" lon="-3.285349"><ele>371</ele><time>2022-04-15T11:19:24Z</time><name>PT1943</name></trkpt>
<trkpt lat="52.954867" lon="-3.285352"><ele>373</ele><time>2022-04-15T11:19:25Z</time><name>PT1944</name></trkpt>
<trkpt lat="52.954863" lon="-3.285356"><ele>374</ele><time>2022-04-15T11:19:26Z</time><name>PT1945</name></trkpt>
<trkpt lat="52.954861" lon="-3.285351"><ele>374</ele><time>2022-04-15T11:19:27Z</time><name>PT1946</name></trkpt>
<trkpt lat="52.954848" lon="-3.285348"><ele>373</ele><time>2022-04-15T11:19:28Z</time><name>PT1947</name></trkpt>
<trkpt lat="52.954841" lon="-3.285353"><ele>374</ele><time>2022-04-15T11:19:29Z</time><name>PT1948</name></trkpt>
<trkpt lat="52.954837" lon="-3.285356"><ele>374</ele><time>2022-04-15T11:19:30Z</time><name>PT1949</name></trkpt>
<trkpt lat="52.954835" lon="-3.285361"><ele>375</ele><time>2022-04-15T11:19:31Z</time><name>PT1950</name></trkpt>
<trkpt lat="52.954831" lon="-3.285365"><ele>374</ele><time>2022-04-15T11:19:32Z</time><name>PT1951</name></trkpt>
<trkpt lat="52.954824" lon="-3.285372"><ele>375</ele><time>2022-04-15T11:19:33Z</time><name>PT1952</name></trkpt>
<trkpt lat="52.954815" lon="-3.285375"><ele>375</ele><time>2022-04-15T11:19:34Z</time><name>PT1953</name></trkpt>
<trkpt lat="52.954806" lon="-3.285378"><ele>375</ele><time>2022-04-15T11:19:35Z</time><name>PT1954</name></trkpt>
<trkpt lat="52.954795" lon="-3.285381"><ele>375</ele><time>2022-04-15T11:19:36Z</time><name>PT1955</name></trkpt>
<trkpt lat="52.954786" lon="-3.285388"><ele>375</ele><time>2022-04-15T11:19:37Z</time><name>PT1956</name></trkpt>
<trkpt lat="52.954785" lon="-3.285398"><ele>375</ele><time>2022-04-15T11:19:38Z</time><name>PT1957</name></trkpt>
<trkpt lat="52.954785" lon="-3.285399"><ele>375</ele><time>2022-04-15T11:19:39Z</time><name>PT1958</name></trkpt>
<trkpt lat="52.954787" lon="-3.285400"><ele>375</ele><time>2022-04-15T11:19:40Z</time><name>PT1959</name></trkpt>
<trkpt lat="52.954787" lon="-3.285401"><ele>375</ele><time>2022-04-15T11:19:41Z</time><name>PT1960</name></trkpt>
<trkpt lat="52.954789" lon="-3.285406"><ele>374</ele><time>2022-04-15T11:20:06Z</time><name>PT1961</name></trkpt>
<trkpt lat="52.954781" lon="-3.285409"><ele>374</ele><time>2022-04-15T11:20:07Z</time><name>PT1962</name></trkpt>
<trkpt lat="52.954771" lon="-3.285405"><ele>374</ele><time>2022-04-15T11:20:08Z</time><name>PT1963</name></trkpt>
<trkpt lat="52.954760" lon="-3.285404"><ele>374</ele><time>2022-04-15T11:20:09Z</time><name>PT1964</name></trkpt>
<trkpt lat="52.954745" lon="-3.285409"><ele>374</ele><time>2022-04-15T11:20:10Z</time><name>PT1965</name></trkpt>
<trkpt lat="52.954737" lon="-3.285416"><ele>375</ele><time>2022-04-15T11:20:11Z</time><name>PT1966</name></trkpt>
<trkpt lat="52.954727" lon="-3.285422"><ele>374</ele><time>2022-04-15T11:20:12Z</time><name>PT1967</name></trkpt>
<trkpt lat="52.954713" lon="-3.285427"><ele>375</ele><time>2022-04-15T11:20:13Z</time><name>PT1968</name></trkpt>
<trkpt lat="52.954705" lon="-3.285435"><ele>375</ele><time>2022-04-15T11:20:14Z</time><name>PT1969</name></trkpt>
<trkpt lat="52.954695" lon="-3.285437"><ele>375</ele><time>2022-04-15T11:20:15Z</time><name>PT1970</name></trkpt>
<trkpt lat="52.954685" lon="-3.285429"><ele>375</ele><time>2022-04-15T11:20:16Z</time><name>PT1971</name></trkpt>
<trkpt lat="52.954676" lon="-3.285430"><ele>375</ele><time>2022-04-15T11:20:17Z</time><name>PT1972</name></trkpt>
<trkpt lat="52.954667" lon="-3.285430"><ele>376</ele><time>2022-04-15T11:20:18Z</time><name>PT1973</name></trkpt>
<trkpt lat="52.954662" lon="-3.285429"><ele>376</ele><time>2022-04-15T11:20:19Z</time><name>PT1974</name></trkpt>
<trkpt lat="52.954655" lon="-3.285421"><ele>376</ele><time>2022-04-15T11:20:20Z</time><name>PT1975</name></trkpt>
<trkpt lat="52.954651" lon="-3.285416"><ele>376</ele><time>2022-04-15T11:20:21Z</time><name>PT1976</name></trkpt>
<trkpt lat="52.954647" lon="-3.285414"><ele>376</ele><time>2022-04-15T11:20:22Z</time><name>PT1977</name></trkpt>
<trkpt lat="52.954642" lon="-3.285415"><ele>376</ele><time>2022-04-15T11:20:23Z</time><name>PT1978</name></trkpt>
<trkpt lat="52.954639" lon="-3.285412"><ele>375</ele><time>2022-04-15T11:20:24Z</time><name>PT1979</name></trkpt>
<trkpt lat="52.954640" lon="-3.285415"><ele>375</ele><time>2022-04-15T11:20:25Z</time><name>PT1980</name></trkpt>
<trkpt lat="52.954635" lon="-3.285409"><ele>374</ele><time>2022-04-15T11:20:26Z</time><name>PT1981</name></trkpt>
<trkpt lat="52.954626" lon="-3.285419"><ele>375</ele><time>2022-04-15T11:20:37Z</time><name>PT1982</name></trkpt>
<trkpt lat="52.954615" lon="-3.285422"><ele>375</ele><time>2022-04-15T11:20:38Z</time><name>PT1983</name></trkpt>
<trkpt lat="52.954608" lon="-3.285418"><ele>375</ele><time>2022-04-15T11:20:39Z</time><name>PT1984</name></trkpt>
<trkpt lat="52.954599" lon="-3.285423"><ele>376</ele><time>2022-04-15T11:20:40Z</time><name>PT1985</name></trkpt>
<trkpt lat="52.954591" lon="-3.285428"><ele>376</ele><time>2022-04-15T11:20:41Z</time><name>PT1986</name></trkpt>
<trkpt lat="52.954580" lon="-3.285431"><ele>376</ele><time>2022-04-15T11:20:42Z</time><name>PT1987</name></trkpt>
<trkpt lat="52.954571" lon="-3.285439"><ele>377</ele><time>2022-04-15T11:20:43Z</time><name>PT1988</name></trkpt>
<trkpt lat="52.954560" lon="-3.285449"><ele>378</ele><time>2022-04-15T11:20:44Z</time><name>PT1989</name></trkpt>
<trkpt lat="52.954551" lon="-3.285456"><ele>378</ele><time>2022-04-15T11:20:45Z</time><name>PT1990</name></trkpt>
<trkpt lat="52.954544" lon="-3.285460"><ele>378</ele><time>2022-04-15T11:20:46Z</time><name>PT1991</name></trkpt>
<trkpt lat="52.954537" lon="-3.285458"><ele>378</ele><time>2022-04-15T11:20:47Z</time><name>PT1992</name></trkpt>
<trkpt lat="52.954528" lon="-3.285458"><ele>379</ele><time>2022-04-15T11:20:48Z</time><name>PT1993</name></trkpt>
<trkpt lat="52.954515" lon="-3.285457"><ele>379</ele><time>2022-04-15T11:20:49Z</time><name>PT1994</name></trkpt>
<trkpt lat="52.954505" lon="-3.285460"><ele>379</ele><time>2022-04-15T11:20:50Z</time><name>PT1995</name></trkpt>
<trkpt lat="52.954501" lon="-3.285466"><ele>380</ele><time>2022-04-15T11:20:51Z</time><name>PT1996</name></trkpt>
<trkpt lat="52.954492" lon="-3.285469"><ele>380</ele><time>2022-04-15T11:20:52Z</time><name>PT1997</name></trkpt>
<trkpt lat="52.954483" lon="-3.285470"><ele>380</ele><time>2022-04-15T11:20:53Z</time><name>PT1998</name></trkpt>
<trkpt lat="52.954474" lon="-3.285470"><ele>380</ele><time>2022-04-15T11:20:54Z</time><name>PT1999</name></trkpt>
<trkpt lat="52.954463" lon="-3.285468"><ele>380</ele><time>2022-04-15T11:20:55Z</time><name>PT2000</name></trkpt>
<trkpt lat="52.954451" lon="-3.285467"><ele>380</ele><time>2022-04-15T11:20:56Z</time><name>PT2001</name></trkpt>
<trkpt lat="52.954439" lon="-3.285467"><ele>380</ele><time>2022-04-15T11:20:57Z</time><name>PT2002</name></trkpt>
<trkpt lat="52.954431" lon="-3.285471"><ele>381</ele><time>2022-04-15T11:20:58Z</time><name>PT2003</name></trkpt>
<trkpt lat="52.954424" lon="-3.285479"><ele>381</ele><time>2022-04-15T11:20:59Z</time><name>PT2004</name></trkpt>
<trkpt lat="52.954415" lon="-3.285484"><ele>382</ele><time>2022-04-15T11:21:00Z</time><name>PT2005</name></trkpt>
<trkpt lat="52.954403" lon="-3.285486"><ele>382</ele><time>2022-04-15T11:21:01Z</time><name>PT2006</name></trkpt>
<trkpt lat="52.954396" lon="-3.285483"><ele>381</ele><time>2022-04-15T11:21:02Z</time><name>PT2007</name></trkpt>
<trkpt lat="52.954384" lon="-3.285483"><ele>381</ele><time>2022-04-15T11:21:03Z</time><name>PT2008</name></trkpt>
<trkpt lat="52.954372" lon="-3.285483"><ele>381</ele><time>2022-04-15T11:21:04Z</time><name>PT2009</name></trkpt>
<trkpt lat="52.954363" lon="-3.285484"><ele>381</ele><time>2022-04-15T11:21:05Z</time><name>PT2010</name></trkpt>
<trkpt lat="52.954357" lon="-3.285487"><ele>382</ele><time>2022-04-15T11:21:06Z</time><name>PT2011</name></trkpt>
<trkpt lat="52.954348" lon="-3.285494"><ele>383</ele><time>2022-04-15T11:21:07Z</time><name>PT2012</name></trkpt>
<trkpt lat="52.954341" lon="-3.285499"><ele>384</ele><time>2022-04-15T11:21:08Z</time><name>PT2013</name></trkpt>
<trkpt lat="52.954330" lon="-3.285502"><ele>384</ele><time>2022-04-15T11:21:09Z</time><name>PT2014</name></trkpt>
<trkpt lat="52.954319" lon="-3.285505"><ele>384</ele><time>2022-04-15T11:21:10Z</time><name>PT2015</name></trkpt>
<trkpt lat="52.954309" lon="-3.285507"><ele>384</ele><time>2022-04-15T11:21:11Z</time><name>PT2016</name></trkpt>
<trkpt lat="52.954299" lon="-3.285510"><ele>385</ele><time>2022-04-15T11:21:12Z</time><name>PT2017</name></trkpt>
<trkpt lat="52.954290" lon="-3.285514"><ele>385</ele><time>2022-04-15T11:21:13Z</time><name>PT2018</name></trkpt>
<trkpt lat="52.954280" lon="-3.285518"><ele>385</ele><time>2022-04-15T11:21:14Z</time><name>PT2019</name></trkpt>
<trkpt lat="52.954271" lon="-3.285523"><ele>386</ele><time>2022-04-15T11:21:15Z</time><name>PT2020</name></trkpt>
<trkpt lat="52.954261" lon="-3.285528"><ele>387</ele><time>2022-04-15T11:21:16Z</time><name>PT2021</name></trkpt>
<trkpt lat="52.954251" lon="-3.285530"><ele>386</ele><time>2022-04-15T11:21:17Z</time><name>PT2022</name></trkpt>
<trkpt lat="52.954242" lon="-3.285527"><ele>387</ele><time>2022-04-15T11:21:18Z</time><name>PT2023</name></trkpt>
<trkpt lat="52.954231" lon="-3.285524"><ele>387</ele><time>2022-04-15T11:21:19Z</time><name>PT2024</name></trkpt>
<trkpt lat="52.954223" lon="-3.285523"><ele>387</ele><time>2022-04-15T11:21:20Z</time><name>PT2025</name></trkpt>
<trkpt lat="52.954217" lon="-3.285524"><ele>387</ele><time>2022-04-15T11:21:21Z</time><name>PT2026</name></trkpt>
<trkpt lat="52.954206" lon="-3.285525"><ele>387</ele><time>2022-04-15T11:21:22Z</time><name>PT2027</name></trkpt>
<trkpt lat="52.954173" lon="-3.285523"><ele>386</ele><time>2022-04-15T11:21:25Z</time><name>PT2028</name></trkpt>
<trkpt lat="52.954134" lon="-3.285541"><ele>388</ele><time>2022-04-15T11:21:29Z</time><name>PT2029</name></trkpt>
<trkpt lat="52.954100" lon="-3.285543"><ele>390</ele><time>2022-04-15T11:21:32Z</time><name>PT2030</name></trkpt>
<trkpt lat="52.954071" lon="-3.285564"><ele>392</ele><time>2022-04-15T11:21:36Z</time><name>PT2031</name></trkpt>
<trkpt lat="52.954041" lon="-3.285582"><ele>392</ele><time>2022-04-15T11:21:39Z</time><name>PT2032</name></trkpt>
<trkpt lat="52.953994" lon="-3.285587"><ele>392</ele><time>2022-04-15T11:21:43Z</time><name>PT2033</name></trkpt>
<trkpt lat="52.953962" lon="-3.285589"><ele>391</ele><time>2022-04-15T11:21:46Z</time><name>PT2034</name></trkpt>
<trkpt lat="52.953924" lon="-3.285600"><ele>392</ele><time>2022-04-15T11:21:50Z</time><name>PT2035</name></trkpt>
<trkpt lat="52.953891" lon="-3.285596"><ele>392</ele><time>2022-04-15T11:21:53Z</time><name>PT2036</name></trkpt>
<trkpt lat="52.953863" lon="-3.285611"><ele>394</ele><time>2022-04-15T11:21:57Z</time><name>PT2037</name></trkpt>
<trkpt lat="52.953827" lon="-3.285615"><ele>395</ele><time>2022-04-15T11:22:01Z</time><name>PT2038</name></trkpt>
<trkpt lat="52.953792" lon="-3.285613"><ele>396</ele><time>2022-04-15T11:22:05Z</time><name>PT2039</name></trkpt>
<trkpt lat="52.953773" lon="-3.285629"><ele>398</ele><time>2022-04-15T11:22:08Z</time><name>PT2040</name></trkpt>
<trkpt lat="52.953745" lon="-3.285641"><ele>399</ele><time>2022-04-15T11:22:11Z</time><name>PT2041</name></trkpt>
<trkpt lat="52.953702" lon="-3.285643"><ele>398</ele><time>2022-04-15T11:22:15Z</time><name>PT2042</name></trkpt>
<trkpt lat="52.953677" lon="-3.285647"><ele>397</ele><time>2022-04-15T11:22:18Z</time><name>PT2043</name></trkpt>
<trkpt lat="52.953625" lon="-3.285648"><ele>396</ele><time>2022-04-15T11:22:22Z</time><name>PT2044</name></trkpt>
<trkpt lat="52.953592" lon="-3.285658"><ele>397</ele><time>2022-04-15T11:22:26Z</time><name>PT2045</name></trkpt>
<trkpt lat="52.953568" lon="-3.285667"><ele>399</ele><time>2022-04-15T11:22:29Z</time><name>PT2046</name></trkpt>
<trkpt lat="52.953538" lon="-3.285676"><ele>400</ele><time>2022-04-15T11:22:32Z</time><name>PT2047</name></trkpt>
<trkpt lat="52.953501" lon="-3.285684"><ele>400</ele><time>2022-04-15T11:22:36Z</time><name>PT2048</name></trkpt>
<trkpt lat="52.953477" lon="-3.285694"><ele>400</ele><time>2022-04-15T11:22:39Z</time><name>PT2049</name></trkpt>
<trkpt lat="52.953436" lon="-3.285708"><ele>401</ele><time>2022-04-15T11:22:43Z</time><name>PT2050</name></trkpt>
<trkpt lat="52.953405" lon="-3.285713"><ele>401</ele><time>2022-04-15T11:22:46Z</time><name>PT2051</name></trkpt>
<trkpt lat="52.953386" lon="-3.285729"><ele>403</ele><time>2022-04-15T11:22:49Z</time><name>PT2052</name></trkpt>
<trkpt lat="52.953355" lon="-3.285743"><ele>405</ele><time>2022-04-15T11:22:53Z</time><name>PT2053</name></trkpt>
<trkpt lat="52.953324" lon="-3.285748"><ele>405</ele><time>2022-04-15T11:22:56Z</time><name>PT2054</name></trkpt>
<trkpt lat="52.953295" lon="-3.285762"><ele>407</ele><time>2022-04-15T11:23:00Z</time><name>PT2055</name></trkpt>
<trkpt lat="52.953272" lon="-3.285759"><ele>407</ele><time>2022-04-15T11:23:03Z</time><name>PT2056</name></trkpt>
<trkpt lat="52.953244" lon="-3.285762"><ele>408</ele><time>2022-04-15T11:23:07Z</time><name>PT2057</name></trkpt>
<trkpt lat="52.953220" lon="-3.285769"><ele>409</ele><time>2022-04-15T11:23:10Z</time><name>PT2058</name></trkpt>
<trkpt lat="52.953198" lon="-3.285779"><ele>411</ele><time>2022-04-15T11:23:13Z</time><name>PT2059</name></trkpt>
<trkpt lat="52.953164" lon="-3.285784"><ele>411</ele><time>2022-04-15T11:23:17Z</time><name>PT2060</name></trkpt>
<trkpt lat="52.953139" lon="-3.285797"><ele>412</ele><time>2022-04-15T11:23:20Z</time><name>PT2061</name></trkpt>
<trkpt lat="52.953111" lon="-3.285808"><ele>413</ele><time>2022-04-15T11:23:24Z</time><name>PT2062</name></trkpt>
<trkpt lat="52.953082" lon="-3.285825"><ele>414</ele><time>2022-04-15T11:23:28Z</time><name>PT2063</name></trkpt>
<trkpt lat="52.953059" lon="-3.285833"><ele>416</ele><time>2022-04-15T11:23:31Z</time><name>PT2064</name></trkpt>
<trkpt lat="52.953034" lon="-3.285839"><ele>417</ele><time>2022-04-15T11:23:34Z</time><name>PT2065</name></trkpt>
<trkpt lat="52.953007" lon="-3.285847"><ele>417</ele><time>2022-04-15T11:23:38Z</time><name>PT2066</name></trkpt>
<trkpt lat="52.952990" lon="-3.285863"><ele>418</ele><time>2022-04-15T11:23:41Z</time><name>PT2067</name></trkpt>
<trkpt lat="52.952957" lon="-3.285886"><ele>420</ele><time>2022-04-15T11:23:45Z</time><name>PT2068</name></trkpt>
<trkpt lat="52.952939" lon="-3.285897"><ele>421</ele><time>2022-04-15T11:23:48Z</time><name>PT2069</name></trkpt>
<trkpt lat="52.952915" lon="-3.285902"><ele>421</ele><time>2022-04-15T11:23:51Z</time><name>PT2070</name></trkpt>
<trkpt lat="52.952889" lon="-3.285902"><ele>421</ele><time>2022-04-15T11:23:54Z</time><name>PT2071</name></trkpt>
<trkpt lat="52.952859" lon="-3.285913"><ele>420</ele><time>2022-04-15T11:23:58Z</time><name>PT2072</name></trkpt>
<trkpt lat="52.952819" lon="-3.285915"><ele>420</ele><time>2022-04-15T11:24:02Z</time><name>PT2073</name></trkpt>
<trkpt lat="52.952797" lon="-3.285923"><ele>422</ele><time>2022-04-15T11:24:05Z</time><name>PT2074</name></trkpt>
<trkpt lat="52.952772" lon="-3.285931"><ele>423</ele><time>2022-04-15T11:24:09Z</time><name>PT2075</name></trkpt>
<trkpt lat="52.952757" lon="-3.285934"><ele>423</ele><time>2022-04-15T11:24:12Z</time><name>PT2076</name></trkpt>
<trkpt lat="52.952738" lon="-3.285939"><ele>423</ele><time>2022-04-15T11:24:16Z</time><name>PT2077</name></trkpt>
<trkpt lat="52.952735" lon="-3.285941"><ele>423</ele><time>2022-04-15T11:24:20Z</time><name>PT2078</name></trkpt>
<trkpt lat="52.952731" lon="-3.285956"><ele>425</ele><time>2022-04-15T11:24:47Z</time><name>PT2079</name></trkpt>
<trkpt lat="52.952728" lon="-3.285955"><ele>426</ele><time>2022-04-15T11:25:16Z</time><name>PT2080</name></trkpt>
<trkpt lat="52.952723" lon="-3.285957"><ele>426</ele><time>2022-04-15T11:27:02Z</time><name>PT2081</name></trkpt>
<trkpt lat="52.952687" lon="-3.285995"><ele>424</ele><time>2022-04-15T11:27:06Z</time><name>PT2082</name></trkpt>
<trkpt lat="52.952670" lon="-3.286023"><ele>426</ele><time>2022-04-15T11:27:10Z</time><name>PT2083</name></trkpt>
<trkpt lat="52.952671" lon="-3.286023"><ele>426</ele><time>2022-04-15T11:27:13Z</time><name>PT2084</name></trkpt>
<trkpt lat="52.952672" lon="-3.286042"><ele>426</ele><time>2022-04-15T11:27:23Z</time><name>PT2085</name></trkpt>
<trkpt lat="52.952659" lon="-3.286059"><ele>426</ele><time>2022-04-15T11:27:24Z</time><name>PT2086</name></trkpt>
<trkpt lat="52.952655" lon="-3.286079"><ele>426</ele><time>2022-04-15T11:27:25Z</time><name>PT2087</name></trkpt>
<trkpt lat="52.952649" lon="-3.286108"><ele>426</ele><time>2022-04-15T11:27:26Z</time><name>PT2088</name></trkpt>
<trkpt lat="52.952642" lon="-3.286123"><ele>425</ele><time>2022-04-15T11:27:27Z</time><name>PT2089</name></trkpt>
<trkpt lat="52.952632" lon="-3.286134"><ele>425</ele><time>2022-04-15T11:27:28Z</time><name>PT2090</name></trkpt>
<trkpt lat="52.952618" lon="-3.286147"><ele>425</ele><time>2022-04-15T11:27:29Z</time><name>PT2091</name></trkpt>
<trkpt lat="52.952612" lon="-3.286158"><ele>425</ele><time>2022-04-15T11:27:30Z</time><name>PT2092</name></trkpt>
<trkpt lat="52.952608" lon="-3.286177"><ele>424</ele><time>2022-04-15T11:27:31Z</time><name>PT2093</name></trkpt>
<trkpt lat="52.952604" lon="-3.286195"><ele>425</ele><time>2022-04-15T11:27:32Z</time><name>PT2094</name></trkpt>
<trkpt lat="52.952597" lon="-3.286211"><ele>424</ele><time>2022-04-15T11:27:33Z</time><name>PT2095</name></trkpt>
<trkpt lat="52.952594" lon="-3.286227"><ele>425</ele><time>2022-04-15T11:27:34Z</time><name>PT2096</name></trkpt>
<trkpt lat="52.952585" lon="-3.286235"><ele>424</ele><time>2022-04-15T11:27:35Z</time><name>PT2097</name></trkpt>
<trkpt lat="52.952577" lon="-3.286246"><ele>424</ele><time>2022-04-15T11:27:36Z</time><name>PT2098</name></trkpt>
<trkpt lat="52.952572" lon="-3.286262"><ele>425</ele><time>2022-04-15T11:27:37Z</time><name>PT2099</name></trkpt>
<trkpt lat="52.952568" lon="-3.286276"><ele>425</ele><time>2022-04-15T11:27:38Z</time><name>PT2100</name></trkpt>
<trkpt lat="52.952562" lon="-3.286286"><ele>424</ele><time>2022-04-15T11:27:39Z</time><name>PT2101</name></trkpt>
<trkpt lat="52.952557" lon="-3.286296"><ele>424</ele><time>2022-04-15T11:27:40Z</time><name>PT2102</name></trkpt>
<trkpt lat="52.952554" lon="-3.286304"><ele>424</ele><time>2022-04-15T11:27:41Z</time><name>PT2103</name></trkpt>
<trkpt lat="52.952552" lon="-3.286312"><ele>424</ele><time>2022-04-15T11:27:42Z</time><name>PT2104</name></trkpt>
<trkpt lat="52.952553" lon="-3.286299"><ele>423</ele><time>2022-04-15T11:27:43Z</time><name>PT2105</name></trkpt>
<trkpt lat="52.952552" lon="-3.286302"><ele>423</ele><time>2022-04-15T11:27:44Z</time><name>PT2106</name></trkpt>
<trkpt lat="52.952551" lon="-3.286300"><ele>422</ele><time>2022-04-15T11:27:45Z</time><name>PT2107</name></trkpt>
<trkpt lat="52.952542" lon="-3.286317"><ele>422</ele><time>2022-04-15T11:28:14Z</time><name>PT2108</name></trkpt>
<trkpt lat="52.952534" lon="-3.286331"><ele>423</ele><time>2022-04-15T11:28:15Z</time><name>PT2109</name></trkpt>
<trkpt lat="52.952532" lon="-3.286345"><ele>423</ele><time>2022-04-15T11:28:16Z</time><name>PT2110</name></trkpt>
<trkpt lat="52.952524" lon="-3.286353"><ele>422</ele><time>2022-04-15T11:28:17Z</time><name>PT2111</name></trkpt>
<trkpt lat="52.952512" lon="-3.286362"><ele>422</ele><time>2022-04-15T11:28:18Z</time><name>PT2112</name></trkpt>
<trkpt lat="52.952501" lon="-3.286379"><ele>422</ele><time>2022-04-15T11:28:19Z</time><name>PT2113</name></trkpt>
<trkpt lat="52.952492" lon="-3.286390"><ele>423</ele><time>2022-04-15T11:28:20Z</time><name>PT2114</name></trkpt>
<trkpt lat="52.952484" lon="-3.286407"><ele>423</ele><time>2022-04-15T11:28:21Z</time><name>PT2115</name></trkpt>
<trkpt lat="52.952479" lon="-3.286422"><ele>423</ele><time>2022-04-15T11:28:22Z</time><name>PT2116</name></trkpt>
<trkpt lat="52.952474" lon="-3.286440"><ele>424</ele><time>2022-04-15T11:28:23Z</time><name>PT2117</name></trkpt>
<trkpt lat="52.952466" lon="-3.286451"><ele>423</ele><time>2022-04-15T11:28:24Z</time><name>PT2118</name></trkpt>
<trkpt lat="52.952462" lon="-3.286457"><ele>423</ele><time>2022-04-15T11:28:25Z</time><name>PT2119</name></trkpt>
<trkpt lat="52.952456" lon="-3.286454"><ele>423</ele><time>2022-04-15T11:28:26Z</time><name>PT2120</name></trkpt>
<trkpt lat="52.952452" lon="-3.286449"><ele>422</ele><time>2022-04-15T11:28:27Z</time><name>PT2121</name></trkpt>
<trkpt lat="52.952453" lon="-3.286445"><ele>422</ele><time>2022-04-15T11:28:28Z</time><name>PT2122</name></trkpt>
<trkpt lat="52.952452" lon="-3.286445"><ele>422</ele><time>2022-04-15T11:28:29Z</time><name>PT2123</name></trkpt>
<trkpt lat="52.952442" lon="-3.286449"><ele>421</ele><time>2022-04-15T11:28:38Z</time><name>PT2124</name></trkpt>
<trkpt lat="52.952436" lon="-3.286467"><ele>421</ele><time>2022-04-15T11:28:39Z</time><name>PT2125</name></trkpt>
<trkpt lat="52.952431" lon="-3.286473"><ele>422</ele><time>2022-04-15T11:28:40Z</time><name>PT2126</name></trkpt>
<trkpt lat="52.952422" lon="-3.286489"><ele>422</ele><time>2022-04-15T11:28:41Z</time><name>PT2127</name></trkpt>
<trkpt lat="52.952416" lon="-3.286505"><ele>422</ele><time>2022-04-15T11:28:42Z</time><name>PT2128</name></trkpt>
<trkpt lat="52.952408" lon="-3.286528"><ele>422</ele><time>2022-04-15T11:28:43Z</time><name>PT2129</name></trkpt>
<trkpt lat="52.952397" lon="-3.286543"><ele>422</ele><time>2022-04-15T11:28:44Z</time><name>PT2130</name></trkpt>
<trkpt lat="52.952389" lon="-3.286561"><ele>422</ele><time>2022-04-15T11:28:45Z</time><name>PT2131</name></trkpt>
<trkpt lat="52.952379" lon="-3.286576"><ele>422</ele><time>2022-04-15T11:28:46Z</time><name>PT2132</name></trkpt>
<trkpt lat="52.952368" lon="-3.286596"><ele>421</ele><time>2022-04-15T11:28:47Z</time><name>PT2133</name></trkpt>
<trkpt lat="52.952355" lon="-3.286617"><ele>421</ele><time>2022-04-15T11:28:48Z</time><name>PT2134</name></trkpt>
<trkpt lat="52.952345" lon="-3.286634"><ele>421</ele><time>2022-04-15T11:28:49Z</time><name>PT2135</name></trkpt>
<trkpt lat="52.952336" lon="-3.286656"><ele>422</ele><time>2022-04-15T11:28:50Z</time><name>PT2136</name></trkpt>
<trkpt lat="52.952323" lon="-3.286673"><ele>422</ele><time>2022-04-15T11:28:51Z</time><name>PT2137</name></trkpt>
<trkpt lat="52.952313" lon="-3.286687"><ele>422</ele><time>2022-04-15T11:28:52Z</time><name>PT2138</name></trkpt>
<trkpt lat="52.952306" lon="-3.286703"><ele>422</ele><time>2022-04-15T11:28:53Z</time><name>PT2139</name></trkpt>
<trkpt lat="52.952298" lon="-3.286721"><ele>422</ele><time>2022-04-15T11:28:54Z</time><name>PT2140</name></trkpt>
<trkpt lat="52.952289" lon="-3.286736"><ele>422</ele><time>2022-04-15T11:28:55Z</time><name>PT2141</name></trkpt>
<trkpt lat="52.952280" lon="-3.286749"><ele>421</ele><time>2022-04-15T11:28:56Z</time><name>PT2142</name></trkpt>
<trkpt lat="52.952273" lon="-3.286771"><ele>422</ele><time>2022-04-15T11:28:57Z</time><name>PT2143</name></trkpt>
<trkpt lat="52.952260" lon="-3.286783"><ele>421</ele><time>2022-04-15T11:28:58Z</time><name>PT2144</name></trkpt>
<trkpt lat="52.952254" lon="-3.286801"><ele>421</ele><time>2022-04-15T11:28:59Z</time><name>PT2145</name></trkpt>
<trkpt lat="52.952248" lon="-3.286817"><ele>421</ele><time>2022-04-15T11:29:00Z</time><name>PT2146</name></trkpt>
<trkpt lat="52.952240" lon="-3.286839"><ele>421</ele><time>2022-04-15T11:29:01Z</time><name>PT2147</name></trkpt>
<trkpt lat="52.952230" lon="-3.286857"><ele>421</ele><time>2022-04-15T11:29:02Z</time><name>PT2148</name></trkpt>
<trkpt lat="52.952221" lon="-3.286872"><ele>421</ele><time>2022-04-15T11:29:03Z</time><name>PT2149</name></trkpt>
<trkpt lat="52.952208" lon="-3.286887"><ele>420</ele><time>2022-04-15T11:29:04Z</time><name>PT2150</name></trkpt>
<trkpt lat="52.952193" lon="-3.286906"><ele>421</ele><time>2022-04-15T11:29:05Z</time><name>PT2151</name></trkpt>
<trkpt lat="52.952183" lon="-3.286919"><ele>420</ele><time>2022-04-15T11:29:06Z</time><name>PT2152</name></trkpt>
<trkpt lat="52.952175" lon="-3.286938"><ele>420</ele><time>2022-04-15T11:29:07Z</time><name>PT2153</name></trkpt>
<trkpt lat="52.952169" lon="-3.286959"><ele>421</ele><time>2022-04-15T11:29:08Z</time><name>PT2154</name></trkpt>
<trkpt lat="52.952155" lon="-3.286978"><ele>420</ele><time>2022-04-15T11:29:09Z</time><name>PT2155</name></trkpt>
<trkpt lat="52.952144" lon="-3.286999"><ele>420</ele><time>2022-04-15T11:29:10Z</time><name>PT2156</name></trkpt>
<trkpt lat="52.952134" lon="-3.287012"><ele>420</ele><time>2022-04-15T11:29:11Z</time><name>PT2157</name></trkpt>
<trkpt lat="52.952124" lon="-3.287034"><ele>421</ele><time>2022-04-15T11:29:12Z</time><name>PT2158</name></trkpt>
<trkpt lat="52.952114" lon="-3.287056"><ele>422</ele><time>2022-04-15T11:29:13Z</time><name>PT2159</name></trkpt>
<trkpt lat="52.952106" lon="-3.287077"><ele>422</ele><time>2022-04-15T11:29:14Z</time><name>PT2160</name></trkpt>
<trkpt lat="52.952081" lon="-3.287127"><ele>423</ele><time>2022-04-15T11:29:17Z</time><name>PT2161</name></trkpt>
<trkpt lat="52.952056" lon="-3.287175"><ele>423</ele><time>2022-04-15T11:29:20Z</time><name>PT2162</name></trkpt>
<trkpt lat="52.952017" lon="-3.287239"><ele>423</ele><time>2022-04-15T11:29:24Z</time><name>PT2163</name></trkpt>
<trkpt lat="52.951989" lon="-3.287290"><ele>424</ele><time>2022-04-15T11:29:27Z</time><name>PT2164</name></trkpt>
<trkpt lat="52.951951" lon="-3.287337"><ele>422</ele><time>2022-04-15T11:29:31Z</time><name>PT2165</name></trkpt>
<trkpt lat="52.951911" lon="-3.287386"><ele>423</ele><time>2022-04-15T11:29:35Z</time><name>PT2166</name></trkpt>
<trkpt lat="52.951878" lon="-3.287431"><ele>423</ele><time>2022-04-15T11:29:39Z</time><name>PT2167</name></trkpt>
<trkpt lat="52.951834" lon="-3.287471"><ele>423</ele><time>2022-04-15T11:29:43Z</time><name>PT2168</name></trkpt>
<trkpt lat="52.951803" lon="-3.287516"><ele>424</ele><time>2022-04-15T11:29:46Z</time><name>PT2169</name></trkpt>
<trkpt lat="52.951774" lon="-3.287559"><ele>424</ele><time>2022-04-15T11:29:50Z</time><name>PT2170</name></trkpt>
<trkpt lat="52.951750" lon="-3.287591"><ele>424</ele><time>2022-04-15T11:29:54Z</time><name>PT2171</name></trkpt>
<trkpt lat="52.951737" lon="-3.287611"><ele>425</ele><time>2022-04-15T11:29:57Z</time><name>PT2172</name></trkpt>
<trkpt lat="52.951729" lon="-3.287608"><ele>425</ele><time>2022-04-15T11:30:01Z</time><name>PT2173</name></trkpt>
<trkpt lat="52.951719" lon="-3.287638"><ele>425</ele><time>2022-04-15T11:30:29Z</time><name>PT2174</name></trkpt>
<trkpt lat="52.951688" lon="-3.287684"><ele>424</ele><time>2022-04-15T11:30:32Z</time><name>PT2175</name></trkpt>
<trkpt lat="52.951658" lon="-3.287713"><ele>423</ele><time>2022-04-15T11:30:35Z</time><name>PT2176</name></trkpt>
<trkpt lat="52.951620" lon="-3.287759"><ele>423</ele><time>2022-04-15T11:30:39Z</time><name>PT2177</name></trkpt>
<trkpt lat="52.951591" lon="-3.287803"><ele>423</ele><time>2022-04-15T11:30:43Z</time><name>PT2178</name></trkpt>
<trkpt lat="52.951562" lon="-3.287847"><ele>424</ele><time>2022-04-15T11:30:47Z</time><name>PT2179</name></trkpt>
<trkpt lat="52.951519" lon="-3.287887"><ele>424</ele><time>2022-04-15T11:30:51Z</time><name>PT2180</name></trkpt>
<trkpt lat="52.951478" lon="-3.287921"><ele>424</ele><time>2022-04-15T11:30:55Z</time><name>PT2181</name></trkpt>
<trkpt lat="52.951438" lon="-3.287956"><ele>423</ele><time>2022-04-15T11:30:59Z</time><name>PT2182</name></trkpt>
<trkpt lat="52.951396" lon="-3.287996"><ele>424</ele><time>2022-04-15T11:31:03Z</time><name>PT2183</name></trkpt>
<trkpt lat="52.951348" lon="-3.288039"><ele>423</ele><time>2022-04-15T11:31:07Z</time><name>PT2184</name></trkpt>
<trkpt lat="52.951302" lon="-3.288060"><ele>422</ele><time>2022-04-15T11:31:11Z</time><name>PT2185</name></trkpt>
<trkpt lat="52.951267" lon="-3.288083"><ele>422</ele><time>2022-04-15T11:31:14Z</time><name>PT2186</name></trkpt>
<trkpt lat="52.951230" lon="-3.288116"><ele>422</ele><time>2022-04-15T11:31:18Z</time><name>PT2187</name></trkpt>
<trkpt lat="52.951197" lon="-3.288135"><ele>422</ele><time>2022-04-15T11:31:21Z</time><name>PT2188</name></trkpt>
<trkpt lat="52.951168" lon="-3.288160"><ele>423</ele><time>2022-04-15T11:31:24Z</time><name>PT2189</name></trkpt>
<trkpt lat="52.951137" lon="-3.288171"><ele>423</ele><time>2022-04-15T11:31:27Z</time><name>PT2190</name></trkpt>
<trkpt lat="52.951101" lon="-3.288196"><ele>423</ele><time>2022-04-15T11:31:30Z</time><name>PT2191</name></trkpt>
<trkpt lat="52.951049" lon="-3.288229"><ele>422</ele><time>2022-04-15T11:31:34Z</time><name>PT2192</name></trkpt>
<trkpt lat="52.951014" lon="-3.288251"><ele>423</ele><time>2022-04-15T11:31:37Z</time><name>PT2193</name></trkpt>
<trkpt lat="52.950982" lon="-3.288278"><ele>423</ele><time>2022-04-15T11:31:40Z</time><name>PT2194</name></trkpt>
<trkpt lat="52.950928" lon="-3.288312"><ele>424</ele><time>2022-04-15T11:31:44Z</time><name>PT2195</name></trkpt>
<trkpt lat="52.950890" lon="-3.288334"><ele>423</ele><time>2022-04-15T11:31:47Z</time><name>PT2196</name></trkpt>
<trkpt lat="52.950843" lon="-3.288363"><ele>423</ele><time>2022-04-15T11:31:50Z</time><name>PT2197</name></trkpt>
<trkpt lat="52.950794" lon="-3.288399"><ele>422</ele><time>2022-04-15T11:31:54Z</time><name>PT2198</name></trkpt>
<trkpt lat="52.950759" lon="-3.288422"><ele>422</ele><time>2022-04-15T11:31:57Z</time><name>PT2199</name></trkpt>
<trkpt lat="52.950713" lon="-3.288456"><ele>421</ele><time>2022-04-15T11:32:01Z</time><name>PT2200</name></trkpt>
<trkpt lat="52.950669" lon="-3.288492"><ele>422</ele><time>2022-04-15T11:32:05Z</time><name>PT2201</name></trkpt>
<trkpt lat="52.950632" lon="-3.288529"><ele>422</ele><time>2022-04-15T11:32:08Z</time><name>PT2202</name></trkpt>
<trkpt lat="52.950599" lon="-3.288552"><ele>422</ele><time>2022-04-15T11:32:11Z</time><name>PT2203</name></trkpt>
<trkpt lat="52.950554" lon="-3.288591"><ele>422</ele><time>2022-04-15T11:32:15Z</time><name>PT2204</name></trkpt>
<trkpt lat="52.950518" lon="-3.288629"><ele>422</ele><time>2022-04-15T11:32:19Z</time><name>PT2205</name></trkpt>
<trkpt lat="52.950476" lon="-3.288668"><ele>423</ele><time>2022-04-15T11:32:23Z</time><name>PT2206</name></trkpt>
<trkpt lat="52.950446" lon="-3.288691"><ele>422</ele><time>2022-04-15T11:32:26Z</time><name>PT2207</name></trkpt>
<trkpt lat="52.950417" lon="-3.288724"><ele>422</ele><time>2022-04-15T11:32:29Z</time><name>PT2208</name></trkpt>
<trkpt lat="52.950373" lon="-3.288759"><ele>422</ele><time>2022-04-15T11:32:33Z</time><name>PT2209</name></trkpt>
<trkpt lat="52.950330" lon="-3.288805"><ele>422</ele><time>2022-04-15T11:32:37Z</time><name>PT2210</name></trkpt>
<trkpt lat="52.950304" lon="-3.288826"><ele>421</ele><time>2022-04-15T11:32:40Z</time><name>PT2211</name></trkpt>
<trkpt lat="52.950272" lon="-3.288860"><ele>423</ele><time>2022-04-15T11:32:44Z</time><name>PT2212</name></trkpt>
<trkpt lat="52.950260" lon="-3.288861"><ele>422</ele><time>2022-04-15T11:32:47Z</time><name>PT2213</name></trkpt>
<trkpt lat="52.950245" lon="-3.288870"><ele>423</ele><time>2022-04-15T11:32:50Z</time><name>PT2214</name></trkpt>
<trkpt lat="52.950240" lon="-3.288891"><ele>423</ele><time>2022-04-15T11:32:53Z</time><name>PT2215</name></trkpt>
<trkpt lat="52.950236" lon="-3.288894"><ele>423</ele><time>2022-04-15T11:32:57Z</time><name>PT2216</name></trkpt>
<trkpt lat="52.950196" lon="-3.288954"><ele>423</ele><time>2022-04-15T11:33:01Z</time><name>PT2217</name></trkpt>
<trkpt lat="52.950166" lon="-3.289018"><ele>423</ele><time>2022-04-15T11:33:04Z</time><name>PT2218</name></trkpt>
<trkpt lat="52.950135" lon="-3.289097"><ele>424</ele><time>2022-04-15T11:33:08Z</time><name>PT2219</name></trkpt>
<trkpt lat="52.950127" lon="-3.289150"><ele>425</ele><time>2022-04-15T11:33:11Z</time><name>PT2220</name></trkpt>
<trkpt lat="52.950099" lon="-3.289220"><ele>425</ele><time>2022-04-15T11:33:15Z</time><name>PT2221</name></trkpt>
<trkpt lat="52.950087" lon="-3.289308"><ele>426</ele><time>2022-04-15T11:33:19Z</time><name>PT2222</name></trkpt>
<trkpt lat="52.950070" lon="-3.289394"><ele>427</ele><time>2022-04-15T11:33:23Z</time><name>PT2223</name></trkpt>
<trkpt lat="52.950061" lon="-3.289481"><ele>427</ele><time>2022-04-15T11:33:27Z</time><name>PT2224</name></trkpt>
<trkpt lat="52.950064" lon="-3.289565"><ele>428</ele><time>2022-04-15T11:33:31Z</time><name>PT2225</name></trkpt>
<trkpt lat="52.950048" lon="-3.289638"><ele>428</ele><time>2022-04-15T11:33:35Z</time><name>PT2226</name></trkpt>
<trkpt lat="52.950044" lon="-3.289727"><ele>428</ele><time>2022-04-15T11:33:39Z</time><name>PT2227</name></trkpt>
<trkpt lat="52.950039" lon="-3.289813"><ele>430</ele><time>2022-04-15T11:33:43Z</time><name>PT2228</name></trkpt>
<trkpt lat="52.950036" lon="-3.289873"><ele>429</ele><time>2022-04-15T11:33:46Z</time><name>PT2229</name></trkpt>
<trkpt lat="52.950034" lon="-3.289955"><ele>430</ele><time>2022-04-15T11:33:50Z</time><name>PT2230</name></trkpt>
<trkpt lat="52.950031" lon="-3.290012"><ele>430</ele><time>2022-04-15T11:33:53Z</time><name>PT2231</name></trkpt>
<trkpt lat="52.950031" lon="-3.290071"><ele>430</ele><time>2022-04-15T11:33:56Z</time><name>PT2232</name></trkpt>
<trkpt lat="52.950030" lon="-3.290152"><ele>430</ele><time>2022-04-15T11:34:00Z</time><name>PT2233</name></trkpt>
<trkpt lat="52.950030" lon="-3.290230"><ele>431</ele><time>2022-04-15T11:34:04Z</time><name>PT2234</name></trkpt>
<trkpt lat="52.950036" lon="-3.290315"><ele>431</ele><time>2022-04-15T11:34:08Z</time><name>PT2235</name></trkpt>
<trkpt lat="52.950034" lon="-3.290372"><ele>431</ele><time>2022-04-15T11:34:11Z</time><name>PT2236</name></trkpt>
<trkpt lat="52.950033" lon="-3.290431"><ele>432</ele><time>2022-04-15T11:34:14Z</time><name>PT2237</name></trkpt>
<trkpt lat="52.950037" lon="-3.290506"><ele>432</ele><time>2022-04-15T11:34:18Z</time><name>PT2238</name></trkpt>
<trkpt lat="52.950036" lon="-3.290586"><ele>432</ele><time>2022-04-15T11:34:22Z</time><name>PT2239</name></trkpt>
<trkpt lat="52.950037" lon="-3.290665"><ele>432</ele><time>2022-04-15T11:34:26Z</time><name>PT2240</name></trkpt>
<trkpt lat="52.950039" lon="-3.290743"><ele>433</ele><time>2022-04-15T11:34:30Z</time><name>PT2241</name></trkpt>
<trkpt lat="52.950042" lon="-3.290813"><ele>433</ele><time>2022-04-15T11:34:34Z</time><name>PT2242</name></trkpt>
<trkpt lat="52.950041" lon="-3.290882"><ele>433</ele><time>2022-04-15T11:34:38Z</time><name>PT2243</name></trkpt>
<trkpt lat="52.950041" lon="-3.290956"><ele>433</ele><time>2022-04-15T11:34:42Z</time><name>PT2244</name></trkpt>
<trkpt lat="52.950043" lon="-3.291004"><ele>433</ele><time>2022-04-15T11:34:45Z</time><name>PT2245</name></trkpt>
<trkpt lat="52.950040" lon="-3.291075"><ele>433</ele><time>2022-04-15T11:34:49Z</time><name>PT2246</name></trkpt>
<trkpt lat="52.950040" lon="-3.291128"><ele>433</ele><time>2022-04-15T11:34:52Z</time><name>PT2247</name></trkpt>
<trkpt lat="52.950043" lon="-3.291196"><ele>434</ele><time>2022-04-15T11:34:56Z</time><name>PT2248</name></trkpt>
<trkpt lat="52.950045" lon="-3.291247"><ele>433</ele><time>2022-04-15T11:34:59Z</time><name>PT2249</name></trkpt>
<trkpt lat="52.950045" lon="-3.291314"><ele>433</ele><time>2022-04-15T11:35:03Z</time><name>PT2250</name></trkpt>
<trkpt lat="52.950042" lon="-3.291365"><ele>433</ele><time>2022-04-15T11:35:06Z</time><name>PT2251</name></trkpt>
<trkpt lat="52.950042" lon="-3.291422"><ele>433</ele><time>2022-04-15T11:35:09Z</time><name>PT2252</name></trkpt>
<trkpt lat="52.950048" lon="-3.291499"><ele>434</ele><time>2022-04-15T11:35:13Z</time><name>PT2253</name></trkpt>
<trkpt lat="52.950050" lon="-3.291559"><ele>434</ele><time>2022-04-15T11:35:16Z</time><name>PT2254</name></trkpt>
<trkpt lat="52.950052" lon="-3.291632"><ele>435</ele><time>2022-04-15T11:35:20Z</time><name>PT2255</name></trkpt>
<trkpt lat="52.950055" lon="-3.291693"><ele>434</ele><time>2022-04-15T11:35:23Z</time><name>PT2256</name></trkpt>
<trkpt lat="52.950062" lon="-3.291750"><ele>433</ele><time>2022-04-15T11:35:26Z</time><name>PT2257</name></trkpt>
<trkpt lat="52.950062" lon="-3.291823"><ele>434</ele><time>2022-04-15T11:35:30Z</time><name>PT2258</name></trkpt>
<trkpt lat="52.950061" lon="-3.291895"><ele>434</ele><time>2022-04-15T11:35:34Z</time><name>PT2259</name></trkpt>
<trkpt lat="52.950063" lon="-3.291947"><ele>434</ele><time>2022-04-15T11:35:37Z</time><name>PT2260</name></trkpt>
<trkpt lat="52.950063" lon="-3.292020"><ele>433</ele><time>2022-04-15T11:35:41Z</time><name>PT2261</name></trkpt>
<trkpt lat="52.950061" lon="-3.292090"><ele>433</ele><time>2022-04-15T11:35:45Z</time><name>PT2262</name></trkpt>
<trkpt lat="52.950060" lon="-3.292139"><ele>433</ele><time>2022-04-15T11:35:48Z</time><name>PT2263</name></trkpt>
<trkpt lat="52.950057" lon="-3.292198"><ele>434</ele><time>2022-04-15T11:35:51Z</time><name>PT2264</name></trkpt>
<trkpt lat="52.950064" lon="-3.292253"><ele>433</ele><time>2022-04-15T11:35:54Z</time><name>PT2265</name></trkpt>
<trkpt lat="52.950066" lon="-3.292327"><ele>434</ele><time>2022-04-15T11:35:58Z</time><name>PT2266</name></trkpt>
<trkpt lat="52.950062" lon="-3.292388"><ele>434</ele><time>2022-04-15T11:36:01Z</time><name>PT2267</name></trkpt>
<trkpt lat="52.950065" lon="-3.292447"><ele>435</ele><time>2022-04-15T11:36:04Z</time><name>PT2268</name></trkpt>
<trkpt lat="52.950063" lon="-3.292524"><ele>435</ele><time>2022-04-15T11:36:08Z</time><name>PT2269</name></trkpt>
<trkpt lat="52.950064" lon="-3.292581"><ele>435</ele><time>2022-04-15T11:36:11Z</time><name>PT2270</name></trkpt>
<trkpt lat="52.950067" lon="-3.292649"><ele>434</ele><time>2022-04-15T11:36:15Z</time><name>PT2271</name></trkpt>
<trkpt lat="52.950067" lon="-3.292682"><ele>434</ele><time>2022-04-15T11:36:18Z</time><name>PT2272</name></trkpt>
<trkpt lat="52.950067" lon="-3.292704"><ele>434</ele><time>2022-04-15T11:36:22Z</time><name>PT2273</name></trkpt>
<trkpt lat="52.950074" lon="-3.292734"><ele>434</ele><time>2022-04-15T11:36:26Z</time><name>PT2274</name></trkpt>
<trkpt lat="52.950063" lon="-3.292787"><ele>433</ele><time>2022-04-15T11:36:29Z</time><name>PT2275</name></trkpt>
<trkpt lat="52.950074" lon="-3.292844"><ele>433</ele><time>2022-04-15T11:36:33Z</time><name>PT2276</name></trkpt>
<trkpt lat="52.950083" lon="-3.292896"><ele>433</ele><time>2022-04-15T11:36:36Z</time><name>PT2277</name></trkpt>
<trkpt lat="52.950082" lon="-3.292931"><ele>433</ele><time>2022-04-15T11:36:39Z</time><name>PT2278</name></trkpt>
<trkpt lat="52.950071" lon="-3.292968"><ele>434</ele><time>2022-04-15T11:36:43Z</time><name>PT2279</name></trkpt>
<trkpt lat="52.950068" lon="-3.292996"><ele>433</ele><time>2022-04-15T11:36:46Z</time><name>PT2280</name></trkpt>
<trkpt lat="52.950088" lon="-3.293079"><ele>434</ele><time>2022-04-15T11:36:50Z</time><name>PT2281</name></trkpt>
<trkpt lat="52.950101" lon="-3.293131"><ele>434</ele><time>2022-04-15T11:36:53Z</time><name>PT2282</name></trkpt>
<trkpt lat="52.950125" lon="-3.293193"><ele>434</ele><time>2022-04-15T11:36:57Z</time><name>PT2283</name></trkpt>
<trkpt lat="52.950142" lon="-3.293227"><ele>433</ele><time>2022-04-15T11:37:00Z</time><name>PT2284</name></trkpt>
<trkpt lat="52.950162" lon="-3.293262"><ele>432</ele><time>2022-04-15T11:37:04Z</time><name>PT2285</name></trkpt>
<trkpt lat="52.950182" lon="-3.293288"><ele>432</ele><time>2022-04-15T11:37:08Z</time><name>PT2286</name></trkpt>
<trkpt lat="52.950207" lon="-3.293305"><ele>432</ele><time>2022-04-15T11:37:11Z</time><name>PT2287</name></trkpt>
<trkpt lat="52.950228" lon="-3.293317"><ele>432</ele><time>2022-04-15T11:37:15Z</time><name>PT2288</name></trkpt>
<trkpt lat="52.950261" lon="-3.293348"><ele>431</ele><time>2022-04-15T11:37:19Z</time><name>PT2289</name></trkpt>
<trkpt lat="52.950286" lon="-3.293378"><ele>430</ele><time>2022-04-15T11:37:22Z</time><name>PT2290</name></trkpt>
<trkpt lat="52.950321" lon="-3.293413"><ele>432</ele><time>2022-04-15T11:37:26Z</time><name>PT2291</name></trkpt>
<trkpt lat="52.950338" lon="-3.293435"><ele>433</ele><time>2022-04-15T11:37:30Z</time><name>PT2292</name></trkpt>
<trkpt lat="52.950340" lon="-3.293445"><ele>434</ele><time>2022-04-15T11:37:33Z</time><name>PT2293</name></trkpt>
<trkpt lat="52.950345" lon="-3.293453"><ele>433</ele><time>2022-04-15T11:37:37Z</time><name>PT2294</name></trkpt>
<trkpt lat="52.950358" lon="-3.293448"><ele>433</ele><time>2022-04-15T11:37:40Z</time><name>PT2295</name></trkpt>
<trkpt lat="52.950385" lon="-3.293504"><ele>433</ele><time>2022-04-15T11:37:43Z</time><name>PT2296</name></trkpt>
<trkpt lat="52.950415" lon="-3.293554"><ele>432</ele><time>2022-04-15T11:37:47Z</time><name>PT2297</name></trkpt>
<trkpt lat="52.950438" lon="-3.293603"><ele>432</ele><time>2022-04-15T11:37:50Z</time><name>PT2298</name></trkpt>
<trkpt lat="52.950459" lon="-3.293651"><ele>432</ele><time>2022-04-15T11:37:53Z</time><name>PT2299</name></trkpt>
<trkpt lat="52.950479" lon="-3.293704"><ele>432</ele><time>2022-04-15T11:37:56Z</time><name>PT2300</name></trkpt>
<trkpt lat="52.950501" lon="-3.293777"><ele>432</ele><time>2022-04-15T11:38:00Z</time><name>PT2301</name></trkpt>
<trkpt lat="52.950522" lon="-3.293845"><ele>433</ele><time>2022-04-15T11:38:04Z</time><name>PT2302</name></trkpt>
<trkpt lat="52.950537" lon="-3.293887"><ele>432</ele><time>2022-04-15T11:38:07Z</time><name>PT2303</name></trkpt>
<trkpt lat="52.950544" lon="-3.293909"><ele>433</ele><time>2022-04-15T11:38:08Z</time><name>PT2304</name></trkpt>
<trkpt lat="52.950549" lon="-3.293931"><ele>434</ele><time>2022-04-15T11:38:09Z</time><name>PT2305</name></trkpt>
<trkpt lat="52.950557" lon="-3.293954"><ele>434</ele><time>2022-04-15T11:38:10Z</time><name>PT2306</name></trkpt>
<trkpt lat="52.950564" lon="-3.293978"><ele>433</ele><time>2022-04-15T11:38:11Z</time><name>PT2307</name></trkpt>
<trkpt lat="52.950570" lon="-3.294001"><ele>434</ele><time>2022-04-15T11:38:12Z</time><name>PT2308</name></trkpt>
<trkpt lat="52.950575" lon="-3.294022"><ele>434</ele><time>2022-04-15T11:38:13Z</time><name>PT2309</name></trkpt>
<trkpt lat="52.950579" lon="-3.294040"><ele>434</ele><time>2022-04-15T11:38:14Z</time><name>PT2310</name></trkpt>
<trkpt lat="52.950583" lon="-3.294061"><ele>434</ele><time>2022-04-15T11:38:15Z</time><name>PT2311</name></trkpt>
<trkpt lat="52.950587" lon="-3.294080"><ele>434</ele><time>2022-04-15T11:38:16Z</time><name>PT2312</name></trkpt>
<trkpt lat="52.950590" lon="-3.294099"><ele>434</ele><time>2022-04-15T11:38:17Z</time><name>PT2313</name></trkpt>
<trkpt lat="52.950594" lon="-3.294117"><ele>434</ele><time>2022-04-15T11:38:18Z</time><name>PT2314</name></trkpt>
<trkpt lat="52.950598" lon="-3.294136"><ele>434</ele><time>2022-04-15T11:38:19Z</time><name>PT2315</name></trkpt>
<trkpt lat="52.950603" lon="-3.294155"><ele>434</ele><time>2022-04-15T11:38:20Z</time><name>PT2316</name></trkpt>
<trkpt lat="52.950606" lon="-3.294175"><ele>434</ele><time>2022-04-15T11:38:21Z</time><name>PT2317</name></trkpt>
<trkpt lat="52.950609" lon="-3.294197"><ele>434</ele><time>2022-04-15T11:38:22Z</time><name>PT2318</name></trkpt>
<trkpt lat="52.950611" lon="-3.294215"><ele>434</ele><time>2022-04-15T11:38:23Z</time><name>PT2319</name></trkpt>
<trkpt lat="52.950615" lon="-3.294237"><ele>434</ele><time>2022-04-15T11:38:24Z</time><name>PT2320</name></trkpt>
<trkpt lat="52.950618" lon="-3.294257"><ele>434</ele><time>2022-04-15T11:38:25Z</time><name>PT2321</name></trkpt>
<trkpt lat="52.950622" lon="-3.294276"><ele>435</ele><time>2022-04-15T11:38:26Z</time><name>PT2322</name></trkpt>
<trkpt lat="52.950625" lon="-3.294295"><ele>435</ele><time>2022-04-15T11:38:27Z</time><name>PT2323</name></trkpt>
<trkpt lat="52.950628" lon="-3.294315"><ele>435</ele><time>2022-04-15T11:38:28Z</time><name>PT2324</name></trkpt>
<trkpt lat="52.950630" lon="-3.294334"><ele>435</ele><time>2022-04-15T11:38:29Z</time><name>PT2325</name></trkpt>
<trkpt lat="52.950633" lon="-3.294354"><ele>435</ele><time>2022-04-15T11:38:30Z</time><name>PT2326</name></trkpt>
<trkpt lat="52.950636" lon="-3.294374"><ele>435</ele><time>2022-04-15T11:38:31Z</time><name>PT2327</name></trkpt>
<trkpt lat="52.950638" lon="-3.294392"><ele>435</ele><time>2022-04-15T11:38:32Z</time><name>PT2328</name></trkpt>
<trkpt lat="52.950641" lon="-3.294412"><ele>435</ele><time>2022-04-15T11:38:33Z</time><name>PT2329</name></trkpt>
<trkpt lat="52.950644" lon="-3.294432"><ele>435</ele><time>2022-04-15T11:38:34Z</time><name>PT2330</name></trkpt>
<trkpt lat="52.950647" lon="-3.294450"><ele>435</ele><time>2022-04-15T11:38:35Z</time><name>PT2331</name></trkpt>
<trkpt lat="52.950649" lon="-3.294470"><ele>435</ele><time>2022-04-15T11:38:36Z</time><name>PT2332</name></trkpt>
<trkpt lat="52.950652" lon="-3.294490"><ele>435</ele><time>2022-04-15T11:38:37Z</time><name>PT2333</name></trkpt>
<trkpt lat="52.950654" lon="-3.294508"><ele>435</ele><time>2022-04-15T11:38:38Z</time><name>PT2334</name></trkpt>
<trkpt lat="52.950657" lon="-3.294527"><ele>435</ele><time>2022-04-15T11:38:39Z</time><name>PT2335</name></trkpt>
<trkpt lat="52.950658" lon="-3.294545"><ele>435</ele><time>2022-04-15T11:38:40Z</time><name>PT2336</name></trkpt>
<trkpt lat="52.950660" lon="-3.294561"><ele>435</ele><time>2022-04-15T11:38:41Z</time><name>PT2337</name></trkpt>
<trkpt lat="52.950662" lon="-3.294578"><ele>435</ele><time>2022-04-15T11:38:42Z</time><name>PT2338</name></trkpt>
<trkpt lat="52.950665" lon="-3.294596"><ele>434</ele><time>2022-04-15T11:38:43Z</time><name>PT2339</name></trkpt>
<trkpt lat="52.950667" lon="-3.294614"><ele>435</ele><time>2022-04-15T11:38:44Z</time><name>PT2340</name></trkpt>
<trkpt lat="52.950669" lon="-3.294633"><ele>435</ele><time>2022-04-15T11:38:45Z</time><name>PT2341</name></trkpt>
<trkpt lat="52.950671" lon="-3.294651"><ele>434</ele><time>2022-04-15T11:38:46Z</time><name>PT2342</name></trkpt>
<trkpt lat="52.950674" lon="-3.294668"><ele>434</ele><time>2022-04-15T11:38:47Z</time><name>PT2343</name></trkpt>
<trkpt lat="52.950677" lon="-3.294687"><ele>434</ele><time>2022-04-15T11:38:48Z</time><name>PT2344</name></trkpt>
<trkpt lat="52.950679" lon="-3.294706"><ele>434</ele><time>2022-04-15T11:38:49Z</time><name>PT2345</name></trkpt>
<trkpt lat="52.950682" lon="-3.294727"><ele>434</ele><time>2022-04-15T11:38:50Z</time><name>PT2346</name></trkpt>
<trkpt lat="52.950684" lon="-3.294746"><ele>434</ele><time>2022-04-15T11:38:51Z</time><name>PT2347</name></trkpt>
<trkpt lat="52.950687" lon="-3.294767"><ele>434</ele><time>2022-04-15T11:38:52Z</time><name>PT2348</name></trkpt>
<trkpt lat="52.950690" lon="-3.294787"><ele>434</ele><time>2022-04-15T11:38:53Z</time><name>PT2349</name></trkpt>
<trkpt lat="52.950692" lon="-3.294808"><ele>434</ele><time>2022-04-15T11:38:54Z</time><name>PT2350</name></trkpt>
<trkpt lat="52.950695" lon="-3.294829"><ele>434</ele><time>2022-04-15T11:38:55Z</time><name>PT2351</name></trkpt>
<trkpt lat="52.950700" lon="-3.294850"><ele>434</ele><time>2022-04-15T11:38:56Z</time><name>PT2352</name></trkpt>
<trkpt lat="52.950704" lon="-3.294871"><ele>435</ele><time>2022-04-15T11:38:57Z</time><name>PT2353</name></trkpt>
<trkpt lat="52.950705" lon="-3.294892"><ele>435</ele><time>2022-04-15T11:38:58Z</time><name>PT2354</name></trkpt>
<trkpt lat="52.950710" lon="-3.294914"><ele>434</ele><time>2022-04-15T11:38:59Z</time><name>PT2355</name></trkpt>
<trkpt lat="52.950714" lon="-3.294935"><ele>435</ele><time>2022-04-15T11:39:00Z</time><name>PT2356</name></trkpt>
<trkpt lat="52.950715" lon="-3.294959"><ele>434</ele><time>2022-04-15T11:39:01Z</time><name>PT2357</name></trkpt>
<trkpt lat="52.950716" lon="-3.294978"><ele>434</ele><time>2022-04-15T11:39:02Z</time><name>PT2358</name></trkpt>
<trkpt lat="52.950719" lon="-3.294998"><ele>434</ele><time>2022-04-15T11:39:03Z</time><name>PT2359</name></trkpt>
<trkpt lat="52.950719" lon="-3.295019"><ele>434</ele><time>2022-04-15T11:39:04Z</time><name>PT2360</name></trkpt>
<trkpt lat="52.950719" lon="-3.295041"><ele>434</ele><time>2022-04-15T11:39:05Z</time><name>PT2361</name></trkpt>
<trkpt lat="52.950723" lon="-3.295063"><ele>434</ele><time>2022-04-15T11:39:06Z</time><name>PT2362</name></trkpt>
<trkpt lat="52.950724" lon="-3.295078"><ele>434</ele><time>2022-04-15T11:39:07Z</time><name>PT2363</name></trkpt>
<trkpt lat="52.950727" lon="-3.295097"><ele>434</ele><time>2022-04-15T11:39:08Z</time><name>PT2364</name></trkpt>
<trkpt lat="52.950731" lon="-3.295123"><ele>434</ele><time>2022-04-15T11:39:09Z</time><name>PT2365</name></trkpt>
<trkpt lat="52.950733" lon="-3.295146"><ele>434</ele><time>2022-04-15T11:39:10Z</time><name>PT2366</name></trkpt>
<trkpt lat="52.950734" lon="-3.295166"><ele>434</ele><time>2022-04-15T11:39:11Z</time><name>PT2367</name></trkpt>
<trkpt lat="52.950735" lon="-3.295187"><ele>433</ele><time>2022-04-15T11:39:12Z</time><name>PT2368</name></trkpt>
<trkpt lat="52.950733" lon="-3.295207"><ele>433</ele><time>2022-04-15T11:39:13Z</time><name>PT2369</name></trkpt>
<trkpt lat="52.950733" lon="-3.295224"><ele>433</ele><time>2022-04-15T11:39:14Z</time><name>PT2370</name></trkpt>
<trkpt lat="52.950736" lon="-3.295242"><ele>433</ele><time>2022-04-15T11:39:15Z</time><name>PT2371</name></trkpt>
<trkpt lat="52.950740" lon="-3.295261"><ele>433</ele><time>2022-04-15T11:39:16Z</time><name>PT2372</name></trkpt>
<trkpt lat="52.950743" lon="-3.295281"><ele>432</ele><time>2022-04-15T11:39:17Z</time><name>PT2373</name></trkpt>
<trkpt lat="52.950744" lon="-3.295301"><ele>432</ele><time>2022-04-15T11:39:18Z</time><name>PT2374</name></trkpt>
<trkpt lat="52.950744" lon="-3.295322"><ele>432</ele><time>2022-04-15T11:39:19Z</time><name>PT2375</name></trkpt>
<trkpt lat="52.950746" lon="-3.295348"><ele>432</ele><time>2022-04-15T11:39:20Z</time><name>PT2376</name></trkpt>
<trkpt lat="52.950746" lon="-3.295369"><ele>432</ele><time>2022-04-15T11:39:21Z</time><name>PT2377</name></trkpt>
<trkpt lat="52.950748" lon="-3.295389"><ele>432</ele><time>2022-04-15T11:39:22Z</time><name>PT2378</name></trkpt>
<trkpt lat="52.950753" lon="-3.295409"><ele>432</ele><time>2022-04-15T11:39:23Z</time><name>PT2379</name></trkpt>
<trkpt lat="52.950752" lon="-3.295429"><ele>432</ele><time>2022-04-15T11:39:24Z</time><name>PT2380</name></trkpt>
<trkpt lat="52.950751" lon="-3.295445"><ele>432</ele><time>2022-04-15T11:39:25Z</time><name>PT2381</name></trkpt>
<trkpt lat="52.950751" lon="-3.295466"><ele>432</ele><time>2022-04-15T11:39:26Z</time><name>PT2382</name></trkpt>
<trkpt lat="52.950750" lon="-3.295488"><ele>433</ele><time>2022-04-15T11:39:27Z</time><name>PT2383</name></trkpt>
<trkpt lat="52.950754" lon="-3.295510"><ele>433</ele><time>2022-04-15T11:39:28Z</time><name>PT2384</name></trkpt>
<trkpt lat="52.950755" lon="-3.295533"><ele>434</ele><time>2022-04-15T11:39:29Z</time><name>PT2385</name></trkpt>
<trkpt lat="52.950755" lon="-3.295554"><ele>434</ele><time>2022-04-15T11:39:30Z</time><name>PT2386</name></trkpt>
<trkpt lat="52.950757" lon="-3.295574"><ele>434</ele><time>2022-04-15T11:39:31Z</time><name>PT2387</name></trkpt>
<trkpt lat="52.950755" lon="-3.295597"><ele>435</ele><time>2022-04-15T11:39:32Z</time><name>PT2388</name></trkpt>
<trkpt lat="52.950755" lon="-3.295618"><ele>434</ele><time>2022-04-15T11:39:33Z</time><name>PT2389</name></trkpt>
<trkpt lat="52.950755" lon="-3.295635"><ele>435</ele><time>2022-04-15T11:39:34Z</time><name>PT2390</name></trkpt>
<trkpt lat="52.950756" lon="-3.295656"><ele>435</ele><time>2022-04-15T11:39:35Z</time><name>PT2391</name></trkpt>
<trkpt lat="52.950755" lon="-3.295675"><ele>435</ele><time>2022-04-15T11:39:36Z</time><name>PT2392</name></trkpt>
<trkpt lat="52.950754" lon="-3.295696"><ele>435</ele><time>2022-04-15T11:39:37Z</time><name>PT2393</name></trkpt>
<trkpt lat="52.950749" lon="-3.295716"><ele>434</ele><time>2022-04-15T11:39:38Z</time><name>PT2394</name></trkpt>
<trkpt lat="52.950746" lon="-3.295730"><ele>434</ele><time>2022-04-15T11:39:39Z</time><name>PT2395</name></trkpt>
<trkpt lat="52.950745" lon="-3.295750"><ele>434</ele><time>2022-04-15T11:39:40Z</time><name>PT2396</name></trkpt>
<trkpt lat="52.950744" lon="-3.295769"><ele>434</ele><time>2022-04-15T11:39:41Z</time><name>PT2397</name></trkpt>
<trkpt lat="52.950743" lon="-3.295786"><ele>434</ele><time>2022-04-15T11:39:42Z</time><name>PT2398</name></trkpt>
<trkpt lat="52.950740" lon="-3.295806"><ele>434</ele><time>2022-04-15T11:39:43Z</time><name>PT2399</name></trkpt>
<trkpt lat="52.950735" lon="-3.295829"><ele>434</ele><time>2022-04-15T11:39:44Z</time><name>PT2400</name></trkpt>
<trkpt lat="52.950733" lon="-3.295848"><ele>434</ele><time>2022-04-15T11:39:45Z</time><name>PT2401</name></trkpt>
<trkpt lat="52.950732" lon="-3.295867"><ele>433</ele><time>2022-04-15T11:39:46Z</time><name>PT2402</name></trkpt>
<trkpt lat="52.950730" lon="-3.295891"><ele>433</ele><time>2022-04-15T11:39:47Z</time><name>PT2403</name></trkpt>
<trkpt lat="52.950727" lon="-3.295911"><ele>433</ele><time>2022-04-15T11:39:48Z</time><name>PT2404</name></trkpt>
<trkpt lat="52.950725" lon="-3.295928"><ele>433</ele><time>2022-04-15T11:39:49Z</time><name>PT2405</name></trkpt>
<trkpt lat="52.950720" lon="-3.295945"><ele>433</ele><time>2022-04-15T11:39:50Z</time><name>PT2406</name></trkpt>
<trkpt lat="52.950715" lon="-3.295965"><ele>433</ele><time>2022-04-15T11:39:51Z</time><name>PT2407</name></trkpt>
<trkpt lat="52.950714" lon="-3.295981"><ele>433</ele><time>2022-04-15T11:39:52Z</time><name>PT2408</name></trkpt>
<trkpt lat="52.950712" lon="-3.296008"><ele>432</ele><time>2022-04-15T11:39:53Z</time><name>PT2409</name></trkpt>
<trkpt lat="52.950710" lon="-3.296030"><ele>432</ele><time>2022-04-15T11:39:54Z</time><name>PT2410</name></trkpt>
<trkpt lat="52.950706" lon="-3.296045"><ele>432</ele><time>2022-04-15T11:39:55Z</time><name>PT2411</name></trkpt>
<trkpt lat="52.950702" lon="-3.296066"><ele>432</ele><time>2022-04-15T11:39:56Z</time><name>PT2412</name></trkpt>
<trkpt lat="52.950700" lon="-3.296082"><ele>432</ele><time>2022-04-15T11:39:57Z</time><name>PT2413</name></trkpt>
<trkpt lat="52.950699" lon="-3.296101"><ele>433</ele><time>2022-04-15T11:39:58Z</time><name>PT2414</name></trkpt>
<trkpt lat="52.950698" lon="-3.296122"><ele>433</ele><time>2022-04-15T11:39:59Z</time><name>PT2415</name></trkpt>
<trkpt lat="52.950696" lon="-3.296137"><ele>433</ele><time>2022-04-15T11:40:00Z</time><name>PT2416</name></trkpt>
<trkpt lat="52.950694" lon="-3.296157"><ele>433</ele><time>2022-04-15T11:40:01Z</time><name>PT2417</name></trkpt>
<trkpt lat="52.950690" lon="-3.296184"><ele>433</ele><time>2022-04-15T11:40:02Z</time><name>PT2418</name></trkpt>
<trkpt lat="52.950688" lon="-3.296208"><ele>432</ele><time>2022-04-15T11:40:03Z</time><name>PT2419</name></trkpt>
<trkpt lat="52.950684" lon="-3.296224"><ele>432</ele><time>2022-04-15T11:40:04Z</time><name>PT2420</name></trkpt>
<trkpt lat="52.950681" lon="-3.296237"><ele>432</ele><time>2022-04-15T11:40:05Z</time><name>PT2421</name></trkpt>
<trkpt lat="52.950675" lon="-3.296255"><ele>432</ele><time>2022-04-15T11:40:06Z</time><name>PT2422</name></trkpt>
<trkpt lat="52.950667" lon="-3.296270"><ele>431</ele><time>2022-04-15T11:40:07Z</time><name>PT2423</name></trkpt>
<trkpt lat="52.950658" lon="-3.296288"><ele>431</ele><time>2022-04-15T11:40:08Z</time><name>PT2424</name></trkpt>
<trkpt lat="52.950648" lon="-3.296307"><ele>431</ele><time>2022-04-15T11:40:09Z</time><name>PT2425</name></trkpt>
<trkpt lat="52.950640" lon="-3.296324"><ele>431</ele><time>2022-04-15T11:40:10Z</time><name>PT2426</name></trkpt>
<trkpt lat="52.950634" lon="-3.296343"><ele>431</ele><time>2022-04-15T11:40:11Z</time><name>PT2427</name></trkpt>
<trkpt lat="52.950630" lon="-3.296363"><ele>431</ele><time>2022-04-15T11:40:12Z</time><name>PT2428</name></trkpt>
<trkpt lat="52.950626" lon="-3.296378"><ele>430</ele><time>2022-04-15T11:40:13Z</time><name>PT2429</name></trkpt>
<trkpt lat="52.950619" lon="-3.296397"><ele>431</ele><time>2022-04-15T11:40:14Z</time><name>PT2430</name></trkpt>
<trkpt lat="52.950613" lon="-3.296419"><ele>431</ele><time>2022-04-15T11:40:15Z</time><name>PT2431</name></trkpt>
<trkpt lat="52.950608" lon="-3.296439"><ele>431</ele><time>2022-04-15T11:40:16Z</time><name>PT2432</name></trkpt>
<trkpt lat="52.950604" lon="-3.296456"><ele>431</ele><time>2022-04-15T11:40:17Z</time><name>PT2433</name></trkpt>
<trkpt lat="52.950599" lon="-3.296472"><ele>431</ele><time>2022-04-15T11:40:18Z</time><name>PT2434</name></trkpt>
<trkpt lat="52.950595" lon="-3.296490"><ele>431</ele><time>2022-04-15T11:40:19Z</time><name>PT2435</name></trkpt>
<trkpt lat="52.950589" lon="-3.296509"><ele>432</ele><time>2022-04-15T11:40:20Z</time><name>PT2436</name></trkpt>
<trkpt lat="52.950584" lon="-3.296530"><ele>432</ele><time>2022-04-15T11:40:21Z</time><name>PT2437</name></trkpt>
<trkpt lat="52.950581" lon="-3.296546"><ele>432</ele><time>2022-04-15T11:40:22Z</time><name>PT2438</name></trkpt>
<trkpt lat="52.950578" lon="-3.296562"><ele>432</ele><time>2022-04-15T11:40:23Z</time><name>PT2439</name></trkpt>
<trkpt lat="52.950575" lon="-3.296582"><ele>432</ele><time>2022-04-15T11:40:24Z</time><name>PT2440</name></trkpt>
<trkpt lat="52.950570" lon="-3.296597"><ele>432</ele><time>2022-04-15T11:40:25Z</time><name>PT2441</name></trkpt>
<trkpt lat="52.950563" lon="-3.296616"><ele>432</ele><time>2022-04-15T11:40:26Z</time><name>PT2442</name></trkpt>
<trkpt lat="52.950557" lon="-3.296633"><ele>432</ele><time>2022-04-15T11:40:27Z</time><name>PT2443</name></trkpt>
<trkpt lat="52.950552" lon="-3.296652"><ele>432</ele><time>2022-04-15T11:40:28Z</time><name>PT2444</name></trkpt>
<trkpt lat="52.950545" lon="-3.296667"><ele>431</ele><time>2022-04-15T11:40:29Z</time><name>PT2445</name></trkpt>
<trkpt lat="52.950538" lon="-3.296681"><ele>431</ele><time>2022-04-15T11:40:30Z</time><name>PT2446</name></trkpt>
<trkpt lat="52.950532" lon="-3.296700"><ele>431</ele><time>2022-04-15T11:40:31Z</time><name>PT2447</name></trkpt>
<trkpt lat="52.950524" lon="-3.296718"><ele>431</ele><time>2022-04-15T11:40:32Z</time><name>PT2448</name></trkpt>
<trkpt lat="52.950520" lon="-3.296735"><ele>430</ele><time>2022-04-15T11:40:33Z</time><name>PT2449</name></trkpt>
<trkpt lat="52.950514" lon="-3.296754"><ele>430</ele><time>2022-04-15T11:40:34Z</time><name>PT2450</name></trkpt>
<trkpt lat="52.950508" lon="-3.296772"><ele>430</ele><time>2022-04-15T11:40:35Z</time><name>PT2451</name></trkpt>
<trkpt lat="52.950500" lon="-3.296790"><ele>430</ele><time>2022-04-15T11:40:36Z</time><name>PT2452</name></trkpt>
<trkpt lat="52.950493" lon="-3.296805"><ele>431</ele><time>2022-04-15T11:40:37Z</time><name>PT2453</name></trkpt>
<trkpt lat="52.950485" lon="-3.296820"><ele>430</ele><time>2022-04-15T11:40:38Z</time><name>PT2454</name></trkpt>
<trkpt lat="52.950481" lon="-3.296834"><ele>430</ele><time>2022-04-15T11:40:39Z</time><name>PT2455</name></trkpt>
<trkpt lat="52.950474" lon="-3.296850"><ele>430</ele><time>2022-04-15T11:40:40Z</time><name>PT2456</name></trkpt>
<trkpt lat="52.950463" lon="-3.296866"><ele>430</ele><time>2022-04-15T11:40:41Z</time><name>PT2457</name></trkpt>
<trkpt lat="52.950453" lon="-3.296878"><ele>430</ele><time>2022-04-15T11:40:42Z</time><name>PT2458</name></trkpt>
<trkpt lat="52.950440" lon="-3.296886"><ele>429</ele><time>2022-04-15T11:40:43Z</time><name>PT2459</name></trkpt>
<trkpt lat="52.950427" lon="-3.296892"><ele>428</ele><time>2022-04-15T11:40:44Z</time><name>PT2460</name></trkpt>
<trkpt lat="52.950417" lon="-3.296902"><ele>428</ele><time>2022-04-15T11:40:45Z</time><name>PT2461</name></trkpt>
<trkpt lat="52.950408" lon="-3.296917"><ele>428</ele><time>2022-04-15T11:40:46Z</time><name>PT2462</name></trkpt>
<trkpt lat="52.950397" lon="-3.296926"><ele>428</ele><time>2022-04-15T11:40:47Z</time><name>PT2463</name></trkpt>
<trkpt lat="52.950386" lon="-3.296934"><ele>428</ele><time>2022-04-15T11:40:48Z</time><name>PT2464</name></trkpt>
<trkpt lat="52.950374" lon="-3.296943"><ele>428</ele><time>2022-04-15T11:40:49Z</time><name>PT2465</name></trkpt>
<trkpt lat="52.950360" lon="-3.296946"><ele>428</ele><time>2022-04-15T11:40:50Z</time><name>PT2466</name></trkpt>
<trkpt lat="52.950348" lon="-3.296949"><ele>428</ele><time>2022-04-15T11:40:51Z</time><name>PT2467</name></trkpt>
<trkpt lat="52.950338" lon="-3.296957"><ele>428</ele><time>2022-04-15T11:40:52Z</time><name>PT2468</name></trkpt>
<trkpt lat="52.950281" lon="-3.296971"><ele>426</ele><time>2022-04-15T11:40:56Z</time><name>PT2469</name></trkpt>
<trkpt lat="52.950237" lon="-3.296994"><ele>425</ele><time>2022-04-15T11:41:00Z</time><name>PT2470</name></trkpt>
<trkpt lat="52.950200" lon="-3.297043"><ele>427</ele><time>2022-04-15T11:41:04Z</time><name>PT2471</name></trkpt>
<trkpt lat="52.950179" lon="-3.297079"><ele>428</ele><time>2022-04-15T11:41:07Z</time><name>PT2472</name></trkpt>
<trkpt lat="52.950136" lon="-3.297128"><ele>430</ele><time>2022-04-15T11:41:11Z</time><name>PT2473</name></trkpt>
<trkpt lat="52.950096" lon="-3.297177"><ele>431</ele><time>2022-04-15T11:41:15Z</time><name>PT2474</name></trkpt>
<trkpt lat="52.950067" lon="-3.297238"><ele>433</ele><time>2022-04-15T11:41:19Z</time><name>PT2475</name></trkpt>
<trkpt lat="52.950041" lon="-3.297282"><ele>433</ele><time>2022-04-15T11:41:22Z</time><name>PT2476</name></trkpt>
<trkpt lat="52.950006" lon="-3.297365"><ele>434</ele><time>2022-04-15T11:41:26Z</time><name>PT2477</name></trkpt>
<trkpt lat="52.949985" lon="-3.297421"><ele>434</ele><time>2022-04-15T11:41:29Z</time><name>PT2478</name></trkpt>
<trkpt lat="52.949959" lon="-3.297510"><ele>434</ele><time>2022-04-15T11:41:33Z</time><name>PT2479</name></trkpt>
<trkpt lat="52.949937" lon="-3.297598"><ele>434</ele><time>2022-04-15T11:41:37Z</time><name>PT2480</name></trkpt>
<trkpt lat="52.949927" lon="-3.297680"><ele>434</ele><time>2022-04-15T11:41:41Z</time><name>PT2481</name></trkpt>
<trkpt lat="52.949920" lon="-3.297733"><ele>434</ele><time>2022-04-15T11:41:44Z</time><name>PT2482</name></trkpt>
<trkpt lat="52.949912" lon="-3.297800"><ele>434</ele><time>2022-04-15T11:41:48Z</time><name>PT2483</name></trkpt>
<trkpt lat="52.949913" lon="-3.297834"><ele>434</ele><time>2022-04-15T11:41:51Z</time><name>PT2484</name></trkpt>
<trkpt lat="52.949919" lon="-3.297914"><ele>433</ele><time>2022-04-15T11:41:55Z</time><name>PT2485</name></trkpt>
<trkpt lat="52.949929" lon="-3.297991"><ele>433</ele><time>2022-04-15T11:41:59Z</time><name>PT2486</name></trkpt>
<trkpt lat="52.949934" lon="-3.298063"><ele>432</ele><time>2022-04-15T11:42:03Z</time><name>PT2487</name></trkpt>
<trkpt lat="52.949944" lon="-3.298116"><ele>433</ele><time>2022-04-15T11:42:06Z</time><name>PT2488</name></trkpt>
<trkpt lat="52.949956" lon="-3.298186"><ele>432</ele><time>2022-04-15T11:42:10Z</time><name>PT2489</name></trkpt>
<trkpt lat="52.949966" lon="-3.298256"><ele>433</ele><time>2022-04-15T11:42:14Z</time><name>PT2490</name></trkpt>
<trkpt lat="52.949977" lon="-3.298322"><ele>434</ele><time>2022-04-15T11:42:18Z</time><name>PT2491</name></trkpt>
<trkpt lat="52.949993" lon="-3.298390"><ele>435</ele><time>2022-04-15T11:42:22Z</time><name>PT2492</name></trkpt>
<trkpt lat="52.950010" lon="-3.298444"><ele>435</ele><time>2022-04-15T11:42:26Z</time><name>PT2493</name></trkpt>
<trkpt lat="52.950017" lon="-3.298508"><ele>436</ele><time>2022-04-15T11:42:30Z</time><name>PT2494</name></trkpt>
<trkpt lat="52.950027" lon="-3.298545"><ele>437</ele><time>2022-04-15T11:42:33Z</time><name>PT2495</name></trkpt>
<trkpt lat="52.950030" lon="-3.298583"><ele>436</ele><time>2022-04-15T11:42:37Z</time><name>PT2496</name></trkpt>
<trkpt lat="52.950020" lon="-3.298628"><ele>437</ele><time>2022-04-15T11:42:41Z</time><name>PT2497</name></trkpt>
<trkpt lat="52.950008" lon="-3.298656"><ele>438</ele><time>2022-04-15T11:42:44Z</time><name>PT2498</name></trkpt>
<trkpt lat="52.950007" lon="-3.298697"><ele>439</ele><time>2022-04-15T11:42:47Z</time><name>PT2499</name></trkpt>
<trkpt lat="52.950009" lon="-3.298759"><ele>439</ele><time>2022-04-15T11:42:51Z</time><name>PT2500</name></trkpt>
<trkpt lat="52.950015" lon="-3.298821"><ele>439</ele><time>2022-04-15T11:42:55Z</time><name>PT2501</name></trkpt>
<trkpt lat="52.950029" lon="-3.298849"><ele>439</ele><time>2022-04-15T11:42:58Z</time><name>PT2502</name></trkpt>
<trkpt lat="52.950045" lon="-3.298900"><ele>439</ele><time>2022-04-15T11:43:02Z</time><name>PT2503</name></trkpt>
<trkpt lat="52.950043" lon="-3.298965"><ele>437</ele><time>2022-04-15T11:43:06Z</time><name>PT2504</name></trkpt>
<trkpt lat="52.950047" lon="-3.299010"><ele>437</ele><time>2022-04-15T11:43:09Z</time><name>PT2505</name></trkpt>
<trkpt lat="52.950061" lon="-3.299034"><ele>437</ele><time>2022-04-15T11:43:13Z</time><name>PT2506</name></trkpt>
<trkpt lat="52.950076" lon="-3.299052"><ele>436</ele><time>2022-04-15T11:43:16Z</time><name>PT2507</name></trkpt>
<trkpt lat="52.950079" lon="-3.299073"><ele>437</ele><time>2022-04-15T11:43:20Z</time><name>PT2508</name></trkpt>
<trkpt lat="52.950083" lon="-3.299074"><ele>436</ele><time>2022-04-15T11:43:23Z</time><name>PT2509</name></trkpt>
<trkpt lat="52.950096" lon="-3.299114"><ele>436</ele><time>2022-04-15T11:43:27Z</time><name>PT2510</name></trkpt>
<trkpt lat="52.950104" lon="-3.299157"><ele>436</ele><time>2022-04-15T11:43:30Z</time><name>PT2511</name></trkpt>
<trkpt lat="52.950108" lon="-3.299171"><ele>437</ele><time>2022-04-15T11:43:34Z</time><name>PT2512</name></trkpt>
<trkpt lat="52.950108" lon="-3.299188"><ele>437</ele><time>2022-04-15T11:43:41Z</time><name>PT2513</name></trkpt>
<trkpt lat="52.950111" lon="-3.299223"><ele>438</ele><time>2022-04-15T11:43:44Z</time><name>PT2514</name></trkpt>
<trkpt lat="52.950113" lon="-3.299259"><ele>437</ele><time>2022-04-15T11:43:48Z</time><name>PT2515</name></trkpt>
<trkpt lat="52.950115" lon="-3.299293"><ele>437</ele><time>2022-04-15T11:43:55Z</time><name>PT2516</name></trkpt>
<trkpt lat="52.950122" lon="-3.299383"><ele>437</ele><time>2022-04-15T11:43:59Z</time><name>PT2517</name></trkpt>
<trkpt lat="52.950121" lon="-3.299443"><ele>438</ele><time>2022-04-15T11:44:02Z</time><name>PT2518</name></trkpt>
<trkpt lat="52.950122" lon="-3.299522"><ele>438</ele><time>2022-04-15T11:44:06Z</time><name>PT2519</name></trkpt>
<trkpt lat="52.950121" lon="-3.299573"><ele>438</ele><time>2022-04-15T11:44:09Z</time><name>PT2520</name></trkpt>
<trkpt lat="52.950124" lon="-3.299627"><ele>437</ele><time>2022-04-15T11:44:12Z</time><name>PT2521</name></trkpt>
<trkpt lat="52.950122" lon="-3.299698"><ele>437</ele><time>2022-04-15T11:44:16Z</time><name>PT2522</name></trkpt>
<trkpt lat="52.950125" lon="-3.299742"><ele>438</ele><time>2022-04-15T11:44:19Z</time><name>PT2523</name></trkpt>
<trkpt lat="52.950122" lon="-3.299795"><ele>438</ele><time>2022-04-15T11:44:22Z</time><name>PT2524</name></trkpt>
<trkpt lat="52.950121" lon="-3.299874"><ele>439</ele><time>2022-04-15T11:44:26Z</time><name>PT2525</name></trkpt>
<trkpt lat="52.950116" lon="-3.299951"><ele>439</ele><time>2022-04-15T11:44:30Z</time><name>PT2526</name></trkpt>
<trkpt lat="52.950108" lon="-3.300010"><ele>438</ele><time>2022-04-15T11:44:33Z</time><name>PT2527</name></trkpt>
<trkpt lat="52.950098" lon="-3.300086"><ele>439</ele><time>2022-04-15T11:44:37Z</time><name>PT2528</name></trkpt>
<trkpt lat="52.950091" lon="-3.300141"><ele>439</ele><time>2022-04-15T11:44:40Z</time><name>PT2529</name></trkpt>
<trkpt lat="52.950075" lon="-3.300208"><ele>439</ele><time>2022-04-15T11:44:44Z</time><name>PT2530</name></trkpt>
<trkpt lat="52.950062" lon="-3.300271"><ele>439</ele><time>2022-04-15T11:44:48Z</time><name>PT2531</name></trkpt>
<trkpt lat="52.950052" lon="-3.300315"><ele>438</ele><time>2022-04-15T11:44:51Z</time><name>PT2532</name></trkpt>
<trkpt lat="52.950041" lon="-3.300381"><ele>437</ele><time>2022-04-15T11:44:55Z</time><name>PT2533</name></trkpt>
<trkpt lat="52.950033" lon="-3.300429"><ele>437</ele><time>2022-04-15T11:44:58Z</time><name>PT2534</name></trkpt>
<trkpt lat="52.950016" lon="-3.300485"><ele>438</ele><time>2022-04-15T11:45:02Z</time><name>PT2535</name></trkpt>
<trkpt lat="52.949998" lon="-3.300537"><ele>437</ele><time>2022-04-15T11:45:05Z</time><name>PT2536</name></trkpt>
<trkpt lat="52.949988" lon="-3.300603"><ele>438</ele><time>2022-04-15T11:45:09Z</time><name>PT2537</name></trkpt>
<trkpt lat="52.949979" lon="-3.300667"><ele>438</ele><time>2022-04-15T11:45:13Z</time><name>PT2538</name></trkpt>
<trkpt lat="52.949981" lon="-3.300708"><ele>439</ele><time>2022-04-15T11:45:16Z</time><name>PT2539</name></trkpt>
<trkpt lat="52.949962" lon="-3.300762"><ele>439</ele><time>2022-04-15T11:45:20Z</time><name>PT2540</name></trkpt>
<trkpt lat="52.949943" lon="-3.300806"><ele>439</ele><time>2022-04-15T11:45:23Z</time><name>PT2541</name></trkpt>
<trkpt lat="52.949914" lon="-3.300864"><ele>439</ele><time>2022-04-15T11:45:27Z</time><name>PT2542</name></trkpt>
<trkpt lat="52.949890" lon="-3.300907"><ele>439</ele><time>2022-04-15T11:45:30Z</time><name>PT2543</name></trkpt>
<trkpt lat="52.949866" lon="-3.300973"><ele>440</ele><time>2022-04-15T11:45:34Z</time><name>PT2544</name></trkpt>
<trkpt lat="52.949835" lon="-3.301031"><ele>440</ele><time>2022-04-15T11:45:38Z</time><name>PT2545</name></trkpt>
<trkpt lat="52.949819" lon="-3.301069"><ele>441</ele><time>2022-04-15T11:45:41Z</time><name>PT2546</name></trkpt>
<trkpt lat="52.949791" lon="-3.301122"><ele>441</ele><time>2022-04-15T11:45:45Z</time><name>PT2547</name></trkpt>
<trkpt lat="52.949775" lon="-3.301150"><ele>441</ele><time>2022-04-15T11:45:48Z</time><name>PT2548</name></trkpt>
<trkpt lat="52.949762" lon="-3.301190"><ele>441</ele><time>2022-04-15T11:45:51Z</time><name>PT2549</name></trkpt>
<trkpt lat="52.949759" lon="-3.301231"><ele>442</ele><time>2022-04-15T11:45:55Z</time><name>PT2550</name></trkpt>
<trkpt lat="52.949744" lon="-3.301266"><ele>442</ele><time>2022-04-15T11:45:59Z</time><name>PT2551</name></trkpt>
<trkpt lat="52.949724" lon="-3.301306"><ele>444</ele><time>2022-04-15T11:46:03Z</time><name>PT2552</name></trkpt>
<trkpt lat="52.949716" lon="-3.301340"><ele>445</ele><time>2022-04-15T11:46:06Z</time><name>PT2553</name></trkpt>
<trkpt lat="52.949692" lon="-3.301364"><ele>444</ele><time>2022-04-15T11:46:10Z</time><name>PT2554</name></trkpt>
<trkpt lat="52.949671" lon="-3.301404"><ele>445</ele><time>2022-04-15T11:46:14Z</time><name>PT2555</name></trkpt>
<trkpt lat="52.949655" lon="-3.301419"><ele>445</ele><time>2022-04-15T11:46:17Z</time><name>PT2556</name></trkpt>
<trkpt lat="52.949639" lon="-3.301442"><ele>445</ele><time>2022-04-15T11:46:20Z</time><name>PT2557</name></trkpt>
<trkpt lat="52.949610" lon="-3.301468"><ele>445</ele><time>2022-04-15T11:46:24Z</time><name>PT2558</name></trkpt>
<trkpt lat="52.949583" lon="-3.301498"><ele>445</ele><time>2022-04-15T11:46:28Z</time><name>PT2559</name></trkpt>
<trkpt lat="52.949551" lon="-3.301514"><ele>446</ele><time>2022-04-15T11:46:32Z</time><name>PT2560</name></trkpt>
<trkpt lat="52.949522" lon="-3.301540"><ele>446</ele><time>2022-04-15T11:46:36Z</time><name>PT2561</name></trkpt>
<trkpt lat="52.949501" lon="-3.301571"><ele>447</ele><time>2022-04-15T11:46:40Z</time><name>PT2562</name></trkpt>
<trkpt lat="52.949484" lon="-3.301598"><ele>448</ele><time>2022-04-15T11:46:43Z</time><name>PT2563</name></trkpt>
<trkpt lat="52.949473" lon="-3.301631"><ele>449</ele><time>2022-04-15T11:46:46Z</time><name>PT2564</name></trkpt>
<trkpt lat="52.949457" lon="-3.301664"><ele>449</ele><time>2022-04-15T11:46:50Z</time><name>PT2565</name></trkpt>
<trkpt lat="52.949434" lon="-3.301694"><ele>450</ele><time>2022-04-15T11:46:54Z</time><name>PT2566</name></trkpt>
<trkpt lat="52.949421" lon="-3.301722"><ele>450</ele><time>2022-04-15T11:46:57Z</time><name>PT2567</name></trkpt>
<trkpt lat="52.949405" lon="-3.301762"><ele>451</ele><time>2022-04-15T11:47:01Z</time><name>PT2568</name></trkpt>
<trkpt lat="52.949394" lon="-3.301792"><ele>450</ele><time>2022-04-15T11:47:04Z</time><name>PT2569</name></trkpt>
<trkpt lat="52.949385" lon="-3.301816"><ele>450</ele><time>2022-04-15T11:47:07Z</time><name>PT2570</name></trkpt>
<trkpt lat="52.949371" lon="-3.301838"><ele>451</ele><time>2022-04-15T11:47:10Z</time><name>PT2571</name></trkpt>
<trkpt lat="52.949362" lon="-3.301868"><ele>452</ele><time>2022-04-15T11:47:14Z</time><name>PT2572</name></trkpt>
<trkpt lat="52.949346" lon="-3.301894"><ele>452</ele><time>2022-04-15T11:47:17Z</time><name>PT2573</name></trkpt>
<trkpt lat="52.949325" lon="-3.301920"><ele>453</ele><time>2022-04-15T11:47:21Z</time><name>PT2574</name></trkpt>
<trkpt lat="52.949321" lon="-3.301932"><ele>454</ele><time>2022-04-15T11:47:25Z</time><name>PT2575</name></trkpt>
<trkpt lat="52.949310" lon="-3.301968"><ele>455</ele><time>2022-04-15T11:47:39Z</time><name>PT2576</name></trkpt>
<trkpt lat="52.949305" lon="-3.301985"><ele>455</ele><time>2022-04-15T11:47:43Z</time><name>PT2577</name></trkpt>
<trkpt lat="52.949303" lon="-3.301974"><ele>455</ele><time>2022-04-15T11:47:47Z</time><name>PT2578</name></trkpt>
<trkpt lat="52.949298" lon="-3.302003"><ele>455</ele><time>2022-04-15T11:48:18Z</time><name>PT2579</name></trkpt>
<trkpt lat="52.949275" lon="-3.302051"><ele>456</ele><time>2022-04-15T11:48:22Z</time><name>PT2580</name></trkpt>
<trkpt lat="52.949256" lon="-3.302088"><ele>456</ele><time>2022-04-15T11:48:26Z</time><name>PT2581</name></trkpt>
<trkpt lat="52.949237" lon="-3.302136"><ele>458</ele><time>2022-04-15T11:48:30Z</time><name>PT2582</name></trkpt>
<trkpt lat="52.949227" lon="-3.302162"><ele>458</ele><time>2022-04-15T11:48:33Z</time><name>PT2583</name></trkpt>
<trkpt lat="52.949207" lon="-3.302204"><ele>459</ele><time>2022-04-15T11:48:37Z</time><name>PT2584</name></trkpt>
<trkpt lat="52.949185" lon="-3.302228"><ele>459</ele><time>2022-04-15T11:48:40Z</time><name>PT2585</name></trkpt>
<trkpt lat="52.949169" lon="-3.302271"><ele>460</ele><time>2022-04-15T11:48:43Z</time><name>PT2586</name></trkpt>
<trkpt lat="52.949149" lon="-3.302297"><ele>459</ele><time>2022-04-15T11:48:46Z</time><name>PT2587</name></trkpt>
<trkpt lat="52.949131" lon="-3.302340"><ele>459</ele><time>2022-04-15T11:48:50Z</time><name>PT2588</name></trkpt>
<trkpt lat="52.949117" lon="-3.302368"><ele>459</ele><time>2022-04-15T11:48:53Z</time><name>PT2589</name></trkpt>
<trkpt lat="52.949105" lon="-3.302377"><ele>458</ele><time>2022-04-15T11:48:55Z</time><name>PT2590</name></trkpt>
<trkpt lat="52.949100" lon="-3.302381"><ele>458</ele><time>2022-04-15T11:48:56Z</time><name>PT2591</name></trkpt>
<trkpt lat="52.949096" lon="-3.302388"><ele>458</ele><time>2022-04-15T11:48:57Z</time><name>PT2592</name></trkpt>
<trkpt lat="52.949092" lon="-3.302396"><ele>458</ele><time>2022-04-15T11:48:58Z</time><name>PT2593</name></trkpt>
<trkpt lat="52.949088" lon="-3.302407"><ele>459</ele><time>2022-04-15T11:48:59Z</time><name>PT2594</name></trkpt>
<trkpt lat="52.949082" lon="-3.302415"><ele>459</ele><time>2022-04-15T11:49:00Z</time><name>PT2595</name></trkpt>
<trkpt lat="52.949077" lon="-3.302425"><ele>460</ele><time>2022-04-15T11:49:01Z</time><name>PT2596</name></trkpt>
<trkpt lat="52.949072" lon="-3.302431"><ele>460</ele><time>2022-04-15T11:49:02Z</time><name>PT2597</name></trkpt>
<trkpt lat="52.949069" lon="-3.302443"><ele>461</ele><time>2022-04-15T11:49:03Z</time><name>PT2598</name></trkpt>
<trkpt lat="52.949067" lon="-3.302453"><ele>461</ele><time>2022-04-15T11:49:04Z</time><name>PT2599</name></trkpt>
<trkpt lat="52.949062" lon="-3.302458"><ele>461</ele><time>2022-04-15T11:49:05Z</time><name>PT2600</name></trkpt>
<trkpt lat="52.949058" lon="-3.302467"><ele>462</ele><time>2022-04-15T11:49:06Z</time><name>PT2601</name></trkpt>
<trkpt lat="52.949051" lon="-3.302474"><ele>463</ele><time>2022-04-15T11:49:07Z</time><name>PT2602</name></trkpt>
<trkpt lat="52.949046" lon="-3.302481"><ele>463</ele><time>2022-04-15T11:49:08Z</time><name>PT2603</name></trkpt>
<trkpt lat="52.949042" lon="-3.302487"><ele>464</ele><time>2022-04-15T11:49:09Z</time><name>PT2604</name></trkpt>
<trkpt lat="52.949039" lon="-3.302492"><ele>463</ele><time>2022-04-15T11:49:10Z</time><name>PT2605</name></trkpt>
<trkpt lat="52.949035" lon="-3.302497"><ele>464</ele><time>2022-04-15T11:49:11Z</time><name>PT2606</name></trkpt>
<trkpt lat="52.949030" lon="-3.302503"><ele>464</ele><time>2022-04-15T11:49:12Z</time><name>PT2607</name></trkpt>
<trkpt lat="52.949025" lon="-3.302510"><ele>465</ele><time>2022-04-15T11:49:13Z</time><name>PT2608</name></trkpt>
<trkpt lat="52.949026" lon="-3.302514"><ele>467</ele><time>2022-04-15T11:49:14Z</time><name>PT2609</name></trkpt>
<trkpt lat="52.949021" lon="-3.302519"><ele>467</ele><time>2022-04-15T11:49:15Z</time><name>PT2610</name></trkpt>
<trkpt lat="52.949019" lon="-3.302527"><ele>468</ele><time>2022-04-15T11:49:16Z</time><name>PT2611</name></trkpt>
<trkpt lat="52.949014" lon="-3.302534"><ele>467</ele><time>2022-04-15T11:49:17Z</time><name>PT2612</name></trkpt>
<trkpt lat="52.949010" lon="-3.302543"><ele>468</ele><time>2022-04-15T11:49:18Z</time><name>PT2613</name></trkpt>
<trkpt lat="52.949008" lon="-3.302555"><ele>468</ele><time>2022-04-15T11:49:19Z</time><name>PT2614</name></trkpt>
<trkpt lat="52.949007" lon="-3.302567"><ele>469</ele><time>2022-04-15T11:49:20Z</time><name>PT2615</name></trkpt>
<trkpt lat="52.949005" lon="-3.302568"><ele>468</ele><time>2022-04-15T11:49:21Z</time><name>PT2616</name></trkpt>
<trkpt lat="52.949003" lon="-3.302573"><ele>469</ele><time>2022-04-15T11:49:22Z</time><name>PT2617</name></trkpt>
<trkpt lat="52.948999" lon="-3.302577"><ele>469</ele><time>2022-04-15T11:49:23Z</time><name>PT2618</name></trkpt>
<trkpt lat="52.948994" lon="-3.302589"><ele>469</ele><time>2022-04-15T11:49:24Z</time><name>PT2619</name></trkpt>
<trkpt lat="52.948988" lon="-3.302600"><ele>470</ele><time>2022-04-15T11:49:25Z</time><name>PT2620</name></trkpt>
<trkpt lat="52.948986" lon="-3.302612"><ele>471</ele><time>2022-04-15T11:49:26Z</time><name>PT2621</name></trkpt>
<trkpt lat="52.948981" lon="-3.302620"><ele>471</ele><time>2022-04-15T11:49:27Z</time><name>PT2622</name></trkpt>
<trkpt lat="52.948974" lon="-3.302628"><ele>471</ele><time>2022-04-15T11:49:28Z</time><name>PT2623</name></trkpt>
<trkpt lat="52.948967" lon="-3.302633"><ele>471</ele><time>2022-04-15T11:49:29Z</time><name>PT2624</name></trkpt>
<trkpt lat="52.948961" lon="-3.302641"><ele>472</ele><time>2022-04-15T11:49:30Z</time><name>PT2625</name></trkpt>
<trkpt lat="52.948956" lon="-3.302645"><ele>471</ele><time>2022-04-15T11:49:31Z</time><name>PT2626</name></trkpt>
<trkpt lat="52.948953" lon="-3.302656"><ele>471</ele><time>2022-04-15T11:49:32Z</time><name>PT2627</name></trkpt>
<trkpt lat="52.948950" lon="-3.302665"><ele>471</ele><time>2022-04-15T11:49:33Z</time><name>PT2628</name></trkpt>
<trkpt lat="52.948945" lon="-3.302674"><ele>472</ele><time>2022-04-15T11:49:34Z</time><name>PT2629</name></trkpt>
<trkpt lat="52.948943" lon="-3.302681"><ele>472</ele><time>2022-04-15T11:49:35Z</time><name>PT2630</name></trkpt>
<trkpt lat="52.948942" lon="-3.302689"><ele>473</ele><time>2022-04-15T11:49:37Z</time><name>PT2631</name></trkpt>
<trkpt lat="52.948933" lon="-3.302694"><ele>472</ele><time>2022-04-15T11:49:38Z</time><name>PT2632</name></trkpt>
<trkpt lat="52.948924" lon="-3.302700"><ele>473</ele><time>2022-04-15T11:49:39Z</time><name>PT2633</name></trkpt>
<trkpt lat="52.948916" lon="-3.302709"><ele>473</ele><time>2022-04-15T11:49:40Z</time><name>PT2634</name></trkpt>
<trkpt lat="52.948909" lon="-3.302717"><ele>473</ele><time>2022-04-15T11:49:41Z</time><name>PT2635</name></trkpt>
<trkpt lat="52.948906" lon="-3.302727"><ele>473</ele><time>2022-04-15T11:49:42Z</time><name>PT2636</name></trkpt>
<trkpt lat="52.948904" lon="-3.302737"><ele>473</ele><time>2022-04-15T11:49:43Z</time><name>PT2637</name></trkpt>
<trkpt lat="52.948901" lon="-3.302749"><ele>474</ele><time>2022-04-15T11:49:44Z</time><name>PT2638</name></trkpt>
<trkpt lat="52.948899" lon="-3.302763"><ele>474</ele><time>2022-04-15T11:49:45Z</time><name>PT2639</name></trkpt>
<trkpt lat="52.948895" lon="-3.302774"><ele>474</ele><time>2022-04-15T11:49:46Z</time><name>PT2640</name></trkpt>
<trkpt lat="52.948890" lon="-3.302784"><ele>474</ele><time>2022-04-15T11:49:47Z</time><name>PT2641</name></trkpt>
<trkpt lat="52.948884" lon="-3.302790"><ele>473</ele><time>2022-04-15T11:49:48Z</time><name>PT2642</name></trkpt>
<trkpt lat="52.948881" lon="-3.302799"><ele>473</ele><time>2022-04-15T11:49:49Z</time><name>PT2643</name></trkpt>
<trkpt lat="52.948876" lon="-3.302807"><ele>474</ele><time>2022-04-15T11:49:50Z</time><name>PT2644</name></trkpt>
<trkpt lat="52.948873" lon="-3.302814"><ele>474</ele><time>2022-04-15T11:49:51Z</time><name>PT2645</name></trkpt>
<trkpt lat="52.948871" lon="-3.302823"><ele>474</ele><time>2022-04-15T11:49:52Z</time><name>PT2646</name></trkpt>
<trkpt lat="52.948869" lon="-3.302832"><ele>474</ele><time>2022-04-15T11:49:53Z</time><name>PT2647</name></trkpt>
<trkpt lat="52.948864" lon="-3.302837"><ele>474</ele><time>2022-04-15T11:49:54Z</time><name>PT2648</name></trkpt>
<trkpt lat="52.948862" lon="-3.302844"><ele>475</ele><time>2022-04-15T11:49:55Z</time><name>PT2649</name></trkpt>
<trkpt lat="52.948857" lon="-3.302849"><ele>475</ele><time>2022-04-15T11:49:56Z</time><name>PT2650</name></trkpt>
<trkpt lat="52.948853" lon="-3.302854"><ele>475</ele><time>2022-04-15T11:49:57Z</time><name>PT2651</name></trkpt>
<trkpt lat="52.948851" lon="-3.302863"><ele>476</ele><time>2022-04-15T11:49:58Z</time><name>PT2652</name></trkpt>
<trkpt lat="52.948848" lon="-3.302873"><ele>476</ele><time>2022-04-15T11:49:59Z</time><name>PT2653</name></trkpt>
<trkpt lat="52.948843" lon="-3.302883"><ele>477</ele><time>2022-04-15T11:50:00Z</time><name>PT2654</name></trkpt>
<trkpt lat="52.948842" lon="-3.302889"><ele>478</ele><time>2022-04-15T11:50:01Z</time><name>PT2655</name></trkpt>
<trkpt lat="52.948839" lon="-3.302891"><ele>478</ele><time>2022-04-15T11:50:02Z</time><name>PT2656</name></trkpt>
<trkpt lat="52.948836" lon="-3.302898"><ele>478</ele><time>2022-04-15T11:50:03Z</time><name>PT2657</name></trkpt>
<trkpt lat="52.948833" lon="-3.302908"><ele>479</ele><time>2022-04-15T11:50:04Z</time><name>PT2658</name></trkpt>
<trkpt lat="52.948832" lon="-3.302914"><ele>480</ele><time>2022-04-15T11:50:05Z</time><name>PT2659</name></trkpt>
<trkpt lat="52.948830" lon="-3.302923"><ele>480</ele><time>2022-04-15T11:50:06Z</time><name>PT2660</name></trkpt>
<trkpt lat="52.948828" lon="-3.302931"><ele>480</ele><time>2022-04-15T11:50:07Z</time><name>PT2661</name></trkpt>
<trkpt lat="52.948828" lon="-3.302936"><ele>480</ele><time>2022-04-15T11:50:08Z</time><name>PT2662</name></trkpt>
<trkpt lat="52.948827" lon="-3.302943"><ele>481</ele><time>2022-04-15T11:50:09Z</time><name>PT2663</name></trkpt>
<trkpt lat="52.948824" lon="-3.302949"><ele>481</ele><time>2022-04-15T11:50:10Z</time><name>PT2664</name></trkpt>
<trkpt lat="52.948819" lon="-3.302957"><ele>481</ele><time>2022-04-15T11:50:11Z</time><name>PT2665</name></trkpt>
<trkpt lat="52.948815" lon="-3.302961"><ele>481</ele><time>2022-04-15T11:50:12Z</time><name>PT2666</name></trkpt>
<trkpt lat="52.948812" lon="-3.302966"><ele>482</ele><time>2022-04-15T11:50:13Z</time><name>PT2667</name></trkpt>
<trkpt lat="52.948810" lon="-3.302969"><ele>482</ele><time>2022-04-15T11:50:14Z</time><name>PT2668</name></trkpt>
<trkpt lat="52.948806" lon="-3.302973"><ele>482</ele><time>2022-04-15T11:50:15Z</time><name>PT2669</name></trkpt>
<trkpt lat="52.948802" lon="-3.302978"><ele>482</ele><time>2022-04-15T11:50:16Z</time><name>PT2670</name></trkpt>
<trkpt lat="52.948798" lon="-3.302982"><ele>482</ele><time>2022-04-15T11:50:17Z</time><name>PT2671</name></trkpt>
<trkpt lat="52.948797" lon="-3.302986"><ele>483</ele><time>2022-04-15T11:50:18Z</time><name>PT2672</name></trkpt>
<trkpt lat="52.948792" lon="-3.302994"><ele>483</ele><time>2022-04-15T11:50:19Z</time><name>PT2673</name></trkpt>
<trkpt lat="52.948786" lon="-3.302999"><ele>483</ele><time>2022-04-15T11:50:20Z</time><name>PT2674</name></trkpt>
<trkpt lat="52.948784" lon="-3.303002"><ele>483</ele><time>2022-04-15T11:50:21Z</time><name>PT2675</name></trkpt>
<trkpt lat="52.948781" lon="-3.303009"><ele>484</ele><time>2022-04-15T11:50:22Z</time><name>PT2676</name></trkpt>
<trkpt lat="52.948779" lon="-3.303013"><ele>484</ele><time>2022-04-15T11:50:23Z</time><name>PT2677</name></trkpt>
<trkpt lat="52.948776" lon="-3.303017"><ele>484</ele><time>2022-04-15T11:50:24Z</time><name>PT2678</name></trkpt>
<trkpt lat="52.948773" lon="-3.303021"><ele>484</ele><time>2022-04-15T11:50:25Z</time><name>PT2679</name></trkpt>
<trkpt lat="52.948771" lon="-3.303026"><ele>484</ele><time>2022-04-15T11:50:26Z</time><name>PT2680</name></trkpt>
<trkpt lat="52.948767" lon="-3.303024"><ele>484</ele><time>2022-04-15T11:50:28Z</time><name>PT2681</name></trkpt>
<trkpt lat="52.948763" lon="-3.303030"><ele>484</ele><time>2022-04-15T11:50:29Z</time><name>PT2682</name></trkpt>
<trkpt lat="52.948759" lon="-3.303042"><ele>483</ele><time>2022-04-15T11:50:30Z</time><name>PT2683</name></trkpt>
<trkpt lat="52.948755" lon="-3.303056"><ele>483</ele><time>2022-04-15T11:50:31Z</time><name>PT2684</name></trkpt>
<trkpt lat="52.948747" lon="-3.303067"><ele>484</ele><time>2022-04-15T11:50:38Z</time><name>PT2685</name></trkpt>
<trkpt lat="52.948741" lon="-3.303079"><ele>484</ele><time>2022-04-15T11:50:39Z</time><name>PT2686</name></trkpt>
<trkpt lat="52.948735" lon="-3.303090"><ele>484</ele><time>2022-04-15T11:50:40Z</time><name>PT2687</name></trkpt>
<trkpt lat="52.948731" lon="-3.303099"><ele>484</ele><time>2022-04-15T11:51:09Z</time><name>PT2688</name></trkpt>
<trkpt lat="52.948729" lon="-3.303101"><ele>484</ele><time>2022-04-15T11:51:10Z</time><name>PT2689</name></trkpt>
<trkpt lat="52.948727" lon="-3.303106"><ele>484</ele><time>2022-04-15T11:51:11Z</time><name>PT2690</name></trkpt>
<trkpt lat="52.948726" lon="-3.303112"><ele>484</ele><time>2022-04-15T11:51:12Z</time><name>PT2691</name></trkpt>
<trkpt lat="52.948725" lon="-3.303117"><ele>484</ele><time>2022-04-15T11:51:13Z</time><name>PT2692</name></trkpt>
<trkpt lat="52.948724" lon="-3.303120"><ele>485</ele><time>2022-04-15T11:51:14Z</time><name>PT2693</name></trkpt>
<trkpt lat="52.948725" lon="-3.303129"><ele>485</ele><time>2022-04-15T11:51:19Z</time><name>PT2694</name></trkpt>
<trkpt lat="52.948729" lon="-3.303148"><ele>486</ele><time>2022-04-15T11:51:20Z</time><name>PT2695</name></trkpt>
<trkpt lat="52.948732" lon="-3.303156"><ele>486</ele><time>2022-04-15T11:51:21Z</time><name>PT2696</name></trkpt>
<trkpt lat="52.948734" lon="-3.303161"><ele>487</ele><time>2022-04-15T11:51:22Z</time><name>PT2697</name></trkpt>
<trkpt lat="52.948739" lon="-3.303169"><ele>487</ele><time>2022-04-15T11:51:23Z</time><name>PT2698</name></trkpt>
<trkpt lat="52.948739" lon="-3.303172"><ele>487</ele><time>2022-04-15T11:51:24Z</time><name>PT2699</name></trkpt>
<trkpt lat="52.948737" lon="-3.303176"><ele>488</ele><time>2022-04-15T11:51:25Z</time><name>PT2700</name></trkpt>
<trkpt lat="52.948738" lon="-3.303183"><ele>488</ele><time>2022-04-15T11:51:26Z</time><name>PT2701</name></trkpt>
<trkpt lat="52.948741" lon="-3.303190"><ele>488</ele><time>2022-04-15T11:51:27Z</time><name>PT2702</name></trkpt>
<trkpt lat="52.948744" lon="-3.303202"><ele>488</ele><time>2022-04-15T11:51:28Z</time><name>PT2703</name></trkpt>
<trkpt lat="52.948747" lon="-3.303214"><ele>488</ele><time>2022-04-15T11:51:29Z</time><name>PT2704</name></trkpt>
<trkpt lat="52.948749" lon="-3.303226"><ele>489</ele><time>2022-04-15T11:51:30Z</time><name>PT2705</name></trkpt>
<trkpt lat="52.948753" lon="-3.303242"><ele>489</ele><time>2022-04-15T11:51:31Z</time><name>PT2706</name></trkpt>
<trkpt lat="52.948756" lon="-3.303252"><ele>489</ele><time>2022-04-15T11:51:32Z</time><name>PT2707</name></trkpt>
<trkpt lat="52.948760" lon="-3.303266"><ele>489</ele><time>2022-04-15T11:51:33Z</time><name>PT2708</name></trkpt>
<trkpt lat="52.948763" lon="-3.303281"><ele>489</ele><time>2022-04-15T11:51:34Z</time><name>PT2709</name></trkpt>
<trkpt lat="52.948763" lon="-3.303295"><ele>489</ele><time>2022-04-15T11:51:35Z</time><name>PT2710</name></trkpt>
<trkpt lat="52.948764" lon="-3.303310"><ele>489</ele><time>2022-04-15T11:51:36Z</time><name>PT2711</name></trkpt>
<trkpt lat="52.948763" lon="-3.303323"><ele>489</ele><time>2022-04-15T11:51:37Z</time><name>PT2712</name></trkpt>
<trkpt lat="52.948763" lon="-3.303337"><ele>488</ele><time>2022-04-15T11:51:38Z</time><name>PT2713</name></trkpt>
<trkpt lat="52.948765" lon="-3.303352"><ele>489</ele><time>2022-04-15T11:51:39Z</time><name>PT2714</name></trkpt>
<trkpt lat="52.948769" lon="-3.303365"><ele>488</ele><time>2022-04-15T11:51:40Z</time><name>PT2715</name></trkpt>
<trkpt lat="52.948774" lon="-3.303380"><ele>488</ele><time>2022-04-15T11:51:41Z</time><name>PT2716</name></trkpt>
<trkpt lat="52.948778" lon="-3.303394"><ele>488</ele><time>2022-04-15T11:51:42Z</time><name>PT2717</name></trkpt>
<trkpt lat="52.948780" lon="-3.303408"><ele>488</ele><time>2022-04-15T11:51:43Z</time><name>PT2718</name></trkpt>
<trkpt lat="52.948784" lon="-3.303419"><ele>489</ele><time>2022-04-15T11:51:44Z</time><name>PT2719</name></trkpt>
<trkpt lat="52.948787" lon="-3.303432"><ele>489</ele><time>2022-04-15T11:51:45Z</time><name>PT2720</name></trkpt>
<trkpt lat="52.948788" lon="-3.303442"><ele>489</ele><time>2022-04-15T11:51:46Z</time><name>PT2721</name></trkpt>
<trkpt lat="52.948788" lon="-3.303447"><ele>488</ele><time>2022-04-15T11:51:47Z</time><name>PT2722</name></trkpt>
<trkpt lat="52.948788" lon="-3.303456"><ele>488</ele><time>2022-04-15T11:51:48Z</time><name>PT2723</name></trkpt>
<trkpt lat="52.948807" lon="-3.303500"><ele>487</ele><time>2022-04-15T11:51:52Z</time><name>PT2724</name></trkpt>
<trkpt lat="52.948813" lon="-3.303502"><ele>487</ele><time>2022-04-15T11:51:55Z</time><name>PT2725</name></trkpt>
<trkpt lat="52.948811" lon="-3.303504"><ele>488</ele><time>2022-04-15T11:52:45Z</time><name>PT2726</name></trkpt>
<trkpt lat="52.948812" lon="-3.303490"><ele>488</ele><time>2022-04-15T11:52:46Z</time><name>PT2727</name></trkpt>
<trkpt lat="52.948807" lon="-3.303471"><ele>488</ele><time>2022-04-15T11:52:47Z</time><name>PT2728</name></trkpt>
<trkpt lat="52.948809" lon="-3.303466"><ele>488</ele><time>2022-04-15T11:52:48Z</time><name>PT2729</name></trkpt>
<trkpt lat="52.948809" lon="-3.303457"><ele>488</ele><time>2022-04-15T11:52:49Z</time><name>PT2730</name></trkpt>
<trkpt lat="52.948808" lon="-3.303445"><ele>488</ele><time>2022-04-15T11:52:50Z</time><name>PT2731</name></trkpt>
<trkpt lat="52.948805" lon="-3.303433"><ele>488</ele><time>2022-04-15T11:52:51Z</time><name>PT2732</name></trkpt>
<trkpt lat="52.948798" lon="-3.303421"><ele>488</ele><time>2022-04-15T11:52:52Z</time><name>PT2733</name></trkpt>
<trkpt lat="52.948795" lon="-3.303412"><ele>487</ele><time>2022-04-15T11:52:53Z</time><name>PT2734</name></trkpt>
<trkpt lat="52.948790" lon="-3.303401"><ele>486</ele><time>2022-04-15T11:52:54Z</time><name>PT2735</name></trkpt>
<trkpt lat="52.948791" lon="-3.303388"><ele>486</ele><time>2022-04-15T11:52:55Z</time><name>PT2736</name></trkpt>
<trkpt lat="52.948793" lon="-3.303376"><ele>486</ele><time>2022-04-15T11:52:56Z</time><name>PT2737</name></trkpt>
<trkpt lat="52.948791" lon="-3.303358"><ele>486</ele><time>2022-04-15T11:52:57Z</time><name>PT2738</name></trkpt>
<trkpt lat="52.948791" lon="-3.303348"><ele>486</ele><time>2022-04-15T11:52:58Z</time><name>PT2739</name></trkpt>
<trkpt lat="52.948791" lon="-3.303332"><ele>486</ele><time>2022-04-15T11:52:59Z</time><name>PT2740</name></trkpt>
<trkpt lat="52.948790" lon="-3.303321"><ele>486</ele><time>2022-04-15T11:53:00Z</time><name>PT2741</name></trkpt>
<trkpt lat="52.948789" lon="-3.303309"><ele>485</ele><time>2022-04-15T11:53:01Z</time><name>PT2742</name></trkpt>
<trkpt lat="52.948791" lon="-3.303294"><ele>485</ele><time>2022-04-15T11:53:02Z</time><name>PT2743</name></trkpt>
<trkpt lat="52.948791" lon="-3.303282"><ele>485</ele><time>2022-04-15T11:53:03Z</time><name>PT2744</name></trkpt>
<trkpt lat="52.948790" lon="-3.303272"><ele>485</ele><time>2022-04-15T11:53:04Z</time><name>PT2745</name></trkpt>
<trkpt lat="52.948788" lon="-3.303264"><ele>485</ele><time>2022-04-15T11:53:06Z</time><name>PT2746</name></trkpt>
<trkpt lat="52.948789" lon="-3.303254"><ele>485</ele><time>2022-04-15T11:53:06Z</time><name>PT2747</name></trkpt>
<trkpt lat="52.948790" lon="-3.303243"><ele>484</ele><time>2022-04-15T11:53:07Z</time><name>PT2748</name></trkpt>
<trkpt lat="52.948789" lon="-3.303227"><ele>485</ele><time>2022-04-15T11:53:08Z</time><name>PT2749</name></trkpt>
<trkpt lat="52.948787" lon="-3.303217"><ele>485</ele><time>2022-04-15T11:53:09Z</time><name>PT2750</name></trkpt>
<trkpt lat="52.948783" lon="-3.303213"><ele>485</ele><time>2022-04-15T11:53:10Z</time><name>PT2751</name></trkpt>
<trkpt lat="52.948780" lon="-3.303205"><ele>484</ele><time>2022-04-15T11:53:11Z</time><name>PT2752</name></trkpt>
<trkpt lat="52.948776" lon="-3.303194"><ele>484</ele><time>2022-04-15T11:53:12Z</time><name>PT2753</name></trkpt>
<trkpt lat="52.948775" lon="-3.303191"><ele>484</ele><time>2022-04-15T11:53:13Z</time><name>PT2754</name></trkpt>
<trkpt lat="52.948774" lon="-3.303185"><ele>484</ele><time>2022-04-15T11:53:14Z</time><name>PT2755</name></trkpt>
<trkpt lat="52.948772" lon="-3.303182"><ele>485</ele><time>2022-04-15T11:53:15Z</time><name>PT2756</name></trkpt>
<trkpt lat="52.948772" lon="-3.303204"><ele>486</ele><time>2022-04-15T11:54:06Z</time><name>PT2757</name></trkpt>
<trkpt lat="52.948764" lon="-3.303209"><ele>486</ele><time>2022-04-15T11:54:07Z</time><name>PT2758</name></trkpt>
<trkpt lat="52.948756" lon="-3.303212"><ele>486</ele><time>2022-04-15T11:54:08Z</time><name>PT2759</name></trkpt>
<trkpt lat="52.948749" lon="-3.303208"><ele>486</ele><time>2022-04-15T11:54:09Z</time><name>PT2760</name></trkpt>
<trkpt lat="52.948744" lon="-3.303208"><ele>486</ele><time>2022-04-15T11:54:10Z</time><name>PT2761</name></trkpt>
<trkpt lat="52.948738" lon="-3.303212"><ele>486</ele><time>2022-04-15T11:54:11Z</time><name>PT2762</name></trkpt>
<trkpt lat="52.948732" lon="-3.303216"><ele>486</ele><time>2022-04-15T11:54:12Z</time><name>PT2763</name></trkpt>
<trkpt lat="52.948726" lon="-3.303220"><ele>486</ele><time>2022-04-15T11:54:13Z</time><name>PT2764</name></trkpt>
<trkpt lat="52.948719" lon="-3.303225"><ele>487</ele><time>2022-04-15T11:54:14Z</time><name>PT2765</name></trkpt>
<trkpt lat="52.948714" lon="-3.303224"><ele>487</ele><time>2022-04-15T11:54:15Z</time><name>PT2766</name></trkpt>
<trkpt lat="52.948718" lon="-3.303230"><ele>488</ele><time>2022-04-15T11:54:16Z</time><name>PT2767</name></trkpt>
<trkpt lat="52.948714" lon="-3.303230"><ele>488</ele><time>2022-04-15T11:54:17Z</time><name>PT2768</name></trkpt>
<trkpt lat="52.948720" lon="-3.303238"><ele>489</ele><time>2022-04-15T11:54:40Z</time><name>PT2769</name></trkpt>
<trkpt lat="52.948744" lon="-3.303236"><ele>491</ele><time>2022-04-15T11:54:44Z</time><name>PT2770</name></trkpt>
<trkpt lat="52.948737" lon="-3.303199"><ele>490</ele><time>2022-04-15T11:54:48Z</time><name>PT2771</name></trkpt>
<trkpt lat="52.948744" lon="-3.303168"><ele>490</ele><time>2022-04-15T11:54:52Z</time><name>PT2772</name></trkpt>
<trkpt lat="52.948742" lon="-3.303166"><ele>490</ele><time>2022-04-15T11:54:56Z</time><name>PT2773</name></trkpt>
<trkpt lat="52.948764" lon="-3.303177"><ele>491</ele><time>2022-04-15T11:55:15Z</time><name>PT2774</name></trkpt>
<trkpt lat="52.948779" lon="-3.303232"><ele>493</ele><time>2022-04-15T11:55:18Z</time><name>PT2775</name></trkpt>
<trkpt lat="52.948808" lon="-3.303265"><ele>492</ele><time>2022-04-15T11:55:22Z</time><name>PT2776</name></trkpt>
<trkpt lat="52.948818" lon="-3.303278"><ele>491</ele><time>2022-04-15T11:55:26Z</time><name>PT2777</name></trkpt>
<trkpt lat="52.948834" lon="-3.303307"><ele>491</ele><time>2022-04-15T11:55:29Z</time><name>PT2778</name></trkpt>
<trkpt lat="52.948861" lon="-3.303325"><ele>492</ele><time>2022-04-15T11:55:33Z</time><name>PT2779</name></trkpt>
<trkpt lat="52.948867" lon="-3.303327"><ele>492</ele><time>2022-04-15T11:55:36Z</time><name>PT2780</name></trkpt>
<trkpt lat="52.948866" lon="-3.303321"><ele>491</ele><time>2022-04-15T11:55:40Z</time><name>PT2781</name></trkpt>
<trkpt lat="52.948869" lon="-3.303323"><ele>492</ele><time>2022-04-15T11:55:43Z</time><name>PT2782</name></trkpt>
<trkpt lat="52.948869" lon="-3.303351"><ele>491</ele><time>2022-04-15T11:55:55Z</time><name>PT2783</name></trkpt>
<trkpt lat="52.948862" lon="-3.303370"><ele>491</ele><time>2022-04-15T11:55:58Z</time><name>PT2784</name></trkpt>
<trkpt lat="52.948857" lon="-3.303388"><ele>491</ele><time>2022-04-15T11:56:02Z</time><name>PT2785</name></trkpt>
<trkpt lat="52.948855" lon="-3.303397"><ele>492</ele><time>2022-04-15T11:56:05Z</time><name>PT2786</name></trkpt>
<trkpt lat="52.948872" lon="-3.303408"><ele>492</ele><time>2022-04-15T11:56:08Z</time><name>PT2787</name></trkpt>
<trkpt lat="52.948890" lon="-3.303458"><ele>492</ele><time>2022-04-15T11:56:12Z</time><name>PT2788</name></trkpt>
<trkpt lat="52.948906" lon="-3.303513"><ele>492</ele><time>2022-04-15T11:56:16Z</time><name>PT2789</name></trkpt>
<trkpt lat="52.948908" lon="-3.303540"><ele>491</ele><time>2022-04-15T11:56:19Z</time><name>PT2790</name></trkpt>
<trkpt lat="52.948901" lon="-3.303579"><ele>490</ele><time>2022-04-15T11:56:23Z</time><name>PT2791</name></trkpt>
<trkpt lat="52.948899" lon="-3.303618"><ele>490</ele><time>2022-04-15T11:56:26Z</time><name>PT2792</name></trkpt>
<trkpt lat="52.948898" lon="-3.303674"><ele>491</ele><time>2022-04-15T11:56:30Z</time><name>PT2793</name></trkpt>
<trkpt lat="52.948890" lon="-3.303724"><ele>492</ele><time>2022-04-15T11:56:34Z</time><name>PT2794</name></trkpt>
<trkpt lat="52.948886" lon="-3.303756"><ele>492</ele><time>2022-04-15T11:56:37Z</time><name>PT2795</name></trkpt>
<trkpt lat="52.948881" lon="-3.303790"><ele>492</ele><time>2022-04-15T11:56:41Z</time><name>PT2796</name></trkpt>
<trkpt lat="52.948881" lon="-3.303819"><ele>492</ele><time>2022-04-15T11:56:45Z</time><name>PT2797</name></trkpt>
<trkpt lat="52.948879" lon="-3.303842"><ele>492</ele><time>2022-04-15T11:56:49Z</time><name>PT2798</name></trkpt>
<trkpt lat="52.948879" lon="-3.303845"><ele>492</ele><time>2022-04-15T11:56:52Z</time><name>PT2799</name></trkpt>
<trkpt lat="52.948873" lon="-3.303853"><ele>492</ele><time>2022-04-15T11:57:11Z</time><name>PT2800</name></trkpt>
<trkpt lat="52.948896" lon="-3.303830"><ele>492</ele><time>2022-04-15T11:57:15Z</time><name>PT2801</name></trkpt>
<trkpt lat="52.948901" lon="-3.303827"><ele>492</ele><time>2022-04-15T11:57:18Z</time><name>PT2802</name></trkpt>
<trkpt lat="52.948908" lon="-3.303836"><ele>491</ele><time>2022-04-15T11:57:21Z</time><name>PT2803</name></trkpt>
<trkpt lat="52.948909" lon="-3.303849"><ele>490</ele><time>2022-04-15T11:57:39Z</time><name>PT2804</name></trkpt>
<trkpt lat="52.948909" lon="-3.303869"><ele>490</ele><time>2022-04-15T11:57:43Z</time><name>PT2805</name></trkpt>
<trkpt lat="52.948911" lon="-3.303861"><ele>489</ele><time>2022-04-15T11:58:26Z</time><name>PT2806</name></trkpt>
<trkpt lat="52.948912" lon="-3.303857"><ele>489</ele><time>2022-04-15T11:58:30Z</time><name>PT2807</name></trkpt>
<trkpt lat="52.948912" lon="-3.303854"><ele>489</ele><time>2022-04-15T12:00:59Z</time><name>PT2808</name></trkpt>
<trkpt lat="52.948916" lon="-3.303848"><ele>488</ele><time>2022-04-15T12:01:02Z</time><name>PT2809</name></trkpt>
<trkpt lat="52.948907" lon="-3.303858"><ele>488</ele><time>2022-04-15T12:01:40Z</time><name>PT2810</name></trkpt>
<trkpt lat="52.948905" lon="-3.303859"><ele>489</ele><time>2022-04-15T12:01:44Z</time><name>PT2811</name></trkpt>
<trkpt lat="52.948901" lon="-3.303864"><ele>489</ele><time>2022-04-15T12:02:01Z</time><name>PT2812</name></trkpt>
<trkpt lat="52.948896" lon="-3.303874"><ele>488</ele><time>2022-04-15T12:02:32Z</time><name>PT2813</name></trkpt>
<trkpt lat="52.948891" lon="-3.303872"><ele>488</ele><time>2022-04-15T12:02:35Z</time><name>PT2814</name></trkpt>
<trkpt lat="52.948890" lon="-3.303871"><ele>488</ele><time>2022-04-15T12:02:38Z</time><name>PT2815</name></trkpt>
<trkpt lat="52.948887" lon="-3.303873"><ele>490</ele><time>2022-04-15T12:04:57Z</time><name>PT2816</name></trkpt>
<trkpt lat="52.948891" lon="-3.303864"><ele>491</ele><time>2022-04-15T12:05:49Z</time><name>PT2817</name></trkpt>
<trkpt lat="52.948890" lon="-3.303873"><ele>491</ele><time>2022-04-15T12:06:07Z</time><name>PT2818</name></trkpt>
<trkpt lat="52.948893" lon="-3.303863"><ele>490</ele><time>2022-04-15T12:06:10Z</time><name>PT2819</name></trkpt>
<trkpt lat="52.948897" lon="-3.303865"><ele>490</ele><time>2022-04-15T12:06:13Z</time><name>PT2820</name></trkpt>
<trkpt lat="52.948898" lon="-3.303863"><ele>490</ele><time>2022-04-15T12:08:34Z</time><name>PT2821</name></trkpt>
<trkpt lat="52.948898" lon="-3.303864"><ele>491</ele><time>2022-04-15T12:09:42Z</time><name>PT2822</name></trkpt>
<trkpt lat="52.948902" lon="-3.303866"><ele>491</ele><time>2022-04-15T12:09:46Z</time><name>PT2823</name></trkpt>
<trkpt lat="52.948906" lon="-3.303853"><ele>490</ele><time>2022-04-15T12:09:53Z</time><name>PT2824</name></trkpt>
<trkpt lat="52.948907" lon="-3.303852"><ele>490</ele><time>2022-04-15T12:09:57Z</time><name>PT2825</name></trkpt>
<trkpt lat="52.948895" lon="-3.303858"><ele>491</ele><time>2022-04-15T12:10:04Z</time><name>PT2826</name></trkpt>
<trkpt lat="52.948897" lon="-3.303854"><ele>491</ele><time>2022-04-15T12:10:08Z</time><name>PT2827</name></trkpt>
<trkpt lat="52.948890" lon="-3.303857"><ele>490</ele><time>2022-04-15T12:10:15Z</time><name>PT2828</name></trkpt>
<trkpt lat="52.948884" lon="-3.303853"><ele>490</ele><time>2022-04-15T12:10:19Z</time><name>PT2829</name></trkpt>
<trkpt lat="52.948873" lon="-3.303847"><ele>489</ele><time>2022-04-15T12:11:29Z</time><name>PT2830</name></trkpt>
<trkpt lat="52.948866" lon="-3.303849"><ele>489</ele><time>2022-04-15T12:11:32Z</time><name>PT2831</name></trkpt>
<trkpt lat="52.948866" lon="-3.303848"><ele>489</ele><time>2022-04-15T12:11:44Z</time><name>PT2832</name></trkpt>
<trkpt lat="52.948865" lon="-3.303844"><ele>489</ele><time>2022-04-15T12:11:48Z</time><name>PT2833</name></trkpt>
<trkpt lat="52.948863" lon="-3.303844"><ele>491</ele><time>2022-04-15T12:11:52Z</time><name>PT2834</name></trkpt>
<trkpt lat="52.948853" lon="-3.303831"><ele>491</ele><time>2022-04-15T12:11:56Z</time><name>PT2835</name></trkpt>
<trkpt lat="52.948850" lon="-3.303821"><ele>492</ele><time>2022-04-15T12:11:59Z</time><name>PT2836</name></trkpt>
<trkpt lat="52.948856" lon="-3.303818"><ele>493</ele><time>2022-04-15T12:12:03Z</time><name>PT2837</name></trkpt>
<trkpt lat="52.948856" lon="-3.303813"><ele>494</ele><time>2022-04-15T12:12:07Z</time><name>PT2838</name></trkpt>
<trkpt lat="52.948861" lon="-3.303816"><ele>494</ele><time>2022-04-15T12:12:10Z</time><name>PT2839</name></trkpt>
<trkpt lat="52.948863" lon="-3.303816"><ele>495</ele><time>2022-04-15T12:12:14Z</time><name>PT2840</name></trkpt>
<trkpt lat="52.948866" lon="-3.303834"><ele>494</ele><time>2022-04-15T12:12:18Z</time><name>PT2841</name></trkpt>
<trkpt lat="52.948864" lon="-3.303835"><ele>494</ele><time>2022-04-15T12:14:30Z</time><name>PT2842</name></trkpt>
<trkpt lat="52.948863" lon="-3.303835"><ele>494</ele><time>2022-04-15T12:14:31Z</time><name>PT2843</name></trkpt>
<trkpt lat="52.948868" lon="-3.303831"><ele>494</ele><time>2022-04-15T12:15:30Z</time><name>PT2844</name></trkpt>
<trkpt lat="52.948869" lon="-3.303824"><ele>494</ele><time>2022-04-15T12:15:31Z</time><name>PT2845</name></trkpt>
<trkpt lat="52.948870" lon="-3.303821"><ele>493</ele><time>2022-04-15T12:15:32Z</time><name>PT2846</name></trkpt>
<trkpt lat="52.948869" lon="-3.303819"><ele>493</ele><time>2022-04-15T12:15:33Z</time><name>PT2847</name></trkpt>
<trkpt lat="52.948870" lon="-3.303823"><ele>493</ele><time>2022-04-15T12:15:34Z</time><name>PT2848</name></trkpt>
<trkpt lat="52.948871" lon="-3.303825"><ele>492</ele><time>2022-04-15T12:15:35Z</time><name>PT2849</name></trkpt>
<trkpt lat="52.948869" lon="-3.303828"><ele>493</ele><time>2022-04-15T12:15:36Z</time><name>PT2850</name></trkpt>
<trkpt lat="52.948871" lon="-3.303827"><ele>492</ele><time>2022-04-15T12:15:37Z</time><name>PT2851</name></trkpt>
<trkpt lat="52.948871" lon="-3.303828"><ele>492</ele><time>2022-04-15T12:15:38Z</time><name>PT2852</name></trkpt>
<trkpt lat="52.948870" lon="-3.303830"><ele>492</ele><time>2022-04-15T12:15:39Z</time><name>PT2853</name></trkpt>
<trkpt lat="52.948870" lon="-3.303833"><ele>492</ele><time>2022-04-15T12:15:40Z</time><name>PT2854</name></trkpt>
<trkpt lat="52.948866" lon="-3.303852"><ele>491</ele><time>2022-04-15T12:16:32Z</time><name>PT2855</name></trkpt>
<trkpt lat="52.948872" lon="-3.303821"><ele>490</ele><time>2022-04-15T12:16:35Z</time><name>PT2856</name></trkpt>
<trkpt lat="52.948860" lon="-3.303818"><ele>490</ele><time>2022-04-15T12:16:39Z</time><name>PT2857</name></trkpt>
<trkpt lat="52.948876" lon="-3.303839"><ele>489</ele><time>2022-04-15T12:16:43Z</time><name>PT2858</name></trkpt>
<trkpt lat="52.948879" lon="-3.303845"><ele>489</ele><time>2022-04-15T12:16:47Z</time><name>PT2859</name></trkpt>
<trkpt lat="52.948876" lon="-3.303841"><ele>489</ele><time>2022-04-15T12:16:51Z</time><name>PT2860</name></trkpt>
<trkpt lat="52.948863" lon="-3.303817"><ele>489</ele><time>2022-04-15T12:16:54Z</time><name>PT2861</name></trkpt>
<trkpt lat="52.948859" lon="-3.303818"><ele>489</ele><time>2022-04-15T12:16:58Z</time><name>PT2862</name></trkpt>
<trkpt lat="52.948860" lon="-3.303818"><ele>489</ele><time>2022-04-15T12:17:01Z</time><name>PT2863</name></trkpt>
<trkpt lat="52.948862" lon="-3.303832"><ele>489</ele><time>2022-04-15T12:17:25Z</time><name>PT2864</name></trkpt>
<trkpt lat="52.948879" lon="-3.303831"><ele>490</ele><time>2022-04-15T12:17:29Z</time><name>PT2865</name></trkpt>
<trkpt lat="52.948880" lon="-3.303818"><ele>490</ele><time>2022-04-15T12:17:33Z</time><name>PT2866</name></trkpt>
<trkpt lat="52.948879" lon="-3.303818"><ele>490</ele><time>2022-04-15T12:17:37Z</time><name>PT2867</name></trkpt>
<trkpt lat="52.948870" lon="-3.303833"><ele>490</ele><time>2022-04-15T12:17:59Z</time><name>PT2868</name></trkpt>
<trkpt lat="52.948874" lon="-3.303821"><ele>490</ele><time>2022-04-15T12:18:02Z</time><name>PT2869</name></trkpt>
<trkpt lat="52.948875" lon="-3.303826"><ele>490</ele><time>2022-04-15T12:18:13Z</time><name>PT2870</name></trkpt>
<trkpt lat="52.948875" lon="-3.303820"><ele>491</ele><time>2022-04-15T12:19:44Z</time><name>PT2871</name></trkpt>
<trkpt lat="52.948875" lon="-3.303824"><ele>490</ele><time>2022-04-15T12:20:46Z</time><name>PT2872</name></trkpt>
<trkpt lat="52.948866" lon="-3.303819"><ele>489</ele><time>2022-04-15T12:21:03Z</time><name>PT2873</name></trkpt>
<trkpt lat="52.948859" lon="-3.303813"><ele>490</ele><time>2022-04-15T12:21:06Z</time><name>PT2874</name></trkpt>
<trkpt lat="52.948859" lon="-3.303813"><ele>490</ele><time>2022-04-15T12:21:09Z</time><name>PT2875</name></trkpt>
<trkpt lat="52.948869" lon="-3.303799"><ele>490</ele><time>2022-04-15T12:22:45Z</time><name>PT2876</name></trkpt>
<trkpt lat="52.948880" lon="-3.303802"><ele>490</ele><time>2022-04-15T12:22:48Z</time><name>PT2877</name></trkpt>
<trkpt lat="52.948883" lon="-3.303793"><ele>490</ele><time>2022-04-15T12:22:52Z</time><name>PT2878</name></trkpt>
<trkpt lat="52.948887" lon="-3.303769"><ele>490</ele><time>2022-04-15T12:22:56Z</time><name>PT2879</name></trkpt>
<trkpt lat="52.948899" lon="-3.303739"><ele>490</ele><time>2022-04-15T12:23:00Z</time><name>PT2880</name></trkpt>
<trkpt lat="52.948919" lon="-3.303706"><ele>489</ele><time>2022-04-15T12:23:03Z</time><name>PT2881</name></trkpt>
<trkpt lat="52.948945" lon="-3.303690"><ele>488</ele><time>2022-04-15T12:23:07Z</time><name>PT2882</name></trkpt>
<trkpt lat="52.948965" lon="-3.303691"><ele>489</ele><time>2022-04-15T12:23:10Z</time><name>PT2883</name></trkpt>
<trkpt lat="52.949005" lon="-3.303730"><ele>489</ele><time>2022-04-15T12:23:14Z</time><name>PT2884</name></trkpt>
<trkpt lat="52.949037" lon="-3.303757"><ele>489</ele><time>2022-04-15T12:23:17Z</time><name>PT2885</name></trkpt>
<trkpt lat="52.949060" lon="-3.303798"><ele>489</ele><time>2022-04-15T12:23:21Z</time><name>PT2886</name></trkpt>
<trkpt lat="52.949068" lon="-3.303856"><ele>489</ele><time>2022-04-15T12:23:25Z</time><name>PT2887</name></trkpt>
<trkpt lat="52.949070" lon="-3.303901"><ele>489</ele><time>2022-04-15T12:23:28Z</time><name>PT2888</name></trkpt>
<trkpt lat="52.949068" lon="-3.303961"><ele>490</ele><time>2022-04-15T12:23:32Z</time><name>PT2889</name></trkpt>
<trkpt lat="52.949076" lon="-3.304019"><ele>490</ele><time>2022-04-15T12:23:36Z</time><name>PT2890</name></trkpt>
<trkpt lat="52.949073" lon="-3.304059"><ele>490</ele><time>2022-04-15T12:23:39Z</time><name>PT2891</name></trkpt>
<trkpt lat="52.949067" lon="-3.304108"><ele>491</ele><time>2022-04-15T12:23:43Z</time><name>PT2892</name></trkpt>
<trkpt lat="52.949061" lon="-3.304160"><ele>491</ele><time>2022-04-15T12:23:47Z</time><name>PT2893</name></trkpt>
<trkpt lat="52.949056" lon="-3.304203"><ele>492</ele><time>2022-04-15T12:23:50Z</time><name>PT2894</name></trkpt>
<trkpt lat="52.949058" lon="-3.304243"><ele>491</ele><time>2022-04-15T12:23:53Z</time><name>PT2895</name></trkpt>
<trkpt lat="52.949066" lon="-3.304278"><ele>490</ele><time>2022-04-15T12:23:56Z</time><name>PT2896</name></trkpt>
<trkpt lat="52.949097" lon="-3.304321"><ele>490</ele><time>2022-04-15T12:24:00Z</time><name>PT2897</name></trkpt>
<trkpt lat="52.949127" lon="-3.304374"><ele>490</ele><time>2022-04-15T12:24:04Z</time><name>PT2898</name></trkpt>
<trkpt lat="52.949153" lon="-3.304404"><ele>488</ele><time>2022-04-15T12:24:07Z</time><name>PT2899</name></trkpt>
<trkpt lat="52.949191" lon="-3.304440"><ele>486</ele><time>2022-04-15T12:24:11Z</time><name>PT2900</name></trkpt>
<trkpt lat="52.949236" lon="-3.304469"><ele>486</ele><time>2022-04-15T12:24:15Z</time><name>PT2901</name></trkpt>
<trkpt lat="52.949273" lon="-3.304497"><ele>485</ele><time>2022-04-15T12:24:19Z</time><name>PT2902</name></trkpt>
<trkpt lat="52.949315" lon="-3.304510"><ele>484</ele><time>2022-04-15T12:24:23Z</time><name>PT2903</name></trkpt>
<trkpt lat="52.949339" lon="-3.304524"><ele>484</ele><time>2022-04-15T12:24:26Z</time><name>PT2904</name></trkpt>
<trkpt lat="52.949385" lon="-3.304549"><ele>484</ele><time>2022-04-15T12:24:30Z</time><name>PT2905</name></trkpt>
<trkpt lat="52.949428" lon="-3.304584"><ele>483</ele><time>2022-04-15T12:24:34Z</time><name>PT2906</name></trkpt>
<trkpt lat="52.949461" lon="-3.304605"><ele>483</ele><time>2022-04-15T12:24:37Z</time><name>PT2907</name></trkpt>
<trkpt lat="52.949501" lon="-3.304649"><ele>483</ele><time>2022-04-15T12:24:41Z</time><name>PT2908</name></trkpt>
<trkpt lat="52.949540" lon="-3.304680"><ele>481</ele><time>2022-04-15T12:24:45Z</time><name>PT2909</name></trkpt>
<trkpt lat="52.949582" lon="-3.304699"><ele>481</ele><time>2022-04-15T12:24:49Z</time><name>PT2910</name></trkpt>
<trkpt lat="52.949619" lon="-3.304723"><ele>481</ele><time>2022-04-15T12:24:52Z</time><name>PT2911</name></trkpt>
<trkpt lat="52.949663" lon="-3.304724"><ele>480</ele><time>2022-04-15T12:24:56Z</time><name>PT2912</name></trkpt>
<trkpt lat="52.949700" lon="-3.304720"><ele>480</ele><time>2022-04-15T12:24:59Z</time><name>PT2913</name></trkpt>
<trkpt lat="52.949731" lon="-3.304707"><ele>479</ele><time>2022-04-15T12:25:02Z</time><name>PT2914</name></trkpt>
<trkpt lat="52.949768" lon="-3.304697"><ele>479</ele><time>2022-04-15T12:25:05Z</time><name>PT2915</name></trkpt>
<trkpt lat="52.949809" lon="-3.304666"><ele>478</ele><time>2022-04-15T12:25:09Z</time><name>PT2916</name></trkpt>
<trkpt lat="52.949856" lon="-3.304640"><ele>477</ele><time>2022-04-15T12:25:13Z</time><name>PT2917</name></trkpt>
<trkpt lat="52.949890" lon="-3.304629"><ele>477</ele><time>2022-04-15T12:25:16Z</time><name>PT2918</name></trkpt>
<trkpt lat="52.949926" lon="-3.304644"><ele>478</ele><time>2022-04-15T12:25:19Z</time><name>PT2919</name></trkpt>
<trkpt lat="52.949961" lon="-3.304649"><ele>477</ele><time>2022-04-15T12:25:22Z</time><name>PT2920</name></trkpt>
<trkpt lat="52.950008" lon="-3.304661"><ele>478</ele><time>2022-04-15T12:25:26Z</time><name>PT2921</name></trkpt>
<trkpt lat="52.950054" lon="-3.304675"><ele>478</ele><time>2022-04-15T12:25:30Z</time><name>PT2922</name></trkpt>
<trkpt lat="52.950089" lon="-3.304695"><ele>477</ele><time>2022-04-15T12:25:34Z</time><name>PT2923</name></trkpt>
<trkpt lat="52.950118" lon="-3.304711"><ele>477</ele><time>2022-04-15T12:25:37Z</time><name>PT2924</name></trkpt>
<trkpt lat="52.950154" lon="-3.304725"><ele>477</ele><time>2022-04-15T12:25:40Z</time><name>PT2925</name></trkpt>
<trkpt lat="52.950199" lon="-3.304757"><ele>477</ele><time>2022-04-15T12:25:44Z</time><name>PT2926</name></trkpt>
<trkpt lat="52.950244" lon="-3.304786"><ele>478</ele><time>2022-04-15T12:25:48Z</time><name>PT2927</name></trkpt>
<trkpt lat="52.950278" lon="-3.304800"><ele>478</ele><time>2022-04-15T12:25:51Z</time><name>PT2928</name></trkpt>
<trkpt lat="52.950326" lon="-3.304812"><ele>477</ele><time>2022-04-15T12:25:55Z</time><name>PT2929</name></trkpt>
<trkpt lat="52.950354" lon="-3.304798"><ele>476</ele><time>2022-04-15T12:25:58Z</time><name>PT2930</name></trkpt>
<trkpt lat="52.950398" lon="-3.304797"><ele>475</ele><time>2022-04-15T12:26:02Z</time><name>PT2931</name></trkpt>
<trkpt lat="52.950435" lon="-3.304809"><ele>476</ele><time>2022-04-15T12:26:06Z</time><name>PT2932</name></trkpt>
<trkpt lat="52.950462" lon="-3.304828"><ele>476</ele><time>2022-04-15T12:26:09Z</time><name>PT2933</name></trkpt>
<trkpt lat="52.950483" lon="-3.304852"><ele>476</ele><time>2022-04-15T12:26:13Z</time><name>PT2934</name></trkpt>
<trkpt lat="52.950495" lon="-3.304871"><ele>475</ele><time>2022-04-15T12:26:16Z</time><name>PT2935</name></trkpt>
<trkpt lat="52.950510" lon="-3.304899"><ele>475</ele><time>2022-04-15T12:26:20Z</time><name>PT2936</name></trkpt>
<trkpt lat="52.950517" lon="-3.304938"><ele>476</ele><time>2022-04-15T12:26:24Z</time><name>PT2937</name></trkpt>
<trkpt lat="52.950518" lon="-3.305003"><ele>476</ele><time>2022-04-15T12:26:28Z</time><name>PT2938</name></trkpt>
<trkpt lat="52.950511" lon="-3.305045"><ele>476</ele><time>2022-04-15T12:26:31Z</time><name>PT2939</name></trkpt>
<trkpt lat="52.950512" lon="-3.305089"><ele>476</ele><time>2022-04-15T12:26:35Z</time><name>PT2940</name></trkpt>
<trkpt lat="52.950525" lon="-3.305117"><ele>476</ele><time>2022-04-15T12:26:38Z</time><name>PT2941</name></trkpt>
<trkpt lat="52.950556" lon="-3.305151"><ele>477</ele><time>2022-04-15T12:26:42Z</time><name>PT2942</name></trkpt>
<trkpt lat="52.950580" lon="-3.305161"><ele>477</ele><time>2022-04-15T12:26:45Z</time><name>PT2943</name></trkpt>
<trkpt lat="52.950607" lon="-3.305142"><ele>478</ele><time>2022-04-15T12:26:49Z</time><name>PT2944</name></trkpt>
<trkpt lat="52.950617" lon="-3.305128"><ele>477</ele><time>2022-04-15T12:26:52Z</time><name>PT2945</name></trkpt>
<trkpt lat="52.950636" lon="-3.305125"><ele>477</ele><time>2022-04-15T12:26:56Z</time><name>PT2946</name></trkpt>
<trkpt lat="52.950658" lon="-3.305125"><ele>478</ele><time>2022-04-15T12:26:59Z</time><name>PT2947</name></trkpt>
<trkpt lat="52.950685" lon="-3.305121"><ele>477</ele><time>2022-04-15T12:27:02Z</time><name>PT2948</name></trkpt>
<trkpt lat="52.950713" lon="-3.305126"><ele>477</ele><time>2022-04-15T12:27:05Z</time><name>PT2949</name></trkpt>
<trkpt lat="52.950734" lon="-3.305142"><ele>478</ele><time>2022-04-15T12:27:09Z</time><name>PT2950</name></trkpt>
<trkpt lat="52.950758" lon="-3.305141"><ele>478</ele><time>2022-04-15T12:27:12Z</time><name>PT2951</name></trkpt>
<trkpt lat="52.950787" lon="-3.305131"><ele>478</ele><time>2022-04-15T12:27:16Z</time><name>PT2952</name></trkpt>
<trkpt lat="52.950817" lon="-3.305110"><ele>479</ele><time>2022-04-15T12:27:20Z</time><name>PT2953</name></trkpt>
<trkpt lat="52.950845" lon="-3.305100"><ele>479</ele><time>2022-04-15T12:27:23Z</time><name>PT2954</name></trkpt>
<trkpt lat="52.950874" lon="-3.305108"><ele>479</ele><time>2022-04-15T12:27:26Z</time><name>PT2955</name></trkpt>
<trkpt lat="52.950899" lon="-3.305120"><ele>480</ele><time>2022-04-15T12:27:29Z</time><name>PT2956</name></trkpt>
<trkpt lat="52.950930" lon="-3.305136"><ele>480</ele><time>2022-04-15T12:27:33Z</time><name>PT2957</name></trkpt>
<trkpt lat="52.950950" lon="-3.305153"><ele>481</ele><time>2022-04-15T12:27:37Z</time><name>PT2958</name></trkpt>
<trkpt lat="52.950966" lon="-3.305162"><ele>483</ele><time>2022-04-15T12:27:40Z</time><name>PT2959</name></trkpt>
<trkpt lat="52.950994" lon="-3.305175"><ele>484</ele><time>2022-04-15T12:27:44Z</time><name>PT2960</name></trkpt>
<trkpt lat="52.951017" lon="-3.305187"><ele>484</ele><time>2022-04-15T12:27:47Z</time><name>PT2961</name></trkpt>
<trkpt lat="52.951045" lon="-3.305200"><ele>486</ele><time>2022-04-15T12:27:51Z</time><name>PT2962</name></trkpt>
<trkpt lat="52.951068" lon="-3.305202"><ele>486</ele><time>2022-04-15T12:27:54Z</time><name>PT2963</name></trkpt>
<trkpt lat="52.951074" lon="-3.305203"><ele>486</ele><time>2022-04-15T12:27:55Z</time><name>PT2964</name></trkpt>
<trkpt lat="52.951081" lon="-3.305203"><ele>486</ele><time>2022-04-15T12:27:56Z</time><name>PT2965</name></trkpt>
<trkpt lat="52.951091" lon="-3.305203"><ele>487</ele><time>2022-04-15T12:27:57Z</time><name>PT2966</name></trkpt>
<trkpt lat="52.951103" lon="-3.305208"><ele>486</ele><time>2022-04-15T12:27:58Z</time><name>PT2967</name></trkpt>
<trkpt lat="52.951114" lon="-3.305210"><ele>487</ele><time>2022-04-15T12:27:59Z</time><name>PT2968</name></trkpt>
<trkpt lat="52.951123" lon="-3.305208"><ele>487</ele><time>2022-04-15T12:28:00Z</time><name>PT2969</name></trkpt>
<trkpt lat="52.951130" lon="-3.305208"><ele>487</ele><time>2022-04-15T12:28:01Z</time><name>PT2970</name></trkpt>
<trkpt lat="52.951137" lon="-3.305210"><ele>487</ele><time>2022-04-15T12:28:02Z</time><name>PT2971</name></trkpt>
<trkpt lat="52.951145" lon="-3.305210"><ele>488</ele><time>2022-04-15T12:28:03Z</time><name>PT2972</name></trkpt>
<trkpt lat="52.951153" lon="-3.305207"><ele>488</ele><time>2022-04-15T12:28:04Z</time><name>PT2973</name></trkpt>
<trkpt lat="52.951164" lon="-3.305204"><ele>488</ele><time>2022-04-15T12:28:05Z</time><name>PT2974</name></trkpt>
<trkpt lat="52.951171" lon="-3.305202"><ele>488</ele><time>2022-04-15T12:28:06Z</time><name>PT2975</name></trkpt>
<trkpt lat="52.951180" lon="-3.305200"><ele>488</ele><time>2022-04-15T12:28:07Z</time><name>PT2976</name></trkpt>
<trkpt lat="52.951187" lon="-3.305197"><ele>488</ele><time>2022-04-15T12:28:08Z</time><name>PT2977</name></trkpt>
<trkpt lat="52.951193" lon="-3.305192"><ele>488</ele><time>2022-04-15T12:28:09Z</time><name>PT2978</name></trkpt>
<trkpt lat="52.951200" lon="-3.305183"><ele>489</ele><time>2022-04-15T12:28:10Z</time><name>PT2979</name></trkpt>
<trkpt lat="52.951204" lon="-3.305177"><ele>489</ele><time>2022-04-15T12:28:11Z</time><name>PT2980</name></trkpt>
<trkpt lat="52.951215" lon="-3.305171"><ele>489</ele><time>2022-04-15T12:28:12Z</time><name>PT2981</name></trkpt>
<trkpt lat="52.951222" lon="-3.305162"><ele>490</ele><time>2022-04-15T12:28:13Z</time><name>PT2982</name></trkpt>
<trkpt lat="52.951230" lon="-3.305157"><ele>490</ele><time>2022-04-15T12:28:14Z</time><name>PT2983</name></trkpt>
<trkpt lat="52.951239" lon="-3.305149"><ele>491</ele><time>2022-04-15T12:28:15Z</time><name>PT2984</name></trkpt>
<trkpt lat="52.951247" lon="-3.305142"><ele>491</ele><time>2022-04-15T12:28:16Z</time><name>PT2985</name></trkpt>
<trkpt lat="52.951256" lon="-3.305138"><ele>491</ele><time>2022-04-15T12:28:17Z</time><name>PT2986</name></trkpt>
<trkpt lat="52.951267" lon="-3.305133"><ele>491</ele><time>2022-04-15T12:28:18Z</time><name>PT2987</name></trkpt>
<trkpt lat="52.951277" lon="-3.305134"><ele>492</ele><time>2022-04-15T12:28:19Z</time><name>PT2988</name></trkpt>
<trkpt lat="52.951288" lon="-3.305131"><ele>492</ele><time>2022-04-15T12:28:20Z</time><name>PT2989</name></trkpt>
<trkpt lat="52.951298" lon="-3.305129"><ele>492</ele><time>2022-04-15T12:28:21Z</time><name>PT2990</name></trkpt>
<trkpt lat="52.951304" lon="-3.305125"><ele>492</ele><time>2022-04-15T12:28:22Z</time><name>PT2991</name></trkpt>
<trkpt lat="52.951313" lon="-3.305124"><ele>492</ele><time>2022-04-15T12:28:23Z</time><name>PT2992</name></trkpt>
<trkpt lat="52.951326" lon="-3.305122"><ele>492</ele><time>2022-04-15T12:28:24Z</time><name>PT2993</name></trkpt>
<trkpt lat="52.951338" lon="-3.305118"><ele>492</ele><time>2022-04-15T12:28:25Z</time><name>PT2994</name></trkpt>
<trkpt lat="52.951351" lon="-3.305112"><ele>492</ele><time>2022-04-15T12:28:26Z</time><name>PT2995</name></trkpt>
<trkpt lat="52.951359" lon="-3.305106"><ele>492</ele><time>2022-04-15T12:28:27Z</time><name>PT2996</name></trkpt>
<trkpt lat="52.951369" lon="-3.305103"><ele>492</ele><time>2022-04-15T12:28:28Z</time><name>PT2997</name></trkpt>
<trkpt lat="52.951378" lon="-3.305103"><ele>492</ele><time>2022-04-15T12:28:29Z</time><name>PT2998</name></trkpt>
<trkpt lat="52.951388" lon="-3.305102"><ele>492</ele><time>2022-04-15T12:28:30Z</time><name>PT2999</name></trkpt>
<trkpt lat="52.951399" lon="-3.305100"><ele>492</ele><time>2022-04-15T12:28:31Z</time><name>PT3000</name></trkpt>
<trkpt lat="52.951408" lon="-3.305101"><ele>492</ele><time>2022-04-15T12:28:32Z</time><name>PT3001</name></trkpt>
<trkpt lat="52.951418" lon="-3.305103"><ele>492</ele><time>2022-04-15T12:28:33Z</time><name>PT3002</name></trkpt>
<trkpt lat="52.951426" lon="-3.305104"><ele>492</ele><time>2022-04-15T12:28:34Z</time><name>PT3003</name></trkpt>
<trkpt lat="52.951436" lon="-3.305102"><ele>493</ele><time>2022-04-15T12:28:35Z</time><name>PT3004</name></trkpt>
<trkpt lat="52.951443" lon="-3.305104"><ele>493</ele><time>2022-04-15T12:28:36Z</time><name>PT3005</name></trkpt>
<trkpt lat="52.951451" lon="-3.305106"><ele>493</ele><time>2022-04-15T12:28:37Z</time><name>PT3006</name></trkpt>
<trkpt lat="52.951461" lon="-3.305107"><ele>493</ele><time>2022-04-15T12:28:38Z</time><name>PT3007</name></trkpt>
<trkpt lat="52.951469" lon="-3.305106"><ele>493</ele><time>2022-04-15T12:28:39Z</time><name>PT3008</name></trkpt>
<trkpt lat="52.951479" lon="-3.305106"><ele>494</ele><time>2022-04-15T12:28:40Z</time><name>PT3009</name></trkpt>
<trkpt lat="52.951488" lon="-3.305110"><ele>494</ele><time>2022-04-15T12:28:41Z</time><name>PT3010</name></trkpt>
<trkpt lat="52.951496" lon="-3.305113"><ele>494</ele><time>2022-04-15T12:28:42Z</time><name>PT3011</name></trkpt>
<trkpt lat="52.951500" lon="-3.305117"><ele>494</ele><time>2022-04-15T12:28:43Z</time><name>PT3012</name></trkpt>
<trkpt lat="52.951506" lon="-3.305122"><ele>494</ele><time>2022-04-15T12:28:44Z</time><name>PT3013</name></trkpt>
<trkpt lat="52.951513" lon="-3.305127"><ele>495</ele><time>2022-04-15T12:28:45Z</time><name>PT3014</name></trkpt>
<trkpt lat="52.951522" lon="-3.305131"><ele>495</ele><time>2022-04-15T12:28:46Z</time><name>PT3015</name></trkpt>
<trkpt lat="52.951528" lon="-3.305133"><ele>495</ele><time>2022-04-15T12:28:47Z</time><name>PT3016</name></trkpt>
<trkpt lat="52.951535" lon="-3.305133"><ele>495</ele><time>2022-04-15T12:28:48Z</time><name>PT3017</name></trkpt>
<trkpt lat="52.951541" lon="-3.305136"><ele>495</ele><time>2022-04-15T12:28:49Z</time><name>PT3018</name></trkpt>
<trkpt lat="52.951547" lon="-3.305139"><ele>495</ele><time>2022-04-15T12:28:50Z</time><name>PT3019</name></trkpt>
<trkpt lat="52.951556" lon="-3.305143"><ele>495</ele><time>2022-04-15T12:28:51Z</time><name>PT3020</name></trkpt>
<trkpt lat="52.951563" lon="-3.305145"><ele>495</ele><time>2022-04-15T12:28:52Z</time><name>PT3021</name></trkpt>
<trkpt lat="52.951572" lon="-3.305149"><ele>496</ele><time>2022-04-15T12:28:53Z</time><name>PT3022</name></trkpt>
<trkpt lat="52.951579" lon="-3.305152"><ele>496</ele><time>2022-04-15T12:28:54Z</time><name>PT3023</name></trkpt>
<trkpt lat="52.951586" lon="-3.305154"><ele>496</ele><time>2022-04-15T12:28:55Z</time><name>PT3024</name></trkpt>
<trkpt lat="52.951595" lon="-3.305157"><ele>496</ele><time>2022-04-15T12:28:56Z</time><name>PT3025</name></trkpt>
<trkpt lat="52.951604" lon="-3.305163"><ele>496</ele><time>2022-04-15T12:28:57Z</time><name>PT3026</name></trkpt>
<trkpt lat="52.951612" lon="-3.305167"><ele>496</ele><time>2022-04-15T12:28:58Z</time><name>PT3027</name></trkpt>
<trkpt lat="52.951619" lon="-3.305174"><ele>496</ele><time>2022-04-15T12:28:59Z</time><name>PT3028</name></trkpt>
<trkpt lat="52.951629" lon="-3.305180"><ele>496</ele><time>2022-04-15T12:29:00Z</time><name>PT3029</name></trkpt>
<trkpt lat="52.951639" lon="-3.305182"><ele>496</ele><time>2022-04-15T12:29:01Z</time><name>PT3030</name></trkpt>
<trkpt lat="52.951647" lon="-3.305182"><ele>496</ele><time>2022-04-15T12:29:02Z</time><name>PT3031</name></trkpt>
<trkpt lat="52.951658" lon="-3.305185"><ele>496</ele><time>2022-04-15T12:29:03Z</time><name>PT3032</name></trkpt>
<trkpt lat="52.951666" lon="-3.305190"><ele>496</ele><time>2022-04-15T12:29:04Z</time><name>PT3033</name></trkpt>
<trkpt lat="52.951675" lon="-3.305195"><ele>497</ele><time>2022-04-15T12:29:05Z</time><name>PT3034</name></trkpt>
<trkpt lat="52.951685" lon="-3.305199"><ele>496</ele><time>2022-04-15T12:29:06Z</time><name>PT3035</name></trkpt>
<trkpt lat="52.951697" lon="-3.305202"><ele>496</ele><time>2022-04-15T12:29:07Z</time><name>PT3036</name></trkpt>
<trkpt lat="52.951709" lon="-3.305206"><ele>496</ele><time>2022-04-15T12:29:08Z</time><name>PT3037</name></trkpt>
<trkpt lat="52.951718" lon="-3.305210"><ele>496</ele><time>2022-04-15T12:29:09Z</time><name>PT3038</name></trkpt>
<trkpt lat="52.951728" lon="-3.305215"><ele>497</ele><time>2022-04-15T12:29:10Z</time><name>PT3039</name></trkpt>
<trkpt lat="52.951737" lon="-3.305219"><ele>497</ele><time>2022-04-15T12:29:11Z</time><name>PT3040</name></trkpt>
<trkpt lat="52.951748" lon="-3.305222"><ele>497</ele><time>2022-04-15T12:29:12Z</time><name>PT3041</name></trkpt>
<trkpt lat="52.951759" lon="-3.305226"><ele>497</ele><time>2022-04-15T12:29:13Z</time><name>PT3042</name></trkpt>
<trkpt lat="52.951769" lon="-3.305231"><ele>497</ele><time>2022-04-15T12:29:14Z</time><name>PT3043</name></trkpt>
<trkpt lat="52.951778" lon="-3.305236"><ele>497</ele><time>2022-04-15T12:29:15Z</time><name>PT3044</name></trkpt>
<trkpt lat="52.951788" lon="-3.305239"><ele>497</ele><time>2022-04-15T12:29:16Z</time><name>PT3045</name></trkpt>
<trkpt lat="52.951800" lon="-3.305242"><ele>497</ele><time>2022-04-15T12:29:17Z</time><name>PT3046</name></trkpt>
<trkpt lat="52.951809" lon="-3.305246"><ele>498</ele><time>2022-04-15T12:29:18Z</time><name>PT3047</name></trkpt>
<trkpt lat="52.951820" lon="-3.305251"><ele>498</ele><time>2022-04-15T12:29:19Z</time><name>PT3048</name></trkpt>
<trkpt lat="52.951830" lon="-3.305256"><ele>498</ele><time>2022-04-15T12:29:20Z</time><name>PT3049</name></trkpt>
<trkpt lat="52.951841" lon="-3.305258"><ele>498</ele><time>2022-04-15T12:29:21Z</time><name>PT3050</name></trkpt>
<trkpt lat="52.951853" lon="-3.305261"><ele>499</ele><time>2022-04-15T12:29:22Z</time><name>PT3051</name></trkpt>
<trkpt lat="52.951865" lon="-3.305267"><ele>499</ele><time>2022-04-15T12:29:23Z</time><name>PT3052</name></trkpt>
<trkpt lat="52.951872" lon="-3.305271"><ele>499</ele><time>2022-04-15T12:29:24Z</time><name>PT3053</name></trkpt>
<trkpt lat="52.951881" lon="-3.305274"><ele>499</ele><time>2022-04-15T12:29:25Z</time><name>PT3054</name></trkpt>
<trkpt lat="52.951892" lon="-3.305276"><ele>499</ele><time>2022-04-15T12:29:26Z</time><name>PT3055</name></trkpt>
<trkpt lat="52.951904" lon="-3.305279"><ele>500</ele><time>2022-04-15T12:29:27Z</time><name>PT3056</name></trkpt>
<trkpt lat="52.951914" lon="-3.305284"><ele>500</ele><time>2022-04-15T12:29:28Z</time><name>PT3057</name></trkpt>
<trkpt lat="52.951924" lon="-3.305287"><ele>500</ele><time>2022-04-15T12:29:29Z</time><name>PT3058</name></trkpt>
<trkpt lat="52.951936" lon="-3.305291"><ele>500</ele><time>2022-04-15T12:29:30Z</time><name>PT3059</name></trkpt>
<trkpt lat="52.951948" lon="-3.305295"><ele>500</ele><time>2022-04-15T12:29:31Z</time><name>PT3060</name></trkpt>
<trkpt lat="52.951959" lon="-3.305299"><ele>501</ele><time>2022-04-15T12:29:32Z</time><name>PT3061</name></trkpt>
<trkpt lat="52.951970" lon="-3.305302"><ele>500</ele><time>2022-04-15T12:29:33Z</time><name>PT3062</name></trkpt>
<trkpt lat="52.951983" lon="-3.305307"><ele>501</ele><time>2022-04-15T12:29:34Z</time><name>PT3063</name></trkpt>
<trkpt lat="52.951994" lon="-3.305310"><ele>501</ele><time>2022-04-15T12:29:35Z</time><name>PT3064</name></trkpt>
<trkpt lat="52.952005" lon="-3.305313"><ele>501</ele><time>2022-04-15T12:29:36Z</time><name>PT3065</name></trkpt>
<trkpt lat="52.952014" lon="-3.305314"><ele>501</ele><time>2022-04-15T12:29:37Z</time><name>PT3066</name></trkpt>
<trkpt lat="52.952024" lon="-3.305317"><ele>501</ele><time>2022-04-15T12:29:38Z</time><name>PT3067</name></trkpt>
<trkpt lat="52.952032" lon="-3.305322"><ele>502</ele><time>2022-04-15T12:29:39Z</time><name>PT3068</name></trkpt>
<trkpt lat="52.952040" lon="-3.305324"><ele>501</ele><time>2022-04-15T12:29:40Z</time><name>PT3069</name></trkpt>
<trkpt lat="52.952050" lon="-3.305323"><ele>501</ele><time>2022-04-15T12:29:41Z</time><name>PT3070</name></trkpt>
<trkpt lat="52.952061" lon="-3.305324"><ele>501</ele><time>2022-04-15T12:29:42Z</time><name>PT3071</name></trkpt>
<trkpt lat="52.952071" lon="-3.305327"><ele>501</ele><time>2022-04-15T12:29:43Z</time><name>PT3072</name></trkpt>
<trkpt lat="52.952081" lon="-3.305330"><ele>501</ele><time>2022-04-15T12:29:44Z</time><name>PT3073</name></trkpt>
<trkpt lat="52.952091" lon="-3.305331"><ele>502</ele><time>2022-04-15T12:29:45Z</time><name>PT3074</name></trkpt>
<trkpt lat="52.952101" lon="-3.305333"><ele>502</ele><time>2022-04-15T12:29:46Z</time><name>PT3075</name></trkpt>
<trkpt lat="52.952111" lon="-3.305336"><ele>502</ele><time>2022-04-15T12:29:47Z</time><name>PT3076</name></trkpt>
<trkpt lat="52.952119" lon="-3.305339"><ele>502</ele><time>2022-04-15T12:29:48Z</time><name>PT3077</name></trkpt>
<trkpt lat="52.952129" lon="-3.305342"><ele>502</ele><time>2022-04-15T12:29:49Z</time><name>PT3078</name></trkpt>
<trkpt lat="52.952141" lon="-3.305344"><ele>503</ele><time>2022-04-15T12:29:50Z</time><name>PT3079</name></trkpt>
<trkpt lat="52.952150" lon="-3.305345"><ele>503</ele><time>2022-04-15T12:29:51Z</time><name>PT3080</name></trkpt>
<trkpt lat="52.952160" lon="-3.305347"><ele>502</ele><time>2022-04-15T12:29:52Z</time><name>PT3081</name></trkpt>
<trkpt lat="52.952173" lon="-3.305355"><ele>503</ele><time>2022-04-15T12:29:53Z</time><name>PT3082</name></trkpt>
<trkpt lat="52.952214" lon="-3.305371"><ele>504</ele><time>2022-04-15T12:29:57Z</time><name>PT3083</name></trkpt>
<trkpt lat="52.952246" lon="-3.305386"><ele>505</ele><time>2022-04-15T12:30:00Z</time><name>PT3084</name></trkpt>
<trkpt lat="52.952284" lon="-3.305392"><ele>504</ele><time>2022-04-15T12:30:04Z</time><name>PT3085</name></trkpt>
<trkpt lat="52.952322" lon="-3.305396"><ele>504</ele><time>2022-04-15T12:30:08Z</time><name>PT3086</name></trkpt>
<trkpt lat="52.952349" lon="-3.305407"><ele>505</ele><time>2022-04-15T12:30:11Z</time><name>PT3087</name></trkpt>
<trkpt lat="52.952374" lon="-3.305417"><ele>505</ele><time>2022-04-15T12:30:14Z</time><name>PT3088</name></trkpt>
<trkpt lat="52.952418" lon="-3.305431"><ele>505</ele><time>2022-04-15T12:30:18Z</time><name>PT3089</name></trkpt>
<trkpt lat="52.952451" lon="-3.305444"><ele>506</ele><time>2022-04-15T12:30:21Z</time><name>PT3090</name></trkpt>
<trkpt lat="52.952494" lon="-3.305459"><ele>507</ele><time>2022-04-15T12:30:25Z</time><name>PT3091</name></trkpt>
<trkpt lat="52.952521" lon="-3.305472"><ele>507</ele><time>2022-04-15T12:30:28Z</time><name>PT3092</name></trkpt>
<trkpt lat="52.952549" lon="-3.305478"><ele>508</ele><time>2022-04-15T12:30:31Z</time><name>PT3093</name></trkpt>
<trkpt lat="52.952581" lon="-3.305487"><ele>508</ele><time>2022-04-15T12:30:34Z</time><name>PT3094</name></trkpt>
<trkpt lat="52.952626" lon="-3.305502"><ele>509</ele><time>2022-04-15T12:30:38Z</time><name>PT3095</name></trkpt>
<trkpt lat="52.952664" lon="-3.305515"><ele>509</ele><time>2022-04-15T12:30:42Z</time><name>PT3096</name></trkpt>
<trkpt lat="52.952701" lon="-3.305526"><ele>509</ele><time>2022-04-15T12:30:46Z</time><name>PT3097</name></trkpt>
<trkpt lat="52.952740" lon="-3.305539"><ele>509</ele><time>2022-04-15T12:30:50Z</time><name>PT3098</name></trkpt>
<trkpt lat="52.952771" lon="-3.305546"><ele>510</ele><time>2022-04-15T12:30:53Z</time><name>PT3099</name></trkpt>
<trkpt lat="52.952799" lon="-3.305555"><ele>510</ele><time>2022-04-15T12:30:56Z</time><name>PT3100</name></trkpt>
<trkpt lat="52.952835" lon="-3.305562"><ele>510</ele><time>2022-04-15T12:31:00Z</time><name>PT3101</name></trkpt>
<trkpt lat="52.952872" lon="-3.305576"><ele>509</ele><time>2022-04-15T12:31:04Z</time><name>PT3102</name></trkpt>
<trkpt lat="52.952913" lon="-3.305588"><ele>509</ele><time>2022-04-15T12:31:08Z</time><name>PT3103</name></trkpt>
<trkpt lat="52.952960" lon="-3.305599"><ele>509</ele><time>2022-04-15T12:31:12Z</time><name>PT3104</name></trkpt>
<trkpt lat="52.952999" lon="-3.305613"><ele>510</ele><time>2022-04-15T12:31:15Z</time><name>PT3105</name></trkpt>
<trkpt lat="52.953031" lon="-3.305630"><ele>509</ele><time>2022-04-15T12:31:18Z</time><name>PT3106</name></trkpt>
<trkpt lat="52.953059" lon="-3.305648"><ele>509</ele><time>2022-04-15T12:31:21Z</time><name>PT3107</name></trkpt>
<trkpt lat="52.953084" lon="-3.305667"><ele>509</ele><time>2022-04-15T12:31:24Z</time><name>PT3108</name></trkpt>
<trkpt lat="52.953118" lon="-3.305696"><ele>509</ele><time>2022-04-15T12:31:28Z</time><name>PT3109</name></trkpt>
<trkpt lat="52.953151" lon="-3.305715"><ele>509</ele><time>2022-04-15T12:31:31Z</time><name>PT3110</name></trkpt>
<trkpt lat="52.953194" lon="-3.305731"><ele>509</ele><time>2022-04-15T12:31:35Z</time><name>PT3111</name></trkpt>
<trkpt lat="52.953236" lon="-3.305758"><ele>509</ele><time>2022-04-15T12:31:39Z</time><name>PT3112</name></trkpt>
<trkpt lat="52.953268" lon="-3.305786"><ele>509</ele><time>2022-04-15T12:31:43Z</time><name>PT3113</name></trkpt>
<trkpt lat="52.953306" lon="-3.305812"><ele>509</ele><time>2022-04-15T12:31:47Z</time><name>PT3114</name></trkpt>
<trkpt lat="52.953337" lon="-3.305835"><ele>509</ele><time>2022-04-15T12:31:50Z</time><name>PT3115</name></trkpt>
<trkpt lat="52.953373" lon="-3.305866"><ele>510</ele><time>2022-04-15T12:31:53Z</time><name>PT3116</name></trkpt>
<trkpt lat="52.953405" lon="-3.305902"><ele>510</ele><time>2022-04-15T12:31:56Z</time><name>PT3117</name></trkpt>
<trkpt lat="52.953443" lon="-3.305949"><ele>510</ele><time>2022-04-15T12:32:00Z</time><name>PT3118</name></trkpt>
<trkpt lat="52.953477" lon="-3.305983"><ele>511</ele><time>2022-04-15T12:32:03Z</time><name>PT3119</name></trkpt>
<trkpt lat="52.953522" lon="-3.306021"><ele>511</ele><time>2022-04-15T12:32:07Z</time><name>PT3120</name></trkpt>
<trkpt lat="52.953554" lon="-3.306069"><ele>511</ele><time>2022-04-15T12:32:11Z</time><name>PT3121</name></trkpt>
<trkpt lat="52.953576" lon="-3.306107"><ele>511</ele><time>2022-04-15T12:32:14Z</time><name>PT3122</name></trkpt>
<trkpt lat="52.953612" lon="-3.306153"><ele>512</ele><time>2022-04-15T12:32:18Z</time><name>PT3123</name></trkpt>
<trkpt lat="52.953642" lon="-3.306186"><ele>511</ele><time>2022-04-15T12:32:21Z</time><name>PT3124</name></trkpt>
<trkpt lat="52.953665" lon="-3.306220"><ele>512</ele><time>2022-04-15T12:32:24Z</time><name>PT3125</name></trkpt>
<trkpt lat="52.953695" lon="-3.306269"><ele>512</ele><time>2022-04-15T12:32:28Z</time><name>PT3126</name></trkpt>
<trkpt lat="52.953716" lon="-3.306301"><ele>511</ele><time>2022-04-15T12:32:31Z</time><name>PT3127</name></trkpt>
<trkpt lat="52.953749" lon="-3.306355"><ele>512</ele><time>2022-04-15T12:32:35Z</time><name>PT3128</name></trkpt>
<trkpt lat="52.953781" lon="-3.306381"><ele>512</ele><time>2022-04-15T12:32:39Z</time><name>PT3129</name></trkpt>
<trkpt lat="52.953811" lon="-3.306405"><ele>512</ele><time>2022-04-15T12:32:43Z</time><name>PT3130</name></trkpt>
<trkpt lat="52.953824" lon="-3.306414"><ele>511</ele><time>2022-04-15T12:32:47Z</time><name>PT3131</name></trkpt>
<trkpt lat="52.953824" lon="-3.306415"><ele>511</ele><time>2022-04-15T12:32:50Z</time><name>PT3132</name></trkpt>
<trkpt lat="52.953833" lon="-3.306425"><ele>512</ele><time>2022-04-15T12:32:57Z</time><name>PT3133</name></trkpt>
<trkpt lat="52.953877" lon="-3.306453"><ele>511</ele><time>2022-04-15T12:33:01Z</time><name>PT3134</name></trkpt>
<trkpt lat="52.953906" lon="-3.306482"><ele>511</ele><time>2022-04-15T12:33:04Z</time><name>PT3135</name></trkpt>
<trkpt lat="52.953946" lon="-3.306506"><ele>510</ele><time>2022-04-15T12:33:08Z</time><name>PT3136</name></trkpt>
<trkpt lat="52.953977" lon="-3.306517"><ele>510</ele><time>2022-04-15T12:33:11Z</time><name>PT3137</name></trkpt>
<trkpt lat="52.954024" lon="-3.306535"><ele>509</ele><time>2022-04-15T12:33:15Z</time><name>PT3138</name></trkpt>
<trkpt lat="52.954067" lon="-3.306560"><ele>509</ele><time>2022-04-15T12:33:19Z</time><name>PT3139</name></trkpt>
<trkpt lat="52.954091" lon="-3.306575"><ele>509</ele><time>2022-04-15T12:33:22Z</time><name>PT3140</name></trkpt>
<trkpt lat="52.954132" lon="-3.306602"><ele>509</ele><time>2022-04-15T12:33:26Z</time><name>PT3141</name></trkpt>
<trkpt lat="52.954164" lon="-3.306618"><ele>508</ele><time>2022-04-15T12:33:29Z</time><name>PT3142</name></trkpt>
<trkpt lat="52.954212" lon="-3.306658"><ele>509</ele><time>2022-04-15T12:33:33Z</time><name>PT3143</name></trkpt>
<trkpt lat="52.954248" lon="-3.306678"><ele>508</ele><time>2022-04-15T12:33:36Z</time><name>PT3144</name></trkpt>
<trkpt lat="52.954291" lon="-3.306698"><ele>507</ele><time>2022-04-15T12:33:40Z</time><name>PT3145</name></trkpt>
<trkpt lat="52.954334" lon="-3.306720"><ele>507</ele><time>2022-04-15T12:33:44Z</time><name>PT3146</name></trkpt>
<trkpt lat="52.954370" lon="-3.306740"><ele>507</ele><time>2022-04-15T12:33:47Z</time><name>PT3147</name></trkpt>
<trkpt lat="52.954417" lon="-3.306767"><ele>506</ele><time>2022-04-15T12:33:51Z</time><name>PT3148</name></trkpt>
<trkpt lat="52.954466" lon="-3.306809"><ele>506</ele><time>2022-04-15T12:33:55Z</time><name>PT3149</name></trkpt>
<trkpt lat="52.954509" lon="-3.306838"><ele>505</ele><time>2022-04-15T12:33:59Z</time><name>PT3150</name></trkpt>
<trkpt lat="52.954539" lon="-3.306864"><ele>505</ele><time>2022-04-15T12:34:02Z</time><name>PT3151</name></trkpt>
<trkpt lat="52.954556" lon="-3.306876"><ele>505</ele><time>2022-04-15T12:34:05Z</time><name>PT3152</name></trkpt>
<trkpt lat="52.954572" lon="-3.306891"><ele>504</ele><time>2022-04-15T12:34:08Z</time><name>PT3153</name></trkpt>
<trkpt lat="52.954592" lon="-3.306912"><ele>504</ele><time>2022-04-15T12:34:12Z</time><name>PT3154</name></trkpt>
<trkpt lat="52.954612" lon="-3.306938"><ele>503</ele><time>2022-04-15T12:34:16Z</time><name>PT3155</name></trkpt>
<trkpt lat="52.954620" lon="-3.306945"><ele>504</ele><time>2022-04-15T12:34:20Z</time><name>PT3156</name></trkpt>
<trkpt lat="52.954645" lon="-3.306963"><ele>504</ele><time>2022-04-15T12:34:23Z</time><name>PT3157</name></trkpt>
<trkpt lat="52.954663" lon="-3.306989"><ele>504</ele><time>2022-04-15T12:34:26Z</time><name>PT3158</name></trkpt>
<trkpt lat="52.954669" lon="-3.307032"><ele>504</ele><time>2022-04-15T12:34:30Z</time><name>PT3159</name></trkpt>
<trkpt lat="52.954666" lon="-3.307052"><ele>504</ele><time>2022-04-15T12:34:34Z</time><name>PT3160</name></trkpt>
<trkpt lat="52.954652" lon="-3.307080"><ele>504</ele><time>2022-04-15T12:34:38Z</time><name>PT3161</name></trkpt>
<trkpt lat="52.954616" lon="-3.307115"><ele>504</ele><time>2022-04-15T12:34:42Z</time><name>PT3162</name></trkpt>
<trkpt lat="52.954583" lon="-3.307146"><ele>506</ele><time>2022-04-15T12:34:46Z</time><name>PT3163</name></trkpt>
<trkpt lat="52.954559" lon="-3.307173"><ele>506</ele><time>2022-04-15T12:34:49Z</time><name>PT3164</name></trkpt>
<trkpt lat="52.954518" lon="-3.307201"><ele>508</ele><time>2022-04-15T12:34:53Z</time><name>PT3165</name></trkpt>
<trkpt lat="52.954484" lon="-3.307228"><ele>507</ele><time>2022-04-15T12:34:57Z</time><name>PT3166</name></trkpt>
<trkpt lat="52.954459" lon="-3.307250"><ele>506</ele><time>2022-04-15T12:35:00Z</time><name>PT3167</name></trkpt>
<trkpt lat="52.954424" lon="-3.307280"><ele>507</ele><time>2022-04-15T12:35:04Z</time><name>PT3168</name></trkpt>
<trkpt lat="52.954402" lon="-3.307289"><ele>508</ele><time>2022-04-15T12:35:07Z</time><name>PT3169</name></trkpt>
<trkpt lat="52.954372" lon="-3.307301"><ele>508</ele><time>2022-04-15T12:35:10Z</time><name>PT3170</name></trkpt>
<trkpt lat="52.954342" lon="-3.307332"><ele>509</ele><time>2022-04-15T12:35:14Z</time><name>PT3171</name></trkpt>
<trkpt lat="52.954318" lon="-3.307358"><ele>510</ele><time>2022-04-15T12:35:17Z</time><name>PT3172</name></trkpt>
<trkpt lat="52.954282" lon="-3.307397"><ele>511</ele><time>2022-04-15T12:35:21Z</time><name>PT3173</name></trkpt>
<trkpt lat="52.954253" lon="-3.307423"><ele>512</ele><time>2022-04-15T12:35:24Z</time><name>PT3174</name></trkpt>
<trkpt lat="52.954221" lon="-3.307451"><ele>512</ele><time>2022-04-15T12:35:27Z</time><name>PT3175</name></trkpt>
<trkpt lat="52.954195" lon="-3.307476"><ele>512</ele><time>2022-04-15T12:35:30Z</time><name>PT3176</name></trkpt>
<trkpt lat="52.954160" lon="-3.307508"><ele>513</ele><time>2022-04-15T12:35:34Z</time><name>PT3177</name></trkpt>
<trkpt lat="52.954127" lon="-3.307546"><ele>514</ele><time>2022-04-15T12:35:38Z</time><name>PT3178</name></trkpt>
<trkpt lat="52.954101" lon="-3.307566"><ele>514</ele><time>2022-04-15T12:35:41Z</time><name>PT3179</name></trkpt>
<trkpt lat="52.954071" lon="-3.307589"><ele>515</ele><time>2022-04-15T12:35:45Z</time><name>PT3180</name></trkpt>
<trkpt lat="52.954038" lon="-3.307618"><ele>515</ele><time>2022-04-15T12:35:49Z</time><name>PT3181</name></trkpt>
<trkpt lat="52.954004" lon="-3.307654"><ele>515</ele><time>2022-04-15T12:35:53Z</time><name>PT3182</name></trkpt>
<trkpt lat="52.953967" lon="-3.307682"><ele>515</ele><time>2022-04-15T12:35:57Z</time><name>PT3183</name></trkpt>
<trkpt lat="52.953932" lon="-3.307719"><ele>515</ele><time>2022-04-15T12:36:01Z</time><name>PT3184</name></trkpt>
<trkpt lat="52.953897" lon="-3.307759"><ele>516</ele><time>2022-04-15T12:36:05Z</time><name>PT3185</name></trkpt>
<trkpt lat="52.953874" lon="-3.307781"><ele>517</ele><time>2022-04-15T12:36:08Z</time><name>PT3186</name></trkpt>
<trkpt lat="52.953850" lon="-3.307803"><ele>517</ele><time>2022-04-15T12:36:11Z</time><name>PT3187</name></trkpt>
<trkpt lat="52.953830" lon="-3.307822"><ele>517</ele><time>2022-04-15T12:36:14Z</time><name>PT3188</name></trkpt>
<trkpt lat="52.953795" lon="-3.307865"><ele>518</ele><time>2022-04-15T12:36:18Z</time><name>PT3189</name></trkpt>
<trkpt lat="52.953766" lon="-3.307895"><ele>519</ele><time>2022-04-15T12:36:22Z</time><name>PT3190</name></trkpt>
<trkpt lat="52.953744" lon="-3.307916"><ele>519</ele><time>2022-04-15T12:36:25Z</time><name>PT3191</name></trkpt>
<trkpt lat="52.953715" lon="-3.307945"><ele>520</ele><time>2022-04-15T12:36:29Z</time><name>PT3192</name></trkpt>
<trkpt lat="52.953688" lon="-3.307975"><ele>521</ele><time>2022-04-15T12:36:32Z</time><name>PT3193</name></trkpt>
<trkpt lat="52.953655" lon="-3.308004"><ele>521</ele><time>2022-04-15T12:36:36Z</time><name>PT3194</name></trkpt>
<trkpt lat="52.953622" lon="-3.308040"><ele>521</ele><time>2022-04-15T12:36:40Z</time><name>PT3195</name></trkpt>
<trkpt lat="52.953589" lon="-3.308078"><ele>522</ele><time>2022-04-15T12:36:44Z</time><name>PT3196</name></trkpt>
<trkpt lat="52.953560" lon="-3.308111"><ele>523</ele><time>2022-04-15T12:36:48Z</time><name>PT3197</name></trkpt>
<trkpt lat="52.953539" lon="-3.308137"><ele>523</ele><time>2022-04-15T12:36:51Z</time><name>PT3198</name></trkpt>
<trkpt lat="52.953512" lon="-3.308169"><ele>524</ele><time>2022-04-15T12:36:55Z</time><name>PT3199</name></trkpt>
<trkpt lat="52.953487" lon="-3.308193"><ele>524</ele><time>2022-04-15T12:36:59Z</time><name>PT3200</name></trkpt>
<trkpt lat="52.953470" lon="-3.308207"><ele>525</ele><time>2022-04-15T12:37:02Z</time><name>PT3201</name></trkpt>
<trkpt lat="52.953450" lon="-3.308227"><ele>525</ele><time>2022-04-15T12:37:05Z</time><name>PT3202</name></trkpt>
<trkpt lat="52.953418" lon="-3.308259"><ele>525</ele><time>2022-04-15T12:37:09Z</time><name>PT3203</name></trkpt>
<trkpt lat="52.953388" lon="-3.308295"><ele>526</ele><time>2022-04-15T12:37:13Z</time><name>PT3204</name></trkpt>
<trkpt lat="52.953359" lon="-3.308323"><ele>526</ele><time>2022-04-15T12:37:17Z</time><name>PT3205</name></trkpt>
<trkpt lat="52.953342" lon="-3.308355"><ele>527</ele><time>2022-04-15T12:37:20Z</time><name>PT3206</name></trkpt>
<trkpt lat="52.953322" lon="-3.308387"><ele>528</ele><time>2022-04-15T12:37:23Z</time><name>PT3207</name></trkpt>
<trkpt lat="52.953291" lon="-3.308420"><ele>528</ele><time>2022-04-15T12:37:27Z</time><name>PT3208</name></trkpt>
<trkpt lat="52.953263" lon="-3.308456"><ele>528</ele><time>2022-04-15T12:37:31Z</time><name>PT3209</name></trkpt>
<trkpt lat="52.953242" lon="-3.308480"><ele>529</ele><time>2022-04-15T12:37:34Z</time><name>PT3210</name></trkpt>
<trkpt lat="52.953214" lon="-3.308497"><ele>529</ele><time>2022-04-15T12:37:38Z</time><name>PT3211</name></trkpt>
<trkpt lat="52.953183" lon="-3.308526"><ele>530</ele><time>2022-04-15T12:37:42Z</time><name>PT3212</name></trkpt>
<trkpt lat="52.953151" lon="-3.308547"><ele>531</ele><time>2022-04-15T12:37:46Z</time><name>PT3213</name></trkpt>
<trkpt lat="52.953135" lon="-3.308558"><ele>531</ele><time>2022-04-15T12:37:49Z</time><name>PT3214</name></trkpt>
<trkpt lat="52.953104" lon="-3.308583"><ele>531</ele><time>2022-04-15T12:37:53Z</time><name>PT3215</name></trkpt>
<trkpt lat="52.953072" lon="-3.308618"><ele>532</ele><time>2022-04-15T12:37:57Z</time><name>PT3216</name></trkpt>
<trkpt lat="52.953040" lon="-3.308639"><ele>533</ele><time>2022-04-15T12:38:01Z</time><name>PT3217</name></trkpt>
<trkpt lat="52.953009" lon="-3.308670"><ele>534</ele><time>2022-04-15T12:38:05Z</time><name>PT3218</name></trkpt>
<trkpt lat="52.952977" lon="-3.308704"><ele>534</ele><time>2022-04-15T12:38:09Z</time><name>PT3219</name></trkpt>
<trkpt lat="52.952945" lon="-3.308737"><ele>536</ele><time>2022-04-15T12:38:13Z</time><name>PT3220</name></trkpt>
<trkpt lat="52.952915" lon="-3.308765"><ele>537</ele><time>2022-04-15T12:38:17Z</time><name>PT3221</name></trkpt>
<trkpt lat="52.952891" lon="-3.308784"><ele>537</ele><time>2022-04-15T12:38:20Z</time><name>PT3222</name></trkpt>
<trkpt lat="52.952858" lon="-3.308818"><ele>537</ele><time>2022-04-15T12:38:24Z</time><name>PT3223</name></trkpt>
<trkpt lat="52.952828" lon="-3.308840"><ele>537</ele><time>2022-04-15T12:38:28Z</time><name>PT3224</name></trkpt>
<trkpt lat="52.952809" lon="-3.308865"><ele>538</ele><time>2022-04-15T12:38:31Z</time><name>PT3225</name></trkpt>
<trkpt lat="52.952776" lon="-3.308899"><ele>538</ele><time>2022-04-15T12:38:35Z</time><name>PT3226</name></trkpt>
<trkpt lat="52.952757" lon="-3.308922"><ele>539</ele><time>2022-04-15T12:38:38Z</time><name>PT3227</name></trkpt>
<trkpt lat="52.952728" lon="-3.308948"><ele>540</ele><time>2022-04-15T12:38:42Z</time><name>PT3228</name></trkpt>
<trkpt lat="52.952699" lon="-3.308968"><ele>540</ele><time>2022-04-15T12:38:46Z</time><name>PT3229</name></trkpt>
<trkpt lat="52.952670" lon="-3.308992"><ele>541</ele><time>2022-04-15T12:38:50Z</time><name>PT3230</name></trkpt>
<trkpt lat="52.952643" lon="-3.309019"><ele>542</ele><time>2022-04-15T12:38:54Z</time><name>PT3231</name></trkpt>
<trkpt lat="52.952620" lon="-3.309041"><ele>543</ele><time>2022-04-15T12:38:58Z</time><name>PT3232</name></trkpt>
<trkpt lat="52.952598" lon="-3.309058"><ele>543</ele><time>2022-04-15T12:39:01Z</time><name>PT3233</name></trkpt>
<trkpt lat="52.952566" lon="-3.309093"><ele>543</ele><time>2022-04-15T12:39:05Z</time><name>PT3234</name></trkpt>
<trkpt lat="52.952536" lon="-3.309121"><ele>543</ele><time>2022-04-15T12:39:08Z</time><name>PT3235</name></trkpt>
<trkpt lat="52.952506" lon="-3.309154"><ele>544</ele><time>2022-04-15T12:39:11Z</time><name>PT3236</name></trkpt>
<trkpt lat="52.952467" lon="-3.309193"><ele>545</ele><time>2022-04-15T12:39:15Z</time><name>PT3237</name></trkpt>
<trkpt lat="52.952430" lon="-3.309229"><ele>545</ele><time>2022-04-15T12:39:19Z</time><name>PT3238</name></trkpt>
<trkpt lat="52.952402" lon="-3.309249"><ele>545</ele><time>2022-04-15T12:39:22Z</time><name>PT3239</name></trkpt>
<trkpt lat="52.952386" lon="-3.309273"><ele>545</ele><time>2022-04-15T12:39:25Z</time><name>PT3240</name></trkpt>
<trkpt lat="52.952370" lon="-3.309294"><ele>546</ele><time>2022-04-15T12:39:28Z</time><name>PT3241</name></trkpt>
<trkpt lat="52.952334" lon="-3.309324"><ele>545</ele><time>2022-04-15T12:39:32Z</time><name>PT3242</name></trkpt>
<trkpt lat="52.952298" lon="-3.309368"><ele>545</ele><time>2022-04-15T12:39:36Z</time><name>PT3243</name></trkpt>
<trkpt lat="52.952272" lon="-3.309396"><ele>545</ele><time>2022-04-15T12:39:39Z</time><name>PT3244</name></trkpt>
<trkpt lat="52.952247" lon="-3.309441"><ele>547</ele><time>2022-04-15T12:39:43Z</time><name>PT3245</name></trkpt>
<trkpt lat="52.952224" lon="-3.309460"><ele>546</ele><time>2022-04-15T12:39:46Z</time><name>PT3246</name></trkpt>
<trkpt lat="52.952196" lon="-3.309481"><ele>547</ele><time>2022-04-15T12:39:49Z</time><name>PT3247</name></trkpt>
<trkpt lat="52.952163" lon="-3.309523"><ele>549</ele><time>2022-04-15T12:39:53Z</time><name>PT3248</name></trkpt>
<trkpt lat="52.952125" lon="-3.309564"><ele>550</ele><time>2022-04-15T12:39:57Z</time><name>PT3249</name></trkpt>
<trkpt lat="52.952088" lon="-3.309595"><ele>549</ele><time>2022-04-15T12:40:01Z</time><name>PT3250</name></trkpt>
<trkpt lat="52.952053" lon="-3.309628"><ele>549</ele><time>2022-04-15T12:40:05Z</time><name>PT3251</name></trkpt>
<trkpt lat="52.952018" lon="-3.309672"><ele>550</ele><time>2022-04-15T12:40:09Z</time><name>PT3252</name></trkpt>
<trkpt lat="52.951988" lon="-3.309712"><ele>550</ele><time>2022-04-15T12:40:12Z</time><name>PT3253</name></trkpt>
<trkpt lat="52.951963" lon="-3.309728"><ele>550</ele><time>2022-04-15T12:40:15Z</time><name>PT3254</name></trkpt>
<trkpt lat="52.951928" lon="-3.309767"><ele>550</ele><time>2022-04-15T12:40:19Z</time><name>PT3255</name></trkpt>
<trkpt lat="52.951891" lon="-3.309794"><ele>551</ele><time>2022-04-15T12:40:23Z</time><name>PT3256</name></trkpt>
<trkpt lat="52.951857" lon="-3.309837"><ele>552</ele><time>2022-04-15T12:40:27Z</time><name>PT3257</name></trkpt>
<trkpt lat="52.951831" lon="-3.309866"><ele>551</ele><time>2022-04-15T12:40:30Z</time><name>PT3258</name></trkpt>
<trkpt lat="52.951799" lon="-3.309908"><ele>552</ele><time>2022-04-15T12:40:34Z</time><name>PT3259</name></trkpt>
<trkpt lat="52.951770" lon="-3.309936"><ele>552</ele><time>2022-04-15T12:40:38Z</time><name>PT3260</name></trkpt>
<trkpt lat="52.951737" lon="-3.309971"><ele>552</ele><time>2022-04-15T12:40:42Z</time><name>PT3261</name></trkpt>
<trkpt lat="52.951711" lon="-3.309995"><ele>552</ele><time>2022-04-15T12:40:45Z</time><name>PT3262</name></trkpt>
<trkpt lat="52.951682" lon="-3.310029"><ele>553</ele><time>2022-04-15T12:40:49Z</time><name>PT3263</name></trkpt>
<trkpt lat="52.951652" lon="-3.310079"><ele>554</ele><time>2022-04-15T12:40:53Z</time><name>PT3264</name></trkpt>
<trkpt lat="52.951631" lon="-3.310112"><ele>554</ele><time>2022-04-15T12:40:56Z</time><name>PT3265</name></trkpt>
<trkpt lat="52.951607" lon="-3.310162"><ele>554</ele><time>2022-04-15T12:41:00Z</time><name>PT3266</name></trkpt>
<trkpt lat="52.951585" lon="-3.310200"><ele>555</ele><time>2022-04-15T12:41:03Z</time><name>PT3267</name></trkpt>
<trkpt lat="52.951560" lon="-3.310232"><ele>555</ele><time>2022-04-15T12:41:06Z</time><name>PT3268</name></trkpt>
<trkpt lat="52.951533" lon="-3.310288"><ele>555</ele><time>2022-04-15T12:41:10Z</time><name>PT3269</name></trkpt>
<trkpt lat="52.951509" lon="-3.310337"><ele>556</ele><time>2022-04-15T12:41:14Z</time><name>PT3270</name></trkpt>
<trkpt lat="52.951481" lon="-3.310383"><ele>557</ele><time>2022-04-15T12:41:18Z</time><name>PT3271</name></trkpt>
<trkpt lat="52.951461" lon="-3.310412"><ele>557</ele><time>2022-04-15T12:41:21Z</time><name>PT3272</name></trkpt>
<trkpt lat="52.951435" lon="-3.310447"><ele>557</ele><time>2022-04-15T12:41:25Z</time><name>PT3273</name></trkpt>
<trkpt lat="52.951416" lon="-3.310483"><ele>557</ele><time>2022-04-15T12:41:29Z</time><name>PT3274</name></trkpt>
<trkpt lat="52.951400" lon="-3.310521"><ele>558</ele><time>2022-04-15T12:41:32Z</time><name>PT3275</name></trkpt>
<trkpt lat="52.951383" lon="-3.310553"><ele>557</ele><time>2022-04-15T12:41:35Z</time><name>PT3276</name></trkpt>
<trkpt lat="52.951354" lon="-3.310599"><ele>558</ele><time>2022-04-15T12:41:39Z</time><name>PT3277</name></trkpt>
<trkpt lat="52.951330" lon="-3.310632"><ele>559</ele><time>2022-04-15T12:41:42Z</time><name>PT3278</name></trkpt>
<trkpt lat="52.951312" lon="-3.310674"><ele>559</ele><time>2022-04-15T12:41:45Z</time><name>PT3279</name></trkpt>
<trkpt lat="52.951291" lon="-3.310713"><ele>560</ele><time>2022-04-15T12:41:48Z</time><name>PT3280</name></trkpt>
<trkpt lat="52.951266" lon="-3.310748"><ele>560</ele><time>2022-04-15T12:41:52Z</time><name>PT3281</name></trkpt>
<trkpt lat="52.951245" lon="-3.310782"><ele>561</ele><time>2022-04-15T12:41:55Z</time><name>PT3282</name></trkpt>
<trkpt lat="52.951225" lon="-3.310804"><ele>560</ele><time>2022-04-15T12:41:58Z</time><name>PT3283</name></trkpt>
<trkpt lat="52.951196" lon="-3.310846"><ele>561</ele><time>2022-04-15T12:42:02Z</time><name>PT3284</name></trkpt>
<trkpt lat="52.951173" lon="-3.310890"><ele>562</ele><time>2022-04-15T12:42:06Z</time><name>PT3285</name></trkpt>
<trkpt lat="52.951145" lon="-3.310940"><ele>562</ele><time>2022-04-15T12:42:10Z</time><name>PT3286</name></trkpt>
<trkpt lat="52.951127" lon="-3.310973"><ele>563</ele><time>2022-04-15T12:42:13Z</time><name>PT3287</name></trkpt>
<trkpt lat="52.951107" lon="-3.311004"><ele>563</ele><time>2022-04-15T12:42:16Z</time><name>PT3288</name></trkpt>
<trkpt lat="52.951077" lon="-3.311052"><ele>564</ele><time>2022-04-15T12:42:20Z</time><name>PT3289</name></trkpt>
<trkpt lat="52.951052" lon="-3.311103"><ele>564</ele><time>2022-04-15T12:42:24Z</time><name>PT3290</name></trkpt>
<trkpt lat="52.951035" lon="-3.311139"><ele>565</ele><time>2022-04-15T12:42:27Z</time><name>PT3291</name></trkpt>
<trkpt lat="52.951025" lon="-3.311165"><ele>565</ele><time>2022-04-15T12:42:30Z</time><name>PT3292</name></trkpt>
<trkpt lat="52.950999" lon="-3.311210"><ele>565</ele><time>2022-04-15T12:42:34Z</time><name>PT3293</name></trkpt>
<trkpt lat="52.950982" lon="-3.311251"><ele>565</ele><time>2022-04-15T12:42:37Z</time><name>PT3294</name></trkpt>
<trkpt lat="52.950952" lon="-3.311303"><ele>566</ele><time>2022-04-15T12:42:41Z</time><name>PT3295</name></trkpt>
<trkpt lat="52.950921" lon="-3.311354"><ele>566</ele><time>2022-04-15T12:42:45Z</time><name>PT3296</name></trkpt>
<trkpt lat="52.950892" lon="-3.311398"><ele>567</ele><time>2022-04-15T12:42:49Z</time><name>PT3297</name></trkpt>
<trkpt lat="52.950860" lon="-3.311443"><ele>568</ele><time>2022-04-15T12:42:53Z</time><name>PT3298</name></trkpt>
<trkpt lat="52.950834" lon="-3.311480"><ele>569</ele><time>2022-04-15T12:42:56Z</time><name>PT3299</name></trkpt>
<trkpt lat="52.950806" lon="-3.311536"><ele>570</ele><time>2022-04-15T12:43:00Z</time><name>PT3300</name></trkpt>
<trkpt lat="52.950779" lon="-3.311586"><ele>571</ele><time>2022-04-15T12:43:04Z</time><name>PT3301</name></trkpt>
<trkpt lat="52.950760" lon="-3.311621"><ele>571</ele><time>2022-04-15T12:43:07Z</time><name>PT3302</name></trkpt>
<trkpt lat="52.950739" lon="-3.311659"><ele>572</ele><time>2022-04-15T12:43:10Z</time><name>PT3303</name></trkpt>
<trkpt lat="52.950721" lon="-3.311693"><ele>572</ele><time>2022-04-15T12:43:13Z</time><name>PT3304</name></trkpt>
<trkpt lat="52.950698" lon="-3.311735"><ele>573</ele><time>2022-04-15T12:43:17Z</time><name>PT3305</name></trkpt>
<trkpt lat="52.950679" lon="-3.311771"><ele>574</ele><time>2022-04-15T12:43:21Z</time><name>PT3306</name></trkpt>
<trkpt lat="52.950658" lon="-3.311810"><ele>575</ele><time>2022-04-15T12:43:25Z</time><name>PT3307</name></trkpt>
<trkpt lat="52.950641" lon="-3.311840"><ele>575</ele><time>2022-04-15T12:43:28Z</time><name>PT3308</name></trkpt>
<trkpt lat="52.950610" lon="-3.311871"><ele>576</ele><time>2022-04-15T12:43:32Z</time><name>PT3309</name></trkpt>
<trkpt lat="52.950590" lon="-3.311908"><ele>576</ele><time>2022-04-15T12:43:35Z</time><name>PT3310</name></trkpt>
<trkpt lat="52.950572" lon="-3.311944"><ele>578</ele><time>2022-04-15T12:43:38Z</time><name>PT3311</name></trkpt>
<trkpt lat="52.950553" lon="-3.311980"><ele>578</ele><time>2022-04-15T12:43:41Z</time><name>PT3312</name></trkpt>
<trkpt lat="52.950528" lon="-3.312031"><ele>578</ele><time>2022-04-15T12:43:45Z</time><name>PT3313</name></trkpt>
<trkpt lat="52.950504" lon="-3.312082"><ele>579</ele><time>2022-04-15T12:43:49Z</time><name>PT3314</name></trkpt>
<trkpt lat="52.950489" lon="-3.312120"><ele>580</ele><time>2022-04-15T12:43:52Z</time><name>PT3315</name></trkpt>
<trkpt lat="52.950472" lon="-3.312158"><ele>580</ele><time>2022-04-15T12:43:56Z</time><name>PT3316</name></trkpt>
<trkpt lat="52.950456" lon="-3.312198"><ele>581</ele><time>2022-04-15T12:44:00Z</time><name>PT3317</name></trkpt>
<trkpt lat="52.950442" lon="-3.312239"><ele>580</ele><time>2022-04-15T12:44:04Z</time><name>PT3318</name></trkpt>
<trkpt lat="52.950426" lon="-3.312277"><ele>580</ele><time>2022-04-15T12:44:08Z</time><name>PT3319</name></trkpt>
<trkpt lat="52.950412" lon="-3.312309"><ele>581</ele><time>2022-04-15T12:44:11Z</time><name>PT3320</name></trkpt>
<trkpt lat="52.950399" lon="-3.312357"><ele>583</ele><time>2022-04-15T12:44:15Z</time><name>PT3321</name></trkpt>
<trkpt lat="52.950380" lon="-3.312398"><ele>583</ele><time>2022-04-15T12:44:19Z</time><name>PT3322</name></trkpt>
<trkpt lat="52.950364" lon="-3.312423"><ele>584</ele><time>2022-04-15T12:44:22Z</time><name>PT3323</name></trkpt>
<trkpt lat="52.950346" lon="-3.312464"><ele>585</ele><time>2022-04-15T12:44:26Z</time><name>PT3324</name></trkpt>
<trkpt lat="52.950323" lon="-3.312510"><ele>585</ele><time>2022-04-15T12:44:30Z</time><name>PT3325</name></trkpt>
<trkpt lat="52.950299" lon="-3.312551"><ele>586</ele><time>2022-04-15T12:44:34Z</time><name>PT3326</name></trkpt>
<trkpt lat="52.950281" lon="-3.312581"><ele>587</ele><time>2022-04-15T12:44:37Z</time><name>PT3327</name></trkpt>
<trkpt lat="52.950264" lon="-3.312610"><ele>588</ele><time>2022-04-15T12:44:40Z</time><name>PT3328</name></trkpt>
<trkpt lat="52.950249" lon="-3.312654"><ele>589</ele><time>2022-04-15T12:44:43Z</time><name>PT3329</name></trkpt>
<trkpt lat="52.950227" lon="-3.312708"><ele>590</ele><time>2022-04-15T12:44:47Z</time><name>PT3330</name></trkpt>
<trkpt lat="52.950205" lon="-3.312749"><ele>589</ele><time>2022-04-15T12:44:51Z</time><name>PT3331</name></trkpt>
<trkpt lat="52.950180" lon="-3.312795"><ele>590</ele><time>2022-04-15T12:44:55Z</time><name>PT3332</name></trkpt>
<trkpt lat="52.950153" lon="-3.312844"><ele>590</ele><time>2022-04-15T12:44:59Z</time><name>PT3333</name></trkpt>
<trkpt lat="52.950133" lon="-3.312883"><ele>590</ele><time>2022-04-15T12:45:02Z</time><name>PT3334</name></trkpt>
<trkpt lat="52.950105" lon="-3.312936"><ele>591</ele><time>2022-04-15T12:45:06Z</time><name>PT3335</name></trkpt>
<trkpt lat="52.950082" lon="-3.312987"><ele>592</ele><time>2022-04-15T12:45:10Z</time><name>PT3336</name></trkpt>
<trkpt lat="52.950067" lon="-3.313017"><ele>592</ele><time>2022-04-15T12:45:13Z</time><name>PT3337</name></trkpt>
<trkpt lat="52.950043" lon="-3.313058"><ele>593</ele><time>2022-04-15T12:45:17Z</time><name>PT3338</name></trkpt>
<trkpt lat="52.950024" lon="-3.313092"><ele>594</ele><time>2022-04-15T12:45:20Z</time><name>PT3339</name></trkpt>
<trkpt lat="52.949995" lon="-3.313124"><ele>594</ele><time>2022-04-15T12:45:24Z</time><name>PT3340</name></trkpt>
<trkpt lat="52.949980" lon="-3.313159"><ele>595</ele><time>2022-04-15T12:45:27Z</time><name>PT3341</name></trkpt>
<trkpt lat="52.949959" lon="-3.313200"><ele>596</ele><time>2022-04-15T12:45:31Z</time><name>PT3342</name></trkpt>
<trkpt lat="52.949939" lon="-3.313225"><ele>597</ele><time>2022-04-15T12:45:34Z</time><name>PT3343</name></trkpt>
<trkpt lat="52.949916" lon="-3.313262"><ele>597</ele><time>2022-04-15T12:45:38Z</time><name>PT3344</name></trkpt>
<trkpt lat="52.949888" lon="-3.313300"><ele>597</ele><time>2022-04-15T12:45:42Z</time><name>PT3345</name></trkpt>
<trkpt lat="52.949866" lon="-3.313330"><ele>597</ele><time>2022-04-15T12:45:45Z</time><name>PT3346</name></trkpt>
<trkpt lat="52.949837" lon="-3.313374"><ele>598</ele><time>2022-04-15T12:45:49Z</time><name>PT3347</name></trkpt>
<trkpt lat="52.949807" lon="-3.313416"><ele>599</ele><time>2022-04-15T12:45:53Z</time><name>PT3348</name></trkpt>
<trkpt lat="52.949789" lon="-3.313453"><ele>599</ele><time>2022-04-15T12:45:56Z</time><name>PT3349</name></trkpt>
<trkpt lat="52.949774" lon="-3.313498"><ele>599</ele><time>2022-04-15T12:45:59Z</time><name>PT3350</name></trkpt>
<trkpt lat="52.949752" lon="-3.313549"><ele>600</ele><time>2022-04-15T12:46:03Z</time><name>PT3351</name></trkpt>
<trkpt lat="52.949731" lon="-3.313603"><ele>600</ele><time>2022-04-15T12:46:07Z</time><name>PT3352</name></trkpt>
<trkpt lat="52.949712" lon="-3.313641"><ele>600</ele><time>2022-04-15T12:46:10Z</time><name>PT3353</name></trkpt>
<trkpt lat="52.949687" lon="-3.313696"><ele>601</ele><time>2022-04-15T12:46:14Z</time><name>PT3354</name></trkpt>
<trkpt lat="52.949654" lon="-3.313717"><ele>601</ele><time>2022-04-15T12:46:18Z</time><name>PT3355</name></trkpt>
<trkpt lat="52.949622" lon="-3.313742"><ele>601</ele><time>2022-04-15T12:46:22Z</time><name>PT3356</name></trkpt>
<trkpt lat="52.949596" lon="-3.313768"><ele>601</ele><time>2022-04-15T12:46:25Z</time><name>PT3357</name></trkpt>
<trkpt lat="52.949569" lon="-3.313796"><ele>602</ele><time>2022-04-15T12:46:28Z</time><name>PT3358</name></trkpt>
<trkpt lat="52.949540" lon="-3.313814"><ele>602</ele><time>2022-04-15T12:46:31Z</time><name>PT3359</name></trkpt>
<trkpt lat="52.949507" lon="-3.313858"><ele>604</ele><time>2022-04-15T12:46:35Z</time><name>PT3360</name></trkpt>
<trkpt lat="52.949484" lon="-3.313889"><ele>604</ele><time>2022-04-15T12:46:38Z</time><name>PT3361</name></trkpt>
<trkpt lat="52.949466" lon="-3.313915"><ele>604</ele><time>2022-04-15T12:46:41Z</time><name>PT3362</name></trkpt>
<trkpt lat="52.949436" lon="-3.313945"><ele>605</ele><time>2022-04-15T12:46:45Z</time><name>PT3363</name></trkpt>
<trkpt lat="52.949410" lon="-3.313977"><ele>605</ele><time>2022-04-15T12:46:49Z</time><name>PT3364</name></trkpt>
<trkpt lat="52.949385" lon="-3.314012"><ele>605</ele><time>2022-04-15T12:46:53Z</time><name>PT3365</name></trkpt>
<trkpt lat="52.949369" lon="-3.314045"><ele>606</ele><time>2022-04-15T12:46:56Z</time><name>PT3366</name></trkpt>
<trkpt lat="52.949361" lon="-3.314068"><ele>606</ele><time>2022-04-15T12:46:59Z</time><name>PT3367</name></trkpt>
<trkpt lat="52.949344" lon="-3.314097"><ele>607</ele><time>2022-04-15T12:47:03Z</time><name>PT3368</name></trkpt>
<trkpt lat="52.949326" lon="-3.314124"><ele>607</ele><time>2022-04-15T12:47:07Z</time><name>PT3369</name></trkpt>
<trkpt lat="52.949315" lon="-3.314137"><ele>608</ele><time>2022-04-15T12:47:10Z</time><name>PT3370</name></trkpt>
<trkpt lat="52.949297" lon="-3.314161"><ele>609</ele><time>2022-04-15T12:47:14Z</time><name>PT3371</name></trkpt>
<trkpt lat="52.949276" lon="-3.314183"><ele>609</ele><time>2022-04-15T12:47:18Z</time><name>PT3372</name></trkpt>
<trkpt lat="52.949261" lon="-3.314213"><ele>610</ele><time>2022-04-15T12:47:22Z</time><name>PT3373</name></trkpt>
<trkpt lat="52.949241" lon="-3.314259"><ele>610</ele><time>2022-04-15T12:47:26Z</time><name>PT3374</name></trkpt>
<trkpt lat="52.949220" lon="-3.314291"><ele>611</ele><time>2022-04-15T12:47:30Z</time><name>PT3375</name></trkpt>
<trkpt lat="52.949198" lon="-3.314323"><ele>611</ele><time>2022-04-15T12:47:33Z</time><name>PT3376</name></trkpt>
<trkpt lat="52.949176" lon="-3.314356"><ele>612</ele><time>2022-04-15T12:47:36Z</time><name>PT3377</name></trkpt>
<trkpt lat="52.949151" lon="-3.314394"><ele>613</ele><time>2022-04-15T12:47:40Z</time><name>PT3378</name></trkpt>
<trkpt lat="52.949131" lon="-3.314426"><ele>613</ele><time>2022-04-15T12:47:44Z</time><name>PT3379</name></trkpt>
<trkpt lat="52.949112" lon="-3.314449"><ele>614</ele><time>2022-04-15T12:47:48Z</time><name>PT3380</name></trkpt>
<trkpt lat="52.949094" lon="-3.314473"><ele>615</ele><time>2022-04-15T12:47:52Z</time><name>PT3381</name></trkpt>
<trkpt lat="52.949071" lon="-3.314502"><ele>615</ele><time>2022-04-15T12:47:56Z</time><name>PT3382</name></trkpt>
<trkpt lat="52.949050" lon="-3.314533"><ele>616</ele><time>2022-04-15T12:47:59Z</time><name>PT3383</name></trkpt>
<trkpt lat="52.949030" lon="-3.314578"><ele>617</ele><time>2022-04-15T12:48:03Z</time><name>PT3384</name></trkpt>
<trkpt lat="52.949010" lon="-3.314609"><ele>617</ele><time>2022-04-15T12:48:06Z</time><name>PT3385</name></trkpt>
<trkpt lat="52.948988" lon="-3.314632"><ele>617</ele><time>2022-04-15T12:48:10Z</time><name>PT3386</name></trkpt>
<trkpt lat="52.948967" lon="-3.314659"><ele>618</ele><time>2022-04-15T12:48:13Z</time><name>PT3387</name></trkpt>
<trkpt lat="52.948942" lon="-3.314703"><ele>618</ele><time>2022-04-15T12:48:17Z</time><name>PT3388</name></trkpt>
<trkpt lat="52.948916" lon="-3.314728"><ele>619</ele><time>2022-04-15T12:48:21Z</time><name>PT3389</name></trkpt>
<trkpt lat="52.948893" lon="-3.314766"><ele>620</ele><time>2022-04-15T12:48:25Z</time><name>PT3390</name></trkpt>
<trkpt lat="52.948869" lon="-3.314793"><ele>621</ele><time>2022-04-15T12:48:29Z</time><name>PT3391</name></trkpt>
<trkpt lat="52.948849" lon="-3.314827"><ele>621</ele><time>2022-04-15T12:48:33Z</time><name>PT3392</name></trkpt>
<trkpt lat="52.948828" lon="-3.314851"><ele>622</ele><time>2022-04-15T12:48:36Z</time><name>PT3393</name></trkpt>
<trkpt lat="52.948800" lon="-3.314886"><ele>623</ele><time>2022-04-15T12:48:40Z</time><name>PT3394</name></trkpt>
<trkpt lat="52.948778" lon="-3.314911"><ele>623</ele><time>2022-04-15T12:48:44Z</time><name>PT3395</name></trkpt>
<trkpt lat="52.948759" lon="-3.314930"><ele>624</ele><time>2022-04-15T12:48:47Z</time><name>PT3396</name></trkpt>
<trkpt lat="52.948738" lon="-3.314958"><ele>625</ele><time>2022-04-15T12:48:51Z</time><name>PT3397</name></trkpt>
<trkpt lat="52.948722" lon="-3.314975"><ele>626</ele><time>2022-04-15T12:48:54Z</time><name>PT3398</name></trkpt>
<trkpt lat="52.948703" lon="-3.314995"><ele>626</ele><time>2022-04-15T12:48:57Z</time><name>PT3399</name></trkpt>
<trkpt lat="52.948679" lon="-3.315019"><ele>627</ele><time>2022-04-15T12:49:01Z</time><name>PT3400</name></trkpt>
<trkpt lat="52.948657" lon="-3.315052"><ele>628</ele><time>2022-04-15T12:49:04Z</time><name>PT3401</name></trkpt>
<trkpt lat="52.948637" lon="-3.315078"><ele>628</ele><time>2022-04-15T12:49:07Z</time><name>PT3402</name></trkpt>
<trkpt lat="52.948606" lon="-3.315116"><ele>630</ele><time>2022-04-15T12:49:11Z</time><name>PT3403</name></trkpt>
<trkpt lat="52.948588" lon="-3.315144"><ele>630</ele><time>2022-04-15T12:49:14Z</time><name>PT3404</name></trkpt>
<trkpt lat="52.948563" lon="-3.315182"><ele>631</ele><time>2022-04-15T12:49:18Z</time><name>PT3405</name></trkpt>
<trkpt lat="52.948532" lon="-3.315224"><ele>631</ele><time>2022-04-15T12:49:22Z</time><name>PT3406</name></trkpt>
<trkpt lat="52.948510" lon="-3.315262"><ele>631</ele><time>2022-04-15T12:49:26Z</time><name>PT3407</name></trkpt>
<trkpt lat="52.948493" lon="-3.315297"><ele>631</ele><time>2022-04-15T12:49:29Z</time><name>PT3408</name></trkpt>
<trkpt lat="52.948479" lon="-3.315333"><ele>631</ele><time>2022-04-15T12:49:32Z</time><name>PT3409</name></trkpt>
<trkpt lat="52.948454" lon="-3.315385"><ele>632</ele><time>2022-04-15T12:49:36Z</time><name>PT3410</name></trkpt>
<trkpt lat="52.948434" lon="-3.315443"><ele>633</ele><time>2022-04-15T12:49:40Z</time><name>PT3411</name></trkpt>
<trkpt lat="52.948412" lon="-3.315477"><ele>633</ele><time>2022-04-15T12:49:43Z</time><name>PT3412</name></trkpt>
<trkpt lat="52.948389" lon="-3.315522"><ele>633</ele><time>2022-04-15T12:49:47Z</time><name>PT3413</name></trkpt>
<trkpt lat="52.948369" lon="-3.315582"><ele>634</ele><time>2022-04-15T12:49:51Z</time><name>PT3414</name></trkpt>
<trkpt lat="52.948351" lon="-3.315623"><ele>635</ele><time>2022-04-15T12:49:54Z</time><name>PT3415</name></trkpt>
<trkpt lat="52.948341" lon="-3.315680"><ele>635</ele><time>2022-04-15T12:49:58Z</time><name>PT3416</name></trkpt>
<trkpt lat="52.948321" lon="-3.315728"><ele>634</ele><time>2022-04-15T12:50:02Z</time><name>PT3417</name></trkpt>
<trkpt lat="52.948304" lon="-3.315758"><ele>634</ele><time>2022-04-15T12:50:05Z</time><name>PT3418</name></trkpt>
<trkpt lat="52.948293" lon="-3.315790"><ele>635</ele><time>2022-04-15T12:50:09Z</time><name>PT3419</name></trkpt>
<trkpt lat="52.948287" lon="-3.315820"><ele>635</ele><time>2022-04-15T12:50:13Z</time><name>PT3420</name></trkpt>
<trkpt lat="52.948276" lon="-3.315823"><ele>635</ele><time>2022-04-15T12:50:16Z</time><name>PT3421</name></trkpt>
<trkpt lat="52.948270" lon="-3.315826"><ele>635</ele><time>2022-04-15T12:50:17Z</time><name>PT3422</name></trkpt>
<trkpt lat="52.948268" lon="-3.315830"><ele>636</ele><time>2022-04-15T12:50:18Z</time><name>PT3423</name></trkpt>
<trkpt lat="52.948268" lon="-3.315834"><ele>636</ele><time>2022-04-15T12:50:19Z</time><name>PT3424</name></trkpt>
<trkpt lat="52.948267" lon="-3.315836"><ele>636</ele><time>2022-04-15T12:50:20Z</time><name>PT3425</name></trkpt>
<trkpt lat="52.948265" lon="-3.315838"><ele>636</ele><time>2022-04-15T12:50:21Z</time><name>PT3426</name></trkpt>
<trkpt lat="52.948265" lon="-3.315840"><ele>636</ele><time>2022-04-15T12:50:22Z</time><name>PT3427</name></trkpt>
<trkpt lat="52.948267" lon="-3.315841"><ele>636</ele><time>2022-04-15T12:50:23Z</time><name>PT3428</name></trkpt>
<trkpt lat="52.948270" lon="-3.315846"><ele>636</ele><time>2022-04-15T12:50:24Z</time><name>PT3429</name></trkpt>
<trkpt lat="52.948268" lon="-3.315840"><ele>636</ele><time>2022-04-15T12:50:36Z</time><name>PT3430</name></trkpt>
<trkpt lat="52.948268" lon="-3.315835"><ele>636</ele><time>2022-04-15T12:50:37Z</time><name>PT3431</name></trkpt>
<trkpt lat="52.948268" lon="-3.315834"><ele>636</ele><time>2022-04-15T12:50:38Z</time><name>PT3432</name></trkpt>
<trkpt lat="52.948268" lon="-3.315833"><ele>637</ele><time>2022-04-15T12:50:39Z</time><name>PT3433</name></trkpt>
<trkpt lat="52.948268" lon="-3.315834"><ele>637</ele><time>2022-04-15T12:50:40Z</time><name>PT3434</name></trkpt>
<trkpt lat="52.948265" lon="-3.315842"><ele>637</ele><time>2022-04-15T12:50:46Z</time><name>PT3435</name></trkpt>
<trkpt lat="52.948263" lon="-3.315844"><ele>637</ele><time>2022-04-15T12:50:47Z</time><name>PT3436</name></trkpt>
<trkpt lat="52.948262" lon="-3.315846"><ele>637</ele><time>2022-04-15T12:50:48Z</time><name>PT3437</name></trkpt>
<trkpt lat="52.948260" lon="-3.315848"><ele>636</ele><time>2022-04-15T12:50:49Z</time><name>PT3438</name></trkpt>
<trkpt lat="52.948261" lon="-3.315850"><ele>636</ele><time>2022-04-15T12:50:57Z</time><name>PT3439</name></trkpt>
<trkpt lat="52.948259" lon="-3.315849"><ele>636</ele><time>2022-04-15T12:50:58Z</time><name>PT3440</name></trkpt>
<trkpt lat="52.948255" lon="-3.315860"><ele>636</ele><time>2022-04-15T12:51:38Z</time><name>PT3441</name></trkpt>
<trkpt lat="52.948252" lon="-3.315861"><ele>636</ele><time>2022-04-15T12:51:39Z</time><name>PT3442</name></trkpt>
<trkpt lat="52.948248" lon="-3.315862"><ele>636</ele><time>2022-04-15T12:51:40Z</time><name>PT3443</name></trkpt>
<trkpt lat="52.948245" lon="-3.315865"><ele>636</ele><time>2022-04-15T12:51:41Z</time><name>PT3444</name></trkpt>
<trkpt lat="52.948245" lon="-3.315867"><ele>636</ele><time>2022-04-15T12:51:42Z</time><name>PT3445</name></trkpt>
<trkpt lat="52.948244" lon="-3.315867"><ele>636</ele><time>2022-04-15T12:51:43Z</time><name>PT3446</name></trkpt>
<trkpt lat="52.948243" lon="-3.315870"><ele>637</ele><time>2022-04-15T12:51:44Z</time><name>PT3447</name></trkpt>
<trkpt lat="52.948244" lon="-3.315866"><ele>637</ele><time>2022-04-15T12:51:58Z</time><name>PT3448</name></trkpt>
<trkpt lat="52.948243" lon="-3.315863"><ele>637</ele><time>2022-04-15T12:51:59Z</time><name>PT3449</name></trkpt>
<trkpt lat="52.948243" lon="-3.315864"><ele>637</ele><time>2022-04-15T12:52:00Z</time><name>PT3450</name></trkpt>
<trkpt lat="52.948245" lon="-3.315862"><ele>637</ele><time>2022-04-15T12:52:01Z</time><name>PT3451</name></trkpt>
<trkpt lat="52.948245" lon="-3.315860"><ele>637</ele><time>2022-04-15T12:52:02Z</time><name>PT3452</name></trkpt>
<trkpt lat="52.948244" lon="-3.315860"><ele>637</ele><time>2022-04-15T12:52:03Z</time><name>PT3453</name></trkpt>
<trkpt lat="52.948240" lon="-3.315872"><ele>637</ele><time>2022-04-15T12:53:24Z</time><name>PT3454</name></trkpt>
<trkpt lat="52.948240" lon="-3.315877"><ele>636</ele><time>2022-04-15T12:53:25Z</time><name>PT3455</name></trkpt>
<trkpt lat="52.948239" lon="-3.315879"><ele>636</ele><time>2022-04-15T12:53:26Z</time><name>PT3456</name></trkpt>
<trkpt lat="52.948244" lon="-3.315882"><ele>636</ele><time>2022-04-15T12:53:33Z</time><name>PT3457</name></trkpt>
<trkpt lat="52.948243" lon="-3.315883"><ele>636</ele><time>2022-04-15T12:53:34Z</time><name>PT3458</name></trkpt>
<trkpt lat="52.948242" lon="-3.315881"><ele>636</ele><time>2022-04-15T12:54:02Z</time><name>PT3459</name></trkpt>
<trkpt lat="52.948240" lon="-3.315881"><ele>636</ele><time>2022-04-15T12:54:06Z</time><name>PT3460</name></trkpt>
<trkpt lat="52.948237" lon="-3.315874"><ele>637</ele><time>2022-04-15T12:54:09Z</time><name>PT3461</name></trkpt>
<trkpt lat="52.948240" lon="-3.315836"><ele>636</ele><time>2022-04-15T12:54:13Z</time><name>PT3462</name></trkpt>
<trkpt lat="52.948232" lon="-3.315819"><ele>634</ele><time>2022-04-15T12:54:16Z</time><name>PT3463</name></trkpt>
<trkpt lat="52.948231" lon="-3.315783"><ele>634</ele><time>2022-04-15T12:54:19Z</time><name>PT3464</name></trkpt>
<trkpt lat="52.948209" lon="-3.315770"><ele>634</ele><time>2022-04-15T12:54:22Z</time><name>PT3465</name></trkpt>
<trkpt lat="52.948165" lon="-3.315761"><ele>634</ele><time>2022-04-15T12:54:26Z</time><name>PT3466</name></trkpt>
<trkpt lat="52.948132" lon="-3.315753"><ele>635</ele><time>2022-04-15T12:54:29Z</time><name>PT3467</name></trkpt>
<trkpt lat="52.948100" lon="-3.315752"><ele>635</ele><time>2022-04-15T12:54:32Z</time><name>PT3468</name></trkpt>
<trkpt lat="52.948067" lon="-3.315749"><ele>635</ele><time>2022-04-15T12:54:35Z</time><name>PT3469</name></trkpt>
<trkpt lat="52.948024" lon="-3.315750"><ele>635</ele><time>2022-04-15T12:54:39Z</time><name>PT3470</name></trkpt>
<trkpt lat="52.947999" lon="-3.315769"><ele>634</ele><time>2022-04-15T12:54:42Z</time><name>PT3471</name></trkpt>
<trkpt lat="52.947968" lon="-3.315796"><ele>634</ele><time>2022-04-15T12:54:46Z</time><name>PT3472</name></trkpt>
<trkpt lat="52.947947" lon="-3.315802"><ele>634</ele><time>2022-04-15T12:54:49Z</time><name>PT3473</name></trkpt>
<trkpt lat="52.947923" lon="-3.315780"><ele>634</ele><time>2022-04-15T12:54:53Z</time><name>PT3474</name></trkpt>
<trkpt lat="52.947903" lon="-3.315743"><ele>634</ele><time>2022-04-15T12:54:57Z</time><name>PT3475</name></trkpt>
<trkpt lat="52.947893" lon="-3.315703"><ele>634</ele><time>2022-04-15T12:55:00Z</time><name>PT3476</name></trkpt>
<trkpt lat="52.947876" lon="-3.315660"><ele>634</ele><time>2022-04-15T12:55:04Z</time><name>PT3477</name></trkpt>
<trkpt lat="52.947863" lon="-3.315601"><ele>634</ele><time>2022-04-15T12:55:08Z</time><name>PT3478</name></trkpt>
<trkpt lat="52.947846" lon="-3.315573"><ele>633</ele><time>2022-04-15T12:55:11Z</time><name>PT3479</name></trkpt>
<trkpt lat="52.947825" lon="-3.315536"><ele>634</ele><time>2022-04-15T12:55:14Z</time><name>PT3480</name></trkpt>
<trkpt lat="52.947795" lon="-3.315490"><ele>634</ele><time>2022-04-15T12:55:18Z</time><name>PT3481</name></trkpt>
<trkpt lat="52.947764" lon="-3.315444"><ele>633</ele><time>2022-04-15T12:55:22Z</time><name>PT3482</name></trkpt>
<trkpt lat="52.947745" lon="-3.315434"><ele>634</ele><time>2022-04-15T12:55:25Z</time><name>PT3483</name></trkpt>
<trkpt lat="52.947709" lon="-3.315411"><ele>635</ele><time>2022-04-15T12:55:29Z</time><name>PT3484</name></trkpt>
<trkpt lat="52.947678" lon="-3.315406"><ele>634</ele><time>2022-04-15T12:55:32Z</time><name>PT3485</name></trkpt>
<trkpt lat="52.947640" lon="-3.315400"><ele>633</ele><time>2022-04-15T12:55:36Z</time><name>PT3486</name></trkpt>
<trkpt lat="52.947619" lon="-3.315401"><ele>633</ele><time>2022-04-15T12:55:39Z</time><name>PT3487</name></trkpt>
<trkpt lat="52.947607" lon="-3.315403"><ele>633</ele><time>2022-04-15T12:55:43Z</time><name>PT3488</name></trkpt>
<trkpt lat="52.947607" lon="-3.315400"><ele>633</ele><time>2022-04-15T12:55:54Z</time><name>PT3489</name></trkpt>
<trkpt lat="52.947588" lon="-3.315381"><ele>633</ele><time>2022-04-15T12:55:58Z</time><name>PT3490</name></trkpt>
<trkpt lat="52.947583" lon="-3.315383"><ele>633</ele><time>2022-04-15T12:56:02Z</time><name>PT3491</name></trkpt>
<trkpt lat="52.947551" lon="-3.315353"><ele>633</ele><time>2022-04-15T12:56:08Z</time><name>PT3492</name></trkpt>
<trkpt lat="52.947509" lon="-3.315323"><ele>632</ele><time>2022-04-15T12:56:12Z</time><name>PT3493</name></trkpt>
<trkpt lat="52.947475" lon="-3.315292"><ele>632</ele><time>2022-04-15T12:56:16Z</time><name>PT3494</name></trkpt>
<trkpt lat="52.947444" lon="-3.315265"><ele>632</ele><time>2022-04-15T12:56:20Z</time><name>PT3495</name></trkpt>
<trkpt lat="52.947419" lon="-3.315251"><ele>632</ele><time>2022-04-15T12:56:23Z</time><name>PT3496</name></trkpt>
<trkpt lat="52.947392" lon="-3.315231"><ele>630</ele><time>2022-04-15T12:56:27Z</time><name>PT3497</name></trkpt>
<trkpt lat="52.947369" lon="-3.315184"><ele>631</ele><time>2022-04-15T12:56:31Z</time><name>PT3498</name></trkpt>
<trkpt lat="52.947347" lon="-3.315122"><ele>630</ele><time>2022-04-15T12:56:35Z</time><name>PT3499</name></trkpt>
<trkpt lat="52.947323" lon="-3.315084"><ele>629</ele><time>2022-04-15T12:56:38Z</time><name>PT3500</name></trkpt>
<trkpt lat="52.947298" lon="-3.315043"><ele>630</ele><time>2022-04-15T12:56:41Z</time><name>PT3501</name></trkpt>
<trkpt lat="52.947264" lon="-3.315001"><ele>631</ele><time>2022-04-15T12:56:45Z</time><name>PT3502</name></trkpt>
<trkpt lat="52.947239" lon="-3.314972"><ele>632</ele><time>2022-04-15T12:56:48Z</time><name>PT3503</name></trkpt>
<trkpt lat="52.947206" lon="-3.314926"><ele>632</ele><time>2022-04-15T12:56:52Z</time><name>PT3504</name></trkpt>
<trkpt lat="52.947191" lon="-3.314897"><ele>631</ele><time>2022-04-15T12:56:55Z</time><name>PT3505</name></trkpt>
<trkpt lat="52.947177" lon="-3.314864"><ele>632</ele><time>2022-04-15T12:56:59Z</time><name>PT3506</name></trkpt>
<trkpt lat="52.947156" lon="-3.314815"><ele>631</ele><time>2022-04-15T12:57:03Z</time><name>PT3507</name></trkpt>
<trkpt lat="52.947142" lon="-3.314772"><ele>632</ele><time>2022-04-15T12:57:06Z</time><name>PT3508</name></trkpt>
<trkpt lat="52.947114" lon="-3.314724"><ele>633</ele><time>2022-04-15T12:57:10Z</time><name>PT3509</name></trkpt>
<trkpt lat="52.947092" lon="-3.314686"><ele>632</ele><time>2022-04-15T12:57:13Z</time><name>PT3510</name></trkpt>
<trkpt lat="52.947064" lon="-3.314626"><ele>632</ele><time>2022-04-15T12:57:17Z</time><name>PT3511</name></trkpt>
<trkpt lat="52.947042" lon="-3.314587"><ele>632</ele><time>2022-04-15T12:57:20Z</time><name>PT3512</name></trkpt>
<trkpt lat="52.947005" lon="-3.314527"><ele>632</ele><time>2022-04-15T12:57:24Z</time><name>PT3513</name></trkpt>
<trkpt lat="52.946968" lon="-3.314479"><ele>631</ele><time>2022-04-15T12:57:28Z</time><name>PT3514</name></trkpt>
<trkpt lat="52.946940" lon="-3.314427"><ele>630</ele><time>2022-04-15T12:57:31Z</time><name>PT3515</name></trkpt>
<trkpt lat="52.946912" lon="-3.314356"><ele>630</ele><time>2022-04-15T12:57:35Z</time><name>PT3516</name></trkpt>
<trkpt lat="52.946889" lon="-3.314280"><ele>631</ele><time>2022-04-15T12:57:39Z</time><name>PT3517</name></trkpt>
<trkpt lat="52.946877" lon="-3.314233"><ele>630</ele><time>2022-04-15T12:57:42Z</time><name>PT3518</name></trkpt>
<trkpt lat="52.946866" lon="-3.314183"><ele>630</ele><time>2022-04-15T12:57:45Z</time><name>PT3519</name></trkpt>
<trkpt lat="52.946848" lon="-3.314097"><ele>630</ele><time>2022-04-15T12:57:49Z</time><name>PT3520</name></trkpt>
<trkpt lat="52.946837" lon="-3.314029"><ele>628</ele><time>2022-04-15T12:57:53Z</time><name>PT3521</name></trkpt>
<trkpt lat="52.946826" lon="-3.313965"><ele>628</ele><time>2022-04-15T12:57:56Z</time><name>PT3522</name></trkpt>
<trkpt lat="52.946816" lon="-3.313894"><ele>627</ele><time>2022-04-15T12:58:00Z</time><name>PT3523</name></trkpt>
<trkpt lat="52.946806" lon="-3.313825"><ele>626</ele><time>2022-04-15T12:58:04Z</time><name>PT3524</name></trkpt>
<trkpt lat="52.946796" lon="-3.313770"><ele>625</ele><time>2022-04-15T12:58:07Z</time><name>PT3525</name></trkpt>
<trkpt lat="52.946781" lon="-3.313671"><ele>626</ele><time>2022-04-15T12:58:11Z</time><name>PT3526</name></trkpt>
<trkpt lat="52.946774" lon="-3.313611"><ele>626</ele><time>2022-04-15T12:58:14Z</time><name>PT3527</name></trkpt>
<trkpt lat="52.946765" lon="-3.313531"><ele>625</ele><time>2022-04-15T12:58:18Z</time><name>PT3528</name></trkpt>
<trkpt lat="52.946759" lon="-3.313464"><ele>625</ele><time>2022-04-15T12:58:22Z</time><name>PT3529</name></trkpt>
<trkpt lat="52.946751" lon="-3.313422"><ele>624</ele><time>2022-04-15T12:58:26Z</time><name>PT3530</name></trkpt>
<trkpt lat="52.946739" lon="-3.313358"><ele>623</ele><time>2022-04-15T12:58:29Z</time><name>PT3531</name></trkpt>
<trkpt lat="52.946730" lon="-3.313301"><ele>623</ele><time>2022-04-15T12:58:32Z</time><name>PT3532</name></trkpt>
<trkpt lat="52.946721" lon="-3.313240"><ele>623</ele><time>2022-04-15T12:58:35Z</time><name>PT3533</name></trkpt>
<trkpt lat="52.946712" lon="-3.313167"><ele>622</ele><time>2022-04-15T12:58:39Z</time><name>PT3534</name></trkpt>
<trkpt lat="52.946704" lon="-3.313109"><ele>622</ele><time>2022-04-15T12:58:42Z</time><name>PT3535</name></trkpt>
<trkpt lat="52.946696" lon="-3.313052"><ele>622</ele><time>2022-04-15T12:58:45Z</time><name>PT3536</name></trkpt>
<trkpt lat="52.946685" lon="-3.312967"><ele>621</ele><time>2022-04-15T12:58:49Z</time><name>PT3537</name></trkpt>
<trkpt lat="52.946674" lon="-3.312891"><ele>622</ele><time>2022-04-15T12:58:53Z</time><name>PT3538</name></trkpt>
<trkpt lat="52.946663" lon="-3.312812"><ele>622</ele><time>2022-04-15T12:58:57Z</time><name>PT3539</name></trkpt>
<trkpt lat="52.946656" lon="-3.312760"><ele>621</ele><time>2022-04-15T12:59:00Z</time><name>PT3540</name></trkpt>
<trkpt lat="52.946643" lon="-3.312674"><ele>620</ele><time>2022-04-15T12:59:04Z</time><name>PT3541</name></trkpt>
<trkpt lat="52.946634" lon="-3.312614"><ele>619</ele><time>2022-04-15T12:59:07Z</time><name>PT3542</name></trkpt>
<trkpt lat="52.946621" lon="-3.312536"><ele>618</ele><time>2022-04-15T12:59:11Z</time><name>PT3543</name></trkpt>
<trkpt lat="52.946611" lon="-3.312449"><ele>618</ele><time>2022-04-15T12:59:15Z</time><name>PT3544</name></trkpt>
<trkpt lat="52.946603" lon="-3.312390"><ele>617</ele><time>2022-04-15T12:59:18Z</time><name>PT3545</name></trkpt>
<trkpt lat="52.946590" lon="-3.312317"><ele>615</ele><time>2022-04-15T12:59:22Z</time><name>PT3546</name></trkpt>
<trkpt lat="52.946582" lon="-3.312257"><ele>615</ele><time>2022-04-15T12:59:25Z</time><name>PT3547</name></trkpt>
<trkpt lat="52.946580" lon="-3.312173"><ele>614</ele><time>2022-04-15T12:59:29Z</time><name>PT3548</name></trkpt>
<trkpt lat="52.946571" lon="-3.312115"><ele>614</ele><time>2022-04-15T12:59:32Z</time><name>PT3549</name></trkpt>
<trkpt lat="52.946568" lon="-3.312047"><ele>614</ele><time>2022-04-15T12:59:36Z</time><name>PT3550</name></trkpt>
<trkpt lat="52.946561" lon="-3.311971"><ele>613</ele><time>2022-04-15T12:59:40Z</time><name>PT3551</name></trkpt>
<trkpt lat="52.946554" lon="-3.311896"><ele>612</ele><time>2022-04-15T12:59:44Z</time><name>PT3552</name></trkpt>
<trkpt lat="52.946546" lon="-3.311834"><ele>612</ele><time>2022-04-15T12:59:47Z</time><name>PT3553</name></trkpt>
<trkpt lat="52.946544" lon="-3.311778"><ele>612</ele><time>2022-04-15T12:59:50Z</time><name>PT3554</name></trkpt>
<trkpt lat="52.946541" lon="-3.311700"><ele>611</ele><time>2022-04-15T12:59:54Z</time><name>PT3555</name></trkpt>
<trkpt lat="52.946542" lon="-3.311650"><ele>610</ele><time>2022-04-15T12:59:57Z</time><name>PT3556</name></trkpt>
<trkpt lat="52.946541" lon="-3.311605"><ele>610</ele><time>2022-04-15T13:00:00Z</time><name>PT3557</name></trkpt>
<trkpt lat="52.946537" lon="-3.311542"><ele>609</ele><time>2022-04-15T13:00:04Z</time><name>PT3558</name></trkpt>
<trkpt lat="52.946539" lon="-3.311467"><ele>608</ele><time>2022-04-15T13:00:08Z</time><name>PT3559</name></trkpt>
<trkpt lat="52.946540" lon="-3.311395"><ele>607</ele><time>2022-04-15T13:00:12Z</time><name>PT3560</name></trkpt>
<trkpt lat="52.946541" lon="-3.311336"><ele>606</ele><time>2022-04-15T13:00:16Z</time><name>PT3561</name></trkpt>
<trkpt lat="52.946539" lon="-3.311290"><ele>604</ele><time>2022-04-15T13:00:19Z</time><name>PT3562</name></trkpt>
<trkpt lat="52.946534" lon="-3.311219"><ele>603</ele><time>2022-04-15T13:00:23Z</time><name>PT3563</name></trkpt>
<trkpt lat="52.946528" lon="-3.311153"><ele>601</ele><time>2022-04-15T13:00:27Z</time><name>PT3564</name></trkpt>
<trkpt lat="52.946524" lon="-3.311099"><ele>600</ele><time>2022-04-15T13:00:30Z</time><name>PT3565</name></trkpt>
<trkpt lat="52.946532" lon="-3.311025"><ele>600</ele><time>2022-04-15T13:00:34Z</time><name>PT3566</name></trkpt>
<trkpt lat="52.946530" lon="-3.310955"><ele>599</ele><time>2022-04-15T13:00:38Z</time><name>PT3567</name></trkpt>
<trkpt lat="52.946527" lon="-3.310897"><ele>598</ele><time>2022-04-15T13:00:41Z</time><name>PT3568</name></trkpt>
<trkpt lat="52.946528" lon="-3.310828"><ele>598</ele><time>2022-04-15T13:00:45Z</time><name>PT3569</name></trkpt>
<trkpt lat="52.946530" lon="-3.310763"><ele>597</ele><time>2022-04-15T13:00:49Z</time><name>PT3570</name></trkpt>
<trkpt lat="52.946534" lon="-3.310714"><ele>597</ele><time>2022-04-15T13:00:52Z</time><name>PT3571</name></trkpt>
<trkpt lat="52.946532" lon="-3.310636"><ele>596</ele><time>2022-04-15T13:00:56Z</time><name>PT3572</name></trkpt>
<trkpt lat="52.946533" lon="-3.310567"><ele>595</ele><time>2022-04-15T13:01:00Z</time><name>PT3573</name></trkpt>
<trkpt lat="52.946530" lon="-3.310508"><ele>595</ele><time>2022-04-15T13:01:03Z</time><name>PT3574</name></trkpt>
<trkpt lat="52.946526" lon="-3.310428"><ele>595</ele><time>2022-04-15T13:01:07Z</time><name>PT3575</name></trkpt>
<trkpt lat="52.946520" lon="-3.310340"><ele>594</ele><time>2022-04-15T13:01:11Z</time><name>PT3576</name></trkpt>
<trkpt lat="52.946522" lon="-3.310274"><ele>594</ele><time>2022-04-15T13:01:14Z</time><name>PT3577</name></trkpt>
<trkpt lat="52.946522" lon="-3.310209"><ele>593</ele><time>2022-04-15T13:01:17Z</time><name>PT3578</name></trkpt>
<trkpt lat="52.946513" lon="-3.310120"><ele>591</ele><time>2022-04-15T13:01:21Z</time><name>PT3579</name></trkpt>
<trkpt lat="52.946520" lon="-3.310055"><ele>592</ele><time>2022-04-15T13:01:24Z</time><name>PT3580</name></trkpt>
<trkpt lat="52.946519" lon="-3.309966"><ele>591</ele><time>2022-04-15T13:01:28Z</time><name>PT3581</name></trkpt>
<trkpt lat="52.946519" lon="-3.309901"><ele>590</ele><time>2022-04-15T13:01:31Z</time><name>PT3582</name></trkpt>
<trkpt lat="52.946522" lon="-3.309827"><ele>590</ele><time>2022-04-15T13:01:35Z</time><name>PT3583</name></trkpt>
<trkpt lat="52.946515" lon="-3.309746"><ele>590</ele><time>2022-04-15T13:01:39Z</time><name>PT3584</name></trkpt>
<trkpt lat="52.946513" lon="-3.309693"><ele>589</ele><time>2022-04-15T13:01:42Z</time><name>PT3585</name></trkpt>
<trkpt lat="52.946518" lon="-3.309613"><ele>588</ele><time>2022-04-15T13:01:46Z</time><name>PT3586</name></trkpt>
<trkpt lat="52.946513" lon="-3.309559"><ele>587</ele><time>2022-04-15T13:01:49Z</time><name>PT3587</name></trkpt>
<trkpt lat="52.946510" lon="-3.309480"><ele>586</ele><time>2022-04-15T13:01:53Z</time><name>PT3588</name></trkpt>
<trkpt lat="52.946502" lon="-3.309417"><ele>585</ele><time>2022-04-15T13:01:56Z</time><name>PT3589</name></trkpt>
<trkpt lat="52.946501" lon="-3.309336"><ele>585</ele><time>2022-04-15T13:02:00Z</time><name>PT3590</name></trkpt>
<trkpt lat="52.946502" lon="-3.309268"><ele>584</ele><time>2022-04-15T13:02:04Z</time><name>PT3591</name></trkpt>
<trkpt lat="52.946502" lon="-3.309210"><ele>584</ele><time>2022-04-15T13:02:07Z</time><name>PT3592</name></trkpt>
<trkpt lat="52.946500" lon="-3.309150"><ele>584</ele><time>2022-04-15T13:02:10Z</time><name>PT3593</name></trkpt>
<trkpt lat="52.946504" lon="-3.309069"><ele>584</ele><time>2022-04-15T13:02:14Z</time><name>PT3594</name></trkpt>
<trkpt lat="52.946498" lon="-3.309011"><ele>584</ele><time>2022-04-15T13:02:17Z</time><name>PT3595</name></trkpt>
<trkpt lat="52.946496" lon="-3.308930"><ele>583</ele><time>2022-04-15T13:02:21Z</time><name>PT3596</name></trkpt>
<trkpt lat="52.946489" lon="-3.308853"><ele>582</ele><time>2022-04-15T13:02:25Z</time><name>PT3597</name></trkpt>
<trkpt lat="52.946493" lon="-3.308776"><ele>582</ele><time>2022-04-15T13:02:29Z</time><name>PT3598</name></trkpt>
<trkpt lat="52.946480" lon="-3.308707"><ele>582</ele><time>2022-04-15T13:02:33Z</time><name>PT3599</name></trkpt>
<trkpt lat="52.946462" lon="-3.308626"><ele>581</ele><time>2022-04-15T13:02:37Z</time><name>PT3600</name></trkpt>
<trkpt lat="52.946457" lon="-3.308561"><ele>582</ele><time>2022-04-15T13:02:40Z</time><name>PT3601</name></trkpt>
<trkpt lat="52.946450" lon="-3.308474"><ele>581</ele><time>2022-04-15T13:02:44Z</time><name>PT3602</name></trkpt>
<trkpt lat="52.946447" lon="-3.308407"><ele>582</ele><time>2022-04-15T13:02:47Z</time><name>PT3603</name></trkpt>
<trkpt lat="52.946440" lon="-3.308324"><ele>581</ele><time>2022-04-15T13:02:51Z</time><name>PT3604</name></trkpt>
<trkpt lat="52.946426" lon="-3.308238"><ele>580</ele><time>2022-04-15T13:02:55Z</time><name>PT3605</name></trkpt>
<trkpt lat="52.946407" lon="-3.308172"><ele>580</ele><time>2022-04-15T13:02:58Z</time><name>PT3606</name></trkpt>
<trkpt lat="52.946397" lon="-3.308079"><ele>580</ele><time>2022-04-15T13:03:02Z</time><name>PT3607</name></trkpt>
<trkpt lat="52.946375" lon="-3.307996"><ele>579</ele><time>2022-04-15T13:03:06Z</time><name>PT3608</name></trkpt>
<trkpt lat="52.946363" lon="-3.307919"><ele>580</ele><time>2022-04-15T13:03:10Z</time><name>PT3609</name></trkpt>
<trkpt lat="52.946353" lon="-3.307863"><ele>579</ele><time>2022-04-15T13:03:13Z</time><name>PT3610</name></trkpt>
<trkpt lat="52.946347" lon="-3.307794"><ele>579</ele><time>2022-04-15T13:03:17Z</time><name>PT3611</name></trkpt>
<trkpt lat="52.946336" lon="-3.307742"><ele>579</ele><time>2022-04-15T13:03:20Z</time><name>PT3612</name></trkpt>
<trkpt lat="52.946305" lon="-3.307676"><ele>579</ele><time>2022-04-15T13:03:24Z</time><name>PT3613</name></trkpt>
<trkpt lat="52.946287" lon="-3.307591"><ele>579</ele><time>2022-04-15T13:03:28Z</time><name>PT3614</name></trkpt>
<trkpt lat="52.946273" lon="-3.307530"><ele>578</ele><time>2022-04-15T13:03:31Z</time><name>PT3615</name></trkpt>
<trkpt lat="52.946260" lon="-3.307449"><ele>578</ele><time>2022-04-15T13:03:35Z</time><name>PT3616</name></trkpt>
<trkpt lat="52.946246" lon="-3.307393"><ele>578</ele><time>2022-04-15T13:03:38Z</time><name>PT3617</name></trkpt>
<trkpt lat="52.946233" lon="-3.307309"><ele>579</ele><time>2022-04-15T13:03:42Z</time><name>PT3618</name></trkpt>
<trkpt lat="52.946219" lon="-3.307246"><ele>580</ele><time>2022-04-15T13:03:46Z</time><name>PT3619</name></trkpt>
<trkpt lat="52.946201" lon="-3.307211"><ele>580</ele><time>2022-04-15T13:03:49Z</time><name>PT3620</name></trkpt>
<trkpt lat="52.946182" lon="-3.307139"><ele>580</ele><time>2022-04-15T13:03:53Z</time><name>PT3621</name></trkpt>
<trkpt lat="52.946162" lon="-3.307065"><ele>580</ele><time>2022-04-15T13:03:57Z</time><name>PT3622</name></trkpt>
<trkpt lat="52.946153" lon="-3.306982"><ele>580</ele><time>2022-04-15T13:04:01Z</time><name>PT3623</name></trkpt>
<trkpt lat="52.946140" lon="-3.306922"><ele>579</ele><time>2022-04-15T13:04:04Z</time><name>PT3624</name></trkpt>
<trkpt lat="52.946123" lon="-3.306843"><ele>579</ele><time>2022-04-15T13:04:08Z</time><name>PT3625</name></trkpt>
<trkpt lat="52.946105" lon="-3.306790"><ele>578</ele><time>2022-04-15T13:04:11Z</time><name>PT3626</name></trkpt>
<trkpt lat="52.946097" lon="-3.306732"><ele>578</ele><time>2022-04-15T13:04:14Z</time><name>PT3627</name></trkpt>
<trkpt lat="52.946087" lon="-3.306678"><ele>578</ele><time>2022-04-15T13:04:17Z</time><name>PT3628</name></trkpt>
<trkpt lat="52.946079" lon="-3.306661"><ele>578</ele><time>2022-04-15T13:04:18Z</time><name>PT3629</name></trkpt>
<trkpt lat="52.946071" lon="-3.306643"><ele>578</ele><time>2022-04-15T13:04:19Z</time><name>PT3630</name></trkpt>
<trkpt lat="52.946068" lon="-3.306628"><ele>578</ele><time>2022-04-15T13:04:20Z</time><name>PT3631</name></trkpt>
<trkpt lat="52.946064" lon="-3.306607"><ele>578</ele><time>2022-04-15T13:04:21Z</time><name>PT3632</name></trkpt>
<trkpt lat="52.946060" lon="-3.306586"><ele>578</ele><time>2022-04-15T13:04:22Z</time><name>PT3633</name></trkpt>
<trkpt lat="52.946055" lon="-3.306566"><ele>578</ele><time>2022-04-15T13:04:23Z</time><name>PT3634</name></trkpt>
<trkpt lat="52.946045" lon="-3.306553"><ele>578</ele><time>2022-04-15T13:04:24Z</time><name>PT3635</name></trkpt>
<trkpt lat="52.946038" lon="-3.306535"><ele>577</ele><time>2022-04-15T13:04:25Z</time><name>PT3636</name></trkpt>
<trkpt lat="52.946033" lon="-3.306507"><ele>577</ele><time>2022-04-15T13:04:26Z</time><name>PT3637</name></trkpt>
<trkpt lat="52.946026" lon="-3.306487"><ele>577</ele><time>2022-04-15T13:04:27Z</time><name>PT3638</name></trkpt>
<trkpt lat="52.946021" lon="-3.306470"><ele>577</ele><time>2022-04-15T13:04:28Z</time><name>PT3639</name></trkpt>
<trkpt lat="52.946015" lon="-3.306452"><ele>577</ele><time>2022-04-15T13:04:29Z</time><name>PT3640</name></trkpt>
<trkpt lat="52.946011" lon="-3.306432"><ele>577</ele><time>2022-04-15T13:04:30Z</time><name>PT3641</name></trkpt>
<trkpt lat="52.946007" lon="-3.306415"><ele>577</ele><time>2022-04-15T13:04:31Z</time><name>PT3642</name></trkpt>
<trkpt lat="52.946000" lon="-3.306400"><ele>577</ele><time>2022-04-15T13:04:32Z</time><name>PT3643</name></trkpt>
<trkpt lat="52.945993" lon="-3.306384"><ele>577</ele><time>2022-04-15T13:04:33Z</time><name>PT3644</name></trkpt>
<trkpt lat="52.945987" lon="-3.306366"><ele>576</ele><time>2022-04-15T13:04:34Z</time><name>PT3645</name></trkpt>
<trkpt lat="52.945979" lon="-3.306352"><ele>576</ele><time>2022-04-15T13:04:35Z</time><name>PT3646</name></trkpt>
<trkpt lat="52.945971" lon="-3.306338"><ele>577</ele><time>2022-04-15T13:04:36Z</time><name>PT3647</name></trkpt>
<trkpt lat="52.945966" lon="-3.306321"><ele>576</ele><time>2022-04-15T13:04:37Z</time><name>PT3648</name></trkpt>
<trkpt lat="52.945962" lon="-3.306302"><ele>576</ele><time>2022-04-15T13:04:38Z</time><name>PT3649</name></trkpt>
<trkpt lat="52.945958" lon="-3.306284"><ele>576</ele><time>2022-04-15T13:04:39Z</time><name>PT3650</name></trkpt>
<trkpt lat="52.945954" lon="-3.306265"><ele>576</ele><time>2022-04-15T13:04:40Z</time><name>PT3651</name></trkpt>
<trkpt lat="52.945950" lon="-3.306246"><ele>576</ele><time>2022-04-15T13:04:41Z</time><name>PT3652</name></trkpt>
<trkpt lat="52.945944" lon="-3.306227"><ele>576</ele><time>2022-04-15T13:04:42Z</time><name>PT3653</name></trkpt>
<trkpt lat="52.945938" lon="-3.306207"><ele>577</ele><time>2022-04-15T13:04:43Z</time><name>PT3654</name></trkpt>
<trkpt lat="52.945931" lon="-3.306187"><ele>576</ele><time>2022-04-15T13:04:44Z</time><name>PT3655</name></trkpt>
<trkpt lat="52.945926" lon="-3.306168"><ele>577</ele><time>2022-04-15T13:04:45Z</time><name>PT3656</name></trkpt>
<trkpt lat="52.945921" lon="-3.306147"><ele>577</ele><time>2022-04-15T13:04:46Z</time><name>PT3657</name></trkpt>
<trkpt lat="52.945914" lon="-3.306128"><ele>576</ele><time>2022-04-15T13:04:47Z</time><name>PT3658</name></trkpt>
<trkpt lat="52.945906" lon="-3.306112"><ele>576</ele><time>2022-04-15T13:04:48Z</time><name>PT3659</name></trkpt>
<trkpt lat="52.945898" lon="-3.306093"><ele>576</ele><time>2022-04-15T13:04:49Z</time><name>PT3660</name></trkpt>
<trkpt lat="52.945890" lon="-3.306075"><ele>576</ele><time>2022-04-15T13:04:50Z</time><name>PT3661</name></trkpt>
<trkpt lat="52.945883" lon="-3.306058"><ele>576</ele><time>2022-04-15T13:04:51Z</time><name>PT3662</name></trkpt>
<trkpt lat="52.945876" lon="-3.306039"><ele>576</ele><time>2022-04-15T13:04:52Z</time><name>PT3663</name></trkpt>
<trkpt lat="52.945868" lon="-3.306021"><ele>576</ele><time>2022-04-15T13:04:53Z</time><name>PT3664</name></trkpt>
<trkpt lat="52.945860" lon="-3.306006"><ele>576</ele><time>2022-04-15T13:04:54Z</time><name>PT3665</name></trkpt>
<trkpt lat="52.945854" lon="-3.305986"><ele>576</ele><time>2022-04-15T13:04:55Z</time><name>PT3666</name></trkpt>
<trkpt lat="52.945850" lon="-3.305968"><ele>576</ele><time>2022-04-15T13:04:56Z</time><name>PT3667</name></trkpt>
<trkpt lat="52.945842" lon="-3.305947"><ele>576</ele><time>2022-04-15T13:04:57Z</time><name>PT3668</name></trkpt>
<trkpt lat="52.945826" lon="-3.305911"><ele>576</ele><time>2022-04-15T13:04:59Z</time><name>PT3669</name></trkpt>
<trkpt lat="52.945818" lon="-3.305894"><ele>576</ele><time>2022-04-15T13:05:00Z</time><name>PT3670</name></trkpt>
<trkpt lat="52.945811" lon="-3.305878"><ele>576</ele><time>2022-04-15T13:05:01Z</time><name>PT3671</name></trkpt>
<trkpt lat="52.945804" lon="-3.305867"><ele>576</ele><time>2022-04-15T13:05:03Z</time><name>PT3672</name></trkpt>
<trkpt lat="52.945799" lon="-3.305854"><ele>577</ele><time>2022-04-15T13:05:03Z</time><name>PT3673</name></trkpt>
<trkpt lat="52.945791" lon="-3.305836"><ele>576</ele><time>2022-04-15T13:05:04Z</time><name>PT3674</name></trkpt>
<trkpt lat="52.945783" lon="-3.305815"><ele>576</ele><time>2022-04-15T13:05:05Z</time><name>PT3675</name></trkpt>
<trkpt lat="52.945781" lon="-3.305797"><ele>576</ele><time>2022-04-15T13:05:06Z</time><name>PT3676</name></trkpt>
<trkpt lat="52.945779" lon="-3.305777"><ele>576</ele><time>2022-04-15T13:05:07Z</time><name>PT3677</name></trkpt>
<trkpt lat="52.945781" lon="-3.305760"><ele>576</ele><time>2022-04-15T13:05:08Z</time><name>PT3678</name></trkpt>
<trkpt lat="52.945781" lon="-3.305742"><ele>576</ele><time>2022-04-15T13:05:09Z</time><name>PT3679</name></trkpt>
<trkpt lat="52.945779" lon="-3.305722"><ele>576</ele><time>2022-04-15T13:05:10Z</time><name>PT3680</name></trkpt>
<trkpt lat="52.945772" lon="-3.305702"><ele>577</ele><time>2022-04-15T13:05:11Z</time><name>PT3681</name></trkpt>
<trkpt lat="52.945767" lon="-3.305682"><ele>577</ele><time>2022-04-15T13:05:12Z</time><name>PT3682</name></trkpt>
<trkpt lat="52.945760" lon="-3.305666"><ele>577</ele><time>2022-04-15T13:05:13Z</time><name>PT3683</name></trkpt>
<trkpt lat="52.945752" lon="-3.305650"><ele>577</ele><time>2022-04-15T13:05:14Z</time><name>PT3684</name></trkpt>
<trkpt lat="52.945744" lon="-3.305632"><ele>576</ele><time>2022-04-15T13:05:15Z</time><name>PT3685</name></trkpt>
<trkpt lat="52.945738" lon="-3.305617"><ele>576</ele><time>2022-04-15T13:05:16Z</time><name>PT3686</name></trkpt>
<trkpt lat="52.945734" lon="-3.305598"><ele>577</ele><time>2022-04-15T13:05:18Z</time><name>PT3687</name></trkpt>
<trkpt lat="52.945728" lon="-3.305579"><ele>577</ele><time>2022-04-15T13:05:18Z</time><name>PT3688</name></trkpt>
<trkpt lat="52.945720" lon="-3.305558"><ele>577</ele><time>2022-04-15T13:05:19Z</time><name>PT3689</name></trkpt>
<trkpt lat="52.945713" lon="-3.305541"><ele>576</ele><time>2022-04-15T13:05:20Z</time><name>PT3690</name></trkpt>
<trkpt lat="52.945706" lon="-3.305527"><ele>577</ele><time>2022-04-15T13:05:21Z</time><name>PT3691</name></trkpt>
<trkpt lat="52.945700" lon="-3.305510"><ele>577</ele><time>2022-04-15T13:05:22Z</time><name>PT3692</name></trkpt>
<trkpt lat="52.945691" lon="-3.305491"><ele>577</ele><time>2022-04-15T13:05:23Z</time><name>PT3693</name></trkpt>
<trkpt lat="52.945684" lon="-3.305474"><ele>577</ele><time>2022-04-15T13:05:24Z</time><name>PT3694</name></trkpt>
<trkpt lat="52.945678" lon="-3.305458"><ele>577</ele><time>2022-04-15T13:05:25Z</time><name>PT3695</name></trkpt>
<trkpt lat="52.945671" lon="-3.305437"><ele>577</ele><time>2022-04-15T13:05:26Z</time><name>PT3696</name></trkpt>
<trkpt lat="52.945662" lon="-3.305419"><ele>577</ele><time>2022-04-15T13:05:27Z</time><name>PT3697</name></trkpt>
<trkpt lat="52.945655" lon="-3.305400"><ele>577</ele><time>2022-04-15T13:05:28Z</time><name>PT3698</name></trkpt>
<trkpt lat="52.945648" lon="-3.305383"><ele>577</ele><time>2022-04-15T13:05:29Z</time><name>PT3699</name></trkpt>
<trkpt lat="52.945640" lon="-3.305366"><ele>577</ele><time>2022-04-15T13:05:30Z</time><name>PT3700</name></trkpt>
<trkpt lat="52.945631" lon="-3.305347"><ele>577</ele><time>2022-04-15T13:05:31Z</time><name>PT3701</name></trkpt>
<trkpt lat="52.945624" lon="-3.305329"><ele>577</ele><time>2022-04-15T13:05:32Z</time><name>PT3702</name></trkpt>
<trkpt lat="52.945619" lon="-3.305312"><ele>577</ele><time>2022-04-15T13:05:33Z</time><name>PT3703</name></trkpt>
<trkpt lat="52.945610" lon="-3.305291"><ele>577</ele><time>2022-04-15T13:05:34Z</time><name>PT3704</name></trkpt>
<trkpt lat="52.945602" lon="-3.305269"><ele>577</ele><time>2022-04-15T13:05:35Z</time><name>PT3705</name></trkpt>
<trkpt lat="52.945598" lon="-3.305254"><ele>577</ele><time>2022-04-15T13:05:36Z</time><name>PT3706</name></trkpt>
<trkpt lat="52.945593" lon="-3.305238"><ele>577</ele><time>2022-04-15T13:05:37Z</time><name>PT3707</name></trkpt>
<trkpt lat="52.945586" lon="-3.305218"><ele>577</ele><time>2022-04-15T13:05:38Z</time><name>PT3708</name></trkpt>
<trkpt lat="52.945581" lon="-3.305202"><ele>577</ele><time>2022-04-15T13:05:39Z</time><name>PT3709</name></trkpt>
<trkpt lat="52.945578" lon="-3.305182"><ele>578</ele><time>2022-04-15T13:05:40Z</time><name>PT3710</name></trkpt>
<trkpt lat="52.945571" lon="-3.305163"><ele>578</ele><time>2022-04-15T13:05:41Z</time><name>PT3711</name></trkpt>
<trkpt lat="52.945565" lon="-3.305146"><ele>578</ele><time>2022-04-15T13:05:42Z</time><name>PT3712</name></trkpt>
<trkpt lat="52.945560" lon="-3.305129"><ele>578</ele><time>2022-04-15T13:05:43Z</time><name>PT3713</name></trkpt>
<trkpt lat="52.945552" lon="-3.305109"><ele>578</ele><time>2022-04-15T13:05:44Z</time><name>PT3714</name></trkpt>
<trkpt lat="52.945546" lon="-3.305092"><ele>578</ele><time>2022-04-15T13:05:45Z</time><name>PT3715</name></trkpt>
<trkpt lat="52.945542" lon="-3.305074"><ele>578</ele><time>2022-04-15T13:05:46Z</time><name>PT3716</name></trkpt>
<trkpt lat="52.945537" lon="-3.305053"><ele>578</ele><time>2022-04-15T13:05:47Z</time><name>PT3717</name></trkpt>
<trkpt lat="52.945533" lon="-3.305037"><ele>578</ele><time>2022-04-15T13:05:48Z</time><name>PT3718</name></trkpt>
<trkpt lat="52.945525" lon="-3.305017"><ele>578</ele><time>2022-04-15T13:05:49Z</time><name>PT3719</name></trkpt>
<trkpt lat="52.945517" lon="-3.305000"><ele>578</ele><time>2022-04-15T13:05:50Z</time><name>PT3720</name></trkpt>
<trkpt lat="52.945511" lon="-3.304981"><ele>578</ele><time>2022-04-15T13:05:51Z</time><name>PT3721</name></trkpt>
<trkpt lat="52.945506" lon="-3.304961"><ele>578</ele><time>2022-04-15T13:05:52Z</time><name>PT3722</name></trkpt>
<trkpt lat="52.945501" lon="-3.304945"><ele>578</ele><time>2022-04-15T13:05:53Z</time><name>PT3723</name></trkpt>
<trkpt lat="52.945495" lon="-3.304925"><ele>578</ele><time>2022-04-15T13:05:54Z</time><name>PT3724</name></trkpt>
<trkpt lat="52.945489" lon="-3.304905"><ele>578</ele><time>2022-04-15T13:05:55Z</time><name>PT3725</name></trkpt>
<trkpt lat="52.945484" lon="-3.304890"><ele>578</ele><time>2022-04-15T13:05:56Z</time><name>PT3726</name></trkpt>
<trkpt lat="52.945478" lon="-3.304873"><ele>578</ele><time>2022-04-15T13:05:57Z</time><name>PT3727</name></trkpt>
<trkpt lat="52.945472" lon="-3.304851"><ele>578</ele><time>2022-04-15T13:05:58Z</time><name>PT3728</name></trkpt>
<trkpt lat="52.945467" lon="-3.304831"><ele>578</ele><time>2022-04-15T13:05:59Z</time><name>PT3729</name></trkpt>
<trkpt lat="52.945463" lon="-3.304814"><ele>578</ele><time>2022-04-15T13:06:00Z</time><name>PT3730</name></trkpt>
<trkpt lat="52.945457" lon="-3.304795"><ele>578</ele><time>2022-04-15T13:06:01Z</time><name>PT3731</name></trkpt>
<trkpt lat="52.945451" lon="-3.304781"><ele>578</ele><time>2022-04-15T13:06:02Z</time><name>PT3732</name></trkpt>
<trkpt lat="52.945445" lon="-3.304762"><ele>578</ele><time>2022-04-15T13:06:03Z</time><name>PT3733</name></trkpt>
<trkpt lat="52.945436" lon="-3.304745"><ele>578</ele><time>2022-04-15T13:06:04Z</time><name>PT3734</name></trkpt>
<trkpt lat="52.945429" lon="-3.304727"><ele>578</ele><time>2022-04-15T13:06:05Z</time><name>PT3735</name></trkpt>
<trkpt lat="52.945423" lon="-3.304708"><ele>578</ele><time>2022-04-15T13:06:06Z</time><name>PT3736</name></trkpt>
<trkpt lat="52.945416" lon="-3.304690"><ele>578</ele><time>2022-04-15T13:06:07Z</time><name>PT3737</name></trkpt>
<trkpt lat="52.945408" lon="-3.304672"><ele>578</ele><time>2022-04-15T13:06:08Z</time><name>PT3738</name></trkpt>
<trkpt lat="52.945398" lon="-3.304657"><ele>578</ele><time>2022-04-15T13:06:09Z</time><name>PT3739</name></trkpt>
<trkpt lat="52.945387" lon="-3.304646"><ele>578</ele><time>2022-04-15T13:06:10Z</time><name>PT3740</name></trkpt>
<trkpt lat="52.945377" lon="-3.304629"><ele>578</ele><time>2022-04-15T13:06:11Z</time><name>PT3741</name></trkpt>
<trkpt lat="52.945371" lon="-3.304613"><ele>577</ele><time>2022-04-15T13:06:12Z</time><name>PT3742</name></trkpt>
<trkpt lat="52.945363" lon="-3.304595"><ele>577</ele><time>2022-04-15T13:06:13Z</time><name>PT3743</name></trkpt>
<trkpt lat="52.945356" lon="-3.304581"><ele>578</ele><time>2022-04-15T13:06:14Z</time><name>PT3744</name></trkpt>
<trkpt lat="52.945347" lon="-3.304569"><ele>578</ele><time>2022-04-15T13:06:15Z</time><name>PT3745</name></trkpt>
<trkpt lat="52.945338" lon="-3.304554"><ele>578</ele><time>2022-04-15T13:06:16Z</time><name>PT3746</name></trkpt>
<trkpt lat="52.945328" lon="-3.304543"><ele>578</ele><time>2022-04-15T13:06:17Z</time><name>PT3747</name></trkpt>
<trkpt lat="52.945320" lon="-3.304531"><ele>578</ele><time>2022-04-15T13:06:18Z</time><name>PT3748</name></trkpt>
<trkpt lat="52.945312" lon="-3.304518"><ele>578</ele><time>2022-04-15T13:06:19Z</time><name>PT3749</name></trkpt>
<trkpt lat="52.945305" lon="-3.304503"><ele>578</ele><time>2022-04-15T13:06:20Z</time><name>PT3750</name></trkpt>
<trkpt lat="52.945296" lon="-3.304488"><ele>578</ele><time>2022-04-15T13:06:21Z</time><name>PT3751</name></trkpt>
<trkpt lat="52.945286" lon="-3.304478"><ele>578</ele><time>2022-04-15T13:06:22Z</time><name>PT3752</name></trkpt>
<trkpt lat="52.945279" lon="-3.304463"><ele>578</ele><time>2022-04-15T13:06:23Z</time><name>PT3753</name></trkpt>
<trkpt lat="52.945270" lon="-3.304450"><ele>578</ele><time>2022-04-15T13:06:24Z</time><name>PT3754</name></trkpt>
<trkpt lat="52.945262" lon="-3.304436"><ele>578</ele><time>2022-04-15T13:06:25Z</time><name>PT3755</name></trkpt>
<trkpt lat="52.945253" lon="-3.304424"><ele>578</ele><time>2022-04-15T13:06:26Z</time><name>PT3756</name></trkpt>
<trkpt lat="52.945243" lon="-3.304412"><ele>579</ele><time>2022-04-15T13:06:27Z</time><name>PT3757</name></trkpt>
<trkpt lat="52.945236" lon="-3.304399"><ele>579</ele><time>2022-04-15T13:06:28Z</time><name>PT3758</name></trkpt>
<trkpt lat="52.945229" lon="-3.304386"><ele>579</ele><time>2022-04-15T13:06:29Z</time><name>PT3759</name></trkpt>
<trkpt lat="52.945221" lon="-3.304374"><ele>579</ele><time>2022-04-15T13:06:30Z</time><name>PT3760</name></trkpt>
<trkpt lat="52.945215" lon="-3.304362"><ele>579</ele><time>2022-04-15T13:06:31Z</time><name>PT3761</name></trkpt>
<trkpt lat="52.945212" lon="-3.304348"><ele>580</ele><time>2022-04-15T13:06:32Z</time><name>PT3762</name></trkpt>
<trkpt lat="52.945205" lon="-3.304334"><ele>580</ele><time>2022-04-15T13:06:33Z</time><name>PT3763</name></trkpt>
<trkpt lat="52.945198" lon="-3.304317"><ele>579</ele><time>2022-04-15T13:06:34Z</time><name>PT3764</name></trkpt>
<trkpt lat="52.945190" lon="-3.304301"><ele>579</ele><time>2022-04-15T13:06:35Z</time><name>PT3765</name></trkpt>
<trkpt lat="52.945183" lon="-3.304286"><ele>579</ele><time>2022-04-15T13:06:36Z</time><name>PT3766</name></trkpt>
<trkpt lat="52.945175" lon="-3.304276"><ele>579</ele><time>2022-04-15T13:06:37Z</time><name>PT3767</name></trkpt>
<trkpt lat="52.945167" lon="-3.304263"><ele>580</ele><time>2022-04-15T13:06:38Z</time><name>PT3768</name></trkpt>
<trkpt lat="52.945159" lon="-3.304247"><ele>580</ele><time>2022-04-15T13:06:39Z</time><name>PT3769</name></trkpt>
<trkpt lat="52.945151" lon="-3.304234"><ele>581</ele><time>2022-04-15T13:06:40Z</time><name>PT3770</name></trkpt>
<trkpt lat="52.945142" lon="-3.304219"><ele>580</ele><time>2022-04-15T13:06:41Z</time><name>PT3771</name></trkpt>
<trkpt lat="52.945135" lon="-3.304204"><ele>581</ele><time>2022-04-15T13:06:42Z</time><name>PT3772</name></trkpt>
<trkpt lat="52.945128" lon="-3.304190"><ele>581</ele><time>2022-04-15T13:06:43Z</time><name>PT3773</name></trkpt>
<trkpt lat="52.945121" lon="-3.304177"><ele>581</ele><time>2022-04-15T13:06:44Z</time><name>PT3774</name></trkpt>
<trkpt lat="52.945114" lon="-3.304163"><ele>582</ele><time>2022-04-15T13:06:45Z</time><name>PT3775</name></trkpt>
<trkpt lat="52.945108" lon="-3.304148"><ele>582</ele><time>2022-04-15T13:06:46Z</time><name>PT3776</name></trkpt>
<trkpt lat="52.945103" lon="-3.304131"><ele>582</ele><time>2022-04-15T13:06:47Z</time><name>PT3777</name></trkpt>
<trkpt lat="52.945096" lon="-3.304116"><ele>582</ele><time>2022-04-15T13:06:48Z</time><name>PT3778</name></trkpt>
<trkpt lat="52.945089" lon="-3.304102"><ele>582</ele><time>2022-04-15T13:06:49Z</time><name>PT3779</name></trkpt>
<trkpt lat="52.945080" lon="-3.304089"><ele>582</ele><time>2022-04-15T13:06:50Z</time><name>PT3780</name></trkpt>
<trkpt lat="52.945074" lon="-3.304080"><ele>582</ele><time>2022-04-15T13:06:51Z</time><name>PT3781</name></trkpt>
<trkpt lat="52.945068" lon="-3.304069"><ele>583</ele><time>2022-04-15T13:06:52Z</time><name>PT3782</name></trkpt>
<trkpt lat="52.945064" lon="-3.304058"><ele>583</ele><time>2022-04-15T13:06:53Z</time><name>PT3783</name></trkpt>
<trkpt lat="52.945058" lon="-3.304044"><ele>583</ele><time>2022-04-15T13:06:54Z</time><name>PT3784</name></trkpt>
<trkpt lat="52.945052" lon="-3.304029"><ele>583</ele><time>2022-04-15T13:06:55Z</time><name>PT3785</name></trkpt>
<trkpt lat="52.945047" lon="-3.304015"><ele>583</ele><time>2022-04-15T13:06:56Z</time><name>PT3786</name></trkpt>
<trkpt lat="52.945045" lon="-3.304000"><ele>583</ele><time>2022-04-15T13:06:57Z</time><name>PT3787</name></trkpt>
<trkpt lat="52.945020" lon="-3.303940"><ele>583</ele><time>2022-04-15T13:07:01Z</time><name>PT3788</name></trkpt>
<trkpt lat="52.944998" lon="-3.303875"><ele>583</ele><time>2022-04-15T13:07:05Z</time><name>PT3789</name></trkpt>
<trkpt lat="52.944979" lon="-3.303826"><ele>582</ele><time>2022-04-15T13:07:08Z</time><name>PT3790</name></trkpt>
<trkpt lat="52.944962" lon="-3.303775"><ele>582</ele><time>2022-04-15T13:07:11Z</time><name>PT3791</name></trkpt>
<trkpt lat="52.944938" lon="-3.303698"><ele>583</ele><time>2022-04-15T13:07:15Z</time><name>PT3792</name></trkpt>
<trkpt lat="52.944915" lon="-3.303631"><ele>582</ele><time>2022-04-15T13:07:19Z</time><name>PT3793</name></trkpt>
<trkpt lat="52.944899" lon="-3.303579"><ele>582</ele><time>2022-04-15T13:07:22Z</time><name>PT3794</name></trkpt>
<trkpt lat="52.944879" lon="-3.303513"><ele>582</ele><time>2022-04-15T13:07:26Z</time><name>PT3795</name></trkpt>
<trkpt lat="52.944860" lon="-3.303441"><ele>581</ele><time>2022-04-15T13:07:30Z</time><name>PT3796</name></trkpt>
<trkpt lat="52.944829" lon="-3.303372"><ele>580</ele><time>2022-04-15T13:07:34Z</time><name>PT3797</name></trkpt>
<trkpt lat="52.944812" lon="-3.303313"><ele>579</ele><time>2022-04-15T13:07:37Z</time><name>PT3798</name></trkpt>
<trkpt lat="52.944804" lon="-3.303262"><ele>579</ele><time>2022-04-15T13:07:40Z</time><name>PT3799</name></trkpt>
<trkpt lat="52.944783" lon="-3.303200"><ele>578</ele><time>2022-04-15T13:07:44Z</time><name>PT3800</name></trkpt>
<trkpt lat="52.944772" lon="-3.303138"><ele>578</ele><time>2022-04-15T13:07:47Z</time><name>PT3801</name></trkpt>
<trkpt lat="52.944756" lon="-3.303083"><ele>577</ele><time>2022-04-15T13:07:50Z</time><name>PT3802</name></trkpt>
<trkpt lat="52.944740" lon="-3.303010"><ele>577</ele><time>2022-04-15T13:07:54Z</time><name>PT3803</name></trkpt>
<trkpt lat="52.944728" lon="-3.302931"><ele>577</ele><time>2022-04-15T13:07:58Z</time><name>PT3804</name></trkpt>
<trkpt lat="52.944717" lon="-3.302871"><ele>577</ele><time>2022-04-15T13:08:01Z</time><name>PT3805</name></trkpt>
<trkpt lat="52.944705" lon="-3.302797"><ele>576</ele><time>2022-04-15T13:08:05Z</time><name>PT3806</name></trkpt>
<trkpt lat="52.944693" lon="-3.302737"><ele>576</ele><time>2022-04-15T13:08:08Z</time><name>PT3807</name></trkpt>
<trkpt lat="52.944680" lon="-3.302665"><ele>576</ele><time>2022-04-15T13:08:12Z</time><name>PT3808</name></trkpt>
<trkpt lat="52.944673" lon="-3.302616"><ele>575</ele><time>2022-04-15T13:08:15Z</time><name>PT3809</name></trkpt>
<trkpt lat="52.944668" lon="-3.302538"><ele>575</ele><time>2022-04-15T13:08:19Z</time><name>PT3810</name></trkpt>
<trkpt lat="52.944657" lon="-3.302487"><ele>574</ele><time>2022-04-15T13:08:22Z</time><name>PT3811</name></trkpt>
<trkpt lat="52.944648" lon="-3.302409"><ele>574</ele><time>2022-04-15T13:08:26Z</time><name>PT3812</name></trkpt>
<trkpt lat="52.944637" lon="-3.302329"><ele>574</ele><time>2022-04-15T13:08:30Z</time><name>PT3813</name></trkpt>
<trkpt lat="52.944626" lon="-3.302267"><ele>574</ele><time>2022-04-15T13:08:33Z</time><name>PT3814</name></trkpt>
<trkpt lat="52.944609" lon="-3.302182"><ele>573</ele><time>2022-04-15T13:08:37Z</time><name>PT3815</name></trkpt>
<trkpt lat="52.944593" lon="-3.302111"><ele>572</ele><time>2022-04-15T13:08:41Z</time><name>PT3816</name></trkpt>
<trkpt lat="52.944576" lon="-3.302037"><ele>572</ele><time>2022-04-15T13:08:45Z</time><name>PT3817</name></trkpt>
<trkpt lat="52.944557" lon="-3.301955"><ele>571</ele><time>2022-04-15T13:08:49Z</time><name>PT3818</name></trkpt>
<trkpt lat="52.944544" lon="-3.301910"><ele>570</ele><time>2022-04-15T13:08:52Z</time><name>PT3819</name></trkpt>
<trkpt lat="52.944530" lon="-3.301834"><ele>570</ele><time>2022-04-15T13:08:56Z</time><name>PT3820</name></trkpt>
<trkpt lat="52.944514" lon="-3.301750"><ele>570</ele><time>2022-04-15T13:09:00Z</time><name>PT3821</name></trkpt>
<trkpt lat="52.944495" lon="-3.301665"><ele>570</ele><time>2022-04-15T13:09:04Z</time><name>PT3822</name></trkpt>
<trkpt lat="52.944473" lon="-3.301591"><ele>570</ele><time>2022-04-15T13:09:08Z</time><name>PT3823</name></trkpt>
<trkpt lat="52.944450" lon="-3.301548"><ele>570</ele><time>2022-04-15T13:09:11Z</time><name>PT3824</name></trkpt>
<trkpt lat="52.944427" lon="-3.301479"><ele>571</ele><time>2022-04-15T13:09:15Z</time><name>PT3825</name></trkpt>
<trkpt lat="52.944403" lon="-3.301425"><ele>571</ele><time>2022-04-15T13:09:18Z</time><name>PT3826</name></trkpt>
<trkpt lat="52.944371" lon="-3.301372"><ele>570</ele><time>2022-04-15T13:09:22Z</time><name>PT3827</name></trkpt>
<trkpt lat="52.944350" lon="-3.301307"><ele>569</ele><time>2022-04-15T13:09:26Z</time><name>PT3828</name></trkpt>
<trkpt lat="52.944341" lon="-3.301247"><ele>569</ele><time>2022-04-15T13:09:29Z</time><name>PT3829</name></trkpt>
<trkpt lat="52.944329" lon="-3.301158"><ele>569</ele><time>2022-04-15T13:09:33Z</time><name>PT3830</name></trkpt>
<trkpt lat="52.944319" lon="-3.301095"><ele>569</ele><time>2022-04-15T13:09:36Z</time><name>PT3831</name></trkpt>
<trkpt lat="52.944312" lon="-3.301011"><ele>568</ele><time>2022-04-15T13:09:40Z</time><name>PT3832</name></trkpt>
<trkpt lat="52.944295" lon="-3.300953"><ele>568</ele><time>2022-04-15T13:09:43Z</time><name>PT3833</name></trkpt>
<trkpt lat="52.944281" lon="-3.300894"><ele>567</ele><time>2022-04-15T13:09:46Z</time><name>PT3834</name></trkpt>
<trkpt lat="52.944259" lon="-3.300812"><ele>567</ele><time>2022-04-15T13:09:50Z</time><name>PT3835</name></trkpt>
<trkpt lat="52.944240" lon="-3.300754"><ele>566</ele><time>2022-04-15T13:09:53Z</time><name>PT3836</name></trkpt>
<trkpt lat="52.944233" lon="-3.300693"><ele>567</ele><time>2022-04-15T13:09:56Z</time><name>PT3837</name></trkpt>
<trkpt lat="52.944211" lon="-3.300621"><ele>567</ele><time>2022-04-15T13:10:00Z</time><name>PT3838</name></trkpt>
<trkpt lat="52.944188" lon="-3.300573"><ele>566</ele><time>2022-04-15T13:10:03Z</time><name>PT3839</name></trkpt>
<trkpt lat="52.944161" lon="-3.300504"><ele>565</ele><time>2022-04-15T13:10:07Z</time><name>PT3840</name></trkpt>
<trkpt lat="52.944128" lon="-3.300433"><ele>564</ele><time>2022-04-15T13:10:11Z</time><name>PT3841</name></trkpt>
<trkpt lat="52.944098" lon="-3.300357"><ele>563</ele><time>2022-04-15T13:10:15Z</time><name>PT3842</name></trkpt>
<trkpt lat="52.944064" lon="-3.300283"><ele>563</ele><time>2022-04-15T13:10:19Z</time><name>PT3843</name></trkpt>
<trkpt lat="52.944042" lon="-3.300235"><ele>563</ele><time>2022-04-15T13:10:22Z</time><name>PT3844</name></trkpt>
<trkpt lat="52.944022" lon="-3.300180"><ele>563</ele><time>2022-04-15T13:10:25Z</time><name>PT3845</name></trkpt>
<trkpt lat="52.944000" lon="-3.300127"><ele>563</ele><time>2022-04-15T13:10:28Z</time><name>PT3846</name></trkpt>
<trkpt lat="52.943984" lon="-3.300071"><ele>563</ele><time>2022-04-15T13:10:31Z</time><name>PT3847</name></trkpt>
<trkpt lat="52.943956" lon="-3.299996"><ele>563</ele><time>2022-04-15T13:10:35Z</time><name>PT3848</name></trkpt>
<trkpt lat="52.943935" lon="-3.299939"><ele>563</ele><time>2022-04-15T13:10:38Z</time><name>PT3849</name></trkpt>
<trkpt lat="52.943919" lon="-3.299879"><ele>564</ele><time>2022-04-15T13:10:41Z</time><name>PT3850</name></trkpt>
<trkpt lat="52.943905" lon="-3.299814"><ele>564</ele><time>2022-04-15T13:10:44Z</time><name>PT3851</name></trkpt>
<trkpt lat="52.943887" lon="-3.299731"><ele>564</ele><time>2022-04-15T13:10:48Z</time><name>PT3852</name></trkpt>
<trkpt lat="52.943862" lon="-3.299655"><ele>564</ele><time>2022-04-15T13:10:52Z</time><name>PT3853</name></trkpt>
<trkpt lat="52.943843" lon="-3.299612"><ele>564</ele><time>2022-04-15T13:10:55Z</time><name>PT3854</name></trkpt>
<trkpt lat="52.943826" lon="-3.299564"><ele>564</ele><time>2022-04-15T13:10:58Z</time><name>PT3855</name></trkpt>
<trkpt lat="52.943820" lon="-3.299498"><ele>564</ele><time>2022-04-15T13:11:02Z</time><name>PT3856</name></trkpt>
<trkpt lat="52.943788" lon="-3.299436"><ele>563</ele><time>2022-04-15T13:11:06Z</time><name>PT3857</name></trkpt>
<trkpt lat="52.943780" lon="-3.299383"><ele>563</ele><time>2022-04-15T13:11:09Z</time><name>PT3858</name></trkpt>
<trkpt lat="52.943760" lon="-3.299323"><ele>563</ele><time>2022-04-15T13:11:13Z</time><name>PT3859</name></trkpt>
<trkpt lat="52.943741" lon="-3.299291"><ele>564</ele><time>2022-04-15T13:11:16Z</time><name>PT3860</name></trkpt>
<trkpt lat="52.943697" lon="-3.299254"><ele>564</ele><time>2022-04-15T13:11:20Z</time><name>PT3861</name></trkpt>
<trkpt lat="52.943666" lon="-3.299204"><ele>563</ele><time>2022-04-15T13:11:23Z</time><name>PT3862</name></trkpt>
<trkpt lat="52.943637" lon="-3.299113"><ele>564</ele><time>2022-04-15T13:11:27Z</time><name>PT3863</name></trkpt>
<trkpt lat="52.943613" lon="-3.299029"><ele>564</ele><time>2022-04-15T13:11:31Z</time><name>PT3864</name></trkpt>
<trkpt lat="52.943597" lon="-3.298968"><ele>564</ele><time>2022-04-15T13:11:34Z</time><name>PT3865</name></trkpt>
<trkpt lat="52.943580" lon="-3.298887"><ele>563</ele><time>2022-04-15T13:11:38Z</time><name>PT3866</name></trkpt>
<trkpt lat="52.943573" lon="-3.298792"><ele>563</ele><time>2022-04-15T13:11:42Z</time><name>PT3867</name></trkpt>
<trkpt lat="52.943578" lon="-3.298710"><ele>564</ele><time>2022-04-15T13:11:46Z</time><name>PT3868</name></trkpt>
<trkpt lat="52.943574" lon="-3.298654"><ele>564</ele><time>2022-04-15T13:11:49Z</time><name>PT3869</name></trkpt>
<trkpt lat="52.943569" lon="-3.298580"><ele>565</ele><time>2022-04-15T13:11:53Z</time><name>PT3870</name></trkpt>
<trkpt lat="52.943575" lon="-3.298505"><ele>565</ele><time>2022-04-15T13:11:57Z</time><name>PT3871</name></trkpt>
<trkpt lat="52.943579" lon="-3.298431"><ele>566</ele><time>2022-04-15T13:12:01Z</time><name>PT3872</name></trkpt>
<trkpt lat="52.943598" lon="-3.298352"><ele>567</ele><time>2022-04-15T13:12:05Z</time><name>PT3873</name></trkpt>
<trkpt lat="52.943599" lon="-3.298266"><ele>568</ele><time>2022-04-15T13:12:09Z</time><name>PT3874</name></trkpt>
<trkpt lat="52.943605" lon="-3.298196"><ele>567</ele><time>2022-04-15T13:12:12Z</time><name>PT3875</name></trkpt>
<trkpt lat="52.943615" lon="-3.298141"><ele>567</ele><time>2022-04-15T13:12:15Z</time><name>PT3876</name></trkpt>
<trkpt lat="52.943624" lon="-3.298086"><ele>566</ele><time>2022-04-15T13:12:18Z</time><name>PT3877</name></trkpt>
<trkpt lat="52.943646" lon="-3.298029"><ele>566</ele><time>2022-04-15T13:12:22Z</time><name>PT3878</name></trkpt>
<trkpt lat="52.943663" lon="-3.297996"><ele>565</ele><time>2022-04-15T13:12:25Z</time><name>PT3879</name></trkpt>
<trkpt lat="52.943681" lon="-3.297947"><ele>565</ele><time>2022-04-15T13:12:29Z</time><name>PT3880</name></trkpt>
<trkpt lat="52.943708" lon="-3.297882"><ele>565</ele><time>2022-04-15T13:12:33Z</time><name>PT3881</name></trkpt>
<trkpt lat="52.943739" lon="-3.297821"><ele>563</ele><time>2022-04-15T13:12:37Z</time><name>PT3882</name></trkpt>
<trkpt lat="52.943763" lon="-3.297773"><ele>563</ele><time>2022-04-15T13:12:40Z</time><name>PT3883</name></trkpt>
<trkpt lat="52.943785" lon="-3.297728"><ele>563</ele><time>2022-04-15T13:12:43Z</time><name>PT3884</name></trkpt>
<trkpt lat="52.943807" lon="-3.297674"><ele>563</ele><time>2022-04-15T13:12:46Z</time><name>PT3885</name></trkpt>
<trkpt lat="52.943824" lon="-3.297625"><ele>563</ele><time>2022-04-15T13:12:49Z</time><name>PT3886</name></trkpt>
<trkpt lat="52.943833" lon="-3.297568"><ele>563</ele><time>2022-04-15T13:12:52Z</time><name>PT3887</name></trkpt>
<trkpt lat="52.943849" lon="-3.297519"><ele>563</ele><time>2022-04-15T13:12:55Z</time><name>PT3888</name></trkpt>
<trkpt lat="52.943870" lon="-3.297450"><ele>562</ele><time>2022-04-15T13:12:59Z</time><name>PT3889</name></trkpt>
<trkpt lat="52.943885" lon="-3.297402"><ele>563</ele><time>2022-04-15T13:13:02Z</time><name>PT3890</name></trkpt>
<trkpt lat="52.943898" lon="-3.297341"><ele>563</ele><time>2022-04-15T13:13:05Z</time><name>PT3891</name></trkpt>
<trkpt lat="52.943915" lon="-3.297269"><ele>564</ele><time>2022-04-15T13:13:09Z</time><name>PT3892</name></trkpt>
<trkpt lat="52.943928" lon="-3.297194"><ele>564</ele><time>2022-04-15T13:13:13Z</time><name>PT3893</name></trkpt>
<trkpt lat="52.943937" lon="-3.297137"><ele>564</ele><time>2022-04-15T13:13:16Z</time><name>PT3894</name></trkpt>
<trkpt lat="52.943948" lon="-3.297057"><ele>564</ele><time>2022-04-15T13:13:20Z</time><name>PT3895</name></trkpt>
<trkpt lat="52.943959" lon="-3.297001"><ele>564</ele><time>2022-04-15T13:13:23Z</time><name>PT3896</name></trkpt>
<trkpt lat="52.943969" lon="-3.296946"><ele>564</ele><time>2022-04-15T13:13:26Z</time><name>PT3897</name></trkpt>
<trkpt lat="52.943987" lon="-3.296889"><ele>565</ele><time>2022-04-15T13:13:29Z</time><name>PT3898</name></trkpt>
<trkpt lat="52.943999" lon="-3.296813"><ele>564</ele><time>2022-04-15T13:13:33Z</time><name>PT3899</name></trkpt>
<trkpt lat="52.944019" lon="-3.296739"><ele>564</ele><time>2022-04-15T13:13:37Z</time><name>PT3900</name></trkpt>
<trkpt lat="52.944037" lon="-3.296661"><ele>564</ele><time>2022-04-15T13:13:41Z</time><name>PT3901</name></trkpt>
<trkpt lat="52.944059" lon="-3.296591"><ele>563</ele><time>2022-04-15T13:13:45Z</time><name>PT3902</name></trkpt>
<trkpt lat="52.944078" lon="-3.296523"><ele>563</ele><time>2022-04-15T13:13:49Z</time><name>PT3903</name></trkpt>
<trkpt lat="52.944094" lon="-3.296474"><ele>562</ele><time>2022-04-15T13:13:52Z</time><name>PT3904</name></trkpt>
<trkpt lat="52.944112" lon="-3.296400"><ele>561</ele><time>2022-04-15T13:13:56Z</time><name>PT3905</name></trkpt>
<trkpt lat="52.944128" lon="-3.296348"><ele>561</ele><time>2022-04-15T13:13:59Z</time><name>PT3906</name></trkpt>
<trkpt lat="52.944140" lon="-3.296295"><ele>561</ele><time>2022-04-15T13:14:02Z</time><name>PT3907</name></trkpt>
<trkpt lat="52.944155" lon="-3.296228"><ele>562</ele><time>2022-04-15T13:14:05Z</time><name>PT3908</name></trkpt>
<trkpt lat="52.944158" lon="-3.296171"><ele>562</ele><time>2022-04-15T13:14:08Z</time><name>PT3909</name></trkpt>
<trkpt lat="52.944156" lon="-3.296098"><ele>561</ele><time>2022-04-15T13:14:12Z</time><name>PT3910</name></trkpt>
<trkpt lat="52.944157" lon="-3.296015"><ele>561</ele><time>2022-04-15T13:14:16Z</time><name>PT3911</name></trkpt>
<trkpt lat="52.944154" lon="-3.295957"><ele>561</ele><time>2022-04-15T13:14:19Z</time><name>PT3912</name></trkpt>
<trkpt lat="52.944150" lon="-3.295881"><ele>561</ele><time>2022-04-15T13:14:23Z</time><name>PT3913</name></trkpt>
<trkpt lat="52.944157" lon="-3.295792"><ele>560</ele><time>2022-04-15T13:14:27Z</time><name>PT3914</name></trkpt>
<trkpt lat="52.944157" lon="-3.295729"><ele>560</ele><time>2022-04-15T13:14:30Z</time><name>PT3915</name></trkpt>
<trkpt lat="52.944163" lon="-3.295670"><ele>560</ele><time>2022-04-15T13:14:33Z</time><name>PT3916</name></trkpt>
<trkpt lat="52.944177" lon="-3.295598"><ele>559</ele><time>2022-04-15T13:14:37Z</time><name>PT3917</name></trkpt>
<trkpt lat="52.944199" lon="-3.295559"><ele>559</ele><time>2022-04-15T13:14:40Z</time><name>PT3918</name></trkpt>
<trkpt lat="52.944213" lon="-3.295483"><ele>559</ele><time>2022-04-15T13:14:44Z</time><name>PT3919</name></trkpt>
<trkpt lat="52.944225" lon="-3.295405"><ele>561</ele><time>2022-04-15T13:14:48Z</time><name>PT3920</name></trkpt>
<trkpt lat="52.944232" lon="-3.295352"><ele>560</ele><time>2022-04-15T13:14:51Z</time><name>PT3921</name></trkpt>
<trkpt lat="52.944250" lon="-3.295295"><ele>560</ele><time>2022-04-15T13:14:55Z</time><name>PT3922</name></trkpt>
<trkpt lat="52.944257" lon="-3.295240"><ele>560</ele><time>2022-04-15T13:14:58Z</time><name>PT3923</name></trkpt>
<trkpt lat="52.944274" lon="-3.295168"><ele>560</ele><time>2022-04-15T13:15:02Z</time><name>PT3924</name></trkpt>
<trkpt lat="52.944287" lon="-3.295103"><ele>560</ele><time>2022-04-15T13:15:05Z</time><name>PT3925</name></trkpt>
<trkpt lat="52.944305" lon="-3.295036"><ele>558</ele><time>2022-04-15T13:15:09Z</time><name>PT3926</name></trkpt>
<trkpt lat="52.944320" lon="-3.294964"><ele>557</ele><time>2022-04-15T13:15:13Z</time><name>PT3927</name></trkpt>
<trkpt lat="52.944341" lon="-3.294913"><ele>557</ele><time>2022-04-15T13:15:16Z</time><name>PT3928</name></trkpt>
<trkpt lat="52.944364" lon="-3.294862"><ele>557</ele><time>2022-04-15T13:15:19Z</time><name>PT3929</name></trkpt>
<trkpt lat="52.944388" lon="-3.294806"><ele>557</ele><time>2022-04-15T13:15:22Z</time><name>PT3930</name></trkpt>
<trkpt lat="52.944411" lon="-3.294735"><ele>557</ele><time>2022-04-15T13:15:26Z</time><name>PT3931</name></trkpt>
<trkpt lat="52.944435" lon="-3.294677"><ele>558</ele><time>2022-04-15T13:15:29Z</time><name>PT3932</name></trkpt>
<trkpt lat="52.944460" lon="-3.294600"><ele>557</ele><time>2022-04-15T13:15:33Z</time><name>PT3933</name></trkpt>
<trkpt lat="52.944491" lon="-3.294518"><ele>557</ele><time>2022-04-15T13:15:37Z</time><name>PT3934</name></trkpt>
<trkpt lat="52.944512" lon="-3.294449"><ele>557</ele><time>2022-04-15T13:15:41Z</time><name>PT3935</name></trkpt>
<trkpt lat="52.944526" lon="-3.294395"><ele>556</ele><time>2022-04-15T13:15:45Z</time><name>PT3936</name></trkpt>
<trkpt lat="52.944543" lon="-3.294348"><ele>557</ele><time>2022-04-15T13:15:48Z</time><name>PT3937</name></trkpt>
<trkpt lat="52.944561" lon="-3.294267"><ele>556</ele><time>2022-04-15T13:15:52Z</time><name>PT3938</name></trkpt>
<trkpt lat="52.944575" lon="-3.294191"><ele>556</ele><time>2022-04-15T13:15:56Z</time><name>PT3939</name></trkpt>
<trkpt lat="52.944582" lon="-3.294111"><ele>557</ele><time>2022-04-15T13:16:00Z</time><name>PT3940</name></trkpt>
<trkpt lat="52.944582" lon="-3.294051"><ele>557</ele><time>2022-04-15T13:16:03Z</time><name>PT3941</name></trkpt>
<trkpt lat="52.944597" lon="-3.293997"><ele>559</ele><time>2022-04-15T13:16:06Z</time><name>PT3942</name></trkpt>
<trkpt lat="52.944597" lon="-3.293933"><ele>558</ele><time>2022-04-15T13:16:10Z</time><name>PT3943</name></trkpt>
<trkpt lat="52.944603" lon="-3.293867"><ele>560</ele><time>2022-04-15T13:16:13Z</time><name>PT3944</name></trkpt>
<trkpt lat="52.944602" lon="-3.293787"><ele>561</ele><time>2022-04-15T13:16:17Z</time><name>PT3945</name></trkpt>
<trkpt lat="52.944602" lon="-3.293720"><ele>561</ele><time>2022-04-15T13:16:21Z</time><name>PT3946</name></trkpt>
<trkpt lat="52.944605" lon="-3.293665"><ele>562</ele><time>2022-04-15T13:16:24Z</time><name>PT3947</name></trkpt>
<trkpt lat="52.944607" lon="-3.293588"><ele>564</ele><time>2022-04-15T13:16:28Z</time><name>PT3948</name></trkpt>
<trkpt lat="52.944611" lon="-3.293525"><ele>564</ele><time>2022-04-15T13:16:32Z</time><name>PT3949</name></trkpt>
<trkpt lat="52.944612" lon="-3.293472"><ele>563</ele><time>2022-04-15T13:16:35Z</time><name>PT3950</name></trkpt>
<trkpt lat="52.944613" lon="-3.293416"><ele>563</ele><time>2022-04-15T13:16:38Z</time><name>PT3951</name></trkpt>
<trkpt lat="52.944617" lon="-3.293339"><ele>563</ele><time>2022-04-15T13:16:42Z</time><name>PT3952</name></trkpt>
<trkpt lat="52.944617" lon="-3.293257"><ele>563</ele><time>2022-04-15T13:16:46Z</time><name>PT3953</name></trkpt>
<trkpt lat="52.944624" lon="-3.293201"><ele>564</ele><time>2022-04-15T13:16:49Z</time><name>PT3954</name></trkpt>
<trkpt lat="52.944625" lon="-3.293147"><ele>564</ele><time>2022-04-15T13:16:52Z</time><name>PT3955</name></trkpt>
<trkpt lat="52.944632" lon="-3.293071"><ele>564</ele><time>2022-04-15T13:16:56Z</time><name>PT3956</name></trkpt>
<trkpt lat="52.944634" lon="-3.293017"><ele>564</ele><time>2022-04-15T13:16:59Z</time><name>PT3957</name></trkpt>
<trkpt lat="52.944641" lon="-3.292956"><ele>565</ele><time>2022-04-15T13:17:02Z</time><name>PT3958</name></trkpt>
<trkpt lat="52.944648" lon="-3.292872"><ele>565</ele><time>2022-04-15T13:17:06Z</time><name>PT3959</name></trkpt>
<trkpt lat="52.944651" lon="-3.292811"><ele>566</ele><time>2022-04-15T13:17:09Z</time><name>PT3960</name></trkpt>
<trkpt lat="52.944656" lon="-3.292721"><ele>567</ele><time>2022-04-15T13:17:13Z</time><name>PT3961</name></trkpt>
<trkpt lat="52.944660" lon="-3.292663"><ele>567</ele><time>2022-04-15T13:17:16Z</time><name>PT3962</name></trkpt>
<trkpt lat="52.944664" lon="-3.292579"><ele>567</ele><time>2022-04-15T13:17:20Z</time><name>PT3963</name></trkpt>
<trkpt lat="52.944657" lon="-3.292528"><ele>566</ele><time>2022-04-15T13:17:23Z</time><name>PT3964</name></trkpt>
<trkpt lat="52.944663" lon="-3.292450"><ele>566</ele><time>2022-04-15T13:17:27Z</time><name>PT3965</name></trkpt>
<trkpt lat="52.944667" lon="-3.292375"><ele>566</ele><time>2022-04-15T13:17:31Z</time><name>PT3966</name></trkpt>
<trkpt lat="52.944671" lon="-3.292301"><ele>566</ele><time>2022-04-15T13:17:35Z</time><name>PT3967</name></trkpt>
<trkpt lat="52.944677" lon="-3.292246"><ele>567</ele><time>2022-04-15T13:17:38Z</time><name>PT3968</name></trkpt>
<trkpt lat="52.944677" lon="-3.292181"><ele>566</ele><time>2022-04-15T13:17:41Z</time><name>PT3969</name></trkpt>
<trkpt lat="52.944679" lon="-3.292109"><ele>566</ele><time>2022-04-15T13:17:45Z</time><name>PT3970</name></trkpt>
<trkpt lat="52.944680" lon="-3.292030"><ele>566</ele><time>2022-04-15T13:17:49Z</time><name>PT3971</name></trkpt>
<trkpt lat="52.944678" lon="-3.291973"><ele>566</ele><time>2022-04-15T13:17:52Z</time><name>PT3972</name></trkpt>
<trkpt lat="52.944673" lon="-3.291899"><ele>566</ele><time>2022-04-15T13:17:56Z</time><name>PT3973</name></trkpt>
<trkpt lat="52.944669" lon="-3.291836"><ele>566</ele><time>2022-04-15T13:17:59Z</time><name>PT3974</name></trkpt>
<trkpt lat="52.944663" lon="-3.291753"><ele>567</ele><time>2022-04-15T13:18:03Z</time><name>PT3975</name></trkpt>
<trkpt lat="52.944663" lon="-3.291693"><ele>567</ele><time>2022-04-15T13:18:06Z</time><name>PT3976</name></trkpt>
<trkpt lat="52.944660" lon="-3.291616"><ele>567</ele><time>2022-04-15T13:18:10Z</time><name>PT3977</name></trkpt>
<trkpt lat="52.944653" lon="-3.291532"><ele>568</ele><time>2022-04-15T13:18:14Z</time><name>PT3978</name></trkpt>
<trkpt lat="52.944643" lon="-3.291443"><ele>567</ele><time>2022-04-15T13:18:18Z</time><name>PT3979</name></trkpt>
<trkpt lat="52.944637" lon="-3.291378"><ele>567</ele><time>2022-04-15T13:18:21Z</time><name>PT3980</name></trkpt>
<trkpt lat="52.944621" lon="-3.291298"><ele>567</ele><time>2022-04-15T13:18:25Z</time><name>PT3981</name></trkpt>
<trkpt lat="52.944605" lon="-3.291247"><ele>567</ele><time>2022-04-15T13:18:28Z</time><name>PT3982</name></trkpt>
<trkpt lat="52.944586" lon="-3.291196"><ele>568</ele><time>2022-04-15T13:18:31Z</time><name>PT3983</name></trkpt>
<trkpt lat="52.944555" lon="-3.291139"><ele>569</ele><time>2022-04-15T13:18:35Z</time><name>PT3984</name></trkpt>
<trkpt lat="52.944524" lon="-3.291105"><ele>569</ele><time>2022-04-15T13:18:38Z</time><name>PT3985</name></trkpt>
<trkpt lat="52.944500" lon="-3.291084"><ele>570</ele><time>2022-04-15T13:18:41Z</time><name>PT3986</name></trkpt>
<trkpt lat="52.944468" lon="-3.291055"><ele>570</ele><time>2022-04-15T13:18:44Z</time><name>PT3987</name></trkpt>
<trkpt lat="52.944431" lon="-3.290998"><ele>570</ele><time>2022-04-15T13:18:48Z</time><name>PT3988</name></trkpt>
<trkpt lat="52.944410" lon="-3.290925"><ele>571</ele><time>2022-04-15T13:18:52Z</time><name>PT3989</name></trkpt>
<trkpt lat="52.944396" lon="-3.290847"><ele>570</ele><time>2022-04-15T13:18:56Z</time><name>PT3990</name></trkpt>
<trkpt lat="52.944401" lon="-3.290766"><ele>570</ele><time>2022-04-15T13:19:00Z</time><name>PT3991</name></trkpt>
<trkpt lat="52.944412" lon="-3.290691"><ele>570</ele><time>2022-04-15T13:19:04Z</time><name>PT3992</name></trkpt>
<trkpt lat="52.944416" lon="-3.290608"><ele>571</ele><time>2022-04-15T13:19:08Z</time><name>PT3993</name></trkpt>
<trkpt lat="52.944417" lon="-3.290546"><ele>571</ele><time>2022-04-15T13:19:11Z</time><name>PT3994</name></trkpt>
<trkpt lat="52.944415" lon="-3.290465"><ele>570</ele><time>2022-04-15T13:19:15Z</time><name>PT3995</name></trkpt>
<trkpt lat="52.944418" lon="-3.290385"><ele>570</ele><time>2022-04-15T13:19:19Z</time><name>PT3996</name></trkpt>
<trkpt lat="52.944417" lon="-3.290320"><ele>570</ele><time>2022-04-15T13:19:22Z</time><name>PT3997</name></trkpt>
<trkpt lat="52.944419" lon="-3.290237"><ele>569</ele><time>2022-04-15T13:19:26Z</time><name>PT3998</name></trkpt>
<trkpt lat="52.944421" lon="-3.290170"><ele>570</ele><time>2022-04-15T13:19:29Z</time><name>PT3999</name></trkpt>
<trkpt lat="52.944425" lon="-3.290100"><ele>570</ele><time>2022-04-15T13:19:32Z</time><name>PT4000</name></trkpt>
<trkpt lat="52.944425" lon="-3.290044"><ele>570</ele><time>2022-04-15T13:19:35Z</time><name>PT4001</name></trkpt>
<trkpt lat="52.944428" lon="-3.289966"><ele>570</ele><time>2022-04-15T13:19:39Z</time><name>PT4002</name></trkpt>
<trkpt lat="52.944428" lon="-3.289888"><ele>570</ele><time>2022-04-15T13:19:43Z</time><name>PT4003</name></trkpt>
<trkpt lat="52.944425" lon="-3.289832"><ele>570</ele><time>2022-04-15T13:19:46Z</time><name>PT4004</name></trkpt>
<trkpt lat="52.944427" lon="-3.289748"><ele>570</ele><time>2022-04-15T13:19:50Z</time><name>PT4005</name></trkpt>
<trkpt lat="52.944428" lon="-3.289687"><ele>570</ele><time>2022-04-15T13:19:53Z</time><name>PT4006</name></trkpt>
<trkpt lat="52.944430" lon="-3.289623"><ele>569</ele><time>2022-04-15T13:19:56Z</time><name>PT4007</name></trkpt>
<trkpt lat="52.944434" lon="-3.289561"><ele>569</ele><time>2022-04-15T13:19:59Z</time><name>PT4008</name></trkpt>
<trkpt lat="52.944434" lon="-3.289473"><ele>569</ele><time>2022-04-15T13:20:03Z</time><name>PT4009</name></trkpt>
<trkpt lat="52.944438" lon="-3.289387"><ele>569</ele><time>2022-04-15T13:20:07Z</time><name>PT4010</name></trkpt>
<trkpt lat="52.944441" lon="-3.289322"><ele>569</ele><time>2022-04-15T13:20:10Z</time><name>PT4011</name></trkpt>
<trkpt lat="52.944443" lon="-3.289240"><ele>568</ele><time>2022-04-15T13:20:14Z</time><name>PT4012</name></trkpt>
<trkpt lat="52.944443" lon="-3.289178"><ele>568</ele><time>2022-04-15T13:20:17Z</time><name>PT4013</name></trkpt>
<trkpt lat="52.944444" lon="-3.289113"><ele>567</ele><time>2022-04-15T13:20:20Z</time><name>PT4014</name></trkpt>
<trkpt lat="52.944445" lon="-3.289047"><ele>566</ele><time>2022-04-15T13:20:23Z</time><name>PT4015</name></trkpt>
<trkpt lat="52.944446" lon="-3.288983"><ele>566</ele><time>2022-04-15T13:20:26Z</time><name>PT4016</name></trkpt>
<trkpt lat="52.944447" lon="-3.288895"><ele>566</ele><time>2022-04-15T13:20:30Z</time><name>PT4017</name></trkpt>
<trkpt lat="52.944450" lon="-3.288810"><ele>566</ele><time>2022-04-15T13:20:34Z</time><name>PT4018</name></trkpt>
<trkpt lat="52.944446" lon="-3.288743"><ele>566</ele><time>2022-04-15T13:20:37Z</time><name>PT4019</name></trkpt>
<trkpt lat="52.944444" lon="-3.288657"><ele>565</ele><time>2022-04-15T13:20:41Z</time><name>PT4020</name></trkpt>
<trkpt lat="52.944441" lon="-3.288595"><ele>565</ele><time>2022-04-15T13:20:44Z</time><name>PT4021</name></trkpt>
<trkpt lat="52.944441" lon="-3.288514"><ele>565</ele><time>2022-04-15T13:20:48Z</time><name>PT4022</name></trkpt>
<trkpt lat="52.944437" lon="-3.288456"><ele>565</ele><time>2022-04-15T13:20:51Z</time><name>PT4023</name></trkpt>
<trkpt lat="52.944432" lon="-3.288391"><ele>564</ele><time>2022-04-15T13:20:54Z</time><name>PT4024</name></trkpt>
<trkpt lat="52.944425" lon="-3.288297"><ele>564</ele><time>2022-04-15T13:20:58Z</time><name>PT4025</name></trkpt>
<trkpt lat="52.944418" lon="-3.288227"><ele>564</ele><time>2022-04-15T13:21:02Z</time><name>PT4026</name></trkpt>
<trkpt lat="52.944424" lon="-3.288200"><ele>565</ele><time>2022-04-15T13:21:06Z</time><name>PT4027</name></trkpt>
<trkpt lat="52.944431" lon="-3.288189"><ele>565</ele><time>2022-04-15T13:21:09Z</time><name>PT4028</name></trkpt>
<trkpt lat="52.944433" lon="-3.288173"><ele>565</ele><time>2022-04-15T13:21:13Z</time><name>PT4029</name></trkpt>
<trkpt lat="52.944435" lon="-3.288167"><ele>565</ele><time>2022-04-15T13:21:16Z</time><name>PT4030</name></trkpt>
<trkpt lat="52.944437" lon="-3.288142"><ele>565</ele><time>2022-04-15T13:21:26Z</time><name>PT4031</name></trkpt>
<trkpt lat="52.944432" lon="-3.288090"><ele>565</ele><time>2022-04-15T13:21:29Z</time><name>PT4032</name></trkpt>
<trkpt lat="52.944430" lon="-3.288007"><ele>565</ele><time>2022-04-15T13:21:33Z</time><name>PT4033</name></trkpt>
<trkpt lat="52.944421" lon="-3.287921"><ele>565</ele><time>2022-04-15T13:21:37Z</time><name>PT4034</name></trkpt>
<trkpt lat="52.944411" lon="-3.287858"><ele>563</ele><time>2022-04-15T13:21:40Z</time><name>PT4035</name></trkpt>
<trkpt lat="52.944401" lon="-3.287770"><ele>563</ele><time>2022-04-15T13:21:44Z</time><name>PT4036</name></trkpt>
<trkpt lat="52.944399" lon="-3.287708"><ele>563</ele><time>2022-04-15T13:21:47Z</time><name>PT4037</name></trkpt>
<trkpt lat="52.944392" lon="-3.287631"><ele>563</ele><time>2022-04-15T13:21:51Z</time><name>PT4038</name></trkpt>
<trkpt lat="52.944387" lon="-3.287540"><ele>563</ele><time>2022-04-15T13:21:55Z</time><name>PT4039</name></trkpt>
<trkpt lat="52.944376" lon="-3.287457"><ele>563</ele><time>2022-04-15T13:21:59Z</time><name>PT4040</name></trkpt>
<trkpt lat="52.944370" lon="-3.287392"><ele>563</ele><time>2022-04-15T13:22:02Z</time><name>PT4041</name></trkpt>
<trkpt lat="52.944366" lon="-3.287313"><ele>563</ele><time>2022-04-15T13:22:05Z</time><name>PT4042</name></trkpt>
<trkpt lat="52.944356" lon="-3.287227"><ele>563</ele><time>2022-04-15T13:22:09Z</time><name>PT4043</name></trkpt>
<trkpt lat="52.944350" lon="-3.287141"><ele>562</ele><time>2022-04-15T13:22:13Z</time><name>PT4044</name></trkpt>
<trkpt lat="52.944346" lon="-3.287085"><ele>562</ele><time>2022-04-15T13:22:16Z</time><name>PT4045</name></trkpt>
<trkpt lat="52.944341" lon="-3.286995"><ele>561</ele><time>2022-04-15T13:22:20Z</time><name>PT4046</name></trkpt>
<trkpt lat="52.944339" lon="-3.286928"><ele>561</ele><time>2022-04-15T13:22:23Z</time><name>PT4047</name></trkpt>
<trkpt lat="52.944330" lon="-3.286842"><ele>560</ele><time>2022-04-15T13:22:27Z</time><name>PT4048</name></trkpt>
<trkpt lat="52.944330" lon="-3.286768"><ele>560</ele><time>2022-04-15T13:22:30Z</time><name>PT4049</name></trkpt>
<trkpt lat="52.944326" lon="-3.286683"><ele>560</ele><time>2022-04-15T13:22:34Z</time><name>PT4050</name></trkpt>
<trkpt lat="52.944326" lon="-3.286617"><ele>560</ele><time>2022-04-15T13:22:37Z</time><name>PT4051</name></trkpt>
<trkpt lat="52.944326" lon="-3.286554"><ele>559</ele><time>2022-04-15T13:22:40Z</time><name>PT4052</name></trkpt>
<trkpt lat="52.944323" lon="-3.286484"><ele>559</ele><time>2022-04-15T13:22:43Z</time><name>PT4053</name></trkpt>
<trkpt lat="52.944324" lon="-3.286397"><ele>559</ele><time>2022-04-15T13:22:47Z</time><name>PT4054</name></trkpt>
<trkpt lat="52.944321" lon="-3.286308"><ele>558</ele><time>2022-04-15T13:22:51Z</time><name>PT4055</name></trkpt>
<trkpt lat="52.944320" lon="-3.286211"><ele>558</ele><time>2022-04-15T13:22:55Z</time><name>PT4056</name></trkpt>
<trkpt lat="52.944314" lon="-3.286127"><ele>556</ele><time>2022-04-15T13:22:59Z</time><name>PT4057</name></trkpt>
<trkpt lat="52.944315" lon="-3.286052"><ele>556</ele><time>2022-04-15T13:23:02Z</time><name>PT4058</name></trkpt>
<trkpt lat="52.944325" lon="-3.285959"><ele>556</ele><time>2022-04-15T13:23:06Z</time><name>PT4059</name></trkpt>
<trkpt lat="52.944326" lon="-3.285893"><ele>555</ele><time>2022-04-15T13:23:09Z</time><name>PT4060</name></trkpt>
<trkpt lat="52.944326" lon="-3.285796"><ele>555</ele><time>2022-04-15T13:23:13Z</time><name>PT4061</name></trkpt>
<trkpt lat="52.944326" lon="-3.285733"><ele>554</ele><time>2022-04-15T13:23:16Z</time><name>PT4062</name></trkpt>
<trkpt lat="52.944321" lon="-3.285650"><ele>553</ele><time>2022-04-15T13:23:20Z</time><name>PT4063</name></trkpt>
<trkpt lat="52.944318" lon="-3.285575"><ele>553</ele><time>2022-04-15T13:23:23Z</time><name>PT4064</name></trkpt>
<trkpt lat="52.944320" lon="-3.285489"><ele>553</ele><time>2022-04-15T13:23:27Z</time><name>PT4065</name></trkpt>
<trkpt lat="52.944321" lon="-3.285419"><ele>552</ele><time>2022-04-15T13:23:30Z</time><name>PT4066</name></trkpt>
<trkpt lat="52.944317" lon="-3.285323"><ele>552</ele><time>2022-04-15T13:23:34Z</time><name>PT4067</name></trkpt>
<trkpt lat="52.944322" lon="-3.285231"><ele>552</ele><time>2022-04-15T13:23:38Z</time><name>PT4068</name></trkpt>
<trkpt lat="52.944322" lon="-3.285164"><ele>552</ele><time>2022-04-15T13:23:41Z</time><name>PT4069</name></trkpt>
<trkpt lat="52.944315" lon="-3.285065"><ele>551</ele><time>2022-04-15T13:23:45Z</time><name>PT4070</name></trkpt>
<trkpt lat="52.944315" lon="-3.284983"><ele>551</ele><time>2022-04-15T13:23:48Z</time><name>PT4071</name></trkpt>
<trkpt lat="52.944307" lon="-3.284902"><ele>550</ele><time>2022-04-15T13:23:52Z</time><name>PT4072</name></trkpt>
<trkpt lat="52.944301" lon="-3.284814"><ele>550</ele><time>2022-04-15T13:23:56Z</time><name>PT4073</name></trkpt>
<trkpt lat="52.944298" lon="-3.284741"><ele>550</ele><time>2022-04-15T13:23:59Z</time><name>PT4074</name></trkpt>
<trkpt lat="52.944290" lon="-3.284652"><ele>549</ele><time>2022-04-15T13:24:03Z</time><name>PT4075</name></trkpt>
<trkpt lat="52.944288" lon="-3.284560"><ele>548</ele><time>2022-04-15T13:24:07Z</time><name>PT4076</name></trkpt>
<trkpt lat="52.944289" lon="-3.284492"><ele>547</ele><time>2022-04-15T13:24:10Z</time><name>PT4077</name></trkpt>
<trkpt lat="52.944285" lon="-3.284415"><ele>547</ele><time>2022-04-15T13:24:13Z</time><name>PT4078</name></trkpt>
<trkpt lat="52.944283" lon="-3.284347"><ele>547</ele><time>2022-04-15T13:24:16Z</time><name>PT4079</name></trkpt>
<trkpt lat="52.944281" lon="-3.284253"><ele>547</ele><time>2022-04-15T13:24:20Z</time><name>PT4080</name></trkpt>
<trkpt lat="52.944278" lon="-3.284191"><ele>547</ele><time>2022-04-15T13:24:23Z</time><name>PT4081</name></trkpt>
<trkpt lat="52.944277" lon="-3.284104"><ele>546</ele><time>2022-04-15T13:24:27Z</time><name>PT4082</name></trkpt>
<trkpt lat="52.944275" lon="-3.284022"><ele>546</ele><time>2022-04-15T13:24:31Z</time><name>PT4083</name></trkpt>
<trkpt lat="52.944271" lon="-3.283951"><ele>545</ele><time>2022-04-15T13:24:34Z</time><name>PT4084</name></trkpt>
<trkpt lat="52.944273" lon="-3.283880"><ele>545</ele><time>2022-04-15T13:24:37Z</time><name>PT4085</name></trkpt>
<trkpt lat="52.944277" lon="-3.283777"><ele>544</ele><time>2022-04-15T13:24:41Z</time><name>PT4086</name></trkpt>
<trkpt lat="52.944271" lon="-3.283711"><ele>544</ele><time>2022-04-15T13:24:44Z</time><name>PT4087</name></trkpt>
<trkpt lat="52.944269" lon="-3.283624"><ele>544</ele><time>2022-04-15T13:24:48Z</time><name>PT4088</name></trkpt>
<trkpt lat="52.944261" lon="-3.283548"><ele>543</ele><time>2022-04-15T13:24:52Z</time><name>PT4089</name></trkpt>
<trkpt lat="52.944255" lon="-3.283453"><ele>542</ele><time>2022-04-15T13:24:56Z</time><name>PT4090</name></trkpt>
<trkpt lat="52.944252" lon="-3.283368"><ele>542</ele><time>2022-04-15T13:25:00Z</time><name>PT4091</name></trkpt>
<trkpt lat="52.944245" lon="-3.283307"><ele>541</ele><time>2022-04-15T13:25:03Z</time><name>PT4092</name></trkpt>
<trkpt lat="52.944242" lon="-3.283239"><ele>540</ele><time>2022-04-15T13:25:07Z</time><name>PT4093</name></trkpt>
<trkpt lat="52.944242" lon="-3.283201"><ele>540</ele><time>2022-04-15T13:25:10Z</time><name>PT4094</name></trkpt>
<trkpt lat="52.944243" lon="-3.283185"><ele>540</ele><time>2022-04-15T13:25:13Z</time><name>PT4095</name></trkpt>
<trkpt lat="52.944241" lon="-3.283148"><ele>540</ele><time>2022-04-15T13:25:47Z</time><name>PT4096</name></trkpt>
<trkpt lat="52.944242" lon="-3.283067"><ele>539</ele><time>2022-04-15T13:25:51Z</time><name>PT4097</name></trkpt>
<trkpt lat="52.944248" lon="-3.282988"><ele>538</ele><time>2022-04-15T13:25:55Z</time><name>PT4098</name></trkpt>
<trkpt lat="52.944252" lon="-3.282928"><ele>537</ele><time>2022-04-15T13:25:58Z</time><name>PT4099</name></trkpt>
<trkpt lat="52.944258" lon="-3.282833"><ele>538</ele><time>2022-04-15T13:26:02Z</time><name>PT4100</name></trkpt>
<trkpt lat="52.944267" lon="-3.282762"><ele>538</ele><time>2022-04-15T13:26:05Z</time><name>PT4101</name></trkpt>
<trkpt lat="52.944269" lon="-3.282679"><ele>537</ele><time>2022-04-15T13:26:09Z</time><name>PT4102</name></trkpt>
<trkpt lat="52.944273" lon="-3.282604"><ele>537</ele><time>2022-04-15T13:26:13Z</time><name>PT4103</name></trkpt>
<trkpt lat="52.944269" lon="-3.282519"><ele>536</ele><time>2022-04-15T13:26:17Z</time><name>PT4104</name></trkpt>
<trkpt lat="52.944271" lon="-3.282433"><ele>536</ele><time>2022-04-15T13:26:21Z</time><name>PT4105</name></trkpt>
<trkpt lat="52.944265" lon="-3.282379"><ele>535</ele><time>2022-04-15T13:26:24Z</time><name>PT4106</name></trkpt>
<trkpt lat="52.944264" lon="-3.282298"><ele>535</ele><time>2022-04-15T13:26:28Z</time><name>PT4107</name></trkpt>
<trkpt lat="52.944259" lon="-3.282235"><ele>534</ele><time>2022-04-15T13:26:31Z</time><name>PT4108</name></trkpt>
<trkpt lat="52.944260" lon="-3.282148"><ele>534</ele><time>2022-04-15T13:26:35Z</time><name>PT4109</name></trkpt>
<trkpt lat="52.944255" lon="-3.282092"><ele>534</ele><time>2022-04-15T13:26:38Z</time><name>PT4110</name></trkpt>
<trkpt lat="52.944252" lon="-3.282005"><ele>533</ele><time>2022-04-15T13:26:42Z</time><name>PT4111</name></trkpt>
<trkpt lat="52.944257" lon="-3.281912"><ele>533</ele><time>2022-04-15T13:26:46Z</time><name>PT4112</name></trkpt>
<trkpt lat="52.944261" lon="-3.281843"><ele>533</ele><time>2022-04-15T13:26:49Z</time><name>PT4113</name></trkpt>
<trkpt lat="52.944261" lon="-3.281776"><ele>533</ele><time>2022-04-15T13:26:52Z</time><name>PT4114</name></trkpt>
<trkpt lat="52.944264" lon="-3.281721"><ele>532</ele><time>2022-04-15T13:26:55Z</time><name>PT4115</name></trkpt>
<trkpt lat="52.944267" lon="-3.281645"><ele>531</ele><time>2022-04-15T13:26:59Z</time><name>PT4116</name></trkpt>
<trkpt lat="52.944267" lon="-3.281574"><ele>531</ele><time>2022-04-15T13:27:02Z</time><name>PT4117</name></trkpt>
<trkpt lat="52.944270" lon="-3.281479"><ele>530</ele><time>2022-04-15T13:27:06Z</time><name>PT4118</name></trkpt>
<trkpt lat="52.944266" lon="-3.281422"><ele>529</ele><time>2022-04-15T13:27:09Z</time><name>PT4119</name></trkpt>
<trkpt lat="52.944267" lon="-3.281326"><ele>529</ele><time>2022-04-15T13:27:13Z</time><name>PT4120</name></trkpt>
<trkpt lat="52.944270" lon="-3.281258"><ele>529</ele><time>2022-04-15T13:27:16Z</time><name>PT4121</name></trkpt>
<trkpt lat="52.944268" lon="-3.281167"><ele>528</ele><time>2022-04-15T13:27:20Z</time><name>PT4122</name></trkpt>
<trkpt lat="52.944273" lon="-3.281080"><ele>527</ele><time>2022-04-15T13:27:24Z</time><name>PT4123</name></trkpt>
<trkpt lat="52.944272" lon="-3.281023"><ele>526</ele><time>2022-04-15T13:27:27Z</time><name>PT4124</name></trkpt>
<trkpt lat="52.944270" lon="-3.280936"><ele>525</ele><time>2022-04-15T13:27:31Z</time><name>PT4125</name></trkpt>
<trkpt lat="52.944275" lon="-3.280844"><ele>524</ele><time>2022-04-15T13:27:35Z</time><name>PT4126</name></trkpt>
<trkpt lat="52.944282" lon="-3.280743"><ele>524</ele><time>2022-04-15T13:27:39Z</time><name>PT4127</name></trkpt>
<trkpt lat="52.944287" lon="-3.280643"><ele>524</ele><time>2022-04-15T13:27:43Z</time><name>PT4128</name></trkpt>
<trkpt lat="52.944287" lon="-3.280574"><ele>524</ele><time>2022-04-15T13:27:46Z</time><name>PT4129</name></trkpt>
<trkpt lat="52.944292" lon="-3.280478"><ele>523</ele><time>2022-04-15T13:27:50Z</time><name>PT4130</name></trkpt>
<trkpt lat="52.944297" lon="-3.280405"><ele>522</ele><time>2022-04-15T13:27:53Z</time><name>PT4131</name></trkpt>
<trkpt lat="52.944303" lon="-3.280341"><ele>523</ele><time>2022-04-15T13:27:56Z</time><name>PT4132</name></trkpt>
<trkpt lat="52.944304" lon="-3.280274"><ele>522</ele><time>2022-04-15T13:27:59Z</time><name>PT4133</name></trkpt>
<trkpt lat="52.944308" lon="-3.280188"><ele>522</ele><time>2022-04-15T13:28:03Z</time><name>PT4134</name></trkpt>
<trkpt lat="52.944303" lon="-3.280093"><ele>522</ele><time>2022-04-15T13:28:07Z</time><name>PT4135</name></trkpt>
<trkpt lat="52.944304" lon="-3.280019"><ele>522</ele><time>2022-04-15T13:28:10Z</time><name>PT4136</name></trkpt>
<trkpt lat="52.944299" lon="-3.279955"><ele>521</ele><time>2022-04-15T13:28:13Z</time><name>PT4137</name></trkpt>
<trkpt lat="52.944295" lon="-3.279884"><ele>521</ele><time>2022-04-15T13:28:16Z</time><name>PT4138</name></trkpt>
<trkpt lat="52.944295" lon="-3.279824"><ele>520</ele><time>2022-04-15T13:28:19Z</time><name>PT4139</name></trkpt>
<trkpt lat="52.944294" lon="-3.279739"><ele>519</ele><time>2022-04-15T13:28:23Z</time><name>PT4140</name></trkpt>
<trkpt lat="52.944293" lon="-3.279662"><ele>519</ele><time>2022-04-15T13:28:27Z</time><name>PT4141</name></trkpt>
<trkpt lat="52.944296" lon="-3.279598"><ele>519</ele><time>2022-04-15T13:28:30Z</time><name>PT4142</name></trkpt>
<trkpt lat="52.944296" lon="-3.279499"><ele>520</ele><time>2022-04-15T13:28:34Z</time><name>PT4143</name></trkpt>
<trkpt lat="52.944292" lon="-3.279406"><ele>519</ele><time>2022-04-15T13:28:38Z</time><name>PT4144</name></trkpt>
<trkpt lat="52.944287" lon="-3.279334"><ele>519</ele><time>2022-04-15T13:28:41Z</time><name>PT4145</name></trkpt>
<trkpt lat="52.944286" lon="-3.279247"><ele>519</ele><time>2022-04-15T13:28:45Z</time><name>PT4146</name></trkpt>
<trkpt lat="52.944282" lon="-3.279164"><ele>519</ele><time>2022-04-15T13:28:49Z</time><name>PT4147</name></trkpt>
<trkpt lat="52.944279" lon="-3.279078"><ele>518</ele><time>2022-04-15T13:28:53Z</time><name>PT4148</name></trkpt>
<trkpt lat="52.944279" lon="-3.278994"><ele>518</ele><time>2022-04-15T13:28:57Z</time><name>PT4149</name></trkpt>
<trkpt lat="52.944278" lon="-3.278912"><ele>517</ele><time>2022-04-15T13:29:01Z</time><name>PT4150</name></trkpt>
<trkpt lat="52.944278" lon="-3.278829"><ele>518</ele><time>2022-04-15T13:29:05Z</time><name>PT4151</name></trkpt>
<trkpt lat="52.944281" lon="-3.278741"><ele>518</ele><time>2022-04-15T13:29:09Z</time><name>PT4152</name></trkpt>
<trkpt lat="52.944284" lon="-3.278651"><ele>518</ele><time>2022-04-15T13:29:13Z</time><name>PT4153</name></trkpt>
<trkpt lat="52.944286" lon="-3.278564"><ele>518</ele><time>2022-04-15T13:29:17Z</time><name>PT4154</name></trkpt>
<trkpt lat="52.944289" lon="-3.278497"><ele>518</ele><time>2022-04-15T13:29:20Z</time><name>PT4155</name></trkpt>
<trkpt lat="52.944291" lon="-3.278411"><ele>517</ele><time>2022-04-15T13:29:24Z</time><name>PT4156</name></trkpt>
<trkpt lat="52.944290" lon="-3.278326"><ele>516</ele><time>2022-04-15T13:29:28Z</time><name>PT4157</name></trkpt>
<trkpt lat="52.944292" lon="-3.278238"><ele>516</ele><time>2022-04-15T13:29:32Z</time><name>PT4158</name></trkpt>
<trkpt lat="52.944292" lon="-3.278163"><ele>515</ele><time>2022-04-15T13:29:35Z</time><name>PT4159</name></trkpt>
<trkpt lat="52.944290" lon="-3.278096"><ele>516</ele><time>2022-04-15T13:29:38Z</time><name>PT4160</name></trkpt>
<trkpt lat="52.944286" lon="-3.278018"><ele>515</ele><time>2022-04-15T13:29:42Z</time><name>PT4161</name></trkpt>
<trkpt lat="52.944280" lon="-3.277933"><ele>515</ele><time>2022-04-15T13:29:46Z</time><name>PT4162</name></trkpt>
<trkpt lat="52.944268" lon="-3.277843"><ele>513</ele><time>2022-04-15T13:29:50Z</time><name>PT4163</name></trkpt>
<trkpt lat="52.944265" lon="-3.277777"><ele>512</ele><time>2022-04-15T13:29:53Z</time><name>PT4164</name></trkpt>
<trkpt lat="52.944258" lon="-3.277678"><ele>513</ele><time>2022-04-15T13:29:57Z</time><name>PT4165</name></trkpt>
<trkpt lat="52.944265" lon="-3.277596"><ele>513</ele><time>2022-04-15T13:30:01Z</time><name>PT4166</name></trkpt>
<trkpt lat="52.944259" lon="-3.277536"><ele>510</ele><time>2022-04-15T13:30:04Z</time><name>PT4167</name></trkpt>
<trkpt lat="52.944261" lon="-3.277446"><ele>509</ele><time>2022-04-15T13:30:08Z</time><name>PT4168</name></trkpt>
<trkpt lat="52.944271" lon="-3.277354"><ele>509</ele><time>2022-04-15T13:30:12Z</time><name>PT4169</name></trkpt>
<trkpt lat="52.944272" lon="-3.277263"><ele>509</ele><time>2022-04-15T13:30:16Z</time><name>PT4170</name></trkpt>
<trkpt lat="52.944276" lon="-3.277188"><ele>509</ele><time>2022-04-15T13:30:19Z</time><name>PT4171</name></trkpt>
<trkpt lat="52.944279" lon="-3.277096"><ele>509</ele><time>2022-04-15T13:30:23Z</time><name>PT4172</name></trkpt>
<trkpt lat="52.944288" lon="-3.276989"><ele>509</ele><time>2022-04-15T13:30:27Z</time><name>PT4173</name></trkpt>
<trkpt lat="52.944291" lon="-3.276875"><ele>509</ele><time>2022-04-15T13:30:31Z</time><name>PT4174</name></trkpt>
<trkpt lat="52.944295" lon="-3.276782"><ele>509</ele><time>2022-04-15T13:30:35Z</time><name>PT4175</name></trkpt>
<trkpt lat="52.944293" lon="-3.276725"><ele>509</ele><time>2022-04-15T13:30:38Z</time><name>PT4176</name></trkpt>
<trkpt lat="52.944289" lon="-3.276633"><ele>509</ele><time>2022-04-15T13:30:41Z</time><name>PT4177</name></trkpt>
<trkpt lat="52.944290" lon="-3.276537"><ele>510</ele><time>2022-04-15T13:30:45Z</time><name>PT4178</name></trkpt>
<trkpt lat="52.944289" lon="-3.276466"><ele>509</ele><time>2022-04-15T13:30:48Z</time><name>PT4179</name></trkpt>
<trkpt lat="52.944286" lon="-3.276366"><ele>509</ele><time>2022-04-15T13:30:52Z</time><name>PT4180</name></trkpt>
<trkpt lat="52.944287" lon="-3.276300"><ele>508</ele><time>2022-04-15T13:30:55Z</time><name>PT4181</name></trkpt>
<trkpt lat="52.944282" lon="-3.276218"><ele>507</ele><time>2022-04-15T13:30:59Z</time><name>PT4182</name></trkpt>
<trkpt lat="52.944281" lon="-3.276124"><ele>507</ele><time>2022-04-15T13:31:03Z</time><name>PT4183</name></trkpt>
<trkpt lat="52.944284" lon="-3.276025"><ele>506</ele><time>2022-04-15T13:31:07Z</time><name>PT4184</name></trkpt>
<trkpt lat="52.944285" lon="-3.275928"><ele>506</ele><time>2022-04-15T13:31:11Z</time><name>PT4185</name></trkpt>
<trkpt lat="52.944293" lon="-3.275832"><ele>506</ele><time>2022-04-15T13:31:15Z</time><name>PT4186</name></trkpt>
<trkpt lat="52.944296" lon="-3.275732"><ele>506</ele><time>2022-04-15T13:31:19Z</time><name>PT4187</name></trkpt>
<trkpt lat="52.944300" lon="-3.275660"><ele>506</ele><time>2022-04-15T13:31:22Z</time><name>PT4188</name></trkpt>
<trkpt lat="52.944313" lon="-3.275557"><ele>507</ele><time>2022-04-15T13:31:26Z</time><name>PT4189</name></trkpt>
<trkpt lat="52.944312" lon="-3.275459"><ele>507</ele><time>2022-04-15T13:31:30Z</time><name>PT4190</name></trkpt>
<trkpt lat="52.944318" lon="-3.275388"><ele>507</ele><time>2022-04-15T13:31:33Z</time><name>PT4191</name></trkpt>
<trkpt lat="52.944324" lon="-3.275298"><ele>506</ele><time>2022-04-15T13:31:37Z</time><name>PT4192</name></trkpt>
<trkpt lat="52.944327" lon="-3.275214"><ele>506</ele><time>2022-04-15T13:31:40Z</time><name>PT4193</name></trkpt>
<trkpt lat="52.944335" lon="-3.275145"><ele>506</ele><time>2022-04-15T13:31:43Z</time><name>PT4194</name></trkpt>
<trkpt lat="52.944340" lon="-3.275079"><ele>505</ele><time>2022-04-15T13:31:46Z</time><name>PT4195</name></trkpt>
<trkpt lat="52.944345" lon="-3.274970"><ele>505</ele><time>2022-04-15T13:31:50Z</time><name>PT4196</name></trkpt>
<trkpt lat="52.944355" lon="-3.274897"><ele>507</ele><time>2022-04-15T13:31:53Z</time><name>PT4197</name></trkpt>
<trkpt lat="52.944362" lon="-3.274808"><ele>506</ele><time>2022-04-15T13:31:57Z</time><name>PT4198</name></trkpt>
<trkpt lat="52.944368" lon="-3.274710"><ele>506</ele><time>2022-04-15T13:32:01Z</time><name>PT4199</name></trkpt>
<trkpt lat="52.944369" lon="-3.274643"><ele>506</ele><time>2022-04-15T13:32:04Z</time><name>PT4200</name></trkpt>
<trkpt lat="52.944369" lon="-3.274561"><ele>506</ele><time>2022-04-15T13:32:08Z</time><name>PT4201</name></trkpt>
<trkpt lat="52.944372" lon="-3.274481"><ele>505</ele><time>2022-04-15T13:32:11Z</time><name>PT4202</name></trkpt>
<trkpt lat="52.944385" lon="-3.274386"><ele>506</ele><time>2022-04-15T13:32:15Z</time><name>PT4203</name></trkpt>
<trkpt lat="52.944388" lon="-3.274322"><ele>506</ele><time>2022-04-15T13:32:18Z</time><name>PT4204</name></trkpt>
<trkpt lat="52.944391" lon="-3.274251"><ele>506</ele><time>2022-04-15T13:32:21Z</time><name>PT4205</name></trkpt>
<trkpt lat="52.944399" lon="-3.274166"><ele>506</ele><time>2022-04-15T13:32:25Z</time><name>PT4206</name></trkpt>
<trkpt lat="52.944404" lon="-3.274101"><ele>506</ele><time>2022-04-15T13:32:28Z</time><name>PT4207</name></trkpt>
<trkpt lat="52.944408" lon="-3.274009"><ele>505</ele><time>2022-04-15T13:32:32Z</time><name>PT4208</name></trkpt>
<trkpt lat="52.944419" lon="-3.273948"><ele>505</ele><time>2022-04-15T13:32:35Z</time><name>PT4209</name></trkpt>
<trkpt lat="52.944434" lon="-3.273862"><ele>505</ele><time>2022-04-15T13:32:39Z</time><name>PT4210</name></trkpt>
<trkpt lat="52.944445" lon="-3.273779"><ele>505</ele><time>2022-04-15T13:32:43Z</time><name>PT4211</name></trkpt>
<trkpt lat="52.944455" lon="-3.273692"><ele>504</ele><time>2022-04-15T13:32:47Z</time><name>PT4212</name></trkpt>
<trkpt lat="52.944463" lon="-3.273602"><ele>504</ele><time>2022-04-15T13:32:50Z</time><name>PT4213</name></trkpt>
<trkpt lat="52.944475" lon="-3.273503"><ele>503</ele><time>2022-04-15T13:32:54Z</time><name>PT4214</name></trkpt>
<trkpt lat="52.944479" lon="-3.273441"><ele>503</ele><time>2022-04-15T13:32:57Z</time><name>PT4215</name></trkpt>
<trkpt lat="52.944480" lon="-3.273355"><ele>503</ele><time>2022-04-15T13:33:01Z</time><name>PT4216</name></trkpt>
<trkpt lat="52.944493" lon="-3.273272"><ele>503</ele><time>2022-04-15T13:33:05Z</time><name>PT4217</name></trkpt>
<trkpt lat="52.944501" lon="-3.273175"><ele>504</ele><time>2022-04-15T13:33:09Z</time><name>PT4218</name></trkpt>
<trkpt lat="52.944509" lon="-3.273104"><ele>504</ele><time>2022-04-15T13:33:13Z</time><name>PT4219</name></trkpt>
<trkpt lat="52.944505" lon="-3.273033"><ele>502</ele><time>2022-04-15T13:33:17Z</time><name>PT4220</name></trkpt>
<trkpt lat="52.944504" lon="-3.273011"><ele>501</ele><time>2022-04-15T13:33:20Z</time><name>PT4221</name></trkpt>
<trkpt lat="52.944504" lon="-3.273000"><ele>502</ele><time>2022-04-15T13:33:24Z</time><name>PT4222</name></trkpt>
<trkpt lat="52.944503" lon="-3.272980"><ele>502</ele><time>2022-04-15T13:33:28Z</time><name>PT4223</name></trkpt>
<trkpt lat="52.944504" lon="-3.272971"><ele>501</ele><time>2022-04-15T13:33:31Z</time><name>PT4224</name></trkpt>
<trkpt lat="52.944490" lon="-3.272968"><ele>502</ele><time>2022-04-15T13:33:35Z</time><name>PT4225</name></trkpt>
<trkpt lat="52.944490" lon="-3.272955"><ele>502</ele><time>2022-04-15T13:33:38Z</time><name>PT4226</name></trkpt>
<trkpt lat="52.944498" lon="-3.272955"><ele>500</ele><time>2022-04-15T13:33:42Z</time><name>PT4227</name></trkpt>
<trkpt lat="52.944508" lon="-3.272928"><ele>500</ele><time>2022-04-15T13:33:45Z</time><name>PT4228</name></trkpt>
<trkpt lat="52.944516" lon="-3.272893"><ele>500</ele><time>2022-04-15T13:33:49Z</time><name>PT4229</name></trkpt>
<trkpt lat="52.944515" lon="-3.272900"><ele>500</ele><time>2022-04-15T13:33:52Z</time><name>PT4230</name></trkpt>
<trkpt lat="52.944534" lon="-3.272907"><ele>500</ele><time>2022-04-15T13:35:18Z</time><name>PT4231</name></trkpt>
<trkpt lat="52.944583" lon="-3.272893"><ele>499</ele><time>2022-04-15T13:35:22Z</time><name>PT4232</name></trkpt>
<trkpt lat="52.944625" lon="-3.272887"><ele>498</ele><time>2022-04-15T13:35:26Z</time><name>PT4233</name></trkpt>
<trkpt lat="52.944667" lon="-3.272890"><ele>498</ele><time>2022-04-15T13:35:30Z</time><name>PT4234</name></trkpt>
<trkpt lat="52.944700" lon="-3.272892"><ele>497</ele><time>2022-04-15T13:35:33Z</time><name>PT4235</name></trkpt>
<trkpt lat="52.944749" lon="-3.272893"><ele>497</ele><time>2022-04-15T13:35:37Z</time><name>PT4236</name></trkpt>
<trkpt lat="52.944784" lon="-3.272898"><ele>498</ele><time>2022-04-15T13:35:40Z</time><name>PT4237</name></trkpt>
<trkpt lat="52.944834" lon="-3.272908"><ele>497</ele><time>2022-04-15T13:35:44Z</time><name>PT4238</name></trkpt>
<trkpt lat="52.944886" lon="-3.272912"><ele>498</ele><time>2022-04-15T13:35:48Z</time><name>PT4239</name></trkpt>
<trkpt lat="52.944925" lon="-3.272909"><ele>498</ele><time>2022-04-15T13:35:51Z</time><name>PT4240</name></trkpt>
<trkpt lat="52.944979" lon="-3.272911"><ele>498</ele><time>2022-04-15T13:35:55Z</time><name>PT4241</name></trkpt>
<trkpt lat="52.945037" lon="-3.272927"><ele>499</ele><time>2022-04-15T13:35:59Z</time><name>PT4242</name></trkpt>
<trkpt lat="52.945092" lon="-3.272925"><ele>498</ele><time>2022-04-15T13:36:03Z</time><name>PT4243</name></trkpt>
<trkpt lat="52.945154" lon="-3.272931"><ele>498</ele><time>2022-04-15T13:36:07Z</time><name>PT4244</name></trkpt>
<trkpt lat="52.945194" lon="-3.272935"><ele>499</ele><time>2022-04-15T13:36:10Z</time><name>PT4245</name></trkpt>
<trkpt lat="52.945250" lon="-3.272940"><ele>498</ele><time>2022-04-15T13:36:14Z</time><name>PT4246</name></trkpt>
<trkpt lat="52.945298" lon="-3.272958"><ele>499</ele><time>2022-04-15T13:36:17Z</time><name>PT4247</name></trkpt>
<trkpt lat="52.945350" lon="-3.272964"><ele>499</ele><time>2022-04-15T13:36:21Z</time><name>PT4248</name></trkpt>
<trkpt lat="52.945397" lon="-3.272960"><ele>499</ele><time>2022-04-15T13:36:24Z</time><name>PT4249</name></trkpt>
<trkpt lat="52.945439" lon="-3.272960"><ele>499</ele><time>2022-04-15T13:36:27Z</time><name>PT4250</name></trkpt>
<trkpt lat="52.945462" lon="-3.272938"><ele>499</ele><time>2022-04-15T13:36:31Z</time><name>PT4251</name></trkpt>
<trkpt lat="52.945478" lon="-3.272907"><ele>498</ele><time>2022-04-15T13:36:35Z</time><name>PT4252</name></trkpt>
<trkpt lat="52.945489" lon="-3.272851"><ele>493</ele><time>2022-04-15T13:36:39Z</time><name>PT4253</name></trkpt>
<trkpt lat="52.945515" lon="-3.272792"><ele>493</ele><time>2022-04-15T13:36:42Z</time><name>PT4254</name></trkpt>
<trkpt lat="52.945548" lon="-3.272719"><ele>494</ele><time>2022-04-15T13:36:46Z</time><name>PT4255</name></trkpt>
<trkpt lat="52.945581" lon="-3.272642"><ele>495</ele><time>2022-04-15T13:36:50Z</time><name>PT4256</name></trkpt>
<trkpt lat="52.945610" lon="-3.272592"><ele>495</ele><time>2022-04-15T13:36:53Z</time><name>PT4257</name></trkpt>
<trkpt lat="52.945641" lon="-3.272538"><ele>495</ele><time>2022-04-15T13:36:56Z</time><name>PT4258</name></trkpt>
<trkpt lat="52.945673" lon="-3.272467"><ele>494</ele><time>2022-04-15T13:37:00Z</time><name>PT4259</name></trkpt>
<trkpt lat="52.945710" lon="-3.272388"><ele>495</ele><time>2022-04-15T13:37:04Z</time><name>PT4260</name></trkpt>
<trkpt lat="52.945741" lon="-3.272337"><ele>496</ele><time>2022-04-15T13:37:07Z</time><name>PT4261</name></trkpt>
<trkpt lat="52.945769" lon="-3.272271"><ele>495</ele><time>2022-04-15T13:37:11Z</time><name>PT4262</name></trkpt>
<trkpt lat="52.945795" lon="-3.272220"><ele>495</ele><time>2022-04-15T13:37:14Z</time><name>PT4263</name></trkpt>
<trkpt lat="52.945833" lon="-3.272155"><ele>495</ele><time>2022-04-15T13:37:18Z</time><name>PT4264</name></trkpt>
<trkpt lat="52.945854" lon="-3.272096"><ele>494</ele><time>2022-04-15T13:37:21Z</time><name>PT4265</name></trkpt>
<trkpt lat="52.945878" lon="-3.272050"><ele>494</ele><time>2022-04-15T13:37:24Z</time><name>PT4266</name></trkpt>
<trkpt lat="52.945914" lon="-3.271980"><ele>494</ele><time>2022-04-15T13:37:28Z</time><name>PT4267</name></trkpt>
<trkpt lat="52.945940" lon="-3.271910"><ele>493</ele><time>2022-04-15T13:37:32Z</time><name>PT4268</name></trkpt>
<trkpt lat="52.945973" lon="-3.271849"><ele>494</ele><time>2022-04-15T13:37:35Z</time><name>PT4269</name></trkpt>
<trkpt lat="52.945995" lon="-3.271797"><ele>494</ele><time>2022-04-15T13:37:38Z</time><name>PT4270</name></trkpt>
<trkpt lat="52.946029" lon="-3.271722"><ele>494</ele><time>2022-04-15T13:37:42Z</time><name>PT4271</name></trkpt>
<trkpt lat="52.946065" lon="-3.271663"><ele>493</ele><time>2022-04-15T13:37:46Z</time><name>PT4272</name></trkpt>
<trkpt lat="52.946109" lon="-3.271599"><ele>493</ele><time>2022-04-15T13:37:50Z</time><name>PT4273</name></trkpt>
<trkpt lat="52.946154" lon="-3.271540"><ele>493</ele><time>2022-04-15T13:37:54Z</time><name>PT4274</name></trkpt>
<trkpt lat="52.946189" lon="-3.271477"><ele>492</ele><time>2022-04-15T13:37:58Z</time><name>PT4275</name></trkpt>
<trkpt lat="52.946226" lon="-3.271422"><ele>492</ele><time>2022-04-15T13:38:02Z</time><name>PT4276</name></trkpt>
<trkpt lat="52.946258" lon="-3.271365"><ele>492</ele><time>2022-04-15T13:38:06Z</time><name>PT4277</name></trkpt>
<trkpt lat="52.946283" lon="-3.271322"><ele>491</ele><time>2022-04-15T13:38:09Z</time><name>PT4278</name></trkpt>
<trkpt lat="52.946313" lon="-3.271276"><ele>492</ele><time>2022-04-15T13:38:12Z</time><name>PT4279</name></trkpt>
<trkpt lat="52.946349" lon="-3.271216"><ele>491</ele><time>2022-04-15T13:38:16Z</time><name>PT4280</name></trkpt>
<trkpt lat="52.946396" lon="-3.271156"><ele>491</ele><time>2022-04-15T13:38:20Z</time><name>PT4281</name></trkpt>
<trkpt lat="52.946424" lon="-3.271115"><ele>490</ele><time>2022-04-15T13:38:23Z</time><name>PT4282</name></trkpt>
<trkpt lat="52.946459" lon="-3.271056"><ele>489</ele><time>2022-04-15T13:38:27Z</time><name>PT4283</name></trkpt>
<trkpt lat="52.946500" lon="-3.270999"><ele>489</ele><time>2022-04-15T13:38:31Z</time><name>PT4284</name></trkpt>
<trkpt lat="52.946527" lon="-3.270953"><ele>489</ele><time>2022-04-15T13:38:34Z</time><name>PT4285</name></trkpt>
<trkpt lat="52.946563" lon="-3.270907"><ele>488</ele><time>2022-04-15T13:38:37Z</time><name>PT4286</name></trkpt>
<trkpt lat="52.946596" lon="-3.270849"><ele>488</ele><time>2022-04-15T13:38:41Z</time><name>PT4287</name></trkpt>
<trkpt lat="52.946622" lon="-3.270809"><ele>488</ele><time>2022-04-15T13:38:45Z</time><name>PT4288</name></trkpt>
<trkpt lat="52.946651" lon="-3.270771"><ele>488</ele><time>2022-04-15T13:38:48Z</time><name>PT4289</name></trkpt>
<trkpt lat="52.946684" lon="-3.270715"><ele>487</ele><time>2022-04-15T13:38:52Z</time><name>PT4290</name></trkpt>
<trkpt lat="52.946721" lon="-3.270660"><ele>487</ele><time>2022-04-15T13:38:56Z</time><name>PT4291</name></trkpt>
<trkpt lat="52.946756" lon="-3.270610"><ele>487</ele><time>2022-04-15T13:39:00Z</time><name>PT4292</name></trkpt>
<trkpt lat="52.946776" lon="-3.270580"><ele>487</ele><time>2022-04-15T13:39:03Z</time><name>PT4293</name></trkpt>
<trkpt lat="52.946790" lon="-3.270537"><ele>488</ele><time>2022-04-15T13:39:06Z</time><name>PT4294</name></trkpt>
<trkpt lat="52.946796" lon="-3.270510"><ele>489</ele><time>2022-04-15T13:39:09Z</time><name>PT4295</name></trkpt>
<trkpt lat="52.946799" lon="-3.270508"><ele>489</ele><time>2022-04-15T13:39:13Z</time><name>PT4296</name></trkpt>
<trkpt lat="52.946798" lon="-3.270502"><ele>489</ele><time>2022-04-15T13:39:27Z</time><name>PT4297</name></trkpt>
<trkpt lat="52.946799" lon="-3.270499"><ele>489</ele><time>2022-04-15T13:39:31Z</time><name>PT4298</name></trkpt>
<trkpt lat="52.946787" lon="-3.270478"><ele>488</ele><time>2022-04-15T13:41:33Z</time><name>PT4299</name></trkpt>
<trkpt lat="52.946761" lon="-3.270433"><ele>487</ele><time>2022-04-15T13:41:37Z</time><name>PT4300</name></trkpt>
<trkpt lat="52.946745" lon="-3.270374"><ele>486</ele><time>2022-04-15T13:41:41Z</time><name>PT4301</name></trkpt>
<trkpt lat="52.946762" lon="-3.270326"><ele>485</ele><time>2022-04-15T13:41:45Z</time><name>PT4302</name></trkpt>
<trkpt lat="52.946785" lon="-3.270303"><ele>486</ele><time>2022-04-15T13:41:48Z</time><name>PT4303</name></trkpt>
<trkpt lat="52.946822" lon="-3.270271"><ele>485</ele><time>2022-04-15T13:41:52Z</time><name>PT4304</name></trkpt>
<trkpt lat="52.946849" lon="-3.270245"><ele>484</ele><time>2022-04-15T13:41:55Z</time><name>PT4305</name></trkpt>
<trkpt lat="52.946892" lon="-3.270222"><ele>484</ele><time>2022-04-15T13:41:59Z</time><name>PT4306</name></trkpt>
<trkpt lat="52.946920" lon="-3.270215"><ele>483</ele><time>2022-04-15T13:42:02Z</time><name>PT4307</name></trkpt>
<trkpt lat="52.946952" lon="-3.270213"><ele>483</ele><time>2022-04-15T13:42:05Z</time><name>PT4308</name></trkpt>
<trkpt lat="52.946990" lon="-3.270211"><ele>481</ele><time>2022-04-15T13:42:09Z</time><name>PT4309</name></trkpt>
<trkpt lat="52.947027" lon="-3.270228"><ele>480</ele><time>2022-04-15T13:42:12Z</time><name>PT4310</name></trkpt>
<trkpt lat="52.947074" lon="-3.270235"><ele>479</ele><time>2022-04-15T13:42:16Z</time><name>PT4311</name></trkpt>
<trkpt lat="52.947111" lon="-3.270251"><ele>480</ele><time>2022-04-15T13:42:19Z</time><name>PT4312</name></trkpt>
<trkpt lat="52.947160" lon="-3.270255"><ele>481</ele><time>2022-04-15T13:42:23Z</time><name>PT4313</name></trkpt>
<trkpt lat="52.947208" lon="-3.270243"><ele>481</ele><time>2022-04-15T13:42:27Z</time><name>PT4314</name></trkpt>
<trkpt lat="52.947238" lon="-3.270246"><ele>481</ele><time>2022-04-15T13:42:30Z</time><name>PT4315</name></trkpt>
<trkpt lat="52.947271" lon="-3.270246"><ele>481</ele><time>2022-04-15T13:42:33Z</time><name>PT4316</name></trkpt>
<trkpt lat="52.947309" lon="-3.270257"><ele>481</ele><time>2022-04-15T13:42:36Z</time><name>PT4317</name></trkpt>
<trkpt lat="52.947321" lon="-3.270258"><ele>481</ele><time>2022-04-15T13:42:37Z</time><name>PT4318</name></trkpt>
<trkpt lat="52.947334" lon="-3.270263"><ele>480</ele><time>2022-04-15T13:42:38Z</time><name>PT4319</name></trkpt>
<trkpt lat="52.947345" lon="-3.270265"><ele>480</ele><time>2022-04-15T13:42:39Z</time><name>PT4320</name></trkpt>
<trkpt lat="52.947354" lon="-3.270263"><ele>480</ele><time>2022-04-15T13:42:40Z</time><name>PT4321</name></trkpt>
<trkpt lat="52.947362" lon="-3.270268"><ele>479</ele><time>2022-04-15T13:42:41Z</time><name>PT4322</name></trkpt>
<trkpt lat="52.947371" lon="-3.270267"><ele>479</ele><time>2022-04-15T13:42:42Z</time><name>PT4323</name></trkpt>
<trkpt lat="52.947383" lon="-3.270269"><ele>479</ele><time>2022-04-15T13:42:43Z</time><name>PT4324</name></trkpt>
<trkpt lat="52.947396" lon="-3.270273"><ele>479</ele><time>2022-04-15T13:42:44Z</time><name>PT4325</name></trkpt>
<trkpt lat="52.947410" lon="-3.270277"><ele>479</ele><time>2022-04-15T13:42:45Z</time><name>PT4326</name></trkpt>
<trkpt lat="52.947424" lon="-3.270280"><ele>479</ele><time>2022-04-15T13:42:46Z</time><name>PT4327</name></trkpt>
<trkpt lat="52.947435" lon="-3.270284"><ele>479</ele><time>2022-04-15T13:42:47Z</time><name>PT4328</name></trkpt>
<trkpt lat="52.947447" lon="-3.270287"><ele>479</ele><time>2022-04-15T13:42:48Z</time><name>PT4329</name></trkpt>
<trkpt lat="52.947460" lon="-3.270289"><ele>479</ele><time>2022-04-15T13:42:49Z</time><name>PT4330</name></trkpt>
<trkpt lat="52.947474" lon="-3.270292"><ele>479</ele><time>2022-04-15T13:42:50Z</time><name>PT4331</name></trkpt>
<trkpt lat="52.947488" lon="-3.270296"><ele>479</ele><time>2022-04-15T13:42:51Z</time><name>PT4332</name></trkpt>
<trkpt lat="52.947501" lon="-3.270300"><ele>479</ele><time>2022-04-15T13:42:52Z</time><name>PT4333</name></trkpt>
<trkpt lat="52.947514" lon="-3.270304"><ele>480</ele><time>2022-04-15T13:42:53Z</time><name>PT4334</name></trkpt>
<trkpt lat="52.947528" lon="-3.270311"><ele>480</ele><time>2022-04-15T13:42:54Z</time><name>PT4335</name></trkpt>
<trkpt lat="52.947540" lon="-3.270318"><ele>479</ele><time>2022-04-15T13:42:55Z</time><name>PT4336</name></trkpt>
<trkpt lat="52.947552" lon="-3.270323"><ele>479</ele><time>2022-04-15T13:42:56Z</time><name>PT4337</name></trkpt>
<trkpt lat="52.947563" lon="-3.270327"><ele>479</ele><time>2022-04-15T13:42:57Z</time><name>PT4338</name></trkpt>
<trkpt lat="52.947574" lon="-3.270331"><ele>479</ele><time>2022-04-15T13:42:58Z</time><name>PT4339</name></trkpt>
<trkpt lat="52.947588" lon="-3.270335"><ele>479</ele><time>2022-04-15T13:42:59Z</time><name>PT4340</name></trkpt>
<trkpt lat="52.947601" lon="-3.270341"><ele>479</ele><time>2022-04-15T13:43:00Z</time><name>PT4341</name></trkpt>
<trkpt lat="52.947613" lon="-3.270348"><ele>479</ele><time>2022-04-15T13:43:01Z</time><name>PT4342</name></trkpt>
<trkpt lat="52.947626" lon="-3.270355"><ele>479</ele><time>2022-04-15T13:43:02Z</time><name>PT4343</name></trkpt>
<trkpt lat="52.947639" lon="-3.270361"><ele>479</ele><time>2022-04-15T13:43:03Z</time><name>PT4344</name></trkpt>
<trkpt lat="52.947650" lon="-3.270367"><ele>479</ele><time>2022-04-15T13:43:04Z</time><name>PT4345</name></trkpt>
<trkpt lat="52.947662" lon="-3.270369"><ele>479</ele><time>2022-04-15T13:43:05Z</time><name>PT4346</name></trkpt>
<trkpt lat="52.947674" lon="-3.270370"><ele>478</ele><time>2022-04-15T13:43:06Z</time><name>PT4347</name></trkpt>
<trkpt lat="52.947684" lon="-3.270371"><ele>478</ele><time>2022-04-15T13:43:07Z</time><name>PT4348</name></trkpt>
<trkpt lat="52.947694" lon="-3.270372"><ele>477</ele><time>2022-04-15T13:43:08Z</time><name>PT4349</name></trkpt>
<trkpt lat="52.947707" lon="-3.270374"><ele>477</ele><time>2022-04-15T13:43:09Z</time><name>PT4350</name></trkpt>
<trkpt lat="52.947722" lon="-3.270376"><ele>478</ele><time>2022-04-15T13:43:10Z</time><name>PT4351</name></trkpt>
<trkpt lat="52.947735" lon="-3.270378"><ele>477</ele><time>2022-04-15T13:43:11Z</time><name>PT4352</name></trkpt>
<trkpt lat="52.947749" lon="-3.270381"><ele>477</ele><time>2022-04-15T13:43:12Z</time><name>PT4353</name></trkpt>
<trkpt lat="52.947763" lon="-3.270379"><ele>477</ele><time>2022-04-15T13:43:13Z</time><name>PT4354</name></trkpt>
<trkpt lat="52.947775" lon="-3.270378"><ele>477</ele><time>2022-04-15T13:43:14Z</time><name>PT4355</name></trkpt>
<trkpt lat="52.947791" lon="-3.270374"><ele>477</ele><time>2022-04-15T13:43:15Z</time><name>PT4356</name></trkpt>
<trkpt lat="52.947804" lon="-3.270374"><ele>477</ele><time>2022-04-15T13:43:16Z</time><name>PT4357</name></trkpt>
<trkpt lat="52.947818" lon="-3.270375"><ele>477</ele><time>2022-04-15T13:43:17Z</time><name>PT4358</name></trkpt>
<trkpt lat="52.947834" lon="-3.270376"><ele>478</ele><time>2022-04-15T13:43:18Z</time><name>PT4359</name></trkpt>
<trkpt lat="52.947846" lon="-3.270378"><ele>477</ele><time>2022-04-15T13:43:19Z</time><name>PT4360</name></trkpt>
<trkpt lat="52.947857" lon="-3.270378"><ele>477</ele><time>2022-04-15T13:43:20Z</time><name>PT4361</name></trkpt>
<trkpt lat="52.947869" lon="-3.270375"><ele>478</ele><time>2022-04-15T13:43:21Z</time><name>PT4362</name></trkpt>
<trkpt lat="52.947879" lon="-3.270373"><ele>477</ele><time>2022-04-15T13:43:22Z</time><name>PT4363</name></trkpt>
<trkpt lat="52.947892" lon="-3.270374"><ele>477</ele><time>2022-04-15T13:43:23Z</time><name>PT4364</name></trkpt>
<trkpt lat="52.947904" lon="-3.270376"><ele>477</ele><time>2022-04-15T13:43:24Z</time><name>PT4365</name></trkpt>
<trkpt lat="52.947919" lon="-3.270380"><ele>477</ele><time>2022-04-15T13:43:25Z</time><name>PT4366</name></trkpt>
<trkpt lat="52.947933" lon="-3.270384"><ele>477</ele><time>2022-04-15T13:43:26Z</time><name>PT4367</name></trkpt>
<trkpt lat="52.947945" lon="-3.270387"><ele>476</ele><time>2022-04-15T13:43:27Z</time><name>PT4368</name></trkpt>
<trkpt lat="52.947957" lon="-3.270389"><ele>476</ele><time>2022-04-15T13:43:28Z</time><name>PT4369</name></trkpt>
<trkpt lat="52.947967" lon="-3.270390"><ele>476</ele><time>2022-04-15T13:43:29Z</time><name>PT4370</name></trkpt>
<trkpt lat="52.947978" lon="-3.270394"><ele>475</ele><time>2022-04-15T13:43:30Z</time><name>PT4371</name></trkpt>
<trkpt lat="52.947990" lon="-3.270396"><ele>475</ele><time>2022-04-15T13:43:31Z</time><name>PT4372</name></trkpt>
<trkpt lat="52.948003" lon="-3.270398"><ele>475</ele><time>2022-04-15T13:43:32Z</time><name>PT4373</name></trkpt>
<trkpt lat="52.948015" lon="-3.270406"><ele>475</ele><time>2022-04-15T13:43:33Z</time><name>PT4374</name></trkpt>
<trkpt lat="52.948030" lon="-3.270415"><ele>475</ele><time>2022-04-15T13:43:34Z</time><name>PT4375</name></trkpt>
<trkpt lat="52.948042" lon="-3.270422"><ele>474</ele><time>2022-04-15T13:43:35Z</time><name>PT4376</name></trkpt>
<trkpt lat="52.948054" lon="-3.270428"><ele>474</ele><time>2022-04-15T13:43:36Z</time><name>PT4377</name></trkpt>
<trkpt lat="52.948066" lon="-3.270434"><ele>474</ele><time>2022-04-15T13:43:37Z</time><name>PT4378</name></trkpt>
<trkpt lat="52.948079" lon="-3.270444"><ele>474</ele><time>2022-04-15T13:43:38Z</time><name>PT4379</name></trkpt>
<trkpt lat="52.948092" lon="-3.270454"><ele>474</ele><time>2022-04-15T13:43:39Z</time><name>PT4380</name></trkpt>
<trkpt lat="52.948103" lon="-3.270466"><ele>475</ele><time>2022-04-15T13:43:40Z</time><name>PT4381</name></trkpt>
<trkpt lat="52.948115" lon="-3.270480"><ele>475</ele><time>2022-04-15T13:43:41Z</time><name>PT4382</name></trkpt>
<trkpt lat="52.948125" lon="-3.270487"><ele>475</ele><time>2022-04-15T13:43:42Z</time><name>PT4383</name></trkpt>
<trkpt lat="52.948137" lon="-3.270494"><ele>475</ele><time>2022-04-15T13:43:43Z</time><name>PT4384</name></trkpt>
<trkpt lat="52.948148" lon="-3.270502"><ele>474</ele><time>2022-04-15T13:43:44Z</time><name>PT4385</name></trkpt>
<trkpt lat="52.948158" lon="-3.270512"><ele>474</ele><time>2022-04-15T13:43:45Z</time><name>PT4386</name></trkpt>
<trkpt lat="52.948168" lon="-3.270519"><ele>474</ele><time>2022-04-15T13:43:46Z</time><name>PT4387</name></trkpt>
<trkpt lat="52.948179" lon="-3.270529"><ele>474</ele><time>2022-04-15T13:43:47Z</time><name>PT4388</name></trkpt>
<trkpt lat="52.948190" lon="-3.270542"><ele>473</ele><time>2022-04-15T13:43:48Z</time><name>PT4389</name></trkpt>
<trkpt lat="52.948201" lon="-3.270553"><ele>473</ele><time>2022-04-15T13:43:49Z</time><name>PT4390</name></trkpt>
<trkpt lat="52.948214" lon="-3.270557"><ele>473</ele><time>2022-04-15T13:43:50Z</time><name>PT4391</name></trkpt>
<trkpt lat="52.948226" lon="-3.270561"><ele>473</ele><time>2022-04-15T13:43:51Z</time><name>PT4392</name></trkpt>
<trkpt lat="52.948240" lon="-3.270568"><ele>473</ele><time>2022-04-15T13:43:52Z</time><name>PT4393</name></trkpt>
<trkpt lat="52.948253" lon="-3.270576"><ele>473</ele><time>2022-04-15T13:43:53Z</time><name>PT4394</name></trkpt>
<trkpt lat="52.948265" lon="-3.270584"><ele>473</ele><time>2022-04-15T13:43:54Z</time><name>PT4395</name></trkpt>
<trkpt lat="52.948276" lon="-3.270590"><ele>473</ele><time>2022-04-15T13:43:55Z</time><name>PT4396</name></trkpt>
<trkpt lat="52.948287" lon="-3.270598"><ele>473</ele><time>2022-04-15T13:43:56Z</time><name>PT4397</name></trkpt>
<trkpt lat="52.948297" lon="-3.270604"><ele>472</ele><time>2022-04-15T13:43:57Z</time><name>PT4398</name></trkpt>
<trkpt lat="52.948306" lon="-3.270609"><ele>472</ele><time>2022-04-15T13:43:58Z</time><name>PT4399</name></trkpt>
<trkpt lat="52.948318" lon="-3.270613"><ele>472</ele><time>2022-04-15T13:43:59Z</time><name>PT4400</name></trkpt>
<trkpt lat="52.948333" lon="-3.270617"><ele>472</ele><time>2022-04-15T13:44:00Z</time><name>PT4401</name></trkpt>
<trkpt lat="52.948347" lon="-3.270620"><ele>472</ele><time>2022-04-15T13:44:01Z</time><name>PT4402</name></trkpt>
<trkpt lat="52.948358" lon="-3.270628"><ele>472</ele><time>2022-04-15T13:44:02Z</time><name>PT4403</name></trkpt>
<trkpt lat="52.948365" lon="-3.270635"><ele>472</ele><time>2022-04-15T13:44:03Z</time><name>PT4404</name></trkpt>
<trkpt lat="52.948378" lon="-3.270643"><ele>472</ele><time>2022-04-15T13:44:04Z</time><name>PT4405</name></trkpt>
<trkpt lat="52.948392" lon="-3.270650"><ele>472</ele><time>2022-04-15T13:44:05Z</time><name>PT4406</name></trkpt>
<trkpt lat="52.948406" lon="-3.270654"><ele>472</ele><time>2022-04-15T13:44:06Z</time><name>PT4407</name></trkpt>
<trkpt lat="52.948418" lon="-3.270660"><ele>472</ele><time>2022-04-15T13:44:07Z</time><name>PT4408</name></trkpt>
<trkpt lat="52.948433" lon="-3.270667"><ele>472</ele><time>2022-04-15T13:44:08Z</time><name>PT4409</name></trkpt>
<trkpt lat="52.948447" lon="-3.270675"><ele>472</ele><time>2022-04-15T13:44:09Z</time><name>PT4410</name></trkpt>
<trkpt lat="52.948458" lon="-3.270682"><ele>471</ele><time>2022-04-15T13:44:10Z</time><name>PT4411</name></trkpt>
<trkpt lat="52.948469" lon="-3.270690"><ele>471</ele><time>2022-04-15T13:44:11Z</time><name>PT4412</name></trkpt>
<trkpt lat="52.948479" lon="-3.270699"><ele>471</ele><time>2022-04-15T13:44:12Z</time><name>PT4413</name></trkpt>
<trkpt lat="52.948493" lon="-3.270710"><ele>471</ele><time>2022-04-15T13:44:13Z</time><name>PT4414</name></trkpt>
<trkpt lat="52.948505" lon="-3.270723"><ele>470</ele><time>2022-04-15T13:44:14Z</time><name>PT4415</name></trkpt>
<trkpt lat="52.948516" lon="-3.270729"><ele>470</ele><time>2022-04-15T13:44:15Z</time><name>PT4416</name></trkpt>
<trkpt lat="52.948527" lon="-3.270733"><ele>470</ele><time>2022-04-15T13:44:16Z</time><name>PT4417</name></trkpt>
<trkpt lat="52.948538" lon="-3.270738"><ele>470</ele><time>2022-04-15T13:44:17Z</time><name>PT4418</name></trkpt>
<trkpt lat="52.948549" lon="-3.270745"><ele>470</ele><time>2022-04-15T13:44:18Z</time><name>PT4419</name></trkpt>
<trkpt lat="52.948560" lon="-3.270755"><ele>469</ele><time>2022-04-15T13:44:19Z</time><name>PT4420</name></trkpt>
<trkpt lat="52.948570" lon="-3.270764"><ele>469</ele><time>2022-04-15T13:44:20Z</time><name>PT4421</name></trkpt>
<trkpt lat="52.948578" lon="-3.270775"><ele>468</ele><time>2022-04-15T13:44:21Z</time><name>PT4422</name></trkpt>
<trkpt lat="52.948586" lon="-3.270784"><ele>468</ele><time>2022-04-15T13:44:22Z</time><name>PT4423</name></trkpt>
<trkpt lat="52.948596" lon="-3.270794"><ele>468</ele><time>2022-04-15T13:44:23Z</time><name>PT4424</name></trkpt>
<trkpt lat="52.948607" lon="-3.270807"><ele>467</ele><time>2022-04-15T13:44:24Z</time><name>PT4425</name></trkpt>
<trkpt lat="52.948618" lon="-3.270818"><ele>467</ele><time>2022-04-15T13:44:25Z</time><name>PT4426</name></trkpt>
<trkpt lat="52.948628" lon="-3.270823"><ele>467</ele><time>2022-04-15T13:44:26Z</time><name>PT4427</name></trkpt>
<trkpt lat="52.948642" lon="-3.270828"><ele>467</ele><time>2022-04-15T13:44:27Z</time><name>PT4428</name></trkpt>
<trkpt lat="52.948656" lon="-3.270836"><ele>467</ele><time>2022-04-15T13:44:28Z</time><name>PT4429</name></trkpt>
<trkpt lat="52.948669" lon="-3.270845"><ele>467</ele><time>2022-04-15T13:44:29Z</time><name>PT4430</name></trkpt>
<trkpt lat="52.948681" lon="-3.270856"><ele>466</ele><time>2022-04-15T13:44:30Z</time><name>PT4431</name></trkpt>
<trkpt lat="52.948692" lon="-3.270861"><ele>466</ele><time>2022-04-15T13:44:31Z</time><name>PT4432</name></trkpt>
<trkpt lat="52.948705" lon="-3.270863"><ele>466</ele><time>2022-04-15T13:44:32Z</time><name>PT4433</name></trkpt>
<trkpt lat="52.948719" lon="-3.270862"><ele>466</ele><time>2022-04-15T13:44:33Z</time><name>PT4434</name></trkpt>
<trkpt lat="52.948733" lon="-3.270863"><ele>466</ele><time>2022-04-15T13:44:34Z</time><name>PT4435</name></trkpt>
<trkpt lat="52.948744" lon="-3.270861"><ele>466</ele><time>2022-04-15T13:44:35Z</time><name>PT4436</name></trkpt>
<trkpt lat="52.948755" lon="-3.270858"><ele>466</ele><time>2022-04-15T13:44:36Z</time><name>PT4437</name></trkpt>
<trkpt lat="52.948795" lon="-3.270849"><ele>466</ele><time>2022-04-15T13:44:39Z</time><name>PT4438</name></trkpt>
<trkpt lat="52.948851" lon="-3.270845"><ele>467</ele><time>2022-04-15T13:44:43Z</time><name>PT4439</name></trkpt>
<trkpt lat="52.948887" lon="-3.270834"><ele>466</ele><time>2022-04-15T13:44:46Z</time><name>PT4440</name></trkpt>
<trkpt lat="52.948941" lon="-3.270821"><ele>467</ele><time>2022-04-15T13:44:50Z</time><name>PT4441</name></trkpt>
<trkpt lat="52.948995" lon="-3.270823"><ele>466</ele><time>2022-04-15T13:44:54Z</time><name>PT4442</name></trkpt>
<trkpt lat="52.949051" lon="-3.270826"><ele>466</ele><time>2022-04-15T13:44:58Z</time><name>PT4443</name></trkpt>
<trkpt lat="52.949085" lon="-3.270816"><ele>465</ele><time>2022-04-15T13:45:01Z</time><name>PT4444</name></trkpt>
<trkpt lat="52.949133" lon="-3.270797"><ele>465</ele><time>2022-04-15T13:45:05Z</time><name>PT4445</name></trkpt>
<trkpt lat="52.949175" lon="-3.270759"><ele>464</ele><time>2022-04-15T13:45:09Z</time><name>PT4446</name></trkpt>
<trkpt lat="52.949210" lon="-3.270717"><ele>464</ele><time>2022-04-15T13:45:13Z</time><name>PT4447</name></trkpt>
<trkpt lat="52.949239" lon="-3.270682"><ele>463</ele><time>2022-04-15T13:45:16Z</time><name>PT4448</name></trkpt>
<trkpt lat="52.949270" lon="-3.270646"><ele>462</ele><time>2022-04-15T13:45:19Z</time><name>PT4449</name></trkpt>
<trkpt lat="52.949299" lon="-3.270617"><ele>462</ele><time>2022-04-15T13:45:22Z</time><name>PT4450</name></trkpt>
<trkpt lat="52.949336" lon="-3.270597"><ele>461</ele><time>2022-04-15T13:45:26Z</time><name>PT4451</name></trkpt>
<trkpt lat="52.949377" lon="-3.270585"><ele>461</ele><time>2022-04-15T13:45:30Z</time><name>PT4452</name></trkpt>
<trkpt lat="52.949398" lon="-3.270599"><ele>460</ele><time>2022-04-15T13:45:33Z</time><name>PT4453</name></trkpt>
<trkpt lat="52.949421" lon="-3.270608"><ele>460</ele><time>2022-04-15T13:45:37Z</time><name>PT4454</name></trkpt>
<trkpt lat="52.949444" lon="-3.270579"><ele>461</ele><time>2022-04-15T13:45:41Z</time><name>PT4455</name></trkpt>
<trkpt lat="52.949472" lon="-3.270539"><ele>460</ele><time>2022-04-15T13:45:45Z</time><name>PT4456</name></trkpt>
<trkpt lat="52.949492" lon="-3.270473"><ele>461</ele><time>2022-04-15T13:45:49Z</time><name>PT4457</name></trkpt>
<trkpt lat="52.949514" lon="-3.270405"><ele>461</ele><time>2022-04-15T13:45:53Z</time><name>PT4458</name></trkpt>
<trkpt lat="52.949536" lon="-3.270373"><ele>461</ele><time>2022-04-15T13:45:56Z</time><name>PT4459</name></trkpt>
<trkpt lat="52.949575" lon="-3.270323"><ele>460</ele><time>2022-04-15T13:46:00Z</time><name>PT4460</name></trkpt>
<trkpt lat="52.949613" lon="-3.270296"><ele>460</ele><time>2022-04-15T13:46:03Z</time><name>PT4461</name></trkpt>
<trkpt lat="52.949657" lon="-3.270252"><ele>460</ele><time>2022-04-15T13:46:07Z</time><name>PT4462</name></trkpt>
<trkpt lat="52.949705" lon="-3.270223"><ele>459</ele><time>2022-04-15T13:46:11Z</time><name>PT4463</name></trkpt>
<trkpt lat="52.949738" lon="-3.270195"><ele>459</ele><time>2022-04-15T13:46:14Z</time><name>PT4464</name></trkpt>
<trkpt lat="52.949789" lon="-3.270163"><ele>458</ele><time>2022-04-15T13:46:18Z</time><name>PT4465</name></trkpt>
<trkpt lat="52.949834" lon="-3.270125"><ele>457</ele><time>2022-04-15T13:46:22Z</time><name>PT4466</name></trkpt>
<trkpt lat="52.949876" lon="-3.270097"><ele>457</ele><time>2022-04-15T13:46:25Z</time><name>PT4467</name></trkpt>
<trkpt lat="52.949921" lon="-3.270058"><ele>457</ele><time>2022-04-15T13:46:29Z</time><name>PT4468</name></trkpt>
<trkpt lat="52.949958" lon="-3.270036"><ele>458</ele><time>2022-04-15T13:46:32Z</time><name>PT4469</name></trkpt>
<trkpt lat="52.949995" lon="-3.269999"><ele>457</ele><time>2022-04-15T13:46:36Z</time><name>PT4470</name></trkpt>
<trkpt lat="52.950043" lon="-3.269968"><ele>458</ele><time>2022-04-15T13:46:40Z</time><name>PT4471</name></trkpt>
<trkpt lat="52.950086" lon="-3.269944"><ele>457</ele><time>2022-04-15T13:46:44Z</time><name>PT4472</name></trkpt>
<trkpt lat="52.950122" lon="-3.269921"><ele>457</ele><time>2022-04-15T13:46:47Z</time><name>PT4473</name></trkpt>
<trkpt lat="52.950164" lon="-3.269900"><ele>457</ele><time>2022-04-15T13:46:50Z</time><name>PT4474</name></trkpt>
<trkpt lat="52.950199" lon="-3.269873"><ele>456</ele><time>2022-04-15T13:46:53Z</time><name>PT4475</name></trkpt>
<trkpt lat="52.950244" lon="-3.269841"><ele>455</ele><time>2022-04-15T13:46:57Z</time><name>PT4476</name></trkpt>
<trkpt lat="52.950283" lon="-3.269819"><ele>455</ele><time>2022-04-15T13:47:00Z</time><name>PT4477</name></trkpt>
<trkpt lat="52.950331" lon="-3.269786"><ele>454</ele><time>2022-04-15T13:47:04Z</time><name>PT4478</name></trkpt>
<trkpt lat="52.950373" lon="-3.269776"><ele>455</ele><time>2022-04-15T13:47:07Z</time><name>PT4479</name></trkpt>
<trkpt lat="52.950407" lon="-3.269759"><ele>454</ele><time>2022-04-15T13:47:10Z</time><name>PT4480</name></trkpt>
<trkpt lat="52.950461" lon="-3.269722"><ele>455</ele><time>2022-04-15T13:47:14Z</time><name>PT4481</name></trkpt>
<trkpt lat="52.950487" lon="-3.269689"><ele>455</ele><time>2022-04-15T13:47:17Z</time><name>PT4482</name></trkpt>
<trkpt lat="52.950532" lon="-3.269653"><ele>454</ele><time>2022-04-15T13:47:21Z</time><name>PT4483</name></trkpt>
<trkpt lat="52.950579" lon="-3.269619"><ele>454</ele><time>2022-04-15T13:47:25Z</time><name>PT4484</name></trkpt>
<trkpt lat="52.950618" lon="-3.269600"><ele>454</ele><time>2022-04-15T13:47:28Z</time><name>PT4485</name></trkpt>
<trkpt lat="52.950664" lon="-3.269571"><ele>454</ele><time>2022-04-15T13:47:32Z</time><name>PT4486</name></trkpt>
<trkpt lat="52.950711" lon="-3.269553"><ele>454</ele><time>2022-04-15T13:47:36Z</time><name>PT4487</name></trkpt>
<trkpt lat="52.950734" lon="-3.269534"><ele>453</ele><time>2022-04-15T13:47:39Z</time><name>PT4488</name></trkpt>
<trkpt lat="52.950776" lon="-3.269506"><ele>452</ele><time>2022-04-15T13:47:43Z</time><name>PT4489</name></trkpt>
<trkpt lat="52.950813" lon="-3.269470"><ele>452</ele><time>2022-04-15T13:47:47Z</time><name>PT4490</name></trkpt>
<trkpt lat="52.950849" lon="-3.269441"><ele>452</ele><time>2022-04-15T13:47:50Z</time><name>PT4491</name></trkpt>
<trkpt lat="52.950892" lon="-3.269398"><ele>451</ele><time>2022-04-15T13:47:54Z</time><name>PT4492</name></trkpt>
<trkpt lat="52.950931" lon="-3.269345"><ele>451</ele><time>2022-04-15T13:47:58Z</time><name>PT4493</name></trkpt>
<trkpt lat="52.950960" lon="-3.269309"><ele>450</ele><time>2022-04-15T13:48:01Z</time><name>PT4494</name></trkpt>
<trkpt lat="52.950995" lon="-3.269255"><ele>450</ele><time>2022-04-15T13:48:05Z</time><name>PT4495</name></trkpt>
<trkpt lat="52.951023" lon="-3.269218"><ele>450</ele><time>2022-04-15T13:48:08Z</time><name>PT4496</name></trkpt>
<trkpt lat="52.951059" lon="-3.269177"><ele>450</ele><time>2022-04-15T13:48:12Z</time><name>PT4497</name></trkpt>
<trkpt lat="52.951077" lon="-3.269105"><ele>450</ele><time>2022-04-15T13:48:16Z</time><name>PT4498</name></trkpt>
<trkpt lat="52.951089" lon="-3.269037"><ele>450</ele><time>2022-04-15T13:48:20Z</time><name>PT4499</name></trkpt>
<trkpt lat="52.951114" lon="-3.268971"><ele>449</ele><time>2022-04-15T13:48:24Z</time><name>PT4500</name></trkpt>
<trkpt lat="52.951143" lon="-3.268905"><ele>448</ele><time>2022-04-15T13:48:28Z</time><name>PT4501</name></trkpt>
<trkpt lat="52.951158" lon="-3.268855"><ele>447</ele><time>2022-04-15T13:48:31Z</time><name>PT4502</name></trkpt>
<trkpt lat="52.951182" lon="-3.268790"><ele>446</ele><time>2022-04-15T13:48:35Z</time><name>PT4503</name></trkpt>
<trkpt lat="52.951202" lon="-3.268721"><ele>445</ele><time>2022-04-15T13:48:39Z</time><name>PT4504</name></trkpt>
<trkpt lat="52.951216" lon="-3.268668"><ele>444</ele><time>2022-04-15T13:48:42Z</time><name>PT4505</name></trkpt>
<trkpt lat="52.951232" lon="-3.268587"><ele>444</ele><time>2022-04-15T13:48:46Z</time><name>PT4506</name></trkpt>
<trkpt lat="52.951237" lon="-3.268513"><ele>443</ele><time>2022-04-15T13:48:50Z</time><name>PT4507</name></trkpt>
<trkpt lat="52.951247" lon="-3.268451"><ele>443</ele><time>2022-04-15T13:48:53Z</time><name>PT4508</name></trkpt>
<trkpt lat="52.951257" lon="-3.268394"><ele>443</ele><time>2022-04-15T13:48:56Z</time><name>PT4509</name></trkpt>
<trkpt lat="52.951268" lon="-3.268332"><ele>443</ele><time>2022-04-15T13:48:59Z</time><name>PT4510</name></trkpt>
<trkpt lat="52.951282" lon="-3.268253"><ele>442</ele><time>2022-04-15T13:49:03Z</time><name>PT4511</name></trkpt>
<trkpt lat="52.951293" lon="-3.268195"><ele>441</ele><time>2022-04-15T13:49:06Z</time><name>PT4512</name></trkpt>
<trkpt lat="52.951307" lon="-3.268133"><ele>441</ele><time>2022-04-15T13:49:09Z</time><name>PT4513</name></trkpt>
<trkpt lat="52.951323" lon="-3.268065"><ele>441</ele><time>2022-04-15T13:49:13Z</time><name>PT4514</name></trkpt>
<trkpt lat="52.951343" lon="-3.267993"><ele>441</ele><time>2022-04-15T13:49:17Z</time><name>PT4515</name></trkpt>
<trkpt lat="52.951353" lon="-3.267943"><ele>440</ele><time>2022-04-15T13:49:20Z</time><name>PT4516</name></trkpt>
<trkpt lat="52.951367" lon="-3.267889"><ele>439</ele><time>2022-04-15T13:49:23Z</time><name>PT4517</name></trkpt>
<trkpt lat="52.951391" lon="-3.267813"><ele>439</ele><time>2022-04-15T13:49:27Z</time><name>PT4518</name></trkpt>
<trkpt lat="52.951402" lon="-3.267754"><ele>439</ele><time>2022-04-15T13:49:30Z</time><name>PT4519</name></trkpt>
<trkpt lat="52.951427" lon="-3.267684"><ele>438</ele><time>2022-04-15T13:49:34Z</time><name>PT4520</name></trkpt>
<trkpt lat="52.951450" lon="-3.267614"><ele>438</ele><time>2022-04-15T13:49:38Z</time><name>PT4521</name></trkpt>
<trkpt lat="52.951469" lon="-3.267565"><ele>438</ele><time>2022-04-15T13:49:41Z</time><name>PT4522</name></trkpt>
<trkpt lat="52.951494" lon="-3.267492"><ele>438</ele><time>2022-04-15T13:49:45Z</time><name>PT4523</name></trkpt>
<trkpt lat="52.951522" lon="-3.267429"><ele>437</ele><time>2022-04-15T13:49:49Z</time><name>PT4524</name></trkpt>
<trkpt lat="52.951556" lon="-3.267365"><ele>437</ele><time>2022-04-15T13:49:53Z</time><name>PT4525</name></trkpt>
<trkpt lat="52.951576" lon="-3.267317"><ele>437</ele><time>2022-04-15T13:49:56Z</time><name>PT4526</name></trkpt>
<trkpt lat="52.951609" lon="-3.267254"><ele>436</ele><time>2022-04-15T13:50:00Z</time><name>PT4527</name></trkpt>
<trkpt lat="52.951631" lon="-3.267202"><ele>435</ele><time>2022-04-15T13:50:03Z</time><name>PT4528</name></trkpt>
<trkpt lat="52.951662" lon="-3.267143"><ele>435</ele><time>2022-04-15T13:50:07Z</time><name>PT4529</name></trkpt>
<trkpt lat="52.951698" lon="-3.267091"><ele>436</ele><time>2022-04-15T13:50:11Z</time><name>PT4530</name></trkpt>
<trkpt lat="52.951716" lon="-3.267042"><ele>436</ele><time>2022-04-15T13:50:14Z</time><name>PT4531</name></trkpt>
<trkpt lat="52.951745" lon="-3.266973"><ele>436</ele><time>2022-04-15T13:50:18Z</time><name>PT4532</name></trkpt>
<trkpt lat="52.951763" lon="-3.266923"><ele>436</ele><time>2022-04-15T13:50:21Z</time><name>PT4533</name></trkpt>
<trkpt lat="52.951785" lon="-3.266872"><ele>436</ele><time>2022-04-15T13:50:24Z</time><name>PT4534</name></trkpt>
<trkpt lat="52.951813" lon="-3.266804"><ele>436</ele><time>2022-04-15T13:50:28Z</time><name>PT4535</name></trkpt>
<trkpt lat="52.951836" lon="-3.266759"><ele>435</ele><time>2022-04-15T13:50:31Z</time><name>PT4536</name></trkpt>
<trkpt lat="52.951865" lon="-3.266713"><ele>435</ele><time>2022-04-15T13:50:34Z</time><name>PT4537</name></trkpt>
<trkpt lat="52.951899" lon="-3.266661"><ele>435</ele><time>2022-04-15T13:50:38Z</time><name>PT4538</name></trkpt>
<trkpt lat="52.951928" lon="-3.266632"><ele>435</ele><time>2022-04-15T13:50:41Z</time><name>PT4539</name></trkpt>
<trkpt lat="52.951963" lon="-3.266587"><ele>434</ele><time>2022-04-15T13:50:45Z</time><name>PT4540</name></trkpt>
<trkpt lat="52.951993" lon="-3.266555"><ele>434</ele><time>2022-04-15T13:50:48Z</time><name>PT4541</name></trkpt>
<trkpt lat="52.952024" lon="-3.266523"><ele>434</ele><time>2022-04-15T13:50:51Z</time><name>PT4542</name></trkpt>
<trkpt lat="52.952067" lon="-3.266483"><ele>433</ele><time>2022-04-15T13:50:55Z</time><name>PT4543</name></trkpt>
<trkpt lat="52.952093" lon="-3.266449"><ele>432</ele><time>2022-04-15T13:50:58Z</time><name>PT4544</name></trkpt>
<trkpt lat="52.952128" lon="-3.266392"><ele>431</ele><time>2022-04-15T13:51:02Z</time><name>PT4545</name></trkpt>
<trkpt lat="52.952153" lon="-3.266356"><ele>430</ele><time>2022-04-15T13:51:05Z</time><name>PT4546</name></trkpt>
<trkpt lat="52.952187" lon="-3.266306"><ele>430</ele><time>2022-04-15T13:51:09Z</time><name>PT4547</name></trkpt>
<trkpt lat="52.952218" lon="-3.266267"><ele>430</ele><time>2022-04-15T13:51:12Z</time><name>PT4548</name></trkpt>
<trkpt lat="52.952252" lon="-3.266207"><ele>430</ele><time>2022-04-15T13:51:16Z</time><name>PT4549</name></trkpt>
<trkpt lat="52.952283" lon="-3.266168"><ele>430</ele><time>2022-04-15T13:51:19Z</time><name>PT4550</name></trkpt>
<trkpt lat="52.952317" lon="-3.266119"><ele>429</ele><time>2022-04-15T13:51:23Z</time><name>PT4551</name></trkpt>
<trkpt lat="52.952345" lon="-3.266081"><ele>429</ele><time>2022-04-15T13:51:26Z</time><name>PT4552</name></trkpt>
<trkpt lat="52.952367" lon="-3.266037"><ele>429</ele><time>2022-04-15T13:51:29Z</time><name>PT4553</name></trkpt>
<trkpt lat="52.952408" lon="-3.265981"><ele>429</ele><time>2022-04-15T13:51:33Z</time><name>PT4554</name></trkpt>
<trkpt lat="52.952431" lon="-3.265936"><ele>429</ele><time>2022-04-15T13:51:36Z</time><name>PT4555</name></trkpt>
<trkpt lat="52.952455" lon="-3.265893"><ele>429</ele><time>2022-04-15T13:51:39Z</time><name>PT4556</name></trkpt>
<trkpt lat="52.952483" lon="-3.265816"><ele>429</ele><time>2022-04-15T13:51:43Z</time><name>PT4557</name></trkpt>
<trkpt lat="52.952498" lon="-3.265760"><ele>429</ele><time>2022-04-15T13:51:46Z</time><name>PT4558</name></trkpt>
<trkpt lat="52.952504" lon="-3.265706"><ele>429</ele><time>2022-04-15T13:51:49Z</time><name>PT4559</name></trkpt>
<trkpt lat="52.952513" lon="-3.265647"><ele>429</ele><time>2022-04-15T13:51:52Z</time><name>PT4560</name></trkpt>
<trkpt lat="52.952516" lon="-3.265587"><ele>429</ele><time>2022-04-15T13:51:55Z</time><name>PT4561</name></trkpt>
<trkpt lat="52.952505" lon="-3.265535"><ele>428</ele><time>2022-04-15T13:51:59Z</time><name>PT4562</name></trkpt>
<trkpt lat="52.952498" lon="-3.265529"><ele>428</ele><time>2022-04-15T13:52:02Z</time><name>PT4563</name></trkpt>
<trkpt lat="52.952498" lon="-3.265528"><ele>428</ele><time>2022-04-15T13:52:05Z</time><name>PT4564</name></trkpt>
<trkpt lat="52.952497" lon="-3.265512"><ele>428</ele><time>2022-04-15T13:52:08Z</time><name>PT4565</name></trkpt>
<trkpt lat="52.952496" lon="-3.265408"><ele>427</ele><time>2022-04-15T13:52:12Z</time><name>PT4566</name></trkpt>
<trkpt lat="52.952484" lon="-3.265314"><ele>427</ele><time>2022-04-15T13:52:16Z</time><name>PT4567</name></trkpt>
<trkpt lat="52.952487" lon="-3.265292"><ele>427</ele><time>2022-04-15T13:52:17Z</time><name>PT4568</name></trkpt>
<trkpt lat="52.952489" lon="-3.265271"><ele>427</ele><time>2022-04-15T13:52:18Z</time><name>PT4569</name></trkpt>
<trkpt lat="52.952491" lon="-3.265248"><ele>427</ele><time>2022-04-15T13:52:19Z</time><name>PT4570</name></trkpt>
<trkpt lat="52.952492" lon="-3.265229"><ele>427</ele><time>2022-04-15T13:52:20Z</time><name>PT4571</name></trkpt>
<trkpt lat="52.952492" lon="-3.265209"><ele>426</ele><time>2022-04-15T13:52:21Z</time><name>PT4572</name></trkpt>
<trkpt lat="52.952492" lon="-3.265187"><ele>426</ele><time>2022-04-15T13:52:22Z</time><name>PT4573</name></trkpt>
<trkpt lat="52.952493" lon="-3.265170"><ele>426</ele><time>2022-04-15T13:52:23Z</time><name>PT4574</name></trkpt>
<trkpt lat="52.952497" lon="-3.265149"><ele>426</ele><time>2022-04-15T13:52:24Z</time><name>PT4575</name></trkpt>
<trkpt lat="52.952502" lon="-3.265128"><ele>426</ele><time>2022-04-15T13:52:25Z</time><name>PT4576</name></trkpt>
<trkpt lat="52.952507" lon="-3.265106"><ele>425</ele><time>2022-04-15T13:52:26Z</time><name>PT4577</name></trkpt>
<trkpt lat="52.952510" lon="-3.265084"><ele>425</ele><time>2022-04-15T13:52:27Z</time><name>PT4578</name></trkpt>
<trkpt lat="52.952513" lon="-3.265063"><ele>425</ele><time>2022-04-15T13:52:28Z</time><name>PT4579</name></trkpt>
<trkpt lat="52.952517" lon="-3.265039"><ele>425</ele><time>2022-04-15T13:52:29Z</time><name>PT4580</name></trkpt>
<trkpt lat="52.952522" lon="-3.265020"><ele>425</ele><time>2022-04-15T13:52:30Z</time><name>PT4581</name></trkpt>
<trkpt lat="52.952528" lon="-3.264998"><ele>426</ele><time>2022-04-15T13:52:31Z</time><name>PT4582</name></trkpt>
<trkpt lat="52.952535" lon="-3.264977"><ele>426</ele><time>2022-04-15T13:52:32Z</time><name>PT4583</name></trkpt>
<trkpt lat="52.952539" lon="-3.264958"><ele>426</ele><time>2022-04-15T13:52:33Z</time><name>PT4584</name></trkpt>
<trkpt lat="52.952542" lon="-3.264936"><ele>426</ele><time>2022-04-15T13:52:34Z</time><name>PT4585</name></trkpt>
<trkpt lat="52.952548" lon="-3.264914"><ele>426</ele><time>2022-04-15T13:52:35Z</time><name>PT4586</name></trkpt>
<trkpt lat="52.952553" lon="-3.264898"><ele>426</ele><time>2022-04-15T13:52:36Z</time><name>PT4587</name></trkpt>
<trkpt lat="52.952558" lon="-3.264876"><ele>426</ele><time>2022-04-15T13:52:37Z</time><name>PT4588</name></trkpt>
<trkpt lat="52.952565" lon="-3.264853"><ele>426</ele><time>2022-04-15T13:52:38Z</time><name>PT4589</name></trkpt>
<trkpt lat="52.952569" lon="-3.264834"><ele>426</ele><time>2022-04-15T13:52:39Z</time><name>PT4590</name></trkpt>
<trkpt lat="52.952573" lon="-3.264815"><ele>426</ele><time>2022-04-15T13:52:40Z</time><name>PT4591</name></trkpt>
<trkpt lat="52.952576" lon="-3.264791"><ele>426</ele><time>2022-04-15T13:52:41Z</time><name>PT4592</name></trkpt>
<trkpt lat="52.952581" lon="-3.264773"><ele>426</ele><time>2022-04-15T13:52:42Z</time><name>PT4593</name></trkpt>
<trkpt lat="52.952587" lon="-3.264751"><ele>426</ele><time>2022-04-15T13:52:43Z</time><name>PT4594</name></trkpt>
<trkpt lat="52.952593" lon="-3.264728"><ele>426</ele><time>2022-04-15T13:52:44Z</time><name>PT4595</name></trkpt>
<trkpt lat="52.952597" lon="-3.264708"><ele>426</ele><time>2022-04-15T13:52:45Z</time><name>PT4596</name></trkpt>
<trkpt lat="52.952602" lon="-3.264690"><ele>426</ele><time>2022-04-15T13:52:46Z</time><name>PT4597</name></trkpt>
<trkpt lat="52.952607" lon="-3.264668"><ele>426</ele><time>2022-04-15T13:52:47Z</time><name>PT4598</name></trkpt>
<trkpt lat="52.952613" lon="-3.264649"><ele>426</ele><time>2022-04-15T13:52:48Z</time><name>PT4599</name></trkpt>
<trkpt lat="52.952620" lon="-3.264630"><ele>426</ele><time>2022-04-15T13:52:49Z</time><name>PT4600</name></trkpt>
<trkpt lat="52.952626" lon="-3.264612"><ele>426</ele><time>2022-04-15T13:52:50Z</time><name>PT4601</name></trkpt>
<trkpt lat="52.952631" lon="-3.264595"><ele>426</ele><time>2022-04-15T13:52:51Z</time><name>PT4602</name></trkpt>
<trkpt lat="52.952636" lon="-3.264575"><ele>426</ele><time>2022-04-15T13:52:52Z</time><name>PT4603</name></trkpt>
<trkpt lat="52.952643" lon="-3.264551"><ele>426</ele><time>2022-04-15T13:52:53Z</time><name>PT4604</name></trkpt>
<trkpt lat="52.952648" lon="-3.264531"><ele>426</ele><time>2022-04-15T13:52:54Z</time><name>PT4605</name></trkpt>
<trkpt lat="52.952654" lon="-3.264512"><ele>426</ele><time>2022-04-15T13:52:55Z</time><name>PT4606</name></trkpt>
<trkpt lat="52.952661" lon="-3.264493"><ele>427</ele><time>2022-04-15T13:52:56Z</time><name>PT4607</name></trkpt>
<trkpt lat="52.952664" lon="-3.264476"><ele>426</ele><time>2022-04-15T13:52:57Z</time><name>PT4608</name></trkpt>
<trkpt lat="52.952668" lon="-3.264456"><ele>427</ele><time>2022-04-15T13:52:58Z</time><name>PT4609</name></trkpt>
<trkpt lat="52.952674" lon="-3.264435"><ele>427</ele><time>2022-04-15T13:52:59Z</time><name>PT4610</name></trkpt>
<trkpt lat="52.952681" lon="-3.264418"><ele>426</ele><time>2022-04-15T13:53:00Z</time><name>PT4611</name></trkpt>
<trkpt lat="52.952688" lon="-3.264400"><ele>426</ele><time>2022-04-15T13:53:01Z</time><name>PT4612</name></trkpt>
<trkpt lat="52.952697" lon="-3.264377"><ele>426</ele><time>2022-04-15T13:53:02Z</time><name>PT4613</name></trkpt>
<trkpt lat="52.952705" lon="-3.264360"><ele>426</ele><time>2022-04-15T13:53:03Z</time><name>PT4614</name></trkpt>
<trkpt lat="52.952713" lon="-3.264344"><ele>427</ele><time>2022-04-15T13:53:04Z</time><name>PT4615</name></trkpt>
<trkpt lat="52.952721" lon="-3.264327"><ele>426</ele><time>2022-04-15T13:53:05Z</time><name>PT4616</name></trkpt>
<trkpt lat="52.952727" lon="-3.264309"><ele>426</ele><time>2022-04-15T13:53:06Z</time><name>PT4617</name></trkpt>
<trkpt lat="52.952733" lon="-3.264294"><ele>426</ele><time>2022-04-15T13:53:07Z</time><name>PT4618</name></trkpt>
<trkpt lat="52.952744" lon="-3.264277"><ele>426</ele><time>2022-04-15T13:53:08Z</time><name>PT4619</name></trkpt>
<trkpt lat="52.952754" lon="-3.264259"><ele>426</ele><time>2022-04-15T13:53:09Z</time><name>PT4620</name></trkpt>
<trkpt lat="52.952759" lon="-3.264243"><ele>426</ele><time>2022-04-15T13:53:10Z</time><name>PT4621</name></trkpt>
<trkpt lat="52.952765" lon="-3.264225"><ele>426</ele><time>2022-04-15T13:53:11Z</time><name>PT4622</name></trkpt>
<trkpt lat="52.952773" lon="-3.264203"><ele>426</ele><time>2022-04-15T13:53:12Z</time><name>PT4623</name></trkpt>
<trkpt lat="52.952780" lon="-3.264186"><ele>426</ele><time>2022-04-15T13:53:13Z</time><name>PT4624</name></trkpt>
<trkpt lat="52.952790" lon="-3.264169"><ele>426</ele><time>2022-04-15T13:53:14Z</time><name>PT4625</name></trkpt>
<trkpt lat="52.952799" lon="-3.264148"><ele>426</ele><time>2022-04-15T13:53:15Z</time><name>PT4626</name></trkpt>
<trkpt lat="52.952805" lon="-3.264130"><ele>425</ele><time>2022-04-15T13:53:16Z</time><name>PT4627</name></trkpt>
<trkpt lat="52.952812" lon="-3.264111"><ele>425</ele><time>2022-04-15T13:53:17Z</time><name>PT4628</name></trkpt>
<trkpt lat="52.952819" lon="-3.264094"><ele>425</ele><time>2022-04-15T13:53:18Z</time><name>PT4629</name></trkpt>
<trkpt lat="52.952826" lon="-3.264078"><ele>426</ele><time>2022-04-15T13:53:19Z</time><name>PT4630</name></trkpt>
<trkpt lat="52.952833" lon="-3.264061"><ele>426</ele><time>2022-04-15T13:53:20Z</time><name>PT4631</name></trkpt>
<trkpt lat="52.952840" lon="-3.264042"><ele>425</ele><time>2022-04-15T13:53:21Z</time><name>PT4632</name></trkpt>
<trkpt lat="52.952847" lon="-3.264022"><ele>425</ele><time>2022-04-15T13:53:22Z</time><name>PT4633</name></trkpt>
<trkpt lat="52.952854" lon="-3.264001"><ele>425</ele><time>2022-04-15T13:53:23Z</time><name>PT4634</name></trkpt>
<trkpt lat="52.952861" lon="-3.263983"><ele>425</ele><time>2022-04-15T13:53:24Z</time><name>PT4635</name></trkpt>
<trkpt lat="52.952870" lon="-3.263966"><ele>425</ele><time>2022-04-15T13:53:25Z</time><name>PT4636</name></trkpt>
<trkpt lat="52.952878" lon="-3.263947"><ele>425</ele><time>2022-04-15T13:53:26Z</time><name>PT4637</name></trkpt>
<trkpt lat="52.952888" lon="-3.263928"><ele>425</ele><time>2022-04-15T13:53:27Z</time><name>PT4638</name></trkpt>
<trkpt lat="52.952895" lon="-3.263911"><ele>425</ele><time>2022-04-15T13:53:28Z</time><name>PT4639</name></trkpt>
<trkpt lat="52.952901" lon="-3.263896"><ele>425</ele><time>2022-04-15T13:53:29Z</time><name>PT4640</name></trkpt>
<trkpt lat="52.952908" lon="-3.263876"><ele>425</ele><time>2022-04-15T13:53:30Z</time><name>PT4641</name></trkpt>
<trkpt lat="52.952917" lon="-3.263859"><ele>425</ele><time>2022-04-15T13:53:31Z</time><name>PT4642</name></trkpt>
<trkpt lat="52.952926" lon="-3.263843"><ele>425</ele><time>2022-04-15T13:53:32Z</time><name>PT4643</name></trkpt>
<trkpt lat="52.952937" lon="-3.263826"><ele>425</ele><time>2022-04-15T13:53:33Z</time><name>PT4644</name></trkpt>
<trkpt lat="52.952945" lon="-3.263809"><ele>425</ele><time>2022-04-15T13:53:34Z</time><name>PT4645</name></trkpt>
<trkpt lat="52.952953" lon="-3.263793"><ele>425</ele><time>2022-04-15T13:53:35Z</time><name>PT4646</name></trkpt>
<trkpt lat="52.952960" lon="-3.263776"><ele>425</ele><time>2022-04-15T13:53:36Z</time><name>PT4647</name></trkpt>
<trkpt lat="52.952969" lon="-3.263759"><ele>425</ele><time>2022-04-15T13:53:37Z</time><name>PT4648</name></trkpt>
<trkpt lat="52.952977" lon="-3.263743"><ele>425</ele><time>2022-04-15T13:53:38Z</time><name>PT4649</name></trkpt>
<trkpt lat="52.952986" lon="-3.263728"><ele>425</ele><time>2022-04-15T13:53:39Z</time><name>PT4650</name></trkpt>
<trkpt lat="52.952995" lon="-3.263710"><ele>425</ele><time>2022-04-15T13:53:40Z</time><name>PT4651</name></trkpt>
<trkpt lat="52.953004" lon="-3.263696"><ele>425</ele><time>2022-04-15T13:53:41Z</time><name>PT4652</name></trkpt>
<trkpt lat="52.953011" lon="-3.263679"><ele>424</ele><time>2022-04-15T13:53:42Z</time><name>PT4653</name></trkpt>
<trkpt lat="52.953019" lon="-3.263663"><ele>424</ele><time>2022-04-15T13:53:43Z</time><name>PT4654</name></trkpt>
<trkpt lat="52.953028" lon="-3.263649"><ele>424</ele><time>2022-04-15T13:53:44Z</time><name>PT4655</name></trkpt>
<trkpt lat="52.953039" lon="-3.263633"><ele>424</ele><time>2022-04-15T13:53:45Z</time><name>PT4656</name></trkpt>
<trkpt lat="52.953050" lon="-3.263616"><ele>424</ele><time>2022-04-15T13:53:46Z</time><name>PT4657</name></trkpt>
<trkpt lat="52.953057" lon="-3.263601"><ele>424</ele><time>2022-04-15T13:53:47Z</time><name>PT4658</name></trkpt>
<trkpt lat="52.953066" lon="-3.263586"><ele>424</ele><time>2022-04-15T13:53:48Z</time><name>PT4659</name></trkpt>
<trkpt lat="52.953077" lon="-3.263568"><ele>424</ele><time>2022-04-15T13:53:49Z</time><name>PT4660</name></trkpt>
<trkpt lat="52.953086" lon="-3.263555"><ele>423</ele><time>2022-04-15T13:53:50Z</time><name>PT4661</name></trkpt>
<trkpt lat="52.953097" lon="-3.263543"><ele>424</ele><time>2022-04-15T13:53:51Z</time><name>PT4662</name></trkpt>
<trkpt lat="52.953106" lon="-3.263531"><ele>424</ele><time>2022-04-15T13:53:52Z</time><name>PT4663</name></trkpt>
<trkpt lat="52.953116" lon="-3.263517"><ele>424</ele><time>2022-04-15T13:53:53Z</time><name>PT4664</name></trkpt>
<trkpt lat="52.953125" lon="-3.263502"><ele>424</ele><time>2022-04-15T13:53:54Z</time><name>PT4665</name></trkpt>
<trkpt lat="52.953134" lon="-3.263486"><ele>424</ele><time>2022-04-15T13:53:55Z</time><name>PT4666</name></trkpt>
<trkpt lat="52.953143" lon="-3.263467"><ele>424</ele><time>2022-04-15T13:53:56Z</time><name>PT4667</name></trkpt>
<trkpt lat="52.953152" lon="-3.263449"><ele>423</ele><time>2022-04-15T13:53:57Z</time><name>PT4668</name></trkpt>
<trkpt lat="52.953160" lon="-3.263434"><ele>423</ele><time>2022-04-15T13:53:58Z</time><name>PT4669</name></trkpt>
<trkpt lat="52.953170" lon="-3.263415"><ele>423</ele><time>2022-04-15T13:53:59Z</time><name>PT4670</name></trkpt>
<trkpt lat="52.953180" lon="-3.263396"><ele>423</ele><time>2022-04-15T13:54:00Z</time><name>PT4671</name></trkpt>
<trkpt lat="52.953187" lon="-3.263379"><ele>423</ele><time>2022-04-15T13:54:01Z</time><name>PT4672</name></trkpt>
<trkpt lat="52.953193" lon="-3.263361"><ele>423</ele><time>2022-04-15T13:54:02Z</time><name>PT4673</name></trkpt>
<trkpt lat="52.953201" lon="-3.263342"><ele>423</ele><time>2022-04-15T13:54:03Z</time><name>PT4674</name></trkpt>
<trkpt lat="52.953209" lon="-3.263324"><ele>423</ele><time>2022-04-15T13:54:04Z</time><name>PT4675</name></trkpt>
<trkpt lat="52.953218" lon="-3.263310"><ele>423</ele><time>2022-04-15T13:54:05Z</time><name>PT4676</name></trkpt>
<trkpt lat="52.953229" lon="-3.263294"><ele>423</ele><time>2022-04-15T13:54:06Z</time><name>PT4677</name></trkpt>
<trkpt lat="52.953240" lon="-3.263277"><ele>423</ele><time>2022-04-15T13:54:07Z</time><name>PT4678</name></trkpt>
<trkpt lat="52.953255" lon="-3.263261"><ele>424</ele><time>2022-04-15T13:54:08Z</time><name>PT4679</name></trkpt>
<trkpt lat="52.953265" lon="-3.263247"><ele>424</ele><time>2022-04-15T13:54:09Z</time><name>PT4680</name></trkpt>
<trkpt lat="52.953277" lon="-3.263230"><ele>424</ele><time>2022-04-15T13:54:10Z</time><name>PT4681</name></trkpt>
<trkpt lat="52.953288" lon="-3.263211"><ele>423</ele><time>2022-04-15T13:54:11Z</time><name>PT4682</name></trkpt>
<trkpt lat="52.953298" lon="-3.263195"><ele>423</ele><time>2022-04-15T13:54:12Z</time><name>PT4683</name></trkpt>
<trkpt lat="52.953309" lon="-3.263181"><ele>424</ele><time>2022-04-15T13:54:13Z</time><name>PT4684</name></trkpt>
<trkpt lat="52.953320" lon="-3.263163"><ele>424</ele><time>2022-04-15T13:54:14Z</time><name>PT4685</name></trkpt>
<trkpt lat="52.953329" lon="-3.263149"><ele>424</ele><time>2022-04-15T13:54:15Z</time><name>PT4686</name></trkpt>
<trkpt lat="52.953365" lon="-3.263089"><ele>423</ele><time>2022-04-15T13:54:19Z</time><name>PT4687</name></trkpt>
<trkpt lat="52.953391" lon="-3.263044"><ele>423</ele><time>2022-04-15T13:54:22Z</time><name>PT4688</name></trkpt>
<trkpt lat="52.953429" lon="-3.262987"><ele>423</ele><time>2022-04-15T13:54:26Z</time><name>PT4689</name></trkpt>
<trkpt lat="52.953463" lon="-3.262929"><ele>422</ele><time>2022-04-15T13:54:30Z</time><name>PT4690</name></trkpt>
<trkpt lat="52.953498" lon="-3.262874"><ele>421</ele><time>2022-04-15T13:54:34Z</time><name>PT4691</name></trkpt>
<trkpt lat="52.953539" lon="-3.262822"><ele>421</ele><time>2022-04-15T13:54:38Z</time><name>PT4692</name></trkpt>
<trkpt lat="52.953573" lon="-3.262765"><ele>421</ele><time>2022-04-15T13:54:42Z</time><name>PT4693</name></trkpt>
<trkpt lat="52.953602" lon="-3.262722"><ele>421</ele><time>2022-04-15T13:54:45Z</time><name>PT4694</name></trkpt>
<trkpt lat="52.953643" lon="-3.262663"><ele>420</ele><time>2022-04-15T13:54:49Z</time><name>PT4695</name></trkpt>
<trkpt lat="52.953682" lon="-3.262609"><ele>420</ele><time>2022-04-15T13:54:53Z</time><name>PT4696</name></trkpt>
<trkpt lat="52.953715" lon="-3.262563"><ele>420</ele><time>2022-04-15T13:54:56Z</time><name>PT4697</name></trkpt>
<trkpt lat="52.953752" lon="-3.262511"><ele>420</ele><time>2022-04-15T13:55:00Z</time><name>PT4698</name></trkpt>
<trkpt lat="52.953787" lon="-3.262458"><ele>419</ele><time>2022-04-15T13:55:04Z</time><name>PT4699</name></trkpt>
<trkpt lat="52.953824" lon="-3.262400"><ele>419</ele><time>2022-04-15T13:55:08Z</time><name>PT4700</name></trkpt>
<trkpt lat="52.953862" lon="-3.262346"><ele>418</ele><time>2022-04-15T13:55:12Z</time><name>PT4701</name></trkpt>
<trkpt lat="52.953891" lon="-3.262305"><ele>418</ele><time>2022-04-15T13:55:15Z</time><name>PT4702</name></trkpt>
<trkpt lat="52.953929" lon="-3.262248"><ele>418</ele><time>2022-04-15T13:55:19Z</time><name>PT4703</name></trkpt>
<trkpt lat="52.953960" lon="-3.262204"><ele>418</ele><time>2022-04-15T13:55:22Z</time><name>PT4704</name></trkpt>
<trkpt lat="52.953995" lon="-3.262146"><ele>418</ele><time>2022-04-15T13:55:26Z</time><name>PT4705</name></trkpt>
<trkpt lat="52.954021" lon="-3.262099"><ele>418</ele><time>2022-04-15T13:55:29Z</time><name>PT4706</name></trkpt>
<trkpt lat="52.954058" lon="-3.262043"><ele>418</ele><time>2022-04-15T13:55:33Z</time><name>PT4707</name></trkpt>
<trkpt lat="52.954083" lon="-3.261995"><ele>417</ele><time>2022-04-15T13:55:36Z</time><name>PT4708</name></trkpt>
<trkpt lat="52.954107" lon="-3.261947"><ele>417</ele><time>2022-04-15T13:55:39Z</time><name>PT4709</name></trkpt>
<trkpt lat="52.954143" lon="-3.261886"><ele>417</ele><time>2022-04-15T13:55:43Z</time><name>PT4710</name></trkpt>
<trkpt lat="52.954179" lon="-3.261829"><ele>416</ele><time>2022-04-15T13:55:47Z</time><name>PT4711</name></trkpt>
<trkpt lat="52.954204" lon="-3.261786"><ele>415</ele><time>2022-04-15T13:55:50Z</time><name>PT4712</name></trkpt>
<trkpt lat="52.954239" lon="-3.261731"><ele>415</ele><time>2022-04-15T13:55:54Z</time><name>PT4713</name></trkpt>
<trkpt lat="52.954277" lon="-3.261676"><ele>414</ele><time>2022-04-15T13:55:58Z</time><name>PT4714</name></trkpt>
<trkpt lat="52.954304" lon="-3.261633"><ele>414</ele><time>2022-04-15T13:56:01Z</time><name>PT4715</name></trkpt>
<trkpt lat="52.954343" lon="-3.261581"><ele>413</ele><time>2022-04-15T13:56:05Z</time><name>PT4716</name></trkpt>
<trkpt lat="52.954370" lon="-3.261541"><ele>413</ele><time>2022-04-15T13:56:08Z</time><name>PT4717</name></trkpt>
<trkpt lat="52.954406" lon="-3.261487"><ele>412</ele><time>2022-04-15T13:56:12Z</time><name>PT4718</name></trkpt>
<trkpt lat="52.954435" lon="-3.261445"><ele>412</ele><time>2022-04-15T13:56:15Z</time><name>PT4719</name></trkpt>
<trkpt lat="52.954473" lon="-3.261387"><ele>412</ele><time>2022-04-15T13:56:19Z</time><name>PT4720</name></trkpt>
<trkpt lat="52.954512" lon="-3.261331"><ele>412</ele><time>2022-04-15T13:56:23Z</time><name>PT4721</name></trkpt>
<trkpt lat="52.954547" lon="-3.261267"><ele>411</ele><time>2022-04-15T13:56:27Z</time><name>PT4722</name></trkpt>
<trkpt lat="52.954582" lon="-3.261206"><ele>410</ele><time>2022-04-15T13:56:31Z</time><name>PT4723</name></trkpt>
<trkpt lat="52.954620" lon="-3.261150"><ele>410</ele><time>2022-04-15T13:56:35Z</time><name>PT4724</name></trkpt>
<trkpt lat="52.954646" lon="-3.261107"><ele>410</ele><time>2022-04-15T13:56:38Z</time><name>PT4725</name></trkpt>
<trkpt lat="52.954675" lon="-3.261072"><ele>410</ele><time>2022-04-15T13:56:41Z</time><name>PT4726</name></trkpt>
<trkpt lat="52.954704" lon="-3.261029"><ele>410</ele><time>2022-04-15T13:56:44Z</time><name>PT4727</name></trkpt>
<trkpt lat="52.954741" lon="-3.260977"><ele>409</ele><time>2022-04-15T13:56:48Z</time><name>PT4728</name></trkpt>
<trkpt lat="52.954784" lon="-3.260923"><ele>409</ele><time>2022-04-15T13:56:52Z</time><name>PT4729</name></trkpt>
<trkpt lat="52.954824" lon="-3.260877"><ele>408</ele><time>2022-04-15T13:56:56Z</time><name>PT4730</name></trkpt>
<trkpt lat="52.954855" lon="-3.260852"><ele>408</ele><time>2022-04-15T13:56:59Z</time><name>PT4731</name></trkpt>
<trkpt lat="52.954864" lon="-3.260841"><ele>408</ele><time>2022-04-15T13:57:02Z</time><name>PT4732</name></trkpt>
<trkpt lat="52.954869" lon="-3.260837"><ele>408</ele><time>2022-04-15T13:57:06Z</time><name>PT4733</name></trkpt>
<trkpt lat="52.954872" lon="-3.260819"><ele>408</ele><time>2022-04-15T13:58:01Z</time><name>PT4734</name></trkpt>
<trkpt lat="52.954872" lon="-3.260791"><ele>408</ele><time>2022-04-15T13:58:04Z</time><name>PT4735</name></trkpt>
<trkpt lat="52.954873" lon="-3.260786"><ele>407</ele><time>2022-04-15T13:58:05Z</time><name>PT4736</name></trkpt>
<trkpt lat="52.954873" lon="-3.260784"><ele>407</ele><time>2022-04-15T13:58:06Z</time><name>PT4737</name></trkpt>
<trkpt lat="52.954872" lon="-3.260779"><ele>407</ele><time>2022-04-15T13:58:07Z</time><name>PT4738</name></trkpt>
<trkpt lat="52.954871" lon="-3.260783"><ele>407</ele><time>2022-04-15T13:58:08Z</time><name>PT4739</name></trkpt>
<trkpt lat="52.954873" lon="-3.260790"><ele>407</ele><time>2022-04-15T13:58:09Z</time><name>PT4740</name></trkpt>
<trkpt lat="52.954874" lon="-3.260793"><ele>407</ele><time>2022-04-15T13:58:10Z</time><name>PT4741</name></trkpt>
<trkpt lat="52.954873" lon="-3.260798"><ele>407</ele><time>2022-04-15T13:58:11Z</time><name>PT4742</name></trkpt>
<trkpt lat="52.954871" lon="-3.260802"><ele>407</ele><time>2022-04-15T13:58:12Z</time><name>PT4743</name></trkpt>
<trkpt lat="52.954869" lon="-3.260804"><ele>407</ele><time>2022-04-15T13:58:13Z</time><name>PT4744</name></trkpt>
<trkpt lat="52.954868" lon="-3.260807"><ele>407</ele><time>2022-04-15T13:58:14Z</time><name>PT4745</name></trkpt>
<trkpt lat="52.954868" lon="-3.260810"><ele>407</ele><time>2022-04-15T13:58:15Z</time><name>PT4746</name></trkpt>
<trkpt lat="52.954869" lon="-3.260813"><ele>407</ele><time>2022-04-15T13:58:16Z</time><name>PT4747</name></trkpt>
<trkpt lat="52.954869" lon="-3.260815"><ele>407</ele><time>2022-04-15T13:58:17Z</time><name>PT4748</name></trkpt>
<trkpt lat="52.954870" lon="-3.260819"><ele>407</ele><time>2022-04-15T13:58:18Z</time><name>PT4749</name></trkpt>
<trkpt lat="52.954870" lon="-3.260820"><ele>407</ele><time>2022-04-15T13:58:19Z</time><name>PT4750</name></trkpt>
<trkpt lat="52.954872" lon="-3.260817"><ele>407</ele><time>2022-04-15T13:58:20Z</time><name>PT4751</name></trkpt>
<trkpt lat="52.954872" lon="-3.260817"><ele>407</ele><time>2022-04-15T13:58:21Z</time><name>PT4752</name></trkpt>
<trkpt lat="52.954872" lon="-3.260810"><ele>407</ele><time>2022-04-15T13:58:36Z</time><name>PT4753</name></trkpt>
<trkpt lat="52.954873" lon="-3.260800"><ele>407</ele><time>2022-04-15T13:58:37Z</time><name>PT4754</name></trkpt>
<trkpt lat="52.954871" lon="-3.260792"><ele>407</ele><time>2022-04-15T13:58:38Z</time><name>PT4755</name></trkpt>
<trkpt lat="52.954870" lon="-3.260781"><ele>406</ele><time>2022-04-15T13:58:39Z</time><name>PT4756</name></trkpt>
<trkpt lat="52.954869" lon="-3.260774"><ele>406</ele><time>2022-04-15T13:58:40Z</time><name>PT4757</name></trkpt>
<trkpt lat="52.954867" lon="-3.260765"><ele>406</ele><time>2022-04-15T13:58:41Z</time><name>PT4758</name></trkpt>
<trkpt lat="52.954863" lon="-3.260759"><ele>406</ele><time>2022-04-15T13:58:42Z</time><name>PT4759</name></trkpt>
<trkpt lat="52.954861" lon="-3.260752"><ele>406</ele><time>2022-04-15T13:58:43Z</time><name>PT4760</name></trkpt>
<trkpt lat="52.954858" lon="-3.260749"><ele>406</ele><time>2022-04-15T13:58:44Z</time><name>PT4761</name></trkpt>
<trkpt lat="52.954857" lon="-3.260748"><ele>406</ele><time>2022-04-15T13:58:45Z</time><name>PT4762</name></trkpt>
<trkpt lat="52.954858" lon="-3.260748"><ele>406</ele><time>2022-04-15T13:58:46Z</time><name>PT4763</name></trkpt>
<trkpt lat="52.954859" lon="-3.260747"><ele>406</ele><time>2022-04-15T13:58:47Z</time><name>PT4764</name></trkpt>
<trkpt lat="52.954859" lon="-3.260743"><ele>407</ele><time>2022-04-15T13:58:48Z</time><name>PT4765</name></trkpt>
<trkpt lat="52.954859" lon="-3.260743"><ele>407</ele><time>2022-04-15T13:58:49Z</time><name>PT4766</name></trkpt>
<trkpt lat="52.954867" lon="-3.260732"><ele>407</ele><time>2022-04-15T13:58:53Z</time><name>PT4767</name></trkpt>
<trkpt lat="52.954869" lon="-3.260726"><ele>407</ele><time>2022-04-15T13:58:54Z</time><name>PT4768</name></trkpt>
<trkpt lat="52.954870" lon="-3.260718"><ele>407</ele><time>2022-04-15T13:58:55Z</time><name>PT4769</name></trkpt>
<trkpt lat="52.954868" lon="-3.260710"><ele>407</ele><time>2022-04-15T13:58:56Z</time><name>PT4770</name></trkpt>
<trkpt lat="52.954866" lon="-3.260709"><ele>407</ele><time>2022-04-15T13:58:57Z</time><name>PT4771</name></trkpt>
<trkpt lat="52.954866" lon="-3.260707"><ele>407</ele><time>2022-04-15T13:58:58Z</time><name>PT4772</name></trkpt>
<trkpt lat="52.954866" lon="-3.260704"><ele>407</ele><time>2022-04-15T13:58:59Z</time><name>PT4773</name></trkpt>
<trkpt lat="52.954867" lon="-3.260701"><ele>407</ele><time>2022-04-15T13:59:05Z</time><name>PT4774</name></trkpt>
<trkpt lat="52.954862" lon="-3.260701"><ele>407</ele><time>2022-04-15T13:59:06Z</time><name>PT4775</name></trkpt>
<trkpt lat="52.954859" lon="-3.260712"><ele>407</ele><time>2022-04-15T13:59:07Z</time><name>PT4776</name></trkpt>
<trkpt lat="52.954855" lon="-3.260715"><ele>406</ele><time>2022-04-15T13:59:08Z</time><name>PT4777</name></trkpt>
<trkpt lat="52.954854" lon="-3.260712"><ele>406</ele><time>2022-04-15T13:59:09Z</time><name>PT4778</name></trkpt>
<trkpt lat="52.954852" lon="-3.260707"><ele>406</ele><time>2022-04-15T13:59:10Z</time><name>PT4779</name></trkpt>
<trkpt lat="52.954846" lon="-3.260717"><ele>406</ele><time>2022-04-15T13:59:11Z</time><name>PT4780</name></trkpt>
<trkpt lat="52.954846" lon="-3.260722"><ele>407</ele><time>2022-04-15T13:59:12Z</time><name>PT4781</name></trkpt>
<trkpt lat="52.954846" lon="-3.260720"><ele>406</ele><time>2022-04-15T13:59:13Z</time><name>PT4782</name></trkpt>
<trkpt lat="52.954841" lon="-3.260713"><ele>405</ele><time>2022-04-15T13:59:24Z</time><name>PT4783</name></trkpt>
<trkpt lat="52.954841" lon="-3.260717"><ele>405</ele><time>2022-04-15T13:59:25Z</time><name>PT4784</name></trkpt>
<trkpt lat="52.954842" lon="-3.260718"><ele>405</ele><time>2022-04-15T13:59:26Z</time><name>PT4785</name></trkpt>
<trkpt lat="52.954846" lon="-3.260715"><ele>405</ele><time>2022-04-15T13:59:42Z</time><name>PT4786</name></trkpt>
<trkpt lat="52.954846" lon="-3.260715"><ele>405</ele><time>2022-04-15T13:59:43Z</time><name>PT4787</name></trkpt>
<trkpt lat="52.954848" lon="-3.260709"><ele>404</ele><time>2022-04-15T14:01:10Z</time><name>PT4788</name></trkpt>
<trkpt lat="52.954856" lon="-3.260703"><ele>403</ele><time>2022-04-15T14:01:45Z</time><name>PT4789</name></trkpt>
<trkpt lat="52.954854" lon="-3.260702"><ele>404</ele><time>2022-04-15T14:03:59Z</time><name>PT4790</name></trkpt>
<trkpt lat="52.954854" lon="-3.260701"><ele>404</ele><time>2022-04-15T14:04:00Z</time><name>PT4791</name></trkpt>
<trkpt lat="52.954854" lon="-3.260697"><ele>404</ele><time>2022-04-15T14:04:21Z</time><name>PT4792</name></trkpt>
<trkpt lat="52.954854" lon="-3.260691"><ele>403</ele><time>2022-04-15T14:04:22Z</time><name>PT4793</name></trkpt>
<trkpt lat="52.954856" lon="-3.260692"><ele>403</ele><time>2022-04-15T14:04:59Z</time><name>PT4794</name></trkpt>
<trkpt lat="52.954856" lon="-3.260692"><ele>403</ele><time>2022-04-15T14:05:03Z</time><name>PT4795</name></trkpt>
<trkpt lat="52.954860" lon="-3.260676"><ele>403</ele><time>2022-04-15T14:05:23Z</time><name>PT4796</name></trkpt>
<trkpt lat="52.954860" lon="-3.260667"><ele>402</ele><time>2022-04-15T14:05:31Z</time><name>PT4797</name></trkpt>
<trkpt lat="52.954860" lon="-3.260666"><ele>402</ele><time>2022-04-15T14:05:34Z</time><name>PT4798</name></trkpt>
<trkpt lat="52.954859" lon="-3.260666"><ele>402</ele><time>2022-04-15T14:05:49Z</time><name>PT4799</name></trkpt>
<trkpt lat="52.954858" lon="-3.260669"><ele>403</ele><time>2022-04-15T14:05:53Z</time><name>PT4800</name></trkpt>
<trkpt lat="52.954862" lon="-3.260667"><ele>403</ele><time>2022-04-15T14:06:53Z</time><name>PT4801</name></trkpt>
<trkpt lat="52.954861" lon="-3.260661"><ele>402</ele><time>2022-04-15T14:07:07Z</time><name>PT4802</name></trkpt>
<trkpt lat="52.954881" lon="-3.260657"><ele>402</ele><time>2022-04-15T14:07:35Z</time><name>PT4803</name></trkpt>
<trkpt lat="52.954881" lon="-3.260661"><ele>402</ele><time>2022-04-15T14:07:39Z</time><name>PT4804</name></trkpt>
<trkpt lat="52.954880" lon="-3.260663"><ele>403</ele><time>2022-04-15T14:08:21Z</time><name>PT4805</name></trkpt>
<trkpt lat="52.954881" lon="-3.260657"><ele>402</ele><time>2022-04-15T14:08:25Z</time><name>PT4806</name></trkpt>
<trkpt lat="52.954876" lon="-3.260646"><ele>402</ele><time>2022-04-15T14:08:41Z</time><name>PT4807</name></trkpt>
<trkpt lat="52.954874" lon="-3.260647"><ele>402</ele><time>2022-04-15T14:08:44Z</time><name>PT4808</name></trkpt>
<trkpt lat="52.954875" lon="-3.260647"><ele>402</ele><time>2022-04-15T14:09:47Z</time><name>PT4809</name></trkpt>
<trkpt lat="52.954867" lon="-3.260655"><ele>402</ele><time>2022-04-15T14:09:51Z</time><name>PT4810</name></trkpt>
<trkpt lat="52.954867" lon="-3.260657"><ele>402</ele><time>2022-04-15T14:11:20Z</time><name>PT4811</name></trkpt>
<trkpt lat="52.954869" lon="-3.260653"><ele>403</ele><time>2022-04-15T14:11:24Z</time><name>PT4812</name></trkpt>
<trkpt lat="52.954870" lon="-3.260670"><ele>402</ele><time>2022-04-15T14:11:51Z</time><name>PT4813</name></trkpt>
<trkpt lat="52.954860" lon="-3.260701"><ele>403</ele><time>2022-04-15T14:11:55Z</time><name>PT4814</name></trkpt>
<trkpt lat="52.954862" lon="-3.260694"><ele>402</ele><time>2022-04-15T14:11:59Z</time><name>PT4815</name></trkpt>
<trkpt lat="52.954851" lon="-3.260702"><ele>403</ele><time>2022-04-15T14:12:03Z</time><name>PT4816</name></trkpt>
<trkpt lat="52.954854" lon="-3.260708"><ele>403</ele><time>2022-04-15T14:12:21Z</time><name>PT4817</name></trkpt>
<trkpt lat="52.954854" lon="-3.260711"><ele>404</ele><time>2022-04-15T14:12:25Z</time><name>PT4818</name></trkpt>
<trkpt lat="52.954868" lon="-3.260735"><ele>404</ele><time>2022-04-15T14:12:44Z</time><name>PT4819</name></trkpt>
<trkpt lat="52.954872" lon="-3.260740"><ele>405</ele><time>2022-04-15T14:12:47Z</time><name>PT4820</name></trkpt>
<trkpt lat="52.954873" lon="-3.260746"><ele>404</ele><time>2022-04-15T14:12:51Z</time><name>PT4821</name></trkpt>
<trkpt lat="52.954912" lon="-3.260742"><ele>404</ele><time>2022-04-15T14:12:55Z</time><name>PT4822</name></trkpt>
<trkpt lat="52.954944" lon="-3.260718"><ele>403</ele><time>2022-04-15T14:12:59Z</time><name>PT4823</name></trkpt>
<trkpt lat="52.954976" lon="-3.260681"><ele>403</ele><time>2022-04-15T14:13:03Z</time><name>PT4824</name></trkpt>
<trkpt lat="52.955005" lon="-3.260661"><ele>404</ele><time>2022-04-15T14:13:06Z</time><name>PT4825</name></trkpt>
<trkpt lat="52.955028" lon="-3.260639"><ele>404</ele><time>2022-04-15T14:13:09Z</time><name>PT4826</name></trkpt>
<trkpt lat="52.955060" lon="-3.260600"><ele>404</ele><time>2022-04-15T14:13:13Z</time><name>PT4827</name></trkpt>
<trkpt lat="52.955087" lon="-3.260566"><ele>404</ele><time>2022-04-15T14:13:16Z</time><name>PT4828</name></trkpt>
<trkpt lat="52.955116" lon="-3.260520"><ele>405</ele><time>2022-04-15T14:13:20Z</time><name>PT4829</name></trkpt>
<trkpt lat="52.955144" lon="-3.260477"><ele>404</ele><time>2022-04-15T14:13:24Z</time><name>PT4830</name></trkpt>
<trkpt lat="52.955166" lon="-3.260446"><ele>404</ele><time>2022-04-15T14:13:27Z</time><name>PT4831</name></trkpt>
<trkpt lat="52.955182" lon="-3.260412"><ele>404</ele><time>2022-04-15T14:13:30Z</time><name>PT4832</name></trkpt>
<trkpt lat="52.955196" lon="-3.260393"><ele>404</ele><time>2022-04-15T14:13:32Z</time><name>PT4833</name></trkpt>
<trkpt lat="52.955203" lon="-3.260381"><ele>404</ele><time>2022-04-15T14:13:33Z</time><name>PT4834</name></trkpt>
<trkpt lat="52.955208" lon="-3.260370"><ele>404</ele><time>2022-04-15T14:13:34Z</time><name>PT4835</name></trkpt>
<trkpt lat="52.955213" lon="-3.260360"><ele>403</ele><time>2022-04-15T14:13:35Z</time><name>PT4836</name></trkpt>
<trkpt lat="52.955218" lon="-3.260352"><ele>403</ele><time>2022-04-15T14:13:36Z</time><name>PT4837</name></trkpt>
<trkpt lat="52.955222" lon="-3.260343"><ele>403</ele><time>2022-04-15T14:13:37Z</time><name>PT4838</name></trkpt>
<trkpt lat="52.955227" lon="-3.260335"><ele>403</ele><time>2022-04-15T14:13:38Z</time><name>PT4839</name></trkpt>
<trkpt lat="52.955236" lon="-3.260323"><ele>402</ele><time>2022-04-15T14:13:39Z</time><name>PT4840</name></trkpt>
<trkpt lat="52.955247" lon="-3.260308"><ele>402</ele><time>2022-04-15T14:13:40Z</time><name>PT4841</name></trkpt>
<trkpt lat="52.955251" lon="-3.260296"><ele>402</ele><time>2022-04-15T14:13:41Z</time><name>PT4842</name></trkpt>
<trkpt lat="52.955254" lon="-3.260287"><ele>402</ele><time>2022-04-15T14:13:42Z</time><name>PT4843</name></trkpt>
<trkpt lat="52.955258" lon="-3.260278"><ele>402</ele><time>2022-04-15T14:13:43Z</time><name>PT4844</name></trkpt>
<trkpt lat="52.955265" lon="-3.260267"><ele>401</ele><time>2022-04-15T14:13:44Z</time><name>PT4845</name></trkpt>
<trkpt lat="52.955270" lon="-3.260256"><ele>401</ele><time>2022-04-15T14:13:45Z</time><name>PT4846</name></trkpt>
<trkpt lat="52.955277" lon="-3.260237"><ele>401</ele><time>2022-04-15T14:13:46Z</time><name>PT4847</name></trkpt>
<trkpt lat="52.955283" lon="-3.260229"><ele>401</ele><time>2022-04-15T14:13:47Z</time><name>PT4848</name></trkpt>
<trkpt lat="52.955291" lon="-3.260212"><ele>401</ele><time>2022-04-15T14:13:48Z</time><name>PT4849</name></trkpt>
<trkpt lat="52.955298" lon="-3.260191"><ele>401</ele><time>2022-04-15T14:13:49Z</time><name>PT4850</name></trkpt>
<trkpt lat="52.955305" lon="-3.260175"><ele>401</ele><time>2022-04-15T14:13:50Z</time><name>PT4851</name></trkpt>
<trkpt lat="52.955312" lon="-3.260161"><ele>401</ele><time>2022-04-15T14:13:51Z</time><name>PT4852</name></trkpt>
<trkpt lat="52.955317" lon="-3.260145"><ele>400</ele><time>2022-04-15T14:13:52Z</time><name>PT4853</name></trkpt>
<trkpt lat="52.955322" lon="-3.260131"><ele>400</ele><time>2022-04-15T14:13:53Z</time><name>PT4854</name></trkpt>
<trkpt lat="52.955329" lon="-3.260117"><ele>401</ele><time>2022-04-15T14:13:54Z</time><name>PT4855</name></trkpt>
<trkpt lat="52.955334" lon="-3.260102"><ele>401</ele><time>2022-04-15T14:13:55Z</time><name>PT4856</name></trkpt>
<trkpt lat="52.955341" lon="-3.260087"><ele>401</ele><time>2022-04-15T14:13:56Z</time><name>PT4857</name></trkpt>
<trkpt lat="52.955349" lon="-3.260071"><ele>400</ele><time>2022-04-15T14:13:57Z</time><name>PT4858</name></trkpt>
<trkpt lat="52.955357" lon="-3.260055"><ele>400</ele><time>2022-04-15T14:13:58Z</time><name>PT4859</name></trkpt>
<trkpt lat="52.955364" lon="-3.260041"><ele>400</ele><time>2022-04-15T14:13:59Z</time><name>PT4860</name></trkpt>
<trkpt lat="52.955371" lon="-3.260027"><ele>400</ele><time>2022-04-15T14:14:00Z</time><name>PT4861</name></trkpt>
<trkpt lat="52.955376" lon="-3.260012"><ele>400</ele><time>2022-04-15T14:14:01Z</time><name>PT4862</name></trkpt>
<trkpt lat="52.955382" lon="-3.259993"><ele>400</ele><time>2022-04-15T14:14:02Z</time><name>PT4863</name></trkpt>
<trkpt lat="52.955388" lon="-3.259978"><ele>400</ele><time>2022-04-15T14:14:03Z</time><name>PT4864</name></trkpt>
<trkpt lat="52.955395" lon="-3.259967"><ele>400</ele><time>2022-04-15T14:14:04Z</time><name>PT4865</name></trkpt>
<trkpt lat="52.955403" lon="-3.259950"><ele>400</ele><time>2022-04-15T14:14:05Z</time><name>PT4866</name></trkpt>
<trkpt lat="52.955409" lon="-3.259933"><ele>400</ele><time>2022-04-15T14:14:06Z</time><name>PT4867</name></trkpt>
<trkpt lat="52.955415" lon="-3.259916"><ele>400</ele><time>2022-04-15T14:14:07Z</time><name>PT4868</name></trkpt>
<trkpt lat="52.955422" lon="-3.259898"><ele>401</ele><time>2022-04-15T14:14:08Z</time><name>PT4869</name></trkpt>
<trkpt lat="52.955429" lon="-3.259885"><ele>401</ele><time>2022-04-15T14:14:09Z</time><name>PT4870</name></trkpt>
<trkpt lat="52.955437" lon="-3.259876"><ele>401</ele><time>2022-04-15T14:14:10Z</time><name>PT4871</name></trkpt>
<trkpt lat="52.955445" lon="-3.259859"><ele>401</ele><time>2022-04-15T14:14:11Z</time><name>PT4872</name></trkpt>
<trkpt lat="52.955454" lon="-3.259846"><ele>401</ele><time>2022-04-15T14:14:12Z</time><name>PT4873</name></trkpt>
<trkpt lat="52.955461" lon="-3.259833"><ele>401</ele><time>2022-04-15T14:14:13Z</time><name>PT4874</name></trkpt>
<trkpt lat="52.955467" lon="-3.259819"><ele>401</ele><time>2022-04-15T14:14:14Z</time><name>PT4875</name></trkpt>
<trkpt lat="52.955475" lon="-3.259806"><ele>400</ele><time>2022-04-15T14:14:15Z</time><name>PT4876</name></trkpt>
<trkpt lat="52.955483" lon="-3.259794"><ele>400</ele><time>2022-04-15T14:14:16Z</time><name>PT4877</name></trkpt>
<trkpt lat="52.955490" lon="-3.259781"><ele>400</ele><time>2022-04-15T14:14:17Z</time><name>PT4878</name></trkpt>
<trkpt lat="52.955497" lon="-3.259766"><ele>400</ele><time>2022-04-15T14:14:18Z</time><name>PT4879</name></trkpt>
<trkpt lat="52.955502" lon="-3.259752"><ele>400</ele><time>2022-04-15T14:14:19Z</time><name>PT4880</name></trkpt>
<trkpt lat="52.955510" lon="-3.259735"><ele>400</ele><time>2022-04-15T14:14:20Z</time><name>PT4881</name></trkpt>
<trkpt lat="52.955520" lon="-3.259724"><ele>400</ele><time>2022-04-15T14:14:21Z</time><name>PT4882</name></trkpt>
<trkpt lat="52.955524" lon="-3.259712"><ele>400</ele><time>2022-04-15T14:14:22Z</time><name>PT4883</name></trkpt>
<trkpt lat="52.955532" lon="-3.259701"><ele>400</ele><time>2022-04-15T14:14:23Z</time><name>PT4884</name></trkpt>
<trkpt lat="52.955542" lon="-3.259687"><ele>400</ele><time>2022-04-15T14:14:24Z</time><name>PT4885</name></trkpt>
<trkpt lat="52.955549" lon="-3.259676"><ele>400</ele><time>2022-04-15T14:14:25Z</time><name>PT4886</name></trkpt>
<trkpt lat="52.955556" lon="-3.259665"><ele>400</ele><time>2022-04-15T14:14:26Z</time><name>PT4887</name></trkpt>
<trkpt lat="52.955563" lon="-3.259652"><ele>400</ele><time>2022-04-15T14:14:27Z</time><name>PT4888</name></trkpt>
<trkpt lat="52.955570" lon="-3.259642"><ele>400</ele><time>2022-04-15T14:14:28Z</time><name>PT4889</name></trkpt>
<trkpt lat="52.955578" lon="-3.259638"><ele>399</ele><time>2022-04-15T14:14:29Z</time><name>PT4890</name></trkpt>
<trkpt lat="52.955588" lon="-3.259627"><ele>399</ele><time>2022-04-15T14:14:30Z</time><name>PT4891</name></trkpt>
<trkpt lat="52.955599" lon="-3.259616"><ele>398</ele><time>2022-04-15T14:14:31Z</time><name>PT4892</name></trkpt>
<trkpt lat="52.955608" lon="-3.259608"><ele>398</ele><time>2022-04-15T14:14:32Z</time><name>PT4893</name></trkpt>
<trkpt lat="52.955616" lon="-3.259596"><ele>398</ele><time>2022-04-15T14:14:33Z</time><name>PT4894</name></trkpt>
<trkpt lat="52.955627" lon="-3.259585"><ele>398</ele><time>2022-04-15T14:14:34Z</time><name>PT4895</name></trkpt>
<trkpt lat="52.955638" lon="-3.259573"><ele>398</ele><time>2022-04-15T14:14:35Z</time><name>PT4896</name></trkpt>
<trkpt lat="52.955645" lon="-3.259563"><ele>398</ele><time>2022-04-15T14:14:36Z</time><name>PT4897</name></trkpt>
<trkpt lat="52.955654" lon="-3.259553"><ele>398</ele><time>2022-04-15T14:14:37Z</time><name>PT4898</name></trkpt>
<trkpt lat="52.955664" lon="-3.259542"><ele>398</ele><time>2022-04-15T14:14:38Z</time><name>PT4899</name></trkpt>
<trkpt lat="52.955673" lon="-3.259533"><ele>397</ele><time>2022-04-15T14:14:39Z</time><name>PT4900</name></trkpt>
<trkpt lat="52.955680" lon="-3.259524"><ele>397</ele><time>2022-04-15T14:14:40Z</time><name>PT4901</name></trkpt>
<trkpt lat="52.955691" lon="-3.259512"><ele>397</ele><time>2022-04-15T14:14:41Z</time><name>PT4902</name></trkpt>
<trkpt lat="52.955700" lon="-3.259497"><ele>397</ele><time>2022-04-15T14:14:42Z</time><name>PT4903</name></trkpt>
<trkpt lat="52.955708" lon="-3.259485"><ele>397</ele><time>2022-04-15T14:14:43Z</time><name>PT4904</name></trkpt>
<trkpt lat="52.955717" lon="-3.259474"><ele>396</ele><time>2022-04-15T14:14:44Z</time><name>PT4905</name></trkpt>
<trkpt lat="52.955726" lon="-3.259461"><ele>396</ele><time>2022-04-15T14:14:45Z</time><name>PT4906</name></trkpt>
<trkpt lat="52.955737" lon="-3.259450"><ele>396</ele><time>2022-04-15T14:14:46Z</time><name>PT4907</name></trkpt>
<trkpt lat="52.955746" lon="-3.259441"><ele>396</ele><time>2022-04-15T14:14:47Z</time><name>PT4908</name></trkpt>
<trkpt lat="52.955754" lon="-3.259430"><ele>396</ele><time>2022-04-15T14:14:48Z</time><name>PT4909</name></trkpt>
<trkpt lat="52.955762" lon="-3.259419"><ele>396</ele><time>2022-04-15T14:14:49Z</time><name>PT4910</name></trkpt>
<trkpt lat="52.955772" lon="-3.259406"><ele>396</ele><time>2022-04-15T14:14:50Z</time><name>PT4911</name></trkpt>
<trkpt lat="52.955782" lon="-3.259394"><ele>396</ele><time>2022-04-15T14:14:51Z</time><name>PT4912</name></trkpt>
<trkpt lat="52.955792" lon="-3.259387"><ele>396</ele><time>2022-04-15T14:14:52Z</time><name>PT4913</name></trkpt>
<trkpt lat="52.955802" lon="-3.259379"><ele>396</ele><time>2022-04-15T14:14:53Z</time><name>PT4914</name></trkpt>
<trkpt lat="52.955813" lon="-3.259367"><ele>396</ele><time>2022-04-15T14:14:54Z</time><name>PT4915</name></trkpt>
<trkpt lat="52.955823" lon="-3.259356"><ele>396</ele><time>2022-04-15T14:14:55Z</time><name>PT4916</name></trkpt>
<trkpt lat="52.955833" lon="-3.259345"><ele>396</ele><time>2022-04-15T14:14:56Z</time><name>PT4917</name></trkpt>
<trkpt lat="52.955846" lon="-3.259332"><ele>396</ele><time>2022-04-15T14:14:57Z</time><name>PT4918</name></trkpt>
<trkpt lat="52.955857" lon="-3.259322"><ele>396</ele><time>2022-04-15T14:14:58Z</time><name>PT4919</name></trkpt>
<trkpt lat="52.955868" lon="-3.259313"><ele>395</ele><time>2022-04-15T14:14:59Z</time><name>PT4920</name></trkpt>
<trkpt lat="52.955879" lon="-3.259306"><ele>395</ele><time>2022-04-15T14:15:00Z</time><name>PT4921</name></trkpt>
<trkpt lat="52.955890" lon="-3.259299"><ele>395</ele><time>2022-04-15T14:15:01Z</time><name>PT4922</name></trkpt>
<trkpt lat="52.955902" lon="-3.259291"><ele>395</ele><time>2022-04-15T14:15:02Z</time><name>PT4923</name></trkpt>
<trkpt lat="52.955912" lon="-3.259283"><ele>395</ele><time>2022-04-15T14:15:03Z</time><name>PT4924</name></trkpt>
<trkpt lat="52.955922" lon="-3.259275"><ele>394</ele><time>2022-04-15T14:15:04Z</time><name>PT4925</name></trkpt>
<trkpt lat="52.955933" lon="-3.259268"><ele>395</ele><time>2022-04-15T14:15:05Z</time><name>PT4926</name></trkpt>
<trkpt lat="52.955944" lon="-3.259259"><ele>394</ele><time>2022-04-15T14:15:06Z</time><name>PT4927</name></trkpt>
<trkpt lat="52.955955" lon="-3.259252"><ele>394</ele><time>2022-04-15T14:15:07Z</time><name>PT4928</name></trkpt>
<trkpt lat="52.955966" lon="-3.259247"><ele>394</ele><time>2022-04-15T14:15:08Z</time><name>PT4929</name></trkpt>
<trkpt lat="52.955977" lon="-3.259244"><ele>394</ele><time>2022-04-15T14:15:09Z</time><name>PT4930</name></trkpt>
<trkpt lat="52.955990" lon="-3.259243"><ele>393</ele><time>2022-04-15T14:15:10Z</time><name>PT4931</name></trkpt>
<trkpt lat="52.955999" lon="-3.259240"><ele>393</ele><time>2022-04-15T14:15:11Z</time><name>PT4932</name></trkpt>
<trkpt lat="52.956010" lon="-3.259236"><ele>393</ele><time>2022-04-15T14:15:12Z</time><name>PT4933</name></trkpt>
<trkpt lat="52.956025" lon="-3.259233"><ele>393</ele><time>2022-04-15T14:15:13Z</time><name>PT4934</name></trkpt>
<trkpt lat="52.956042" lon="-3.259231"><ele>393</ele><time>2022-04-15T14:15:14Z</time><name>PT4935</name></trkpt>
<trkpt lat="52.956054" lon="-3.259231"><ele>392</ele><time>2022-04-15T14:15:15Z</time><name>PT4936</name></trkpt>
<trkpt lat="52.956064" lon="-3.259229"><ele>392</ele><time>2022-04-15T14:15:16Z</time><name>PT4937</name></trkpt>
<trkpt lat="52.956078" lon="-3.259226"><ele>392</ele><time>2022-04-15T14:15:17Z</time><name>PT4938</name></trkpt>
<trkpt lat="52.956093" lon="-3.259227"><ele>392</ele><time>2022-04-15T14:15:18Z</time><name>PT4939</name></trkpt>
<trkpt lat="52.956104" lon="-3.259224"><ele>392</ele><time>2022-04-15T14:15:19Z</time><name>PT4940</name></trkpt>
<trkpt lat="52.956119" lon="-3.259219"><ele>393</ele><time>2022-04-15T14:15:20Z</time><name>PT4941</name></trkpt>
<trkpt lat="52.956134" lon="-3.259214"><ele>393</ele><time>2022-04-15T14:15:21Z</time><name>PT4942</name></trkpt>
<trkpt lat="52.956149" lon="-3.259210"><ele>392</ele><time>2022-04-15T14:15:22Z</time><name>PT4943</name></trkpt>
<trkpt lat="52.956163" lon="-3.259208"><ele>392</ele><time>2022-04-15T14:15:23Z</time><name>PT4944</name></trkpt>
<trkpt lat="52.956176" lon="-3.259208"><ele>392</ele><time>2022-04-15T14:15:24Z</time><name>PT4945</name></trkpt>
<trkpt lat="52.956192" lon="-3.259207"><ele>392</ele><time>2022-04-15T14:15:25Z</time><name>PT4946</name></trkpt>
<trkpt lat="52.956205" lon="-3.259204"><ele>391</ele><time>2022-04-15T14:15:26Z</time><name>PT4947</name></trkpt>
<trkpt lat="52.956217" lon="-3.259201"><ele>391</ele><time>2022-04-15T14:15:27Z</time><name>PT4948</name></trkpt>
<trkpt lat="52.956227" lon="-3.259196"><ele>391</ele><time>2022-04-15T14:15:28Z</time><name>PT4949</name></trkpt>
<trkpt lat="52.956242" lon="-3.259193"><ele>391</ele><time>2022-04-15T14:15:29Z</time><name>PT4950</name></trkpt>
<trkpt lat="52.956256" lon="-3.259191"><ele>391</ele><time>2022-04-15T14:15:30Z</time><name>PT4951</name></trkpt>
<trkpt lat="52.956269" lon="-3.259190"><ele>390</ele><time>2022-04-15T14:15:31Z</time><name>PT4952</name></trkpt>
<trkpt lat="52.956281" lon="-3.259192"><ele>390</ele><time>2022-04-15T14:15:32Z</time><name>PT4953</name></trkpt>
<trkpt lat="52.956295" lon="-3.259197"><ele>391</ele><time>2022-04-15T14:15:33Z</time><name>PT4954</name></trkpt>
<trkpt lat="52.956310" lon="-3.259205"><ele>390</ele><time>2022-04-15T14:15:34Z</time><name>PT4955</name></trkpt>
<trkpt lat="52.956323" lon="-3.259212"><ele>390</ele><time>2022-04-15T14:15:35Z</time><name>PT4956</name></trkpt>
<trkpt lat="52.956335" lon="-3.259217"><ele>389</ele><time>2022-04-15T14:15:36Z</time><name>PT4957</name></trkpt>
<trkpt lat="52.956346" lon="-3.259219"><ele>389</ele><time>2022-04-15T14:15:37Z</time><name>PT4958</name></trkpt>
<trkpt lat="52.956358" lon="-3.259224"><ele>389</ele><time>2022-04-15T14:15:38Z</time><name>PT4959</name></trkpt>
<trkpt lat="52.956370" lon="-3.259229"><ele>389</ele><time>2022-04-15T14:15:39Z</time><name>PT4960</name></trkpt>
<trkpt lat="52.956385" lon="-3.259235"><ele>389</ele><time>2022-04-15T14:15:40Z</time><name>PT4961</name></trkpt>
<trkpt lat="52.956396" lon="-3.259241"><ele>390</ele><time>2022-04-15T14:15:41Z</time><name>PT4962</name></trkpt>
<trkpt lat="52.956410" lon="-3.259251"><ele>390</ele><time>2022-04-15T14:15:42Z</time><name>PT4963</name></trkpt>
<trkpt lat="52.956420" lon="-3.259256"><ele>389</ele><time>2022-04-15T14:15:43Z</time><name>PT4964</name></trkpt>
<trkpt lat="52.956431" lon="-3.259259"><ele>389</ele><time>2022-04-15T14:15:44Z</time><name>PT4965</name></trkpt>
<trkpt lat="52.956445" lon="-3.259264"><ele>389</ele><time>2022-04-15T14:15:45Z</time><name>PT4966</name></trkpt>
<trkpt lat="52.956457" lon="-3.259269"><ele>388</ele><time>2022-04-15T14:15:46Z</time><name>PT4967</name></trkpt>
<trkpt lat="52.956466" lon="-3.259277"><ele>388</ele><time>2022-04-15T14:15:47Z</time><name>PT4968</name></trkpt>
<trkpt lat="52.956476" lon="-3.259283"><ele>388</ele><time>2022-04-15T14:15:48Z</time><name>PT4969</name></trkpt>
<trkpt lat="52.956489" lon="-3.259292"><ele>387</ele><time>2022-04-15T14:15:49Z</time><name>PT4970</name></trkpt>
<trkpt lat="52.956500" lon="-3.259296"><ele>387</ele><time>2022-04-15T14:15:50Z</time><name>PT4971</name></trkpt>
<trkpt lat="52.956509" lon="-3.259296"><ele>386</ele><time>2022-04-15T14:15:51Z</time><name>PT4972</name></trkpt>
<trkpt lat="52.956523" lon="-3.259297"><ele>386</ele><time>2022-04-15T14:15:52Z</time><name>PT4973</name></trkpt>
<trkpt lat="52.956534" lon="-3.259301"><ele>386</ele><time>2022-04-15T14:15:53Z</time><name>PT4974</name></trkpt>
<trkpt lat="52.956545" lon="-3.259304"><ele>386</ele><time>2022-04-15T14:15:54Z</time><name>PT4975</name></trkpt>
<trkpt lat="52.956557" lon="-3.259309"><ele>386</ele><time>2022-04-15T14:15:55Z</time><name>PT4976</name></trkpt>
<trkpt lat="52.956567" lon="-3.259310"><ele>386</ele><time>2022-04-15T14:15:56Z</time><name>PT4977</name></trkpt>
<trkpt lat="52.956578" lon="-3.259307"><ele>386</ele><time>2022-04-15T14:15:57Z</time><name>PT4978</name></trkpt>
<trkpt lat="52.956591" lon="-3.259304"><ele>385</ele><time>2022-04-15T14:15:58Z</time><name>PT4979</name></trkpt>
<trkpt lat="52.956604" lon="-3.259300"><ele>385</ele><time>2022-04-15T14:15:59Z</time><name>PT4980</name></trkpt>
<trkpt lat="52.956615" lon="-3.259298"><ele>385</ele><time>2022-04-15T14:16:00Z</time><name>PT4981</name></trkpt>
<trkpt lat="52.956627" lon="-3.259297"><ele>385</ele><time>2022-04-15T14:16:01Z</time><name>PT4982</name></trkpt>
<trkpt lat="52.956642" lon="-3.259295"><ele>385</ele><time>2022-04-15T14:16:02Z</time><name>PT4983</name></trkpt>
<trkpt lat="52.956655" lon="-3.259292"><ele>384</ele><time>2022-04-15T14:16:03Z</time><name>PT4984</name></trkpt>
<trkpt lat="52.956667" lon="-3.259288"><ele>384</ele><time>2022-04-15T14:16:04Z</time><name>PT4985</name></trkpt>
<trkpt lat="52.956680" lon="-3.259283"><ele>384</ele><time>2022-04-15T14:16:05Z</time><name>PT4986</name></trkpt>
<trkpt lat="52.956690" lon="-3.259281"><ele>384</ele><time>2022-04-15T14:16:06Z</time><name>PT4987</name></trkpt>
<trkpt lat="52.956698" lon="-3.259282"><ele>384</ele><time>2022-04-15T14:16:07Z</time><name>PT4988</name></trkpt>
<trkpt lat="52.956707" lon="-3.259283"><ele>383</ele><time>2022-04-15T14:16:08Z</time><name>PT4989</name></trkpt>
<trkpt lat="52.956717" lon="-3.259284"><ele>383</ele><time>2022-04-15T14:16:09Z</time><name>PT4990</name></trkpt>
<trkpt lat="52.956728" lon="-3.259281"><ele>383</ele><time>2022-04-15T14:16:10Z</time><name>PT4991</name></trkpt>
<trkpt lat="52.956741" lon="-3.259279"><ele>383</ele><time>2022-04-15T14:16:11Z</time><name>PT4992</name></trkpt>
<trkpt lat="52.956753" lon="-3.259276"><ele>383</ele><time>2022-04-15T14:16:12Z</time><name>PT4993</name></trkpt>
<trkpt lat="52.956764" lon="-3.259273"><ele>383</ele><time>2022-04-15T14:16:13Z</time><name>PT4994</name></trkpt>
<trkpt lat="52.956778" lon="-3.259274"><ele>383</ele><time>2022-04-15T14:16:14Z</time><name>PT4995</name></trkpt>
<trkpt lat="52.956789" lon="-3.259275"><ele>383</ele><time>2022-04-15T14:16:15Z</time><name>PT4996</name></trkpt>
<trkpt lat="52.956803" lon="-3.259276"><ele>383</ele><time>2022-04-15T14:16:16Z</time><name>PT4997</name></trkpt>
<trkpt lat="52.956812" lon="-3.259275"><ele>382</ele><time>2022-04-15T14:16:17Z</time><name>PT4998</name></trkpt>
<trkpt lat="52.956824" lon="-3.259273"><ele>382</ele><time>2022-04-15T14:16:18Z</time><name>PT4999</name></trkpt>
<trkpt lat="52.956837" lon="-3.259271"><ele>382</ele><time>2022-04-15T14:16:19Z</time><name>PT5000</name></trkpt>
<trkpt lat="52.956851" lon="-3.259269"><ele>382</ele><time>2022-04-15T14:16:20Z</time><name>PT5001</name></trkpt>
<trkpt lat="52.956861" lon="-3.259269"><ele>382</ele><time>2022-04-15T14:16:21Z</time><name>PT5002</name></trkpt>
<trkpt lat="52.956870" lon="-3.259267"><ele>382</ele><time>2022-04-15T14:16:22Z</time><name>PT5003</name></trkpt>
<trkpt lat="52.956883" lon="-3.259261"><ele>382</ele><time>2022-04-15T14:16:23Z</time><name>PT5004</name></trkpt>
<trkpt lat="52.956893" lon="-3.259254"><ele>382</ele><time>2022-04-15T14:16:24Z</time><name>PT5005</name></trkpt>
<trkpt lat="52.956905" lon="-3.259249"><ele>381</ele><time>2022-04-15T14:16:25Z</time><name>PT5006</name></trkpt>
<trkpt lat="52.956915" lon="-3.259243"><ele>381</ele><time>2022-04-15T14:16:26Z</time><name>PT5007</name></trkpt>
<trkpt lat="52.956924" lon="-3.259238"><ele>381</ele><time>2022-04-15T14:16:27Z</time><name>PT5008</name></trkpt>
<trkpt lat="52.956930" lon="-3.259228"><ele>381</ele><time>2022-04-15T14:16:28Z</time><name>PT5009</name></trkpt>
<trkpt lat="52.956937" lon="-3.259217"><ele>381</ele><time>2022-04-15T14:16:29Z</time><name>PT5010</name></trkpt>
<trkpt lat="52.956947" lon="-3.259205"><ele>380</ele><time>2022-04-15T14:16:30Z</time><name>PT5011</name></trkpt>
<trkpt lat="52.956956" lon="-3.259195"><ele>380</ele><time>2022-04-15T14:16:31Z</time><name>PT5012</name></trkpt>
<trkpt lat="52.956965" lon="-3.259185"><ele>380</ele><time>2022-04-15T14:16:32Z</time><name>PT5013</name></trkpt>
<trkpt lat="52.956976" lon="-3.259178"><ele>380</ele><time>2022-04-15T14:16:33Z</time><name>PT5014</name></trkpt>
<trkpt lat="52.956987" lon="-3.259170"><ele>379</ele><time>2022-04-15T14:16:34Z</time><name>PT5015</name></trkpt>
<trkpt lat="52.956997" lon="-3.259167"><ele>379</ele><time>2022-04-15T14:16:35Z</time><name>PT5016</name></trkpt>
<trkpt lat="52.957005" lon="-3.259165"><ele>378</ele><time>2022-04-15T14:16:36Z</time><name>PT5017</name></trkpt>
<trkpt lat="52.957016" lon="-3.259161"><ele>378</ele><time>2022-04-15T14:16:37Z</time><name>PT5018</name></trkpt>
<trkpt lat="52.957025" lon="-3.259156"><ele>378</ele><time>2022-04-15T14:16:38Z</time><name>PT5019</name></trkpt>
<trkpt lat="52.957035" lon="-3.259149"><ele>378</ele><time>2022-04-15T14:16:39Z</time><name>PT5020</name></trkpt>
<trkpt lat="52.957078" lon="-3.259123"><ele>376</ele><time>2022-04-15T14:16:43Z</time><name>PT5021</name></trkpt>
<trkpt lat="52.957115" lon="-3.259117"><ele>374</ele><time>2022-04-15T14:16:47Z</time><name>PT5022</name></trkpt>
<trkpt lat="52.957151" lon="-3.259130"><ele>373</ele><time>2022-04-15T14:16:50Z</time><name>PT5023</name></trkpt>
<trkpt lat="52.957189" lon="-3.259146"><ele>371</ele><time>2022-04-15T14:16:54Z</time><name>PT5024</name></trkpt>
<trkpt lat="52.957224" lon="-3.259150"><ele>368</ele><time>2022-04-15T14:16:58Z</time><name>PT5025</name></trkpt>
<trkpt lat="52.957253" lon="-3.259144"><ele>368</ele><time>2022-04-15T14:17:01Z</time><name>PT5026</name></trkpt>
<trkpt lat="52.957287" lon="-3.259157"><ele>367</ele><time>2022-04-15T14:17:05Z</time><name>PT5027</name></trkpt>
<trkpt lat="52.957322" lon="-3.259167"><ele>366</ele><time>2022-04-15T14:17:08Z</time><name>PT5028</name></trkpt>
<trkpt lat="52.957368" lon="-3.259182"><ele>365</ele><time>2022-04-15T14:17:12Z</time><name>PT5029</name></trkpt>
<trkpt lat="52.957420" lon="-3.259187"><ele>364</ele><time>2022-04-15T14:17:16Z</time><name>PT5030</name></trkpt>
<trkpt lat="52.957459" lon="-3.259191"><ele>363</ele><time>2022-04-15T14:17:19Z</time><name>PT5031</name></trkpt>
<trkpt lat="52.957509" lon="-3.259197"><ele>362</ele><time>2022-04-15T14:17:23Z</time><name>PT5032</name></trkpt>
<trkpt lat="52.957561" lon="-3.259206"><ele>363</ele><time>2022-04-15T14:17:27Z</time><name>PT5033</name></trkpt>
<trkpt lat="52.957594" lon="-3.259211"><ele>362</ele><time>2022-04-15T14:17:31Z</time><name>PT5034</name></trkpt>
<trkpt lat="52.957621" lon="-3.259220"><ele>364</ele><time>2022-04-15T14:17:35Z</time><name>PT5035</name></trkpt>
<trkpt lat="52.957639" lon="-3.259216"><ele>365</ele><time>2022-04-15T14:17:38Z</time><name>PT5036</name></trkpt>
<trkpt lat="52.957653" lon="-3.259214"><ele>367</ele><time>2022-04-15T14:17:41Z</time><name>PT5037</name></trkpt>
<trkpt lat="52.957667" lon="-3.259208"><ele>367</ele><time>2022-04-15T14:18:25Z</time><name>PT5038</name></trkpt>
<trkpt lat="52.957704" lon="-3.259213"><ele>364</ele><time>2022-04-15T14:18:29Z</time><name>PT5039</name></trkpt>
<trkpt lat="52.957730" lon="-3.259220"><ele>362</ele><time>2022-04-15T14:18:32Z</time><name>PT5040</name></trkpt>
<trkpt lat="52.957763" lon="-3.259220"><ele>362</ele><time>2022-04-15T14:18:35Z</time><name>PT5041</name></trkpt>
<trkpt lat="52.957798" lon="-3.259238"><ele>361</ele><time>2022-04-15T14:18:39Z</time><name>PT5042</name></trkpt>
<trkpt lat="52.957834" lon="-3.259251"><ele>359</ele><time>2022-04-15T14:18:43Z</time><name>PT5043</name></trkpt>
<trkpt lat="52.957863" lon="-3.259266"><ele>358</ele><time>2022-04-15T14:18:46Z</time><name>PT5044</name></trkpt>
<trkpt lat="52.957893" lon="-3.259281"><ele>357</ele><time>2022-04-15T14:18:50Z</time><name>PT5045</name></trkpt>
<trkpt lat="52.957918" lon="-3.259286"><ele>357</ele><time>2022-04-15T14:18:53Z</time><name>PT5046</name></trkpt>
<trkpt lat="52.957951" lon="-3.259280"><ele>357</ele><time>2022-04-15T14:18:57Z</time><name>PT5047</name></trkpt>
<trkpt lat="52.957974" lon="-3.259293"><ele>357</ele><time>2022-04-15T14:19:00Z</time><name>PT5048</name></trkpt>
<trkpt lat="52.957997" lon="-3.259294"><ele>356</ele><time>2022-04-15T14:19:03Z</time><name>PT5049</name></trkpt>
<trkpt lat="52.958030" lon="-3.259301"><ele>356</ele><time>2022-04-15T14:19:06Z</time><name>PT5050</name></trkpt>
<trkpt lat="52.958067" lon="-3.259299"><ele>357</ele><time>2022-04-15T14:19:10Z</time><name>PT5051</name></trkpt>
<trkpt lat="52.958087" lon="-3.259296"><ele>355</ele><time>2022-04-15T14:19:13Z</time><name>PT5052</name></trkpt>
<trkpt lat="52.958121" lon="-3.259282"><ele>355</ele><time>2022-04-15T14:19:17Z</time><name>PT5053</name></trkpt>
<trkpt lat="52.958154" lon="-3.259283"><ele>354</ele><time>2022-04-15T14:19:21Z</time><name>PT5054</name></trkpt>
<trkpt lat="52.958177" lon="-3.259283"><ele>352</ele><time>2022-04-15T14:19:25Z</time><name>PT5055</name></trkpt>
<trkpt lat="52.958207" lon="-3.259269"><ele>352</ele><time>2022-04-15T14:19:29Z</time><name>PT5056</name></trkpt>
<trkpt lat="52.958241" lon="-3.259261"><ele>352</ele><time>2022-04-15T14:19:32Z</time><name>PT5057</name></trkpt>
<trkpt lat="52.958266" lon="-3.259239"><ele>352</ele><time>2022-04-15T14:19:35Z</time><name>PT5058</name></trkpt>
<trkpt lat="52.958293" lon="-3.259215"><ele>352</ele><time>2022-04-15T14:19:38Z</time><name>PT5059</name></trkpt>
<trkpt lat="52.958329" lon="-3.259199"><ele>350</ele><time>2022-04-15T14:19:42Z</time><name>PT5060</name></trkpt>
<trkpt lat="52.958369" lon="-3.259190"><ele>351</ele><time>2022-04-15T14:19:46Z</time><name>PT5061</name></trkpt>
<trkpt lat="52.958396" lon="-3.259175"><ele>350</ele><time>2022-04-15T14:19:49Z</time><name>PT5062</name></trkpt>
<trkpt lat="52.958419" lon="-3.259150"><ele>349</ele><time>2022-04-15T14:19:52Z</time><name>PT5063</name></trkpt>
<trkpt lat="52.958443" lon="-3.259114"><ele>348</ele><time>2022-04-15T14:19:56Z</time><name>PT5064</name></trkpt>
<trkpt lat="52.958477" lon="-3.259110"><ele>344</ele><time>2022-04-15T14:20:00Z</time><name>PT5065</name></trkpt>
<trkpt lat="52.958500" lon="-3.259104"><ele>341</ele><time>2022-04-15T14:20:03Z</time><name>PT5066</name></trkpt>
<trkpt lat="52.958533" lon="-3.259089"><ele>340</ele><time>2022-04-15T14:20:07Z</time><name>PT5067</name></trkpt>
<trkpt lat="52.958564" lon="-3.259074"><ele>338</ele><time>2022-04-15T14:20:11Z</time><name>PT5068</name></trkpt>
<trkpt lat="52.958596" lon="-3.259062"><ele>337</ele><time>2022-04-15T14:20:14Z</time><name>PT5069</name></trkpt>
<trkpt lat="52.958636" lon="-3.259043"><ele>338</ele><time>2022-04-15T14:20:17Z</time><name>PT5070</name></trkpt>
<trkpt lat="52.958685" lon="-3.259024"><ele>339</ele><time>2022-04-15T14:20:21Z</time><name>PT5071</name></trkpt>
<trkpt lat="52.958725" lon="-3.259015"><ele>340</ele><time>2022-04-15T14:20:24Z</time><name>PT5072</name></trkpt>
<trkpt lat="52.958764" lon="-3.259011"><ele>339</ele><time>2022-04-15T14:20:28Z</time><name>PT5073</name></trkpt>
<trkpt lat="52.958808" lon="-3.259019"><ele>339</ele><time>2022-04-15T14:20:32Z</time><name>PT5074</name></trkpt>
<trkpt lat="52.958847" lon="-3.259019"><ele>337</ele><time>2022-04-15T14:20:36Z</time><name>PT5075</name></trkpt>
<trkpt lat="52.958877" lon="-3.259016"><ele>336</ele><time>2022-04-15T14:20:39Z</time><name>PT5076</name></trkpt>
<trkpt lat="52.958913" lon="-3.259018"><ele>333</ele><time>2022-04-15T14:20:43Z</time><name>PT5077</name></trkpt>
<trkpt lat="52.958968" lon="-3.259008"><ele>334</ele><time>2022-04-15T14:20:47Z</time><name>PT5078</name></trkpt>
<trkpt lat="52.959003" lon="-3.259008"><ele>335</ele><time>2022-04-15T14:20:50Z</time><name>PT5079</name></trkpt>
<trkpt lat="52.959039" lon="-3.259029"><ele>333</ele><time>2022-04-15T14:20:53Z</time><name>PT5080</name></trkpt>
<trkpt lat="52.959081" lon="-3.259029"><ele>333</ele><time>2022-04-15T14:20:57Z</time><name>PT5081</name></trkpt>
<trkpt lat="52.959121" lon="-3.259039"><ele>332</ele><time>2022-04-15T14:21:01Z</time><name>PT5082</name></trkpt>
<trkpt lat="52.959143" lon="-3.259061"><ele>331</ele><time>2022-04-15T14:21:04Z</time><name>PT5083</name></trkpt>
<trkpt lat="52.959171" lon="-3.259065"><ele>331</ele><time>2022-04-15T14:21:07Z</time><name>PT5084</name></trkpt>
<trkpt lat="52.959222" lon="-3.259039"><ele>332</ele><time>2022-04-15T14:21:11Z</time><name>PT5085</name></trkpt>
<trkpt lat="52.959292" lon="-3.259002"><ele>337</ele><time>2022-04-15T14:21:15Z</time><name>PT5086</name></trkpt>
<trkpt lat="52.959329" lon="-3.258947"><ele>339</ele><time>2022-04-15T14:21:19Z</time><name>PT5087</name></trkpt>
<trkpt lat="52.959355" lon="-3.258915"><ele>338</ele><time>2022-04-15T14:21:23Z</time><name>PT5088</name></trkpt>
<trkpt lat="52.959388" lon="-3.258892"><ele>337</ele><time>2022-04-15T14:21:27Z</time><name>PT5089</name></trkpt>
<trkpt lat="52.959419" lon="-3.258852"><ele>338</ele><time>2022-04-15T14:21:30Z</time><name>PT5090</name></trkpt>
<trkpt lat="52.959446" lon="-3.258821"><ele>337</ele><time>2022-04-15T14:21:33Z</time><name>PT5091</name></trkpt>
<trkpt lat="52.959467" lon="-3.258808"><ele>339</ele><time>2022-04-15T14:21:36Z</time><name>PT5092</name></trkpt>
<trkpt lat="52.959478" lon="-3.258787"><ele>337</ele><time>2022-04-15T14:21:40Z</time><name>PT5093</name></trkpt>
<trkpt lat="52.959506" lon="-3.258768"><ele>337</ele><time>2022-04-15T14:21:43Z</time><name>PT5094</name></trkpt>
<trkpt lat="52.959545" lon="-3.258737"><ele>336</ele><time>2022-04-15T14:21:47Z</time><name>PT5095</name></trkpt>
<trkpt lat="52.959569" lon="-3.258705"><ele>336</ele><time>2022-04-15T14:21:50Z</time><name>PT5096</name></trkpt>
<trkpt lat="52.959610" lon="-3.258673"><ele>335</ele><time>2022-04-15T14:21:54Z</time><name>PT5097</name></trkpt>
<trkpt lat="52.959649" lon="-3.258643"><ele>335</ele><time>2022-04-15T14:21:57Z</time><name>PT5098</name></trkpt>
<trkpt lat="52.959687" lon="-3.258605"><ele>334</ele><time>2022-04-15T14:22:01Z</time><name>PT5099</name></trkpt>
<trkpt lat="52.959719" lon="-3.258575"><ele>332</ele><time>2022-04-15T14:22:04Z</time><name>PT5100</name></trkpt>
<trkpt lat="52.959761" lon="-3.258527"><ele>332</ele><time>2022-04-15T14:22:08Z</time><name>PT5101</name></trkpt>
<trkpt lat="52.959790" lon="-3.258500"><ele>331</ele><time>2022-04-15T14:22:11Z</time><name>PT5102</name></trkpt>
<trkpt lat="52.959823" lon="-3.258457"><ele>330</ele><time>2022-04-15T14:22:15Z</time><name>PT5103</name></trkpt>
<trkpt lat="52.959852" lon="-3.258429"><ele>330</ele><time>2022-04-15T14:22:18Z</time><name>PT5104</name></trkpt>
<trkpt lat="52.959891" lon="-3.258404"><ele>329</ele><time>2022-04-15T14:22:22Z</time><name>PT5105</name></trkpt>
<trkpt lat="52.959918" lon="-3.258363"><ele>327</ele><time>2022-04-15T14:22:26Z</time><name>PT5106</name></trkpt>
<trkpt lat="52.959942" lon="-3.258332"><ele>327</ele><time>2022-04-15T14:22:29Z</time><name>PT5107</name></trkpt>
<trkpt lat="52.959958" lon="-3.258300"><ele>325</ele><time>2022-04-15T14:22:32Z</time><name>PT5108</name></trkpt>
<trkpt lat="52.959974" lon="-3.258286"><ele>324</ele><time>2022-04-15T14:22:35Z</time><name>PT5109</name></trkpt>
<trkpt lat="52.960009" lon="-3.258286"><ele>322</ele><time>2022-04-15T14:22:39Z</time><name>PT5110</name></trkpt>
<trkpt lat="52.960022" lon="-3.258272"><ele>321</ele><time>2022-04-15T14:22:42Z</time><name>PT5111</name></trkpt>
<trkpt lat="52.960056" lon="-3.258257"><ele>320</ele><time>2022-04-15T14:22:46Z</time><name>PT5112</name></trkpt>
<trkpt lat="52.960087" lon="-3.258253"><ele>318</ele><time>2022-04-15T14:22:49Z</time><name>PT5113</name></trkpt>
<trkpt lat="52.960110" lon="-3.258235"><ele>316</ele><time>2022-04-15T14:22:52Z</time><name>PT5114</name></trkpt>
<trkpt lat="52.960137" lon="-3.258226"><ele>315</ele><time>2022-04-15T14:22:55Z</time><name>PT5115</name></trkpt>
<trkpt lat="52.960158" lon="-3.258215"><ele>313</ele><time>2022-04-15T14:22:58Z</time><name>PT5116</name></trkpt>
<trkpt lat="52.960194" lon="-3.258205"><ele>314</ele><time>2022-04-15T14:23:02Z</time><name>PT5117</name></trkpt>
<trkpt lat="52.960226" lon="-3.258180"><ele>315</ele><time>2022-04-15T14:23:05Z</time><name>PT5118</name></trkpt>
<trkpt lat="52.960240" lon="-3.258173"><ele>316</ele><time>2022-04-15T14:23:06Z</time><name>PT5119</name></trkpt>
<trkpt lat="52.960257" lon="-3.258152"><ele>319</ele><time>2022-04-15T14:23:07Z</time><name>PT5120</name></trkpt>
<trkpt lat="52.960274" lon="-3.258133"><ele>320</ele><time>2022-04-15T14:23:08Z</time><name>PT5121</name></trkpt>
<trkpt lat="52.960286" lon="-3.258125"><ele>321</ele><time>2022-04-15T14:23:09Z</time><name>PT5122</name></trkpt>
<trkpt lat="52.960302" lon="-3.258115"><ele>322</ele><time>2022-04-15T14:23:10Z</time><name>PT5123</name></trkpt>
<trkpt lat="52.960315" lon="-3.258112"><ele>322</ele><time>2022-04-15T14:23:11Z</time><name>PT5124</name></trkpt>
<trkpt lat="52.960326" lon="-3.258110"><ele>322</ele><time>2022-04-15T14:23:12Z</time><name>PT5125</name></trkpt>
<trkpt lat="52.960329" lon="-3.258111"><ele>322</ele><time>2022-04-15T14:23:13Z</time><name>PT5126</name></trkpt>
<trkpt lat="52.960332" lon="-3.258115"><ele>321</ele><time>2022-04-15T14:23:14Z</time><name>PT5127</name></trkpt>
<trkpt lat="52.960335" lon="-3.258114"><ele>321</ele><time>2022-04-15T14:23:15Z</time><name>PT5128</name></trkpt>
<trkpt lat="52.960343" lon="-3.258113"><ele>321</ele><time>2022-04-15T14:23:16Z</time><name>PT5129</name></trkpt>
<trkpt lat="52.960350" lon="-3.258114"><ele>320</ele><time>2022-04-15T14:23:17Z</time><name>PT5130</name></trkpt>
<trkpt lat="52.960358" lon="-3.258116"><ele>320</ele><time>2022-04-15T14:23:18Z</time><name>PT5131</name></trkpt>
<trkpt lat="52.960372" lon="-3.258128"><ele>319</ele><time>2022-04-15T14:23:19Z</time><name>PT5132</name></trkpt>
<trkpt lat="52.960383" lon="-3.258129"><ele>318</ele><time>2022-04-15T14:23:20Z</time><name>PT5133</name></trkpt>
<trkpt lat="52.960391" lon="-3.258125"><ele>319</ele><time>2022-04-15T14:23:21Z</time><name>PT5134</name></trkpt>
<trkpt lat="52.960395" lon="-3.258125"><ele>319</ele><time>2022-04-15T14:23:22Z</time><name>PT5135</name></trkpt>
<trkpt lat="52.960402" lon="-3.258126"><ele>318</ele><time>2022-04-15T14:23:23Z</time><name>PT5136</name></trkpt>
<trkpt lat="52.960410" lon="-3.258125"><ele>318</ele><time>2022-04-15T14:23:24Z</time><name>PT5137</name></trkpt>
<trkpt lat="52.960416" lon="-3.258124"><ele>318</ele><time>2022-04-15T14:23:25Z</time><name>PT5138</name></trkpt>
<trkpt lat="52.960420" lon="-3.258127"><ele>316</ele><time>2022-04-15T14:23:26Z</time><name>PT5139</name></trkpt>
<trkpt lat="52.960426" lon="-3.258134"><ele>317</ele><time>2022-04-15T14:23:27Z</time><name>PT5140</name></trkpt>
<trkpt lat="52.960429" lon="-3.258139"><ele>317</ele><time>2022-04-15T14:23:28Z</time><name>PT5141</name></trkpt>
<trkpt lat="52.960437" lon="-3.258139"><ele>316</ele><time>2022-04-15T14:23:29Z</time><name>PT5142</name></trkpt>
<trkpt lat="52.960448" lon="-3.258134"><ele>316</ele><time>2022-04-15T14:23:30Z</time><name>PT5143</name></trkpt>
<trkpt lat="52.960457" lon="-3.258139"><ele>315</ele><time>2022-04-15T14:23:31Z</time><name>PT5144</name></trkpt>
<trkpt lat="52.960467" lon="-3.258138"><ele>314</ele><time>2022-04-15T14:23:32Z</time><name>PT5145</name></trkpt>
<trkpt lat="52.960472" lon="-3.258130"><ele>314</ele><time>2022-04-15T14:23:33Z</time><name>PT5146</name></trkpt>
<trkpt lat="52.960491" lon="-3.258121"><ele>315</ele><time>2022-04-15T14:23:34Z</time><name>PT5147</name></trkpt>
<trkpt lat="52.960503" lon="-3.258110"><ele>316</ele><time>2022-04-15T14:23:35Z</time><name>PT5148</name></trkpt>
<trkpt lat="52.960509" lon="-3.258103"><ele>315</ele><time>2022-04-15T14:23:36Z</time><name>PT5149</name></trkpt>
<trkpt lat="52.960519" lon="-3.258097"><ele>314</ele><time>2022-04-15T14:23:37Z</time><name>PT5150</name></trkpt>
<trkpt lat="52.960534" lon="-3.258090"><ele>314</ele><time>2022-04-15T14:23:38Z</time><name>PT5151</name></trkpt>
<trkpt lat="52.960544" lon="-3.258089"><ele>315</ele><time>2022-04-15T14:23:39Z</time><name>PT5152</name></trkpt>
<trkpt lat="52.960557" lon="-3.258087"><ele>314</ele><time>2022-04-15T14:23:40Z</time><name>PT5153</name></trkpt>
<trkpt lat="52.960577" lon="-3.258075"><ele>314</ele><time>2022-04-15T14:23:41Z</time><name>PT5154</name></trkpt>
<trkpt lat="52.960600" lon="-3.258063"><ele>315</ele><time>2022-04-15T14:23:42Z</time><name>PT5155</name></trkpt>
<trkpt lat="52.960624" lon="-3.258055"><ele>317</ele><time>2022-04-15T14:23:43Z</time><name>PT5156</name></trkpt>
<trkpt lat="52.960644" lon="-3.258048"><ele>318</ele><time>2022-04-15T14:23:44Z</time><name>PT5157</name></trkpt>
<trkpt lat="52.960657" lon="-3.258044"><ele>317</ele><time>2022-04-15T14:23:45Z</time><name>PT5158</name></trkpt>
<trkpt lat="52.960665" lon="-3.258038"><ele>316</ele><time>2022-04-15T14:23:46Z</time><name>PT5159</name></trkpt>
<trkpt lat="52.960688" lon="-3.258021"><ele>318</ele><time>2022-04-15T14:23:47Z</time><name>PT5160</name></trkpt>
<trkpt lat="52.960703" lon="-3.258019"><ele>318</ele><time>2022-04-15T14:23:48Z</time><name>PT5161</name></trkpt>
<trkpt lat="52.960712" lon="-3.258017"><ele>317</ele><time>2022-04-15T14:23:49Z</time><name>PT5162</name></trkpt>
<trkpt lat="52.960721" lon="-3.258011"><ele>317</ele><time>2022-04-15T14:23:50Z</time><name>PT5163</name></trkpt>
<trkpt lat="52.960729" lon="-3.258005"><ele>316</ele><time>2022-04-15T14:23:51Z</time><name>PT5164</name></trkpt>
<trkpt lat="52.960740" lon="-3.257992"><ele>316</ele><time>2022-04-15T14:23:52Z</time><name>PT5165</name></trkpt>
<trkpt lat="52.960754" lon="-3.257978"><ele>317</ele><time>2022-04-15T14:23:53Z</time><name>PT5166</name></trkpt>
<trkpt lat="52.960764" lon="-3.257967"><ele>317</ele><time>2022-04-15T14:23:54Z</time><name>PT5167</name></trkpt>
<trkpt lat="52.960782" lon="-3.257958"><ele>318</ele><time>2022-04-15T14:23:55Z</time><name>PT5168</name></trkpt>
<trkpt lat="52.960789" lon="-3.257948"><ele>318</ele><time>2022-04-15T14:23:56Z</time><name>PT5169</name></trkpt>
<trkpt lat="52.960794" lon="-3.257944"><ele>317</ele><time>2022-04-15T14:23:57Z</time><name>PT5170</name></trkpt>
<trkpt lat="52.960801" lon="-3.257935"><ele>317</ele><time>2022-04-15T14:23:58Z</time><name>PT5171</name></trkpt>
<trkpt lat="52.960812" lon="-3.257926"><ele>316</ele><time>2022-04-15T14:23:59Z</time><name>PT5172</name></trkpt>
<trkpt lat="52.960818" lon="-3.257918"><ele>316</ele><time>2022-04-15T14:24:00Z</time><name>PT5173</name></trkpt>
<trkpt lat="52.960825" lon="-3.257905"><ele>316</ele><time>2022-04-15T14:24:01Z</time><name>PT5174</name></trkpt>
<trkpt lat="52.960836" lon="-3.257895"><ele>316</ele><time>2022-04-15T14:24:02Z</time><name>PT5175</name></trkpt>
<trkpt lat="52.960842" lon="-3.257892"><ele>315</ele><time>2022-04-15T14:24:03Z</time><name>PT5176</name></trkpt>
<trkpt lat="52.960854" lon="-3.257883"><ele>316</ele><time>2022-04-15T14:24:04Z</time><name>PT5177</name></trkpt>
<trkpt lat="52.960863" lon="-3.257875"><ele>316</ele><time>2022-04-15T14:24:05Z</time><name>PT5178</name></trkpt>
<trkpt lat="52.960874" lon="-3.257866"><ele>316</ele><time>2022-04-15T14:24:06Z</time><name>PT5179</name></trkpt>
<trkpt lat="52.960883" lon="-3.257856"><ele>315</ele><time>2022-04-15T14:24:07Z</time><name>PT5180</name></trkpt>
<trkpt lat="52.960892" lon="-3.257846"><ele>315</ele><time>2022-04-15T14:24:08Z</time><name>PT5181</name></trkpt>
<trkpt lat="52.960903" lon="-3.257844"><ele>316</ele><time>2022-04-15T14:24:09Z</time><name>PT5182</name></trkpt>
<trkpt lat="52.960916" lon="-3.257833"><ele>316</ele><time>2022-04-15T14:24:10Z</time><name>PT5183</name></trkpt>
<trkpt lat="52.960927" lon="-3.257823"><ele>317</ele><time>2022-04-15T14:24:11Z</time><name>PT5184</name></trkpt>
<trkpt lat="52.960936" lon="-3.257818"><ele>317</ele><time>2022-04-15T14:24:12Z</time><name>PT5185</name></trkpt>
<trkpt lat="52.960946" lon="-3.257814"><ele>317</ele><time>2022-04-15T14:24:13Z</time><name>PT5186</name></trkpt>
<trkpt lat="52.960957" lon="-3.257807"><ele>317</ele><time>2022-04-15T14:24:14Z</time><name>PT5187</name></trkpt>
<trkpt lat="52.960964" lon="-3.257802"><ele>317</ele><time>2022-04-15T14:24:15Z</time><name>PT5188</name></trkpt>
<trkpt lat="52.960978" lon="-3.257798"><ele>317</ele><time>2022-04-15T14:24:16Z</time><name>PT5189</name></trkpt>
<trkpt lat="52.960997" lon="-3.257789"><ele>318</ele><time>2022-04-15T14:24:17Z</time><name>PT5190</name></trkpt>
<trkpt lat="52.961008" lon="-3.257784"><ele>318</ele><time>2022-04-15T14:24:18Z</time><name>PT5191</name></trkpt>
<trkpt lat="52.961019" lon="-3.257786"><ele>317</ele><time>2022-04-15T14:24:19Z</time><name>PT5192</name></trkpt>
<trkpt lat="52.961025" lon="-3.257777"><ele>317</ele><time>2022-04-15T14:24:20Z</time><name>PT5193</name></trkpt>
<trkpt lat="52.961030" lon="-3.257770"><ele>316</ele><time>2022-04-15T14:24:21Z</time><name>PT5194</name></trkpt>
<trkpt lat="52.961038" lon="-3.257769"><ele>317</ele><time>2022-04-15T14:24:22Z</time><name>PT5195</name></trkpt>
<trkpt lat="52.961048" lon="-3.257765"><ele>316</ele><time>2022-04-15T14:24:23Z</time><name>PT5196</name></trkpt>
<trkpt lat="52.961059" lon="-3.257757"><ele>318</ele><time>2022-04-15T14:24:24Z</time><name>PT5197</name></trkpt>
<trkpt lat="52.961063" lon="-3.257753"><ele>316</ele><time>2022-04-15T14:24:25Z</time><name>PT5198</name></trkpt>
<trkpt lat="52.961072" lon="-3.257751"><ele>316</ele><time>2022-04-15T14:24:26Z</time><name>PT5199</name></trkpt>
<trkpt lat="52.961078" lon="-3.257750"><ele>316</ele><time>2022-04-15T14:24:27Z</time><name>PT5200</name></trkpt>
<trkpt lat="52.961087" lon="-3.257753"><ele>315</ele><time>2022-04-15T14:24:28Z</time><name>PT5201</name></trkpt>
<trkpt lat="52.961098" lon="-3.257751"><ele>315</ele><time>2022-04-15T14:24:29Z</time><name>PT5202</name></trkpt>
<trkpt lat="52.961105" lon="-3.257747"><ele>315</ele><time>2022-04-15T14:24:30Z</time><name>PT5203</name></trkpt>
<trkpt lat="52.961111" lon="-3.257747"><ele>314</ele><time>2022-04-15T14:24:31Z</time><name>PT5204</name></trkpt>
<trkpt lat="52.961122" lon="-3.257740"><ele>315</ele><time>2022-04-15T14:24:32Z</time><name>PT5205</name></trkpt>
<trkpt lat="52.961133" lon="-3.257737"><ele>315</ele><time>2022-04-15T14:24:33Z</time><name>PT5206</name></trkpt>
<trkpt lat="52.961140" lon="-3.257738"><ele>315</ele><time>2022-04-15T14:24:34Z</time><name>PT5207</name></trkpt>
<trkpt lat="52.961148" lon="-3.257737"><ele>314</ele><time>2022-04-15T14:24:35Z</time><name>PT5208</name></trkpt>
<trkpt lat="52.961160" lon="-3.257734"><ele>314</ele><time>2022-04-15T14:24:36Z</time><name>PT5209</name></trkpt>
<trkpt lat="52.961172" lon="-3.257728"><ele>314</ele><time>2022-04-15T14:24:37Z</time><name>PT5210</name></trkpt>
<trkpt lat="52.961180" lon="-3.257722"><ele>315</ele><time>2022-04-15T14:24:38Z</time><name>PT5211</name></trkpt>
<trkpt lat="52.961183" lon="-3.257719"><ele>315</ele><time>2022-04-15T14:24:39Z</time><name>PT5212</name></trkpt>
<trkpt lat="52.961190" lon="-3.257714"><ele>316</ele><time>2022-04-15T14:24:40Z</time><name>PT5213</name></trkpt>
<trkpt lat="52.961196" lon="-3.257709"><ele>315</ele><time>2022-04-15T14:24:41Z</time><name>PT5214</name></trkpt>
<trkpt lat="52.961201" lon="-3.257702"><ele>315</ele><time>2022-04-15T14:24:42Z</time><name>PT5215</name></trkpt>
<trkpt lat="52.961208" lon="-3.257697"><ele>315</ele><time>2022-04-15T14:24:43Z</time><name>PT5216</name></trkpt>
<trkpt lat="52.961212" lon="-3.257693"><ele>315</ele><time>2022-04-15T14:24:44Z</time><name>PT5217</name></trkpt>
<trkpt lat="52.961217" lon="-3.257692"><ele>313</ele><time>2022-04-15T14:24:45Z</time><name>PT5218</name></trkpt>
<trkpt lat="52.961215" lon="-3.257673"><ele>315</ele><time>2022-04-15T14:24:46Z</time><name>PT5219</name></trkpt>
<trkpt lat="52.961217" lon="-3.257663"><ele>315</ele><time>2022-04-15T14:24:47Z</time><name>PT5220</name></trkpt>
<trkpt lat="52.961225" lon="-3.257655"><ele>313</ele><time>2022-04-15T14:24:48Z</time><name>PT5221</name></trkpt>
<trkpt lat="52.961235" lon="-3.257654"><ele>312</ele><time>2022-04-15T14:24:49Z</time><name>PT5222</name></trkpt>
<trkpt lat="52.961246" lon="-3.257655"><ele>311</ele><time>2022-04-15T14:24:50Z</time><name>PT5223</name></trkpt>
<trkpt lat="52.961259" lon="-3.257656"><ele>310</ele><time>2022-04-15T14:24:51Z</time><name>PT5224</name></trkpt>
<trkpt lat="52.961269" lon="-3.257655"><ele>309</ele><time>2022-04-15T14:24:52Z</time><name>PT5225</name></trkpt>
<trkpt lat="52.961281" lon="-3.257649"><ele>310</ele><time>2022-04-15T14:24:53Z</time><name>PT5226</name></trkpt>
<trkpt lat="52.961290" lon="-3.257649"><ele>309</ele><time>2022-04-15T14:24:54Z</time><name>PT5227</name></trkpt>
<trkpt lat="52.961298" lon="-3.257647"><ele>309</ele><time>2022-04-15T14:24:55Z</time><name>PT5228</name></trkpt>
<trkpt lat="52.961306" lon="-3.257646"><ele>308</ele><time>2022-04-15T14:24:56Z</time><name>PT5229</name></trkpt>
<trkpt lat="52.961317" lon="-3.257652"><ele>307</ele><time>2022-04-15T14:24:57Z</time><name>PT5230</name></trkpt>
<trkpt lat="52.961321" lon="-3.257657"><ele>304</ele><time>2022-04-15T14:24:58Z</time><name>PT5231</name></trkpt>
<trkpt lat="52.961332" lon="-3.257654"><ele>304</ele><time>2022-04-15T14:24:59Z</time><name>PT5232</name></trkpt>
<trkpt lat="52.961340" lon="-3.257648"><ele>303</ele><time>2022-04-15T14:25:00Z</time><name>PT5233</name></trkpt>
<trkpt lat="52.961348" lon="-3.257654"><ele>302</ele><time>2022-04-15T14:25:01Z</time><name>PT5234</name></trkpt>
<trkpt lat="52.961353" lon="-3.257657"><ele>300</ele><time>2022-04-15T14:25:02Z</time><name>PT5235</name></trkpt>
<trkpt lat="52.961360" lon="-3.257659"><ele>299</ele><time>2022-04-15T14:25:03Z</time><name>PT5236</name></trkpt>
<trkpt lat="52.961373" lon="-3.257656"><ele>299</ele><time>2022-04-15T14:25:04Z</time><name>PT5237</name></trkpt>
<trkpt lat="52.961415" lon="-3.257656"><ele>298</ele><time>2022-04-15T14:25:08Z</time><name>PT5238</name></trkpt>
<trkpt lat="52.961465" lon="-3.257647"><ele>300</ele><time>2022-04-15T14:25:12Z</time><name>PT5239</name></trkpt>
<trkpt lat="52.961489" lon="-3.257651"><ele>299</ele><time>2022-04-15T14:25:15Z</time><name>PT5240</name></trkpt>
<trkpt lat="52.961520" lon="-3.257635"><ele>298</ele><time>2022-04-15T14:25:18Z</time><name>PT5241</name></trkpt>
<trkpt lat="52.961573" lon="-3.257614"><ele>300</ele><time>2022-04-15T14:25:22Z</time><name>PT5242</name></trkpt>
<trkpt lat="52.961635" lon="-3.257588"><ele>305</ele><time>2022-04-15T14:25:25Z</time><name>PT5243</name></trkpt>
<trkpt lat="52.961645" lon="-3.257591"><ele>304</ele><time>2022-04-15T14:25:26Z</time><name>PT5244</name></trkpt>
<trkpt lat="52.961653" lon="-3.257592"><ele>304</ele><time>2022-04-15T14:25:27Z</time><name>PT5245</name></trkpt>
<trkpt lat="52.961668" lon="-3.257580"><ele>305</ele><time>2022-04-15T14:25:28Z</time><name>PT5246</name></trkpt>
<trkpt lat="52.961678" lon="-3.257583"><ele>304</ele><time>2022-04-15T14:25:29Z</time><name>PT5247</name></trkpt>
<trkpt lat="52.961690" lon="-3.257579"><ele>305</ele><time>2022-04-15T14:25:30Z</time><name>PT5248</name></trkpt>
<trkpt lat="52.961704" lon="-3.257570"><ele>306</ele><time>2022-04-15T14:25:31Z</time><name>PT5249</name></trkpt>
<trkpt lat="52.961714" lon="-3.257568"><ele>306</ele><time>2022-04-15T14:25:32Z</time><name>PT5250</name></trkpt>
<trkpt lat="52.961725" lon="-3.257563"><ele>305</ele><time>2022-04-15T14:25:33Z</time><name>PT5251</name></trkpt>
<trkpt lat="52.961730" lon="-3.257564"><ele>305</ele><time>2022-04-15T14:25:34Z</time><name>PT5252</name></trkpt>
<trkpt lat="52.961740" lon="-3.257567"><ele>304</ele><time>2022-04-15T14:25:35Z</time><name>PT5253</name></trkpt>
<trkpt lat="52.961751" lon="-3.257572"><ele>304</ele><time>2022-04-15T14:25:36Z</time><name>PT5254</name></trkpt>
<trkpt lat="52.961763" lon="-3.257577"><ele>303</ele><time>2022-04-15T14:25:37Z</time><name>PT5255</name></trkpt>
<trkpt lat="52.961772" lon="-3.257579"><ele>302</ele><time>2022-04-15T14:25:38Z</time><name>PT5256</name></trkpt>
<trkpt lat="52.961778" lon="-3.257582"><ele>301</ele><time>2022-04-15T14:25:39Z</time><name>PT5257</name></trkpt>
<trkpt lat="52.961792" lon="-3.257583"><ele>301</ele><time>2022-04-15T14:25:40Z</time><name>PT5258</name></trkpt>
<trkpt lat="52.961799" lon="-3.257585"><ele>300</ele><time>2022-04-15T14:25:41Z</time><name>PT5259</name></trkpt>
<trkpt lat="52.961805" lon="-3.257588"><ele>299</ele><time>2022-04-15T14:25:42Z</time><name>PT5260</name></trkpt>
<trkpt lat="52.961815" lon="-3.257594"><ele>299</ele><time>2022-04-15T14:25:43Z</time><name>PT5261</name></trkpt>
<trkpt lat="52.961829" lon="-3.257596"><ele>300</ele><time>2022-04-15T14:25:44Z</time><name>PT5262</name></trkpt>
<trkpt lat="52.961837" lon="-3.257598"><ele>301</ele><time>2022-04-15T14:25:45Z</time><name>PT5263</name></trkpt>
<trkpt lat="52.961845" lon="-3.257597"><ele>301</ele><time>2022-04-15T14:25:46Z</time><name>PT5264</name></trkpt>
<trkpt lat="52.961856" lon="-3.257584"><ele>303</ele><time>2022-04-15T14:25:47Z</time><name>PT5265</name></trkpt>
<trkpt lat="52.961868" lon="-3.257583"><ele>305</ele><time>2022-04-15T14:25:48Z</time><name>PT5266</name></trkpt>
<trkpt lat="52.961879" lon="-3.257585"><ele>304</ele><time>2022-04-15T14:25:49Z</time><name>PT5267</name></trkpt>
<trkpt lat="52.961894" lon="-3.257584"><ele>304</ele><time>2022-04-15T14:25:50Z</time><name>PT5268</name></trkpt>
<trkpt lat="52.961912" lon="-3.257592"><ele>304</ele><time>2022-04-15T14:25:51Z</time><name>PT5269</name></trkpt>
<trkpt lat="52.961922" lon="-3.257586"><ele>303</ele><time>2022-04-15T14:25:52Z</time><name>PT5270</name></trkpt>
<trkpt lat="52.961931" lon="-3.257583"><ele>303</ele><time>2022-04-15T14:25:53Z</time><name>PT5271</name></trkpt>
<trkpt lat="52.961937" lon="-3.257585"><ele>302</ele><time>2022-04-15T14:25:54Z</time><name>PT5272</name></trkpt>
<trkpt lat="52.961947" lon="-3.257582"><ele>301</ele><time>2022-04-15T14:25:55Z</time><name>PT5273</name></trkpt>
<trkpt lat="52.961956" lon="-3.257583"><ele>300</ele><time>2022-04-15T14:25:56Z</time><name>PT5274</name></trkpt>
<trkpt lat="52.961958" lon="-3.257582"><ele>299</ele><time>2022-04-15T14:25:57Z</time><name>PT5275</name></trkpt>
<trkpt lat="52.961970" lon="-3.257594"><ele>299</ele><time>2022-04-15T14:25:58Z</time><name>PT5276</name></trkpt>
<trkpt lat="52.961977" lon="-3.257602"><ele>298</ele><time>2022-04-15T14:25:59Z</time><name>PT5277</name></trkpt>
<trkpt lat="52.961982" lon="-3.257611"><ele>296</ele><time>2022-04-15T14:26:00Z</time><name>PT5278</name></trkpt>
<trkpt lat="52.961984" lon="-3.257611"><ele>296</ele><time>2022-04-15T14:26:01Z</time><name>PT5279</name></trkpt>
<trkpt lat="52.961987" lon="-3.257615"><ele>295</ele><time>2022-04-15T14:26:02Z</time><name>PT5280</name></trkpt>
<trkpt lat="52.961986" lon="-3.257618"><ele>294</ele><time>2022-04-15T14:26:03Z</time><name>PT5281</name></trkpt>
<trkpt lat="52.961990" lon="-3.257619"><ele>294</ele><time>2022-04-15T14:26:04Z</time><name>PT5282</name></trkpt>
<trkpt lat="52.961999" lon="-3.257621"><ele>295</ele><time>2022-04-15T14:26:05Z</time><name>PT5283</name></trkpt>
<trkpt lat="52.962014" lon="-3.257620"><ele>297</ele><time>2022-04-15T14:26:06Z</time><name>PT5284</name></trkpt>
<trkpt lat="52.962023" lon="-3.257620"><ele>298</ele><time>2022-04-15T14:26:07Z</time><name>PT5285</name></trkpt>
<trkpt lat="52.962028" lon="-3.257620"><ele>299</ele><time>2022-04-15T14:26:08Z</time><name>PT5286</name></trkpt>
<trkpt lat="52.962033" lon="-3.257618"><ele>299</ele><time>2022-04-15T14:26:09Z</time><name>PT5287</name></trkpt>
<trkpt lat="52.962044" lon="-3.257614"><ele>299</ele><time>2022-04-15T14:26:10Z</time><name>PT5288</name></trkpt>
<trkpt lat="52.962053" lon="-3.257611"><ele>299</ele><time>2022-04-15T14:26:11Z</time><name>PT5289</name></trkpt>
<trkpt lat="52.962061" lon="-3.257608"><ele>300</ele><time>2022-04-15T14:26:12Z</time><name>PT5290</name></trkpt>
<trkpt lat="52.962064" lon="-3.257608"><ele>300</ele><time>2022-04-15T14:26:13Z</time><name>PT5291</name></trkpt>
<trkpt lat="52.962077" lon="-3.257605"><ele>300</ele><time>2022-04-15T14:26:14Z</time><name>PT5292</name></trkpt>
<trkpt lat="52.962086" lon="-3.257607"><ele>301</ele><time>2022-04-15T14:26:15Z</time><name>PT5293</name></trkpt>
<trkpt lat="52.962093" lon="-3.257612"><ele>301</ele><time>2022-04-15T14:26:16Z</time><name>PT5294</name></trkpt>
<trkpt lat="52.962100" lon="-3.257613"><ele>301</ele><time>2022-04-15T14:26:17Z</time><name>PT5295</name></trkpt>
<trkpt lat="52.962106" lon="-3.257612"><ele>300</ele><time>2022-04-15T14:26:18Z</time><name>PT5296</name></trkpt>
<trkpt lat="52.962115" lon="-3.257612"><ele>300</ele><time>2022-04-15T14:26:19Z</time><name>PT5297</name></trkpt>
<trkpt lat="52.962122" lon="-3.257616"><ele>300</ele><time>2022-04-15T14:26:20Z</time><name>PT5298</name></trkpt>
<trkpt lat="52.962131" lon="-3.257615"><ele>300</ele><time>2022-04-15T14:26:21Z</time><name>PT5299</name></trkpt>
<trkpt lat="52.962139" lon="-3.257621"><ele>300</ele><time>2022-04-15T14:26:22Z</time><name>PT5300</name></trkpt>
<trkpt lat="52.962143" lon="-3.257627"><ele>299</ele><time>2022-04-15T14:26:23Z</time><name>PT5301</name></trkpt>
<trkpt lat="52.962150" lon="-3.257629"><ele>299</ele><time>2022-04-15T14:26:24Z</time><name>PT5302</name></trkpt>
<trkpt lat="52.962151" lon="-3.257629"><ele>298</ele><time>2022-04-15T14:26:25Z</time><name>PT5303</name></trkpt>
<trkpt lat="52.962157" lon="-3.257629"><ele>297</ele><time>2022-04-15T14:26:26Z</time><name>PT5304</name></trkpt>
<trkpt lat="52.962162" lon="-3.257631"><ele>297</ele><time>2022-04-15T14:26:27Z</time><name>PT5305</name></trkpt>
<trkpt lat="52.962167" lon="-3.257637"><ele>296</ele><time>2022-04-15T14:26:28Z</time><name>PT5306</name></trkpt>
<trkpt lat="52.962177" lon="-3.257633"><ele>296</ele><time>2022-04-15T14:26:29Z</time><name>PT5307</name></trkpt>
<trkpt lat="52.962178" lon="-3.257634"><ele>296</ele><time>2022-04-15T14:26:30Z</time><name>PT5308</name></trkpt>
<trkpt lat="52.962189" lon="-3.257637"><ele>295</ele><time>2022-04-15T14:26:31Z</time><name>PT5309</name></trkpt>
<trkpt lat="52.962198" lon="-3.257642"><ele>294</ele><time>2022-04-15T14:26:32Z</time><name>PT5310</name></trkpt>
<trkpt lat="52.962206" lon="-3.257641"><ele>294</ele><time>2022-04-15T14:26:33Z</time><name>PT5311</name></trkpt>
<trkpt lat="52.962220" lon="-3.257640"><ele>294</ele><time>2022-04-15T14:26:34Z</time><name>PT5312</name></trkpt>
<trkpt lat="52.962226" lon="-3.257643"><ele>293</ele><time>2022-04-15T14:26:35Z</time><name>PT5313</name></trkpt>
<trkpt lat="52.962241" lon="-3.257642"><ele>294</ele><time>2022-04-15T14:26:36Z</time><name>PT5314</name></trkpt>
<trkpt lat="52.962252" lon="-3.257637"><ele>295</ele><time>2022-04-15T14:26:37Z</time><name>PT5315</name></trkpt>
<trkpt lat="52.962264" lon="-3.257637"><ele>296</ele><time>2022-04-15T14:26:38Z</time><name>PT5316</name></trkpt>
<trkpt lat="52.962275" lon="-3.257639"><ele>296</ele><time>2022-04-15T14:26:39Z</time><name>PT5317</name></trkpt>
<trkpt lat="52.962285" lon="-3.257639"><ele>296</ele><time>2022-04-15T14:26:40Z</time><name>PT5318</name></trkpt>
<trkpt lat="52.962303" lon="-3.257652"><ele>295</ele><time>2022-04-15T14:26:41Z</time><name>PT5319</name></trkpt>
<trkpt lat="52.962321" lon="-3.257655"><ele>297</ele><time>2022-04-15T14:26:42Z</time><name>PT5320</name></trkpt>
<trkpt lat="52.962331" lon="-3.257658"><ele>297</ele><time>2022-04-15T14:26:43Z</time><name>PT5321</name></trkpt>
<trkpt lat="52.962344" lon="-3.257660"><ele>298</ele><time>2022-04-15T14:26:44Z</time><name>PT5322</name></trkpt>
<trkpt lat="52.962354" lon="-3.257664"><ele>298</ele><time>2022-04-15T14:26:45Z</time><name>PT5323</name></trkpt>
<trkpt lat="52.962362" lon="-3.257667"><ele>298</ele><time>2022-04-15T14:26:46Z</time><name>PT5324</name></trkpt>
<trkpt lat="52.962364" lon="-3.257671"><ele>297</ele><time>2022-04-15T14:26:47Z</time><name>PT5325</name></trkpt>
<trkpt lat="52.962372" lon="-3.257677"><ele>296</ele><time>2022-04-15T14:26:48Z</time><name>PT5326</name></trkpt>
<trkpt lat="52.962384" lon="-3.257689"><ele>295</ele><time>2022-04-15T14:26:49Z</time><name>PT5327</name></trkpt>
<trkpt lat="52.962390" lon="-3.257703"><ele>293</ele><time>2022-04-15T14:26:50Z</time><name>PT5328</name></trkpt>
<trkpt lat="52.962401" lon="-3.257715"><ele>293</ele><time>2022-04-15T14:26:51Z</time><name>PT5329</name></trkpt>
<trkpt lat="52.962410" lon="-3.257713"><ele>293</ele><time>2022-04-15T14:26:52Z</time><name>PT5330</name></trkpt>
<trkpt lat="52.962415" lon="-3.257721"><ele>291</ele><time>2022-04-15T14:26:53Z</time><name>PT5331</name></trkpt>
<trkpt lat="52.962421" lon="-3.257726"><ele>291</ele><time>2022-04-15T14:26:54Z</time><name>PT5332</name></trkpt>
<trkpt lat="52.962426" lon="-3.257732"><ele>289</ele><time>2022-04-15T14:26:55Z</time><name>PT5333</name></trkpt>
<trkpt lat="52.962429" lon="-3.257734"><ele>288</ele><time>2022-04-15T14:26:56Z</time><name>PT5334</name></trkpt>
<trkpt lat="52.962426" lon="-3.257742"><ele>286</ele><time>2022-04-15T14:26:57Z</time><name>PT5335</name></trkpt>
<trkpt lat="52.962433" lon="-3.257739"><ele>285</ele><time>2022-04-15T14:26:58Z</time><name>PT5336</name></trkpt>
<trkpt lat="52.962439" lon="-3.257749"><ele>283</ele><time>2022-04-15T14:26:59Z</time><name>PT5337</name></trkpt>
<trkpt lat="52.962445" lon="-3.257761"><ele>282</ele><time>2022-04-15T14:27:00Z</time><name>PT5338</name></trkpt>
<trkpt lat="52.962456" lon="-3.257769"><ele>283</ele><time>2022-04-15T14:27:01Z</time><name>PT5339</name></trkpt>
<trkpt lat="52.962473" lon="-3.257774"><ele>283</ele><time>2022-04-15T14:27:02Z</time><name>PT5340</name></trkpt>
<trkpt lat="52.962480" lon="-3.257778"><ele>282</ele><time>2022-04-15T14:27:03Z</time><name>PT5341</name></trkpt>
<trkpt lat="52.962489" lon="-3.257780"><ele>281</ele><time>2022-04-15T14:27:04Z</time><name>PT5342</name></trkpt>
<trkpt lat="52.962505" lon="-3.257779"><ele>282</ele><time>2022-04-15T14:27:05Z</time><name>PT5343</name></trkpt>
<trkpt lat="52.962523" lon="-3.257774"><ele>283</ele><time>2022-04-15T14:27:06Z</time><name>PT5344</name></trkpt>
<trkpt lat="52.962533" lon="-3.257777"><ele>282</ele><time>2022-04-15T14:27:07Z</time><name>PT5345</name></trkpt>
<trkpt lat="52.962543" lon="-3.257774"><ele>284</ele><time>2022-04-15T14:27:08Z</time><name>PT5346</name></trkpt>
<trkpt lat="52.962549" lon="-3.257775"><ele>283</ele><time>2022-04-15T14:27:09Z</time><name>PT5347</name></trkpt>
<trkpt lat="52.962555" lon="-3.257789"><ele>281</ele><time>2022-04-15T14:27:10Z</time><name>PT5348</name></trkpt>
<trkpt lat="52.962564" lon="-3.257798"><ele>280</ele><time>2022-04-15T14:27:11Z</time><name>PT5349</name></trkpt>
<trkpt lat="52.962576" lon="-3.257800"><ele>280</ele><time>2022-04-15T14:27:12Z</time><name>PT5350</name></trkpt>
<trkpt lat="52.962581" lon="-3.257806"><ele>280</ele><time>2022-04-15T14:27:13Z</time><name>PT5351</name></trkpt>
<trkpt lat="52.962596" lon="-3.257815"><ele>279</ele><time>2022-04-15T14:27:14Z</time><name>PT5352</name></trkpt>
<trkpt lat="52.962611" lon="-3.257820"><ele>280</ele><time>2022-04-15T14:27:15Z</time><name>PT5353</name></trkpt>
<trkpt lat="52.962624" lon="-3.257825"><ele>281</ele><time>2022-04-15T14:27:16Z</time><name>PT5354</name></trkpt>
<trkpt lat="52.962637" lon="-3.257825"><ele>280</ele><time>2022-04-15T14:27:17Z</time><name>PT5355</name></trkpt>
<trkpt lat="52.962655" lon="-3.257826"><ele>281</ele><time>2022-04-15T14:27:18Z</time><name>PT5356</name></trkpt>
<trkpt lat="52.962663" lon="-3.257835"><ele>281</ele><time>2022-04-15T14:27:19Z</time><name>PT5357</name></trkpt>
<trkpt lat="52.962675" lon="-3.257839"><ele>281</ele><time>2022-04-15T14:27:20Z</time><name>PT5358</name></trkpt>
<trkpt lat="52.962698" lon="-3.257833"><ele>283</ele><time>2022-04-15T14:27:21Z</time><name>PT5359</name></trkpt>
<trkpt lat="52.962707" lon="-3.257839"><ele>281</ele><time>2022-04-15T14:27:22Z</time><name>PT5360</name></trkpt>
<trkpt lat="52.962719" lon="-3.257841"><ele>281</ele><time>2022-04-15T14:27:23Z</time><name>PT5361</name></trkpt>
<trkpt lat="52.962728" lon="-3.257846"><ele>280</ele><time>2022-04-15T14:27:24Z</time><name>PT5362</name></trkpt>
<trkpt lat="52.962744" lon="-3.257845"><ele>280</ele><time>2022-04-15T14:27:25Z</time><name>PT5363</name></trkpt>
<trkpt lat="52.962766" lon="-3.257879"><ele>276</ele><time>2022-04-15T14:27:28Z</time><name>PT5364</name></trkpt>
<trkpt lat="52.962795" lon="-3.257896"><ele>276</ele><time>2022-04-15T14:27:30Z</time><name>PT5365</name></trkpt>
<trkpt lat="52.962802" lon="-3.257903"><ele>275</ele><time>2022-04-15T14:27:31Z</time><name>PT5366</name></trkpt>
<trkpt lat="52.962821" lon="-3.257911"><ele>276</ele><time>2022-04-15T14:27:32Z</time><name>PT5367</name></trkpt>
<trkpt lat="52.962834" lon="-3.257920"><ele>276</ele><time>2022-04-15T14:27:33Z</time><name>PT5368</name></trkpt>
<trkpt lat="52.962896" lon="-3.257948"><ele>279</ele><time>2022-04-15T14:27:34Z</time><name>PT5369</name></trkpt>
<trkpt lat="52.962903" lon="-3.257949"><ele>279</ele><time>2022-04-15T14:27:35Z</time><name>PT5370</name></trkpt>
<trkpt lat="52.962911" lon="-3.257943"><ele>280</ele><time>2022-04-15T14:27:36Z</time><name>PT5371</name></trkpt>
<trkpt lat="52.962937" lon="-3.257942"><ele>283</ele><time>2022-04-15T14:27:37Z</time><name>PT5372</name></trkpt>
<trkpt lat="52.962954" lon="-3.257941"><ele>285</ele><time>2022-04-15T14:27:38Z</time><name>PT5373</name></trkpt>
<trkpt lat="52.962978" lon="-3.257935"><ele>287</ele><time>2022-04-15T14:27:39Z</time><name>PT5374</name></trkpt>
<trkpt lat="52.962999" lon="-3.257937"><ele>290</ele><time>2022-04-15T14:27:40Z</time><name>PT5375</name></trkpt>
<trkpt lat="52.963031" lon="-3.257915"><ele>291</ele><time>2022-04-15T14:27:59Z</time><name>PT5376</name></trkpt>
<trkpt lat="52.963048" lon="-3.257919"><ele>290</ele><time>2022-04-15T14:28:00Z</time><name>PT5377</name></trkpt>
<trkpt lat="52.963064" lon="-3.257927"><ele>290</ele><time>2022-04-15T14:28:01Z</time><name>PT5378</name></trkpt>
<trkpt lat="52.963077" lon="-3.257939"><ele>290</ele><time>2022-04-15T14:28:02Z</time><name>PT5379</name></trkpt>
<trkpt lat="52.963086" lon="-3.257969"><ele>291</ele><time>2022-04-15T14:28:03Z</time><name>PT5380</name></trkpt>
<trkpt lat="52.963098" lon="-3.257985"><ele>291</ele><time>2022-04-15T14:28:04Z</time><name>PT5381</name></trkpt>
<trkpt lat="52.963110" lon="-3.257999"><ele>291</ele><time>2022-04-15T14:28:05Z</time><name>PT5382</name></trkpt>
<trkpt lat="52.963117" lon="-3.258011"><ele>290</ele><time>2022-04-15T14:28:06Z</time><name>PT5383</name></trkpt>
<trkpt lat="52.963123" lon="-3.258022"><ele>290</ele><time>2022-04-15T14:28:07Z</time><name>PT5384</name></trkpt>
<trkpt lat="52.963128" lon="-3.258033"><ele>290</ele><time>2022-04-15T14:28:08Z</time><name>PT5385</name></trkpt>
<trkpt lat="52.963132" lon="-3.258042"><ele>289</ele><time>2022-04-15T14:28:09Z</time><name>PT5386</name></trkpt>
<trkpt lat="52.963139" lon="-3.258046"><ele>289</ele><time>2022-04-15T14:28:10Z</time><name>PT5387</name></trkpt>
<trkpt lat="52.963150" lon="-3.258048"><ele>289</ele><time>2022-04-15T14:28:11Z</time><name>PT5388</name></trkpt>
<trkpt lat="52.963157" lon="-3.258048"><ele>289</ele><time>2022-04-15T14:28:12Z</time><name>PT5389</name></trkpt>
<trkpt lat="52.963165" lon="-3.258048"><ele>289</ele><time>2022-04-15T14:28:13Z</time><name>PT5390</name></trkpt>
<trkpt lat="52.963173" lon="-3.258049"><ele>289</ele><time>2022-04-15T14:28:14Z</time><name>PT5391</name></trkpt>
<trkpt lat="52.963180" lon="-3.258059"><ele>290</ele><time>2022-04-15T14:28:15Z</time><name>PT5392</name></trkpt>
<trkpt lat="52.963185" lon="-3.258069"><ele>290</ele><time>2022-04-15T14:28:16Z</time><name>PT5393</name></trkpt>
<trkpt lat="52.963189" lon="-3.258072"><ele>290</ele><time>2022-04-15T14:28:17Z</time><name>PT5394</name></trkpt>
<trkpt lat="52.963195" lon="-3.258078"><ele>290</ele><time>2022-04-15T14:28:18Z</time><name>PT5395</name></trkpt>
<trkpt lat="52.963199" lon="-3.258084"><ele>290</ele><time>2022-04-15T14:28:20Z</time><name>PT5396</name></trkpt>
<trkpt lat="52.963210" lon="-3.258100"><ele>290</ele><time>2022-04-15T14:28:21Z</time><name>PT5397</name></trkpt>
<trkpt lat="52.963221" lon="-3.258118"><ele>290</ele><time>2022-04-15T14:28:22Z</time><name>PT5398</name></trkpt>
<trkpt lat="52.963231" lon="-3.258134"><ele>290</ele><time>2022-04-15T14:28:23Z</time><name>PT5399</name></trkpt>
<trkpt lat="52.963243" lon="-3.258143"><ele>290</ele><time>2022-04-15T14:28:24Z</time><name>PT5400</name></trkpt>
<trkpt lat="52.963258" lon="-3.258172"><ele>290</ele><time>2022-04-15T14:28:25Z</time><name>PT5401</name></trkpt>
<trkpt lat="52.963269" lon="-3.258186"><ele>290</ele><time>2022-04-15T14:28:26Z</time><name>PT5402</name></trkpt>
<trkpt lat="52.963284" lon="-3.258201"><ele>290</ele><time>2022-04-15T14:28:27Z</time><name>PT5403</name></trkpt>
<trkpt lat="52.963298" lon="-3.258206"><ele>290</ele><time>2022-04-15T14:28:28Z</time><name>PT5404</name></trkpt>
<trkpt lat="52.963307" lon="-3.258215"><ele>290</ele><time>2022-04-15T14:28:29Z</time><name>PT5405</name></trkpt>
<trkpt lat="52.963306" lon="-3.258224"><ele>288</ele><time>2022-04-15T14:28:30Z</time><name>PT5406</name></trkpt>
<trkpt lat="52.963321" lon="-3.258232"><ele>289</ele><time>2022-04-15T14:28:31Z</time><name>PT5407</name></trkpt>
<trkpt lat="52.963331" lon="-3.258242"><ele>288</ele><time>2022-04-15T14:28:32Z</time><name>PT5408</name></trkpt>
<trkpt lat="52.963341" lon="-3.258251"><ele>288</ele><time>2022-04-15T14:28:33Z</time><name>PT5409</name></trkpt>
<trkpt lat="52.963347" lon="-3.258260"><ele>287</ele><time>2022-04-15T14:28:34Z</time><name>PT5410</name></trkpt>
<trkpt lat="52.963356" lon="-3.258272"><ele>288</ele><time>2022-04-15T14:28:35Z</time><name>PT5411</name></trkpt>
<trkpt lat="52.963363" lon="-3.258277"><ele>287</ele><time>2022-04-15T14:28:36Z</time><name>PT5412</name></trkpt>
<trkpt lat="52.963373" lon="-3.258278"><ele>287</ele><time>2022-04-15T14:28:37Z</time><name>PT5413</name></trkpt>
<trkpt lat="52.963383" lon="-3.258285"><ele>287</ele><time>2022-04-15T14:28:38Z</time><name>PT5414</name></trkpt>
<trkpt lat="52.963391" lon="-3.258286"><ele>287</ele><time>2022-04-15T14:28:39Z</time><name>PT5415</name></trkpt>
<trkpt lat="52.963398" lon="-3.258295"><ele>286</ele><time>2022-04-15T14:28:40Z</time><name>PT5416</name></trkpt>
<trkpt lat="52.963407" lon="-3.258314"><ele>286</ele><time>2022-04-15T14:28:41Z</time><name>PT5417</name></trkpt>
<trkpt lat="52.963415" lon="-3.258322"><ele>286</ele><time>2022-04-15T14:28:42Z</time><name>PT5418</name></trkpt>
<trkpt lat="52.963422" lon="-3.258333"><ele>286</ele><time>2022-04-15T14:28:43Z</time><name>PT5419</name></trkpt>
<trkpt lat="52.963431" lon="-3.258337"><ele>285</ele><time>2022-04-15T14:28:44Z</time><name>PT5420</name></trkpt>
<trkpt lat="52.963431" lon="-3.258356"><ele>283</ele><time>2022-04-15T14:28:45Z</time><name>PT5421</name></trkpt>
<trkpt lat="52.963441" lon="-3.258371"><ele>284</ele><time>2022-04-15T14:28:46Z</time><name>PT5422</name></trkpt>
<trkpt lat="52.963439" lon="-3.258380"><ele>283</ele><time>2022-04-15T14:28:47Z</time><name>PT5423</name></trkpt>
<trkpt lat="52.963439" lon="-3.258390"><ele>282</ele><time>2022-04-15T14:28:48Z</time><name>PT5424</name></trkpt>
<trkpt lat="52.963448" lon="-3.258402"><ele>281</ele><time>2022-04-15T14:28:49Z</time><name>PT5425</name></trkpt>
<trkpt lat="52.963448" lon="-3.258421"><ele>280</ele><time>2022-04-15T14:28:50Z</time><name>PT5426</name></trkpt>
<trkpt lat="52.963452" lon="-3.258425"><ele>280</ele><time>2022-04-15T14:28:51Z</time><name>PT5427</name></trkpt>
<trkpt lat="52.963443" lon="-3.258440"><ele>277</ele><time>2022-04-15T14:28:52Z</time><name>PT5428</name></trkpt>
<trkpt lat="52.963445" lon="-3.258448"><ele>276</ele><time>2022-04-15T14:28:53Z</time><name>PT5429</name></trkpt>
<trkpt lat="52.963452" lon="-3.258456"><ele>275</ele><time>2022-04-15T14:28:54Z</time><name>PT5430</name></trkpt>
<trkpt lat="52.963456" lon="-3.258468"><ele>274</ele><time>2022-04-15T14:28:55Z</time><name>PT5431</name></trkpt>
<trkpt lat="52.963460" lon="-3.258478"><ele>274</ele><time>2022-04-15T14:28:56Z</time><name>PT5432</name></trkpt>
<trkpt lat="52.963462" lon="-3.258489"><ele>274</ele><time>2022-04-15T14:28:57Z</time><name>PT5433</name></trkpt>
<trkpt lat="52.963464" lon="-3.258512"><ele>273</ele><time>2022-04-15T14:28:58Z</time><name>PT5434</name></trkpt>
<trkpt lat="52.963474" lon="-3.258530"><ele>273</ele><time>2022-04-15T14:28:59Z</time><name>PT5435</name></trkpt>
<trkpt lat="52.963477" lon="-3.258540"><ele>272</ele><time>2022-04-15T14:29:00Z</time><name>PT5436</name></trkpt>
<trkpt lat="52.963477" lon="-3.258549"><ele>271</ele><time>2022-04-15T14:29:01Z</time><name>PT5437</name></trkpt>
<trkpt lat="52.963483" lon="-3.258568"><ele>271</ele><time>2022-04-15T14:29:02Z</time><name>PT5438</name></trkpt>
<trkpt lat="52.963497" lon="-3.258586"><ele>272</ele><time>2022-04-15T14:29:03Z</time><name>PT5439</name></trkpt>
<trkpt lat="52.963523" lon="-3.258607"><ele>272</ele><time>2022-04-15T14:29:04Z</time><name>PT5440</name></trkpt>
<trkpt lat="52.963543" lon="-3.258623"><ele>273</ele><time>2022-04-15T14:29:05Z</time><name>PT5441</name></trkpt>
<trkpt lat="52.963564" lon="-3.258638"><ele>274</ele><time>2022-04-15T14:29:06Z</time><name>PT5442</name></trkpt>
<trkpt lat="52.963583" lon="-3.258650"><ele>275</ele><time>2022-04-15T14:29:07Z</time><name>PT5443</name></trkpt>
<trkpt lat="52.963605" lon="-3.258659"><ele>275</ele><time>2022-04-15T14:29:08Z</time><name>PT5444</name></trkpt>
<trkpt lat="52.963634" lon="-3.258670"><ele>277</ele><time>2022-04-15T14:29:09Z</time><name>PT5445</name></trkpt>
<trkpt lat="52.963655" lon="-3.258679"><ele>279</ele><time>2022-04-15T14:29:10Z</time><name>PT5446</name></trkpt>
<trkpt lat="52.963670" lon="-3.258691"><ele>279</ele><time>2022-04-15T14:29:11Z</time><name>PT5447</name></trkpt>
<trkpt lat="52.963686" lon="-3.258702"><ele>280</ele><time>2022-04-15T14:29:12Z</time><name>PT5448</name></trkpt>
<trkpt lat="52.963695" lon="-3.258709"><ele>280</ele><time>2022-04-15T14:29:13Z</time><name>PT5449</name></trkpt>
<trkpt lat="52.963702" lon="-3.258722"><ele>280</ele><time>2022-04-15T14:29:14Z</time><name>PT5450</name></trkpt>
<trkpt lat="52.963715" lon="-3.258736"><ele>280</ele><time>2022-04-15T14:29:15Z</time><name>PT5451</name></trkpt>
<trkpt lat="52.963727" lon="-3.258743"><ele>281</ele><time>2022-04-15T14:29:16Z</time><name>PT5452</name></trkpt>
<trkpt lat="52.963740" lon="-3.258752"><ele>282</ele><time>2022-04-15T14:29:17Z</time><name>PT5453</name></trkpt>
<trkpt lat="52.963745" lon="-3.258755"><ele>282</ele><time>2022-04-15T14:29:18Z</time><name>PT5454</name></trkpt>
<trkpt lat="52.963751" lon="-3.258763"><ele>281</ele><time>2022-04-15T14:29:19Z</time><name>PT5455</name></trkpt>
<trkpt lat="52.963760" lon="-3.258771"><ele>282</ele><time>2022-04-15T14:29:20Z</time><name>PT5456</name></trkpt>
<trkpt lat="52.963773" lon="-3.258769"><ele>283</ele><time>2022-04-15T14:29:21Z</time><name>PT5457</name></trkpt>
<trkpt lat="52.963782" lon="-3.258778"><ele>283</ele><time>2022-04-15T14:29:22Z</time><name>PT5458</name></trkpt>
<trkpt lat="52.963789" lon="-3.258775"><ele>284</ele><time>2022-04-15T14:29:23Z</time><name>PT5459</name></trkpt>
<trkpt lat="52.963793" lon="-3.258770"><ele>285</ele><time>2022-04-15T14:29:24Z</time><name>PT5460</name></trkpt>
<trkpt lat="52.963808" lon="-3.258773"><ele>287</ele><time>2022-04-15T14:29:25Z</time><name>PT5461</name></trkpt>
<trkpt lat="52.963811" lon="-3.258775"><ele>287</ele><time>2022-04-15T14:29:26Z</time><name>PT5462</name></trkpt>
<trkpt lat="52.963814" lon="-3.258780"><ele>287</ele><time>2022-04-15T14:29:27Z</time><name>PT5463</name></trkpt>
<trkpt lat="52.963819" lon="-3.258778"><ele>288</ele><time>2022-04-15T14:29:28Z</time><name>PT5464</name></trkpt>
<trkpt lat="52.963820" lon="-3.258780"><ele>287</ele><time>2022-04-15T14:29:29Z</time><name>PT5465</name></trkpt>
<trkpt lat="52.963828" lon="-3.258781"><ele>287</ele><time>2022-04-15T14:29:34Z</time><name>PT5466</name></trkpt>
<trkpt lat="52.963835" lon="-3.258771"><ele>287</ele><time>2022-04-15T14:29:35Z</time><name>PT5467</name></trkpt>
<trkpt lat="52.963839" lon="-3.258775"><ele>287</ele><time>2022-04-15T14:29:36Z</time><name>PT5468</name></trkpt>
<trkpt lat="52.963848" lon="-3.258774"><ele>287</ele><time>2022-04-15T14:29:37Z</time><name>PT5469</name></trkpt>
<trkpt lat="52.963855" lon="-3.258779"><ele>287</ele><time>2022-04-15T14:29:38Z</time><name>PT5470</name></trkpt>
<trkpt lat="52.963865" lon="-3.258794"><ele>287</ele><time>2022-04-15T14:29:39Z</time><name>PT5471</name></trkpt>
<trkpt lat="52.963874" lon="-3.258805"><ele>287</ele><time>2022-04-15T14:29:40Z</time><name>PT5472</name></trkpt>
<trkpt lat="52.963881" lon="-3.258813"><ele>287</ele><time>2022-04-15T14:29:41Z</time><name>PT5473</name></trkpt>
<trkpt lat="52.963891" lon="-3.258831"><ele>287</ele><time>2022-04-15T14:29:42Z</time><name>PT5474</name></trkpt>
<trkpt lat="52.963897" lon="-3.258832"><ele>287</ele><time>2022-04-15T14:29:43Z</time><name>PT5475</name></trkpt>
<trkpt lat="52.963899" lon="-3.258842"><ele>287</ele><time>2022-04-15T14:29:44Z</time><name>PT5476</name></trkpt>
<trkpt lat="52.963909" lon="-3.258861"><ele>286</ele><time>2022-04-15T14:29:45Z</time><name>PT5477</name></trkpt>
<trkpt lat="52.963918" lon="-3.258880"><ele>286</ele><time>2022-04-15T14:29:46Z</time><name>PT5478</name></trkpt>
<trkpt lat="52.963923" lon="-3.258892"><ele>286</ele><time>2022-04-15T14:29:47Z</time><name>PT5479</name></trkpt>
<trkpt lat="52.963927" lon="-3.258904"><ele>286</ele><time>2022-04-15T14:29:48Z</time><name>PT5480</name></trkpt>
<trkpt lat="52.963931" lon="-3.258917"><ele>286</ele><time>2022-04-15T14:29:49Z</time><name>PT5481</name></trkpt>
<trkpt lat="52.963938" lon="-3.258927"><ele>287</ele><time>2022-04-15T14:29:50Z</time><name>PT5482</name></trkpt>
<trkpt lat="52.963941" lon="-3.258940"><ele>287</ele><time>2022-04-15T14:29:51Z</time><name>PT5483</name></trkpt>
<trkpt lat="52.963944" lon="-3.258954"><ele>286</ele><time>2022-04-15T14:29:52Z</time><name>PT5484</name></trkpt>
<trkpt lat="52.963947" lon="-3.258970"><ele>286</ele><time>2022-04-15T14:29:53Z</time><name>PT5485</name></trkpt>
<trkpt lat="52.963951" lon="-3.258982"><ele>286</ele><time>2022-04-15T14:29:54Z</time><name>PT5486</name></trkpt>
<trkpt lat="52.963958" lon="-3.258993"><ele>286</ele><time>2022-04-15T14:29:55Z</time><name>PT5487</name></trkpt>
<trkpt lat="52.963964" lon="-3.259001"><ele>286</ele><time>2022-04-15T14:29:56Z</time><name>PT5488</name></trkpt>
<trkpt lat="52.963967" lon="-3.259012"><ele>285</ele><time>2022-04-15T14:29:57Z</time><name>PT5489</name></trkpt>
<trkpt lat="52.963974" lon="-3.259028"><ele>285</ele><time>2022-04-15T14:29:58Z</time><name>PT5490</name></trkpt>
<trkpt lat="52.963979" lon="-3.259047"><ele>285</ele><time>2022-04-15T14:29:59Z</time><name>PT5491</name></trkpt>
<trkpt lat="52.963982" lon="-3.259064"><ele>285</ele><time>2022-04-15T14:30:00Z</time><name>PT5492</name></trkpt>
<trkpt lat="52.963990" lon="-3.259078"><ele>285</ele><time>2022-04-15T14:30:01Z</time><name>PT5493</name></trkpt>
<trkpt lat="52.964000" lon="-3.259094"><ele>285</ele><time>2022-04-15T14:30:02Z</time><name>PT5494</name></trkpt>
<trkpt lat="52.964007" lon="-3.259101"><ele>285</ele><time>2022-04-15T14:30:03Z</time><name>PT5495</name></trkpt>
<trkpt lat="52.964013" lon="-3.259107"><ele>285</ele><time>2022-04-15T14:30:04Z</time><name>PT5496</name></trkpt>
<trkpt lat="52.964020" lon="-3.259118"><ele>284</ele><time>2022-04-15T14:30:05Z</time><name>PT5497</name></trkpt>
<trkpt lat="52.964022" lon="-3.259131"><ele>284</ele><time>2022-04-15T14:30:06Z</time><name>PT5498</name></trkpt>
<trkpt lat="52.964029" lon="-3.259150"><ele>284</ele><time>2022-04-15T14:30:07Z</time><name>PT5499</name></trkpt>
<trkpt lat="52.964039" lon="-3.259167"><ele>284</ele><time>2022-04-15T14:30:08Z</time><name>PT5500</name></trkpt>
<trkpt lat="52.964050" lon="-3.259177"><ele>284</ele><time>2022-04-15T14:30:09Z</time><name>PT5501</name></trkpt>
<trkpt lat="52.964060" lon="-3.259184"><ele>285</ele><time>2022-04-15T14:30:10Z</time><name>PT5502</name></trkpt>
<trkpt lat="52.964071" lon="-3.259191"><ele>286</ele><time>2022-04-15T14:30:11Z</time><name>PT5503</name></trkpt>
<trkpt lat="52.964086" lon="-3.259196"><ele>287</ele><time>2022-04-15T14:30:12Z</time><name>PT5504</name></trkpt>
<trkpt lat="52.964095" lon="-3.259202"><ele>287</ele><time>2022-04-15T14:30:13Z</time><name>PT5505</name></trkpt>
<trkpt lat="52.964115" lon="-3.259209"><ele>289</ele><time>2022-04-15T14:30:14Z</time><name>PT5506</name></trkpt>
<trkpt lat="52.964124" lon="-3.259214"><ele>290</ele><time>2022-04-15T14:30:15Z</time><name>PT5507</name></trkpt>
<trkpt lat="52.964131" lon="-3.259224"><ele>290</ele><time>2022-04-15T14:30:16Z</time><name>PT5508</name></trkpt>
<trkpt lat="52.964135" lon="-3.259245"><ele>289</ele><time>2022-04-15T14:30:17Z</time><name>PT5509</name></trkpt>
<trkpt lat="52.964142" lon="-3.259253"><ele>289</ele><time>2022-04-15T14:30:18Z</time><name>PT5510</name></trkpt>
<trkpt lat="52.964150" lon="-3.259261"><ele>289</ele><time>2022-04-15T14:30:19Z</time><name>PT5511</name></trkpt>
<trkpt lat="52.964159" lon="-3.259271"><ele>289</ele><time>2022-04-15T14:30:20Z</time><name>PT5512</name></trkpt>
<trkpt lat="52.964158" lon="-3.259283"><ele>288</ele><time>2022-04-15T14:30:21Z</time><name>PT5513</name></trkpt>
<trkpt lat="52.964171" lon="-3.259298"><ele>289</ele><time>2022-04-15T14:30:22Z</time><name>PT5514</name></trkpt>
<trkpt lat="52.964180" lon="-3.259309"><ele>289</ele><time>2022-04-15T14:30:23Z</time><name>PT5515</name></trkpt>
<trkpt lat="52.964207" lon="-3.259316"><ele>292</ele><time>2022-04-15T14:30:24Z</time><name>PT5516</name></trkpt>
<trkpt lat="52.964214" lon="-3.259328"><ele>292</ele><time>2022-04-15T14:30:25Z</time><name>PT5517</name></trkpt>
<trkpt lat="52.964226" lon="-3.259338"><ele>292</ele><time>2022-04-15T14:30:26Z</time><name>PT5518</name></trkpt>
<trkpt lat="52.964238" lon="-3.259350"><ele>292</ele><time>2022-04-15T14:30:27Z</time><name>PT5519</name></trkpt>
<trkpt lat="52.964241" lon="-3.259359"><ele>292</ele><time>2022-04-15T14:30:28Z</time><name>PT5520</name></trkpt>
<trkpt lat="52.964248" lon="-3.259369"><ele>292</ele><time>2022-04-15T14:30:29Z</time><name>PT5521</name></trkpt>
<trkpt lat="52.964253" lon="-3.259377"><ele>292</ele><time>2022-04-15T14:30:30Z</time><name>PT5522</name></trkpt>
<trkpt lat="52.964274" lon="-3.259380"><ele>293</ele><time>2022-04-15T14:30:31Z</time><name>PT5523</name></trkpt>
<trkpt lat="52.964280" lon="-3.259386"><ele>293</ele><time>2022-04-15T14:30:32Z</time><name>PT5524</name></trkpt>
<trkpt lat="52.964287" lon="-3.259395"><ele>293</ele><time>2022-04-15T14:30:33Z</time><name>PT5525</name></trkpt>
<trkpt lat="52.964297" lon="-3.259401"><ele>293</ele><time>2022-04-15T14:30:34Z</time><name>PT5526</name></trkpt>
<trkpt lat="52.964306" lon="-3.259407"><ele>293</ele><time>2022-04-15T14:30:35Z</time><name>PT5527</name></trkpt>
<trkpt lat="52.964326" lon="-3.259415"><ele>294</ele><time>2022-04-15T14:30:36Z</time><name>PT5528</name></trkpt>
<trkpt lat="52.964340" lon="-3.259425"><ele>295</ele><time>2022-04-15T14:30:37Z</time><name>PT5529</name></trkpt>
<trkpt lat="52.964347" lon="-3.259440"><ele>295</ele><time>2022-04-15T14:30:38Z</time><name>PT5530</name></trkpt>
<trkpt lat="52.964358" lon="-3.259445"><ele>295</ele><time>2022-04-15T14:30:39Z</time><name>PT5531</name></trkpt>
<trkpt lat="52.964365" lon="-3.259452"><ele>295</ele><time>2022-04-15T14:30:40Z</time><name>PT5532</name></trkpt>
<trkpt lat="52.964370" lon="-3.259464"><ele>295</ele><time>2022-04-15T14:30:41Z</time><name>PT5533</name></trkpt>
<trkpt lat="52.964377" lon="-3.259471"><ele>295</ele><time>2022-04-15T14:30:42Z</time><name>PT5534</name></trkpt>
<trkpt lat="52.964382" lon="-3.259483"><ele>295</ele><time>2022-04-15T14:30:43Z</time><name>PT5535</name></trkpt>
<trkpt lat="52.964387" lon="-3.259488"><ele>294</ele><time>2022-04-15T14:30:44Z</time><name>PT5536</name></trkpt>
<trkpt lat="52.964393" lon="-3.259495"><ele>294</ele><time>2022-04-15T14:30:45Z</time><name>PT5537</name></trkpt>
<trkpt lat="52.964401" lon="-3.259505"><ele>294</ele><time>2022-04-15T14:30:46Z</time><name>PT5538</name></trkpt>
<trkpt lat="52.964411" lon="-3.259515"><ele>294</ele><time>2022-04-15T14:30:47Z</time><name>PT5539</name></trkpt>
<trkpt lat="52.964418" lon="-3.259533"><ele>293</ele><time>2022-04-15T14:30:48Z</time><name>PT5540</name></trkpt>
<trkpt lat="52.964423" lon="-3.259539"><ele>293</ele><time>2022-04-15T14:30:49Z</time><name>PT5541</name></trkpt>
<trkpt lat="52.964433" lon="-3.259553"><ele>293</ele><time>2022-04-15T14:30:50Z</time><name>PT5542</name></trkpt>
<trkpt lat="52.964448" lon="-3.259562"><ele>294</ele><time>2022-04-15T14:30:51Z</time><name>PT5543</name></trkpt>
<trkpt lat="52.964455" lon="-3.259569"><ele>295</ele><time>2022-04-15T14:30:52Z</time><name>PT5544</name></trkpt>
<trkpt lat="52.964462" lon="-3.259576"><ele>295</ele><time>2022-04-15T14:30:53Z</time><name>PT5545</name></trkpt>
<trkpt lat="52.964468" lon="-3.259585"><ele>295</ele><time>2022-04-15T14:30:54Z</time><name>PT5546</name></trkpt>
<trkpt lat="52.964474" lon="-3.259594"><ele>294</ele><time>2022-04-15T14:30:55Z</time><name>PT5547</name></trkpt>
<trkpt lat="52.964481" lon="-3.259601"><ele>294</ele><time>2022-04-15T14:30:56Z</time><name>PT5548</name></trkpt>
<trkpt lat="52.964487" lon="-3.259606"><ele>293</ele><time>2022-04-15T14:30:57Z</time><name>PT5549</name></trkpt>
<trkpt lat="52.964495" lon="-3.259615"><ele>293</ele><time>2022-04-15T14:30:58Z</time><name>PT5550</name></trkpt>
<trkpt lat="52.964501" lon="-3.259630"><ele>292</ele><time>2022-04-15T14:30:59Z</time><name>PT5551</name></trkpt>
<trkpt lat="52.964510" lon="-3.259641"><ele>291</ele><time>2022-04-15T14:31:00Z</time><name>PT5552</name></trkpt>
<trkpt lat="52.964526" lon="-3.259638"><ele>291</ele><time>2022-04-15T14:31:01Z</time><name>PT5553</name></trkpt>
<trkpt lat="52.964574" lon="-3.259670"><ele>292</ele><time>2022-04-15T14:31:05Z</time><name>PT5554</name></trkpt>
<trkpt lat="52.964603" lon="-3.259700"><ele>291</ele><time>2022-04-15T14:31:09Z</time><name>PT5555</name></trkpt>
<trkpt lat="52.964626" lon="-3.259740"><ele>288</ele><time>2022-04-15T14:31:13Z</time><name>PT5556</name></trkpt>
<trkpt lat="52.964648" lon="-3.259765"><ele>286</ele><time>2022-04-15T14:31:16Z</time><name>PT5557</name></trkpt>
<trkpt lat="52.964697" lon="-3.259775"><ele>291</ele><time>2022-04-15T14:31:19Z</time><name>PT5558</name></trkpt>
<trkpt lat="52.964717" lon="-3.259788"><ele>291</ele><time>2022-04-15T14:31:23Z</time><name>PT5559</name></trkpt>
<trkpt lat="52.964736" lon="-3.259822"><ele>290</ele><time>2022-04-15T14:31:26Z</time><name>PT5560</name></trkpt>
<trkpt lat="52.964751" lon="-3.259843"><ele>289</ele><time>2022-04-15T14:31:27Z</time><name>PT5561</name></trkpt>
<trkpt lat="52.964768" lon="-3.259861"><ele>288</ele><time>2022-04-15T14:31:28Z</time><name>PT5562</name></trkpt>
<trkpt lat="52.964780" lon="-3.259873"><ele>288</ele><time>2022-04-15T14:31:29Z</time><name>PT5563</name></trkpt>
<trkpt lat="52.964803" lon="-3.259881"><ele>289</ele><time>2022-04-15T14:31:30Z</time><name>PT5564</name></trkpt>
<trkpt lat="52.964821" lon="-3.259895"><ele>290</ele><time>2022-04-15T14:31:31Z</time><name>PT5565</name></trkpt>
<trkpt lat="52.964837" lon="-3.259906"><ele>290</ele><time>2022-04-15T14:31:32Z</time><name>PT5566</name></trkpt>
<trkpt lat="52.964851" lon="-3.259918"><ele>290</ele><time>2022-04-15T14:31:33Z</time><name>PT5567</name></trkpt>
<trkpt lat="52.964863" lon="-3.259927"><ele>290</ele><time>2022-04-15T14:31:34Z</time><name>PT5568</name></trkpt>
<trkpt lat="52.964872" lon="-3.259941"><ele>290</ele><time>2022-04-15T14:31:35Z</time><name>PT5569</name></trkpt>
<trkpt lat="52.964889" lon="-3.259954"><ele>291</ele><time>2022-04-15T14:31:36Z</time><name>PT5570</name></trkpt>
<trkpt lat="52.964902" lon="-3.259967"><ele>291</ele><time>2022-04-15T14:31:37Z</time><name>PT5571</name></trkpt>
<trkpt lat="52.964914" lon="-3.259979"><ele>291</ele><time>2022-04-15T14:31:38Z</time><name>PT5572</name></trkpt>
<trkpt lat="52.964927" lon="-3.259991"><ele>292</ele><time>2022-04-15T14:31:39Z</time><name>PT5573</name></trkpt>
<trkpt lat="52.964940" lon="-3.260004"><ele>292</ele><time>2022-04-15T14:31:40Z</time><name>PT5574</name></trkpt>
<trkpt lat="52.964949" lon="-3.260017"><ele>292</ele><time>2022-04-15T14:31:41Z</time><name>PT5575</name></trkpt>
<trkpt lat="52.964960" lon="-3.260028"><ele>293</ele><time>2022-04-15T14:31:42Z</time><name>PT5576</name></trkpt>
<trkpt lat="52.964971" lon="-3.260040"><ele>293</ele><time>2022-04-15T14:31:43Z</time><name>PT5577</name></trkpt>
<trkpt lat="52.964980" lon="-3.260053"><ele>293</ele><time>2022-04-15T14:31:44Z</time><name>PT5578</name></trkpt>
<trkpt lat="52.964991" lon="-3.260066"><ele>293</ele><time>2022-04-15T14:31:45Z</time><name>PT5579</name></trkpt>
<trkpt lat="52.965002" lon="-3.260079"><ele>293</ele><time>2022-04-15T14:31:46Z</time><name>PT5580</name></trkpt>
<trkpt lat="52.965012" lon="-3.260094"><ele>293</ele><time>2022-04-15T14:31:47Z</time><name>PT5581</name></trkpt>
<trkpt lat="52.965021" lon="-3.260107"><ele>293</ele><time>2022-04-15T14:31:48Z</time><name>PT5582</name></trkpt>
<trkpt lat="52.965032" lon="-3.260119"><ele>293</ele><time>2022-04-15T14:31:49Z</time><name>PT5583</name></trkpt>
<trkpt lat="52.965041" lon="-3.260133"><ele>293</ele><time>2022-04-15T14:31:50Z</time><name>PT5584</name></trkpt>
<trkpt lat="52.965050" lon="-3.260147"><ele>293</ele><time>2022-04-15T14:31:51Z</time><name>PT5585</name></trkpt>
<trkpt lat="52.965058" lon="-3.260162"><ele>293</ele><time>2022-04-15T14:31:52Z</time><name>PT5586</name></trkpt>
<trkpt lat="52.965069" lon="-3.260175"><ele>293</ele><time>2022-04-15T14:31:53Z</time><name>PT5587</name></trkpt>
<trkpt lat="52.965081" lon="-3.260188"><ele>294</ele><time>2022-04-15T14:31:54Z</time><name>PT5588</name></trkpt>
<trkpt lat="52.965091" lon="-3.260202"><ele>294</ele><time>2022-04-15T14:31:55Z</time><name>PT5589</name></trkpt>
<trkpt lat="52.965095" lon="-3.260211"><ele>294</ele><time>2022-04-15T14:31:56Z</time><name>PT5590</name></trkpt>
<trkpt lat="52.965102" lon="-3.260225"><ele>294</ele><time>2022-04-15T14:31:57Z</time><name>PT5591</name></trkpt>
<trkpt lat="52.965111" lon="-3.260242"><ele>295</ele><time>2022-04-15T14:31:58Z</time><name>PT5592</name></trkpt>
<trkpt lat="52.965121" lon="-3.260256"><ele>295</ele><time>2022-04-15T14:31:59Z</time><name>PT5593</name></trkpt>
<trkpt lat="52.965130" lon="-3.260269"><ele>295</ele><time>2022-04-15T14:32:00Z</time><name>PT5594</name></trkpt>
<trkpt lat="52.965137" lon="-3.260282"><ele>295</ele><time>2022-04-15T14:32:01Z</time><name>PT5595</name></trkpt>
<trkpt lat="52.965147" lon="-3.260294"><ele>295</ele><time>2022-04-15T14:32:02Z</time><name>PT5596</name></trkpt>
<trkpt lat="52.965155" lon="-3.260308"><ele>295</ele><time>2022-04-15T14:32:03Z</time><name>PT5597</name></trkpt>
<trkpt lat="52.965164" lon="-3.260321"><ele>296</ele><time>2022-04-15T14:32:04Z</time><name>PT5598</name></trkpt>
<trkpt lat="52.965175" lon="-3.260333"><ele>296</ele><time>2022-04-15T14:32:05Z</time><name>PT5599</name></trkpt>
<trkpt lat="52.965182" lon="-3.260346"><ele>296</ele><time>2022-04-15T14:32:06Z</time><name>PT5600</name></trkpt>
<trkpt lat="52.965189" lon="-3.260359"><ele>296</ele><time>2022-04-15T14:32:07Z</time><name>PT5601</name></trkpt>
<trkpt lat="52.965195" lon="-3.260372"><ele>296</ele><time>2022-04-15T14:32:08Z</time><name>PT5602</name></trkpt>
<trkpt lat="52.965202" lon="-3.260386"><ele>296</ele><time>2022-04-15T14:32:09Z</time><name>PT5603</name></trkpt>
<trkpt lat="52.965209" lon="-3.260400"><ele>296</ele><time>2022-04-15T14:32:10Z</time><name>PT5604</name></trkpt>
<trkpt lat="52.965216" lon="-3.260414"><ele>296</ele><time>2022-04-15T14:32:11Z</time><name>PT5605</name></trkpt>
<trkpt lat="52.965225" lon="-3.260427"><ele>296</ele><time>2022-04-15T14:32:12Z</time><name>PT5606</name></trkpt>
<trkpt lat="52.965232" lon="-3.260441"><ele>296</ele><time>2022-04-15T14:32:13Z</time><name>PT5607</name></trkpt>
<trkpt lat="52.965237" lon="-3.260457"><ele>296</ele><time>2022-04-15T14:32:14Z</time><name>PT5608</name></trkpt>
<trkpt lat="52.965245" lon="-3.260470"><ele>296</ele><time>2022-04-15T14:32:15Z</time><name>PT5609</name></trkpt>
<trkpt lat="52.965254" lon="-3.260482"><ele>296</ele><time>2022-04-15T14:32:16Z</time><name>PT5610</name></trkpt>
<trkpt lat="52.965264" lon="-3.260494"><ele>296</ele><time>2022-04-15T14:32:17Z</time><name>PT5611</name></trkpt>
<trkpt lat="52.965272" lon="-3.260506"><ele>296</ele><time>2022-04-15T14:32:18Z</time><name>PT5612</name></trkpt>
<trkpt lat="52.965280" lon="-3.260521"><ele>297</ele><time>2022-04-15T14:32:19Z</time><name>PT5613</name></trkpt>
<trkpt lat="52.965290" lon="-3.260533"><ele>297</ele><time>2022-04-15T14:32:20Z</time><name>PT5614</name></trkpt>
<trkpt lat="52.965296" lon="-3.260547"><ele>297</ele><time>2022-04-15T14:32:21Z</time><name>PT5615</name></trkpt>
<trkpt lat="52.965305" lon="-3.260563"><ele>297</ele><time>2022-04-15T14:32:22Z</time><name>PT5616</name></trkpt>
<trkpt lat="52.965314" lon="-3.260577"><ele>297</ele><time>2022-04-15T14:32:23Z</time><name>PT5617</name></trkpt>
<trkpt lat="52.965322" lon="-3.260589"><ele>297</ele><time>2022-04-15T14:32:24Z</time><name>PT5618</name></trkpt>
<trkpt lat="52.965329" lon="-3.260599"><ele>297</ele><time>2022-04-15T14:32:25Z</time><name>PT5619</name></trkpt>
<trkpt lat="52.965335" lon="-3.260607"><ele>297</ele><time>2022-04-15T14:32:26Z</time><name>PT5620</name></trkpt>
<trkpt lat="52.965339" lon="-3.260623"><ele>297</ele><time>2022-04-15T14:32:27Z</time><name>PT5621</name></trkpt>
<trkpt lat="52.965338" lon="-3.260636"><ele>297</ele><time>2022-04-15T14:32:28Z</time><name>PT5622</name></trkpt>
<trkpt lat="52.965342" lon="-3.260643"><ele>296</ele><time>2022-04-15T14:32:29Z</time><name>PT5623</name></trkpt>
<trkpt lat="52.965344" lon="-3.260655"><ele>296</ele><time>2022-04-15T14:32:30Z</time><name>PT5624</name></trkpt>
<trkpt lat="52.965349" lon="-3.260669"><ele>297</ele><time>2022-04-15T14:32:31Z</time><name>PT5625</name></trkpt>
<trkpt lat="52.965352" lon="-3.260665"><ele>297</ele><time>2022-04-15T14:32:32Z</time><name>PT5626</name></trkpt>
<trkpt lat="52.965351" lon="-3.260678"><ele>297</ele><time>2022-04-15T14:32:33Z</time><name>PT5627</name></trkpt>
<trkpt lat="52.965349" lon="-3.260689"><ele>297</ele><time>2022-04-15T14:32:34Z</time><name>PT5628</name></trkpt>
<trkpt lat="52.965352" lon="-3.260697"><ele>297</ele><time>2022-04-15T14:32:35Z</time><name>PT5629</name></trkpt>
<trkpt lat="52.965353" lon="-3.260702"><ele>297</ele><time>2022-04-15T14:32:36Z</time><name>PT5630</name></trkpt>
<trkpt lat="52.965354" lon="-3.260710"><ele>297</ele><time>2022-04-15T14:32:37Z</time><name>PT5631</name></trkpt>
<trkpt lat="52.965355" lon="-3.260719"><ele>297</ele><time>2022-04-15T14:32:38Z</time><name>PT5632</name></trkpt>
<trkpt lat="52.965357" lon="-3.260725"><ele>297</ele><time>2022-04-15T14:32:39Z</time><name>PT5633</name></trkpt>
<trkpt lat="52.965356" lon="-3.260729"><ele>297</ele><time>2022-04-15T14:32:40Z</time><name>PT5634</name></trkpt>
<trkpt lat="52.965356" lon="-3.260732"><ele>297</ele><time>2022-04-15T14:32:41Z</time><name>PT5635</name></trkpt>
<trkpt lat="52.965356" lon="-3.260732"><ele>297</ele><time>2022-04-15T14:32:42Z</time><name>PT5636</name></trkpt>
<trkpt lat="52.965357" lon="-3.260731"><ele>297</ele><time>2022-04-15T14:32:43Z</time><name>PT5637</name></trkpt>
<trkpt lat="52.965366" lon="-3.260716"><ele>296</ele><time>2022-04-15T14:32:54Z</time><name>PT5638</name></trkpt>
<trkpt lat="52.965374" lon="-3.260708"><ele>296</ele><time>2022-04-15T14:32:55Z</time><name>PT5639</name></trkpt>
<trkpt lat="52.965381" lon="-3.260713"><ele>295</ele><time>2022-04-15T14:32:56Z</time><name>PT5640</name></trkpt>
<trkpt lat="52.965388" lon="-3.260709"><ele>295</ele><time>2022-04-15T14:32:57Z</time><name>PT5641</name></trkpt>
<trkpt lat="52.965391" lon="-3.260708"><ele>295</ele><time>2022-04-15T14:32:58Z</time><name>PT5642</name></trkpt>
<trkpt lat="52.965393" lon="-3.260712"><ele>295</ele><time>2022-04-15T14:32:59Z</time><name>PT5643</name></trkpt>
<trkpt lat="52.965389" lon="-3.260721"><ele>297</ele><time>2022-04-15T14:33:13Z</time><name>PT5644</name></trkpt>
<trkpt lat="52.965386" lon="-3.260728"><ele>297</ele><time>2022-04-15T14:33:14Z</time><name>PT5645</name></trkpt>
<trkpt lat="52.965385" lon="-3.260726"><ele>297</ele><time>2022-04-15T14:33:15Z</time><name>PT5646</name></trkpt>
<trkpt lat="52.965390" lon="-3.260724"><ele>297</ele><time>2022-04-15T14:33:19Z</time><name>PT5647</name></trkpt>
<trkpt lat="52.965397" lon="-3.260727"><ele>297</ele><time>2022-04-15T14:33:20Z</time><name>PT5648</name></trkpt>
<trkpt lat="52.965401" lon="-3.260729"><ele>297</ele><time>2022-04-15T14:33:21Z</time><name>PT5649</name></trkpt>
<trkpt lat="52.965407" lon="-3.260730"><ele>297</ele><time>2022-04-15T14:33:22Z</time><name>PT5650</name></trkpt>
<trkpt lat="52.965411" lon="-3.260731"><ele>297</ele><time>2022-04-15T14:33:27Z</time><name>PT5651</name></trkpt>
<trkpt lat="52.965423" lon="-3.260741"><ele>296</ele><time>2022-04-15T14:33:28Z</time><name>PT5652</name></trkpt>
<trkpt lat="52.965434" lon="-3.260746"><ele>296</ele><time>2022-04-15T14:33:29Z</time><name>PT5653</name></trkpt>
<trkpt lat="52.965432" lon="-3.260753"><ele>295</ele><time>2022-04-15T14:33:30Z</time><name>PT5654</name></trkpt>
<trkpt lat="52.965442" lon="-3.260758"><ele>295</ele><time>2022-04-15T14:33:31Z</time><name>PT5655</name></trkpt>
<trkpt lat="52.965451" lon="-3.260767"><ele>295</ele><time>2022-04-15T14:33:32Z</time><name>PT5656</name></trkpt>
<trkpt lat="52.965460" lon="-3.260778"><ele>294</ele><time>2022-04-15T14:33:33Z</time><name>PT5657</name></trkpt>
<trkpt lat="52.965463" lon="-3.260787"><ele>294</ele><time>2022-04-15T14:33:34Z</time><name>PT5658</name></trkpt>
<trkpt lat="52.965465" lon="-3.260790"><ele>294</ele><time>2022-04-15T14:33:35Z</time><name>PT5659</name></trkpt>
<trkpt lat="52.965465" lon="-3.260792"><ele>293</ele><time>2022-04-15T14:33:36Z</time><name>PT5660</name></trkpt>
<trkpt lat="52.965467" lon="-3.260806"><ele>293</ele><time>2022-04-15T14:33:39Z</time><name>PT5661</name></trkpt>
<trkpt lat="52.965471" lon="-3.260816"><ele>293</ele><time>2022-04-15T14:33:40Z</time><name>PT5662</name></trkpt>
<trkpt lat="52.965477" lon="-3.260822"><ele>293</ele><time>2022-04-15T14:33:41Z</time><name>PT5663</name></trkpt>
<trkpt lat="52.965486" lon="-3.260819"><ele>293</ele><time>2022-04-15T14:33:42Z</time><name>PT5664</name></trkpt>
<trkpt lat="52.965501" lon="-3.260823"><ele>293</ele><time>2022-04-15T14:33:43Z</time><name>PT5665</name></trkpt>
<trkpt lat="52.965512" lon="-3.260829"><ele>293</ele><time>2022-04-15T14:33:44Z</time><name>PT5666</name></trkpt>
<trkpt lat="52.965514" lon="-3.260837"><ele>292</ele><time>2022-04-15T14:33:45Z</time><name>PT5667</name></trkpt>
<trkpt lat="52.965512" lon="-3.260847"><ele>292</ele><time>2022-04-15T14:33:46Z</time><name>PT5668</name></trkpt>
<trkpt lat="52.965514" lon="-3.260856"><ele>291</ele><time>2022-04-15T14:33:47Z</time><name>PT5669</name></trkpt>
<trkpt lat="52.965517" lon="-3.260861"><ele>291</ele><time>2022-04-15T14:33:48Z</time><name>PT5670</name></trkpt>
<trkpt lat="52.965524" lon="-3.260865"><ele>291</ele><time>2022-04-15T14:33:49Z</time><name>PT5671</name></trkpt>
<trkpt lat="52.965530" lon="-3.260875"><ele>290</ele><time>2022-04-15T14:33:50Z</time><name>PT5672</name></trkpt>
<trkpt lat="52.965535" lon="-3.260887"><ele>290</ele><time>2022-04-15T14:33:51Z</time><name>PT5673</name></trkpt>
<trkpt lat="52.965545" lon="-3.260897"><ele>291</ele><time>2022-04-15T14:33:52Z</time><name>PT5674</name></trkpt>
<trkpt lat="52.965557" lon="-3.260904"><ele>291</ele><time>2022-04-15T14:33:53Z</time><name>PT5675</name></trkpt>
<trkpt lat="52.965565" lon="-3.260909"><ele>290</ele><time>2022-04-15T14:33:54Z</time><name>PT5676</name></trkpt>
<trkpt lat="52.965571" lon="-3.260915"><ele>290</ele><time>2022-04-15T14:33:55Z</time><name>PT5677</name></trkpt>
<trkpt lat="52.965582" lon="-3.260922"><ele>290</ele><time>2022-04-15T14:33:56Z</time><name>PT5678</name></trkpt>
<trkpt lat="52.965594" lon="-3.260926"><ele>290</ele><time>2022-04-15T14:33:57Z</time><name>PT5679</name></trkpt>
<trkpt lat="52.965604" lon="-3.260927"><ele>291</ele><time>2022-04-15T14:33:58Z</time><name>PT5680</name></trkpt>
<trkpt lat="52.965610" lon="-3.260930"><ele>291</ele><time>2022-04-15T14:33:59Z</time><name>PT5681</name></trkpt>
<trkpt lat="52.965616" lon="-3.260935"><ele>291</ele><time>2022-04-15T14:34:00Z</time><name>PT5682</name></trkpt>
<trkpt lat="52.965626" lon="-3.260942"><ele>291</ele><time>2022-04-15T14:34:01Z</time><name>PT5683</name></trkpt>
<trkpt lat="52.965634" lon="-3.260943"><ele>291</ele><time>2022-04-15T14:34:02Z</time><name>PT5684</name></trkpt>
<trkpt lat="52.965641" lon="-3.260949"><ele>291</ele><time>2022-04-15T14:34:03Z</time><name>PT5685</name></trkpt>
<trkpt lat="52.965652" lon="-3.260954"><ele>292</ele><time>2022-04-15T14:34:04Z</time><name>PT5686</name></trkpt>
<trkpt lat="52.965663" lon="-3.260949"><ele>294</ele><time>2022-04-15T14:34:05Z</time><name>PT5687</name></trkpt>
<trkpt lat="52.965671" lon="-3.260950"><ele>294</ele><time>2022-04-15T14:34:06Z</time><name>PT5688</name></trkpt>
<trkpt lat="52.965675" lon="-3.260959"><ele>294</ele><time>2022-04-15T14:34:07Z</time><name>PT5689</name></trkpt>
<trkpt lat="52.965680" lon="-3.260964"><ele>294</ele><time>2022-04-15T14:34:08Z</time><name>PT5690</name></trkpt>
<trkpt lat="52.965688" lon="-3.260969"><ele>294</ele><time>2022-04-15T14:34:09Z</time><name>PT5691</name></trkpt>
<trkpt lat="52.965692" lon="-3.260972"><ele>293</ele><time>2022-04-15T14:34:10Z</time><name>PT5692</name></trkpt>
<trkpt lat="52.965690" lon="-3.260980"><ele>292</ele><time>2022-04-15T14:34:11Z</time><name>PT5693</name></trkpt>
<trkpt lat="52.965692" lon="-3.260985"><ele>291</ele><time>2022-04-15T14:34:12Z</time><name>PT5694</name></trkpt>
<trkpt lat="52.965694" lon="-3.260986"><ele>291</ele><time>2022-04-15T14:34:13Z</time><name>PT5695</name></trkpt>
<trkpt lat="52.965696" lon="-3.260986"><ele>291</ele><time>2022-04-15T14:34:14Z</time><name>PT5696</name></trkpt>
<trkpt lat="52.965694" lon="-3.260989"><ele>291</ele><time>2022-04-15T14:34:15Z</time><name>PT5697</name></trkpt>
<trkpt lat="52.965698" lon="-3.260998"><ele>289</ele><time>2022-04-15T14:34:16Z</time><name>PT5698</name></trkpt>
<trkpt lat="52.965702" lon="-3.261007"><ele>288</ele><time>2022-04-15T14:34:17Z</time><name>PT5699</name></trkpt>
<trkpt lat="52.965707" lon="-3.261015"><ele>288</ele><time>2022-04-15T14:34:18Z</time><name>PT5700</name></trkpt>
<trkpt lat="52.965711" lon="-3.261024"><ele>288</ele><time>2022-04-15T14:34:19Z</time><name>PT5701</name></trkpt>
<trkpt lat="52.965711" lon="-3.261036"><ele>288</ele><time>2022-04-15T14:34:20Z</time><name>PT5702</name></trkpt>
<trkpt lat="52.965715" lon="-3.261035"><ele>288</ele><time>2022-04-15T14:34:21Z</time><name>PT5703</name></trkpt>
<trkpt lat="52.965716" lon="-3.261038"><ele>287</ele><time>2022-04-15T14:34:22Z</time><name>PT5704</name></trkpt>
<trkpt lat="52.965721" lon="-3.261038"><ele>287</ele><time>2022-04-15T14:34:23Z</time><name>PT5705</name></trkpt>
<trkpt lat="52.965724" lon="-3.261037"><ele>287</ele><time>2022-04-15T14:34:24Z</time><name>PT5706</name></trkpt>
<trkpt lat="52.965725" lon="-3.261037"><ele>287</ele><time>2022-04-15T14:34:25Z</time><name>PT5707</name></trkpt>
<trkpt lat="52.965726" lon="-3.261036"><ele>287</ele><time>2022-04-15T14:34:26Z</time><name>PT5708</name></trkpt>
<trkpt lat="52.965720" lon="-3.261042"><ele>285</ele><time>2022-04-15T14:34:27Z</time><name>PT5709</name></trkpt>
<trkpt lat="52.965719" lon="-3.261043"><ele>285</ele><time>2022-04-15T14:34:28Z</time><name>PT5710</name></trkpt>
<trkpt lat="52.965716" lon="-3.261045"><ele>284</ele><time>2022-04-15T14:34:29Z</time><name>PT5711</name></trkpt>
<trkpt lat="52.965714" lon="-3.261044"><ele>284</ele><time>2022-04-15T14:34:30Z</time><name>PT5712</name></trkpt>
<trkpt lat="52.965714" lon="-3.261047"><ele>284</ele><time>2022-04-15T14:34:31Z</time><name>PT5713</name></trkpt>
<trkpt lat="52.965712" lon="-3.261049"><ele>284</ele><time>2022-04-15T14:34:32Z</time><name>PT5714</name></trkpt>
<trkpt lat="52.965714" lon="-3.261047"><ele>284</ele><time>2022-04-15T14:34:33Z</time><name>PT5715</name></trkpt>
<trkpt lat="52.965716" lon="-3.261049"><ele>284</ele><time>2022-04-15T14:34:34Z</time><name>PT5716</name></trkpt>
<trkpt lat="52.965717" lon="-3.261048"><ele>285</ele><time>2022-04-15T14:34:48Z</time><name>PT5717</name></trkpt>
<trkpt lat="52.965720" lon="-3.261052"><ele>285</ele><time>2022-04-15T14:34:49Z</time><name>PT5718</name></trkpt>
<trkpt lat="52.965727" lon="-3.261056"><ele>284</ele><time>2022-04-15T14:34:50Z</time><name>PT5719</name></trkpt>
<trkpt lat="52.965731" lon="-3.261051"><ele>284</ele><time>2022-04-15T14:34:51Z</time><name>PT5720</name></trkpt>
<trkpt lat="52.965731" lon="-3.261053"><ele>283</ele><time>2022-04-15T14:34:52Z</time><name>PT5721</name></trkpt>
<trkpt lat="52.965739" lon="-3.261056"><ele>283</ele><time>2022-04-15T14:34:53Z</time><name>PT5722</name></trkpt>
<trkpt lat="52.965754" lon="-3.261057"><ele>282</ele><time>2022-04-15T14:34:54Z</time><name>PT5723</name></trkpt>
<trkpt lat="52.965774" lon="-3.261046"><ele>282</ele><time>2022-04-15T14:34:55Z</time><name>PT5724</name></trkpt>
<trkpt lat="52.965774" lon="-3.261048"><ele>283</ele><time>2022-04-15T14:34:56Z</time><name>PT5725</name></trkpt>
<trkpt lat="52.965776" lon="-3.261052"><ele>283</ele><time>2022-04-15T14:34:57Z</time><name>PT5726</name></trkpt>
<trkpt lat="52.965783" lon="-3.261052"><ele>282</ele><time>2022-04-15T14:34:58Z</time><name>PT5727</name></trkpt>
<trkpt lat="52.965781" lon="-3.261060"><ele>281</ele><time>2022-04-15T14:34:59Z</time><name>PT5728</name></trkpt>
<trkpt lat="52.965775" lon="-3.261060"><ele>283</ele><time>2022-04-15T14:35:00Z</time><name>PT5729</name></trkpt>
<trkpt lat="52.965789" lon="-3.261060"><ele>286</ele><time>2022-04-15T14:35:01Z</time><name>PT5730</name></trkpt>
<trkpt lat="52.965798" lon="-3.261053"><ele>286</ele><time>2022-04-15T14:35:02Z</time><name>PT5731</name></trkpt>
<trkpt lat="52.965799" lon="-3.261041"><ele>287</ele><time>2022-04-15T14:35:03Z</time><name>PT5732</name></trkpt>
<trkpt lat="52.965802" lon="-3.261035"><ele>287</ele><time>2022-04-15T14:35:04Z</time><name>PT5733</name></trkpt>
<trkpt lat="52.965806" lon="-3.261032"><ele>288</ele><time>2022-04-15T14:35:05Z</time><name>PT5734</name></trkpt>
<trkpt lat="52.965812" lon="-3.261028"><ele>288</ele><time>2022-04-15T14:35:06Z</time><name>PT5735</name></trkpt>
<trkpt lat="52.965818" lon="-3.261021"><ele>288</ele><time>2022-04-15T14:35:07Z</time><name>PT5736</name></trkpt>
<trkpt lat="52.965825" lon="-3.261011"><ele>288</ele><time>2022-04-15T14:35:08Z</time><name>PT5737</name></trkpt>
<trkpt lat="52.965829" lon="-3.260999"><ele>288</ele><time>2022-04-15T14:35:09Z</time><name>PT5738</name></trkpt>
<trkpt lat="52.965831" lon="-3.260986"><ele>288</ele><time>2022-04-15T14:35:10Z</time><name>PT5739</name></trkpt>
<trkpt lat="52.965835" lon="-3.260968"><ele>287</ele><time>2022-04-15T14:35:11Z</time><name>PT5740</name></trkpt>
<trkpt lat="52.965838" lon="-3.260953"><ele>287</ele><time>2022-04-15T14:35:12Z</time><name>PT5741</name></trkpt>
<trkpt lat="52.965841" lon="-3.260943"><ele>287</ele><time>2022-04-15T14:35:13Z</time><name>PT5742</name></trkpt>
<trkpt lat="52.965848" lon="-3.260936"><ele>287</ele><time>2022-04-15T14:35:14Z</time><name>PT5743</name></trkpt>
<trkpt lat="52.965852" lon="-3.260931"><ele>287</ele><time>2022-04-15T14:35:15Z</time><name>PT5744</name></trkpt>
<trkpt lat="52.965857" lon="-3.260926"><ele>287</ele><time>2022-04-15T14:35:16Z</time><name>PT5745</name></trkpt>
<trkpt lat="52.965864" lon="-3.260917"><ele>286</ele><time>2022-04-15T14:35:17Z</time><name>PT5746</name></trkpt>
<trkpt lat="52.965872" lon="-3.260907"><ele>286</ele><time>2022-04-15T14:35:18Z</time><name>PT5747</name></trkpt>
<trkpt lat="52.965878" lon="-3.260897"><ele>286</ele><time>2022-04-15T14:35:19Z</time><name>PT5748</name></trkpt>
<trkpt lat="52.965885" lon="-3.260886"><ele>286</ele><time>2022-04-15T14:35:20Z</time><name>PT5749</name></trkpt>
<trkpt lat="52.965893" lon="-3.260875"><ele>286</ele><time>2022-04-15T14:35:21Z</time><name>PT5750</name></trkpt>
<trkpt lat="52.965900" lon="-3.260862"><ele>286</ele><time>2022-04-15T14:35:22Z</time><name>PT5751</name></trkpt>
<trkpt lat="52.965905" lon="-3.260850"><ele>286</ele><time>2022-04-15T14:35:23Z</time><name>PT5752</name></trkpt>
<trkpt lat="52.965910" lon="-3.260840"><ele>285</ele><time>2022-04-15T14:35:24Z</time><name>PT5753</name></trkpt>
<trkpt lat="52.965916" lon="-3.260830"><ele>285</ele><time>2022-04-15T14:35:25Z</time><name>PT5754</name></trkpt>
<trkpt lat="52.965922" lon="-3.260820"><ele>285</ele><time>2022-04-15T14:35:26Z</time><name>PT5755</name></trkpt>
<trkpt lat="52.965929" lon="-3.260812"><ele>285</ele><time>2022-04-15T14:35:27Z</time><name>PT5756</name></trkpt>
<trkpt lat="52.965937" lon="-3.260803"><ele>285</ele><time>2022-04-15T14:35:28Z</time><name>PT5757</name></trkpt>
<trkpt lat="52.965943" lon="-3.260794"><ele>284</ele><time>2022-04-15T14:35:29Z</time><name>PT5758</name></trkpt>
<trkpt lat="52.965950" lon="-3.260785"><ele>284</ele><time>2022-04-15T14:35:30Z</time><name>PT5759</name></trkpt>
<trkpt lat="52.965957" lon="-3.260778"><ele>284</ele><time>2022-04-15T14:35:31Z</time><name>PT5760</name></trkpt>
<trkpt lat="52.965962" lon="-3.260768"><ele>284</ele><time>2022-04-15T14:35:32Z</time><name>PT5761</name></trkpt>
<trkpt lat="52.965967" lon="-3.260757"><ele>284</ele><time>2022-04-15T14:35:33Z</time><name>PT5762</name></trkpt>
<trkpt lat="52.965972" lon="-3.260748"><ele>283</ele><time>2022-04-15T14:35:34Z</time><name>PT5763</name></trkpt>
<trkpt lat="52.965978" lon="-3.260739"><ele>283</ele><time>2022-04-15T14:35:35Z</time><name>PT5764</name></trkpt>
<trkpt lat="52.965984" lon="-3.260731"><ele>283</ele><time>2022-04-15T14:35:36Z</time><name>PT5765</name></trkpt>
<trkpt lat="52.965989" lon="-3.260723"><ele>283</ele><time>2022-04-15T14:35:37Z</time><name>PT5766</name></trkpt>
<trkpt lat="52.965995" lon="-3.260715"><ele>283</ele><time>2022-04-15T14:35:38Z</time><name>PT5767</name></trkpt>
<trkpt lat="52.966003" lon="-3.260708"><ele>283</ele><time>2022-04-15T14:35:39Z</time><name>PT5768</name></trkpt>
<trkpt lat="52.966014" lon="-3.260703"><ele>282</ele><time>2022-04-15T14:35:40Z</time><name>PT5769</name></trkpt>
<trkpt lat="52.966023" lon="-3.260698"><ele>282</ele><time>2022-04-15T14:35:41Z</time><name>PT5770</name></trkpt>
<trkpt lat="52.966032" lon="-3.260692"><ele>282</ele><time>2022-04-15T14:35:42Z</time><name>PT5771</name></trkpt>
<trkpt lat="52.966042" lon="-3.260688"><ele>282</ele><time>2022-04-15T14:35:43Z</time><name>PT5772</name></trkpt>
<trkpt lat="52.966052" lon="-3.260683"><ele>282</ele><time>2022-04-15T14:35:44Z</time><name>PT5773</name></trkpt>
<trkpt lat="52.966062" lon="-3.260677"><ele>281</ele><time>2022-04-15T14:35:45Z</time><name>PT5774</name></trkpt>
<trkpt lat="52.966074" lon="-3.260673"><ele>281</ele><time>2022-04-15T14:35:46Z</time><name>PT5775</name></trkpt>
<trkpt lat="52.966085" lon="-3.260668"><ele>281</ele><time>2022-04-15T14:35:47Z</time><name>PT5776</name></trkpt>
<trkpt lat="52.966095" lon="-3.260660"><ele>281</ele><time>2022-04-15T14:35:48Z</time><name>PT5777</name></trkpt>
<trkpt lat="52.966105" lon="-3.260652"><ele>281</ele><time>2022-04-15T14:35:49Z</time><name>PT5778</name></trkpt>
<trkpt lat="52.966114" lon="-3.260645"><ele>280</ele><time>2022-04-15T14:35:50Z</time><name>PT5779</name></trkpt>
<trkpt lat="52.966124" lon="-3.260635"><ele>280</ele><time>2022-04-15T14:35:51Z</time><name>PT5780</name></trkpt>
<trkpt lat="52.966134" lon="-3.260628"><ele>280</ele><time>2022-04-15T14:35:52Z</time><name>PT5781</name></trkpt>
<trkpt lat="52.966144" lon="-3.260622"><ele>280</ele><time>2022-04-15T14:35:53Z</time><name>PT5782</name></trkpt>
<trkpt lat="52.966155" lon="-3.260616"><ele>280</ele><time>2022-04-15T14:35:54Z</time><name>PT5783</name></trkpt>
<trkpt lat="52.966166" lon="-3.260609"><ele>279</ele><time>2022-04-15T14:35:55Z</time><name>PT5784</name></trkpt>
<trkpt lat="52.966176" lon="-3.260604"><ele>280</ele><time>2022-04-15T14:35:56Z</time><name>PT5785</name></trkpt>
<trkpt lat="52.966186" lon="-3.260597"><ele>279</ele><time>2022-04-15T14:35:57Z</time><name>PT5786</name></trkpt>
<trkpt lat="52.966195" lon="-3.260591"><ele>279</ele><time>2022-04-15T14:35:58Z</time><name>PT5787</name></trkpt>
<trkpt lat="52.966206" lon="-3.260586"><ele>279</ele><time>2022-04-15T14:35:59Z</time><name>PT5788</name></trkpt>
<trkpt lat="52.966219" lon="-3.260579"><ele>279</ele><time>2022-04-15T14:36:00Z</time><name>PT5789</name></trkpt>
<trkpt lat="52.966230" lon="-3.260571"><ele>279</ele><time>2022-04-15T14:36:01Z</time><name>PT5790</name></trkpt>
<trkpt lat="52.966241" lon="-3.260564"><ele>279</ele><time>2022-04-15T14:36:02Z</time><name>PT5791</name></trkpt>
<trkpt lat="52.966251" lon="-3.260559"><ele>278</ele><time>2022-04-15T14:36:03Z</time><name>PT5792</name></trkpt>
<trkpt lat="52.966260" lon="-3.260552"><ele>278</ele><time>2022-04-15T14:36:04Z</time><name>PT5793</name></trkpt>
<trkpt lat="52.966270" lon="-3.260546"><ele>278</ele><time>2022-04-15T14:36:05Z</time><name>PT5794</name></trkpt>
<trkpt lat="52.966280" lon="-3.260537"><ele>278</ele><time>2022-04-15T14:36:06Z</time><name>PT5795</name></trkpt>
<trkpt lat="52.966291" lon="-3.260530"><ele>277</ele><time>2022-04-15T14:36:07Z</time><name>PT5796</name></trkpt>
<trkpt lat="52.966302" lon="-3.260526"><ele>277</ele><time>2022-04-15T14:36:08Z</time><name>PT5797</name></trkpt>
<trkpt lat="52.966313" lon="-3.260520"><ele>277</ele><time>2022-04-15T14:36:09Z</time><name>PT5798</name></trkpt>
<trkpt lat="52.966323" lon="-3.260511"><ele>277</ele><time>2022-04-15T14:36:10Z</time><name>PT5799</name></trkpt>
<trkpt lat="52.966334" lon="-3.260503"><ele>277</ele><time>2022-04-15T14:36:11Z</time><name>PT5800</name></trkpt>
<trkpt lat="52.966344" lon="-3.260494"><ele>277</ele><time>2022-04-15T14:36:12Z</time><name>PT5801</name></trkpt>
<trkpt lat="52.966355" lon="-3.260485"><ele>277</ele><time>2022-04-15T14:36:13Z</time><name>PT5802</name></trkpt>
<trkpt lat="52.966366" lon="-3.260478"><ele>277</ele><time>2022-04-15T14:36:14Z</time><name>PT5803</name></trkpt>
<trkpt lat="52.966377" lon="-3.260471"><ele>277</ele><time>2022-04-15T14:36:15Z</time><name>PT5804</name></trkpt>
<trkpt lat="52.966388" lon="-3.260463"><ele>277</ele><time>2022-04-15T14:36:16Z</time><name>PT5805</name></trkpt>
<trkpt lat="52.966400" lon="-3.260456"><ele>276</ele><time>2022-04-15T14:36:17Z</time><name>PT5806</name></trkpt>
<trkpt lat="52.966411" lon="-3.260449"><ele>276</ele><time>2022-04-15T14:36:18Z</time><name>PT5807</name></trkpt>
<trkpt lat="52.966423" lon="-3.260441"><ele>276</ele><time>2022-04-15T14:36:19Z</time><name>PT5808</name></trkpt>
<trkpt lat="52.966435" lon="-3.260434"><ele>276</ele><time>2022-04-15T14:36:20Z</time><name>PT5809</name></trkpt>
<trkpt lat="52.966446" lon="-3.260429"><ele>276</ele><time>2022-04-15T14:36:21Z</time><name>PT5810</name></trkpt>
<trkpt lat="52.966457" lon="-3.260423"><ele>276</ele><time>2022-04-15T14:36:22Z</time><name>PT5811</name></trkpt>
<trkpt lat="52.966468" lon="-3.260418"><ele>276</ele><time>2022-04-15T14:36:23Z</time><name>PT5812</name></trkpt>
<trkpt lat="52.966479" lon="-3.260412"><ele>276</ele><time>2022-04-15T14:36:24Z</time><name>PT5813</name></trkpt>
<trkpt lat="52.966491" lon="-3.260407"><ele>276</ele><time>2022-04-15T14:36:25Z</time><name>PT5814</name></trkpt>
<trkpt lat="52.966503" lon="-3.260403"><ele>276</ele><time>2022-04-15T14:36:26Z</time><name>PT5815</name></trkpt>
<trkpt lat="52.966516" lon="-3.260401"><ele>275</ele><time>2022-04-15T14:36:27Z</time><name>PT5816</name></trkpt>
<trkpt lat="52.966528" lon="-3.260400"><ele>275</ele><time>2022-04-15T14:36:28Z</time><name>PT5817</name></trkpt>
<trkpt lat="52.966539" lon="-3.260399"><ele>275</ele><time>2022-04-15T14:36:29Z</time><name>PT5818</name></trkpt>
<trkpt lat="52.966549" lon="-3.260397"><ele>275</ele><time>2022-04-15T14:36:30Z</time><name>PT5819</name></trkpt>
<trkpt lat="52.966561" lon="-3.260394"><ele>275</ele><time>2022-04-15T14:36:31Z</time><name>PT5820</name></trkpt>
<trkpt lat="52.966572" lon="-3.260391"><ele>275</ele><time>2022-04-15T14:36:32Z</time><name>PT5821</name></trkpt>
<trkpt lat="52.966584" lon="-3.260392"><ele>274</ele><time>2022-04-15T14:36:33Z</time><name>PT5822</name></trkpt>
<trkpt lat="52.966596" lon="-3.260391"><ele>274</ele><time>2022-04-15T14:36:34Z</time><name>PT5823</name></trkpt>
<trkpt lat="52.966607" lon="-3.260389"><ele>274</ele><time>2022-04-15T14:36:35Z</time><name>PT5824</name></trkpt>
<trkpt lat="52.966618" lon="-3.260389"><ele>274</ele><time>2022-04-15T14:36:36Z</time><name>PT5825</name></trkpt>
<trkpt lat="52.966630" lon="-3.260390"><ele>274</ele><time>2022-04-15T14:36:37Z</time><name>PT5826</name></trkpt>
<trkpt lat="52.966641" lon="-3.260393"><ele>274</ele><time>2022-04-15T14:36:38Z</time><name>PT5827</name></trkpt>
<trkpt lat="52.966651" lon="-3.260395"><ele>274</ele><time>2022-04-15T14:36:39Z</time><name>PT5828</name></trkpt>
<trkpt lat="52.966661" lon="-3.260397"><ele>273</ele><time>2022-04-15T14:36:40Z</time><name>PT5829</name></trkpt>
<trkpt lat="52.966671" lon="-3.260400"><ele>273</ele><time>2022-04-15T14:36:41Z</time><name>PT5830</name></trkpt>
<trkpt lat="52.966682" lon="-3.260402"><ele>273</ele><time>2022-04-15T14:36:42Z</time><name>PT5831</name></trkpt>
<trkpt lat="52.966692" lon="-3.260404"><ele>273</ele><time>2022-04-15T14:36:43Z</time><name>PT5832</name></trkpt>
<trkpt lat="52.966703" lon="-3.260405"><ele>272</ele><time>2022-04-15T14:36:44Z</time><name>PT5833</name></trkpt>
<trkpt lat="52.966713" lon="-3.260401"><ele>272</ele><time>2022-04-15T14:36:45Z</time><name>PT5834</name></trkpt>
<trkpt lat="52.966725" lon="-3.260399"><ele>272</ele><time>2022-04-15T14:36:46Z</time><name>PT5835</name></trkpt>
<trkpt lat="52.966737" lon="-3.260395"><ele>272</ele><time>2022-04-15T14:36:47Z</time><name>PT5836</name></trkpt>
<trkpt lat="52.966747" lon="-3.260390"><ele>272</ele><time>2022-04-15T14:36:48Z</time><name>PT5837</name></trkpt>
<trkpt lat="52.966756" lon="-3.260385"><ele>271</ele><time>2022-04-15T14:36:49Z</time><name>PT5838</name></trkpt>
<trkpt lat="52.966767" lon="-3.260381"><ele>271</ele><time>2022-04-15T14:36:50Z</time><name>PT5839</name></trkpt>
<trkpt lat="52.966778" lon="-3.260376"><ele>271</ele><time>2022-04-15T14:36:51Z</time><name>PT5840</name></trkpt>
<trkpt lat="52.966790" lon="-3.260371"><ele>271</ele><time>2022-04-15T14:36:52Z</time><name>PT5841</name></trkpt>
<trkpt lat="52.966802" lon="-3.260368"><ele>271</ele><time>2022-04-15T14:36:53Z</time><name>PT5842</name></trkpt>
<trkpt lat="52.966815" lon="-3.260366"><ele>271</ele><time>2022-04-15T14:36:54Z</time><name>PT5843</name></trkpt>
<trkpt lat="52.966827" lon="-3.260362"><ele>270</ele><time>2022-04-15T14:36:55Z</time><name>PT5844</name></trkpt>
<trkpt lat="52.966839" lon="-3.260360"><ele>270</ele><time>2022-04-15T14:36:56Z</time><name>PT5845</name></trkpt>
<trkpt lat="52.966851" lon="-3.260358"><ele>269</ele><time>2022-04-15T14:36:57Z</time><name>PT5846</name></trkpt>
<trkpt lat="52.966863" lon="-3.260360"><ele>269</ele><time>2022-04-15T14:36:58Z</time><name>PT5847</name></trkpt>
<trkpt lat="52.966874" lon="-3.260357"><ele>269</ele><time>2022-04-15T14:36:59Z</time><name>PT5848</name></trkpt>
<trkpt lat="52.966883" lon="-3.260358"><ele>269</ele><time>2022-04-15T14:37:00Z</time><name>PT5849</name></trkpt>
<trkpt lat="52.966897" lon="-3.260356"><ele>269</ele><time>2022-04-15T14:37:01Z</time><name>PT5850</name></trkpt>
<trkpt lat="52.966909" lon="-3.260357"><ele>269</ele><time>2022-04-15T14:37:02Z</time><name>PT5851</name></trkpt>
<trkpt lat="52.966923" lon="-3.260358"><ele>269</ele><time>2022-04-15T14:37:03Z</time><name>PT5852</name></trkpt>
<trkpt lat="52.966933" lon="-3.260358"><ele>269</ele><time>2022-04-15T14:37:04Z</time><name>PT5853</name></trkpt>
<trkpt lat="52.966941" lon="-3.260356"><ele>268</ele><time>2022-04-15T14:37:05Z</time><name>PT5854</name></trkpt>
<trkpt lat="52.966953" lon="-3.260353"><ele>268</ele><time>2022-04-15T14:37:06Z</time><name>PT5855</name></trkpt>
<trkpt lat="52.966964" lon="-3.260348"><ele>268</ele><time>2022-04-15T14:37:07Z</time><name>PT5856</name></trkpt>
<trkpt lat="52.966976" lon="-3.260348"><ele>268</ele><time>2022-04-15T14:37:08Z</time><name>PT5857</name></trkpt>
<trkpt lat="52.966987" lon="-3.260348"><ele>268</ele><time>2022-04-15T14:37:09Z</time><name>PT5858</name></trkpt>
<trkpt lat="52.966998" lon="-3.260355"><ele>268</ele><time>2022-04-15T14:37:10Z</time><name>PT5859</name></trkpt>
<trkpt lat="52.967006" lon="-3.260358"><ele>268</ele><time>2022-04-15T14:37:11Z</time><name>PT5860</name></trkpt>
<trkpt lat="52.967018" lon="-3.260362"><ele>268</ele><time>2022-04-15T14:37:12Z</time><name>PT5861</name></trkpt>
<trkpt lat="52.967024" lon="-3.260365"><ele>267</ele><time>2022-04-15T14:37:13Z</time><name>PT5862</name></trkpt>
<trkpt lat="52.967033" lon="-3.260369"><ele>267</ele><time>2022-04-15T14:37:14Z</time><name>PT5863</name></trkpt>
<trkpt lat="52.967041" lon="-3.260373"><ele>267</ele><time>2022-04-15T14:37:15Z</time><name>PT5864</name></trkpt>
<trkpt lat="52.967049" lon="-3.260381"><ele>267</ele><time>2022-04-15T14:37:16Z</time><name>PT5865</name></trkpt>
<trkpt lat="52.967059" lon="-3.260391"><ele>267</ele><time>2022-04-15T14:37:17Z</time><name>PT5866</name></trkpt>
<trkpt lat="52.967067" lon="-3.260400"><ele>266</ele><time>2022-04-15T14:37:18Z</time><name>PT5867</name></trkpt>
<trkpt lat="52.967076" lon="-3.260409"><ele>266</ele><time>2022-04-15T14:37:19Z</time><name>PT5868</name></trkpt>
<trkpt lat="52.967085" lon="-3.260415"><ele>267</ele><time>2022-04-15T14:37:20Z</time><name>PT5869</name></trkpt>
<trkpt lat="52.967097" lon="-3.260426"><ele>266</ele><time>2022-04-15T14:37:21Z</time><name>PT5870</name></trkpt>
<trkpt lat="52.967107" lon="-3.260436"><ele>266</ele><time>2022-04-15T14:37:22Z</time><name>PT5871</name></trkpt>
<trkpt lat="52.967115" lon="-3.260445"><ele>266</ele><time>2022-04-15T14:37:23Z</time><name>PT5872</name></trkpt>
<trkpt lat="52.967123" lon="-3.260453"><ele>265</ele><time>2022-04-15T14:37:24Z</time><name>PT5873</name></trkpt>
<trkpt lat="52.967128" lon="-3.260458"><ele>265</ele><time>2022-04-15T14:37:25Z</time><name>PT5874</name></trkpt>
<trkpt lat="52.967138" lon="-3.260469"><ele>264</ele><time>2022-04-15T14:37:26Z</time><name>PT5875</name></trkpt>
<trkpt lat="52.967150" lon="-3.260480"><ele>264</ele><time>2022-04-15T14:37:27Z</time><name>PT5876</name></trkpt>
<trkpt lat="52.967158" lon="-3.260492"><ele>264</ele><time>2022-04-15T14:37:28Z</time><name>PT5877</name></trkpt>
<trkpt lat="52.967164" lon="-3.260506"><ele>264</ele><time>2022-04-15T14:37:29Z</time><name>PT5878</name></trkpt>
<trkpt lat="52.967172" lon="-3.260523"><ele>263</ele><time>2022-04-15T14:37:30Z</time><name>PT5879</name></trkpt>
<trkpt lat="52.967181" lon="-3.260536"><ele>263</ele><time>2022-04-15T14:37:31Z</time><name>PT5880</name></trkpt>
<trkpt lat="52.967189" lon="-3.260549"><ele>263</ele><time>2022-04-15T14:37:32Z</time><name>PT5881</name></trkpt>
<trkpt lat="52.967196" lon="-3.260558"><ele>262</ele><time>2022-04-15T14:37:33Z</time><name>PT5882</name></trkpt>
<trkpt lat="52.967204" lon="-3.260569"><ele>262</ele><time>2022-04-15T14:37:34Z</time><name>PT5883</name></trkpt>
<trkpt lat="52.967214" lon="-3.260582"><ele>262</ele><time>2022-04-15T14:37:35Z</time><name>PT5884</name></trkpt>
<trkpt lat="52.967222" lon="-3.260596"><ele>262</ele><time>2022-04-15T14:37:36Z</time><name>PT5885</name></trkpt>
<trkpt lat="52.967231" lon="-3.260609"><ele>262</ele><time>2022-04-15T14:37:37Z</time><name>PT5886</name></trkpt>
<trkpt lat="52.967236" lon="-3.260624"><ele>262</ele><time>2022-04-15T14:37:38Z</time><name>PT5887</name></trkpt>
<trkpt lat="52.967240" lon="-3.260641"><ele>262</ele><time>2022-04-15T14:37:39Z</time><name>PT5888</name></trkpt>
<trkpt lat="52.967246" lon="-3.260654"><ele>262</ele><time>2022-04-15T14:37:40Z</time><name>PT5889</name></trkpt>
<trkpt lat="52.967252" lon="-3.260670"><ele>261</ele><time>2022-04-15T14:37:41Z</time><name>PT5890</name></trkpt>
<trkpt lat="52.967263" lon="-3.260687"><ele>261</ele><time>2022-04-15T14:37:42Z</time><name>PT5891</name></trkpt>
<trkpt lat="52.967270" lon="-3.260706"><ele>261</ele><time>2022-04-15T14:37:43Z</time><name>PT5892</name></trkpt>
<trkpt lat="52.967277" lon="-3.260720"><ele>261</ele><time>2022-04-15T14:37:44Z</time><name>PT5893</name></trkpt>
<trkpt lat="52.967285" lon="-3.260736"><ele>261</ele><time>2022-04-15T14:37:45Z</time><name>PT5894</name></trkpt>
<trkpt lat="52.967294" lon="-3.260751"><ele>262</ele><time>2022-04-15T14:37:46Z</time><name>PT5895</name></trkpt>
<trkpt lat="52.967304" lon="-3.260769"><ele>261</ele><time>2022-04-15T14:37:47Z</time><name>PT5896</name></trkpt>
<trkpt lat="52.967317" lon="-3.260785"><ele>262</ele><time>2022-04-15T14:37:48Z</time><name>PT5897</name></trkpt>
<trkpt lat="52.967327" lon="-3.260799"><ele>262</ele><time>2022-04-15T14:37:49Z</time><name>PT5898</name></trkpt>
<trkpt lat="52.967332" lon="-3.260812"><ele>262</ele><time>2022-04-15T14:37:50Z</time><name>PT5899</name></trkpt>
<trkpt lat="52.967344" lon="-3.260829"><ele>263</ele><time>2022-04-15T14:37:51Z</time><name>PT5900</name></trkpt>
<trkpt lat="52.967354" lon="-3.260845"><ele>262</ele><time>2022-04-15T14:37:52Z</time><name>PT5901</name></trkpt>
<trkpt lat="52.967366" lon="-3.260859"><ele>262</ele><time>2022-04-15T14:37:53Z</time><name>PT5902</name></trkpt>
<trkpt lat="52.967377" lon="-3.260872"><ele>262</ele><time>2022-04-15T14:37:54Z</time><name>PT5903</name></trkpt>
<trkpt lat="52.967387" lon="-3.260886"><ele>263</ele><time>2022-04-15T14:37:55Z</time><name>PT5904</name></trkpt>
<trkpt lat="52.967396" lon="-3.260903"><ele>263</ele><time>2022-04-15T14:37:56Z</time><name>PT5905</name></trkpt>
<trkpt lat="52.967405" lon="-3.260918"><ele>262</ele><time>2022-04-15T14:37:57Z</time><name>PT5906</name></trkpt>
<trkpt lat="52.967414" lon="-3.260927"><ele>262</ele><time>2022-04-15T14:37:58Z</time><name>PT5907</name></trkpt>
<trkpt lat="52.967425" lon="-3.260934"><ele>262</ele><time>2022-04-15T14:37:59Z</time><name>PT5908</name></trkpt>
<trkpt lat="52.967436" lon="-3.260947"><ele>262</ele><time>2022-04-15T14:38:00Z</time><name>PT5909</name></trkpt>
<trkpt lat="52.967447" lon="-3.260955"><ele>263</ele><time>2022-04-15T14:38:01Z</time><name>PT5910</name></trkpt>
<trkpt lat="52.967459" lon="-3.260968"><ele>263</ele><time>2022-04-15T14:38:02Z</time><name>PT5911</name></trkpt>
<trkpt lat="52.967466" lon="-3.260979"><ele>262</ele><time>2022-04-15T14:38:03Z</time><name>PT5912</name></trkpt>
<trkpt lat="52.967474" lon="-3.260983"><ele>262</ele><time>2022-04-15T14:38:04Z</time><name>PT5913</name></trkpt>
<trkpt lat="52.967483" lon="-3.260985"><ele>262</ele><time>2022-04-15T14:38:05Z</time><name>PT5914</name></trkpt>
<trkpt lat="52.967490" lon="-3.260980"><ele>262</ele><time>2022-04-15T14:38:06Z</time><name>PT5915</name></trkpt>
<trkpt lat="52.967498" lon="-3.260979"><ele>262</ele><time>2022-04-15T14:38:07Z</time><name>PT5916</name></trkpt>
<trkpt lat="52.967508" lon="-3.260981"><ele>261</ele><time>2022-04-15T14:38:08Z</time><name>PT5917</name></trkpt>
<trkpt lat="52.967518" lon="-3.260980"><ele>261</ele><time>2022-04-15T14:38:09Z</time><name>PT5918</name></trkpt>
<trkpt lat="52.967531" lon="-3.260979"><ele>261</ele><time>2022-04-15T14:38:10Z</time><name>PT5919</name></trkpt>
<trkpt lat="52.967541" lon="-3.260975"><ele>261</ele><time>2022-04-15T14:38:11Z</time><name>PT5920</name></trkpt>
<trkpt lat="52.967551" lon="-3.260972"><ele>260</ele><time>2022-04-15T14:38:12Z</time><name>PT5921</name></trkpt>
<trkpt lat="52.967560" lon="-3.260968"><ele>260</ele><time>2022-04-15T14:38:13Z</time><name>PT5922</name></trkpt>
<trkpt lat="52.967571" lon="-3.260967"><ele>260</ele><time>2022-04-15T14:38:14Z</time><name>PT5923</name></trkpt>
<trkpt lat="52.967581" lon="-3.260962"><ele>260</ele><time>2022-04-15T14:38:15Z</time><name>PT5924</name></trkpt>
<trkpt lat="52.967593" lon="-3.260960"><ele>260</ele><time>2022-04-15T14:38:16Z</time><name>PT5925</name></trkpt>
<trkpt lat="52.967603" lon="-3.260954"><ele>260</ele><time>2022-04-15T14:38:17Z</time><name>PT5926</name></trkpt>
<trkpt lat="52.967613" lon="-3.260953"><ele>260</ele><time>2022-04-15T14:38:18Z</time><name>PT5927</name></trkpt>
<trkpt lat="52.967629" lon="-3.260957"><ele>259</ele><time>2022-04-15T14:38:19Z</time><name>PT5928</name></trkpt>
<trkpt lat="52.967647" lon="-3.260961"><ele>259</ele><time>2022-04-15T14:38:20Z</time><name>PT5929</name></trkpt>
<trkpt lat="52.967661" lon="-3.260966"><ele>259</ele><time>2022-04-15T14:38:21Z</time><name>PT5930</name></trkpt>
<trkpt lat="52.967674" lon="-3.260975"><ele>258</ele><time>2022-04-15T14:38:22Z</time><name>PT5931</name></trkpt>
<trkpt lat="52.967686" lon="-3.260976"><ele>258</ele><time>2022-04-15T14:38:23Z</time><name>PT5932</name></trkpt>
<trkpt lat="52.967698" lon="-3.260974"><ele>257</ele><time>2022-04-15T14:38:24Z</time><name>PT5933</name></trkpt>
<trkpt lat="52.967709" lon="-3.260975"><ele>257</ele><time>2022-04-15T14:38:25Z</time><name>PT5934</name></trkpt>
<trkpt lat="52.967718" lon="-3.260975"><ele>257</ele><time>2022-04-15T14:38:26Z</time><name>PT5935</name></trkpt>
<trkpt lat="52.967732" lon="-3.260979"><ele>256</ele><time>2022-04-15T14:38:27Z</time><name>PT5936</name></trkpt>
<trkpt lat="52.967742" lon="-3.260982"><ele>256</ele><time>2022-04-15T14:38:28Z</time><name>PT5937</name></trkpt>
<trkpt lat="52.967753" lon="-3.260983"><ele>256</ele><time>2022-04-15T14:38:29Z</time><name>PT5938</name></trkpt>
<trkpt lat="52.967765" lon="-3.260981"><ele>256</ele><time>2022-04-15T14:38:30Z</time><name>PT5939</name></trkpt>
<trkpt lat="52.967778" lon="-3.260988"><ele>255</ele><time>2022-04-15T14:38:31Z</time><name>PT5940</name></trkpt>
<trkpt lat="52.967790" lon="-3.260989"><ele>255</ele><time>2022-04-15T14:38:32Z</time><name>PT5941</name></trkpt>
<trkpt lat="52.967801" lon="-3.260985"><ele>255</ele><time>2022-04-15T14:38:33Z</time><name>PT5942</name></trkpt>
<trkpt lat="52.967811" lon="-3.260984"><ele>255</ele><time>2022-04-15T14:38:34Z</time><name>PT5943</name></trkpt>
<trkpt lat="52.967823" lon="-3.260982"><ele>255</ele><time>2022-04-15T14:38:35Z</time><name>PT5944</name></trkpt>
<trkpt lat="52.967837" lon="-3.260982"><ele>255</ele><time>2022-04-15T14:38:36Z</time><name>PT5945</name></trkpt>
<trkpt lat="52.967847" lon="-3.260982"><ele>255</ele><time>2022-04-15T14:38:37Z</time><name>PT5946</name></trkpt>
<trkpt lat="52.967858" lon="-3.260986"><ele>255</ele><time>2022-04-15T14:38:38Z</time><name>PT5947</name></trkpt>
<trkpt lat="52.967871" lon="-3.260990"><ele>255</ele><time>2022-04-15T14:38:39Z</time><name>PT5948</name></trkpt>
<trkpt lat="52.967885" lon="-3.260991"><ele>255</ele><time>2022-04-15T14:38:40Z</time><name>PT5949</name></trkpt>
<trkpt lat="52.967894" lon="-3.260971"><ele>256</ele><time>2022-04-15T14:38:41Z</time><name>PT5950</name></trkpt>
<trkpt lat="52.967907" lon="-3.260970"><ele>256</ele><time>2022-04-15T14:38:42Z</time><name>PT5951</name></trkpt>
<trkpt lat="52.967921" lon="-3.260972"><ele>256</ele><time>2022-04-15T14:38:43Z</time><name>PT5952</name></trkpt>
<trkpt lat="52.967934" lon="-3.260974"><ele>256</ele><time>2022-04-15T14:38:44Z</time><name>PT5953</name></trkpt>
<trkpt lat="52.967948" lon="-3.260975"><ele>256</ele><time>2022-04-15T14:38:45Z</time><name>PT5954</name></trkpt>
<trkpt lat="52.967962" lon="-3.260972"><ele>257</ele><time>2022-04-15T14:38:46Z</time><name>PT5955</name></trkpt>
<trkpt lat="52.967971" lon="-3.260976"><ele>256</ele><time>2022-04-15T14:38:47Z</time><name>PT5956</name></trkpt>
<trkpt lat="52.967983" lon="-3.260975"><ele>255</ele><time>2022-04-15T14:38:48Z</time><name>PT5957</name></trkpt>
<trkpt lat="52.967998" lon="-3.260967"><ele>256</ele><time>2022-04-15T14:38:49Z</time><name>PT5958</name></trkpt>
<trkpt lat="52.968010" lon="-3.260966"><ele>256</ele><time>2022-04-15T14:38:50Z</time><name>PT5959</name></trkpt>
<trkpt lat="52.968021" lon="-3.260966"><ele>256</ele><time>2022-04-15T14:38:51Z</time><name>PT5960</name></trkpt>
<trkpt lat="52.968032" lon="-3.260961"><ele>256</ele><time>2022-04-15T14:38:52Z</time><name>PT5961</name></trkpt>
<trkpt lat="52.968042" lon="-3.260958"><ele>256</ele><time>2022-04-15T14:38:53Z</time><name>PT5962</name></trkpt>
<trkpt lat="52.968053" lon="-3.260955"><ele>255</ele><time>2022-04-15T14:38:54Z</time><name>PT5963</name></trkpt>
<trkpt lat="52.968065" lon="-3.260950"><ele>255</ele><time>2022-04-15T14:38:55Z</time><name>PT5964</name></trkpt>
<trkpt lat="52.968077" lon="-3.260948"><ele>255</ele><time>2022-04-15T14:38:56Z</time><name>PT5965</name></trkpt>
<trkpt lat="52.968089" lon="-3.260945"><ele>256</ele><time>2022-04-15T14:38:57Z</time><name>PT5966</name></trkpt>
<trkpt lat="52.968098" lon="-3.260946"><ele>255</ele><time>2022-04-15T14:38:58Z</time><name>PT5967</name></trkpt>
<trkpt lat="52.968111" lon="-3.260943"><ele>255</ele><time>2022-04-15T14:38:59Z</time><name>PT5968</name></trkpt>
<trkpt lat="52.968124" lon="-3.260940"><ele>255</ele><time>2022-04-15T14:39:00Z</time><name>PT5969</name></trkpt>
<trkpt lat="52.968136" lon="-3.260937"><ele>255</ele><time>2022-04-15T14:39:01Z</time><name>PT5970</name></trkpt>
<trkpt lat="52.968148" lon="-3.260939"><ele>255</ele><time>2022-04-15T14:39:02Z</time><name>PT5971</name></trkpt>
<trkpt lat="52.968164" lon="-3.260933"><ele>255</ele><time>2022-04-15T14:39:03Z</time><name>PT5972</name></trkpt>
<trkpt lat="52.968176" lon="-3.260929"><ele>256</ele><time>2022-04-15T14:39:04Z</time><name>PT5973</name></trkpt>
<trkpt lat="52.968187" lon="-3.260933"><ele>255</ele><time>2022-04-15T14:39:05Z</time><name>PT5974</name></trkpt>
<trkpt lat="52.968200" lon="-3.260927"><ele>255</ele><time>2022-04-15T14:39:06Z</time><name>PT5975</name></trkpt>
<trkpt lat="52.968211" lon="-3.260922"><ele>255</ele><time>2022-04-15T14:39:07Z</time><name>PT5976</name></trkpt>
<trkpt lat="52.968224" lon="-3.260920"><ele>255</ele><time>2022-04-15T14:39:08Z</time><name>PT5977</name></trkpt>
<trkpt lat="52.968239" lon="-3.260917"><ele>255</ele><time>2022-04-15T14:39:09Z</time><name>PT5978</name></trkpt>
<trkpt lat="52.968249" lon="-3.260909"><ele>255</ele><time>2022-04-15T14:39:10Z</time><name>PT5979</name></trkpt>
<trkpt lat="52.968259" lon="-3.260904"><ele>255</ele><time>2022-04-15T14:39:11Z</time><name>PT5980</name></trkpt>
<trkpt lat="52.968272" lon="-3.260898"><ele>255</ele><time>2022-04-15T14:39:12Z</time><name>PT5981</name></trkpt>
<trkpt lat="52.968284" lon="-3.260892"><ele>255</ele><time>2022-04-15T14:39:13Z</time><name>PT5982</name></trkpt>
<trkpt lat="52.968295" lon="-3.260890"><ele>255</ele><time>2022-04-15T14:39:14Z</time><name>PT5983</name></trkpt>
<trkpt lat="52.968310" lon="-3.260889"><ele>255</ele><time>2022-04-15T14:39:15Z</time><name>PT5984</name></trkpt>
<trkpt lat="52.968324" lon="-3.260885"><ele>255</ele><time>2022-04-15T14:39:16Z</time><name>PT5985</name></trkpt>
<trkpt lat="52.968336" lon="-3.260880"><ele>255</ele><time>2022-04-15T14:39:17Z</time><name>PT5986</name></trkpt>
<trkpt lat="52.968345" lon="-3.260876"><ele>254</ele><time>2022-04-15T14:39:18Z</time><name>PT5987</name></trkpt>
<trkpt lat="52.968354" lon="-3.260873"><ele>254</ele><time>2022-04-15T14:39:19Z</time><name>PT5988</name></trkpt>
<trkpt lat="52.968363" lon="-3.260871"><ele>254</ele><time>2022-04-15T14:39:20Z</time><name>PT5989</name></trkpt>
<trkpt lat="52.968375" lon="-3.260871"><ele>254</ele><time>2022-04-15T14:39:21Z</time><name>PT5990</name></trkpt>
<trkpt lat="52.968385" lon="-3.260864"><ele>255</ele><time>2022-04-15T14:39:22Z</time><name>PT5991</name></trkpt>
<trkpt lat="52.968396" lon="-3.260863"><ele>254</ele><time>2022-04-15T14:39:23Z</time><name>PT5992</name></trkpt>
<trkpt lat="52.968408" lon="-3.260863"><ele>254</ele><time>2022-04-15T14:39:24Z</time><name>PT5993</name></trkpt>
<trkpt lat="52.968419" lon="-3.260864"><ele>254</ele><time>2022-04-15T14:39:25Z</time><name>PT5994</name></trkpt>
<trkpt lat="52.968429" lon="-3.260863"><ele>253</ele><time>2022-04-15T14:39:26Z</time><name>PT5995</name></trkpt>
<trkpt lat="52.968442" lon="-3.260863"><ele>253</ele><time>2022-04-15T14:39:27Z</time><name>PT5996</name></trkpt>
<trkpt lat="52.968455" lon="-3.260865"><ele>253</ele><time>2022-04-15T14:39:28Z</time><name>PT5997</name></trkpt>
<trkpt lat="52.968464" lon="-3.260867"><ele>252</ele><time>2022-04-15T14:39:29Z</time><name>PT5998</name></trkpt>
<trkpt lat="52.968473" lon="-3.260863"><ele>252</ele><time>2022-04-15T14:39:30Z</time><name>PT5999</name></trkpt>
<trkpt lat="52.968482" lon="-3.260861"><ele>251</ele><time>2022-04-15T14:39:31Z</time><name>PT6000</name></trkpt>
<trkpt lat="52.968493" lon="-3.260860"><ele>251</ele><time>2022-04-15T14:39:32Z</time><name>PT6001</name></trkpt>
<trkpt lat="52.968505" lon="-3.260865"><ele>251</ele><time>2022-04-15T14:39:33Z</time><name>PT6002</name></trkpt>
<trkpt lat="52.968516" lon="-3.260873"><ele>250</ele><time>2022-04-15T14:39:34Z</time><name>PT6003</name></trkpt>
<trkpt lat="52.968525" lon="-3.260880"><ele>249</ele><time>2022-04-15T14:39:35Z</time><name>PT6004</name></trkpt>
<trkpt lat="52.968530" lon="-3.260877"><ele>249</ele><time>2022-04-15T14:39:36Z</time><name>PT6005</name></trkpt>
<trkpt lat="52.968530" lon="-3.260870"><ele>249</ele><time>2022-04-15T14:39:37Z</time><name>PT6006</name></trkpt>
<trkpt lat="52.968537" lon="-3.260866"><ele>249</ele><time>2022-04-15T14:39:38Z</time><name>PT6007</name></trkpt>
<trkpt lat="52.968538" lon="-3.260865"><ele>249</ele><time>2022-04-15T14:39:39Z</time><name>PT6008</name></trkpt>
<trkpt lat="52.968545" lon="-3.260859"><ele>249</ele><time>2022-04-15T14:39:40Z</time><name>PT6009</name></trkpt>
<trkpt lat="52.968550" lon="-3.260849"><ele>250</ele><time>2022-04-15T14:39:41Z</time><name>PT6010</name></trkpt>
<trkpt lat="52.968550" lon="-3.260845"><ele>249</ele><time>2022-04-15T14:39:42Z</time><name>PT6011</name></trkpt>
<trkpt lat="52.968551" lon="-3.260842"><ele>249</ele><time>2022-04-15T14:39:43Z</time><name>PT6012</name></trkpt>
<trkpt lat="52.968552" lon="-3.260843"><ele>249</ele><time>2022-04-15T14:39:44Z</time><name>PT6013</name></trkpt>
<trkpt lat="52.968555" lon="-3.260846"><ele>248</ele><time>2022-04-15T14:39:45Z</time><name>PT6014</name></trkpt>
<trkpt lat="52.968550" lon="-3.260852"><ele>248</ele><time>2022-04-15T14:40:10Z</time><name>PT6015</name></trkpt>
<trkpt lat="52.968564" lon="-3.260830"><ele>248</ele><time>2022-04-15T14:40:13Z</time><name>PT6016</name></trkpt>
<trkpt lat="52.968592" lon="-3.260814"><ele>247</ele><time>2022-04-15T14:40:17Z</time><name>PT6017</name></trkpt>
<trkpt lat="52.968618" lon="-3.260805"><ele>246</ele><time>2022-04-15T14:40:20Z</time><name>PT6018</name></trkpt>
<trkpt lat="52.968652" lon="-3.260792"><ele>245</ele><time>2022-04-15T14:40:24Z</time><name>PT6019</name></trkpt>
<trkpt lat="52.968701" lon="-3.260781"><ele>245</ele><time>2022-04-15T14:40:28Z</time><name>PT6020</name></trkpt>
<trkpt lat="52.968735" lon="-3.260782"><ele>245</ele><time>2022-04-15T14:40:31Z</time><name>PT6021</name></trkpt>
<trkpt lat="52.968761" lon="-3.260777"><ele>244</ele><time>2022-04-15T14:40:34Z</time><name>PT6022</name></trkpt>
<trkpt lat="52.968806" lon="-3.260769"><ele>244</ele><time>2022-04-15T14:40:38Z</time><name>PT6023</name></trkpt>
<trkpt lat="52.968852" lon="-3.260752"><ele>244</ele><time>2022-04-15T14:40:42Z</time><name>PT6024</name></trkpt>
<trkpt lat="52.968902" lon="-3.260744"><ele>245</ele><time>2022-04-15T14:40:46Z</time><name>PT6025</name></trkpt>
<trkpt lat="52.968935" lon="-3.260736"><ele>246</ele><time>2022-04-15T14:40:49Z</time><name>PT6026</name></trkpt>
<trkpt lat="52.968980" lon="-3.260725"><ele>245</ele><time>2022-04-15T14:40:53Z</time><name>PT6027</name></trkpt>
<trkpt lat="52.969015" lon="-3.260721"><ele>246</ele><time>2022-04-15T14:40:56Z</time><name>PT6028</name></trkpt>
<trkpt lat="52.969058" lon="-3.260718"><ele>244</ele><time>2022-04-15T14:41:00Z</time><name>PT6029</name></trkpt>
<trkpt lat="52.969104" lon="-3.260715"><ele>244</ele><time>2022-04-15T14:41:04Z</time><name>PT6030</name></trkpt>
<trkpt lat="52.969148" lon="-3.260693"><ele>245</ele><time>2022-04-15T14:41:08Z</time><name>PT6031</name></trkpt>
<trkpt lat="52.969179" lon="-3.260664"><ele>246</ele><time>2022-04-15T14:41:11Z</time><name>PT6032</name></trkpt>
<trkpt lat="52.969210" lon="-3.260646"><ele>247</ele><time>2022-04-15T14:41:14Z</time><name>PT6033</name></trkpt>
<trkpt lat="52.969246" lon="-3.260627"><ele>248</ele><time>2022-04-15T14:41:17Z</time><name>PT6034</name></trkpt>
<trkpt lat="52.969298" lon="-3.260595"><ele>249</ele><time>2022-04-15T14:41:21Z</time><name>PT6035</name></trkpt>
<trkpt lat="52.969336" lon="-3.260577"><ele>248</ele><time>2022-04-15T14:41:25Z</time><name>PT6036</name></trkpt>
<trkpt lat="52.969368" lon="-3.260556"><ele>248</ele><time>2022-04-15T14:41:28Z</time><name>PT6037</name></trkpt>
<trkpt lat="52.969412" lon="-3.260524"><ele>248</ele><time>2022-04-15T14:41:32Z</time><name>PT6038</name></trkpt>
<trkpt lat="52.969444" lon="-3.260495"><ele>248</ele><time>2022-04-15T14:41:35Z</time><name>PT6039</name></trkpt>
<trkpt lat="52.969472" lon="-3.260467"><ele>248</ele><time>2022-04-15T14:41:38Z</time><name>PT6040</name></trkpt>
<trkpt lat="52.969502" lon="-3.260455"><ele>248</ele><time>2022-04-15T14:41:41Z</time><name>PT6041</name></trkpt>
<trkpt lat="52.969540" lon="-3.260423"><ele>247</ele><time>2022-04-15T14:41:45Z</time><name>PT6042</name></trkpt>
<trkpt lat="52.969577" lon="-3.260407"><ele>247</ele><time>2022-04-15T14:41:49Z</time><name>PT6043</name></trkpt>
<trkpt lat="52.969600" lon="-3.260393"><ele>247</ele><time>2022-04-15T14:41:52Z</time><name>PT6044</name></trkpt>
<trkpt lat="52.969627" lon="-3.260375"><ele>246</ele><time>2022-04-15T14:41:55Z</time><name>PT6045</name></trkpt>
<trkpt lat="52.969658" lon="-3.260362"><ele>245</ele><time>2022-04-15T14:41:59Z</time><name>PT6046</name></trkpt>
<trkpt lat="52.969696" lon="-3.260347"><ele>245</ele><time>2022-04-15T14:42:03Z</time><name>PT6047</name></trkpt>
<trkpt lat="52.969734" lon="-3.260327"><ele>243</ele><time>2022-04-15T14:42:07Z</time><name>PT6048</name></trkpt>
<trkpt lat="52.969754" lon="-3.260301"><ele>241</ele><time>2022-04-15T14:42:11Z</time><name>PT6049</name></trkpt>
<trkpt lat="52.969762" lon="-3.260285"><ele>240</ele><time>2022-04-15T14:42:12Z</time><name>PT6050</name></trkpt>
<trkpt lat="52.969770" lon="-3.260269"><ele>241</ele><time>2022-04-15T14:42:13Z</time><name>PT6051</name></trkpt>
<trkpt lat="52.969769" lon="-3.260256"><ele>240</ele><time>2022-04-15T14:42:14Z</time><name>PT6052</name></trkpt>
<trkpt lat="52.969771" lon="-3.260235"><ele>240</ele><time>2022-04-15T14:42:15Z</time><name>PT6053</name></trkpt>
<trkpt lat="52.969771" lon="-3.260219"><ele>240</ele><time>2022-04-15T14:42:16Z</time><name>PT6054</name></trkpt>
<trkpt lat="52.969778" lon="-3.260209"><ele>240</ele><time>2022-04-15T14:42:17Z</time><name>PT6055</name></trkpt>
<trkpt lat="52.969786" lon="-3.260203"><ele>240</ele><time>2022-04-15T14:42:18Z</time><name>PT6056</name></trkpt>
<trkpt lat="52.969786" lon="-3.260193"><ele>240</ele><time>2022-04-15T14:42:19Z</time><name>PT6057</name></trkpt>
<trkpt lat="52.969787" lon="-3.260188"><ele>240</ele><time>2022-04-15T14:42:20Z</time><name>PT6058</name></trkpt>
<trkpt lat="52.969787" lon="-3.260187"><ele>240</ele><time>2022-04-15T14:42:21Z</time><name>PT6059</name></trkpt>
<trkpt lat="52.969788" lon="-3.260186"><ele>240</ele><time>2022-04-15T14:42:22Z</time><name>PT6060</name></trkpt>
<trkpt lat="52.969789" lon="-3.260185"><ele>240</ele><time>2022-04-15T14:42:23Z</time><name>PT6061</name></trkpt>
<trkpt lat="52.969789" lon="-3.260179"><ele>241</ele><time>2022-04-15T14:42:33Z</time><name>PT6062</name></trkpt>
<trkpt lat="52.969778" lon="-3.260172"><ele>241</ele><time>2022-04-15T14:42:34Z</time><name>PT6063</name></trkpt>
<trkpt lat="52.969774" lon="-3.260158"><ele>241</ele><time>2022-04-15T14:42:35Z</time><name>PT6064</name></trkpt>
<trkpt lat="52.969775" lon="-3.260139"><ele>241</ele><time>2022-04-15T14:42:37Z</time><name>PT6065</name></trkpt>
<trkpt lat="52.969776" lon="-3.260127"><ele>241</ele><time>2022-04-15T14:42:38Z</time><name>PT6066</name></trkpt>
<trkpt lat="52.969777" lon="-3.260103"><ele>241</ele><time>2022-04-15T14:42:39Z</time><name>PT6067</name></trkpt>
<trkpt lat="52.969770" lon="-3.260091"><ele>241</ele><time>2022-04-15T14:42:40Z</time><name>PT6068</name></trkpt>
<trkpt lat="52.969768" lon="-3.260072"><ele>240</ele><time>2022-04-15T14:42:41Z</time><name>PT6069</name></trkpt>
<trkpt lat="52.969769" lon="-3.260057"><ele>240</ele><time>2022-04-15T14:42:42Z</time><name>PT6070</name></trkpt>
<trkpt lat="52.969770" lon="-3.260037"><ele>240</ele><time>2022-04-15T14:42:43Z</time><name>PT6071</name></trkpt>
<trkpt lat="52.969771" lon="-3.260018"><ele>240</ele><time>2022-04-15T14:42:44Z</time><name>PT6072</name></trkpt>
<trkpt lat="52.969770" lon="-3.259998"><ele>241</ele><time>2022-04-15T14:42:45Z</time><name>PT6073</name></trkpt>
<trkpt lat="52.969771" lon="-3.259985"><ele>240</ele><time>2022-04-15T14:42:46Z</time><name>PT6074</name></trkpt>
<trkpt lat="52.969776" lon="-3.259983"><ele>240</ele><time>2022-04-15T14:42:47Z</time><name>PT6075</name></trkpt>
<trkpt lat="52.969780" lon="-3.259973"><ele>240</ele><time>2022-04-15T14:42:48Z</time><name>PT6076</name></trkpt>
<trkpt lat="52.969781" lon="-3.259960"><ele>240</ele><time>2022-04-15T14:42:49Z</time><name>PT6077</name></trkpt>
<trkpt lat="52.969781" lon="-3.259951"><ele>240</ele><time>2022-04-15T14:42:50Z</time><name>PT6078</name></trkpt>
<trkpt lat="52.969783" lon="-3.259950"><ele>240</ele><time>2022-04-15T14:42:51Z</time><name>PT6079</name></trkpt>
<trkpt lat="52.969783" lon="-3.259960"><ele>240</ele><time>2022-04-15T14:42:52Z</time><name>PT6080</name></trkpt>
<trkpt lat="52.969784" lon="-3.259964"><ele>239</ele><time>2022-04-15T14:42:53Z</time><name>PT6081</name></trkpt>
<trkpt lat="52.969784" lon="-3.259963"><ele>239</ele><time>2022-04-15T14:42:54Z</time><name>PT6082</name></trkpt>
<trkpt lat="52.969785" lon="-3.259972"><ele>239</ele><time>2022-04-15T14:42:57Z</time><name>PT6083</name></trkpt>
<trkpt lat="52.969783" lon="-3.259969"><ele>239</ele><time>2022-04-15T14:42:58Z</time><name>PT6084</name></trkpt>
<trkpt lat="52.969782" lon="-3.259967"><ele>239</ele><time>2022-04-15T14:42:59Z</time><name>PT6085</name></trkpt>
<trkpt lat="52.969785" lon="-3.259965"><ele>239</ele><time>2022-04-15T14:43:00Z</time><name>PT6086</name></trkpt>
<trkpt lat="52.969783" lon="-3.259962"><ele>239</ele><time>2022-04-15T14:43:06Z</time><name>PT6087</name></trkpt>
<trkpt lat="52.969789" lon="-3.259956"><ele>239</ele><time>2022-04-15T14:43:07Z</time><name>PT6088</name></trkpt>
<trkpt lat="52.969794" lon="-3.259940"><ele>239</ele><time>2022-04-15T14:43:08Z</time><name>PT6089</name></trkpt>
<trkpt lat="52.969801" lon="-3.259925"><ele>239</ele><time>2022-04-15T14:43:09Z</time><name>PT6090</name></trkpt>
<trkpt lat="52.969811" lon="-3.259916"><ele>238</ele><time>2022-04-15T14:43:10Z</time><name>PT6091</name></trkpt>
<trkpt lat="52.969819" lon="-3.259912"><ele>237</ele><time>2022-04-15T14:43:11Z</time><name>PT6092</name></trkpt>
<trkpt lat="52.969828" lon="-3.259906"><ele>236</ele><time>2022-04-15T14:43:12Z</time><name>PT6093</name></trkpt>
<trkpt lat="52.969836" lon="-3.259893"><ele>236</ele><time>2022-04-15T14:43:13Z</time><name>PT6094</name></trkpt>
<trkpt lat="52.969841" lon="-3.259883"><ele>236</ele><time>2022-04-15T14:43:14Z</time><name>PT6095</name></trkpt>
<trkpt lat="52.969849" lon="-3.259872"><ele>235</ele><time>2022-04-15T14:43:15Z</time><name>PT6096</name></trkpt>
<trkpt lat="52.969854" lon="-3.259863"><ele>235</ele><time>2022-04-15T14:43:16Z</time><name>PT6097</name></trkpt>
<trkpt lat="52.969858" lon="-3.259858"><ele>234</ele><time>2022-04-15T14:43:17Z</time><name>PT6098</name></trkpt>
<trkpt lat="52.969863" lon="-3.259849"><ele>234</ele><time>2022-04-15T14:43:18Z</time><name>PT6099</name></trkpt>
<trkpt lat="52.969869" lon="-3.259841"><ele>234</ele><time>2022-04-15T14:43:19Z</time><name>PT6100</name></trkpt>
<trkpt lat="52.969876" lon="-3.259831"><ele>233</ele><time>2022-04-15T14:43:20Z</time><name>PT6101</name></trkpt>
<trkpt lat="52.969882" lon="-3.259831"><ele>232</ele><time>2022-04-15T14:43:21Z</time><name>PT6102</name></trkpt>
<trkpt lat="52.969890" lon="-3.259829"><ele>232</ele><time>2022-04-15T14:43:22Z</time><name>PT6103</name></trkpt>
<trkpt lat="52.969897" lon="-3.259827"><ele>231</ele><time>2022-04-15T14:43:23Z</time><name>PT6104</name></trkpt>
<trkpt lat="52.969900" lon="-3.259823"><ele>230</ele><time>2022-04-15T14:43:24Z</time><name>PT6105</name></trkpt>
<trkpt lat="52.969905" lon="-3.259819"><ele>229</ele><time>2022-04-15T14:43:25Z</time><name>PT6106</name></trkpt>
<trkpt lat="52.969911" lon="-3.259808"><ele>229</ele><time>2022-04-15T14:43:26Z</time><name>PT6107</name></trkpt>
<trkpt lat="52.969920" lon="-3.259802"><ele>228</ele><time>2022-04-15T14:43:27Z</time><name>PT6108</name></trkpt>
<trkpt lat="52.969928" lon="-3.259803"><ele>227</ele><time>2022-04-15T14:43:28Z</time><name>PT6109</name></trkpt>
<trkpt lat="52.969936" lon="-3.259805"><ele>227</ele><time>2022-04-15T14:43:29Z</time><name>PT6110</name></trkpt>
<trkpt lat="52.969945" lon="-3.259802"><ele>227</ele><time>2022-04-15T14:43:30Z</time><name>PT6111</name></trkpt>
<trkpt lat="52.969948" lon="-3.259807"><ele>226</ele><time>2022-04-15T14:43:31Z</time><name>PT6112</name></trkpt>
<trkpt lat="52.969954" lon="-3.259807"><ele>225</ele><time>2022-04-15T14:43:32Z</time><name>PT6113</name></trkpt>
<trkpt lat="52.969958" lon="-3.259809"><ele>224</ele><time>2022-04-15T14:43:33Z</time><name>PT6114</name></trkpt>
<trkpt lat="52.969967" lon="-3.259807"><ele>224</ele><time>2022-04-15T14:43:34Z</time><name>PT6115</name></trkpt>
<trkpt lat="52.969975" lon="-3.259806"><ele>223</ele><time>2022-04-15T14:43:35Z</time><name>PT6116</name></trkpt>
<trkpt lat="52.969984" lon="-3.259804"><ele>223</ele><time>2022-04-15T14:43:36Z</time><name>PT6117</name></trkpt>
<trkpt lat="52.969991" lon="-3.259804"><ele>223</ele><time>2022-04-15T14:43:37Z</time><name>PT6118</name></trkpt>
<trkpt lat="52.969996" lon="-3.259802"><ele>223</ele><time>2022-04-15T14:43:38Z</time><name>PT6119</name></trkpt>
<trkpt lat="52.970002" lon="-3.259802"><ele>222</ele><time>2022-04-15T14:43:39Z</time><name>PT6120</name></trkpt>
<trkpt lat="52.970008" lon="-3.259806"><ele>221</ele><time>2022-04-15T14:43:40Z</time><name>PT6121</name></trkpt>
<trkpt lat="52.970015" lon="-3.259805"><ele>221</ele><time>2022-04-15T14:43:41Z</time><name>PT6122</name></trkpt>
<trkpt lat="52.970021" lon="-3.259804"><ele>221</ele><time>2022-04-15T14:43:42Z</time><name>PT6123</name></trkpt>
<trkpt lat="52.970029" lon="-3.259801"><ele>221</ele><time>2022-04-15T14:43:43Z</time><name>PT6124</name></trkpt>
<trkpt lat="52.970041" lon="-3.259787"><ele>222</ele><time>2022-04-15T14:43:44Z</time><name>PT6125</name></trkpt>
<trkpt lat="52.970050" lon="-3.259788"><ele>222</ele><time>2022-04-15T14:43:45Z</time><name>PT6126</name></trkpt>
<trkpt lat="52.970060" lon="-3.259787"><ele>222</ele><time>2022-04-15T14:43:46Z</time><name>PT6127</name></trkpt>
<trkpt lat="52.970070" lon="-3.259786"><ele>222</ele><time>2022-04-15T14:43:47Z</time><name>PT6128</name></trkpt>
<trkpt lat="52.970081" lon="-3.259785"><ele>222</ele><time>2022-04-15T14:43:48Z</time><name>PT6129</name></trkpt>
<trkpt lat="52.970091" lon="-3.259782"><ele>221</ele><time>2022-04-15T14:43:49Z</time><name>PT6130</name></trkpt>
<trkpt lat="52.970103" lon="-3.259774"><ele>222</ele><time>2022-04-15T14:43:50Z</time><name>PT6131</name></trkpt>
<trkpt lat="52.970112" lon="-3.259773"><ele>222</ele><time>2022-04-15T14:43:51Z</time><name>PT6132</name></trkpt>
<trkpt lat="52.970120" lon="-3.259774"><ele>221</ele><time>2022-04-15T14:43:52Z</time><name>PT6133</name></trkpt>
<trkpt lat="52.970128" lon="-3.259772"><ele>221</ele><time>2022-04-15T14:43:53Z</time><name>PT6134</name></trkpt>
<trkpt lat="52.970136" lon="-3.259774"><ele>221</ele><time>2022-04-15T14:43:54Z</time><name>PT6135</name></trkpt>
<trkpt lat="52.970145" lon="-3.259771"><ele>221</ele><time>2022-04-15T14:43:55Z</time><name>PT6136</name></trkpt>
<trkpt lat="52.970153" lon="-3.259769"><ele>220</ele><time>2022-04-15T14:43:56Z</time><name>PT6137</name></trkpt>
<trkpt lat="52.970160" lon="-3.259767"><ele>219</ele><time>2022-04-15T14:43:57Z</time><name>PT6138</name></trkpt>
<trkpt lat="52.970169" lon="-3.259763"><ele>219</ele><time>2022-04-15T14:43:58Z</time><name>PT6139</name></trkpt>
<trkpt lat="52.970174" lon="-3.259765"><ele>218</ele><time>2022-04-15T14:43:59Z</time><name>PT6140</name></trkpt>
<trkpt lat="52.970180" lon="-3.259762"><ele>217</ele><time>2022-04-15T14:44:00Z</time><name>PT6141</name></trkpt>
<trkpt lat="52.970188" lon="-3.259759"><ele>217</ele><time>2022-04-15T14:44:01Z</time><name>PT6142</name></trkpt>
<trkpt lat="52.970198" lon="-3.259754"><ele>217</ele><time>2022-04-15T14:44:02Z</time><name>PT6143</name></trkpt>
<trkpt lat="52.970208" lon="-3.259747"><ele>217</ele><time>2022-04-15T14:44:03Z</time><name>PT6144</name></trkpt>
<trkpt lat="52.970215" lon="-3.259746"><ele>216</ele><time>2022-04-15T14:44:04Z</time><name>PT6145</name></trkpt>
<trkpt lat="52.970227" lon="-3.259743"><ele>216</ele><time>2022-04-15T14:44:05Z</time><name>PT6146</name></trkpt>
<trkpt lat="52.970234" lon="-3.259734"><ele>216</ele><time>2022-04-15T14:44:06Z</time><name>PT6147</name></trkpt>
<trkpt lat="52.970243" lon="-3.259724"><ele>216</ele><time>2022-04-15T14:44:07Z</time><name>PT6148</name></trkpt>
<trkpt lat="52.970252" lon="-3.259719"><ele>216</ele><time>2022-04-15T14:44:08Z</time><name>PT6149</name></trkpt>
<trkpt lat="52.970260" lon="-3.259713"><ele>215</ele><time>2022-04-15T14:44:09Z</time><name>PT6150</name></trkpt>
<trkpt lat="52.970271" lon="-3.259709"><ele>215</ele><time>2022-04-15T14:44:10Z</time><name>PT6151</name></trkpt>
<trkpt lat="52.970314" lon="-3.259679"><ele>217</ele><time>2022-04-15T14:44:14Z</time><name>PT6152</name></trkpt>
<trkpt lat="52.970325" lon="-3.259655"><ele>218</ele><time>2022-04-15T14:44:15Z</time><name>PT6153</name></trkpt>
<trkpt lat="52.970340" lon="-3.259636"><ele>218</ele><time>2022-04-15T14:44:16Z</time><name>PT6154</name></trkpt>
<trkpt lat="52.970355" lon="-3.259608"><ele>219</ele><time>2022-04-15T14:44:17Z</time><name>PT6155</name></trkpt>
<trkpt lat="52.970370" lon="-3.259592"><ele>220</ele><time>2022-04-15T14:44:18Z</time><name>PT6156</name></trkpt>
<trkpt lat="52.970386" lon="-3.259575"><ele>221</ele><time>2022-04-15T14:44:19Z</time><name>PT6157</name></trkpt>
<trkpt lat="52.970396" lon="-3.259567"><ele>221</ele><time>2022-04-15T14:44:20Z</time><name>PT6158</name></trkpt>
<trkpt lat="52.970409" lon="-3.259556"><ele>221</ele><time>2022-04-15T14:44:21Z</time><name>PT6159</name></trkpt>
<trkpt lat="52.970419" lon="-3.259543"><ele>221</ele><time>2022-04-15T14:44:22Z</time><name>PT6160</name></trkpt>
<trkpt lat="52.970429" lon="-3.259533"><ele>221</ele><time>2022-04-15T14:44:23Z</time><name>PT6161</name></trkpt>
<trkpt lat="52.970437" lon="-3.259523"><ele>221</ele><time>2022-04-15T14:44:24Z</time><name>PT6162</name></trkpt>
<trkpt lat="52.970448" lon="-3.259511"><ele>221</ele><time>2022-04-15T14:44:25Z</time><name>PT6163</name></trkpt>
<trkpt lat="52.970457" lon="-3.259501"><ele>220</ele><time>2022-04-15T14:44:26Z</time><name>PT6164</name></trkpt>
<trkpt lat="52.970465" lon="-3.259490"><ele>220</ele><time>2022-04-15T14:44:27Z</time><name>PT6165</name></trkpt>
<trkpt lat="52.970470" lon="-3.259482"><ele>220</ele><time>2022-04-15T14:44:28Z</time><name>PT6166</name></trkpt>
<trkpt lat="52.970482" lon="-3.259485"><ele>219</ele><time>2022-04-15T14:44:29Z</time><name>PT6167</name></trkpt>
<trkpt lat="52.970493" lon="-3.259470"><ele>219</ele><time>2022-04-15T14:44:30Z</time><name>PT6168</name></trkpt>
<trkpt lat="52.970502" lon="-3.259460"><ele>219</ele><time>2022-04-15T14:44:31Z</time><name>PT6169</name></trkpt>
<trkpt lat="52.970509" lon="-3.259446"><ele>219</ele><time>2022-04-15T14:44:32Z</time><name>PT6170</name></trkpt>
<trkpt lat="52.970517" lon="-3.259431"><ele>218</ele><time>2022-04-15T14:44:33Z</time><name>PT6171</name></trkpt>
<trkpt lat="52.970522" lon="-3.259417"><ele>218</ele><time>2022-04-15T14:44:34Z</time><name>PT6172</name></trkpt>
<trkpt lat="52.970526" lon="-3.259405"><ele>219</ele><time>2022-04-15T14:44:35Z</time><name>PT6173</name></trkpt>
<trkpt lat="52.970528" lon="-3.259388"><ele>219</ele><time>2022-04-15T14:44:36Z</time><name>PT6174</name></trkpt>
<trkpt lat="52.970527" lon="-3.259379"><ele>218</ele><time>2022-04-15T14:44:37Z</time><name>PT6175</name></trkpt>
<trkpt lat="52.970528" lon="-3.259372"><ele>217</ele><time>2022-04-15T14:44:38Z</time><name>PT6176</name></trkpt>
<trkpt lat="52.970528" lon="-3.259363"><ele>216</ele><time>2022-04-15T14:44:39Z</time><name>PT6177</name></trkpt>
<trkpt lat="52.970528" lon="-3.259357"><ele>216</ele><time>2022-04-15T14:44:40Z</time><name>PT6178</name></trkpt>
<trkpt lat="52.970525" lon="-3.259348"><ele>216</ele><time>2022-04-15T14:44:41Z</time><name>PT6179</name></trkpt>
<trkpt lat="52.970524" lon="-3.259337"><ele>215</ele><time>2022-04-15T14:44:42Z</time><name>PT6180</name></trkpt>
<trkpt lat="52.970520" lon="-3.259323"><ele>215</ele><time>2022-04-15T14:44:43Z</time><name>PT6181</name></trkpt>
<trkpt lat="52.970517" lon="-3.259311"><ele>214</ele><time>2022-04-15T14:44:44Z</time><name>PT6182</name></trkpt>
<trkpt lat="52.970518" lon="-3.259294"><ele>214</ele><time>2022-04-15T14:44:45Z</time><name>PT6183</name></trkpt>
<trkpt lat="52.970520" lon="-3.259276"><ele>214</ele><time>2022-04-15T14:44:46Z</time><name>PT6184</name></trkpt>
<trkpt lat="52.970522" lon="-3.259264"><ele>213</ele><time>2022-04-15T14:44:47Z</time><name>PT6185</name></trkpt>
<trkpt lat="52.970523" lon="-3.259251"><ele>213</ele><time>2022-04-15T14:44:48Z</time><name>PT6186</name></trkpt>
<trkpt lat="52.970523" lon="-3.259237"><ele>213</ele><time>2022-04-15T14:44:49Z</time><name>PT6187</name></trkpt>
<trkpt lat="52.970524" lon="-3.259226"><ele>212</ele><time>2022-04-15T14:44:50Z</time><name>PT6188</name></trkpt>
<trkpt lat="52.970525" lon="-3.259218"><ele>212</ele><time>2022-04-15T14:44:51Z</time><name>PT6189</name></trkpt>
<trkpt lat="52.970526" lon="-3.259198"><ele>212</ele><time>2022-04-15T14:44:52Z</time><name>PT6190</name></trkpt>
<trkpt lat="52.970529" lon="-3.259179"><ele>212</ele><time>2022-04-15T14:44:53Z</time><name>PT6191</name></trkpt>
<trkpt lat="52.970530" lon="-3.259165"><ele>212</ele><time>2022-04-15T14:44:54Z</time><name>PT6192</name></trkpt>
<trkpt lat="52.970528" lon="-3.259153"><ele>212</ele><time>2022-04-15T14:44:55Z</time><name>PT6193</name></trkpt>
<trkpt lat="52.970530" lon="-3.259142"><ele>212</ele><time>2022-04-15T14:44:56Z</time><name>PT6194</name></trkpt>
<trkpt lat="52.970529" lon="-3.259116"><ele>213</ele><time>2022-04-15T14:44:57Z</time><name>PT6195</name></trkpt>
<trkpt lat="52.970529" lon="-3.259081"><ele>213</ele><time>2022-04-15T14:44:58Z</time><name>PT6196</name></trkpt>
<trkpt lat="52.970530" lon="-3.259035"><ele>213</ele><time>2022-04-15T14:44:59Z</time><name>PT6197</name></trkpt>
<trkpt lat="52.970531" lon="-3.259006"><ele>213</ele><time>2022-04-15T14:45:00Z</time><name>PT6198</name></trkpt>
<trkpt lat="52.970535" lon="-3.258990"><ele>212</ele><time>2022-04-15T14:45:01Z</time><name>PT6199</name></trkpt>
<trkpt lat="52.970538" lon="-3.258963"><ele>212</ele><time>2022-04-15T14:45:02Z</time><name>PT6200</name></trkpt>
<trkpt lat="52.970543" lon="-3.258943"><ele>212</ele><time>2022-04-15T14:45:03Z</time><name>PT6201</name></trkpt>
<trkpt lat="52.970547" lon="-3.258926"><ele>212</ele><time>2022-04-15T14:45:04Z</time><name>PT6202</name></trkpt>
<trkpt lat="52.970549" lon="-3.258913"><ele>212</ele><time>2022-04-15T14:45:05Z</time><name>PT6203</name></trkpt>
<trkpt lat="52.970552" lon="-3.258902"><ele>211</ele><time>2022-04-15T14:45:06Z</time><name>PT6204</name></trkpt>
<trkpt lat="52.970556" lon="-3.258896"><ele>211</ele><time>2022-04-15T14:45:07Z</time><name>PT6205</name></trkpt>
<trkpt lat="52.970557" lon="-3.258883"><ele>211</ele><time>2022-04-15T14:45:08Z</time><name>PT6206</name></trkpt>
<trkpt lat="52.970558" lon="-3.258872"><ele>212</ele><time>2022-04-15T14:45:09Z</time><name>PT6207</name></trkpt>
<trkpt lat="52.970558" lon="-3.258859"><ele>211</ele><time>2022-04-15T14:45:10Z</time><name>PT6208</name></trkpt>
<trkpt lat="52.970563" lon="-3.258839"><ele>212</ele><time>2022-04-15T14:45:11Z</time><name>PT6209</name></trkpt>
<trkpt lat="52.970566" lon="-3.258818"><ele>212</ele><time>2022-04-15T14:45:12Z</time><name>PT6210</name></trkpt>
<trkpt lat="52.970571" lon="-3.258800"><ele>212</ele><time>2022-04-15T14:45:13Z</time><name>PT6211</name></trkpt>
<trkpt lat="52.970574" lon="-3.258784"><ele>212</ele><time>2022-04-15T14:45:14Z</time><name>PT6212</name></trkpt>
<trkpt lat="52.970582" lon="-3.258763"><ele>214</ele><time>2022-04-15T14:45:15Z</time><name>PT6213</name></trkpt>
<trkpt lat="52.970587" lon="-3.258746"><ele>214</ele><time>2022-04-15T14:45:16Z</time><name>PT6214</name></trkpt>
<trkpt lat="52.970589" lon="-3.258729"><ele>214</ele><time>2022-04-15T14:45:17Z</time><name>PT6215</name></trkpt>
<trkpt lat="52.970589" lon="-3.258712"><ele>214</ele><time>2022-04-15T14:45:18Z</time><name>PT6216</name></trkpt>
<trkpt lat="52.970589" lon="-3.258695"><ele>214</ele><time>2022-04-15T14:45:19Z</time><name>PT6217</name></trkpt>
<trkpt lat="52.970588" lon="-3.258674"><ele>214</ele><time>2022-04-15T14:45:20Z</time><name>PT6218</name></trkpt>
<trkpt lat="52.970590" lon="-3.258650"><ele>214</ele><time>2022-04-15T14:45:21Z</time><name>PT6219</name></trkpt>
<trkpt lat="52.970593" lon="-3.258631"><ele>214</ele><time>2022-04-15T14:45:22Z</time><name>PT6220</name></trkpt>
<trkpt lat="52.970595" lon="-3.258613"><ele>214</ele><time>2022-04-15T14:45:23Z</time><name>PT6221</name></trkpt>
<trkpt lat="52.970598" lon="-3.258596"><ele>214</ele><time>2022-04-15T14:45:24Z</time><name>PT6222</name></trkpt>
<trkpt lat="52.970601" lon="-3.258576"><ele>214</ele><time>2022-04-15T14:45:25Z</time><name>PT6223</name></trkpt>
<trkpt lat="52.970604" lon="-3.258555"><ele>213</ele><time>2022-04-15T14:45:26Z</time><name>PT6224</name></trkpt>
<trkpt lat="52.970608" lon="-3.258540"><ele>212</ele><time>2022-04-15T14:45:27Z</time><name>PT6225</name></trkpt>
<trkpt lat="52.970611" lon="-3.258524"><ele>211</ele><time>2022-04-15T14:45:28Z</time><name>PT6226</name></trkpt>
<trkpt lat="52.970615" lon="-3.258506"><ele>211</ele><time>2022-04-15T14:45:29Z</time><name>PT6227</name></trkpt>
<trkpt lat="52.970618" lon="-3.258493"><ele>210</ele><time>2022-04-15T14:45:30Z</time><name>PT6228</name></trkpt>
<trkpt lat="52.970621" lon="-3.258479"><ele>210</ele><time>2022-04-15T14:45:31Z</time><name>PT6229</name></trkpt>
<trkpt lat="52.970624" lon="-3.258465"><ele>210</ele><time>2022-04-15T14:45:32Z</time><name>PT6230</name></trkpt>
<trkpt lat="52.970628" lon="-3.258450"><ele>210</ele><time>2022-04-15T14:45:33Z</time><name>PT6231</name></trkpt>
<trkpt lat="52.970631" lon="-3.258442"><ele>208</ele><time>2022-04-15T14:45:34Z</time><name>PT6232</name></trkpt>
<trkpt lat="52.970630" lon="-3.258427"><ele>208</ele><time>2022-04-15T14:45:35Z</time><name>PT6233</name></trkpt>
<trkpt lat="52.970631" lon="-3.258413"><ele>208</ele><time>2022-04-15T14:45:36Z</time><name>PT6234</name></trkpt>
<trkpt lat="52.970634" lon="-3.258399"><ele>208</ele><time>2022-04-15T14:45:37Z</time><name>PT6235</name></trkpt>
<trkpt lat="52.970638" lon="-3.258375"><ele>208</ele><time>2022-04-15T14:45:38Z</time><name>PT6236</name></trkpt>
<trkpt lat="52.970643" lon="-3.258363"><ele>208</ele><time>2022-04-15T14:45:39Z</time><name>PT6237</name></trkpt>
<trkpt lat="52.970647" lon="-3.258344"><ele>208</ele><time>2022-04-15T14:45:40Z</time><name>PT6238</name></trkpt>
<trkpt lat="52.970651" lon="-3.258321"><ele>208</ele><time>2022-04-15T14:45:41Z</time><name>PT6239</name></trkpt>
<trkpt lat="52.970655" lon="-3.258303"><ele>208</ele><time>2022-04-15T14:45:42Z</time><name>PT6240</name></trkpt>
<trkpt lat="52.970657" lon="-3.258285"><ele>208</ele><time>2022-04-15T14:45:43Z</time><name>PT6241</name></trkpt>
<trkpt lat="52.970661" lon="-3.258267"><ele>208</ele><time>2022-04-15T14:45:44Z</time><name>PT6242</name></trkpt>
<trkpt lat="52.970665" lon="-3.258247"><ele>209</ele><time>2022-04-15T14:45:45Z</time><name>PT6243</name></trkpt>
<trkpt lat="52.970669" lon="-3.258232"><ele>209</ele><time>2022-04-15T14:45:46Z</time><name>PT6244</name></trkpt>
<trkpt lat="52.970673" lon="-3.258217"><ele>209</ele><time>2022-04-15T14:45:47Z</time><name>PT6245</name></trkpt>
<trkpt lat="52.970679" lon="-3.258195"><ele>209</ele><time>2022-04-15T14:45:48Z</time><name>PT6246</name></trkpt>
<trkpt lat="52.970682" lon="-3.258177"><ele>209</ele><time>2022-04-15T14:45:49Z</time><name>PT6247</name></trkpt>
<trkpt lat="52.970685" lon="-3.258162"><ele>209</ele><time>2022-04-15T14:45:50Z</time><name>PT6248</name></trkpt>
<trkpt lat="52.970686" lon="-3.258143"><ele>209</ele><time>2022-04-15T14:45:51Z</time><name>PT6249</name></trkpt>
<trkpt lat="52.970690" lon="-3.258124"><ele>209</ele><time>2022-04-15T14:45:52Z</time><name>PT6250</name></trkpt>
<trkpt lat="52.970695" lon="-3.258107"><ele>208</ele><time>2022-04-15T14:45:53Z</time><name>PT6251</name></trkpt>
<trkpt lat="52.970701" lon="-3.258092"><ele>208</ele><time>2022-04-15T14:45:54Z</time><name>PT6252</name></trkpt>
<trkpt lat="52.970708" lon="-3.258075"><ele>209</ele><time>2022-04-15T14:45:55Z</time><name>PT6253</name></trkpt>
<trkpt lat="52.970714" lon="-3.258064"><ele>208</ele><time>2022-04-15T14:45:56Z</time><name>PT6254</name></trkpt>
<trkpt lat="52.970719" lon="-3.258047"><ele>208</ele><time>2022-04-15T14:45:57Z</time><name>PT6255</name></trkpt>
<trkpt lat="52.970721" lon="-3.258027"><ele>208</ele><time>2022-04-15T14:45:58Z</time><name>PT6256</name></trkpt>
<trkpt lat="52.970720" lon="-3.258013"><ele>208</ele><time>2022-04-15T14:45:59Z</time><name>PT6257</name></trkpt>
<trkpt lat="52.970729" lon="-3.257993"><ele>208</ele><time>2022-04-15T14:46:00Z</time><name>PT6258</name></trkpt>
<trkpt lat="52.970736" lon="-3.257976"><ele>208</ele><time>2022-04-15T14:46:01Z</time><name>PT6259</name></trkpt>
<trkpt lat="52.970741" lon="-3.257961"><ele>208</ele><time>2022-04-15T14:46:02Z</time><name>PT6260</name></trkpt>
<trkpt lat="52.970747" lon="-3.257948"><ele>208</ele><time>2022-04-15T14:46:03Z</time><name>PT6261</name></trkpt>
<trkpt lat="52.970749" lon="-3.257936"><ele>207</ele><time>2022-04-15T14:46:04Z</time><name>PT6262</name></trkpt>
<trkpt lat="52.970759" lon="-3.257927"><ele>208</ele><time>2022-04-15T14:46:05Z</time><name>PT6263</name></trkpt>
<trkpt lat="52.970767" lon="-3.257915"><ele>208</ele><time>2022-04-15T14:46:06Z</time><name>PT6264</name></trkpt>
<trkpt lat="52.970771" lon="-3.257891"><ele>208</ele><time>2022-04-15T14:46:07Z</time><name>PT6265</name></trkpt>
<trkpt lat="52.970774" lon="-3.257872"><ele>208</ele><time>2022-04-15T14:46:08Z</time><name>PT6266</name></trkpt>
<trkpt lat="52.970777" lon="-3.257858"><ele>208</ele><time>2022-04-15T14:46:09Z</time><name>PT6267</name></trkpt>
<trkpt lat="52.970783" lon="-3.257837"><ele>208</ele><time>2022-04-15T14:46:10Z</time><name>PT6268</name></trkpt>
<trkpt lat="52.970790" lon="-3.257822"><ele>208</ele><time>2022-04-15T14:46:11Z</time><name>PT6269</name></trkpt>
<trkpt lat="52.970797" lon="-3.257810"><ele>207</ele><time>2022-04-15T14:46:12Z</time><name>PT6270</name></trkpt>
<trkpt lat="52.970801" lon="-3.257797"><ele>207</ele><time>2022-04-15T14:46:13Z</time><name>PT6271</name></trkpt>
<trkpt lat="52.970808" lon="-3.257787"><ele>207</ele><time>2022-04-15T14:46:14Z</time><name>PT6272</name></trkpt>
<trkpt lat="52.970812" lon="-3.257770"><ele>206</ele><time>2022-04-15T14:46:15Z</time><name>PT6273</name></trkpt>
<trkpt lat="52.970815" lon="-3.257759"><ele>205</ele><time>2022-04-15T14:46:16Z</time><name>PT6274</name></trkpt>
<trkpt lat="52.970824" lon="-3.257744"><ele>206</ele><time>2022-04-15T14:46:17Z</time><name>PT6275</name></trkpt>
<trkpt lat="52.970829" lon="-3.257732"><ele>204</ele><time>2022-04-15T14:46:18Z</time><name>PT6276</name></trkpt>
<trkpt lat="52.970833" lon="-3.257716"><ele>204</ele><time>2022-04-15T14:46:19Z</time><name>PT6277</name></trkpt>
<trkpt lat="52.970840" lon="-3.257699"><ele>204</ele><time>2022-04-15T14:46:20Z</time><name>PT6278</name></trkpt>
<trkpt lat="52.970845" lon="-3.257685"><ele>203</ele><time>2022-04-15T14:46:21Z</time><name>PT6279</name></trkpt>
<trkpt lat="52.970854" lon="-3.257668"><ele>203</ele><time>2022-04-15T14:46:22Z</time><name>PT6280</name></trkpt>
<trkpt lat="52.970862" lon="-3.257654"><ele>202</ele><time>2022-04-15T14:46:23Z</time><name>PT6281</name></trkpt>
<trkpt lat="52.970869" lon="-3.257634"><ele>202</ele><time>2022-04-15T14:46:24Z</time><name>PT6282</name></trkpt>
<trkpt lat="52.970871" lon="-3.257619"><ele>202</ele><time>2022-04-15T14:46:25Z</time><name>PT6283</name></trkpt>
<trkpt lat="52.970874" lon="-3.257610"><ele>201</ele><time>2022-04-15T14:46:26Z</time><name>PT6284</name></trkpt>
<trkpt lat="52.970878" lon="-3.257598"><ele>200</ele><time>2022-04-15T14:46:27Z</time><name>PT6285</name></trkpt>
<trkpt lat="52.970883" lon="-3.257578"><ele>199</ele><time>2022-04-15T14:46:28Z</time><name>PT6286</name></trkpt>
<trkpt lat="52.970889" lon="-3.257565"><ele>199</ele><time>2022-04-15T14:46:29Z</time><name>PT6287</name></trkpt>
<trkpt lat="52.970895" lon="-3.257554"><ele>199</ele><time>2022-04-15T14:46:30Z</time><name>PT6288</name></trkpt>
<trkpt lat="52.970902" lon="-3.257534"><ele>199</ele><time>2022-04-15T14:46:31Z</time><name>PT6289</name></trkpt>
<trkpt lat="52.970906" lon="-3.257508"><ele>199</ele><time>2022-04-15T14:46:32Z</time><name>PT6290</name></trkpt>
<trkpt lat="52.970911" lon="-3.257496"><ele>198</ele><time>2022-04-15T14:46:33Z</time><name>PT6291</name></trkpt>
<trkpt lat="52.970917" lon="-3.257480"><ele>198</ele><time>2022-04-15T14:46:34Z</time><name>PT6292</name></trkpt>
<trkpt lat="52.970924" lon="-3.257462"><ele>198</ele><time>2022-04-15T14:46:35Z</time><name>PT6293</name></trkpt>
<trkpt lat="52.970931" lon="-3.257441"><ele>198</ele><time>2022-04-15T14:46:36Z</time><name>PT6294</name></trkpt>
<trkpt lat="52.970935" lon="-3.257426"><ele>198</ele><time>2022-04-15T14:46:37Z</time><name>PT6295</name></trkpt>
<trkpt lat="52.970941" lon="-3.257410"><ele>198</ele><time>2022-04-15T14:46:38Z</time><name>PT6296</name></trkpt>
<trkpt lat="52.970947" lon="-3.257397"><ele>198</ele><time>2022-04-15T14:46:39Z</time><name>PT6297</name></trkpt>
<trkpt lat="52.970953" lon="-3.257379"><ele>199</ele><time>2022-04-15T14:46:40Z</time><name>PT6298</name></trkpt>
<trkpt lat="52.970956" lon="-3.257369"><ele>198</ele><time>2022-04-15T14:46:41Z</time><name>PT6299</name></trkpt>
<trkpt lat="52.970958" lon="-3.257362"><ele>197</ele><time>2022-04-15T14:46:42Z</time><name>PT6300</name></trkpt>
<trkpt lat="52.970962" lon="-3.257346"><ele>196</ele><time>2022-04-15T14:46:43Z</time><name>PT6301</name></trkpt>
<trkpt lat="52.970967" lon="-3.257328"><ele>196</ele><time>2022-04-15T14:46:44Z</time><name>PT6302</name></trkpt>
<trkpt lat="52.970970" lon="-3.257313"><ele>195</ele><time>2022-04-15T14:46:45Z</time><name>PT6303</name></trkpt>
<trkpt lat="52.970973" lon="-3.257292"><ele>195</ele><time>2022-04-15T14:46:46Z</time><name>PT6304</name></trkpt>
<trkpt lat="52.970976" lon="-3.257280"><ele>195</ele><time>2022-04-15T14:46:47Z</time><name>PT6305</name></trkpt>
<trkpt lat="52.970980" lon="-3.257264"><ele>195</ele><time>2022-04-15T14:46:48Z</time><name>PT6306</name></trkpt>
<trkpt lat="52.970987" lon="-3.257251"><ele>195</ele><time>2022-04-15T14:46:49Z</time><name>PT6307</name></trkpt>
<trkpt lat="52.970993" lon="-3.257233"><ele>195</ele><time>2022-04-15T14:46:50Z</time><name>PT6308</name></trkpt>
<trkpt lat="52.970997" lon="-3.257219"><ele>194</ele><time>2022-04-15T14:46:51Z</time><name>PT6309</name></trkpt>
<trkpt lat="52.971001" lon="-3.257208"><ele>194</ele><time>2022-04-15T14:46:52Z</time><name>PT6310</name></trkpt>
<trkpt lat="52.971003" lon="-3.257198"><ele>193</ele><time>2022-04-15T14:46:53Z</time><name>PT6311</name></trkpt>
<trkpt lat="52.971008" lon="-3.257182"><ele>193</ele><time>2022-04-15T14:46:54Z</time><name>PT6312</name></trkpt>
<trkpt lat="52.971011" lon="-3.257166"><ele>191</ele><time>2022-04-15T14:46:55Z</time><name>PT6313</name></trkpt>
<trkpt lat="52.971021" lon="-3.257146"><ele>191</ele><time>2022-04-15T14:46:56Z</time><name>PT6314</name></trkpt>
<trkpt lat="52.971028" lon="-3.257126"><ele>192</ele><time>2022-04-15T14:46:57Z</time><name>PT6315</name></trkpt>
<trkpt lat="52.971029" lon="-3.257113"><ele>191</ele><time>2022-04-15T14:46:58Z</time><name>PT6316</name></trkpt>
<trkpt lat="52.971032" lon="-3.257097"><ele>191</ele><time>2022-04-15T14:46:59Z</time><name>PT6317</name></trkpt>
<trkpt lat="52.971040" lon="-3.257077"><ele>190</ele><time>2022-04-15T14:47:00Z</time><name>PT6318</name></trkpt>
<trkpt lat="52.971045" lon="-3.257065"><ele>189</ele><time>2022-04-15T14:47:01Z</time><name>PT6319</name></trkpt>
<trkpt lat="52.971051" lon="-3.257043"><ele>190</ele><time>2022-04-15T14:47:02Z</time><name>PT6320</name></trkpt>
<trkpt lat="52.971058" lon="-3.257026"><ele>190</ele><time>2022-04-15T14:47:03Z</time><name>PT6321</name></trkpt>
<trkpt lat="52.971066" lon="-3.257003"><ele>190</ele><time>2022-04-15T14:47:04Z</time><name>PT6322</name></trkpt>
<trkpt lat="52.971078" lon="-3.256978"><ele>191</ele><time>2022-04-15T14:47:05Z</time><name>PT6323</name></trkpt>
<trkpt lat="52.971085" lon="-3.256964"><ele>191</ele><time>2022-04-15T14:47:06Z</time><name>PT6324</name></trkpt>
<trkpt lat="52.971095" lon="-3.256944"><ele>192</ele><time>2022-04-15T14:47:07Z</time><name>PT6325</name></trkpt>
<trkpt lat="52.971103" lon="-3.256928"><ele>192</ele><time>2022-04-15T14:47:08Z</time><name>PT6326</name></trkpt>
<trkpt lat="52.971110" lon="-3.256916"><ele>191</ele><time>2022-04-15T14:47:09Z</time><name>PT6327</name></trkpt>
<trkpt lat="52.971114" lon="-3.256901"><ele>191</ele><time>2022-04-15T14:47:10Z</time><name>PT6328</name></trkpt>
<trkpt lat="52.971119" lon="-3.256888"><ele>190</ele><time>2022-04-15T14:47:11Z</time><name>PT6329</name></trkpt>
<trkpt lat="52.971123" lon="-3.256875"><ele>190</ele><time>2022-04-15T14:47:12Z</time><name>PT6330</name></trkpt>
<trkpt lat="52.971129" lon="-3.256858"><ele>190</ele><time>2022-04-15T14:47:13Z</time><name>PT6331</name></trkpt>
<trkpt lat="52.971135" lon="-3.256841"><ele>190</ele><time>2022-04-15T14:47:14Z</time><name>PT6332</name></trkpt>
<trkpt lat="52.971140" lon="-3.256824"><ele>190</ele><time>2022-04-15T14:47:15Z</time><name>PT6333</name></trkpt>
<trkpt lat="52.971146" lon="-3.256809"><ele>190</ele><time>2022-04-15T14:47:16Z</time><name>PT6334</name></trkpt>
<trkpt lat="52.971151" lon="-3.256791"><ele>189</ele><time>2022-04-15T14:47:17Z</time><name>PT6335</name></trkpt>
<trkpt lat="52.971156" lon="-3.256773"><ele>188</ele><time>2022-04-15T14:47:18Z</time><name>PT6336</name></trkpt>
<trkpt lat="52.971162" lon="-3.256747"><ele>189</ele><time>2022-04-15T14:47:19Z</time><name>PT6337</name></trkpt>
<trkpt lat="52.971165" lon="-3.256726"><ele>189</ele><time>2022-04-15T14:47:20Z</time><name>PT6338</name></trkpt>
<trkpt lat="52.971171" lon="-3.256707"><ele>189</ele><time>2022-04-15T14:47:21Z</time><name>PT6339</name></trkpt>
<trkpt lat="52.971186" lon="-3.256676"><ele>190</ele><time>2022-04-15T14:47:22Z</time><name>PT6340</name></trkpt>
<trkpt lat="52.971197" lon="-3.256656"><ele>191</ele><time>2022-04-15T14:47:23Z</time><name>PT6341</name></trkpt>
<trkpt lat="52.971206" lon="-3.256639"><ele>191</ele><time>2022-04-15T14:47:24Z</time><name>PT6342</name></trkpt>
<trkpt lat="52.971213" lon="-3.256623"><ele>191</ele><time>2022-04-15T14:47:25Z</time><name>PT6343</name></trkpt>
<trkpt lat="52.971220" lon="-3.256603"><ele>190</ele><time>2022-04-15T14:47:26Z</time><name>PT6344</name></trkpt>
<trkpt lat="52.971227" lon="-3.256598"><ele>190</ele><time>2022-04-15T14:47:27Z</time><name>PT6345</name></trkpt>
<trkpt lat="52.971234" lon="-3.256585"><ele>190</ele><time>2022-04-15T14:47:28Z</time><name>PT6346</name></trkpt>
<trkpt lat="52.971241" lon="-3.256577"><ele>190</ele><time>2022-04-15T14:47:29Z</time><name>PT6347</name></trkpt>
<trkpt lat="52.971250" lon="-3.256570"><ele>189</ele><time>2022-04-15T14:47:30Z</time><name>PT6348</name></trkpt>
<trkpt lat="52.971261" lon="-3.256565"><ele>189</ele><time>2022-04-15T14:47:31Z</time><name>PT6349</name></trkpt>
<trkpt lat="52.971268" lon="-3.256562"><ele>188</ele><time>2022-04-15T14:47:32Z</time><name>PT6350</name></trkpt>
<trkpt lat="52.971274" lon="-3.256554"><ele>188</ele><time>2022-04-15T14:47:33Z</time><name>PT6351</name></trkpt>
<trkpt lat="52.971281" lon="-3.256538"><ele>188</ele><time>2022-04-15T14:47:34Z</time><name>PT6352</name></trkpt>
<trkpt lat="52.971290" lon="-3.256536"><ele>188</ele><time>2022-04-15T14:47:35Z</time><name>PT6353</name></trkpt>
<trkpt lat="52.971300" lon="-3.256527"><ele>188</ele><time>2022-04-15T14:47:36Z</time><name>PT6354</name></trkpt>
<trkpt lat="52.971309" lon="-3.256517"><ele>188</ele><time>2022-04-15T14:47:37Z</time><name>PT6355</name></trkpt>
<trkpt lat="52.971319" lon="-3.256504"><ele>187</ele><time>2022-04-15T14:47:38Z</time><name>PT6356</name></trkpt>
<trkpt lat="52.971325" lon="-3.256500"><ele>186</ele><time>2022-04-15T14:47:39Z</time><name>PT6357</name></trkpt>
<trkpt lat="52.971332" lon="-3.256491"><ele>186</ele><time>2022-04-15T14:47:40Z</time><name>PT6358</name></trkpt>
<trkpt lat="52.971337" lon="-3.256491"><ele>185</ele><time>2022-04-15T14:47:41Z</time><name>PT6359</name></trkpt>
<trkpt lat="52.971348" lon="-3.256491"><ele>185</ele><time>2022-04-15T14:47:42Z</time><name>PT6360</name></trkpt>
<trkpt lat="52.971352" lon="-3.256494"><ele>184</ele><time>2022-04-15T14:47:43Z</time><name>PT6361</name></trkpt>
<trkpt lat="52.971366" lon="-3.256484"><ele>184</ele><time>2022-04-15T14:47:44Z</time><name>PT6362</name></trkpt>
<trkpt lat="52.971373" lon="-3.256477"><ele>184</ele><time>2022-04-15T14:47:45Z</time><name>PT6363</name></trkpt>
<trkpt lat="52.971386" lon="-3.256470"><ele>184</ele><time>2022-04-15T14:47:46Z</time><name>PT6364</name></trkpt>
<trkpt lat="52.971398" lon="-3.256459"><ele>184</ele><time>2022-04-15T14:47:47Z</time><name>PT6365</name></trkpt>
<trkpt lat="52.971408" lon="-3.256456"><ele>184</ele><time>2022-04-15T14:47:48Z</time><name>PT6366</name></trkpt>
<trkpt lat="52.971424" lon="-3.256454"><ele>183</ele><time>2022-04-15T14:47:49Z</time><name>PT6367</name></trkpt>
<trkpt lat="52.971438" lon="-3.256445"><ele>184</ele><time>2022-04-15T14:47:50Z</time><name>PT6368</name></trkpt>
<trkpt lat="52.971444" lon="-3.256441"><ele>183</ele><time>2022-04-15T14:47:51Z</time><name>PT6369</name></trkpt>
<trkpt lat="52.971458" lon="-3.256437"><ele>183</ele><time>2022-04-15T14:47:52Z</time><name>PT6370</name></trkpt>
<trkpt lat="52.971467" lon="-3.256435"><ele>183</ele><time>2022-04-15T14:47:53Z</time><name>PT6371</name></trkpt>
<trkpt lat="52.971478" lon="-3.256434"><ele>183</ele><time>2022-04-15T14:47:54Z</time><name>PT6372</name></trkpt>
<trkpt lat="52.971486" lon="-3.256431"><ele>182</ele><time>2022-04-15T14:47:55Z</time><name>PT6373</name></trkpt>
<trkpt lat="52.971491" lon="-3.256430"><ele>181</ele><time>2022-04-15T14:47:56Z</time><name>PT6374</name></trkpt>
<trkpt lat="52.971507" lon="-3.256424"><ele>181</ele><time>2022-04-15T14:47:57Z</time><name>PT6375</name></trkpt>
<trkpt lat="52.971585" lon="-3.256401"><ele>183</ele><time>2022-04-15T14:48:01Z</time><name>PT6376</name></trkpt>
<trkpt lat="52.971661" lon="-3.256387"><ele>188</ele><time>2022-04-15T14:48:04Z</time><name>PT6377</name></trkpt>
<trkpt lat="52.971705" lon="-3.256379"><ele>189</ele><time>2022-04-15T14:48:07Z</time><name>PT6378</name></trkpt>
<trkpt lat="52.971769" lon="-3.256364"><ele>192</ele><time>2022-04-15T14:48:11Z</time><name>PT6379</name></trkpt>
<trkpt lat="52.971812" lon="-3.256354"><ele>188</ele><time>2022-04-15T14:48:15Z</time><name>PT6380</name></trkpt>
<trkpt lat="52.971850" lon="-3.256347"><ele>187</ele><time>2022-04-15T14:48:19Z</time><name>PT6381</name></trkpt>
<trkpt lat="52.971897" lon="-3.256339"><ele>186</ele><time>2022-04-15T14:48:23Z</time><name>PT6382</name></trkpt>
<trkpt lat="52.971940" lon="-3.256334"><ele>186</ele><time>2022-04-15T14:48:26Z</time><name>PT6383</name></trkpt>
<trkpt lat="52.971983" lon="-3.256328"><ele>186</ele><time>2022-04-15T14:48:29Z</time><name>PT6384</name></trkpt>
<trkpt lat="52.971995" lon="-3.256329"><ele>186</ele><time>2022-04-15T14:48:30Z</time><name>PT6385</name></trkpt>
<trkpt lat="52.972007" lon="-3.256331"><ele>187</ele><time>2022-04-15T14:48:31Z</time><name>PT6386</name></trkpt>
<trkpt lat="52.972018" lon="-3.256330"><ele>187</ele><time>2022-04-15T14:48:32Z</time><name>PT6387</name></trkpt>
<trkpt lat="52.972024" lon="-3.256322"><ele>186</ele><time>2022-04-15T14:48:33Z</time><name>PT6388</name></trkpt>
<trkpt lat="52.972031" lon="-3.256315"><ele>185</ele><time>2022-04-15T14:48:34Z</time><name>PT6389</name></trkpt>
<trkpt lat="52.972044" lon="-3.256306"><ele>186</ele><time>2022-04-15T14:48:35Z</time><name>PT6390</name></trkpt>
<trkpt lat="52.972049" lon="-3.256304"><ele>186</ele><time>2022-04-15T14:48:36Z</time><name>PT6391</name></trkpt>
<trkpt lat="52.972060" lon="-3.256300"><ele>186</ele><time>2022-04-15T14:48:37Z</time><name>PT6392</name></trkpt>
<trkpt lat="52.972070" lon="-3.256301"><ele>186</ele><time>2022-04-15T14:48:38Z</time><name>PT6393</name></trkpt>
<trkpt lat="52.972086" lon="-3.256296"><ele>187</ele><time>2022-04-15T14:48:39Z</time><name>PT6394</name></trkpt>
<trkpt lat="52.972095" lon="-3.256291"><ele>186</ele><time>2022-04-15T14:48:40Z</time><name>PT6395</name></trkpt>
<trkpt lat="52.972105" lon="-3.256291"><ele>186</ele><time>2022-04-15T14:48:41Z</time><name>PT6396</name></trkpt>
<trkpt lat="52.972106" lon="-3.256282"><ele>185</ele><time>2022-04-15T14:48:42Z</time><name>PT6397</name></trkpt>
<trkpt lat="52.972114" lon="-3.256278"><ele>185</ele><time>2022-04-15T14:48:43Z</time><name>PT6398</name></trkpt>
<trkpt lat="52.972133" lon="-3.256272"><ele>187</ele><time>2022-04-15T14:48:44Z</time><name>PT6399</name></trkpt>
<trkpt lat="52.972137" lon="-3.256269"><ele>186</ele><time>2022-04-15T14:48:45Z</time><name>PT6400</name></trkpt>
<trkpt lat="52.972149" lon="-3.256265"><ele>186</ele><time>2022-04-15T14:48:46Z</time><name>PT6401</name></trkpt>
<trkpt lat="52.972156" lon="-3.256259"><ele>186</ele><time>2022-04-15T14:48:47Z</time><name>PT6402</name></trkpt>
<trkpt lat="52.972168" lon="-3.256252"><ele>186</ele><time>2022-04-15T14:48:48Z</time><name>PT6403</name></trkpt>
<trkpt lat="52.972166" lon="-3.256249"><ele>185</ele><time>2022-04-15T14:48:49Z</time><name>PT6404</name></trkpt>
<trkpt lat="52.972168" lon="-3.256245"><ele>184</ele><time>2022-04-15T14:48:50Z</time><name>PT6405</name></trkpt>
<trkpt lat="52.972179" lon="-3.256237"><ele>185</ele><time>2022-04-15T14:48:51Z</time><name>PT6406</name></trkpt>
<trkpt lat="52.972183" lon="-3.256232"><ele>185</ele><time>2022-04-15T14:48:52Z</time><name>PT6407</name></trkpt>
<trkpt lat="52.972197" lon="-3.256228"><ele>185</ele><time>2022-04-15T14:48:53Z</time><name>PT6408</name></trkpt>
<trkpt lat="52.972212" lon="-3.256228"><ele>186</ele><time>2022-04-15T14:48:54Z</time><name>PT6409</name></trkpt>
<trkpt lat="52.972231" lon="-3.256222"><ele>187</ele><time>2022-04-15T14:48:55Z</time><name>PT6410</name></trkpt>
<trkpt lat="52.972251" lon="-3.256217"><ele>187</ele><time>2022-04-15T14:48:56Z</time><name>PT6411</name></trkpt>
<trkpt lat="52.972264" lon="-3.256202"><ele>188</ele><time>2022-04-15T14:48:57Z</time><name>PT6412</name></trkpt>
<trkpt lat="52.972276" lon="-3.256193"><ele>188</ele><time>2022-04-15T14:48:58Z</time><name>PT6413</name></trkpt>
<trkpt lat="52.972284" lon="-3.256191"><ele>188</ele><time>2022-04-15T14:48:59Z</time><name>PT6414</name></trkpt>
<trkpt lat="52.972287" lon="-3.256189"><ele>188</ele><time>2022-04-15T14:49:00Z</time><name>PT6415</name></trkpt>
<trkpt lat="52.972290" lon="-3.256180"><ele>188</ele><time>2022-04-15T14:49:01Z</time><name>PT6416</name></trkpt>
<trkpt lat="52.972298" lon="-3.256165"><ele>188</ele><time>2022-04-15T14:49:02Z</time><name>PT6417</name></trkpt>
<trkpt lat="52.972307" lon="-3.256161"><ele>188</ele><time>2022-04-15T14:49:03Z</time><name>PT6418</name></trkpt>
<trkpt lat="52.972314" lon="-3.256157"><ele>188</ele><time>2022-04-15T14:49:04Z</time><name>PT6419</name></trkpt>
<trkpt lat="52.972329" lon="-3.256155"><ele>188</ele><time>2022-04-15T14:49:05Z</time><name>PT6420</name></trkpt>
<trkpt lat="52.972346" lon="-3.256154"><ele>189</ele><time>2022-04-15T14:49:06Z</time><name>PT6421</name></trkpt>
<trkpt lat="52.972351" lon="-3.256144"><ele>188</ele><time>2022-04-15T14:49:07Z</time><name>PT6422</name></trkpt>
<trkpt lat="52.972373" lon="-3.256141"><ele>189</ele><time>2022-04-15T14:49:08Z</time><name>PT6423</name></trkpt>
<trkpt lat="52.972368" lon="-3.256143"><ele>187</ele><time>2022-04-15T14:49:09Z</time><name>PT6424</name></trkpt>
<trkpt lat="52.972372" lon="-3.256148"><ele>186</ele><time>2022-04-15T14:49:10Z</time><name>PT6425</name></trkpt>
<trkpt lat="52.972377" lon="-3.256153"><ele>185</ele><time>2022-04-15T14:49:11Z</time><name>PT6426</name></trkpt>
<trkpt lat="52.972386" lon="-3.256164"><ele>184</ele><time>2022-04-15T14:49:12Z</time><name>PT6427</name></trkpt>
<trkpt lat="52.972400" lon="-3.256172"><ele>185</ele><time>2022-04-15T14:49:13Z</time><name>PT6428</name></trkpt>
<trkpt lat="52.972421" lon="-3.256170"><ele>186</ele><time>2022-04-15T14:49:14Z</time><name>PT6429</name></trkpt>
<trkpt lat="52.972446" lon="-3.256170"><ele>187</ele><time>2022-04-15T14:49:15Z</time><name>PT6430</name></trkpt>
<trkpt lat="52.972463" lon="-3.256167"><ele>185</ele><time>2022-04-15T14:49:16Z</time><name>PT6431</name></trkpt>
<trkpt lat="52.972475" lon="-3.256165"><ele>185</ele><time>2022-04-15T14:49:17Z</time><name>PT6432</name></trkpt>
<trkpt lat="52.972480" lon="-3.256162"><ele>184</ele><time>2022-04-15T14:49:18Z</time><name>PT6433</name></trkpt>
<trkpt lat="52.972482" lon="-3.256162"><ele>183</ele><time>2022-04-15T14:49:19Z</time><name>PT6434</name></trkpt>
<trkpt lat="52.972489" lon="-3.256163"><ele>183</ele><time>2022-04-15T14:49:20Z</time><name>PT6435</name></trkpt>
<trkpt lat="52.972500" lon="-3.256157"><ele>182</ele><time>2022-04-15T14:49:21Z</time><name>PT6436</name></trkpt>
<trkpt lat="52.972513" lon="-3.256158"><ele>182</ele><time>2022-04-15T14:49:22Z</time><name>PT6437</name></trkpt>
<trkpt lat="52.972526" lon="-3.256154"><ele>182</ele><time>2022-04-15T14:49:23Z</time><name>PT6438</name></trkpt>
<trkpt lat="52.972534" lon="-3.256154"><ele>182</ele><time>2022-04-15T14:49:24Z</time><name>PT6439</name></trkpt>
<trkpt lat="52.972539" lon="-3.256147"><ele>181</ele><time>2022-04-15T14:49:25Z</time><name>PT6440</name></trkpt>
<trkpt lat="52.972551" lon="-3.256139"><ele>180</ele><time>2022-04-15T14:49:26Z</time><name>PT6441</name></trkpt>
<trkpt lat="52.972568" lon="-3.256122"><ele>181</ele><time>2022-04-15T14:49:27Z</time><name>PT6442</name></trkpt>
<trkpt lat="52.972581" lon="-3.256116"><ele>182</ele><time>2022-04-15T14:49:28Z</time><name>PT6443</name></trkpt>
<trkpt lat="52.972589" lon="-3.256111"><ele>181</ele><time>2022-04-15T14:49:29Z</time><name>PT6444</name></trkpt>
<trkpt lat="52.972604" lon="-3.256105"><ele>181</ele><time>2022-04-15T14:49:30Z</time><name>PT6445</name></trkpt>
<trkpt lat="52.972615" lon="-3.256104"><ele>181</ele><time>2022-04-15T14:49:31Z</time><name>PT6446</name></trkpt>
<trkpt lat="52.972635" lon="-3.256101"><ele>181</ele><time>2022-04-15T14:49:32Z</time><name>PT6447</name></trkpt>
<trkpt lat="52.972652" lon="-3.256097"><ele>181</ele><time>2022-04-15T14:49:33Z</time><name>PT6448</name></trkpt>
<trkpt lat="52.972662" lon="-3.256095"><ele>181</ele><time>2022-04-15T14:49:34Z</time><name>PT6449</name></trkpt>
<trkpt lat="52.972682" lon="-3.256093"><ele>181</ele><time>2022-04-15T14:49:35Z</time><name>PT6450</name></trkpt>
<trkpt lat="52.972701" lon="-3.256089"><ele>179</ele><time>2022-04-15T14:49:36Z</time><name>PT6451</name></trkpt>
<trkpt lat="52.972713" lon="-3.256087"><ele>178</ele><time>2022-04-15T14:49:37Z</time><name>PT6452</name></trkpt>
<trkpt lat="52.972725" lon="-3.256090"><ele>178</ele><time>2022-04-15T14:49:38Z</time><name>PT6453</name></trkpt>
<trkpt lat="52.972738" lon="-3.256095"><ele>178</ele><time>2022-04-15T14:49:39Z</time><name>PT6454</name></trkpt>
<trkpt lat="52.972745" lon="-3.256106"><ele>177</ele><time>2022-04-15T14:49:40Z</time><name>PT6455</name></trkpt>
<trkpt lat="52.972760" lon="-3.256113"><ele>177</ele><time>2022-04-15T14:49:41Z</time><name>PT6456</name></trkpt>
<trkpt lat="52.972772" lon="-3.256122"><ele>177</ele><time>2022-04-15T14:49:42Z</time><name>PT6457</name></trkpt>
<trkpt lat="52.972792" lon="-3.256131"><ele>177</ele><time>2022-04-15T14:49:43Z</time><name>PT6458</name></trkpt>
<trkpt lat="52.972805" lon="-3.256141"><ele>177</ele><time>2022-04-15T14:49:44Z</time><name>PT6459</name></trkpt>
<trkpt lat="52.972813" lon="-3.256154"><ele>178</ele><time>2022-04-15T14:49:45Z</time><name>PT6460</name></trkpt>
<trkpt lat="52.972830" lon="-3.256168"><ele>178</ele><time>2022-04-15T14:49:46Z</time><name>PT6461</name></trkpt>
<trkpt lat="52.972839" lon="-3.256183"><ele>178</ele><time>2022-04-15T14:49:47Z</time><name>PT6462</name></trkpt>
<trkpt lat="52.972853" lon="-3.256193"><ele>178</ele><time>2022-04-15T14:49:48Z</time><name>PT6463</name></trkpt>
<trkpt lat="52.972862" lon="-3.256203"><ele>178</ele><time>2022-04-15T14:49:49Z</time><name>PT6464</name></trkpt>
<trkpt lat="52.972876" lon="-3.256212"><ele>179</ele><time>2022-04-15T14:49:50Z</time><name>PT6465</name></trkpt>
<trkpt lat="52.972890" lon="-3.256223"><ele>179</ele><time>2022-04-15T14:49:51Z</time><name>PT6466</name></trkpt>
<trkpt lat="52.972900" lon="-3.256230"><ele>179</ele><time>2022-04-15T14:49:52Z</time><name>PT6467</name></trkpt>
<trkpt lat="52.972920" lon="-3.256242"><ele>180</ele><time>2022-04-15T14:49:53Z</time><name>PT6468</name></trkpt>
<trkpt lat="52.972931" lon="-3.256250"><ele>180</ele><time>2022-04-15T14:49:54Z</time><name>PT6469</name></trkpt>
<trkpt lat="52.972937" lon="-3.256259"><ele>179</ele><time>2022-04-15T14:49:55Z</time><name>PT6470</name></trkpt>
<trkpt lat="52.972942" lon="-3.256260"><ele>179</ele><time>2022-04-15T14:49:56Z</time><name>PT6471</name></trkpt>
<trkpt lat="52.972945" lon="-3.256265"><ele>179</ele><time>2022-04-15T14:49:57Z</time><name>PT6472</name></trkpt>
<trkpt lat="52.972944" lon="-3.256266"><ele>179</ele><time>2022-04-15T14:49:58Z</time><name>PT6473</name></trkpt>
<trkpt lat="52.972948" lon="-3.256274"><ele>178</ele><time>2022-04-15T14:49:59Z</time><name>PT6474</name></trkpt>
<trkpt lat="52.972952" lon="-3.256279"><ele>178</ele><time>2022-04-15T14:50:00Z</time><name>PT6475</name></trkpt>
<trkpt lat="52.972955" lon="-3.256282"><ele>177</ele><time>2022-04-15T14:50:08Z</time><name>PT6476</name></trkpt>
<trkpt lat="52.972953" lon="-3.256285"><ele>177</ele><time>2022-04-15T14:50:09Z</time><name>PT6477</name></trkpt>
<trkpt lat="52.972953" lon="-3.256284"><ele>177</ele><time>2022-04-15T14:50:10Z</time><name>PT6478</name></trkpt>
<trkpt lat="52.972951" lon="-3.256287"><ele>178</ele><time>2022-04-15T14:50:31Z</time><name>PT6479</name></trkpt>
<trkpt lat="52.972957" lon="-3.256294"><ele>178</ele><time>2022-04-15T14:50:32Z</time><name>PT6480</name></trkpt>
<trkpt lat="52.972960" lon="-3.256288"><ele>179</ele><time>2022-04-15T14:50:33Z</time><name>PT6481</name></trkpt></trkseg></trk></gpx>